<?xml version="1.0" encoding="UTF-8" standalone="no" ?>
<gpx xmlns="http://www.topografix.com/GPX/1/1" xmlns:xsi="http://www.w3.org/2001/XMLSchema-instance" xsi:schemaLocation="http://www.topografix.com/GPX/1/1 http://www.topografix.com/GPX/1/1/gpx.xsd" version="1.1" creator="VisuGPX - https://www.visugpx.com">
  <metadata>
    <name>Saint-Gratien, Molliens-au-bois</name>
  </metadata>
  <trk>
    <name><![CDATA[Saint-Gratien, Molliens-au-bois_1]]></name>
    <trkseg>
      <trkpt lat="49.96547" lon="2.40927">
        <ele>110.9</ele>
        <time>2022-04-20T12:00:55Z</time>
      </trkpt>
      <trkpt lat="49.96547" lon="2.40927">
        <ele>110.9</ele>
        <time>2022-04-20T12:00:56Z</time>
      </trkpt>
      <trkpt lat="49.96547" lon="2.40927">
        <ele>110.9</ele>
        <time>2022-04-20T12:00:57Z</time>
      </trkpt>
      <trkpt lat="49.96547" lon="2.40927">
        <ele>110.9</ele>
        <time>2022-04-20T12:00:58Z</time>
      </trkpt>
      <trkpt lat="49.96547" lon="2.40927">
        <ele>110.9</ele>
        <time>2022-04-20T12:00:59Z</time>
      </trkpt>
      <trkpt lat="49.96547" lon="2.40927">
        <ele>110.9</ele>
        <time>2022-04-20T12:01:00Z</time>
      </trkpt>
      <trkpt lat="49.96547" lon="2.40927">
        <ele>110.9</ele>
        <time>2022-04-20T12:01:01Z</time>
      </trkpt>
      <trkpt lat="49.96547" lon="2.40927">
        <ele>110.9</ele>
        <time>2022-04-20T12:01:02Z</time>
      </trkpt>
      <trkpt lat="49.96547" lon="2.40927">
        <ele>110.9</ele>
        <time>2022-04-20T12:01:03Z</time>
      </trkpt>
      <trkpt lat="49.96547" lon="2.40927">
        <ele>110.9</ele>
        <time>2022-04-20T12:01:04Z</time>
      </trkpt>
      <trkpt lat="49.96547" lon="2.40927">
        <ele>110.8</ele>
        <time>2022-04-20T12:01:06Z</time>
      </trkpt>
      <trkpt lat="49.96547" lon="2.40927">
        <ele>110.8</ele>
        <time>2022-04-20T12:01:07Z</time>
      </trkpt>
      <trkpt lat="49.96547" lon="2.40927">
        <ele>110.8</ele>
        <time>2022-04-20T12:01:08Z</time>
      </trkpt>
      <trkpt lat="49.96547" lon="2.40928">
        <ele>110.8</ele>
        <time>2022-04-20T12:01:10Z</time>
      </trkpt>
      <trkpt lat="49.96547" lon="2.40928">
        <ele>110.8</ele>
        <time>2022-04-20T12:01:11Z</time>
      </trkpt>
      <trkpt lat="49.96547" lon="2.40928">
        <ele>110.8</ele>
        <time>2022-04-20T12:01:12Z</time>
      </trkpt>
      <trkpt lat="49.96548" lon="2.40928">
        <ele>110.8</ele>
        <time>2022-04-20T12:01:13Z</time>
      </trkpt>
      <trkpt lat="49.96548" lon="2.40929">
        <ele>110.8</ele>
        <time>2022-04-20T12:01:14Z</time>
      </trkpt>
      <trkpt lat="49.96549" lon="2.4093">
        <ele>110.8</ele>
        <time>2022-04-20T12:01:15Z</time>
      </trkpt>
      <trkpt lat="49.9655" lon="2.40931">
        <ele>110.8</ele>
        <time>2022-04-20T12:01:17Z</time>
      </trkpt>
      <trkpt lat="49.96552" lon="2.40934">
        <ele>110.8</ele>
        <time>2022-04-20T12:01:18Z</time>
      </trkpt>
      <trkpt lat="49.96552" lon="2.40936">
        <ele>110.8</ele>
        <time>2022-04-20T12:01:20Z</time>
      </trkpt>
      <trkpt lat="49.96553" lon="2.40937">
        <ele>110.8</ele>
        <time>2022-04-20T12:01:21Z</time>
      </trkpt>
      <trkpt lat="49.96553" lon="2.40939">
        <ele>110.8</ele>
        <time>2022-04-20T12:01:22Z</time>
      </trkpt>
      <trkpt lat="49.96554" lon="2.4094">
        <ele>110.8</ele>
        <time>2022-04-20T12:01:23Z</time>
      </trkpt>
      <trkpt lat="49.96555" lon="2.40942">
        <ele>110.8</ele>
        <time>2022-04-20T12:01:25Z</time>
      </trkpt>
      <trkpt lat="49.96556" lon="2.40943">
        <ele>110.8</ele>
        <time>2022-04-20T12:01:26Z</time>
      </trkpt>
      <trkpt lat="49.96556" lon="2.40945">
        <ele>110.8</ele>
        <time>2022-04-20T12:01:27Z</time>
      </trkpt>
      <trkpt lat="49.96556" lon="2.40947">
        <ele>110.8</ele>
        <time>2022-04-20T12:01:28Z</time>
      </trkpt>
      <trkpt lat="49.96557" lon="2.40949">
        <ele>110.8</ele>
        <time>2022-04-20T12:01:29Z</time>
      </trkpt>
      <trkpt lat="49.96558" lon="2.40951">
        <ele>110.8</ele>
        <time>2022-04-20T12:01:31Z</time>
      </trkpt>
      <trkpt lat="49.96559" lon="2.40954">
        <ele>110.8</ele>
        <time>2022-04-20T12:01:33Z</time>
      </trkpt>
      <trkpt lat="49.96558" lon="2.40954">
        <ele>110.8</ele>
        <time>2022-04-20T12:01:34Z</time>
      </trkpt>
      <trkpt lat="49.96558" lon="2.40956">
        <ele>110.8</ele>
        <time>2022-04-20T12:01:35Z</time>
      </trkpt>
      <trkpt lat="49.96559" lon="2.40958">
        <ele>110.7</ele>
        <time>2022-04-20T12:01:37Z</time>
      </trkpt>
      <trkpt lat="49.96559" lon="2.4096">
        <ele>110.7</ele>
        <time>2022-04-20T12:01:38Z</time>
      </trkpt>
      <trkpt lat="49.9656" lon="2.40962">
        <ele>110.7</ele>
        <time>2022-04-20T12:01:39Z</time>
      </trkpt>
      <trkpt lat="49.96561" lon="2.40966">
        <ele>110.7</ele>
        <time>2022-04-20T12:01:41Z</time>
      </trkpt>
      <trkpt lat="49.96562" lon="2.40968">
        <ele>110.7</ele>
        <time>2022-04-20T12:01:42Z</time>
      </trkpt>
      <trkpt lat="49.96562" lon="2.40971">
        <ele>110.7</ele>
        <time>2022-04-20T12:01:43Z</time>
      </trkpt>
      <trkpt lat="49.96563" lon="2.40973">
        <ele>110.7</ele>
        <time>2022-04-20T12:01:44Z</time>
      </trkpt>
      <trkpt lat="49.96564" lon="2.40977">
        <ele>110.7</ele>
        <time>2022-04-20T12:01:46Z</time>
      </trkpt>
      <trkpt lat="49.96564" lon="2.40979">
        <ele>110.7</ele>
        <time>2022-04-20T12:01:47Z</time>
      </trkpt>
      <trkpt lat="49.96565" lon="2.4098">
        <ele>110.7</ele>
        <time>2022-04-20T12:01:48Z</time>
      </trkpt>
      <trkpt lat="49.96565" lon="2.40982">
        <ele>110.7</ele>
        <time>2022-04-20T12:01:49Z</time>
      </trkpt>
      <trkpt lat="49.96566" lon="2.40983">
        <ele>110.7</ele>
        <time>2022-04-20T12:01:50Z</time>
      </trkpt>
      <trkpt lat="49.96567" lon="2.40984">
        <ele>110.7</ele>
        <time>2022-04-20T12:01:51Z</time>
      </trkpt>
      <trkpt lat="49.96567" lon="2.40986">
        <ele>110.7</ele>
        <time>2022-04-20T12:01:52Z</time>
      </trkpt>
      <trkpt lat="49.96568" lon="2.40986">
        <ele>110.7</ele>
        <time>2022-04-20T12:01:53Z</time>
      </trkpt>
      <trkpt lat="49.96568" lon="2.40987">
        <ele>110.7</ele>
        <time>2022-04-20T12:01:55Z</time>
      </trkpt>
      <trkpt lat="49.96569" lon="2.40987">
        <ele>110.7</ele>
        <time>2022-04-20T12:01:56Z</time>
      </trkpt>
      <trkpt lat="49.9657" lon="2.40988">
        <ele>110.7</ele>
        <time>2022-04-20T12:01:57Z</time>
      </trkpt>
      <trkpt lat="49.9657" lon="2.40988">
        <ele>110.7</ele>
        <time>2022-04-20T12:01:58Z</time>
      </trkpt>
      <trkpt lat="49.96571" lon="2.40988">
        <ele>110.7</ele>
        <time>2022-04-20T12:01:59Z</time>
      </trkpt>
      <trkpt lat="49.96572" lon="2.40989">
        <ele>110.7</ele>
        <time>2022-04-20T12:02:00Z</time>
      </trkpt>
      <trkpt lat="49.96573" lon="2.4099">
        <ele>110.6</ele>
        <time>2022-04-20T12:02:01Z</time>
      </trkpt>
      <trkpt lat="49.96574" lon="2.40991">
        <ele>110.6</ele>
        <time>2022-04-20T12:02:03Z</time>
      </trkpt>
      <trkpt lat="49.96574" lon="2.40991">
        <ele>110.6</ele>
        <time>2022-04-20T12:02:04Z</time>
      </trkpt>
      <trkpt lat="49.96575" lon="2.40992">
        <ele>110.6</ele>
        <time>2022-04-20T12:02:05Z</time>
      </trkpt>
      <trkpt lat="49.96576" lon="2.40992">
        <ele>110.6</ele>
        <time>2022-04-20T12:02:06Z</time>
      </trkpt>
      <trkpt lat="49.96576" lon="2.40993">
        <ele>110.6</ele>
        <time>2022-04-20T12:02:07Z</time>
      </trkpt>
      <trkpt lat="49.96576" lon="2.40994">
        <ele>110.6</ele>
        <time>2022-04-20T12:02:08Z</time>
      </trkpt>
      <trkpt lat="49.96576" lon="2.40995">
        <ele>110.6</ele>
        <time>2022-04-20T12:02:09Z</time>
      </trkpt>
      <trkpt lat="49.96577" lon="2.40997">
        <ele>110.6</ele>
        <time>2022-04-20T12:02:11Z</time>
      </trkpt>
      <trkpt lat="49.96578" lon="2.40999">
        <ele>110.5</ele>
        <time>2022-04-20T12:02:12Z</time>
      </trkpt>
      <trkpt lat="49.96578" lon="2.41001">
        <ele>110.5</ele>
        <time>2022-04-20T12:02:13Z</time>
      </trkpt>
      <trkpt lat="49.96579" lon="2.41002">
        <ele>110.5</ele>
        <time>2022-04-20T12:02:14Z</time>
      </trkpt>
      <trkpt lat="49.96579" lon="2.41003">
        <ele>110.5</ele>
        <time>2022-04-20T12:02:15Z</time>
      </trkpt>
      <trkpt lat="49.9658" lon="2.41005">
        <ele>110.5</ele>
        <time>2022-04-20T12:02:16Z</time>
      </trkpt>
      <trkpt lat="49.9658" lon="2.41007">
        <ele>110.5</ele>
        <time>2022-04-20T12:02:17Z</time>
      </trkpt>
      <trkpt lat="49.96581" lon="2.41009">
        <ele>110.5</ele>
        <time>2022-04-20T12:02:18Z</time>
      </trkpt>
      <trkpt lat="49.96581" lon="2.41011">
        <ele>110.4</ele>
        <time>2022-04-20T12:02:19Z</time>
      </trkpt>
      <trkpt lat="49.96581" lon="2.41016">
        <ele>110.4</ele>
        <time>2022-04-20T12:02:20Z</time>
      </trkpt>
      <trkpt lat="49.96581" lon="2.41017">
        <ele>110.4</ele>
        <time>2022-04-20T12:02:21Z</time>
      </trkpt>
      <trkpt lat="49.96582" lon="2.41021">
        <ele>110.4</ele>
        <time>2022-04-20T12:02:23Z</time>
      </trkpt>
      <trkpt lat="49.96582" lon="2.41023">
        <ele>110.4</ele>
        <time>2022-04-20T12:02:24Z</time>
      </trkpt>
      <trkpt lat="49.96583" lon="2.41026">
        <ele>110.3</ele>
        <time>2022-04-20T12:02:25Z</time>
      </trkpt>
      <trkpt lat="49.96583" lon="2.41027">
        <ele>110.3</ele>
        <time>2022-04-20T12:02:26Z</time>
      </trkpt>
      <trkpt lat="49.96583" lon="2.41029">
        <ele>110.3</ele>
        <time>2022-04-20T12:02:27Z</time>
      </trkpt>
      <trkpt lat="49.96583" lon="2.41032">
        <ele>110.3</ele>
        <time>2022-04-20T12:02:28Z</time>
      </trkpt>
      <trkpt lat="49.96583" lon="2.41034">
        <ele>110.3</ele>
        <time>2022-04-20T12:02:29Z</time>
      </trkpt>
      <trkpt lat="49.96584" lon="2.41035">
        <ele>110.3</ele>
        <time>2022-04-20T12:02:30Z</time>
      </trkpt>
      <trkpt lat="49.96584" lon="2.41037">
        <ele>110.2</ele>
        <time>2022-04-20T12:02:31Z</time>
      </trkpt>
      <trkpt lat="49.96584" lon="2.41039">
        <ele>110.2</ele>
        <time>2022-04-20T12:02:32Z</time>
      </trkpt>
      <trkpt lat="49.96584" lon="2.41042">
        <ele>110.2</ele>
        <time>2022-04-20T12:02:33Z</time>
      </trkpt>
      <trkpt lat="49.96585" lon="2.41046">
        <ele>110.2</ele>
        <time>2022-04-20T12:02:35Z</time>
      </trkpt>
      <trkpt lat="49.96586" lon="2.41048">
        <ele>110.2</ele>
        <time>2022-04-20T12:02:36Z</time>
      </trkpt>
      <trkpt lat="49.96586" lon="2.4105">
        <ele>110.2</ele>
        <time>2022-04-20T12:02:37Z</time>
      </trkpt>
      <trkpt lat="49.96586" lon="2.41053">
        <ele>110.1</ele>
        <time>2022-04-20T12:02:38Z</time>
      </trkpt>
      <trkpt lat="49.96587" lon="2.41055">
        <ele>110.1</ele>
        <time>2022-04-20T12:02:39Z</time>
      </trkpt>
      <trkpt lat="49.96587" lon="2.41058">
        <ele>110.1</ele>
        <time>2022-04-20T12:02:40Z</time>
      </trkpt>
      <trkpt lat="49.96587" lon="2.41059">
        <ele>110.1</ele>
        <time>2022-04-20T12:02:41Z</time>
      </trkpt>
      <trkpt lat="49.96588" lon="2.41061">
        <ele>110.1</ele>
        <time>2022-04-20T12:02:42Z</time>
      </trkpt>
      <trkpt lat="49.96588" lon="2.41063">
        <ele>110.1</ele>
        <time>2022-04-20T12:02:43Z</time>
      </trkpt>
      <trkpt lat="49.96589" lon="2.41065">
        <ele>110.1</ele>
        <time>2022-04-20T12:02:44Z</time>
      </trkpt>
      <trkpt lat="49.96589" lon="2.41066">
        <ele>110.1</ele>
        <time>2022-04-20T12:02:45Z</time>
      </trkpt>
      <trkpt lat="49.96589" lon="2.41071">
        <ele>110</ele>
        <time>2022-04-20T12:02:46Z</time>
      </trkpt>
      <trkpt lat="49.96589" lon="2.41072">
        <ele>110</ele>
        <time>2022-04-20T12:02:47Z</time>
      </trkpt>
      <trkpt lat="49.96589" lon="2.41077">
        <ele>110</ele>
        <time>2022-04-20T12:02:49Z</time>
      </trkpt>
      <trkpt lat="49.96589" lon="2.41079">
        <ele>110</ele>
        <time>2022-04-20T12:02:50Z</time>
      </trkpt>
      <trkpt lat="49.96588" lon="2.41081">
        <ele>110</ele>
        <time>2022-04-20T12:02:51Z</time>
      </trkpt>
      <trkpt lat="49.96588" lon="2.41083">
        <ele>110</ele>
        <time>2022-04-20T12:02:52Z</time>
      </trkpt>
      <trkpt lat="49.96587" lon="2.41086">
        <ele>110</ele>
        <time>2022-04-20T12:02:53Z</time>
      </trkpt>
      <trkpt lat="49.96587" lon="2.41088">
        <ele>110</ele>
        <time>2022-04-20T12:02:54Z</time>
      </trkpt>
      <trkpt lat="49.96586" lon="2.4109">
        <ele>109.9</ele>
        <time>2022-04-20T12:02:55Z</time>
      </trkpt>
      <trkpt lat="49.96585" lon="2.41093">
        <ele>109.9</ele>
        <time>2022-04-20T12:02:56Z</time>
      </trkpt>
      <trkpt lat="49.96584" lon="2.41096">
        <ele>109.9</ele>
        <time>2022-04-20T12:02:58Z</time>
      </trkpt>
      <trkpt lat="49.96584" lon="2.41097">
        <ele>109.9</ele>
        <time>2022-04-20T12:02:59Z</time>
      </trkpt>
      <trkpt lat="49.96583" lon="2.41098">
        <ele>109.9</ele>
        <time>2022-04-20T12:03:00Z</time>
      </trkpt>
      <trkpt lat="49.96582" lon="2.41101">
        <ele>109.9</ele>
        <time>2022-04-20T12:03:01Z</time>
      </trkpt>
      <trkpt lat="49.96581" lon="2.41102">
        <ele>109.9</ele>
        <time>2022-04-20T12:03:02Z</time>
      </trkpt>
      <trkpt lat="49.96581" lon="2.41103">
        <ele>109.9</ele>
        <time>2022-04-20T12:03:03Z</time>
      </trkpt>
      <trkpt lat="49.9658" lon="2.41105">
        <ele>109.9</ele>
        <time>2022-04-20T12:03:04Z</time>
      </trkpt>
      <trkpt lat="49.96579" lon="2.41106">
        <ele>109.9</ele>
        <time>2022-04-20T12:03:05Z</time>
      </trkpt>
      <trkpt lat="49.96579" lon="2.41107">
        <ele>109.9</ele>
        <time>2022-04-20T12:03:06Z</time>
      </trkpt>
      <trkpt lat="49.96578" lon="2.41109">
        <ele>109.9</ele>
        <time>2022-04-20T12:03:07Z</time>
      </trkpt>
      <trkpt lat="49.96578" lon="2.4111">
        <ele>110</ele>
        <time>2022-04-20T12:03:08Z</time>
      </trkpt>
      <trkpt lat="49.96577" lon="2.41112">
        <ele>110</ele>
        <time>2022-04-20T12:03:09Z</time>
      </trkpt>
      <trkpt lat="49.96576" lon="2.41113">
        <ele>110</ele>
        <time>2022-04-20T12:03:10Z</time>
      </trkpt>
      <trkpt lat="49.96575" lon="2.41115">
        <ele>110</ele>
        <time>2022-04-20T12:03:11Z</time>
      </trkpt>
      <trkpt lat="49.96574" lon="2.41117">
        <ele>110</ele>
        <time>2022-04-20T12:03:13Z</time>
      </trkpt>
      <trkpt lat="49.96574" lon="2.41118">
        <ele>110</ele>
        <time>2022-04-20T12:03:14Z</time>
      </trkpt>
      <trkpt lat="49.96573" lon="2.4112">
        <ele>110</ele>
        <time>2022-04-20T12:03:15Z</time>
      </trkpt>
      <trkpt lat="49.96573" lon="2.41121">
        <ele>110</ele>
        <time>2022-04-20T12:03:16Z</time>
      </trkpt>
      <trkpt lat="49.96572" lon="2.41124">
        <ele>110</ele>
        <time>2022-04-20T12:03:17Z</time>
      </trkpt>
      <trkpt lat="49.96571" lon="2.41125">
        <ele>110</ele>
        <time>2022-04-20T12:03:18Z</time>
      </trkpt>
      <trkpt lat="49.96571" lon="2.41126">
        <ele>110</ele>
        <time>2022-04-20T12:03:19Z</time>
      </trkpt>
      <trkpt lat="49.96569" lon="2.4113">
        <ele>110</ele>
        <time>2022-04-20T12:03:20Z</time>
      </trkpt>
      <trkpt lat="49.96569" lon="2.41131">
        <ele>110</ele>
        <time>2022-04-20T12:03:22Z</time>
      </trkpt>
      <trkpt lat="49.96568" lon="2.41133">
        <ele>110</ele>
        <time>2022-04-20T12:03:23Z</time>
      </trkpt>
      <trkpt lat="49.96568" lon="2.41134">
        <ele>110</ele>
        <time>2022-04-20T12:03:24Z</time>
      </trkpt>
      <trkpt lat="49.96567" lon="2.41136">
        <ele>110</ele>
        <time>2022-04-20T12:03:25Z</time>
      </trkpt>
      <trkpt lat="49.96566" lon="2.41138">
        <ele>110</ele>
        <time>2022-04-20T12:03:26Z</time>
      </trkpt>
      <trkpt lat="49.96565" lon="2.4114">
        <ele>110</ele>
        <time>2022-04-20T12:03:27Z</time>
      </trkpt>
      <trkpt lat="49.96564" lon="2.41142">
        <ele>110</ele>
        <time>2022-04-20T12:03:28Z</time>
      </trkpt>
      <trkpt lat="49.96564" lon="2.41143">
        <ele>110</ele>
        <time>2022-04-20T12:03:29Z</time>
      </trkpt>
      <trkpt lat="49.96563" lon="2.41145">
        <ele>110</ele>
        <time>2022-04-20T12:03:30Z</time>
      </trkpt>
      <trkpt lat="49.96562" lon="2.41146">
        <ele>110</ele>
        <time>2022-04-20T12:03:31Z</time>
      </trkpt>
      <trkpt lat="49.96561" lon="2.41148">
        <ele>109.9</ele>
        <time>2022-04-20T12:03:32Z</time>
      </trkpt>
      <trkpt lat="49.9656" lon="2.4115">
        <ele>109.9</ele>
        <time>2022-04-20T12:03:33Z</time>
      </trkpt>
      <trkpt lat="49.96559" lon="2.41152">
        <ele>109.9</ele>
        <time>2022-04-20T12:03:34Z</time>
      </trkpt>
      <trkpt lat="49.96558" lon="2.41153">
        <ele>109.9</ele>
        <time>2022-04-20T12:03:35Z</time>
      </trkpt>
      <trkpt lat="49.96557" lon="2.41155">
        <ele>109.9</ele>
        <time>2022-04-20T12:03:36Z</time>
      </trkpt>
      <trkpt lat="49.96556" lon="2.41157">
        <ele>109.9</ele>
        <time>2022-04-20T12:03:38Z</time>
      </trkpt>
      <trkpt lat="49.96555" lon="2.41158">
        <ele>109.9</ele>
        <time>2022-04-20T12:03:39Z</time>
      </trkpt>
      <trkpt lat="49.96554" lon="2.4116">
        <ele>109.9</ele>
        <time>2022-04-20T12:03:40Z</time>
      </trkpt>
      <trkpt lat="49.96554" lon="2.41161">
        <ele>109.9</ele>
        <time>2022-04-20T12:03:41Z</time>
      </trkpt>
      <trkpt lat="49.96553" lon="2.41162">
        <ele>109.8</ele>
        <time>2022-04-20T12:03:42Z</time>
      </trkpt>
      <trkpt lat="49.96552" lon="2.41163">
        <ele>109.8</ele>
        <time>2022-04-20T12:03:43Z</time>
      </trkpt>
      <trkpt lat="49.96551" lon="2.41164">
        <ele>109.8</ele>
        <time>2022-04-20T12:03:44Z</time>
      </trkpt>
      <trkpt lat="49.96551" lon="2.41165">
        <ele>109.8</ele>
        <time>2022-04-20T12:03:45Z</time>
      </trkpt>
      <trkpt lat="49.96549" lon="2.41166">
        <ele>109.8</ele>
        <time>2022-04-20T12:03:46Z</time>
      </trkpt>
      <trkpt lat="49.96548" lon="2.41167">
        <ele>109.8</ele>
        <time>2022-04-20T12:03:47Z</time>
      </trkpt>
      <trkpt lat="49.96548" lon="2.41169">
        <ele>109.8</ele>
        <time>2022-04-20T12:03:49Z</time>
      </trkpt>
      <trkpt lat="49.96547" lon="2.4117">
        <ele>109.7</ele>
        <time>2022-04-20T12:03:50Z</time>
      </trkpt>
      <trkpt lat="49.96546" lon="2.41171">
        <ele>109.7</ele>
        <time>2022-04-20T12:03:51Z</time>
      </trkpt>
      <trkpt lat="49.96546" lon="2.41172">
        <ele>109.7</ele>
        <time>2022-04-20T12:03:52Z</time>
      </trkpt>
      <trkpt lat="49.96544" lon="2.41175">
        <ele>109.7</ele>
        <time>2022-04-20T12:03:53Z</time>
      </trkpt>
      <trkpt lat="49.96544" lon="2.41176">
        <ele>109.7</ele>
        <time>2022-04-20T12:03:54Z</time>
      </trkpt>
      <trkpt lat="49.96543" lon="2.41178">
        <ele>109.7</ele>
        <time>2022-04-20T12:03:55Z</time>
      </trkpt>
      <trkpt lat="49.96543" lon="2.41179">
        <ele>109.6</ele>
        <time>2022-04-20T12:03:56Z</time>
      </trkpt>
      <trkpt lat="49.96542" lon="2.4118">
        <ele>109.6</ele>
        <time>2022-04-20T12:03:57Z</time>
      </trkpt>
      <trkpt lat="49.96541" lon="2.41181">
        <ele>109.6</ele>
        <time>2022-04-20T12:03:58Z</time>
      </trkpt>
      <trkpt lat="49.9654" lon="2.41183">
        <ele>109.6</ele>
        <time>2022-04-20T12:03:59Z</time>
      </trkpt>
      <trkpt lat="49.96539" lon="2.41184">
        <ele>109.6</ele>
        <time>2022-04-20T12:04:00Z</time>
      </trkpt>
      <trkpt lat="49.96538" lon="2.41185">
        <ele>109.5</ele>
        <time>2022-04-20T12:04:01Z</time>
      </trkpt>
      <trkpt lat="49.96537" lon="2.41187">
        <ele>109.5</ele>
        <time>2022-04-20T12:04:02Z</time>
      </trkpt>
      <trkpt lat="49.96536" lon="2.41188">
        <ele>109.5</ele>
        <time>2022-04-20T12:04:03Z</time>
      </trkpt>
      <trkpt lat="49.96535" lon="2.41191">
        <ele>109.5</ele>
        <time>2022-04-20T12:04:04Z</time>
      </trkpt>
      <trkpt lat="49.96534" lon="2.41192">
        <ele>109.5</ele>
        <time>2022-04-20T12:04:05Z</time>
      </trkpt>
      <trkpt lat="49.96533" lon="2.41193">
        <ele>109.4</ele>
        <time>2022-04-20T12:04:06Z</time>
      </trkpt>
      <trkpt lat="49.96532" lon="2.41194">
        <ele>109.4</ele>
        <time>2022-04-20T12:04:07Z</time>
      </trkpt>
      <trkpt lat="49.96531" lon="2.41195">
        <ele>109.4</ele>
        <time>2022-04-20T12:04:09Z</time>
      </trkpt>
      <trkpt lat="49.9653" lon="2.41197">
        <ele>109.4</ele>
        <time>2022-04-20T12:04:10Z</time>
      </trkpt>
      <trkpt lat="49.9653" lon="2.41199">
        <ele>109.4</ele>
        <time>2022-04-20T12:04:11Z</time>
      </trkpt>
      <trkpt lat="49.96529" lon="2.41201">
        <ele>109.3</ele>
        <time>2022-04-20T12:04:12Z</time>
      </trkpt>
      <trkpt lat="49.96529" lon="2.41203">
        <ele>109.3</ele>
        <time>2022-04-20T12:04:13Z</time>
      </trkpt>
      <trkpt lat="49.96528" lon="2.41205">
        <ele>109.3</ele>
        <time>2022-04-20T12:04:15Z</time>
      </trkpt>
      <trkpt lat="49.96527" lon="2.41208">
        <ele>109.3</ele>
        <time>2022-04-20T12:04:16Z</time>
      </trkpt>
      <trkpt lat="49.96527" lon="2.41209">
        <ele>109.3</ele>
        <time>2022-04-20T12:04:17Z</time>
      </trkpt>
      <trkpt lat="49.96526" lon="2.4121">
        <ele>109.2</ele>
        <time>2022-04-20T12:04:18Z</time>
      </trkpt>
      <trkpt lat="49.96526" lon="2.41212">
        <ele>109.2</ele>
        <time>2022-04-20T12:04:19Z</time>
      </trkpt>
      <trkpt lat="49.96525" lon="2.41214">
        <ele>109.2</ele>
        <time>2022-04-20T12:04:20Z</time>
      </trkpt>
      <trkpt lat="49.96525" lon="2.41215">
        <ele>109.2</ele>
        <time>2022-04-20T12:04:21Z</time>
      </trkpt>
      <trkpt lat="49.96524" lon="2.41218">
        <ele>109.2</ele>
        <time>2022-04-20T12:04:22Z</time>
      </trkpt>
      <trkpt lat="49.96523" lon="2.41219">
        <ele>109.2</ele>
        <time>2022-04-20T12:04:23Z</time>
      </trkpt>
      <trkpt lat="49.96523" lon="2.4122">
        <ele>109.1</ele>
        <time>2022-04-20T12:04:24Z</time>
      </trkpt>
      <trkpt lat="49.96522" lon="2.41223">
        <ele>109.1</ele>
        <time>2022-04-20T12:04:25Z</time>
      </trkpt>
      <trkpt lat="49.96521" lon="2.41225">
        <ele>109.1</ele>
        <time>2022-04-20T12:04:26Z</time>
      </trkpt>
      <trkpt lat="49.96521" lon="2.41226">
        <ele>109.1</ele>
        <time>2022-04-20T12:04:27Z</time>
      </trkpt>
      <trkpt lat="49.9652" lon="2.41228">
        <ele>109.1</ele>
        <time>2022-04-20T12:04:28Z</time>
      </trkpt>
      <trkpt lat="49.96519" lon="2.41232">
        <ele>109</ele>
        <time>2022-04-20T12:04:29Z</time>
      </trkpt>
      <trkpt lat="49.96519" lon="2.41233">
        <ele>109</ele>
        <time>2022-04-20T12:04:31Z</time>
      </trkpt>
      <trkpt lat="49.96518" lon="2.41235">
        <ele>109</ele>
        <time>2022-04-20T12:04:32Z</time>
      </trkpt>
      <trkpt lat="49.96518" lon="2.41236">
        <ele>109</ele>
        <time>2022-04-20T12:04:33Z</time>
      </trkpt>
      <trkpt lat="49.96517" lon="2.41238">
        <ele>109</ele>
        <time>2022-04-20T12:04:34Z</time>
      </trkpt>
      <trkpt lat="49.96516" lon="2.4124">
        <ele>108.9</ele>
        <time>2022-04-20T12:04:35Z</time>
      </trkpt>
      <trkpt lat="49.96516" lon="2.41242">
        <ele>108.9</ele>
        <time>2022-04-20T12:04:36Z</time>
      </trkpt>
      <trkpt lat="49.96516" lon="2.41244">
        <ele>108.9</ele>
        <time>2022-04-20T12:04:37Z</time>
      </trkpt>
      <trkpt lat="49.96515" lon="2.41247">
        <ele>108.9</ele>
        <time>2022-04-20T12:04:39Z</time>
      </trkpt>
      <trkpt lat="49.96515" lon="2.41248">
        <ele>108.9</ele>
        <time>2022-04-20T12:04:40Z</time>
      </trkpt>
      <trkpt lat="49.96514" lon="2.4125">
        <ele>108.8</ele>
        <time>2022-04-20T12:04:41Z</time>
      </trkpt>
      <trkpt lat="49.96514" lon="2.41251">
        <ele>108.8</ele>
        <time>2022-04-20T12:04:42Z</time>
      </trkpt>
      <trkpt lat="49.96514" lon="2.41252">
        <ele>108.8</ele>
        <time>2022-04-20T12:04:43Z</time>
      </trkpt>
      <trkpt lat="49.96513" lon="2.41254">
        <ele>108.8</ele>
        <time>2022-04-20T12:04:44Z</time>
      </trkpt>
      <trkpt lat="49.96513" lon="2.41255">
        <ele>108.8</ele>
        <time>2022-04-20T12:04:45Z</time>
      </trkpt>
      <trkpt lat="49.96513" lon="2.41257">
        <ele>108.8</ele>
        <time>2022-04-20T12:04:46Z</time>
      </trkpt>
      <trkpt lat="49.96512" lon="2.41259">
        <ele>108.8</ele>
        <time>2022-04-20T12:04:47Z</time>
      </trkpt>
      <trkpt lat="49.96512" lon="2.4126">
        <ele>108.7</ele>
        <time>2022-04-20T12:04:48Z</time>
      </trkpt>
      <trkpt lat="49.96511" lon="2.41264">
        <ele>108.7</ele>
        <time>2022-04-20T12:04:50Z</time>
      </trkpt>
      <trkpt lat="49.96511" lon="2.41265">
        <ele>108.7</ele>
        <time>2022-04-20T12:04:51Z</time>
      </trkpt>
      <trkpt lat="49.9651" lon="2.41266">
        <ele>108.7</ele>
        <time>2022-04-20T12:04:52Z</time>
      </trkpt>
      <trkpt lat="49.9651" lon="2.41268">
        <ele>108.7</ele>
        <time>2022-04-20T12:04:53Z</time>
      </trkpt>
      <trkpt lat="49.96509" lon="2.4127">
        <ele>108.6</ele>
        <time>2022-04-20T12:04:54Z</time>
      </trkpt>
      <trkpt lat="49.96509" lon="2.41273">
        <ele>108.6</ele>
        <time>2022-04-20T12:04:55Z</time>
      </trkpt>
      <trkpt lat="49.96508" lon="2.41274">
        <ele>108.6</ele>
        <time>2022-04-20T12:04:56Z</time>
      </trkpt>
      <trkpt lat="49.96508" lon="2.41276">
        <ele>108.6</ele>
        <time>2022-04-20T12:04:57Z</time>
      </trkpt>
      <trkpt lat="49.96508" lon="2.41279">
        <ele>108.6</ele>
        <time>2022-04-20T12:04:58Z</time>
      </trkpt>
      <trkpt lat="49.96507" lon="2.4128">
        <ele>108.5</ele>
        <time>2022-04-20T12:04:59Z</time>
      </trkpt>
      <trkpt lat="49.96507" lon="2.41281">
        <ele>108.5</ele>
        <time>2022-04-20T12:05:00Z</time>
      </trkpt>
      <trkpt lat="49.96507" lon="2.41282">
        <ele>108.5</ele>
        <time>2022-04-20T12:05:01Z</time>
      </trkpt>
      <trkpt lat="49.96506" lon="2.41284">
        <ele>108.5</ele>
        <time>2022-04-20T12:05:02Z</time>
      </trkpt>
      <trkpt lat="49.96506" lon="2.41286">
        <ele>108.5</ele>
        <time>2022-04-20T12:05:03Z</time>
      </trkpt>
      <trkpt lat="49.96505" lon="2.41287">
        <ele>108.4</ele>
        <time>2022-04-20T12:05:04Z</time>
      </trkpt>
      <trkpt lat="49.96504" lon="2.4129">
        <ele>108.4</ele>
        <time>2022-04-20T12:05:05Z</time>
      </trkpt>
      <trkpt lat="49.96503" lon="2.41292">
        <ele>108.4</ele>
        <time>2022-04-20T12:05:06Z</time>
      </trkpt>
      <trkpt lat="49.96503" lon="2.41294">
        <ele>108.4</ele>
        <time>2022-04-20T12:05:07Z</time>
      </trkpt>
      <trkpt lat="49.96502" lon="2.41295">
        <ele>108.4</ele>
        <time>2022-04-20T12:05:08Z</time>
      </trkpt>
      <trkpt lat="49.96501" lon="2.41297">
        <ele>108.3</ele>
        <time>2022-04-20T12:05:10Z</time>
      </trkpt>
      <trkpt lat="49.96501" lon="2.41299">
        <ele>108.3</ele>
        <time>2022-04-20T12:05:11Z</time>
      </trkpt>
      <trkpt lat="49.96499" lon="2.413">
        <ele>108.3</ele>
        <time>2022-04-20T12:05:12Z</time>
      </trkpt>
      <trkpt lat="49.96499" lon="2.41301">
        <ele>108.3</ele>
        <time>2022-04-20T12:05:13Z</time>
      </trkpt>
      <trkpt lat="49.96498" lon="2.41303">
        <ele>108.2</ele>
        <time>2022-04-20T12:05:14Z</time>
      </trkpt>
      <trkpt lat="49.96497" lon="2.41305">
        <ele>108.2</ele>
        <time>2022-04-20T12:05:15Z</time>
      </trkpt>
      <trkpt lat="49.96496" lon="2.41307">
        <ele>108.2</ele>
        <time>2022-04-20T12:05:16Z</time>
      </trkpt>
      <trkpt lat="49.96495" lon="2.41309">
        <ele>108.2</ele>
        <time>2022-04-20T12:05:18Z</time>
      </trkpt>
      <trkpt lat="49.96495" lon="2.41311">
        <ele>108.1</ele>
        <time>2022-04-20T12:05:19Z</time>
      </trkpt>
      <trkpt lat="49.96494" lon="2.41313">
        <ele>108.1</ele>
        <time>2022-04-20T12:05:20Z</time>
      </trkpt>
      <trkpt lat="49.96492" lon="2.41315">
        <ele>108.1</ele>
        <time>2022-04-20T12:05:21Z</time>
      </trkpt>
      <trkpt lat="49.96491" lon="2.41317">
        <ele>108.1</ele>
        <time>2022-04-20T12:05:22Z</time>
      </trkpt>
      <trkpt lat="49.96491" lon="2.41318">
        <ele>108</ele>
        <time>2022-04-20T12:05:23Z</time>
      </trkpt>
      <trkpt lat="49.9649" lon="2.4132">
        <ele>108</ele>
        <time>2022-04-20T12:05:24Z</time>
      </trkpt>
      <trkpt lat="49.96489" lon="2.41321">
        <ele>108</ele>
        <time>2022-04-20T12:05:25Z</time>
      </trkpt>
      <trkpt lat="49.96489" lon="2.41323">
        <ele>108</ele>
        <time>2022-04-20T12:05:27Z</time>
      </trkpt>
      <trkpt lat="49.96488" lon="2.41325">
        <ele>108</ele>
        <time>2022-04-20T12:05:28Z</time>
      </trkpt>
      <trkpt lat="49.96487" lon="2.41327">
        <ele>107.9</ele>
        <time>2022-04-20T12:05:29Z</time>
      </trkpt>
      <trkpt lat="49.96487" lon="2.41328">
        <ele>107.9</ele>
        <time>2022-04-20T12:05:30Z</time>
      </trkpt>
      <trkpt lat="49.96487" lon="2.4133">
        <ele>107.9</ele>
        <time>2022-04-20T12:05:31Z</time>
      </trkpt>
      <trkpt lat="49.96486" lon="2.41332">
        <ele>107.9</ele>
        <time>2022-04-20T12:05:32Z</time>
      </trkpt>
      <trkpt lat="49.96486" lon="2.41333">
        <ele>107.9</ele>
        <time>2022-04-20T12:05:33Z</time>
      </trkpt>
      <trkpt lat="49.96486" lon="2.41335">
        <ele>107.9</ele>
        <time>2022-04-20T12:05:34Z</time>
      </trkpt>
      <trkpt lat="49.96485" lon="2.41337">
        <ele>107.9</ele>
        <time>2022-04-20T12:05:35Z</time>
      </trkpt>
      <trkpt lat="49.96485" lon="2.41339">
        <ele>107.8</ele>
        <time>2022-04-20T12:05:36Z</time>
      </trkpt>
      <trkpt lat="49.96485" lon="2.41341">
        <ele>107.8</ele>
        <time>2022-04-20T12:05:37Z</time>
      </trkpt>
      <trkpt lat="49.96484" lon="2.41343">
        <ele>107.8</ele>
        <time>2022-04-20T12:05:38Z</time>
      </trkpt>
      <trkpt lat="49.96484" lon="2.41345">
        <ele>107.8</ele>
        <time>2022-04-20T12:05:39Z</time>
      </trkpt>
      <trkpt lat="49.96483" lon="2.41346">
        <ele>107.8</ele>
        <time>2022-04-20T12:05:40Z</time>
      </trkpt>
      <trkpt lat="49.96483" lon="2.41348">
        <ele>107.8</ele>
        <time>2022-04-20T12:05:41Z</time>
      </trkpt>
      <trkpt lat="49.96483" lon="2.41349">
        <ele>107.7</ele>
        <time>2022-04-20T12:05:42Z</time>
      </trkpt>
      <trkpt lat="49.96482" lon="2.41351">
        <ele>107.7</ele>
        <time>2022-04-20T12:05:43Z</time>
      </trkpt>
      <trkpt lat="49.96481" lon="2.41354">
        <ele>107.7</ele>
        <time>2022-04-20T12:05:44Z</time>
      </trkpt>
      <trkpt lat="49.96481" lon="2.41356">
        <ele>107.7</ele>
        <time>2022-04-20T12:05:45Z</time>
      </trkpt>
      <trkpt lat="49.96481" lon="2.41357">
        <ele>107.7</ele>
        <time>2022-04-20T12:05:46Z</time>
      </trkpt>
      <trkpt lat="49.9648" lon="2.41359">
        <ele>107.6</ele>
        <time>2022-04-20T12:05:48Z</time>
      </trkpt>
      <trkpt lat="49.96479" lon="2.41361">
        <ele>107.6</ele>
        <time>2022-04-20T12:05:49Z</time>
      </trkpt>
      <trkpt lat="49.96479" lon="2.41363">
        <ele>107.6</ele>
        <time>2022-04-20T12:05:50Z</time>
      </trkpt>
      <trkpt lat="49.96479" lon="2.41364">
        <ele>107.6</ele>
        <time>2022-04-20T12:05:51Z</time>
      </trkpt>
      <trkpt lat="49.96478" lon="2.41365">
        <ele>107.6</ele>
        <time>2022-04-20T12:05:52Z</time>
      </trkpt>
      <trkpt lat="49.96478" lon="2.41364">
        <ele>107.6</ele>
        <time>2022-04-20T12:05:53Z</time>
      </trkpt>
      <trkpt lat="49.96477" lon="2.41366">
        <ele>107.6</ele>
        <time>2022-04-20T12:05:54Z</time>
      </trkpt>
      <trkpt lat="49.96477" lon="2.41367">
        <ele>107.5</ele>
        <time>2022-04-20T12:05:55Z</time>
      </trkpt>
      <trkpt lat="49.96476" lon="2.41369">
        <ele>107.5</ele>
        <time>2022-04-20T12:05:56Z</time>
      </trkpt>
      <trkpt lat="49.96476" lon="2.41371">
        <ele>107.5</ele>
        <time>2022-04-20T12:05:57Z</time>
      </trkpt>
      <trkpt lat="49.96475" lon="2.41374">
        <ele>107.5</ele>
        <time>2022-04-20T12:05:58Z</time>
      </trkpt>
      <trkpt lat="49.96474" lon="2.41376">
        <ele>107.5</ele>
        <time>2022-04-20T12:05:59Z</time>
      </trkpt>
      <trkpt lat="49.96473" lon="2.41379">
        <ele>107.4</ele>
        <time>2022-04-20T12:06:01Z</time>
      </trkpt>
      <trkpt lat="49.96473" lon="2.41381">
        <ele>107.4</ele>
        <time>2022-04-20T12:06:02Z</time>
      </trkpt>
      <trkpt lat="49.96472" lon="2.41383">
        <ele>107.4</ele>
        <time>2022-04-20T12:06:03Z</time>
      </trkpt>
      <trkpt lat="49.96471" lon="2.41385">
        <ele>107.3</ele>
        <time>2022-04-20T12:06:04Z</time>
      </trkpt>
      <trkpt lat="49.96471" lon="2.41387">
        <ele>107.3</ele>
        <time>2022-04-20T12:06:05Z</time>
      </trkpt>
      <trkpt lat="49.9647" lon="2.4139">
        <ele>107.3</ele>
        <time>2022-04-20T12:06:07Z</time>
      </trkpt>
      <trkpt lat="49.96469" lon="2.41392">
        <ele>107.2</ele>
        <time>2022-04-20T12:06:08Z</time>
      </trkpt>
      <trkpt lat="49.96469" lon="2.41394">
        <ele>107.2</ele>
        <time>2022-04-20T12:06:09Z</time>
      </trkpt>
      <trkpt lat="49.96468" lon="2.41396">
        <ele>107.2</ele>
        <time>2022-04-20T12:06:10Z</time>
      </trkpt>
      <trkpt lat="49.96467" lon="2.41398">
        <ele>107.1</ele>
        <time>2022-04-20T12:06:11Z</time>
      </trkpt>
      <trkpt lat="49.96467" lon="2.414">
        <ele>107.1</ele>
        <time>2022-04-20T12:06:12Z</time>
      </trkpt>
      <trkpt lat="49.96466" lon="2.41401">
        <ele>107.1</ele>
        <time>2022-04-20T12:06:13Z</time>
      </trkpt>
      <trkpt lat="49.96465" lon="2.41404">
        <ele>107</ele>
        <time>2022-04-20T12:06:14Z</time>
      </trkpt>
      <trkpt lat="49.96465" lon="2.41405">
        <ele>107</ele>
        <time>2022-04-20T12:06:15Z</time>
      </trkpt>
      <trkpt lat="49.96464" lon="2.41406">
        <ele>107</ele>
        <time>2022-04-20T12:06:16Z</time>
      </trkpt>
      <trkpt lat="49.96464" lon="2.41408">
        <ele>106.9</ele>
        <time>2022-04-20T12:06:17Z</time>
      </trkpt>
      <trkpt lat="49.96463" lon="2.41411">
        <ele>106.9</ele>
        <time>2022-04-20T12:06:19Z</time>
      </trkpt>
      <trkpt lat="49.96462" lon="2.41412">
        <ele>106.9</ele>
        <time>2022-04-20T12:06:20Z</time>
      </trkpt>
      <trkpt lat="49.96462" lon="2.41414">
        <ele>106.8</ele>
        <time>2022-04-20T12:06:21Z</time>
      </trkpt>
      <trkpt lat="49.96462" lon="2.41414">
        <ele>106.8</ele>
        <time>2022-04-20T12:06:22Z</time>
      </trkpt>
      <trkpt lat="49.96461" lon="2.41416">
        <ele>106.8</ele>
        <time>2022-04-20T12:06:23Z</time>
      </trkpt>
      <trkpt lat="49.9646" lon="2.41419">
        <ele>106.7</ele>
        <time>2022-04-20T12:06:24Z</time>
      </trkpt>
      <trkpt lat="49.9646" lon="2.4142">
        <ele>106.7</ele>
        <time>2022-04-20T12:06:25Z</time>
      </trkpt>
      <trkpt lat="49.96459" lon="2.41422">
        <ele>106.7</ele>
        <time>2022-04-20T12:06:26Z</time>
      </trkpt>
      <trkpt lat="49.96458" lon="2.41426">
        <ele>106.6</ele>
        <time>2022-04-20T12:06:27Z</time>
      </trkpt>
      <trkpt lat="49.96458" lon="2.41427">
        <ele>106.6</ele>
        <time>2022-04-20T12:06:28Z</time>
      </trkpt>
      <trkpt lat="49.96457" lon="2.4143">
        <ele>106.6</ele>
        <time>2022-04-20T12:06:29Z</time>
      </trkpt>
      <trkpt lat="49.96457" lon="2.41432">
        <ele>106.5</ele>
        <time>2022-04-20T12:06:31Z</time>
      </trkpt>
      <trkpt lat="49.96456" lon="2.41434">
        <ele>106.5</ele>
        <time>2022-04-20T12:06:32Z</time>
      </trkpt>
      <trkpt lat="49.96456" lon="2.41436">
        <ele>106.5</ele>
        <time>2022-04-20T12:06:33Z</time>
      </trkpt>
      <trkpt lat="49.96455" lon="2.41438">
        <ele>106.4</ele>
        <time>2022-04-20T12:06:34Z</time>
      </trkpt>
      <trkpt lat="49.96454" lon="2.4144">
        <ele>106.4</ele>
        <time>2022-04-20T12:06:35Z</time>
      </trkpt>
      <trkpt lat="49.96454" lon="2.41442">
        <ele>106.4</ele>
        <time>2022-04-20T12:06:36Z</time>
      </trkpt>
      <trkpt lat="49.96453" lon="2.41444">
        <ele>106.3</ele>
        <time>2022-04-20T12:06:37Z</time>
      </trkpt>
      <trkpt lat="49.96453" lon="2.41446">
        <ele>106.3</ele>
        <time>2022-04-20T12:06:38Z</time>
      </trkpt>
      <trkpt lat="49.96452" lon="2.41448">
        <ele>106.3</ele>
        <time>2022-04-20T12:06:39Z</time>
      </trkpt>
      <trkpt lat="49.96451" lon="2.4145">
        <ele>106.2</ele>
        <time>2022-04-20T12:06:40Z</time>
      </trkpt>
      <trkpt lat="49.96451" lon="2.41452">
        <ele>106.2</ele>
        <time>2022-04-20T12:06:41Z</time>
      </trkpt>
      <trkpt lat="49.9645" lon="2.41455">
        <ele>106.2</ele>
        <time>2022-04-20T12:06:43Z</time>
      </trkpt>
      <trkpt lat="49.9645" lon="2.41457">
        <ele>106.1</ele>
        <time>2022-04-20T12:06:44Z</time>
      </trkpt>
      <trkpt lat="49.9645" lon="2.41459">
        <ele>106.1</ele>
        <time>2022-04-20T12:06:45Z</time>
      </trkpt>
      <trkpt lat="49.96449" lon="2.4146">
        <ele>106.1</ele>
        <time>2022-04-20T12:06:46Z</time>
      </trkpt>
      <trkpt lat="49.96449" lon="2.41461">
        <ele>106.1</ele>
        <time>2022-04-20T12:06:47Z</time>
      </trkpt>
      <trkpt lat="49.96449" lon="2.41462">
        <ele>106</ele>
        <time>2022-04-20T12:06:48Z</time>
      </trkpt>
      <trkpt lat="49.96448" lon="2.41464">
        <ele>106</ele>
        <time>2022-04-20T12:06:49Z</time>
      </trkpt>
      <trkpt lat="49.96448" lon="2.41466">
        <ele>106</ele>
        <time>2022-04-20T12:06:50Z</time>
      </trkpt>
      <trkpt lat="49.96447" lon="2.41468">
        <ele>106</ele>
        <time>2022-04-20T12:06:51Z</time>
      </trkpt>
      <trkpt lat="49.96446" lon="2.4147">
        <ele>105.9</ele>
        <time>2022-04-20T12:06:52Z</time>
      </trkpt>
      <trkpt lat="49.96446" lon="2.41472">
        <ele>105.9</ele>
        <time>2022-04-20T12:06:53Z</time>
      </trkpt>
      <trkpt lat="49.96445" lon="2.41474">
        <ele>105.9</ele>
        <time>2022-04-20T12:06:54Z</time>
      </trkpt>
      <trkpt lat="49.96444" lon="2.41477">
        <ele>105.8</ele>
        <time>2022-04-20T12:06:56Z</time>
      </trkpt>
      <trkpt lat="49.96444" lon="2.41479">
        <ele>105.8</ele>
        <time>2022-04-20T12:06:57Z</time>
      </trkpt>
      <trkpt lat="49.96442" lon="2.4148">
        <ele>105.8</ele>
        <time>2022-04-20T12:06:58Z</time>
      </trkpt>
      <trkpt lat="49.96442" lon="2.41481">
        <ele>105.7</ele>
        <time>2022-04-20T12:06:59Z</time>
      </trkpt>
      <trkpt lat="49.96441" lon="2.41482">
        <ele>105.7</ele>
        <time>2022-04-20T12:07:00Z</time>
      </trkpt>
      <trkpt lat="49.9644" lon="2.41483">
        <ele>105.7</ele>
        <time>2022-04-20T12:07:01Z</time>
      </trkpt>
      <trkpt lat="49.96439" lon="2.41485">
        <ele>105.7</ele>
        <time>2022-04-20T12:07:02Z</time>
      </trkpt>
      <trkpt lat="49.96438" lon="2.41486">
        <ele>105.6</ele>
        <time>2022-04-20T12:07:04Z</time>
      </trkpt>
      <trkpt lat="49.96437" lon="2.41487">
        <ele>105.6</ele>
        <time>2022-04-20T12:07:05Z</time>
      </trkpt>
      <trkpt lat="49.96436" lon="2.41489">
        <ele>105.6</ele>
        <time>2022-04-20T12:07:06Z</time>
      </trkpt>
      <trkpt lat="49.96436" lon="2.4149">
        <ele>105.6</ele>
        <time>2022-04-20T12:07:07Z</time>
      </trkpt>
      <trkpt lat="49.96435" lon="2.41492">
        <ele>105.5</ele>
        <time>2022-04-20T12:07:08Z</time>
      </trkpt>
      <trkpt lat="49.96435" lon="2.41494">
        <ele>105.5</ele>
        <time>2022-04-20T12:07:09Z</time>
      </trkpt>
      <trkpt lat="49.96434" lon="2.41497">
        <ele>105.5</ele>
        <time>2022-04-20T12:07:10Z</time>
      </trkpt>
      <trkpt lat="49.96434" lon="2.41498">
        <ele>105.4</ele>
        <time>2022-04-20T12:07:12Z</time>
      </trkpt>
      <trkpt lat="49.96433" lon="2.41499">
        <ele>105.4</ele>
        <time>2022-04-20T12:07:13Z</time>
      </trkpt>
      <trkpt lat="49.96433" lon="2.41501">
        <ele>105.4</ele>
        <time>2022-04-20T12:07:14Z</time>
      </trkpt>
      <trkpt lat="49.96433" lon="2.41502">
        <ele>105.4</ele>
        <time>2022-04-20T12:07:15Z</time>
      </trkpt>
      <trkpt lat="49.96432" lon="2.41505">
        <ele>105.3</ele>
        <time>2022-04-20T12:07:17Z</time>
      </trkpt>
      <trkpt lat="49.96432" lon="2.41507">
        <ele>105.3</ele>
        <time>2022-04-20T12:07:18Z</time>
      </trkpt>
      <trkpt lat="49.96432" lon="2.41509">
        <ele>105.3</ele>
        <time>2022-04-20T12:07:19Z</time>
      </trkpt>
      <trkpt lat="49.96431" lon="2.41511">
        <ele>105.3</ele>
        <time>2022-04-20T12:07:20Z</time>
      </trkpt>
      <trkpt lat="49.96431" lon="2.41513">
        <ele>105.2</ele>
        <time>2022-04-20T12:07:21Z</time>
      </trkpt>
      <trkpt lat="49.96431" lon="2.41515">
        <ele>105.2</ele>
        <time>2022-04-20T12:07:22Z</time>
      </trkpt>
      <trkpt lat="49.96431" lon="2.41517">
        <ele>105.2</ele>
        <time>2022-04-20T12:07:23Z</time>
      </trkpt>
      <trkpt lat="49.96431" lon="2.4152">
        <ele>105.1</ele>
        <time>2022-04-20T12:07:25Z</time>
      </trkpt>
      <trkpt lat="49.96431" lon="2.41523">
        <ele>105.1</ele>
        <time>2022-04-20T12:07:26Z</time>
      </trkpt>
      <trkpt lat="49.9643" lon="2.41525">
        <ele>105.1</ele>
        <time>2022-04-20T12:07:27Z</time>
      </trkpt>
      <trkpt lat="49.9643" lon="2.41527">
        <ele>105</ele>
        <time>2022-04-20T12:07:28Z</time>
      </trkpt>
      <trkpt lat="49.9643" lon="2.41529">
        <ele>105</ele>
        <time>2022-04-20T12:07:29Z</time>
      </trkpt>
      <trkpt lat="49.96429" lon="2.41531">
        <ele>105</ele>
        <time>2022-04-20T12:07:30Z</time>
      </trkpt>
      <trkpt lat="49.96429" lon="2.41534">
        <ele>104.9</ele>
        <time>2022-04-20T12:07:31Z</time>
      </trkpt>
      <trkpt lat="49.96429" lon="2.41535">
        <ele>104.9</ele>
        <time>2022-04-20T12:07:33Z</time>
      </trkpt>
      <trkpt lat="49.96428" lon="2.41537">
        <ele>104.9</ele>
        <time>2022-04-20T12:07:34Z</time>
      </trkpt>
      <trkpt lat="49.96428" lon="2.41539">
        <ele>104.9</ele>
        <time>2022-04-20T12:07:35Z</time>
      </trkpt>
      <trkpt lat="49.96428" lon="2.41541">
        <ele>104.8</ele>
        <time>2022-04-20T12:07:36Z</time>
      </trkpt>
      <trkpt lat="49.96427" lon="2.41542">
        <ele>104.8</ele>
        <time>2022-04-20T12:07:37Z</time>
      </trkpt>
      <trkpt lat="49.96427" lon="2.41544">
        <ele>104.8</ele>
        <time>2022-04-20T12:07:38Z</time>
      </trkpt>
      <trkpt lat="49.96426" lon="2.41547">
        <ele>104.7</ele>
        <time>2022-04-20T12:07:39Z</time>
      </trkpt>
      <trkpt lat="49.96426" lon="2.41548">
        <ele>104.7</ele>
        <time>2022-04-20T12:07:40Z</time>
      </trkpt>
      <trkpt lat="49.96426" lon="2.41549">
        <ele>104.7</ele>
        <time>2022-04-20T12:07:41Z</time>
      </trkpt>
      <trkpt lat="49.96425" lon="2.41551">
        <ele>104.7</ele>
        <time>2022-04-20T12:07:42Z</time>
      </trkpt>
      <trkpt lat="49.96425" lon="2.41554">
        <ele>104.6</ele>
        <time>2022-04-20T12:07:44Z</time>
      </trkpt>
      <trkpt lat="49.96425" lon="2.41556">
        <ele>104.6</ele>
        <time>2022-04-20T12:07:45Z</time>
      </trkpt>
      <trkpt lat="49.96424" lon="2.41557">
        <ele>104.6</ele>
        <time>2022-04-20T12:07:46Z</time>
      </trkpt>
      <trkpt lat="49.96424" lon="2.41559">
        <ele>104.6</ele>
        <time>2022-04-20T12:07:47Z</time>
      </trkpt>
      <trkpt lat="49.96423" lon="2.41562">
        <ele>104.5</ele>
        <time>2022-04-20T12:07:48Z</time>
      </trkpt>
      <trkpt lat="49.96423" lon="2.41564">
        <ele>104.5</ele>
        <time>2022-04-20T12:07:49Z</time>
      </trkpt>
      <trkpt lat="49.96423" lon="2.41565">
        <ele>104.5</ele>
        <time>2022-04-20T12:07:50Z</time>
      </trkpt>
      <trkpt lat="49.96423" lon="2.41567">
        <ele>104.4</ele>
        <time>2022-04-20T12:07:52Z</time>
      </trkpt>
      <trkpt lat="49.96423" lon="2.41568">
        <ele>104.4</ele>
        <time>2022-04-20T12:07:53Z</time>
      </trkpt>
      <trkpt lat="49.96422" lon="2.4157">
        <ele>104.4</ele>
        <time>2022-04-20T12:07:54Z</time>
      </trkpt>
      <trkpt lat="49.96422" lon="2.41572">
        <ele>104.4</ele>
        <time>2022-04-20T12:07:55Z</time>
      </trkpt>
      <trkpt lat="49.96422" lon="2.41574">
        <ele>104.3</ele>
        <time>2022-04-20T12:07:56Z</time>
      </trkpt>
      <trkpt lat="49.96421" lon="2.41576">
        <ele>104.3</ele>
        <time>2022-04-20T12:07:57Z</time>
      </trkpt>
      <trkpt lat="49.96421" lon="2.41579">
        <ele>104.3</ele>
        <time>2022-04-20T12:07:58Z</time>
      </trkpt>
      <trkpt lat="49.96421" lon="2.4158">
        <ele>104.2</ele>
        <time>2022-04-20T12:07:59Z</time>
      </trkpt>
      <trkpt lat="49.9642" lon="2.41581">
        <ele>104.2</ele>
        <time>2022-04-20T12:08:00Z</time>
      </trkpt>
      <trkpt lat="49.9642" lon="2.41584">
        <ele>104.2</ele>
        <time>2022-04-20T12:08:02Z</time>
      </trkpt>
      <trkpt lat="49.9642" lon="2.41585">
        <ele>104.2</ele>
        <time>2022-04-20T12:08:03Z</time>
      </trkpt>
      <trkpt lat="49.96419" lon="2.41587">
        <ele>104.1</ele>
        <time>2022-04-20T12:08:04Z</time>
      </trkpt>
      <trkpt lat="49.96419" lon="2.41589">
        <ele>104.1</ele>
        <time>2022-04-20T12:08:05Z</time>
      </trkpt>
      <trkpt lat="49.96419" lon="2.41591">
        <ele>104.1</ele>
        <time>2022-04-20T12:08:06Z</time>
      </trkpt>
      <trkpt lat="49.96418" lon="2.41593">
        <ele>104.1</ele>
        <time>2022-04-20T12:08:07Z</time>
      </trkpt>
      <trkpt lat="49.96418" lon="2.41595">
        <ele>104</ele>
        <time>2022-04-20T12:08:08Z</time>
      </trkpt>
      <trkpt lat="49.96417" lon="2.41597">
        <ele>104</ele>
        <time>2022-04-20T12:08:10Z</time>
      </trkpt>
      <trkpt lat="49.96417" lon="2.416">
        <ele>104</ele>
        <time>2022-04-20T12:08:11Z</time>
      </trkpt>
      <trkpt lat="49.96417" lon="2.41601">
        <ele>103.9</ele>
        <time>2022-04-20T12:08:12Z</time>
      </trkpt>
      <trkpt lat="49.96416" lon="2.41602">
        <ele>103.9</ele>
        <time>2022-04-20T12:08:13Z</time>
      </trkpt>
      <trkpt lat="49.96416" lon="2.41604">
        <ele>103.9</ele>
        <time>2022-04-20T12:08:14Z</time>
      </trkpt>
      <trkpt lat="49.96415" lon="2.41606">
        <ele>103.9</ele>
        <time>2022-04-20T12:08:15Z</time>
      </trkpt>
      <trkpt lat="49.96415" lon="2.41607">
        <ele>103.8</ele>
        <time>2022-04-20T12:08:16Z</time>
      </trkpt>
      <trkpt lat="49.96414" lon="2.41611">
        <ele>103.8</ele>
        <time>2022-04-20T12:08:17Z</time>
      </trkpt>
      <trkpt lat="49.96414" lon="2.41612">
        <ele>103.8</ele>
        <time>2022-04-20T12:08:18Z</time>
      </trkpt>
      <trkpt lat="49.96414" lon="2.41614">
        <ele>103.7</ele>
        <time>2022-04-20T12:08:19Z</time>
      </trkpt>
      <trkpt lat="49.96414" lon="2.41616">
        <ele>103.7</ele>
        <time>2022-04-20T12:08:21Z</time>
      </trkpt>
      <trkpt lat="49.96413" lon="2.41618">
        <ele>103.7</ele>
        <time>2022-04-20T12:08:22Z</time>
      </trkpt>
      <trkpt lat="49.96413" lon="2.41621">
        <ele>103.6</ele>
        <time>2022-04-20T12:08:23Z</time>
      </trkpt>
      <trkpt lat="49.96412" lon="2.41623">
        <ele>103.6</ele>
        <time>2022-04-20T12:08:24Z</time>
      </trkpt>
      <trkpt lat="49.96412" lon="2.41624">
        <ele>103.6</ele>
        <time>2022-04-20T12:08:25Z</time>
      </trkpt>
      <trkpt lat="49.96412" lon="2.41626">
        <ele>103.6</ele>
        <time>2022-04-20T12:08:26Z</time>
      </trkpt>
      <trkpt lat="49.96412" lon="2.41627">
        <ele>103.5</ele>
        <time>2022-04-20T12:08:27Z</time>
      </trkpt>
      <trkpt lat="49.96412" lon="2.41629">
        <ele>103.5</ele>
        <time>2022-04-20T12:08:28Z</time>
      </trkpt>
      <trkpt lat="49.96411" lon="2.41632">
        <ele>103.5</ele>
        <time>2022-04-20T12:08:29Z</time>
      </trkpt>
      <trkpt lat="49.96411" lon="2.41633">
        <ele>103.5</ele>
        <time>2022-04-20T12:08:31Z</time>
      </trkpt>
      <trkpt lat="49.96411" lon="2.41634">
        <ele>103.4</ele>
        <time>2022-04-20T12:08:32Z</time>
      </trkpt>
      <trkpt lat="49.96411" lon="2.41638">
        <ele>103.4</ele>
        <time>2022-04-20T12:08:33Z</time>
      </trkpt>
      <trkpt lat="49.96411" lon="2.41639">
        <ele>103.4</ele>
        <time>2022-04-20T12:08:34Z</time>
      </trkpt>
      <trkpt lat="49.96411" lon="2.4164">
        <ele>103.4</ele>
        <time>2022-04-20T12:08:35Z</time>
      </trkpt>
      <trkpt lat="49.9641" lon="2.41642">
        <ele>103.3</ele>
        <time>2022-04-20T12:08:36Z</time>
      </trkpt>
      <trkpt lat="49.9641" lon="2.41644">
        <ele>103.3</ele>
        <time>2022-04-20T12:08:37Z</time>
      </trkpt>
      <trkpt lat="49.9641" lon="2.41645">
        <ele>103.3</ele>
        <time>2022-04-20T12:08:38Z</time>
      </trkpt>
      <trkpt lat="49.96409" lon="2.41648">
        <ele>103.3</ele>
        <time>2022-04-20T12:08:39Z</time>
      </trkpt>
      <trkpt lat="49.96409" lon="2.4165">
        <ele>103.2</ele>
        <time>2022-04-20T12:08:40Z</time>
      </trkpt>
      <trkpt lat="49.96409" lon="2.41651">
        <ele>103.2</ele>
        <time>2022-04-20T12:08:41Z</time>
      </trkpt>
      <trkpt lat="49.96409" lon="2.41653">
        <ele>103.2</ele>
        <time>2022-04-20T12:08:42Z</time>
      </trkpt>
      <trkpt lat="49.96408" lon="2.41655">
        <ele>103.2</ele>
        <time>2022-04-20T12:08:44Z</time>
      </trkpt>
      <trkpt lat="49.96408" lon="2.41657">
        <ele>103.1</ele>
        <time>2022-04-20T12:08:45Z</time>
      </trkpt>
      <trkpt lat="49.96407" lon="2.41658">
        <ele>103.1</ele>
        <time>2022-04-20T12:08:46Z</time>
      </trkpt>
      <trkpt lat="49.96407" lon="2.4166">
        <ele>103.1</ele>
        <time>2022-04-20T12:08:47Z</time>
      </trkpt>
      <trkpt lat="49.96407" lon="2.41662">
        <ele>103.1</ele>
        <time>2022-04-20T12:08:48Z</time>
      </trkpt>
      <trkpt lat="49.96406" lon="2.41664">
        <ele>103</ele>
        <time>2022-04-20T12:08:49Z</time>
      </trkpt>
      <trkpt lat="49.96405" lon="2.41667">
        <ele>103</ele>
        <time>2022-04-20T12:08:51Z</time>
      </trkpt>
      <trkpt lat="49.96405" lon="2.41669">
        <ele>103</ele>
        <time>2022-04-20T12:08:52Z</time>
      </trkpt>
      <trkpt lat="49.96404" lon="2.4167">
        <ele>103</ele>
        <time>2022-04-20T12:08:53Z</time>
      </trkpt>
      <trkpt lat="49.96404" lon="2.41673">
        <ele>102.9</ele>
        <time>2022-04-20T12:08:54Z</time>
      </trkpt>
      <trkpt lat="49.96403" lon="2.41674">
        <ele>102.9</ele>
        <time>2022-04-20T12:08:55Z</time>
      </trkpt>
      <trkpt lat="49.96403" lon="2.41675">
        <ele>102.9</ele>
        <time>2022-04-20T12:08:56Z</time>
      </trkpt>
      <trkpt lat="49.96402" lon="2.41677">
        <ele>102.9</ele>
        <time>2022-04-20T12:08:57Z</time>
      </trkpt>
      <trkpt lat="49.96402" lon="2.41679">
        <ele>102.8</ele>
        <time>2022-04-20T12:08:58Z</time>
      </trkpt>
      <trkpt lat="49.96401" lon="2.41682">
        <ele>102.8</ele>
        <time>2022-04-20T12:09:00Z</time>
      </trkpt>
      <trkpt lat="49.964" lon="2.41684">
        <ele>102.7</ele>
        <time>2022-04-20T12:09:01Z</time>
      </trkpt>
      <trkpt lat="49.964" lon="2.41686">
        <ele>102.7</ele>
        <time>2022-04-20T12:09:02Z</time>
      </trkpt>
      <trkpt lat="49.96399" lon="2.41688">
        <ele>102.7</ele>
        <time>2022-04-20T12:09:03Z</time>
      </trkpt>
      <trkpt lat="49.96399" lon="2.4169">
        <ele>102.6</ele>
        <time>2022-04-20T12:09:05Z</time>
      </trkpt>
      <trkpt lat="49.96398" lon="2.41692">
        <ele>102.6</ele>
        <time>2022-04-20T12:09:06Z</time>
      </trkpt>
      <trkpt lat="49.96397" lon="2.41694">
        <ele>102.6</ele>
        <time>2022-04-20T12:09:07Z</time>
      </trkpt>
      <trkpt lat="49.96396" lon="2.41697">
        <ele>102.5</ele>
        <time>2022-04-20T12:09:09Z</time>
      </trkpt>
      <trkpt lat="49.96396" lon="2.41701">
        <ele>102.5</ele>
        <time>2022-04-20T12:09:10Z</time>
      </trkpt>
      <trkpt lat="49.96395" lon="2.41702">
        <ele>102.4</ele>
        <time>2022-04-20T12:09:11Z</time>
      </trkpt>
      <trkpt lat="49.96395" lon="2.41704">
        <ele>102.4</ele>
        <time>2022-04-20T12:09:12Z</time>
      </trkpt>
      <trkpt lat="49.96394" lon="2.41706">
        <ele>102.4</ele>
        <time>2022-04-20T12:09:13Z</time>
      </trkpt>
      <trkpt lat="49.96394" lon="2.41708">
        <ele>102.3</ele>
        <time>2022-04-20T12:09:14Z</time>
      </trkpt>
      <trkpt lat="49.96393" lon="2.41712">
        <ele>102.3</ele>
        <time>2022-04-20T12:09:16Z</time>
      </trkpt>
      <trkpt lat="49.96393" lon="2.41713">
        <ele>102.3</ele>
        <time>2022-04-20T12:09:17Z</time>
      </trkpt>
      <trkpt lat="49.96392" lon="2.41717">
        <ele>102.2</ele>
        <time>2022-04-20T12:09:18Z</time>
      </trkpt>
      <trkpt lat="49.96392" lon="2.41718">
        <ele>102.2</ele>
        <time>2022-04-20T12:09:19Z</time>
      </trkpt>
      <trkpt lat="49.96392" lon="2.41719">
        <ele>102.2</ele>
        <time>2022-04-20T12:09:20Z</time>
      </trkpt>
      <trkpt lat="49.96391" lon="2.41722">
        <ele>102.2</ele>
        <time>2022-04-20T12:09:21Z</time>
      </trkpt>
      <trkpt lat="49.9639" lon="2.41723">
        <ele>102.1</ele>
        <time>2022-04-20T12:09:22Z</time>
      </trkpt>
      <trkpt lat="49.9639" lon="2.41725">
        <ele>102.1</ele>
        <time>2022-04-20T12:09:23Z</time>
      </trkpt>
      <trkpt lat="49.96389" lon="2.41728">
        <ele>102.1</ele>
        <time>2022-04-20T12:09:25Z</time>
      </trkpt>
      <trkpt lat="49.96388" lon="2.4173">
        <ele>102.1</ele>
        <time>2022-04-20T12:09:26Z</time>
      </trkpt>
      <trkpt lat="49.96388" lon="2.41732">
        <ele>102</ele>
        <time>2022-04-20T12:09:27Z</time>
      </trkpt>
      <trkpt lat="49.96387" lon="2.41734">
        <ele>102</ele>
        <time>2022-04-20T12:09:28Z</time>
      </trkpt>
      <trkpt lat="49.96386" lon="2.41737">
        <ele>102</ele>
        <time>2022-04-20T12:09:29Z</time>
      </trkpt>
      <trkpt lat="49.96386" lon="2.41739">
        <ele>102</ele>
        <time>2022-04-20T12:09:30Z</time>
      </trkpt>
      <trkpt lat="49.96386" lon="2.4174">
        <ele>102</ele>
        <time>2022-04-20T12:09:31Z</time>
      </trkpt>
      <trkpt lat="49.96385" lon="2.41743">
        <ele>101.9</ele>
        <time>2022-04-20T12:09:32Z</time>
      </trkpt>
      <trkpt lat="49.96385" lon="2.41744">
        <ele>101.9</ele>
        <time>2022-04-20T12:09:33Z</time>
      </trkpt>
      <trkpt lat="49.96385" lon="2.41746">
        <ele>101.9</ele>
        <time>2022-04-20T12:09:34Z</time>
      </trkpt>
      <trkpt lat="49.96385" lon="2.41748">
        <ele>101.9</ele>
        <time>2022-04-20T12:09:35Z</time>
      </trkpt>
      <trkpt lat="49.96385" lon="2.41749">
        <ele>101.9</ele>
        <time>2022-04-20T12:09:36Z</time>
      </trkpt>
      <trkpt lat="49.96384" lon="2.41751">
        <ele>101.9</ele>
        <time>2022-04-20T12:09:37Z</time>
      </trkpt>
      <trkpt lat="49.96384" lon="2.41753">
        <ele>101.8</ele>
        <time>2022-04-20T12:09:39Z</time>
      </trkpt>
      <trkpt lat="49.96384" lon="2.41755">
        <ele>101.8</ele>
        <time>2022-04-20T12:09:40Z</time>
      </trkpt>
      <trkpt lat="49.96383" lon="2.41759">
        <ele>101.8</ele>
        <time>2022-04-20T12:09:41Z</time>
      </trkpt>
      <trkpt lat="49.96383" lon="2.4176">
        <ele>101.7</ele>
        <time>2022-04-20T12:09:42Z</time>
      </trkpt>
      <trkpt lat="49.96383" lon="2.41761">
        <ele>101.7</ele>
        <time>2022-04-20T12:09:43Z</time>
      </trkpt>
      <trkpt lat="49.96382" lon="2.41763">
        <ele>101.7</ele>
        <time>2022-04-20T12:09:44Z</time>
      </trkpt>
      <trkpt lat="49.96382" lon="2.41765">
        <ele>101.7</ele>
        <time>2022-04-20T12:09:45Z</time>
      </trkpt>
      <trkpt lat="49.96382" lon="2.41766">
        <ele>101.6</ele>
        <time>2022-04-20T12:09:46Z</time>
      </trkpt>
      <trkpt lat="49.96381" lon="2.41769">
        <ele>101.6</ele>
        <time>2022-04-20T12:09:47Z</time>
      </trkpt>
      <trkpt lat="49.96381" lon="2.4177">
        <ele>101.5</ele>
        <time>2022-04-20T12:09:48Z</time>
      </trkpt>
      <trkpt lat="49.96381" lon="2.41772">
        <ele>101.5</ele>
        <time>2022-04-20T12:09:49Z</time>
      </trkpt>
      <trkpt lat="49.9638" lon="2.41773">
        <ele>101.5</ele>
        <time>2022-04-20T12:09:50Z</time>
      </trkpt>
      <trkpt lat="49.9638" lon="2.41775">
        <ele>101.5</ele>
        <time>2022-04-20T12:09:51Z</time>
      </trkpt>
      <trkpt lat="49.9638" lon="2.41777">
        <ele>101.4</ele>
        <time>2022-04-20T12:09:52Z</time>
      </trkpt>
      <trkpt lat="49.96379" lon="2.4178">
        <ele>101.4</ele>
        <time>2022-04-20T12:09:54Z</time>
      </trkpt>
      <trkpt lat="49.96379" lon="2.41781">
        <ele>101.3</ele>
        <time>2022-04-20T12:09:55Z</time>
      </trkpt>
      <trkpt lat="49.96379" lon="2.41783">
        <ele>101.3</ele>
        <time>2022-04-20T12:09:56Z</time>
      </trkpt>
      <trkpt lat="49.96379" lon="2.41785">
        <ele>101.3</ele>
        <time>2022-04-20T12:09:57Z</time>
      </trkpt>
      <trkpt lat="49.96378" lon="2.41787">
        <ele>101.2</ele>
        <time>2022-04-20T12:09:58Z</time>
      </trkpt>
      <trkpt lat="49.96377" lon="2.4179">
        <ele>101.2</ele>
        <time>2022-04-20T12:09:59Z</time>
      </trkpt>
      <trkpt lat="49.96377" lon="2.41791">
        <ele>101.2</ele>
        <time>2022-04-20T12:10:00Z</time>
      </trkpt>
      <trkpt lat="49.96376" lon="2.41793">
        <ele>101.1</ele>
        <time>2022-04-20T12:10:02Z</time>
      </trkpt>
      <trkpt lat="49.96376" lon="2.41794">
        <ele>101.1</ele>
        <time>2022-04-20T12:10:03Z</time>
      </trkpt>
      <trkpt lat="49.96375" lon="2.41796">
        <ele>101.1</ele>
        <time>2022-04-20T12:10:04Z</time>
      </trkpt>
      <trkpt lat="49.96375" lon="2.41797">
        <ele>101</ele>
        <time>2022-04-20T12:10:05Z</time>
      </trkpt>
      <trkpt lat="49.96374" lon="2.41798">
        <ele>101</ele>
        <time>2022-04-20T12:10:06Z</time>
      </trkpt>
      <trkpt lat="49.96373" lon="2.418">
        <ele>101</ele>
        <time>2022-04-20T12:10:07Z</time>
      </trkpt>
      <trkpt lat="49.96373" lon="2.41802">
        <ele>100.9</ele>
        <time>2022-04-20T12:10:08Z</time>
      </trkpt>
      <trkpt lat="49.96372" lon="2.41804">
        <ele>100.9</ele>
        <time>2022-04-20T12:10:09Z</time>
      </trkpt>
      <trkpt lat="49.96371" lon="2.41806">
        <ele>100.8</ele>
        <time>2022-04-20T12:10:10Z</time>
      </trkpt>
      <trkpt lat="49.9637" lon="2.41808">
        <ele>100.8</ele>
        <time>2022-04-20T12:10:11Z</time>
      </trkpt>
      <trkpt lat="49.9637" lon="2.4181">
        <ele>100.7</ele>
        <time>2022-04-20T12:10:12Z</time>
      </trkpt>
      <trkpt lat="49.9637" lon="2.41811">
        <ele>100.7</ele>
        <time>2022-04-20T12:10:13Z</time>
      </trkpt>
      <trkpt lat="49.96368" lon="2.41813">
        <ele>100.6</ele>
        <time>2022-04-20T12:10:14Z</time>
      </trkpt>
      <trkpt lat="49.96368" lon="2.41815">
        <ele>100.6</ele>
        <time>2022-04-20T12:10:15Z</time>
      </trkpt>
      <trkpt lat="49.96367" lon="2.41816">
        <ele>100.6</ele>
        <time>2022-04-20T12:10:16Z</time>
      </trkpt>
      <trkpt lat="49.96367" lon="2.41817">
        <ele>100.5</ele>
        <time>2022-04-20T12:10:17Z</time>
      </trkpt>
      <trkpt lat="49.96366" lon="2.41819">
        <ele>100.5</ele>
        <time>2022-04-20T12:10:18Z</time>
      </trkpt>
      <trkpt lat="49.96365" lon="2.41821">
        <ele>100.4</ele>
        <time>2022-04-20T12:10:20Z</time>
      </trkpt>
      <trkpt lat="49.96364" lon="2.41824">
        <ele>100.4</ele>
        <time>2022-04-20T12:10:21Z</time>
      </trkpt>
      <trkpt lat="49.96363" lon="2.41825">
        <ele>100.3</ele>
        <time>2022-04-20T12:10:22Z</time>
      </trkpt>
      <trkpt lat="49.96363" lon="2.41826">
        <ele>100.3</ele>
        <time>2022-04-20T12:10:23Z</time>
      </trkpt>
      <trkpt lat="49.96362" lon="2.41829">
        <ele>100.2</ele>
        <time>2022-04-20T12:10:24Z</time>
      </trkpt>
      <trkpt lat="49.96361" lon="2.4183">
        <ele>100.2</ele>
        <time>2022-04-20T12:10:25Z</time>
      </trkpt>
      <trkpt lat="49.96361" lon="2.41831">
        <ele>100.2</ele>
        <time>2022-04-20T12:10:26Z</time>
      </trkpt>
      <trkpt lat="49.9636" lon="2.41832">
        <ele>100.1</ele>
        <time>2022-04-20T12:10:27Z</time>
      </trkpt>
      <trkpt lat="49.9636" lon="2.41833">
        <ele>100.1</ele>
        <time>2022-04-20T12:10:28Z</time>
      </trkpt>
      <trkpt lat="49.96359" lon="2.41836">
        <ele>100</ele>
        <time>2022-04-20T12:10:30Z</time>
      </trkpt>
      <trkpt lat="49.96358" lon="2.41838">
        <ele>100</ele>
        <time>2022-04-20T12:10:31Z</time>
      </trkpt>
      <trkpt lat="49.96358" lon="2.41839">
        <ele>99.9</ele>
        <time>2022-04-20T12:10:32Z</time>
      </trkpt>
      <trkpt lat="49.96357" lon="2.41841">
        <ele>99.9</ele>
        <time>2022-04-20T12:10:33Z</time>
      </trkpt>
      <trkpt lat="49.96356" lon="2.41842">
        <ele>99.8</ele>
        <time>2022-04-20T12:10:34Z</time>
      </trkpt>
      <trkpt lat="49.96355" lon="2.41843">
        <ele>99.8</ele>
        <time>2022-04-20T12:10:35Z</time>
      </trkpt>
      <trkpt lat="49.96355" lon="2.41845">
        <ele>99.7</ele>
        <time>2022-04-20T12:10:36Z</time>
      </trkpt>
      <trkpt lat="49.96354" lon="2.41846">
        <ele>99.7</ele>
        <time>2022-04-20T12:10:37Z</time>
      </trkpt>
      <trkpt lat="49.96353" lon="2.41848">
        <ele>99.6</ele>
        <time>2022-04-20T12:10:39Z</time>
      </trkpt>
      <trkpt lat="49.96353" lon="2.41849">
        <ele>99.6</ele>
        <time>2022-04-20T12:10:40Z</time>
      </trkpt>
      <trkpt lat="49.96353" lon="2.41851">
        <ele>99.5</ele>
        <time>2022-04-20T12:10:41Z</time>
      </trkpt>
      <trkpt lat="49.96353" lon="2.41852">
        <ele>99.5</ele>
        <time>2022-04-20T12:10:42Z</time>
      </trkpt>
      <trkpt lat="49.96352" lon="2.41854">
        <ele>99.4</ele>
        <time>2022-04-20T12:10:43Z</time>
      </trkpt>
      <trkpt lat="49.96352" lon="2.41857">
        <ele>99.3</ele>
        <time>2022-04-20T12:10:44Z</time>
      </trkpt>
      <trkpt lat="49.96352" lon="2.41859">
        <ele>99.3</ele>
        <time>2022-04-20T12:10:45Z</time>
      </trkpt>
      <trkpt lat="49.96352" lon="2.4186">
        <ele>99.3</ele>
        <time>2022-04-20T12:10:46Z</time>
      </trkpt>
      <trkpt lat="49.96352" lon="2.41862">
        <ele>99.2</ele>
        <time>2022-04-20T12:10:47Z</time>
      </trkpt>
      <trkpt lat="49.96351" lon="2.41864">
        <ele>99.1</ele>
        <time>2022-04-20T12:10:48Z</time>
      </trkpt>
      <trkpt lat="49.96351" lon="2.41866">
        <ele>99.1</ele>
        <time>2022-04-20T12:10:50Z</time>
      </trkpt>
      <trkpt lat="49.96351" lon="2.41868">
        <ele>99</ele>
        <time>2022-04-20T12:10:51Z</time>
      </trkpt>
      <trkpt lat="49.9635" lon="2.4187">
        <ele>98.9</ele>
        <time>2022-04-20T12:10:52Z</time>
      </trkpt>
      <trkpt lat="49.9635" lon="2.41872">
        <ele>98.9</ele>
        <time>2022-04-20T12:10:53Z</time>
      </trkpt>
      <trkpt lat="49.9635" lon="2.41874">
        <ele>98.8</ele>
        <time>2022-04-20T12:10:54Z</time>
      </trkpt>
      <trkpt lat="49.96349" lon="2.41875">
        <ele>98.7</ele>
        <time>2022-04-20T12:10:55Z</time>
      </trkpt>
      <trkpt lat="49.96349" lon="2.41877">
        <ele>98.7</ele>
        <time>2022-04-20T12:10:56Z</time>
      </trkpt>
      <trkpt lat="49.96348" lon="2.4188">
        <ele>98.6</ele>
        <time>2022-04-20T12:10:58Z</time>
      </trkpt>
      <trkpt lat="49.96348" lon="2.41882">
        <ele>98.5</ele>
        <time>2022-04-20T12:10:59Z</time>
      </trkpt>
      <trkpt lat="49.96348" lon="2.41883">
        <ele>98.5</ele>
        <time>2022-04-20T12:11:00Z</time>
      </trkpt>
      <trkpt lat="49.96348" lon="2.41885">
        <ele>98.4</ele>
        <time>2022-04-20T12:11:01Z</time>
      </trkpt>
      <trkpt lat="49.96347" lon="2.41886">
        <ele>98.4</ele>
        <time>2022-04-20T12:11:02Z</time>
      </trkpt>
      <trkpt lat="49.96347" lon="2.41887">
        <ele>98.3</ele>
        <time>2022-04-20T12:11:03Z</time>
      </trkpt>
      <trkpt lat="49.96347" lon="2.41889">
        <ele>98.3</ele>
        <time>2022-04-20T12:11:04Z</time>
      </trkpt>
      <trkpt lat="49.96346" lon="2.4189">
        <ele>98.2</ele>
        <time>2022-04-20T12:11:05Z</time>
      </trkpt>
      <trkpt lat="49.96346" lon="2.41892">
        <ele>98.2</ele>
        <time>2022-04-20T12:11:06Z</time>
      </trkpt>
      <trkpt lat="49.96345" lon="2.41894">
        <ele>98.1</ele>
        <time>2022-04-20T12:11:07Z</time>
      </trkpt>
      <trkpt lat="49.96345" lon="2.41895">
        <ele>98.1</ele>
        <time>2022-04-20T12:11:09Z</time>
      </trkpt>
      <trkpt lat="49.96344" lon="2.41897">
        <ele>98</ele>
        <time>2022-04-20T12:11:10Z</time>
      </trkpt>
      <trkpt lat="49.96344" lon="2.41898">
        <ele>98</ele>
        <time>2022-04-20T12:11:11Z</time>
      </trkpt>
      <trkpt lat="49.96343" lon="2.41902">
        <ele>97.8</ele>
        <time>2022-04-20T12:11:12Z</time>
      </trkpt>
      <trkpt lat="49.96342" lon="2.41903">
        <ele>97.8</ele>
        <time>2022-04-20T12:11:14Z</time>
      </trkpt>
      <trkpt lat="49.96342" lon="2.41905">
        <ele>97.7</ele>
        <time>2022-04-20T12:11:15Z</time>
      </trkpt>
      <trkpt lat="49.96342" lon="2.41907">
        <ele>97.7</ele>
        <time>2022-04-20T12:11:16Z</time>
      </trkpt>
      <trkpt lat="49.96341" lon="2.41908">
        <ele>97.6</ele>
        <time>2022-04-20T12:11:17Z</time>
      </trkpt>
      <trkpt lat="49.96341" lon="2.4191">
        <ele>97.6</ele>
        <time>2022-04-20T12:11:18Z</time>
      </trkpt>
      <trkpt lat="49.9634" lon="2.41911">
        <ele>97.5</ele>
        <time>2022-04-20T12:11:19Z</time>
      </trkpt>
      <trkpt lat="49.9634" lon="2.41913">
        <ele>97.4</ele>
        <time>2022-04-20T12:11:20Z</time>
      </trkpt>
      <trkpt lat="49.96339" lon="2.41915">
        <ele>97.4</ele>
        <time>2022-04-20T12:11:21Z</time>
      </trkpt>
      <trkpt lat="49.96339" lon="2.41917">
        <ele>97.3</ele>
        <time>2022-04-20T12:11:22Z</time>
      </trkpt>
      <trkpt lat="49.96339" lon="2.4192">
        <ele>97.2</ele>
        <time>2022-04-20T12:11:23Z</time>
      </trkpt>
      <trkpt lat="49.96338" lon="2.41922">
        <ele>97.1</ele>
        <time>2022-04-20T12:11:24Z</time>
      </trkpt>
      <trkpt lat="49.96338" lon="2.41925">
        <ele>97</ele>
        <time>2022-04-20T12:11:25Z</time>
      </trkpt>
      <trkpt lat="49.96338" lon="2.41926">
        <ele>97</ele>
        <time>2022-04-20T12:11:26Z</time>
      </trkpt>
      <trkpt lat="49.96338" lon="2.41928">
        <ele>96.9</ele>
        <time>2022-04-20T12:11:27Z</time>
      </trkpt>
      <trkpt lat="49.96337" lon="2.41929">
        <ele>96.9</ele>
        <time>2022-04-20T12:11:28Z</time>
      </trkpt>
      <trkpt lat="49.96337" lon="2.41931">
        <ele>96.8</ele>
        <time>2022-04-20T12:11:30Z</time>
      </trkpt>
      <trkpt lat="49.96337" lon="2.41933">
        <ele>96.8</ele>
        <time>2022-04-20T12:11:31Z</time>
      </trkpt>
      <trkpt lat="49.96337" lon="2.41935">
        <ele>96.7</ele>
        <time>2022-04-20T12:11:32Z</time>
      </trkpt>
      <trkpt lat="49.96336" lon="2.41936">
        <ele>96.6</ele>
        <time>2022-04-20T12:11:33Z</time>
      </trkpt>
      <trkpt lat="49.96336" lon="2.41938">
        <ele>96.6</ele>
        <time>2022-04-20T12:11:34Z</time>
      </trkpt>
      <trkpt lat="49.96335" lon="2.41941">
        <ele>96.5</ele>
        <time>2022-04-20T12:11:35Z</time>
      </trkpt>
      <trkpt lat="49.96335" lon="2.41943">
        <ele>96.4</ele>
        <time>2022-04-20T12:11:36Z</time>
      </trkpt>
      <trkpt lat="49.96335" lon="2.41944">
        <ele>96.4</ele>
        <time>2022-04-20T12:11:37Z</time>
      </trkpt>
      <trkpt lat="49.96334" lon="2.41946">
        <ele>96.3</ele>
        <time>2022-04-20T12:11:38Z</time>
      </trkpt>
      <trkpt lat="49.96334" lon="2.41948">
        <ele>96.2</ele>
        <time>2022-04-20T12:11:39Z</time>
      </trkpt>
      <trkpt lat="49.96334" lon="2.4195">
        <ele>96.2</ele>
        <time>2022-04-20T12:11:40Z</time>
      </trkpt>
      <trkpt lat="49.96333" lon="2.41952">
        <ele>96.1</ele>
        <time>2022-04-20T12:11:41Z</time>
      </trkpt>
      <trkpt lat="49.96333" lon="2.41953">
        <ele>96</ele>
        <time>2022-04-20T12:11:42Z</time>
      </trkpt>
      <trkpt lat="49.96333" lon="2.41955">
        <ele>96</ele>
        <time>2022-04-20T12:11:43Z</time>
      </trkpt>
      <trkpt lat="49.96332" lon="2.41957">
        <ele>95.9</ele>
        <time>2022-04-20T12:11:45Z</time>
      </trkpt>
      <trkpt lat="49.96332" lon="2.41959">
        <ele>95.8</ele>
        <time>2022-04-20T12:11:46Z</time>
      </trkpt>
      <trkpt lat="49.96331" lon="2.41961">
        <ele>95.8</ele>
        <time>2022-04-20T12:11:47Z</time>
      </trkpt>
      <trkpt lat="49.96331" lon="2.41962">
        <ele>95.7</ele>
        <time>2022-04-20T12:11:48Z</time>
      </trkpt>
      <trkpt lat="49.96331" lon="2.41964">
        <ele>95.7</ele>
        <time>2022-04-20T12:11:49Z</time>
      </trkpt>
      <trkpt lat="49.9633" lon="2.41967">
        <ele>95.5</ele>
        <time>2022-04-20T12:11:50Z</time>
      </trkpt>
      <trkpt lat="49.9633" lon="2.41969">
        <ele>95.5</ele>
        <time>2022-04-20T12:11:51Z</time>
      </trkpt>
      <trkpt lat="49.9633" lon="2.4197">
        <ele>95.4</ele>
        <time>2022-04-20T12:11:52Z</time>
      </trkpt>
      <trkpt lat="49.96329" lon="2.41973">
        <ele>95.3</ele>
        <time>2022-04-20T12:11:54Z</time>
      </trkpt>
      <trkpt lat="49.96329" lon="2.41975">
        <ele>95.2</ele>
        <time>2022-04-20T12:11:55Z</time>
      </trkpt>
      <trkpt lat="49.96329" lon="2.41977">
        <ele>95.2</ele>
        <time>2022-04-20T12:11:56Z</time>
      </trkpt>
      <trkpt lat="49.96328" lon="2.4198">
        <ele>95.1</ele>
        <time>2022-04-20T12:11:57Z</time>
      </trkpt>
      <trkpt lat="49.96328" lon="2.41982">
        <ele>95</ele>
        <time>2022-04-20T12:11:58Z</time>
      </trkpt>
      <trkpt lat="49.96328" lon="2.41984">
        <ele>94.9</ele>
        <time>2022-04-20T12:11:59Z</time>
      </trkpt>
      <trkpt lat="49.96328" lon="2.41986">
        <ele>94.9</ele>
        <time>2022-04-20T12:12:01Z</time>
      </trkpt>
      <trkpt lat="49.96328" lon="2.41989">
        <ele>94.8</ele>
        <time>2022-04-20T12:12:02Z</time>
      </trkpt>
      <trkpt lat="49.96328" lon="2.4199">
        <ele>94.7</ele>
        <time>2022-04-20T12:12:03Z</time>
      </trkpt>
      <trkpt lat="49.96328" lon="2.41992">
        <ele>94.7</ele>
        <time>2022-04-20T12:12:04Z</time>
      </trkpt>
      <trkpt lat="49.96328" lon="2.41994">
        <ele>94.6</ele>
        <time>2022-04-20T12:12:05Z</time>
      </trkpt>
      <trkpt lat="49.96327" lon="2.41996">
        <ele>94.5</ele>
        <time>2022-04-20T12:12:06Z</time>
      </trkpt>
      <trkpt lat="49.96327" lon="2.41998">
        <ele>94.5</ele>
        <time>2022-04-20T12:12:07Z</time>
      </trkpt>
      <trkpt lat="49.96327" lon="2.42">
        <ele>94.4</ele>
        <time>2022-04-20T12:12:09Z</time>
      </trkpt>
      <trkpt lat="49.96327" lon="2.42002">
        <ele>94.3</ele>
        <time>2022-04-20T12:12:10Z</time>
      </trkpt>
      <trkpt lat="49.96327" lon="2.42004">
        <ele>94.3</ele>
        <time>2022-04-20T12:12:11Z</time>
      </trkpt>
      <trkpt lat="49.96327" lon="2.42005">
        <ele>94.2</ele>
        <time>2022-04-20T12:12:12Z</time>
      </trkpt>
      <trkpt lat="49.96327" lon="2.42007">
        <ele>94.1</ele>
        <time>2022-04-20T12:12:13Z</time>
      </trkpt>
      <trkpt lat="49.96327" lon="2.4201">
        <ele>94</ele>
        <time>2022-04-20T12:12:14Z</time>
      </trkpt>
      <trkpt lat="49.96326" lon="2.42012">
        <ele>93.9</ele>
        <time>2022-04-20T12:12:15Z</time>
      </trkpt>
      <trkpt lat="49.96326" lon="2.42014">
        <ele>93.9</ele>
        <time>2022-04-20T12:12:16Z</time>
      </trkpt>
      <trkpt lat="49.96326" lon="2.42018">
        <ele>93.7</ele>
        <time>2022-04-20T12:12:17Z</time>
      </trkpt>
      <trkpt lat="49.96325" lon="2.42019">
        <ele>93.7</ele>
        <time>2022-04-20T12:12:19Z</time>
      </trkpt>
      <trkpt lat="49.96325" lon="2.42021">
        <ele>93.6</ele>
        <time>2022-04-20T12:12:20Z</time>
      </trkpt>
      <trkpt lat="49.96325" lon="2.42023">
        <ele>93.6</ele>
        <time>2022-04-20T12:12:21Z</time>
      </trkpt>
      <trkpt lat="49.96325" lon="2.42024">
        <ele>93.5</ele>
        <time>2022-04-20T12:12:22Z</time>
      </trkpt>
      <trkpt lat="49.96325" lon="2.42026">
        <ele>93.4</ele>
        <time>2022-04-20T12:12:23Z</time>
      </trkpt>
      <trkpt lat="49.96325" lon="2.42028">
        <ele>93.4</ele>
        <time>2022-04-20T12:12:24Z</time>
      </trkpt>
      <trkpt lat="49.96325" lon="2.42032">
        <ele>93.3</ele>
        <time>2022-04-20T12:12:25Z</time>
      </trkpt>
      <trkpt lat="49.96324" lon="2.42033">
        <ele>93.2</ele>
        <time>2022-04-20T12:12:26Z</time>
      </trkpt>
      <trkpt lat="49.96324" lon="2.42034">
        <ele>93.2</ele>
        <time>2022-04-20T12:12:27Z</time>
      </trkpt>
      <trkpt lat="49.96324" lon="2.42036">
        <ele>93.1</ele>
        <time>2022-04-20T12:12:28Z</time>
      </trkpt>
      <trkpt lat="49.96324" lon="2.42038">
        <ele>93.1</ele>
        <time>2022-04-20T12:12:29Z</time>
      </trkpt>
      <trkpt lat="49.96324" lon="2.42039">
        <ele>93</ele>
        <time>2022-04-20T12:12:30Z</time>
      </trkpt>
      <trkpt lat="49.96324" lon="2.42042">
        <ele>92.9</ele>
        <time>2022-04-20T12:12:32Z</time>
      </trkpt>
      <trkpt lat="49.96324" lon="2.42044">
        <ele>92.8</ele>
        <time>2022-04-20T12:12:33Z</time>
      </trkpt>
      <trkpt lat="49.96324" lon="2.42045">
        <ele>92.8</ele>
        <time>2022-04-20T12:12:34Z</time>
      </trkpt>
      <trkpt lat="49.96324" lon="2.42048">
        <ele>92.7</ele>
        <time>2022-04-20T12:12:35Z</time>
      </trkpt>
      <trkpt lat="49.96324" lon="2.4205">
        <ele>92.6</ele>
        <time>2022-04-20T12:12:36Z</time>
      </trkpt>
      <trkpt lat="49.96324" lon="2.42051">
        <ele>92.6</ele>
        <time>2022-04-20T12:12:37Z</time>
      </trkpt>
      <trkpt lat="49.96325" lon="2.42054">
        <ele>92.5</ele>
        <time>2022-04-20T12:12:38Z</time>
      </trkpt>
      <trkpt lat="49.96325" lon="2.42055">
        <ele>92.4</ele>
        <time>2022-04-20T12:12:39Z</time>
      </trkpt>
      <trkpt lat="49.96325" lon="2.42057">
        <ele>92.4</ele>
        <time>2022-04-20T12:12:40Z</time>
      </trkpt>
      <trkpt lat="49.96325" lon="2.42059">
        <ele>92.3</ele>
        <time>2022-04-20T12:12:41Z</time>
      </trkpt>
      <trkpt lat="49.96325" lon="2.4206">
        <ele>92.3</ele>
        <time>2022-04-20T12:12:43Z</time>
      </trkpt>
      <trkpt lat="49.96325" lon="2.42062">
        <ele>92.2</ele>
        <time>2022-04-20T12:12:44Z</time>
      </trkpt>
      <trkpt lat="49.96325" lon="2.42066">
        <ele>92.1</ele>
        <time>2022-04-20T12:12:45Z</time>
      </trkpt>
      <trkpt lat="49.96324" lon="2.42067">
        <ele>92</ele>
        <time>2022-04-20T12:12:46Z</time>
      </trkpt>
      <trkpt lat="49.96324" lon="2.42068">
        <ele>92</ele>
        <time>2022-04-20T12:12:47Z</time>
      </trkpt>
      <trkpt lat="49.96324" lon="2.42071">
        <ele>91.9</ele>
        <time>2022-04-20T12:12:48Z</time>
      </trkpt>
      <trkpt lat="49.96324" lon="2.42073">
        <ele>91.8</ele>
        <time>2022-04-20T12:12:49Z</time>
      </trkpt>
      <trkpt lat="49.96323" lon="2.42075">
        <ele>91.8</ele>
        <time>2022-04-20T12:12:50Z</time>
      </trkpt>
      <trkpt lat="49.96323" lon="2.42077">
        <ele>91.7</ele>
        <time>2022-04-20T12:12:51Z</time>
      </trkpt>
      <trkpt lat="49.96323" lon="2.42079">
        <ele>91.6</ele>
        <time>2022-04-20T12:12:53Z</time>
      </trkpt>
      <trkpt lat="49.96323" lon="2.42082">
        <ele>91.5</ele>
        <time>2022-04-20T12:12:54Z</time>
      </trkpt>
      <trkpt lat="49.96323" lon="2.42084">
        <ele>91.5</ele>
        <time>2022-04-20T12:12:55Z</time>
      </trkpt>
      <trkpt lat="49.96322" lon="2.42085">
        <ele>91.4</ele>
        <time>2022-04-20T12:12:56Z</time>
      </trkpt>
      <trkpt lat="49.96322" lon="2.42089">
        <ele>91.3</ele>
        <time>2022-04-20T12:12:57Z</time>
      </trkpt>
      <trkpt lat="49.96322" lon="2.42091">
        <ele>91.2</ele>
        <time>2022-04-20T12:12:59Z</time>
      </trkpt>
      <trkpt lat="49.96322" lon="2.42093">
        <ele>91.2</ele>
        <time>2022-04-20T12:13:00Z</time>
      </trkpt>
      <trkpt lat="49.96322" lon="2.42095">
        <ele>91.1</ele>
        <time>2022-04-20T12:13:01Z</time>
      </trkpt>
      <trkpt lat="49.96322" lon="2.42096">
        <ele>91.1</ele>
        <time>2022-04-20T12:13:02Z</time>
      </trkpt>
      <trkpt lat="49.96321" lon="2.42098">
        <ele>91</ele>
        <time>2022-04-20T12:13:03Z</time>
      </trkpt>
      <trkpt lat="49.96321" lon="2.42099">
        <ele>91</ele>
        <time>2022-04-20T12:13:04Z</time>
      </trkpt>
      <trkpt lat="49.96321" lon="2.42101">
        <ele>90.9</ele>
        <time>2022-04-20T12:13:05Z</time>
      </trkpt>
      <trkpt lat="49.96321" lon="2.42104">
        <ele>90.8</ele>
        <time>2022-04-20T12:13:06Z</time>
      </trkpt>
      <trkpt lat="49.96321" lon="2.42106">
        <ele>90.8</ele>
        <time>2022-04-20T12:13:07Z</time>
      </trkpt>
      <trkpt lat="49.96321" lon="2.42107">
        <ele>90.7</ele>
        <time>2022-04-20T12:13:08Z</time>
      </trkpt>
      <trkpt lat="49.96321" lon="2.42109">
        <ele>90.7</ele>
        <time>2022-04-20T12:13:09Z</time>
      </trkpt>
      <trkpt lat="49.9632" lon="2.42111">
        <ele>90.6</ele>
        <time>2022-04-20T12:13:10Z</time>
      </trkpt>
      <trkpt lat="49.9632" lon="2.42113">
        <ele>90.5</ele>
        <time>2022-04-20T12:13:11Z</time>
      </trkpt>
      <trkpt lat="49.96319" lon="2.42116">
        <ele>90.5</ele>
        <time>2022-04-20T12:13:12Z</time>
      </trkpt>
      <trkpt lat="49.96319" lon="2.42117">
        <ele>90.4</ele>
        <time>2022-04-20T12:13:13Z</time>
      </trkpt>
      <trkpt lat="49.96319" lon="2.4212">
        <ele>90.4</ele>
        <time>2022-04-20T12:13:15Z</time>
      </trkpt>
      <trkpt lat="49.96319" lon="2.42123">
        <ele>90.3</ele>
        <time>2022-04-20T12:13:16Z</time>
      </trkpt>
      <trkpt lat="49.96319" lon="2.42125">
        <ele>90.2</ele>
        <time>2022-04-20T12:13:17Z</time>
      </trkpt>
      <trkpt lat="49.96319" lon="2.42127">
        <ele>90.2</ele>
        <time>2022-04-20T12:13:18Z</time>
      </trkpt>
      <trkpt lat="49.96319" lon="2.42129">
        <ele>90.1</ele>
        <time>2022-04-20T12:13:19Z</time>
      </trkpt>
      <trkpt lat="49.96318" lon="2.4213">
        <ele>90.1</ele>
        <time>2022-04-20T12:13:20Z</time>
      </trkpt>
      <trkpt lat="49.96318" lon="2.42132">
        <ele>90</ele>
        <time>2022-04-20T12:13:21Z</time>
      </trkpt>
      <trkpt lat="49.96318" lon="2.42134">
        <ele>90</ele>
        <time>2022-04-20T12:13:23Z</time>
      </trkpt>
      <trkpt lat="49.96318" lon="2.42136">
        <ele>89.9</ele>
        <time>2022-04-20T12:13:24Z</time>
      </trkpt>
      <trkpt lat="49.96318" lon="2.42138">
        <ele>89.9</ele>
        <time>2022-04-20T12:13:25Z</time>
      </trkpt>
      <trkpt lat="49.96318" lon="2.42139">
        <ele>89.8</ele>
        <time>2022-04-20T12:13:26Z</time>
      </trkpt>
      <trkpt lat="49.96318" lon="2.42143">
        <ele>89.7</ele>
        <time>2022-04-20T12:13:27Z</time>
      </trkpt>
      <trkpt lat="49.96318" lon="2.42144">
        <ele>89.7</ele>
        <time>2022-04-20T12:13:28Z</time>
      </trkpt>
      <trkpt lat="49.96318" lon="2.42146">
        <ele>89.7</ele>
        <time>2022-04-20T12:13:29Z</time>
      </trkpt>
      <trkpt lat="49.96318" lon="2.42149">
        <ele>89.6</ele>
        <time>2022-04-20T12:13:30Z</time>
      </trkpt>
      <trkpt lat="49.96318" lon="2.4215">
        <ele>89.5</ele>
        <time>2022-04-20T12:13:31Z</time>
      </trkpt>
      <trkpt lat="49.96318" lon="2.42152">
        <ele>89.5</ele>
        <time>2022-04-20T12:13:32Z</time>
      </trkpt>
      <trkpt lat="49.96319" lon="2.42154">
        <ele>89.5</ele>
        <time>2022-04-20T12:13:33Z</time>
      </trkpt>
      <trkpt lat="49.96319" lon="2.42156">
        <ele>89.4</ele>
        <time>2022-04-20T12:13:34Z</time>
      </trkpt>
      <trkpt lat="49.96319" lon="2.42158">
        <ele>89.4</ele>
        <time>2022-04-20T12:13:35Z</time>
      </trkpt>
      <trkpt lat="49.96319" lon="2.4216">
        <ele>89.3</ele>
        <time>2022-04-20T12:13:36Z</time>
      </trkpt>
      <trkpt lat="49.96319" lon="2.42161">
        <ele>89.3</ele>
        <time>2022-04-20T12:13:37Z</time>
      </trkpt>
      <trkpt lat="49.96319" lon="2.42164">
        <ele>89.2</ele>
        <time>2022-04-20T12:13:39Z</time>
      </trkpt>
      <trkpt lat="49.96319" lon="2.42166">
        <ele>89.2</ele>
        <time>2022-04-20T12:13:40Z</time>
      </trkpt>
      <trkpt lat="49.9632" lon="2.42169">
        <ele>89.1</ele>
        <time>2022-04-20T12:13:41Z</time>
      </trkpt>
      <trkpt lat="49.9632" lon="2.42171">
        <ele>89.1</ele>
        <time>2022-04-20T12:13:42Z</time>
      </trkpt>
      <trkpt lat="49.9632" lon="2.42172">
        <ele>89</ele>
        <time>2022-04-20T12:13:43Z</time>
      </trkpt>
      <trkpt lat="49.9632" lon="2.42174">
        <ele>89</ele>
        <time>2022-04-20T12:13:44Z</time>
      </trkpt>
      <trkpt lat="49.96321" lon="2.42176">
        <ele>88.9</ele>
        <time>2022-04-20T12:13:45Z</time>
      </trkpt>
      <trkpt lat="49.96321" lon="2.42178">
        <ele>88.9</ele>
        <time>2022-04-20T12:13:47Z</time>
      </trkpt>
      <trkpt lat="49.96323" lon="2.42181">
        <ele>89.1</ele>
        <time>2022-04-20T12:13:49Z</time>
      </trkpt>
      <trkpt lat="49.96324" lon="2.42182">
        <ele>89.1</ele>
        <time>2022-04-20T12:13:50Z</time>
      </trkpt>
      <trkpt lat="49.96325" lon="2.42184">
        <ele>89.2</ele>
        <time>2022-04-20T12:13:51Z</time>
      </trkpt>
      <trkpt lat="49.96326" lon="2.42184">
        <ele>89.3</ele>
        <time>2022-04-20T12:13:52Z</time>
      </trkpt>
      <trkpt lat="49.96328" lon="2.42185">
        <ele>89.4</ele>
        <time>2022-04-20T12:13:53Z</time>
      </trkpt>
      <trkpt lat="49.96329" lon="2.42185">
        <ele>89.5</ele>
        <time>2022-04-20T12:13:54Z</time>
      </trkpt>
      <trkpt lat="49.96331" lon="2.42185">
        <ele>89.6</ele>
        <time>2022-04-20T12:13:55Z</time>
      </trkpt>
      <trkpt lat="49.96332" lon="2.42184">
        <ele>89.6</ele>
        <time>2022-04-20T12:13:57Z</time>
      </trkpt>
      <trkpt lat="49.96333" lon="2.42184">
        <ele>89.7</ele>
        <time>2022-04-20T12:13:58Z</time>
      </trkpt>
      <trkpt lat="49.96334" lon="2.42184">
        <ele>89.7</ele>
        <time>2022-04-20T12:13:59Z</time>
      </trkpt>
      <trkpt lat="49.96335" lon="2.42183">
        <ele>89.8</ele>
        <time>2022-04-20T12:14:00Z</time>
      </trkpt>
      <trkpt lat="49.96336" lon="2.42182">
        <ele>89.8</ele>
        <time>2022-04-20T12:14:02Z</time>
      </trkpt>
      <trkpt lat="49.96336" lon="2.42182">
        <ele>89.9</ele>
        <time>2022-04-20T12:14:03Z</time>
      </trkpt>
      <trkpt lat="49.96338" lon="2.4218">
        <ele>89.9</ele>
        <time>2022-04-20T12:14:04Z</time>
      </trkpt>
      <trkpt lat="49.96339" lon="2.4218">
        <ele>89.9</ele>
        <time>2022-04-20T12:14:05Z</time>
      </trkpt>
      <trkpt lat="49.96341" lon="2.42179">
        <ele>90</ele>
        <time>2022-04-20T12:14:07Z</time>
      </trkpt>
      <trkpt lat="49.96342" lon="2.42179">
        <ele>90</ele>
        <time>2022-04-20T12:14:08Z</time>
      </trkpt>
      <trkpt lat="49.96342" lon="2.42179">
        <ele>90.1</ele>
        <time>2022-04-20T12:14:09Z</time>
      </trkpt>
      <trkpt lat="49.96343" lon="2.42178">
        <ele>90.1</ele>
        <time>2022-04-20T12:14:10Z</time>
      </trkpt>
      <trkpt lat="49.96344" lon="2.42177">
        <ele>90.1</ele>
        <time>2022-04-20T12:14:11Z</time>
      </trkpt>
      <trkpt lat="49.96345" lon="2.42177">
        <ele>90.2</ele>
        <time>2022-04-20T12:14:12Z</time>
      </trkpt>
      <trkpt lat="49.96347" lon="2.42176">
        <ele>90.2</ele>
        <time>2022-04-20T12:14:13Z</time>
      </trkpt>
      <trkpt lat="49.96348" lon="2.42175">
        <ele>90.2</ele>
        <time>2022-04-20T12:14:14Z</time>
      </trkpt>
      <trkpt lat="49.96348" lon="2.42175">
        <ele>90.3</ele>
        <time>2022-04-20T12:14:15Z</time>
      </trkpt>
      <trkpt lat="49.96349" lon="2.42174">
        <ele>90.3</ele>
        <time>2022-04-20T12:14:16Z</time>
      </trkpt>
      <trkpt lat="49.96352" lon="2.42174">
        <ele>90.4</ele>
        <time>2022-04-20T12:14:17Z</time>
      </trkpt>
      <trkpt lat="49.96353" lon="2.42173">
        <ele>90.4</ele>
        <time>2022-04-20T12:14:19Z</time>
      </trkpt>
      <trkpt lat="49.96354" lon="2.42173">
        <ele>90.5</ele>
        <time>2022-04-20T12:14:20Z</time>
      </trkpt>
      <trkpt lat="49.96355" lon="2.42173">
        <ele>90.5</ele>
        <time>2022-04-20T12:14:21Z</time>
      </trkpt>
      <trkpt lat="49.96356" lon="2.42172">
        <ele>90.5</ele>
        <time>2022-04-20T12:14:22Z</time>
      </trkpt>
      <trkpt lat="49.96357" lon="2.42172">
        <ele>90.6</ele>
        <time>2022-04-20T12:14:23Z</time>
      </trkpt>
      <trkpt lat="49.96358" lon="2.42171">
        <ele>90.6</ele>
        <time>2022-04-20T12:14:24Z</time>
      </trkpt>
      <trkpt lat="49.96359" lon="2.42171">
        <ele>90.6</ele>
        <time>2022-04-20T12:14:25Z</time>
      </trkpt>
      <trkpt lat="49.9636" lon="2.42171">
        <ele>90.7</ele>
        <time>2022-04-20T12:14:27Z</time>
      </trkpt>
      <trkpt lat="49.9636" lon="2.42171">
        <ele>90.7</ele>
        <time>2022-04-20T12:14:28Z</time>
      </trkpt>
      <trkpt lat="49.96361" lon="2.42172">
        <ele>90.7</ele>
        <time>2022-04-20T12:14:29Z</time>
      </trkpt>
      <trkpt lat="49.96362" lon="2.42171">
        <ele>90.7</ele>
        <time>2022-04-20T12:14:30Z</time>
      </trkpt>
      <trkpt lat="49.96363" lon="2.42171">
        <ele>90.8</ele>
        <time>2022-04-20T12:14:31Z</time>
      </trkpt>
      <trkpt lat="49.96364" lon="2.42171">
        <ele>90.8</ele>
        <time>2022-04-20T12:14:32Z</time>
      </trkpt>
      <trkpt lat="49.96365" lon="2.42171">
        <ele>90.8</ele>
        <time>2022-04-20T12:14:33Z</time>
      </trkpt>
      <trkpt lat="49.96365" lon="2.42172">
        <ele>90.8</ele>
        <time>2022-04-20T12:14:34Z</time>
      </trkpt>
      <trkpt lat="49.96365" lon="2.42172">
        <ele>90.8</ele>
        <time>2022-04-20T12:14:36Z</time>
      </trkpt>
      <trkpt lat="49.96366" lon="2.42172">
        <ele>90.9</ele>
        <time>2022-04-20T12:14:37Z</time>
      </trkpt>
      <trkpt lat="49.96367" lon="2.42171">
        <ele>90.9</ele>
        <time>2022-04-20T12:14:38Z</time>
      </trkpt>
      <trkpt lat="49.96368" lon="2.42171">
        <ele>90.9</ele>
        <time>2022-04-20T12:14:39Z</time>
      </trkpt>
      <trkpt lat="49.9637" lon="2.4217">
        <ele>91</ele>
        <time>2022-04-20T12:14:40Z</time>
      </trkpt>
      <trkpt lat="49.96371" lon="2.4217">
        <ele>91</ele>
        <time>2022-04-20T12:14:41Z</time>
      </trkpt>
      <trkpt lat="49.96372" lon="2.4217">
        <ele>91</ele>
        <time>2022-04-20T12:14:42Z</time>
      </trkpt>
      <trkpt lat="49.96374" lon="2.42169">
        <ele>91.1</ele>
        <time>2022-04-20T12:14:43Z</time>
      </trkpt>
      <trkpt lat="49.96375" lon="2.42169">
        <ele>91.1</ele>
        <time>2022-04-20T12:14:44Z</time>
      </trkpt>
      <trkpt lat="49.96376" lon="2.42169">
        <ele>91.1</ele>
        <time>2022-04-20T12:14:45Z</time>
      </trkpt>
      <trkpt lat="49.96378" lon="2.42168">
        <ele>91.1</ele>
        <time>2022-04-20T12:14:47Z</time>
      </trkpt>
      <trkpt lat="49.96379" lon="2.42168">
        <ele>91.2</ele>
        <time>2022-04-20T12:14:48Z</time>
      </trkpt>
      <trkpt lat="49.9638" lon="2.42168">
        <ele>91.2</ele>
        <time>2022-04-20T12:14:49Z</time>
      </trkpt>
      <trkpt lat="49.96382" lon="2.42168">
        <ele>91.2</ele>
        <time>2022-04-20T12:14:50Z</time>
      </trkpt>
      <trkpt lat="49.96382" lon="2.42168">
        <ele>91.2</ele>
        <time>2022-04-20T12:14:51Z</time>
      </trkpt>
      <trkpt lat="49.96383" lon="2.42168">
        <ele>91.2</ele>
        <time>2022-04-20T12:14:52Z</time>
      </trkpt>
      <trkpt lat="49.96384" lon="2.42168">
        <ele>91.2</ele>
        <time>2022-04-20T12:14:53Z</time>
      </trkpt>
      <trkpt lat="49.96386" lon="2.42168">
        <ele>91.2</ele>
        <time>2022-04-20T12:14:54Z</time>
      </trkpt>
      <trkpt lat="49.96387" lon="2.42167">
        <ele>91.3</ele>
        <time>2022-04-20T12:14:55Z</time>
      </trkpt>
      <trkpt lat="49.96389" lon="2.42167">
        <ele>91.3</ele>
        <time>2022-04-20T12:14:57Z</time>
      </trkpt>
      <trkpt lat="49.9639" lon="2.42167">
        <ele>91.3</ele>
        <time>2022-04-20T12:14:58Z</time>
      </trkpt>
      <trkpt lat="49.96391" lon="2.42167">
        <ele>91.3</ele>
        <time>2022-04-20T12:14:59Z</time>
      </trkpt>
      <trkpt lat="49.96393" lon="2.42167">
        <ele>91.3</ele>
        <time>2022-04-20T12:15:00Z</time>
      </trkpt>
      <trkpt lat="49.96394" lon="2.42167">
        <ele>91.3</ele>
        <time>2022-04-20T12:15:01Z</time>
      </trkpt>
      <trkpt lat="49.96394" lon="2.42167">
        <ele>91.3</ele>
        <time>2022-04-20T12:15:02Z</time>
      </trkpt>
      <trkpt lat="49.96397" lon="2.42166">
        <ele>91.4</ele>
        <time>2022-04-20T12:15:03Z</time>
      </trkpt>
      <trkpt lat="49.96397" lon="2.42166">
        <ele>91.4</ele>
        <time>2022-04-20T12:15:04Z</time>
      </trkpt>
      <trkpt lat="49.96398" lon="2.42166">
        <ele>91.4</ele>
        <time>2022-04-20T12:15:05Z</time>
      </trkpt>
      <trkpt lat="49.964" lon="2.42166">
        <ele>91.4</ele>
        <time>2022-04-20T12:15:06Z</time>
      </trkpt>
      <trkpt lat="49.96401" lon="2.42166">
        <ele>91.4</ele>
        <time>2022-04-20T12:15:08Z</time>
      </trkpt>
      <trkpt lat="49.96402" lon="2.42166">
        <ele>91.4</ele>
        <time>2022-04-20T12:15:09Z</time>
      </trkpt>
      <trkpt lat="49.96404" lon="2.42165">
        <ele>91.4</ele>
        <time>2022-04-20T12:15:10Z</time>
      </trkpt>
      <trkpt lat="49.96405" lon="2.42165">
        <ele>91.4</ele>
        <time>2022-04-20T12:15:11Z</time>
      </trkpt>
      <trkpt lat="49.96405" lon="2.42164">
        <ele>91.4</ele>
        <time>2022-04-20T12:15:12Z</time>
      </trkpt>
      <trkpt lat="49.96406" lon="2.42163">
        <ele>91.4</ele>
        <time>2022-04-20T12:15:13Z</time>
      </trkpt>
      <trkpt lat="49.96407" lon="2.42162">
        <ele>91.4</ele>
        <time>2022-04-20T12:15:14Z</time>
      </trkpt>
      <trkpt lat="49.96409" lon="2.42162">
        <ele>91.4</ele>
        <time>2022-04-20T12:15:15Z</time>
      </trkpt>
      <trkpt lat="49.9641" lon="2.42161">
        <ele>91.3</ele>
        <time>2022-04-20T12:15:16Z</time>
      </trkpt>
      <trkpt lat="49.96411" lon="2.42161">
        <ele>91.3</ele>
        <time>2022-04-20T12:15:17Z</time>
      </trkpt>
      <trkpt lat="49.96413" lon="2.42161">
        <ele>91.3</ele>
        <time>2022-04-20T12:15:19Z</time>
      </trkpt>
      <trkpt lat="49.96414" lon="2.4216">
        <ele>91.3</ele>
        <time>2022-04-20T12:15:20Z</time>
      </trkpt>
      <trkpt lat="49.96416" lon="2.4216">
        <ele>91.3</ele>
        <time>2022-04-20T12:15:21Z</time>
      </trkpt>
      <trkpt lat="49.96418" lon="2.4216">
        <ele>91.2</ele>
        <time>2022-04-20T12:15:22Z</time>
      </trkpt>
      <trkpt lat="49.96419" lon="2.42159">
        <ele>91.2</ele>
        <time>2022-04-20T12:15:23Z</time>
      </trkpt>
      <trkpt lat="49.96419" lon="2.42159">
        <ele>91.2</ele>
        <time>2022-04-20T12:15:24Z</time>
      </trkpt>
      <trkpt lat="49.96422" lon="2.42159">
        <ele>91.1</ele>
        <time>2022-04-20T12:15:26Z</time>
      </trkpt>
      <trkpt lat="49.96423" lon="2.42159">
        <ele>91.1</ele>
        <time>2022-04-20T12:15:27Z</time>
      </trkpt>
      <trkpt lat="49.96423" lon="2.42158">
        <ele>91</ele>
        <time>2022-04-20T12:15:28Z</time>
      </trkpt>
      <trkpt lat="49.96425" lon="2.42158">
        <ele>91</ele>
        <time>2022-04-20T12:15:29Z</time>
      </trkpt>
      <trkpt lat="49.96426" lon="2.42158">
        <ele>91</ele>
        <time>2022-04-20T12:15:30Z</time>
      </trkpt>
      <trkpt lat="49.96427" lon="2.42158">
        <ele>90.9</ele>
        <time>2022-04-20T12:15:31Z</time>
      </trkpt>
      <trkpt lat="49.96428" lon="2.42158">
        <ele>90.9</ele>
        <time>2022-04-20T12:15:32Z</time>
      </trkpt>
      <trkpt lat="49.96429" lon="2.42158">
        <ele>90.9</ele>
        <time>2022-04-20T12:15:33Z</time>
      </trkpt>
      <trkpt lat="49.96431" lon="2.42158">
        <ele>90.8</ele>
        <time>2022-04-20T12:15:34Z</time>
      </trkpt>
      <trkpt lat="49.96432" lon="2.42158">
        <ele>90.8</ele>
        <time>2022-04-20T12:15:35Z</time>
      </trkpt>
      <trkpt lat="49.96434" lon="2.42158">
        <ele>90.7</ele>
        <time>2022-04-20T12:15:36Z</time>
      </trkpt>
      <trkpt lat="49.96435" lon="2.42158">
        <ele>90.7</ele>
        <time>2022-04-20T12:15:38Z</time>
      </trkpt>
      <trkpt lat="49.96436" lon="2.42158">
        <ele>90.7</ele>
        <time>2022-04-20T12:15:39Z</time>
      </trkpt>
      <trkpt lat="49.96438" lon="2.42157">
        <ele>90.6</ele>
        <time>2022-04-20T12:15:40Z</time>
      </trkpt>
      <trkpt lat="49.9644" lon="2.42156">
        <ele>90.6</ele>
        <time>2022-04-20T12:15:41Z</time>
      </trkpt>
      <trkpt lat="49.96441" lon="2.42156">
        <ele>90.5</ele>
        <time>2022-04-20T12:15:42Z</time>
      </trkpt>
      <trkpt lat="49.96442" lon="2.42155">
        <ele>90.5</ele>
        <time>2022-04-20T12:15:43Z</time>
      </trkpt>
      <trkpt lat="49.96444" lon="2.42155">
        <ele>90.5</ele>
        <time>2022-04-20T12:15:44Z</time>
      </trkpt>
      <trkpt lat="49.96445" lon="2.42155">
        <ele>90.4</ele>
        <time>2022-04-20T12:15:45Z</time>
      </trkpt>
      <trkpt lat="49.96445" lon="2.42154">
        <ele>90.4</ele>
        <time>2022-04-20T12:15:46Z</time>
      </trkpt>
      <trkpt lat="49.96447" lon="2.42154">
        <ele>90.4</ele>
        <time>2022-04-20T12:15:47Z</time>
      </trkpt>
      <trkpt lat="49.96448" lon="2.42154">
        <ele>90.3</ele>
        <time>2022-04-20T12:15:48Z</time>
      </trkpt>
      <trkpt lat="49.96449" lon="2.42154">
        <ele>90.3</ele>
        <time>2022-04-20T12:15:50Z</time>
      </trkpt>
      <trkpt lat="49.96451" lon="2.42154">
        <ele>90.2</ele>
        <time>2022-04-20T12:15:51Z</time>
      </trkpt>
      <trkpt lat="49.96452" lon="2.42154">
        <ele>90.2</ele>
        <time>2022-04-20T12:15:52Z</time>
      </trkpt>
      <trkpt lat="49.96453" lon="2.42154">
        <ele>90.2</ele>
        <time>2022-04-20T12:15:53Z</time>
      </trkpt>
      <trkpt lat="49.96454" lon="2.42153">
        <ele>90.2</ele>
        <time>2022-04-20T12:15:54Z</time>
      </trkpt>
      <trkpt lat="49.96455" lon="2.42153">
        <ele>90.2</ele>
        <time>2022-04-20T12:15:55Z</time>
      </trkpt>
      <trkpt lat="49.96457" lon="2.42153">
        <ele>90.1</ele>
        <time>2022-04-20T12:15:57Z</time>
      </trkpt>
      <trkpt lat="49.96458" lon="2.42152">
        <ele>90.1</ele>
        <time>2022-04-20T12:15:58Z</time>
      </trkpt>
      <trkpt lat="49.96459" lon="2.42152">
        <ele>90.1</ele>
        <time>2022-04-20T12:15:59Z</time>
      </trkpt>
      <trkpt lat="49.9646" lon="2.42152">
        <ele>90</ele>
        <time>2022-04-20T12:16:00Z</time>
      </trkpt>
      <trkpt lat="49.96461" lon="2.42151">
        <ele>90</ele>
        <time>2022-04-20T12:16:01Z</time>
      </trkpt>
      <trkpt lat="49.96462" lon="2.42151">
        <ele>90</ele>
        <time>2022-04-20T12:16:02Z</time>
      </trkpt>
      <trkpt lat="49.96464" lon="2.42151">
        <ele>89.9</ele>
        <time>2022-04-20T12:16:03Z</time>
      </trkpt>
      <trkpt lat="49.96466" lon="2.4215">
        <ele>89.9</ele>
        <time>2022-04-20T12:16:04Z</time>
      </trkpt>
      <trkpt lat="49.96467" lon="2.4215">
        <ele>89.9</ele>
        <time>2022-04-20T12:16:05Z</time>
      </trkpt>
      <trkpt lat="49.96468" lon="2.4215">
        <ele>89.8</ele>
        <time>2022-04-20T12:16:06Z</time>
      </trkpt>
      <trkpt lat="49.9647" lon="2.42149">
        <ele>89.8</ele>
        <time>2022-04-20T12:16:07Z</time>
      </trkpt>
      <trkpt lat="49.9647" lon="2.42149">
        <ele>89.8</ele>
        <time>2022-04-20T12:16:09Z</time>
      </trkpt>
      <trkpt lat="49.96471" lon="2.42149">
        <ele>89.8</ele>
        <time>2022-04-20T12:16:10Z</time>
      </trkpt>
      <trkpt lat="49.96473" lon="2.42148">
        <ele>89.7</ele>
        <time>2022-04-20T12:16:11Z</time>
      </trkpt>
      <trkpt lat="49.96474" lon="2.42148">
        <ele>89.7</ele>
        <time>2022-04-20T12:16:12Z</time>
      </trkpt>
      <trkpt lat="49.96475" lon="2.42148">
        <ele>89.7</ele>
        <time>2022-04-20T12:16:13Z</time>
      </trkpt>
      <trkpt lat="49.96476" lon="2.42147">
        <ele>89.6</ele>
        <time>2022-04-20T12:16:14Z</time>
      </trkpt>
      <trkpt lat="49.96478" lon="2.42147">
        <ele>89.6</ele>
        <time>2022-04-20T12:16:16Z</time>
      </trkpt>
      <trkpt lat="49.96479" lon="2.42146">
        <ele>89.6</ele>
        <time>2022-04-20T12:16:17Z</time>
      </trkpt>
      <trkpt lat="49.9648" lon="2.42146">
        <ele>89.5</ele>
        <time>2022-04-20T12:16:18Z</time>
      </trkpt>
      <trkpt lat="49.96481" lon="2.42146">
        <ele>89.5</ele>
        <time>2022-04-20T12:16:19Z</time>
      </trkpt>
      <trkpt lat="49.96482" lon="2.42145">
        <ele>89.5</ele>
        <time>2022-04-20T12:16:20Z</time>
      </trkpt>
      <trkpt lat="49.96483" lon="2.42145">
        <ele>89.5</ele>
        <time>2022-04-20T12:16:21Z</time>
      </trkpt>
      <trkpt lat="49.96484" lon="2.42145">
        <ele>89.4</ele>
        <time>2022-04-20T12:16:22Z</time>
      </trkpt>
      <trkpt lat="49.96486" lon="2.42145">
        <ele>89.4</ele>
        <time>2022-04-20T12:16:23Z</time>
      </trkpt>
      <trkpt lat="49.96487" lon="2.42145">
        <ele>89.3</ele>
        <time>2022-04-20T12:16:24Z</time>
      </trkpt>
      <trkpt lat="49.96488" lon="2.42145">
        <ele>89.3</ele>
        <time>2022-04-20T12:16:25Z</time>
      </trkpt>
      <trkpt lat="49.96489" lon="2.42145">
        <ele>89.2</ele>
        <time>2022-04-20T12:16:26Z</time>
      </trkpt>
      <trkpt lat="49.96491" lon="2.42145">
        <ele>89.2</ele>
        <time>2022-04-20T12:16:27Z</time>
      </trkpt>
      <trkpt lat="49.96492" lon="2.42145">
        <ele>89.1</ele>
        <time>2022-04-20T12:16:29Z</time>
      </trkpt>
      <trkpt lat="49.96493" lon="2.42144">
        <ele>89.1</ele>
        <time>2022-04-20T12:16:30Z</time>
      </trkpt>
      <trkpt lat="49.96494" lon="2.42144">
        <ele>89</ele>
        <time>2022-04-20T12:16:31Z</time>
      </trkpt>
      <trkpt lat="49.96496" lon="2.42144">
        <ele>89</ele>
        <time>2022-04-20T12:16:32Z</time>
      </trkpt>
      <trkpt lat="49.96497" lon="2.42144">
        <ele>88.9</ele>
        <time>2022-04-20T12:16:33Z</time>
      </trkpt>
      <trkpt lat="49.96498" lon="2.42144">
        <ele>88.9</ele>
        <time>2022-04-20T12:16:34Z</time>
      </trkpt>
      <trkpt lat="49.965" lon="2.42144">
        <ele>88.8</ele>
        <time>2022-04-20T12:16:35Z</time>
      </trkpt>
      <trkpt lat="49.96501" lon="2.42144">
        <ele>88.8</ele>
        <time>2022-04-20T12:16:36Z</time>
      </trkpt>
      <trkpt lat="49.96502" lon="2.42144">
        <ele>88.7</ele>
        <time>2022-04-20T12:16:37Z</time>
      </trkpt>
      <trkpt lat="49.96503" lon="2.42144">
        <ele>88.7</ele>
        <time>2022-04-20T12:16:38Z</time>
      </trkpt>
      <trkpt lat="49.96504" lon="2.42143">
        <ele>88.6</ele>
        <time>2022-04-20T12:16:39Z</time>
      </trkpt>
      <trkpt lat="49.96505" lon="2.42143">
        <ele>88.6</ele>
        <time>2022-04-20T12:16:40Z</time>
      </trkpt>
      <trkpt lat="49.96506" lon="2.42143">
        <ele>88.6</ele>
        <time>2022-04-20T12:16:41Z</time>
      </trkpt>
      <trkpt lat="49.96508" lon="2.42143">
        <ele>88.5</ele>
        <time>2022-04-20T12:16:43Z</time>
      </trkpt>
      <trkpt lat="49.96509" lon="2.42142">
        <ele>88.5</ele>
        <time>2022-04-20T12:16:44Z</time>
      </trkpt>
      <trkpt lat="49.96511" lon="2.42142">
        <ele>88.4</ele>
        <time>2022-04-20T12:16:45Z</time>
      </trkpt>
      <trkpt lat="49.96511" lon="2.42141">
        <ele>88.3</ele>
        <time>2022-04-20T12:16:46Z</time>
      </trkpt>
      <trkpt lat="49.96512" lon="2.42141">
        <ele>88.3</ele>
        <time>2022-04-20T12:16:47Z</time>
      </trkpt>
      <trkpt lat="49.96514" lon="2.4214">
        <ele>88.2</ele>
        <time>2022-04-20T12:16:49Z</time>
      </trkpt>
      <trkpt lat="49.96515" lon="2.4214">
        <ele>88.2</ele>
        <time>2022-04-20T12:16:50Z</time>
      </trkpt>
      <trkpt lat="49.96516" lon="2.4214">
        <ele>88.2</ele>
        <time>2022-04-20T12:16:51Z</time>
      </trkpt>
      <trkpt lat="49.96517" lon="2.42139">
        <ele>88.1</ele>
        <time>2022-04-20T12:16:52Z</time>
      </trkpt>
      <trkpt lat="49.96518" lon="2.42139">
        <ele>88.1</ele>
        <time>2022-04-20T12:16:53Z</time>
      </trkpt>
      <trkpt lat="49.96519" lon="2.42139">
        <ele>88</ele>
        <time>2022-04-20T12:16:54Z</time>
      </trkpt>
      <trkpt lat="49.9652" lon="2.42138">
        <ele>88</ele>
        <time>2022-04-20T12:16:55Z</time>
      </trkpt>
      <trkpt lat="49.96522" lon="2.42138">
        <ele>87.9</ele>
        <time>2022-04-20T12:16:57Z</time>
      </trkpt>
      <trkpt lat="49.96524" lon="2.42138">
        <ele>87.9</ele>
        <time>2022-04-20T12:16:58Z</time>
      </trkpt>
      <trkpt lat="49.96525" lon="2.42137">
        <ele>87.9</ele>
        <time>2022-04-20T12:16:59Z</time>
      </trkpt>
      <trkpt lat="49.96527" lon="2.42137">
        <ele>87.8</ele>
        <time>2022-04-20T12:17:00Z</time>
      </trkpt>
      <trkpt lat="49.96528" lon="2.42137">
        <ele>87.8</ele>
        <time>2022-04-20T12:17:01Z</time>
      </trkpt>
      <trkpt lat="49.96529" lon="2.42136">
        <ele>87.7</ele>
        <time>2022-04-20T12:17:02Z</time>
      </trkpt>
      <trkpt lat="49.9653" lon="2.42136">
        <ele>87.7</ele>
        <time>2022-04-20T12:17:03Z</time>
      </trkpt>
      <trkpt lat="49.96532" lon="2.42136">
        <ele>87.7</ele>
        <time>2022-04-20T12:17:04Z</time>
      </trkpt>
      <trkpt lat="49.96533" lon="2.42136">
        <ele>87.6</ele>
        <time>2022-04-20T12:17:05Z</time>
      </trkpt>
      <trkpt lat="49.96534" lon="2.42135">
        <ele>87.6</ele>
        <time>2022-04-20T12:17:06Z</time>
      </trkpt>
      <trkpt lat="49.96536" lon="2.42135">
        <ele>87.6</ele>
        <time>2022-04-20T12:17:08Z</time>
      </trkpt>
      <trkpt lat="49.96537" lon="2.42135">
        <ele>87.5</ele>
        <time>2022-04-20T12:17:09Z</time>
      </trkpt>
      <trkpt lat="49.96538" lon="2.42134">
        <ele>87.5</ele>
        <time>2022-04-20T12:17:10Z</time>
      </trkpt>
      <trkpt lat="49.9654" lon="2.42134">
        <ele>87.5</ele>
        <time>2022-04-20T12:17:11Z</time>
      </trkpt>
      <trkpt lat="49.96541" lon="2.42133">
        <ele>87.4</ele>
        <time>2022-04-20T12:17:12Z</time>
      </trkpt>
      <trkpt lat="49.96543" lon="2.42132">
        <ele>87.4</ele>
        <time>2022-04-20T12:17:14Z</time>
      </trkpt>
      <trkpt lat="49.96544" lon="2.42132">
        <ele>87.4</ele>
        <time>2022-04-20T12:17:15Z</time>
      </trkpt>
      <trkpt lat="49.96545" lon="2.42131">
        <ele>87.3</ele>
        <time>2022-04-20T12:17:16Z</time>
      </trkpt>
      <trkpt lat="49.96547" lon="2.42131">
        <ele>87.3</ele>
        <time>2022-04-20T12:17:17Z</time>
      </trkpt>
      <trkpt lat="49.96548" lon="2.4213">
        <ele>87.2</ele>
        <time>2022-04-20T12:17:18Z</time>
      </trkpt>
      <trkpt lat="49.9655" lon="2.42129">
        <ele>87.2</ele>
        <time>2022-04-20T12:17:19Z</time>
      </trkpt>
      <trkpt lat="49.96551" lon="2.42129">
        <ele>87.2</ele>
        <time>2022-04-20T12:17:20Z</time>
      </trkpt>
      <trkpt lat="49.96552" lon="2.42129">
        <ele>87.2</ele>
        <time>2022-04-20T12:17:21Z</time>
      </trkpt>
      <trkpt lat="49.96553" lon="2.42128">
        <ele>87.1</ele>
        <time>2022-04-20T12:17:22Z</time>
      </trkpt>
      <trkpt lat="49.96555" lon="2.42128">
        <ele>87.1</ele>
        <time>2022-04-20T12:17:23Z</time>
      </trkpt>
      <trkpt lat="49.96556" lon="2.42127">
        <ele>87</ele>
        <time>2022-04-20T12:17:24Z</time>
      </trkpt>
      <trkpt lat="49.96557" lon="2.42127">
        <ele>87</ele>
        <time>2022-04-20T12:17:25Z</time>
      </trkpt>
      <trkpt lat="49.96558" lon="2.42126">
        <ele>87</ele>
        <time>2022-04-20T12:17:27Z</time>
      </trkpt>
      <trkpt lat="49.9656" lon="2.42125">
        <ele>86.9</ele>
        <time>2022-04-20T12:17:28Z</time>
      </trkpt>
      <trkpt lat="49.96561" lon="2.42124">
        <ele>86.9</ele>
        <time>2022-04-20T12:17:29Z</time>
      </trkpt>
      <trkpt lat="49.96562" lon="2.42124">
        <ele>86.8</ele>
        <time>2022-04-20T12:17:30Z</time>
      </trkpt>
      <trkpt lat="49.96564" lon="2.42122">
        <ele>86.8</ele>
        <time>2022-04-20T12:17:31Z</time>
      </trkpt>
      <trkpt lat="49.96565" lon="2.42122">
        <ele>86.7</ele>
        <time>2022-04-20T12:17:32Z</time>
      </trkpt>
      <trkpt lat="49.96565" lon="2.42121">
        <ele>86.7</ele>
        <time>2022-04-20T12:17:33Z</time>
      </trkpt>
      <trkpt lat="49.96567" lon="2.42121">
        <ele>86.6</ele>
        <time>2022-04-20T12:17:34Z</time>
      </trkpt>
      <trkpt lat="49.96568" lon="2.4212">
        <ele>86.6</ele>
        <time>2022-04-20T12:17:35Z</time>
      </trkpt>
      <trkpt lat="49.96569" lon="2.4212">
        <ele>86.6</ele>
        <time>2022-04-20T12:17:36Z</time>
      </trkpt>
      <trkpt lat="49.96571" lon="2.4212">
        <ele>86.5</ele>
        <time>2022-04-20T12:17:37Z</time>
      </trkpt>
      <trkpt lat="49.96572" lon="2.42119">
        <ele>86.4</ele>
        <time>2022-04-20T12:17:39Z</time>
      </trkpt>
      <trkpt lat="49.96573" lon="2.42119">
        <ele>86.4</ele>
        <time>2022-04-20T12:17:40Z</time>
      </trkpt>
      <trkpt lat="49.96575" lon="2.42118">
        <ele>86.3</ele>
        <time>2022-04-20T12:17:41Z</time>
      </trkpt>
      <trkpt lat="49.96577" lon="2.42118">
        <ele>86.2</ele>
        <time>2022-04-20T12:17:42Z</time>
      </trkpt>
      <trkpt lat="49.96578" lon="2.42118">
        <ele>86.2</ele>
        <time>2022-04-20T12:17:44Z</time>
      </trkpt>
      <trkpt lat="49.96579" lon="2.42118">
        <ele>86.1</ele>
        <time>2022-04-20T12:17:45Z</time>
      </trkpt>
      <trkpt lat="49.96579" lon="2.4212">
        <ele>86.1</ele>
        <time>2022-04-20T12:17:46Z</time>
      </trkpt>
      <trkpt lat="49.9658" lon="2.4212">
        <ele>86</ele>
        <time>2022-04-20T12:17:47Z</time>
      </trkpt>
      <trkpt lat="49.96581" lon="2.42121">
        <ele>85.9</ele>
        <time>2022-04-20T12:17:48Z</time>
      </trkpt>
      <trkpt lat="49.96584" lon="2.42122">
        <ele>85.8</ele>
        <time>2022-04-20T12:17:49Z</time>
      </trkpt>
      <trkpt lat="49.96585" lon="2.42122">
        <ele>85.8</ele>
        <time>2022-04-20T12:17:50Z</time>
      </trkpt>
      <trkpt lat="49.96585" lon="2.42123">
        <ele>85.7</ele>
        <time>2022-04-20T12:17:51Z</time>
      </trkpt>
      <trkpt lat="49.96587" lon="2.42124">
        <ele>85.6</ele>
        <time>2022-04-20T12:17:53Z</time>
      </trkpt>
      <trkpt lat="49.96588" lon="2.42125">
        <ele>85.5</ele>
        <time>2022-04-20T12:17:54Z</time>
      </trkpt>
      <trkpt lat="49.96589" lon="2.42128">
        <ele>85.4</ele>
        <time>2022-04-20T12:17:55Z</time>
      </trkpt>
      <trkpt lat="49.96589" lon="2.42129">
        <ele>85.3</ele>
        <time>2022-04-20T12:17:56Z</time>
      </trkpt>
      <trkpt lat="49.9659" lon="2.4213">
        <ele>85.3</ele>
        <time>2022-04-20T12:17:57Z</time>
      </trkpt>
      <trkpt lat="49.9659" lon="2.42132">
        <ele>85.2</ele>
        <time>2022-04-20T12:17:58Z</time>
      </trkpt>
      <trkpt lat="49.96591" lon="2.42134">
        <ele>85.1</ele>
        <time>2022-04-20T12:17:59Z</time>
      </trkpt>
      <trkpt lat="49.96591" lon="2.42136">
        <ele>85</ele>
        <time>2022-04-20T12:18:00Z</time>
      </trkpt>
      <trkpt lat="49.96592" lon="2.42138">
        <ele>84.9</ele>
        <time>2022-04-20T12:18:01Z</time>
      </trkpt>
      <trkpt lat="49.96593" lon="2.42141">
        <ele>84.8</ele>
        <time>2022-04-20T12:18:03Z</time>
      </trkpt>
      <trkpt lat="49.96593" lon="2.42142">
        <ele>84.7</ele>
        <time>2022-04-20T12:18:04Z</time>
      </trkpt>
      <trkpt lat="49.96594" lon="2.42143">
        <ele>84.6</ele>
        <time>2022-04-20T12:18:05Z</time>
      </trkpt>
      <trkpt lat="49.96594" lon="2.42144">
        <ele>84.6</ele>
        <time>2022-04-20T12:18:06Z</time>
      </trkpt>
      <trkpt lat="49.96594" lon="2.42146">
        <ele>84.5</ele>
        <time>2022-04-20T12:18:07Z</time>
      </trkpt>
      <trkpt lat="49.96594" lon="2.42148">
        <ele>84.4</ele>
        <time>2022-04-20T12:18:08Z</time>
      </trkpt>
      <trkpt lat="49.96594" lon="2.42149">
        <ele>84.3</ele>
        <time>2022-04-20T12:18:09Z</time>
      </trkpt>
      <trkpt lat="49.96594" lon="2.42151">
        <ele>84.3</ele>
        <time>2022-04-20T12:18:11Z</time>
      </trkpt>
      <trkpt lat="49.96594" lon="2.42153">
        <ele>84.2</ele>
        <time>2022-04-20T12:18:12Z</time>
      </trkpt>
      <trkpt lat="49.96594" lon="2.42155">
        <ele>84.1</ele>
        <time>2022-04-20T12:18:13Z</time>
      </trkpt>
      <trkpt lat="49.96594" lon="2.42156">
        <ele>84</ele>
        <time>2022-04-20T12:18:14Z</time>
      </trkpt>
      <trkpt lat="49.96594" lon="2.42158">
        <ele>83.9</ele>
        <time>2022-04-20T12:18:15Z</time>
      </trkpt>
      <trkpt lat="49.96594" lon="2.4216">
        <ele>83.9</ele>
        <time>2022-04-20T12:18:16Z</time>
      </trkpt>
      <trkpt lat="49.96595" lon="2.42162">
        <ele>83.8</ele>
        <time>2022-04-20T12:18:17Z</time>
      </trkpt>
      <trkpt lat="49.96595" lon="2.42164">
        <ele>83.7</ele>
        <time>2022-04-20T12:18:18Z</time>
      </trkpt>
      <trkpt lat="49.96595" lon="2.42166">
        <ele>83.6</ele>
        <time>2022-04-20T12:18:19Z</time>
      </trkpt>
      <trkpt lat="49.96595" lon="2.42168">
        <ele>83.5</ele>
        <time>2022-04-20T12:18:20Z</time>
      </trkpt>
      <trkpt lat="49.96595" lon="2.42171">
        <ele>83.4</ele>
        <time>2022-04-20T12:18:21Z</time>
      </trkpt>
      <trkpt lat="49.96595" lon="2.42173">
        <ele>83.4</ele>
        <time>2022-04-20T12:18:23Z</time>
      </trkpt>
      <trkpt lat="49.96595" lon="2.42174">
        <ele>83.3</ele>
        <time>2022-04-20T12:18:24Z</time>
      </trkpt>
      <trkpt lat="49.96596" lon="2.42176">
        <ele>83.1</ele>
        <time>2022-04-20T12:18:25Z</time>
      </trkpt>
      <trkpt lat="49.96596" lon="2.42178">
        <ele>83</ele>
        <time>2022-04-20T12:18:26Z</time>
      </trkpt>
      <trkpt lat="49.96596" lon="2.42179">
        <ele>82.9</ele>
        <time>2022-04-20T12:18:27Z</time>
      </trkpt>
      <trkpt lat="49.96596" lon="2.42181">
        <ele>82.8</ele>
        <time>2022-04-20T12:18:28Z</time>
      </trkpt>
      <trkpt lat="49.96596" lon="2.42183">
        <ele>82.6</ele>
        <time>2022-04-20T12:18:29Z</time>
      </trkpt>
      <trkpt lat="49.96596" lon="2.42185">
        <ele>82.5</ele>
        <time>2022-04-20T12:18:30Z</time>
      </trkpt>
      <trkpt lat="49.96596" lon="2.42187">
        <ele>82.4</ele>
        <time>2022-04-20T12:18:31Z</time>
      </trkpt>
      <trkpt lat="49.96596" lon="2.42188">
        <ele>82.3</ele>
        <time>2022-04-20T12:18:32Z</time>
      </trkpt>
      <trkpt lat="49.96596" lon="2.4219">
        <ele>82.2</ele>
        <time>2022-04-20T12:18:34Z</time>
      </trkpt>
      <trkpt lat="49.96596" lon="2.42192">
        <ele>82.1</ele>
        <time>2022-04-20T12:18:35Z</time>
      </trkpt>
      <trkpt lat="49.96597" lon="2.42193">
        <ele>81.9</ele>
        <time>2022-04-20T12:18:36Z</time>
      </trkpt>
      <trkpt lat="49.96597" lon="2.42195">
        <ele>81.8</ele>
        <time>2022-04-20T12:18:37Z</time>
      </trkpt>
      <trkpt lat="49.96597" lon="2.42198">
        <ele>81.6</ele>
        <time>2022-04-20T12:18:38Z</time>
      </trkpt>
      <trkpt lat="49.96598" lon="2.422">
        <ele>81.5</ele>
        <time>2022-04-20T12:18:39Z</time>
      </trkpt>
      <trkpt lat="49.96598" lon="2.42201">
        <ele>81.4</ele>
        <time>2022-04-20T12:18:40Z</time>
      </trkpt>
      <trkpt lat="49.96598" lon="2.42203">
        <ele>81.3</ele>
        <time>2022-04-20T12:18:41Z</time>
      </trkpt>
      <trkpt lat="49.96598" lon="2.42205">
        <ele>81.2</ele>
        <time>2022-04-20T12:18:43Z</time>
      </trkpt>
      <trkpt lat="49.96598" lon="2.42207">
        <ele>81.1</ele>
        <time>2022-04-20T12:18:44Z</time>
      </trkpt>
      <trkpt lat="49.96598" lon="2.42209">
        <ele>81</ele>
        <time>2022-04-20T12:18:45Z</time>
      </trkpt>
      <trkpt lat="49.96598" lon="2.4221">
        <ele>80.8</ele>
        <time>2022-04-20T12:18:46Z</time>
      </trkpt>
      <trkpt lat="49.96598" lon="2.42214">
        <ele>80.6</ele>
        <time>2022-04-20T12:18:47Z</time>
      </trkpt>
      <trkpt lat="49.96598" lon="2.42215">
        <ele>80.6</ele>
        <time>2022-04-20T12:18:48Z</time>
      </trkpt>
      <trkpt lat="49.96599" lon="2.42216">
        <ele>80.5</ele>
        <time>2022-04-20T12:18:49Z</time>
      </trkpt>
      <trkpt lat="49.96599" lon="2.42219">
        <ele>80.3</ele>
        <time>2022-04-20T12:18:51Z</time>
      </trkpt>
      <trkpt lat="49.96599" lon="2.42221">
        <ele>80.2</ele>
        <time>2022-04-20T12:18:52Z</time>
      </trkpt>
      <trkpt lat="49.966" lon="2.42223">
        <ele>80.1</ele>
        <time>2022-04-20T12:18:53Z</time>
      </trkpt>
      <trkpt lat="49.966" lon="2.42225">
        <ele>79.9</ele>
        <time>2022-04-20T12:18:54Z</time>
      </trkpt>
      <trkpt lat="49.966" lon="2.42228">
        <ele>79.7</ele>
        <time>2022-04-20T12:18:55Z</time>
      </trkpt>
      <trkpt lat="49.96601" lon="2.4223">
        <ele>79.7</ele>
        <time>2022-04-20T12:18:56Z</time>
      </trkpt>
      <trkpt lat="49.96601" lon="2.42231">
        <ele>79.6</ele>
        <time>2022-04-20T12:18:57Z</time>
      </trkpt>
      <trkpt lat="49.96601" lon="2.42232">
        <ele>79.5</ele>
        <time>2022-04-20T12:18:58Z</time>
      </trkpt>
      <trkpt lat="49.96601" lon="2.42234">
        <ele>79.4</ele>
        <time>2022-04-20T12:18:59Z</time>
      </trkpt>
      <trkpt lat="49.96602" lon="2.42236">
        <ele>79.3</ele>
        <time>2022-04-20T12:19:00Z</time>
      </trkpt>
      <trkpt lat="49.96602" lon="2.42239">
        <ele>79.1</ele>
        <time>2022-04-20T12:19:02Z</time>
      </trkpt>
      <trkpt lat="49.96602" lon="2.4224">
        <ele>79</ele>
        <time>2022-04-20T12:19:03Z</time>
      </trkpt>
      <trkpt lat="49.96602" lon="2.42241">
        <ele>78.9</ele>
        <time>2022-04-20T12:19:04Z</time>
      </trkpt>
      <trkpt lat="49.96602" lon="2.42243">
        <ele>78.8</ele>
        <time>2022-04-20T12:19:05Z</time>
      </trkpt>
      <trkpt lat="49.96603" lon="2.42245">
        <ele>78.7</ele>
        <time>2022-04-20T12:19:06Z</time>
      </trkpt>
      <trkpt lat="49.96603" lon="2.42247">
        <ele>78.6</ele>
        <time>2022-04-20T12:19:07Z</time>
      </trkpt>
      <trkpt lat="49.96603" lon="2.42248">
        <ele>78.5</ele>
        <time>2022-04-20T12:19:08Z</time>
      </trkpt>
      <trkpt lat="49.96603" lon="2.4225">
        <ele>78.4</ele>
        <time>2022-04-20T12:19:09Z</time>
      </trkpt>
      <trkpt lat="49.96604" lon="2.42252">
        <ele>78.3</ele>
        <time>2022-04-20T12:19:10Z</time>
      </trkpt>
      <trkpt lat="49.96604" lon="2.42254">
        <ele>78.2</ele>
        <time>2022-04-20T12:19:11Z</time>
      </trkpt>
      <trkpt lat="49.96604" lon="2.42256">
        <ele>78.1</ele>
        <time>2022-04-20T12:19:13Z</time>
      </trkpt>
      <trkpt lat="49.96604" lon="2.42257">
        <ele>78</ele>
        <time>2022-04-20T12:19:14Z</time>
      </trkpt>
      <trkpt lat="49.96605" lon="2.42259">
        <ele>77.9</ele>
        <time>2022-04-20T12:19:15Z</time>
      </trkpt>
      <trkpt lat="49.96605" lon="2.42261">
        <ele>77.8</ele>
        <time>2022-04-20T12:19:16Z</time>
      </trkpt>
      <trkpt lat="49.96605" lon="2.42262">
        <ele>77.7</ele>
        <time>2022-04-20T12:19:17Z</time>
      </trkpt>
      <trkpt lat="49.96606" lon="2.42265">
        <ele>77.5</ele>
        <time>2022-04-20T12:19:18Z</time>
      </trkpt>
      <trkpt lat="49.96606" lon="2.42267">
        <ele>77.4</ele>
        <time>2022-04-20T12:19:19Z</time>
      </trkpt>
      <trkpt lat="49.96606" lon="2.42268">
        <ele>77.3</ele>
        <time>2022-04-20T12:19:20Z</time>
      </trkpt>
      <trkpt lat="49.96606" lon="2.4227">
        <ele>77.2</ele>
        <time>2022-04-20T12:19:21Z</time>
      </trkpt>
      <trkpt lat="49.96606" lon="2.42272">
        <ele>77.1</ele>
        <time>2022-04-20T12:19:22Z</time>
      </trkpt>
      <trkpt lat="49.96606" lon="2.42275">
        <ele>77</ele>
        <time>2022-04-20T12:19:23Z</time>
      </trkpt>
      <trkpt lat="49.96606" lon="2.42277">
        <ele>76.9</ele>
        <time>2022-04-20T12:19:24Z</time>
      </trkpt>
      <trkpt lat="49.96606" lon="2.42278">
        <ele>76.8</ele>
        <time>2022-04-20T12:19:26Z</time>
      </trkpt>
      <trkpt lat="49.96607" lon="2.42279">
        <ele>76.7</ele>
        <time>2022-04-20T12:19:27Z</time>
      </trkpt>
      <trkpt lat="49.96607" lon="2.42281">
        <ele>76.6</ele>
        <time>2022-04-20T12:19:28Z</time>
      </trkpt>
      <trkpt lat="49.96607" lon="2.42282">
        <ele>76.6</ele>
        <time>2022-04-20T12:19:29Z</time>
      </trkpt>
      <trkpt lat="49.96607" lon="2.42284">
        <ele>76.5</ele>
        <time>2022-04-20T12:19:30Z</time>
      </trkpt>
      <trkpt lat="49.96608" lon="2.42286">
        <ele>76.4</ele>
        <time>2022-04-20T12:19:31Z</time>
      </trkpt>
      <trkpt lat="49.96608" lon="2.42289">
        <ele>76.3</ele>
        <time>2022-04-20T12:19:33Z</time>
      </trkpt>
      <trkpt lat="49.96608" lon="2.42291">
        <ele>76.1</ele>
        <time>2022-04-20T12:19:34Z</time>
      </trkpt>
      <trkpt lat="49.96609" lon="2.42292">
        <ele>76.1</ele>
        <time>2022-04-20T12:19:35Z</time>
      </trkpt>
      <trkpt lat="49.96609" lon="2.42294">
        <ele>76</ele>
        <time>2022-04-20T12:19:37Z</time>
      </trkpt>
      <trkpt lat="49.96609" lon="2.42296">
        <ele>75.9</ele>
        <time>2022-04-20T12:19:38Z</time>
      </trkpt>
      <trkpt lat="49.96609" lon="2.42298">
        <ele>75.8</ele>
        <time>2022-04-20T12:19:39Z</time>
      </trkpt>
      <trkpt lat="49.9661" lon="2.423">
        <ele>75.7</ele>
        <time>2022-04-20T12:19:40Z</time>
      </trkpt>
      <trkpt lat="49.9661" lon="2.42303">
        <ele>75.6</ele>
        <time>2022-04-20T12:19:41Z</time>
      </trkpt>
      <trkpt lat="49.9661" lon="2.42304">
        <ele>75.5</ele>
        <time>2022-04-20T12:19:42Z</time>
      </trkpt>
      <trkpt lat="49.96611" lon="2.42306">
        <ele>75.5</ele>
        <time>2022-04-20T12:19:43Z</time>
      </trkpt>
      <trkpt lat="49.96611" lon="2.42309">
        <ele>75.3</ele>
        <time>2022-04-20T12:19:44Z</time>
      </trkpt>
      <trkpt lat="49.96611" lon="2.4231">
        <ele>75.3</ele>
        <time>2022-04-20T12:19:45Z</time>
      </trkpt>
      <trkpt lat="49.96611" lon="2.42311">
        <ele>75.2</ele>
        <time>2022-04-20T12:19:46Z</time>
      </trkpt>
      <trkpt lat="49.96611" lon="2.42313">
        <ele>75.1</ele>
        <time>2022-04-20T12:19:48Z</time>
      </trkpt>
      <trkpt lat="49.96611" lon="2.42315">
        <ele>75</ele>
        <time>2022-04-20T12:19:49Z</time>
      </trkpt>
      <trkpt lat="49.96612" lon="2.42317">
        <ele>75</ele>
        <time>2022-04-20T12:19:50Z</time>
      </trkpt>
      <trkpt lat="49.96612" lon="2.42319">
        <ele>74.9</ele>
        <time>2022-04-20T12:19:51Z</time>
      </trkpt>
      <trkpt lat="49.96612" lon="2.4232">
        <ele>74.8</ele>
        <time>2022-04-20T12:19:52Z</time>
      </trkpt>
      <trkpt lat="49.96613" lon="2.42322">
        <ele>74.7</ele>
        <time>2022-04-20T12:19:53Z</time>
      </trkpt>
      <trkpt lat="49.96613" lon="2.42326">
        <ele>74.6</ele>
        <time>2022-04-20T12:19:54Z</time>
      </trkpt>
      <trkpt lat="49.96613" lon="2.42327">
        <ele>74.5</ele>
        <time>2022-04-20T12:19:55Z</time>
      </trkpt>
      <trkpt lat="49.96613" lon="2.42328">
        <ele>74.5</ele>
        <time>2022-04-20T12:19:56Z</time>
      </trkpt>
      <trkpt lat="49.96613" lon="2.4233">
        <ele>74.4</ele>
        <time>2022-04-20T12:19:57Z</time>
      </trkpt>
      <trkpt lat="49.96613" lon="2.42331">
        <ele>74.3</ele>
        <time>2022-04-20T12:19:59Z</time>
      </trkpt>
      <trkpt lat="49.96614" lon="2.42333">
        <ele>74.3</ele>
        <time>2022-04-20T12:20:00Z</time>
      </trkpt>
      <trkpt lat="49.96614" lon="2.42335">
        <ele>74.2</ele>
        <time>2022-04-20T12:20:01Z</time>
      </trkpt>
      <trkpt lat="49.96614" lon="2.42337">
        <ele>74.1</ele>
        <time>2022-04-20T12:20:02Z</time>
      </trkpt>
      <trkpt lat="49.96614" lon="2.42338">
        <ele>74</ele>
        <time>2022-04-20T12:20:03Z</time>
      </trkpt>
      <trkpt lat="49.96615" lon="2.42342">
        <ele>73.9</ele>
        <time>2022-04-20T12:20:05Z</time>
      </trkpt>
      <trkpt lat="49.96615" lon="2.42343">
        <ele>73.8</ele>
        <time>2022-04-20T12:20:06Z</time>
      </trkpt>
      <trkpt lat="49.96615" lon="2.42345">
        <ele>73.7</ele>
        <time>2022-04-20T12:20:07Z</time>
      </trkpt>
      <trkpt lat="49.96615" lon="2.42348">
        <ele>73.6</ele>
        <time>2022-04-20T12:20:09Z</time>
      </trkpt>
      <trkpt lat="49.96616" lon="2.4235">
        <ele>73.5</ele>
        <time>2022-04-20T12:20:10Z</time>
      </trkpt>
      <trkpt lat="49.96616" lon="2.42352">
        <ele>73.4</ele>
        <time>2022-04-20T12:20:11Z</time>
      </trkpt>
      <trkpt lat="49.96616" lon="2.42355">
        <ele>73.2</ele>
        <time>2022-04-20T12:20:12Z</time>
      </trkpt>
      <trkpt lat="49.96616" lon="2.42357">
        <ele>73.2</ele>
        <time>2022-04-20T12:20:13Z</time>
      </trkpt>
      <trkpt lat="49.96617" lon="2.42358">
        <ele>73.1</ele>
        <time>2022-04-20T12:20:14Z</time>
      </trkpt>
      <trkpt lat="49.96617" lon="2.42361">
        <ele>73</ele>
        <time>2022-04-20T12:20:15Z</time>
      </trkpt>
      <trkpt lat="49.96617" lon="2.42363">
        <ele>72.9</ele>
        <time>2022-04-20T12:20:16Z</time>
      </trkpt>
      <trkpt lat="49.96617" lon="2.42364">
        <ele>72.9</ele>
        <time>2022-04-20T12:20:17Z</time>
      </trkpt>
      <trkpt lat="49.96617" lon="2.42367">
        <ele>72.7</ele>
        <time>2022-04-20T12:20:19Z</time>
      </trkpt>
      <trkpt lat="49.96618" lon="2.42368">
        <ele>72.6</ele>
        <time>2022-04-20T12:20:20Z</time>
      </trkpt>
      <trkpt lat="49.96618" lon="2.4237">
        <ele>72.6</ele>
        <time>2022-04-20T12:20:21Z</time>
      </trkpt>
      <trkpt lat="49.96618" lon="2.42373">
        <ele>72.4</ele>
        <time>2022-04-20T12:20:22Z</time>
      </trkpt>
      <trkpt lat="49.96619" lon="2.42374">
        <ele>72.3</ele>
        <time>2022-04-20T12:20:23Z</time>
      </trkpt>
      <trkpt lat="49.96619" lon="2.42376">
        <ele>72.3</ele>
        <time>2022-04-20T12:20:24Z</time>
      </trkpt>
      <trkpt lat="49.96619" lon="2.42377">
        <ele>72.2</ele>
        <time>2022-04-20T12:20:25Z</time>
      </trkpt>
      <trkpt lat="49.9662" lon="2.4238">
        <ele>72.1</ele>
        <time>2022-04-20T12:20:27Z</time>
      </trkpt>
      <trkpt lat="49.9662" lon="2.42382">
        <ele>71.9</ele>
        <time>2022-04-20T12:20:28Z</time>
      </trkpt>
      <trkpt lat="49.9662" lon="2.42384">
        <ele>71.8</ele>
        <time>2022-04-20T12:20:29Z</time>
      </trkpt>
      <trkpt lat="49.96621" lon="2.42386">
        <ele>71.7</ele>
        <time>2022-04-20T12:20:30Z</time>
      </trkpt>
      <trkpt lat="49.96621" lon="2.42387">
        <ele>71.6</ele>
        <time>2022-04-20T12:20:31Z</time>
      </trkpt>
      <trkpt lat="49.96621" lon="2.42389">
        <ele>71.5</ele>
        <time>2022-04-20T12:20:32Z</time>
      </trkpt>
      <trkpt lat="49.96621" lon="2.42392">
        <ele>71.4</ele>
        <time>2022-04-20T12:20:33Z</time>
      </trkpt>
      <trkpt lat="49.96622" lon="2.42393">
        <ele>71.3</ele>
        <time>2022-04-20T12:20:34Z</time>
      </trkpt>
      <trkpt lat="49.96622" lon="2.42395">
        <ele>71.2</ele>
        <time>2022-04-20T12:20:35Z</time>
      </trkpt>
      <trkpt lat="49.96622" lon="2.42397">
        <ele>71.1</ele>
        <time>2022-04-20T12:20:36Z</time>
      </trkpt>
      <trkpt lat="49.96623" lon="2.42399">
        <ele>71</ele>
        <time>2022-04-20T12:20:38Z</time>
      </trkpt>
      <trkpt lat="49.96623" lon="2.424">
        <ele>70.9</ele>
        <time>2022-04-20T12:20:39Z</time>
      </trkpt>
      <trkpt lat="49.96623" lon="2.42401">
        <ele>70.8</ele>
        <time>2022-04-20T12:20:40Z</time>
      </trkpt>
      <trkpt lat="49.96623" lon="2.42403">
        <ele>70.8</ele>
        <time>2022-04-20T12:20:41Z</time>
      </trkpt>
      <trkpt lat="49.96624" lon="2.42404">
        <ele>70.7</ele>
        <time>2022-04-20T12:20:42Z</time>
      </trkpt>
      <trkpt lat="49.96624" lon="2.42406">
        <ele>70.6</ele>
        <time>2022-04-20T12:20:43Z</time>
      </trkpt>
      <trkpt lat="49.96624" lon="2.42408">
        <ele>70.5</ele>
        <time>2022-04-20T12:20:44Z</time>
      </trkpt>
      <trkpt lat="49.96624" lon="2.4241">
        <ele>70.4</ele>
        <time>2022-04-20T12:20:45Z</time>
      </trkpt>
      <trkpt lat="49.96625" lon="2.42413">
        <ele>70.3</ele>
        <time>2022-04-20T12:20:46Z</time>
      </trkpt>
      <trkpt lat="49.96625" lon="2.42415">
        <ele>70.2</ele>
        <time>2022-04-20T12:20:48Z</time>
      </trkpt>
      <trkpt lat="49.96625" lon="2.42416">
        <ele>70.1</ele>
        <time>2022-04-20T12:20:49Z</time>
      </trkpt>
      <trkpt lat="49.96625" lon="2.42418">
        <ele>70</ele>
        <time>2022-04-20T12:20:50Z</time>
      </trkpt>
      <trkpt lat="49.96625" lon="2.4242">
        <ele>70</ele>
        <time>2022-04-20T12:20:51Z</time>
      </trkpt>
      <trkpt lat="49.96625" lon="2.42421">
        <ele>69.9</ele>
        <time>2022-04-20T12:20:52Z</time>
      </trkpt>
      <trkpt lat="49.96625" lon="2.42422">
        <ele>69.9</ele>
        <time>2022-04-20T12:20:53Z</time>
      </trkpt>
      <trkpt lat="49.96625" lon="2.42424">
        <ele>69.8</ele>
        <time>2022-04-20T12:20:54Z</time>
      </trkpt>
      <trkpt lat="49.96625" lon="2.42426">
        <ele>69.7</ele>
        <time>2022-04-20T12:20:55Z</time>
      </trkpt>
      <trkpt lat="49.96625" lon="2.42429">
        <ele>69.6</ele>
        <time>2022-04-20T12:20:56Z</time>
      </trkpt>
      <trkpt lat="49.96626" lon="2.42431">
        <ele>69.5</ele>
        <time>2022-04-20T12:20:58Z</time>
      </trkpt>
      <trkpt lat="49.96626" lon="2.42432">
        <ele>69.5</ele>
        <time>2022-04-20T12:20:59Z</time>
      </trkpt>
      <trkpt lat="49.96626" lon="2.42434">
        <ele>69.4</ele>
        <time>2022-04-20T12:21:00Z</time>
      </trkpt>
      <trkpt lat="49.96626" lon="2.42435">
        <ele>69.4</ele>
        <time>2022-04-20T12:21:01Z</time>
      </trkpt>
      <trkpt lat="49.96627" lon="2.42437">
        <ele>69.3</ele>
        <time>2022-04-20T12:21:02Z</time>
      </trkpt>
      <trkpt lat="49.96627" lon="2.4244">
        <ele>69.2</ele>
        <time>2022-04-20T12:21:03Z</time>
      </trkpt>
      <trkpt lat="49.96627" lon="2.42441">
        <ele>69.2</ele>
        <time>2022-04-20T12:21:04Z</time>
      </trkpt>
      <trkpt lat="49.96628" lon="2.42443">
        <ele>69.1</ele>
        <time>2022-04-20T12:21:05Z</time>
      </trkpt>
      <trkpt lat="49.96628" lon="2.42445">
        <ele>69.1</ele>
        <time>2022-04-20T12:21:06Z</time>
      </trkpt>
      <trkpt lat="49.96629" lon="2.42448">
        <ele>69</ele>
        <time>2022-04-20T12:21:07Z</time>
      </trkpt>
      <trkpt lat="49.96629" lon="2.42449">
        <ele>69</ele>
        <time>2022-04-20T12:21:09Z</time>
      </trkpt>
      <trkpt lat="49.96629" lon="2.4245">
        <ele>68.9</ele>
        <time>2022-04-20T12:21:10Z</time>
      </trkpt>
      <trkpt lat="49.9663" lon="2.42454">
        <ele>68.9</ele>
        <time>2022-04-20T12:21:11Z</time>
      </trkpt>
      <trkpt lat="49.9663" lon="2.42455">
        <ele>68.8</ele>
        <time>2022-04-20T12:21:12Z</time>
      </trkpt>
      <trkpt lat="49.9663" lon="2.42456">
        <ele>68.8</ele>
        <time>2022-04-20T12:21:13Z</time>
      </trkpt>
      <trkpt lat="49.9663" lon="2.42459">
        <ele>68.7</ele>
        <time>2022-04-20T12:21:14Z</time>
      </trkpt>
      <trkpt lat="49.96631" lon="2.42461">
        <ele>68.7</ele>
        <time>2022-04-20T12:21:15Z</time>
      </trkpt>
      <trkpt lat="49.96631" lon="2.42464">
        <ele>68.6</ele>
        <time>2022-04-20T12:21:16Z</time>
      </trkpt>
      <trkpt lat="49.96631" lon="2.42465">
        <ele>68.6</ele>
        <time>2022-04-20T12:21:17Z</time>
      </trkpt>
      <trkpt lat="49.96631" lon="2.42466">
        <ele>68.6</ele>
        <time>2022-04-20T12:21:18Z</time>
      </trkpt>
      <trkpt lat="49.96631" lon="2.42468">
        <ele>68.5</ele>
        <time>2022-04-20T12:21:19Z</time>
      </trkpt>
      <trkpt lat="49.96631" lon="2.4247">
        <ele>68.5</ele>
        <time>2022-04-20T12:21:21Z</time>
      </trkpt>
      <trkpt lat="49.96631" lon="2.42472">
        <ele>68.4</ele>
        <time>2022-04-20T12:21:22Z</time>
      </trkpt>
      <trkpt lat="49.9663" lon="2.42473">
        <ele>68.4</ele>
        <time>2022-04-20T12:21:23Z</time>
      </trkpt>
      <trkpt lat="49.9663" lon="2.42475">
        <ele>68.4</ele>
        <time>2022-04-20T12:21:24Z</time>
      </trkpt>
      <trkpt lat="49.9663" lon="2.42477">
        <ele>68.3</ele>
        <time>2022-04-20T12:21:25Z</time>
      </trkpt>
      <trkpt lat="49.96631" lon="2.4248">
        <ele>68.3</ele>
        <time>2022-04-20T12:21:26Z</time>
      </trkpt>
      <trkpt lat="49.96631" lon="2.42481">
        <ele>68.2</ele>
        <time>2022-04-20T12:21:27Z</time>
      </trkpt>
      <trkpt lat="49.96631" lon="2.42483">
        <ele>68.2</ele>
        <time>2022-04-20T12:21:28Z</time>
      </trkpt>
      <trkpt lat="49.96632" lon="2.42486">
        <ele>68.1</ele>
        <time>2022-04-20T12:21:29Z</time>
      </trkpt>
      <trkpt lat="49.96632" lon="2.42487">
        <ele>68.1</ele>
        <time>2022-04-20T12:21:30Z</time>
      </trkpt>
      <trkpt lat="49.96632" lon="2.42489">
        <ele>68.1</ele>
        <time>2022-04-20T12:21:31Z</time>
      </trkpt>
      <trkpt lat="49.96632" lon="2.4249">
        <ele>68</ele>
        <time>2022-04-20T12:21:33Z</time>
      </trkpt>
      <trkpt lat="49.96632" lon="2.42492">
        <ele>68</ele>
        <time>2022-04-20T12:21:34Z</time>
      </trkpt>
      <trkpt lat="49.96632" lon="2.42493">
        <ele>68</ele>
        <time>2022-04-20T12:21:35Z</time>
      </trkpt>
      <trkpt lat="49.96633" lon="2.42495">
        <ele>67.9</ele>
        <time>2022-04-20T12:21:36Z</time>
      </trkpt>
      <trkpt lat="49.96633" lon="2.42497">
        <ele>67.9</ele>
        <time>2022-04-20T12:21:37Z</time>
      </trkpt>
      <trkpt lat="49.96633" lon="2.42498">
        <ele>67.9</ele>
        <time>2022-04-20T12:21:38Z</time>
      </trkpt>
      <trkpt lat="49.96633" lon="2.425">
        <ele>67.8</ele>
        <time>2022-04-20T12:21:39Z</time>
      </trkpt>
      <trkpt lat="49.96633" lon="2.42501">
        <ele>67.8</ele>
        <time>2022-04-20T12:21:40Z</time>
      </trkpt>
      <trkpt lat="49.96633" lon="2.42503">
        <ele>67.8</ele>
        <time>2022-04-20T12:21:41Z</time>
      </trkpt>
      <trkpt lat="49.96634" lon="2.42504">
        <ele>67.7</ele>
        <time>2022-04-20T12:21:42Z</time>
      </trkpt>
      <trkpt lat="49.96634" lon="2.42506">
        <ele>67.7</ele>
        <time>2022-04-20T12:21:43Z</time>
      </trkpt>
      <trkpt lat="49.96634" lon="2.42508">
        <ele>67.6</ele>
        <time>2022-04-20T12:21:44Z</time>
      </trkpt>
      <trkpt lat="49.96634" lon="2.42512">
        <ele>67.5</ele>
        <time>2022-04-20T12:21:45Z</time>
      </trkpt>
      <trkpt lat="49.96634" lon="2.42513">
        <ele>67.5</ele>
        <time>2022-04-20T12:21:47Z</time>
      </trkpt>
      <trkpt lat="49.96635" lon="2.42515">
        <ele>67.5</ele>
        <time>2022-04-20T12:21:48Z</time>
      </trkpt>
      <trkpt lat="49.96635" lon="2.42517">
        <ele>67.4</ele>
        <time>2022-04-20T12:21:49Z</time>
      </trkpt>
      <trkpt lat="49.96635" lon="2.42518">
        <ele>67.4</ele>
        <time>2022-04-20T12:21:50Z</time>
      </trkpt>
      <trkpt lat="49.96635" lon="2.42522">
        <ele>67.3</ele>
        <time>2022-04-20T12:21:51Z</time>
      </trkpt>
      <trkpt lat="49.96635" lon="2.42523">
        <ele>67.2</ele>
        <time>2022-04-20T12:21:52Z</time>
      </trkpt>
      <trkpt lat="49.96635" lon="2.42525">
        <ele>67.2</ele>
        <time>2022-04-20T12:21:54Z</time>
      </trkpt>
      <trkpt lat="49.96636" lon="2.42527">
        <ele>67.1</ele>
        <time>2022-04-20T12:21:55Z</time>
      </trkpt>
      <trkpt lat="49.96636" lon="2.42528">
        <ele>67.1</ele>
        <time>2022-04-20T12:21:56Z</time>
      </trkpt>
      <trkpt lat="49.96636" lon="2.4253">
        <ele>67</ele>
        <time>2022-04-20T12:21:57Z</time>
      </trkpt>
      <trkpt lat="49.96636" lon="2.42532">
        <ele>67</ele>
        <time>2022-04-20T12:21:58Z</time>
      </trkpt>
      <trkpt lat="49.96636" lon="2.42534">
        <ele>66.9</ele>
        <time>2022-04-20T12:21:59Z</time>
      </trkpt>
      <trkpt lat="49.96637" lon="2.42536">
        <ele>66.8</ele>
        <time>2022-04-20T12:22:00Z</time>
      </trkpt>
      <trkpt lat="49.96637" lon="2.42538">
        <ele>66.7</ele>
        <time>2022-04-20T12:22:01Z</time>
      </trkpt>
      <trkpt lat="49.96637" lon="2.4254">
        <ele>66.6</ele>
        <time>2022-04-20T12:22:02Z</time>
      </trkpt>
      <trkpt lat="49.96637" lon="2.42543">
        <ele>66.6</ele>
        <time>2022-04-20T12:22:03Z</time>
      </trkpt>
      <trkpt lat="49.96638" lon="2.42546">
        <ele>66.4</ele>
        <time>2022-04-20T12:22:05Z</time>
      </trkpt>
      <trkpt lat="49.96638" lon="2.42547">
        <ele>66.4</ele>
        <time>2022-04-20T12:22:06Z</time>
      </trkpt>
      <trkpt lat="49.96638" lon="2.42549">
        <ele>66.3</ele>
        <time>2022-04-20T12:22:07Z</time>
      </trkpt>
      <trkpt lat="49.96639" lon="2.42552">
        <ele>66.2</ele>
        <time>2022-04-20T12:22:08Z</time>
      </trkpt>
      <trkpt lat="49.96639" lon="2.42553">
        <ele>66.2</ele>
        <time>2022-04-20T12:22:09Z</time>
      </trkpt>
      <trkpt lat="49.96639" lon="2.42555">
        <ele>66.1</ele>
        <time>2022-04-20T12:22:10Z</time>
      </trkpt>
      <trkpt lat="49.96639" lon="2.42557">
        <ele>66</ele>
        <time>2022-04-20T12:22:11Z</time>
      </trkpt>
      <trkpt lat="49.96639" lon="2.42559">
        <ele>65.9</ele>
        <time>2022-04-20T12:22:13Z</time>
      </trkpt>
      <trkpt lat="49.96639" lon="2.42561">
        <ele>65.9</ele>
        <time>2022-04-20T12:22:14Z</time>
      </trkpt>
      <trkpt lat="49.96639" lon="2.42563">
        <ele>65.8</ele>
        <time>2022-04-20T12:22:15Z</time>
      </trkpt>
      <trkpt lat="49.96639" lon="2.42565">
        <ele>65.7</ele>
        <time>2022-04-20T12:22:16Z</time>
      </trkpt>
      <trkpt lat="49.9664" lon="2.42568">
        <ele>65.6</ele>
        <time>2022-04-20T12:22:17Z</time>
      </trkpt>
      <trkpt lat="49.9664" lon="2.42569">
        <ele>65.5</ele>
        <time>2022-04-20T12:22:18Z</time>
      </trkpt>
      <trkpt lat="49.9664" lon="2.4257">
        <ele>65.5</ele>
        <time>2022-04-20T12:22:19Z</time>
      </trkpt>
      <trkpt lat="49.9664" lon="2.42572">
        <ele>65.4</ele>
        <time>2022-04-20T12:22:20Z</time>
      </trkpt>
      <trkpt lat="49.96641" lon="2.42574">
        <ele>65.3</ele>
        <time>2022-04-20T12:22:21Z</time>
      </trkpt>
      <trkpt lat="49.96641" lon="2.42576">
        <ele>65.2</ele>
        <time>2022-04-20T12:22:22Z</time>
      </trkpt>
      <trkpt lat="49.96641" lon="2.42579">
        <ele>65.1</ele>
        <time>2022-04-20T12:22:24Z</time>
      </trkpt>
      <trkpt lat="49.96641" lon="2.4258">
        <ele>65.1</ele>
        <time>2022-04-20T12:22:25Z</time>
      </trkpt>
      <trkpt lat="49.96641" lon="2.42581">
        <ele>65</ele>
        <time>2022-04-20T12:22:26Z</time>
      </trkpt>
      <trkpt lat="49.96641" lon="2.42583">
        <ele>64.9</ele>
        <time>2022-04-20T12:22:27Z</time>
      </trkpt>
      <trkpt lat="49.96641" lon="2.42585">
        <ele>64.8</ele>
        <time>2022-04-20T12:22:28Z</time>
      </trkpt>
      <trkpt lat="49.96642" lon="2.42587">
        <ele>64.8</ele>
        <time>2022-04-20T12:22:29Z</time>
      </trkpt>
      <trkpt lat="49.96642" lon="2.4259">
        <ele>64.6</ele>
        <time>2022-04-20T12:22:30Z</time>
      </trkpt>
      <trkpt lat="49.96642" lon="2.42591">
        <ele>64.6</ele>
        <time>2022-04-20T12:22:31Z</time>
      </trkpt>
      <trkpt lat="49.96642" lon="2.42593">
        <ele>64.5</ele>
        <time>2022-04-20T12:22:32Z</time>
      </trkpt>
      <trkpt lat="49.96643" lon="2.42595">
        <ele>64.4</ele>
        <time>2022-04-20T12:22:33Z</time>
      </trkpt>
      <trkpt lat="49.96643" lon="2.42597">
        <ele>64.3</ele>
        <time>2022-04-20T12:22:34Z</time>
      </trkpt>
      <trkpt lat="49.96644" lon="2.42599">
        <ele>64.2</ele>
        <time>2022-04-20T12:22:35Z</time>
      </trkpt>
      <trkpt lat="49.96644" lon="2.42601">
        <ele>64.1</ele>
        <time>2022-04-20T12:22:37Z</time>
      </trkpt>
      <trkpt lat="49.96645" lon="2.42603">
        <ele>64</ele>
        <time>2022-04-20T12:22:38Z</time>
      </trkpt>
      <trkpt lat="49.96645" lon="2.42605">
        <ele>64</ele>
        <time>2022-04-20T12:22:39Z</time>
      </trkpt>
      <trkpt lat="49.96645" lon="2.42607">
        <ele>63.9</ele>
        <time>2022-04-20T12:22:40Z</time>
      </trkpt>
      <trkpt lat="49.96645" lon="2.42608">
        <ele>63.8</ele>
        <time>2022-04-20T12:22:41Z</time>
      </trkpt>
      <trkpt lat="49.96646" lon="2.4261">
        <ele>63.7</ele>
        <time>2022-04-20T12:22:42Z</time>
      </trkpt>
      <trkpt lat="49.96647" lon="2.42613">
        <ele>63.6</ele>
        <time>2022-04-20T12:22:43Z</time>
      </trkpt>
      <trkpt lat="49.96647" lon="2.42615">
        <ele>63.5</ele>
        <time>2022-04-20T12:22:45Z</time>
      </trkpt>
      <trkpt lat="49.96648" lon="2.42616">
        <ele>63.5</ele>
        <time>2022-04-20T12:22:46Z</time>
      </trkpt>
      <trkpt lat="49.96648" lon="2.42618">
        <ele>63.4</ele>
        <time>2022-04-20T12:22:47Z</time>
      </trkpt>
      <trkpt lat="49.96648" lon="2.42619">
        <ele>63.3</ele>
        <time>2022-04-20T12:22:48Z</time>
      </trkpt>
      <trkpt lat="49.96649" lon="2.42621">
        <ele>63.3</ele>
        <time>2022-04-20T12:22:49Z</time>
      </trkpt>
      <trkpt lat="49.96649" lon="2.42623">
        <ele>63.2</ele>
        <time>2022-04-20T12:22:50Z</time>
      </trkpt>
      <trkpt lat="49.9665" lon="2.42625">
        <ele>63.1</ele>
        <time>2022-04-20T12:22:51Z</time>
      </trkpt>
      <trkpt lat="49.9665" lon="2.42627">
        <ele>63</ele>
        <time>2022-04-20T12:22:52Z</time>
      </trkpt>
      <trkpt lat="49.9665" lon="2.42629">
        <ele>62.9</ele>
        <time>2022-04-20T12:22:53Z</time>
      </trkpt>
      <trkpt lat="49.9665" lon="2.42632">
        <ele>62.8</ele>
        <time>2022-04-20T12:22:55Z</time>
      </trkpt>
      <trkpt lat="49.96651" lon="2.42633">
        <ele>62.8</ele>
        <time>2022-04-20T12:22:56Z</time>
      </trkpt>
      <trkpt lat="49.96651" lon="2.42634">
        <ele>62.7</ele>
        <time>2022-04-20T12:22:57Z</time>
      </trkpt>
      <trkpt lat="49.96651" lon="2.42636">
        <ele>62.7</ele>
        <time>2022-04-20T12:22:58Z</time>
      </trkpt>
      <trkpt lat="49.96651" lon="2.42637">
        <ele>62.6</ele>
        <time>2022-04-20T12:22:59Z</time>
      </trkpt>
      <trkpt lat="49.96652" lon="2.42639">
        <ele>62.5</ele>
        <time>2022-04-20T12:23:00Z</time>
      </trkpt>
      <trkpt lat="49.96652" lon="2.42641">
        <ele>62.5</ele>
        <time>2022-04-20T12:23:01Z</time>
      </trkpt>
      <trkpt lat="49.96652" lon="2.42643">
        <ele>62.4</ele>
        <time>2022-04-20T12:23:02Z</time>
      </trkpt>
      <trkpt lat="49.96652" lon="2.42644">
        <ele>62.3</ele>
        <time>2022-04-20T12:23:03Z</time>
      </trkpt>
      <trkpt lat="49.96652" lon="2.42646">
        <ele>62.2</ele>
        <time>2022-04-20T12:23:04Z</time>
      </trkpt>
      <trkpt lat="49.96653" lon="2.42648">
        <ele>62.2</ele>
        <time>2022-04-20T12:23:06Z</time>
      </trkpt>
      <trkpt lat="49.96653" lon="2.4265">
        <ele>62.1</ele>
        <time>2022-04-20T12:23:07Z</time>
      </trkpt>
      <trkpt lat="49.96653" lon="2.42653">
        <ele>62</ele>
        <time>2022-04-20T12:23:08Z</time>
      </trkpt>
      <trkpt lat="49.96653" lon="2.42654">
        <ele>61.9</ele>
        <time>2022-04-20T12:23:09Z</time>
      </trkpt>
      <trkpt lat="49.96653" lon="2.42655">
        <ele>61.8</ele>
        <time>2022-04-20T12:23:10Z</time>
      </trkpt>
      <trkpt lat="49.96654" lon="2.42658">
        <ele>61.8</ele>
        <time>2022-04-20T12:23:11Z</time>
      </trkpt>
      <trkpt lat="49.96654" lon="2.4266">
        <ele>61.6</ele>
        <time>2022-04-20T12:23:13Z</time>
      </trkpt>
      <trkpt lat="49.96654" lon="2.42662">
        <ele>61.6</ele>
        <time>2022-04-20T12:23:14Z</time>
      </trkpt>
      <trkpt lat="49.96654" lon="2.42664">
        <ele>61.5</ele>
        <time>2022-04-20T12:23:15Z</time>
      </trkpt>
      <trkpt lat="49.96654" lon="2.42666">
        <ele>61.4</ele>
        <time>2022-04-20T12:23:16Z</time>
      </trkpt>
      <trkpt lat="49.96654" lon="2.42668">
        <ele>61.3</ele>
        <time>2022-04-20T12:23:17Z</time>
      </trkpt>
      <trkpt lat="49.96655" lon="2.4267">
        <ele>61.2</ele>
        <time>2022-04-20T12:23:18Z</time>
      </trkpt>
      <trkpt lat="49.96655" lon="2.42673">
        <ele>61.1</ele>
        <time>2022-04-20T12:23:19Z</time>
      </trkpt>
      <trkpt lat="49.96655" lon="2.42675">
        <ele>61</ele>
        <time>2022-04-20T12:23:20Z</time>
      </trkpt>
      <trkpt lat="49.96655" lon="2.42676">
        <ele>61</ele>
        <time>2022-04-20T12:23:21Z</time>
      </trkpt>
      <trkpt lat="49.96656" lon="2.42678">
        <ele>60.9</ele>
        <time>2022-04-20T12:23:22Z</time>
      </trkpt>
      <trkpt lat="49.96656" lon="2.4268">
        <ele>60.8</ele>
        <time>2022-04-20T12:23:24Z</time>
      </trkpt>
      <trkpt lat="49.96656" lon="2.42681">
        <ele>60.7</ele>
        <time>2022-04-20T12:23:25Z</time>
      </trkpt>
      <trkpt lat="49.96656" lon="2.42683">
        <ele>60.7</ele>
        <time>2022-04-20T12:23:26Z</time>
      </trkpt>
      <trkpt lat="49.96656" lon="2.42685">
        <ele>60.6</ele>
        <time>2022-04-20T12:23:27Z</time>
      </trkpt>
      <trkpt lat="49.96656" lon="2.42687">
        <ele>60.5</ele>
        <time>2022-04-20T12:23:29Z</time>
      </trkpt>
      <trkpt lat="49.96657" lon="2.4269">
        <ele>60.3</ele>
        <time>2022-04-20T12:23:30Z</time>
      </trkpt>
      <trkpt lat="49.96657" lon="2.42691">
        <ele>60.3</ele>
        <time>2022-04-20T12:23:31Z</time>
      </trkpt>
      <trkpt lat="49.96657" lon="2.42693">
        <ele>60.2</ele>
        <time>2022-04-20T12:23:32Z</time>
      </trkpt>
      <trkpt lat="49.96657" lon="2.42696">
        <ele>60.1</ele>
        <time>2022-04-20T12:23:33Z</time>
      </trkpt>
      <trkpt lat="49.96657" lon="2.42697">
        <ele>60</ele>
        <time>2022-04-20T12:23:34Z</time>
      </trkpt>
      <trkpt lat="49.96658" lon="2.42699">
        <ele>59.9</ele>
        <time>2022-04-20T12:23:35Z</time>
      </trkpt>
      <trkpt lat="49.96658" lon="2.42702">
        <ele>59.8</ele>
        <time>2022-04-20T12:23:36Z</time>
      </trkpt>
      <trkpt lat="49.96658" lon="2.42703">
        <ele>59.7</ele>
        <time>2022-04-20T12:23:37Z</time>
      </trkpt>
      <trkpt lat="49.96658" lon="2.42704">
        <ele>59.6</ele>
        <time>2022-04-20T12:23:38Z</time>
      </trkpt>
      <trkpt lat="49.96659" lon="2.42706">
        <ele>59.6</ele>
        <time>2022-04-20T12:23:39Z</time>
      </trkpt>
      <trkpt lat="49.96659" lon="2.42707">
        <ele>59.5</ele>
        <time>2022-04-20T12:23:41Z</time>
      </trkpt>
      <trkpt lat="49.96659" lon="2.42709">
        <ele>59.4</ele>
        <time>2022-04-20T12:23:42Z</time>
      </trkpt>
      <trkpt lat="49.96659" lon="2.42713">
        <ele>59.2</ele>
        <time>2022-04-20T12:23:43Z</time>
      </trkpt>
      <trkpt lat="49.9666" lon="2.42714">
        <ele>59.2</ele>
        <time>2022-04-20T12:23:44Z</time>
      </trkpt>
      <trkpt lat="49.9666" lon="2.42715">
        <ele>59.1</ele>
        <time>2022-04-20T12:23:45Z</time>
      </trkpt>
      <trkpt lat="49.9666" lon="2.42718">
        <ele>58.9</ele>
        <time>2022-04-20T12:23:46Z</time>
      </trkpt>
      <trkpt lat="49.9666" lon="2.4272">
        <ele>58.9</ele>
        <time>2022-04-20T12:23:47Z</time>
      </trkpt>
      <trkpt lat="49.9666" lon="2.42721">
        <ele>58.8</ele>
        <time>2022-04-20T12:23:48Z</time>
      </trkpt>
      <trkpt lat="49.96661" lon="2.42724">
        <ele>58.7</ele>
        <time>2022-04-20T12:23:50Z</time>
      </trkpt>
      <trkpt lat="49.96661" lon="2.42726">
        <ele>58.6</ele>
        <time>2022-04-20T12:23:51Z</time>
      </trkpt>
      <trkpt lat="49.96661" lon="2.42729">
        <ele>58.4</ele>
        <time>2022-04-20T12:23:52Z</time>
      </trkpt>
      <trkpt lat="49.96661" lon="2.4273">
        <ele>58.4</ele>
        <time>2022-04-20T12:23:53Z</time>
      </trkpt>
      <trkpt lat="49.96661" lon="2.42732">
        <ele>58.3</ele>
        <time>2022-04-20T12:23:54Z</time>
      </trkpt>
      <trkpt lat="49.96661" lon="2.42734">
        <ele>58.2</ele>
        <time>2022-04-20T12:23:56Z</time>
      </trkpt>
      <trkpt lat="49.96662" lon="2.42736">
        <ele>58.1</ele>
        <time>2022-04-20T12:23:57Z</time>
      </trkpt>
      <trkpt lat="49.96662" lon="2.42738">
        <ele>58</ele>
        <time>2022-04-20T12:23:58Z</time>
      </trkpt>
      <trkpt lat="49.96662" lon="2.4274">
        <ele>57.9</ele>
        <time>2022-04-20T12:23:59Z</time>
      </trkpt>
      <trkpt lat="49.96662" lon="2.42744">
        <ele>57.8</ele>
        <time>2022-04-20T12:24:00Z</time>
      </trkpt>
      <trkpt lat="49.96662" lon="2.42745">
        <ele>57.7</ele>
        <time>2022-04-20T12:24:01Z</time>
      </trkpt>
      <trkpt lat="49.96662" lon="2.42746">
        <ele>57.6</ele>
        <time>2022-04-20T12:24:02Z</time>
      </trkpt>
      <trkpt lat="49.96662" lon="2.42748">
        <ele>57.5</ele>
        <time>2022-04-20T12:24:03Z</time>
      </trkpt>
      <trkpt lat="49.96663" lon="2.4275">
        <ele>57.4</ele>
        <time>2022-04-20T12:24:05Z</time>
      </trkpt>
      <trkpt lat="49.96663" lon="2.42752">
        <ele>57.3</ele>
        <time>2022-04-20T12:24:06Z</time>
      </trkpt>
      <trkpt lat="49.96663" lon="2.42754">
        <ele>57.3</ele>
        <time>2022-04-20T12:24:07Z</time>
      </trkpt>
      <trkpt lat="49.96664" lon="2.42756">
        <ele>57.2</ele>
        <time>2022-04-20T12:24:08Z</time>
      </trkpt>
      <trkpt lat="49.96664" lon="2.42759">
        <ele>57</ele>
        <time>2022-04-20T12:24:09Z</time>
      </trkpt>
      <trkpt lat="49.96664" lon="2.4276">
        <ele>56.9</ele>
        <time>2022-04-20T12:24:10Z</time>
      </trkpt>
      <trkpt lat="49.96665" lon="2.42762">
        <ele>56.8</ele>
        <time>2022-04-20T12:24:11Z</time>
      </trkpt>
      <trkpt lat="49.96665" lon="2.42764">
        <ele>56.7</ele>
        <time>2022-04-20T12:24:12Z</time>
      </trkpt>
      <trkpt lat="49.96665" lon="2.42765">
        <ele>56.7</ele>
        <time>2022-04-20T12:24:13Z</time>
      </trkpt>
      <trkpt lat="49.96665" lon="2.42767">
        <ele>56.6</ele>
        <time>2022-04-20T12:24:14Z</time>
      </trkpt>
      <trkpt lat="49.96666" lon="2.4277">
        <ele>56.4</ele>
        <time>2022-04-20T12:24:15Z</time>
      </trkpt>
      <trkpt lat="49.96666" lon="2.42772">
        <ele>56.3</ele>
        <time>2022-04-20T12:24:17Z</time>
      </trkpt>
      <trkpt lat="49.96666" lon="2.42773">
        <ele>56.3</ele>
        <time>2022-04-20T12:24:18Z</time>
      </trkpt>
      <trkpt lat="49.96667" lon="2.42775">
        <ele>56.2</ele>
        <time>2022-04-20T12:24:19Z</time>
      </trkpt>
      <trkpt lat="49.96667" lon="2.42777">
        <ele>56.1</ele>
        <time>2022-04-20T12:24:20Z</time>
      </trkpt>
      <trkpt lat="49.96667" lon="2.42778">
        <ele>56</ele>
        <time>2022-04-20T12:24:21Z</time>
      </trkpt>
      <trkpt lat="49.96668" lon="2.42781">
        <ele>55.9</ele>
        <time>2022-04-20T12:24:22Z</time>
      </trkpt>
      <trkpt lat="49.96668" lon="2.42782">
        <ele>55.8</ele>
        <time>2022-04-20T12:24:23Z</time>
      </trkpt>
      <trkpt lat="49.96669" lon="2.42784">
        <ele>55.7</ele>
        <time>2022-04-20T12:24:25Z</time>
      </trkpt>
      <trkpt lat="49.96669" lon="2.42785">
        <ele>55.6</ele>
        <time>2022-04-20T12:24:26Z</time>
      </trkpt>
      <trkpt lat="49.96669" lon="2.42787">
        <ele>55.5</ele>
        <time>2022-04-20T12:24:27Z</time>
      </trkpt>
      <trkpt lat="49.9667" lon="2.42788">
        <ele>55.5</ele>
        <time>2022-04-20T12:24:28Z</time>
      </trkpt>
      <trkpt lat="49.9667" lon="2.4279">
        <ele>55.4</ele>
        <time>2022-04-20T12:24:29Z</time>
      </trkpt>
      <trkpt lat="49.96671" lon="2.42791">
        <ele>55.3</ele>
        <time>2022-04-20T12:24:30Z</time>
      </trkpt>
      <trkpt lat="49.96671" lon="2.42793">
        <ele>55.2</ele>
        <time>2022-04-20T12:24:31Z</time>
      </trkpt>
      <trkpt lat="49.96671" lon="2.42796">
        <ele>55.1</ele>
        <time>2022-04-20T12:24:32Z</time>
      </trkpt>
      <trkpt lat="49.96671" lon="2.42797">
        <ele>55</ele>
        <time>2022-04-20T12:24:33Z</time>
      </trkpt>
      <trkpt lat="49.96671" lon="2.42799">
        <ele>54.9</ele>
        <time>2022-04-20T12:24:34Z</time>
      </trkpt>
      <trkpt lat="49.96672" lon="2.42801">
        <ele>54.8</ele>
        <time>2022-04-20T12:24:35Z</time>
      </trkpt>
      <trkpt lat="49.96671" lon="2.42802">
        <ele>54.8</ele>
        <time>2022-04-20T12:24:36Z</time>
      </trkpt>
      <trkpt lat="49.96671" lon="2.42806">
        <ele>54.6</ele>
        <time>2022-04-20T12:24:38Z</time>
      </trkpt>
      <trkpt lat="49.96671" lon="2.42807">
        <ele>54.6</ele>
        <time>2022-04-20T12:24:39Z</time>
      </trkpt>
      <trkpt lat="49.96671" lon="2.42808">
        <ele>54.5</ele>
        <time>2022-04-20T12:24:40Z</time>
      </trkpt>
      <trkpt lat="49.96671" lon="2.4281">
        <ele>54.4</ele>
        <time>2022-04-20T12:24:41Z</time>
      </trkpt>
      <trkpt lat="49.96671" lon="2.42812">
        <ele>54.4</ele>
        <time>2022-04-20T12:24:42Z</time>
      </trkpt>
      <trkpt lat="49.96671" lon="2.42813">
        <ele>54.3</ele>
        <time>2022-04-20T12:24:43Z</time>
      </trkpt>
      <trkpt lat="49.96671" lon="2.42815">
        <ele>54.2</ele>
        <time>2022-04-20T12:24:44Z</time>
      </trkpt>
      <trkpt lat="49.96672" lon="2.42817">
        <ele>54.2</ele>
        <time>2022-04-20T12:24:45Z</time>
      </trkpt>
      <trkpt lat="49.96672" lon="2.42819">
        <ele>54.1</ele>
        <time>2022-04-20T12:24:46Z</time>
      </trkpt>
      <trkpt lat="49.96672" lon="2.42821">
        <ele>54</ele>
        <time>2022-04-20T12:24:47Z</time>
      </trkpt>
      <trkpt lat="49.96672" lon="2.42823">
        <ele>53.9</ele>
        <time>2022-04-20T12:24:48Z</time>
      </trkpt>
      <trkpt lat="49.96673" lon="2.42824">
        <ele>53.9</ele>
        <time>2022-04-20T12:24:50Z</time>
      </trkpt>
      <trkpt lat="49.96673" lon="2.42827">
        <ele>53.8</ele>
        <time>2022-04-20T12:24:51Z</time>
      </trkpt>
      <trkpt lat="49.96674" lon="2.42829">
        <ele>53.7</ele>
        <time>2022-04-20T12:24:52Z</time>
      </trkpt>
      <trkpt lat="49.96674" lon="2.4283">
        <ele>53.7</ele>
        <time>2022-04-20T12:24:53Z</time>
      </trkpt>
      <trkpt lat="49.96675" lon="2.42833">
        <ele>53.5</ele>
        <time>2022-04-20T12:24:54Z</time>
      </trkpt>
      <trkpt lat="49.96675" lon="2.42834">
        <ele>53.5</ele>
        <time>2022-04-20T12:24:55Z</time>
      </trkpt>
      <trkpt lat="49.96675" lon="2.42836">
        <ele>53.5</ele>
        <time>2022-04-20T12:24:56Z</time>
      </trkpt>
      <trkpt lat="49.96675" lon="2.42838">
        <ele>53.4</ele>
        <time>2022-04-20T12:24:58Z</time>
      </trkpt>
      <trkpt lat="49.96675" lon="2.4284">
        <ele>53.3</ele>
        <time>2022-04-20T12:24:59Z</time>
      </trkpt>
      <trkpt lat="49.96675" lon="2.42842">
        <ele>53.2</ele>
        <time>2022-04-20T12:25:00Z</time>
      </trkpt>
      <trkpt lat="49.96675" lon="2.42844">
        <ele>53.2</ele>
        <time>2022-04-20T12:25:01Z</time>
      </trkpt>
      <trkpt lat="49.96675" lon="2.42845">
        <ele>53.1</ele>
        <time>2022-04-20T12:25:02Z</time>
      </trkpt>
      <trkpt lat="49.96675" lon="2.42848">
        <ele>53</ele>
        <time>2022-04-20T12:25:03Z</time>
      </trkpt>
      <trkpt lat="49.96675" lon="2.4285">
        <ele>53</ele>
        <time>2022-04-20T12:25:04Z</time>
      </trkpt>
      <trkpt lat="49.96675" lon="2.42851">
        <ele>53</ele>
        <time>2022-04-20T12:25:05Z</time>
      </trkpt>
      <trkpt lat="49.96676" lon="2.42853">
        <ele>52.9</ele>
        <time>2022-04-20T12:25:06Z</time>
      </trkpt>
      <trkpt lat="49.96676" lon="2.42855">
        <ele>52.8</ele>
        <time>2022-04-20T12:25:07Z</time>
      </trkpt>
      <trkpt lat="49.96676" lon="2.42857">
        <ele>52.8</ele>
        <time>2022-04-20T12:25:09Z</time>
      </trkpt>
      <trkpt lat="49.96676" lon="2.42859">
        <ele>52.7</ele>
        <time>2022-04-20T12:25:10Z</time>
      </trkpt>
      <trkpt lat="49.96676" lon="2.42862">
        <ele>52.6</ele>
        <time>2022-04-20T12:25:11Z</time>
      </trkpt>
      <trkpt lat="49.96675" lon="2.42864">
        <ele>52.6</ele>
        <time>2022-04-20T12:25:13Z</time>
      </trkpt>
      <trkpt lat="49.96675" lon="2.42866">
        <ele>52.6</ele>
        <time>2022-04-20T12:25:14Z</time>
      </trkpt>
      <trkpt lat="49.96675" lon="2.42867">
        <ele>52.5</ele>
        <time>2022-04-20T12:25:15Z</time>
      </trkpt>
      <trkpt lat="49.96676" lon="2.42869">
        <ele>52.5</ele>
        <time>2022-04-20T12:25:16Z</time>
      </trkpt>
      <trkpt lat="49.96676" lon="2.42871">
        <ele>52.4</ele>
        <time>2022-04-20T12:25:17Z</time>
      </trkpt>
      <trkpt lat="49.96676" lon="2.42874">
        <ele>52.3</ele>
        <time>2022-04-20T12:25:19Z</time>
      </trkpt>
      <trkpt lat="49.96676" lon="2.42876">
        <ele>52.3</ele>
        <time>2022-04-20T12:25:20Z</time>
      </trkpt>
      <trkpt lat="49.96676" lon="2.42878">
        <ele>52.3</ele>
        <time>2022-04-20T12:25:21Z</time>
      </trkpt>
      <trkpt lat="49.96676" lon="2.42881">
        <ele>52.2</ele>
        <time>2022-04-20T12:25:22Z</time>
      </trkpt>
      <trkpt lat="49.96676" lon="2.42883">
        <ele>52.2</ele>
        <time>2022-04-20T12:25:23Z</time>
      </trkpt>
      <trkpt lat="49.96676" lon="2.42886">
        <ele>52.1</ele>
        <time>2022-04-20T12:25:24Z</time>
      </trkpt>
      <trkpt lat="49.96676" lon="2.42888">
        <ele>52.1</ele>
        <time>2022-04-20T12:25:26Z</time>
      </trkpt>
      <trkpt lat="49.96677" lon="2.4289">
        <ele>52</ele>
        <time>2022-04-20T12:25:27Z</time>
      </trkpt>
      <trkpt lat="49.96677" lon="2.42892">
        <ele>52</ele>
        <time>2022-04-20T12:25:28Z</time>
      </trkpt>
      <trkpt lat="49.96677" lon="2.42894">
        <ele>51.9</ele>
        <time>2022-04-20T12:25:29Z</time>
      </trkpt>
      <trkpt lat="49.96677" lon="2.42896">
        <ele>51.9</ele>
        <time>2022-04-20T12:25:30Z</time>
      </trkpt>
      <trkpt lat="49.96677" lon="2.42897">
        <ele>51.9</ele>
        <time>2022-04-20T12:25:31Z</time>
      </trkpt>
      <trkpt lat="49.96678" lon="2.429">
        <ele>51.8</ele>
        <time>2022-04-20T12:25:32Z</time>
      </trkpt>
      <trkpt lat="49.96678" lon="2.42902">
        <ele>51.8</ele>
        <time>2022-04-20T12:25:33Z</time>
      </trkpt>
      <trkpt lat="49.96679" lon="2.42903">
        <ele>51.8</ele>
        <time>2022-04-20T12:25:34Z</time>
      </trkpt>
      <trkpt lat="49.96679" lon="2.42905">
        <ele>51.7</ele>
        <time>2022-04-20T12:25:35Z</time>
      </trkpt>
      <trkpt lat="49.9668" lon="2.42907">
        <ele>51.7</ele>
        <time>2022-04-20T12:25:36Z</time>
      </trkpt>
      <trkpt lat="49.9668" lon="2.42909">
        <ele>51.7</ele>
        <time>2022-04-20T12:25:38Z</time>
      </trkpt>
      <trkpt lat="49.96681" lon="2.4291">
        <ele>51.6</ele>
        <time>2022-04-20T12:25:39Z</time>
      </trkpt>
      <trkpt lat="49.96681" lon="2.42912">
        <ele>51.6</ele>
        <time>2022-04-20T12:25:40Z</time>
      </trkpt>
      <trkpt lat="49.96681" lon="2.42913">
        <ele>51.6</ele>
        <time>2022-04-20T12:25:41Z</time>
      </trkpt>
      <trkpt lat="49.96682" lon="2.42915">
        <ele>51.5</ele>
        <time>2022-04-20T12:25:42Z</time>
      </trkpt>
      <trkpt lat="49.96682" lon="2.42916">
        <ele>51.5</ele>
        <time>2022-04-20T12:25:43Z</time>
      </trkpt>
      <trkpt lat="49.96683" lon="2.42919">
        <ele>51.5</ele>
        <time>2022-04-20T12:25:44Z</time>
      </trkpt>
      <trkpt lat="49.96683" lon="2.42921">
        <ele>51.4</ele>
        <time>2022-04-20T12:25:45Z</time>
      </trkpt>
      <trkpt lat="49.96683" lon="2.42922">
        <ele>51.4</ele>
        <time>2022-04-20T12:25:46Z</time>
      </trkpt>
      <trkpt lat="49.96684" lon="2.42925">
        <ele>51.4</ele>
        <time>2022-04-20T12:25:47Z</time>
      </trkpt>
      <trkpt lat="49.96684" lon="2.42926">
        <ele>51.3</ele>
        <time>2022-04-20T12:25:48Z</time>
      </trkpt>
      <trkpt lat="49.96684" lon="2.42927">
        <ele>51.3</ele>
        <time>2022-04-20T12:25:49Z</time>
      </trkpt>
      <trkpt lat="49.96685" lon="2.4293">
        <ele>51.3</ele>
        <time>2022-04-20T12:25:50Z</time>
      </trkpt>
      <trkpt lat="49.96685" lon="2.42932">
        <ele>51.2</ele>
        <time>2022-04-20T12:25:52Z</time>
      </trkpt>
      <trkpt lat="49.96685" lon="2.42933">
        <ele>51.2</ele>
        <time>2022-04-20T12:25:53Z</time>
      </trkpt>
      <trkpt lat="49.96685" lon="2.42935">
        <ele>51.2</ele>
        <time>2022-04-20T12:25:54Z</time>
      </trkpt>
      <trkpt lat="49.96685" lon="2.42937">
        <ele>51.1</ele>
        <time>2022-04-20T12:25:55Z</time>
      </trkpt>
      <trkpt lat="49.96686" lon="2.42938">
        <ele>51.1</ele>
        <time>2022-04-20T12:25:56Z</time>
      </trkpt>
      <trkpt lat="49.96686" lon="2.42941">
        <ele>51.1</ele>
        <time>2022-04-20T12:25:57Z</time>
      </trkpt>
      <trkpt lat="49.96686" lon="2.42942">
        <ele>51.1</ele>
        <time>2022-04-20T12:25:58Z</time>
      </trkpt>
      <trkpt lat="49.96687" lon="2.42943">
        <ele>51</ele>
        <time>2022-04-20T12:25:59Z</time>
      </trkpt>
      <trkpt lat="49.96687" lon="2.42947">
        <ele>51</ele>
        <time>2022-04-20T12:26:01Z</time>
      </trkpt>
      <trkpt lat="49.96688" lon="2.42948">
        <ele>51</ele>
        <time>2022-04-20T12:26:02Z</time>
      </trkpt>
      <trkpt lat="49.96688" lon="2.42949">
        <ele>51</ele>
        <time>2022-04-20T12:26:03Z</time>
      </trkpt>
      <trkpt lat="49.96689" lon="2.4295">
        <ele>51</ele>
        <time>2022-04-20T12:26:04Z</time>
      </trkpt>
      <trkpt lat="49.96689" lon="2.42953">
        <ele>50.9</ele>
        <time>2022-04-20T12:26:05Z</time>
      </trkpt>
      <trkpt lat="49.9669" lon="2.42955">
        <ele>50.9</ele>
        <time>2022-04-20T12:26:06Z</time>
      </trkpt>
      <trkpt lat="49.9669" lon="2.42957">
        <ele>50.9</ele>
        <time>2022-04-20T12:26:07Z</time>
      </trkpt>
      <trkpt lat="49.9669" lon="2.42958">
        <ele>50.9</ele>
        <time>2022-04-20T12:26:08Z</time>
      </trkpt>
      <trkpt lat="49.96691" lon="2.42961">
        <ele>50.8</ele>
        <time>2022-04-20T12:26:10Z</time>
      </trkpt>
      <trkpt lat="49.96691" lon="2.42963">
        <ele>50.8</ele>
        <time>2022-04-20T12:26:11Z</time>
      </trkpt>
      <trkpt lat="49.96691" lon="2.42964">
        <ele>50.8</ele>
        <time>2022-04-20T12:26:12Z</time>
      </trkpt>
      <trkpt lat="49.96692" lon="2.42967">
        <ele>50.8</ele>
        <time>2022-04-20T12:26:13Z</time>
      </trkpt>
      <trkpt lat="49.96692" lon="2.42969">
        <ele>50.8</ele>
        <time>2022-04-20T12:26:14Z</time>
      </trkpt>
      <trkpt lat="49.96692" lon="2.4297">
        <ele>50.7</ele>
        <time>2022-04-20T12:26:15Z</time>
      </trkpt>
      <trkpt lat="49.96693" lon="2.42972">
        <ele>50.7</ele>
        <time>2022-04-20T12:26:16Z</time>
      </trkpt>
      <trkpt lat="49.96694" lon="2.42974">
        <ele>50.7</ele>
        <time>2022-04-20T12:26:17Z</time>
      </trkpt>
      <trkpt lat="49.96694" lon="2.42977">
        <ele>50.7</ele>
        <time>2022-04-20T12:26:18Z</time>
      </trkpt>
      <trkpt lat="49.96695" lon="2.42979">
        <ele>50.6</ele>
        <time>2022-04-20T12:26:19Z</time>
      </trkpt>
      <trkpt lat="49.96695" lon="2.42981">
        <ele>50.6</ele>
        <time>2022-04-20T12:26:20Z</time>
      </trkpt>
      <trkpt lat="49.96696" lon="2.42983">
        <ele>50.6</ele>
        <time>2022-04-20T12:26:21Z</time>
      </trkpt>
      <trkpt lat="49.96696" lon="2.42985">
        <ele>50.6</ele>
        <time>2022-04-20T12:26:23Z</time>
      </trkpt>
      <trkpt lat="49.96697" lon="2.42987">
        <ele>50.5</ele>
        <time>2022-04-20T12:26:24Z</time>
      </trkpt>
      <trkpt lat="49.96697" lon="2.42989">
        <ele>50.5</ele>
        <time>2022-04-20T12:26:25Z</time>
      </trkpt>
      <trkpt lat="49.96698" lon="2.42991">
        <ele>50.5</ele>
        <time>2022-04-20T12:26:26Z</time>
      </trkpt>
      <trkpt lat="49.96698" lon="2.42994">
        <ele>50.5</ele>
        <time>2022-04-20T12:26:27Z</time>
      </trkpt>
      <trkpt lat="49.96698" lon="2.42995">
        <ele>50.5</ele>
        <time>2022-04-20T12:26:29Z</time>
      </trkpt>
      <trkpt lat="49.96698" lon="2.42996">
        <ele>50.5</ele>
        <time>2022-04-20T12:26:30Z</time>
      </trkpt>
      <trkpt lat="49.96699" lon="2.43">
        <ele>50.4</ele>
        <time>2022-04-20T12:26:31Z</time>
      </trkpt>
      <trkpt lat="49.96699" lon="2.43001">
        <ele>50.4</ele>
        <time>2022-04-20T12:26:32Z</time>
      </trkpt>
      <trkpt lat="49.96699" lon="2.43002">
        <ele>50.4</ele>
        <time>2022-04-20T12:26:33Z</time>
      </trkpt>
      <trkpt lat="49.967" lon="2.43006">
        <ele>50.4</ele>
        <time>2022-04-20T12:26:35Z</time>
      </trkpt>
      <trkpt lat="49.967" lon="2.43007">
        <ele>50.4</ele>
        <time>2022-04-20T12:26:36Z</time>
      </trkpt>
      <trkpt lat="49.967" lon="2.43008">
        <ele>50.3</ele>
        <time>2022-04-20T12:26:37Z</time>
      </trkpt>
      <trkpt lat="49.96701" lon="2.43011">
        <ele>50.3</ele>
        <time>2022-04-20T12:26:38Z</time>
      </trkpt>
      <trkpt lat="49.96701" lon="2.43013">
        <ele>50.3</ele>
        <time>2022-04-20T12:26:39Z</time>
      </trkpt>
      <trkpt lat="49.96701" lon="2.43014">
        <ele>50.3</ele>
        <time>2022-04-20T12:26:40Z</time>
      </trkpt>
      <trkpt lat="49.96702" lon="2.43016">
        <ele>50.3</ele>
        <time>2022-04-20T12:26:41Z</time>
      </trkpt>
      <trkpt lat="49.96702" lon="2.43018">
        <ele>50.2</ele>
        <time>2022-04-20T12:26:42Z</time>
      </trkpt>
      <trkpt lat="49.96703" lon="2.43019">
        <ele>50.2</ele>
        <time>2022-04-20T12:26:43Z</time>
      </trkpt>
      <trkpt lat="49.96703" lon="2.43021">
        <ele>50.2</ele>
        <time>2022-04-20T12:26:44Z</time>
      </trkpt>
      <trkpt lat="49.96703" lon="2.43023">
        <ele>50.2</ele>
        <time>2022-04-20T12:26:46Z</time>
      </trkpt>
      <trkpt lat="49.96704" lon="2.43024">
        <ele>50.2</ele>
        <time>2022-04-20T12:26:47Z</time>
      </trkpt>
      <trkpt lat="49.96704" lon="2.43026">
        <ele>50.2</ele>
        <time>2022-04-20T12:26:48Z</time>
      </trkpt>
      <trkpt lat="49.96705" lon="2.43028">
        <ele>50.1</ele>
        <time>2022-04-20T12:26:49Z</time>
      </trkpt>
      <trkpt lat="49.96705" lon="2.43031">
        <ele>50.1</ele>
        <time>2022-04-20T12:26:50Z</time>
      </trkpt>
      <trkpt lat="49.96705" lon="2.43033">
        <ele>50.1</ele>
        <time>2022-04-20T12:26:51Z</time>
      </trkpt>
      <trkpt lat="49.96706" lon="2.43034">
        <ele>50.1</ele>
        <time>2022-04-20T12:26:52Z</time>
      </trkpt>
      <trkpt lat="49.96706" lon="2.43037">
        <ele>50</ele>
        <time>2022-04-20T12:26:53Z</time>
      </trkpt>
      <trkpt lat="49.96707" lon="2.43039">
        <ele>50</ele>
        <time>2022-04-20T12:26:55Z</time>
      </trkpt>
      <trkpt lat="49.96707" lon="2.4304">
        <ele>50</ele>
        <time>2022-04-20T12:26:56Z</time>
      </trkpt>
      <trkpt lat="49.96707" lon="2.43042">
        <ele>50</ele>
        <time>2022-04-20T12:26:57Z</time>
      </trkpt>
      <trkpt lat="49.96707" lon="2.43044">
        <ele>50</ele>
        <time>2022-04-20T12:26:58Z</time>
      </trkpt>
      <trkpt lat="49.96708" lon="2.43045">
        <ele>50</ele>
        <time>2022-04-20T12:26:59Z</time>
      </trkpt>
      <trkpt lat="49.96709" lon="2.43049">
        <ele>49.9</ele>
        <time>2022-04-20T12:27:00Z</time>
      </trkpt>
      <trkpt lat="49.96709" lon="2.43051">
        <ele>49.9</ele>
        <time>2022-04-20T12:27:02Z</time>
      </trkpt>
      <trkpt lat="49.96709" lon="2.43052">
        <ele>49.9</ele>
        <time>2022-04-20T12:27:03Z</time>
      </trkpt>
      <trkpt lat="49.96709" lon="2.43054">
        <ele>49.9</ele>
        <time>2022-04-20T12:27:04Z</time>
      </trkpt>
      <trkpt lat="49.9671" lon="2.43056">
        <ele>49.9</ele>
        <time>2022-04-20T12:27:05Z</time>
      </trkpt>
      <trkpt lat="49.9671" lon="2.43057">
        <ele>49.9</ele>
        <time>2022-04-20T12:27:06Z</time>
      </trkpt>
      <trkpt lat="49.9671" lon="2.43059">
        <ele>49.9</ele>
        <time>2022-04-20T12:27:07Z</time>
      </trkpt>
      <trkpt lat="49.96711" lon="2.43061">
        <ele>49.8</ele>
        <time>2022-04-20T12:27:08Z</time>
      </trkpt>
      <trkpt lat="49.96711" lon="2.43063">
        <ele>49.8</ele>
        <time>2022-04-20T12:27:09Z</time>
      </trkpt>
      <trkpt lat="49.96712" lon="2.43065">
        <ele>49.8</ele>
        <time>2022-04-20T12:27:10Z</time>
      </trkpt>
      <trkpt lat="49.96712" lon="2.43067">
        <ele>49.8</ele>
        <time>2022-04-20T12:27:11Z</time>
      </trkpt>
      <trkpt lat="49.96712" lon="2.43069">
        <ele>49.8</ele>
        <time>2022-04-20T12:27:12Z</time>
      </trkpt>
      <trkpt lat="49.96712" lon="2.43071">
        <ele>49.8</ele>
        <time>2022-04-20T12:27:13Z</time>
      </trkpt>
      <trkpt lat="49.96713" lon="2.43073">
        <ele>49.8</ele>
        <time>2022-04-20T12:27:14Z</time>
      </trkpt>
      <trkpt lat="49.96713" lon="2.43075">
        <ele>49.8</ele>
        <time>2022-04-20T12:27:16Z</time>
      </trkpt>
      <trkpt lat="49.96714" lon="2.43077">
        <ele>49.8</ele>
        <time>2022-04-20T12:27:17Z</time>
      </trkpt>
      <trkpt lat="49.96714" lon="2.43079">
        <ele>49.8</ele>
        <time>2022-04-20T12:27:18Z</time>
      </trkpt>
      <trkpt lat="49.96715" lon="2.43082">
        <ele>49.7</ele>
        <time>2022-04-20T12:27:19Z</time>
      </trkpt>
      <trkpt lat="49.96715" lon="2.43083">
        <ele>49.7</ele>
        <time>2022-04-20T12:27:20Z</time>
      </trkpt>
      <trkpt lat="49.96715" lon="2.43084">
        <ele>49.7</ele>
        <time>2022-04-20T12:27:21Z</time>
      </trkpt>
      <trkpt lat="49.96716" lon="2.43088">
        <ele>49.7</ele>
        <time>2022-04-20T12:27:22Z</time>
      </trkpt>
      <trkpt lat="49.96716" lon="2.43089">
        <ele>49.7</ele>
        <time>2022-04-20T12:27:24Z</time>
      </trkpt>
      <trkpt lat="49.96716" lon="2.4309">
        <ele>49.7</ele>
        <time>2022-04-20T12:27:25Z</time>
      </trkpt>
      <trkpt lat="49.96717" lon="2.43092">
        <ele>49.7</ele>
        <time>2022-04-20T12:27:26Z</time>
      </trkpt>
      <trkpt lat="49.96717" lon="2.43094">
        <ele>49.7</ele>
        <time>2022-04-20T12:27:27Z</time>
      </trkpt>
      <trkpt lat="49.96717" lon="2.43095">
        <ele>49.7</ele>
        <time>2022-04-20T12:27:28Z</time>
      </trkpt>
      <trkpt lat="49.96717" lon="2.43097">
        <ele>49.7</ele>
        <time>2022-04-20T12:27:29Z</time>
      </trkpt>
      <trkpt lat="49.96718" lon="2.43098">
        <ele>49.7</ele>
        <time>2022-04-20T12:27:30Z</time>
      </trkpt>
      <trkpt lat="49.96718" lon="2.431">
        <ele>49.7</ele>
        <time>2022-04-20T12:27:31Z</time>
      </trkpt>
      <trkpt lat="49.96719" lon="2.43102">
        <ele>49.7</ele>
        <time>2022-04-20T12:27:32Z</time>
      </trkpt>
      <trkpt lat="49.96719" lon="2.43103">
        <ele>49.7</ele>
        <time>2022-04-20T12:27:34Z</time>
      </trkpt>
      <trkpt lat="49.96719" lon="2.43105">
        <ele>49.7</ele>
        <time>2022-04-20T12:27:35Z</time>
      </trkpt>
      <trkpt lat="49.9672" lon="2.43106">
        <ele>49.7</ele>
        <time>2022-04-20T12:27:36Z</time>
      </trkpt>
      <trkpt lat="49.9672" lon="2.43108">
        <ele>49.7</ele>
        <time>2022-04-20T12:27:37Z</time>
      </trkpt>
      <trkpt lat="49.9672" lon="2.43109">
        <ele>49.7</ele>
        <time>2022-04-20T12:27:38Z</time>
      </trkpt>
      <trkpt lat="49.9672" lon="2.43111">
        <ele>49.7</ele>
        <time>2022-04-20T12:27:39Z</time>
      </trkpt>
      <trkpt lat="49.96721" lon="2.43113">
        <ele>49.7</ele>
        <time>2022-04-20T12:27:40Z</time>
      </trkpt>
      <trkpt lat="49.96721" lon="2.43116">
        <ele>49.7</ele>
        <time>2022-04-20T12:27:42Z</time>
      </trkpt>
      <trkpt lat="49.96722" lon="2.43119">
        <ele>49.7</ele>
        <time>2022-04-20T12:27:43Z</time>
      </trkpt>
      <trkpt lat="49.96722" lon="2.4312">
        <ele>49.7</ele>
        <time>2022-04-20T12:27:44Z</time>
      </trkpt>
      <trkpt lat="49.96723" lon="2.43121">
        <ele>49.7</ele>
        <time>2022-04-20T12:27:45Z</time>
      </trkpt>
      <trkpt lat="49.96723" lon="2.43123">
        <ele>49.7</ele>
        <time>2022-04-20T12:27:46Z</time>
      </trkpt>
      <trkpt lat="49.96724" lon="2.43125">
        <ele>49.7</ele>
        <time>2022-04-20T12:27:47Z</time>
      </trkpt>
      <trkpt lat="49.96724" lon="2.43127">
        <ele>49.7</ele>
        <time>2022-04-20T12:27:48Z</time>
      </trkpt>
      <trkpt lat="49.96724" lon="2.43129">
        <ele>49.6</ele>
        <time>2022-04-20T12:27:49Z</time>
      </trkpt>
      <trkpt lat="49.96725" lon="2.43131">
        <ele>49.6</ele>
        <time>2022-04-20T12:27:51Z</time>
      </trkpt>
      <trkpt lat="49.96725" lon="2.43133">
        <ele>49.6</ele>
        <time>2022-04-20T12:27:52Z</time>
      </trkpt>
      <trkpt lat="49.96726" lon="2.43135">
        <ele>49.6</ele>
        <time>2022-04-20T12:27:53Z</time>
      </trkpt>
      <trkpt lat="49.96726" lon="2.43138">
        <ele>49.6</ele>
        <time>2022-04-20T12:27:54Z</time>
      </trkpt>
      <trkpt lat="49.96727" lon="2.4314">
        <ele>49.6</ele>
        <time>2022-04-20T12:27:55Z</time>
      </trkpt>
      <trkpt lat="49.96727" lon="2.43141">
        <ele>49.6</ele>
        <time>2022-04-20T12:27:56Z</time>
      </trkpt>
      <trkpt lat="49.96728" lon="2.43144">
        <ele>49.6</ele>
        <time>2022-04-20T12:27:57Z</time>
      </trkpt>
      <trkpt lat="49.96728" lon="2.43145">
        <ele>49.6</ele>
        <time>2022-04-20T12:27:58Z</time>
      </trkpt>
      <trkpt lat="49.96728" lon="2.43147">
        <ele>49.6</ele>
        <time>2022-04-20T12:27:59Z</time>
      </trkpt>
      <trkpt lat="49.96729" lon="2.43148">
        <ele>49.6</ele>
        <time>2022-04-20T12:28:00Z</time>
      </trkpt>
      <trkpt lat="49.96729" lon="2.4315">
        <ele>49.5</ele>
        <time>2022-04-20T12:28:02Z</time>
      </trkpt>
      <trkpt lat="49.9673" lon="2.43152">
        <ele>49.5</ele>
        <time>2022-04-20T12:28:03Z</time>
      </trkpt>
      <trkpt lat="49.96731" lon="2.43155">
        <ele>49.5</ele>
        <time>2022-04-20T12:28:04Z</time>
      </trkpt>
      <trkpt lat="49.96731" lon="2.43156">
        <ele>49.5</ele>
        <time>2022-04-20T12:28:05Z</time>
      </trkpt>
      <trkpt lat="49.96731" lon="2.43157">
        <ele>49.5</ele>
        <time>2022-04-20T12:28:06Z</time>
      </trkpt>
      <trkpt lat="49.96732" lon="2.4316">
        <ele>49.5</ele>
        <time>2022-04-20T12:28:07Z</time>
      </trkpt>
      <trkpt lat="49.96732" lon="2.43162">
        <ele>49.5</ele>
        <time>2022-04-20T12:28:08Z</time>
      </trkpt>
      <trkpt lat="49.96733" lon="2.43163">
        <ele>49.5</ele>
        <time>2022-04-20T12:28:09Z</time>
      </trkpt>
      <trkpt lat="49.96733" lon="2.43165">
        <ele>49.5</ele>
        <time>2022-04-20T12:28:10Z</time>
      </trkpt>
      <trkpt lat="49.96734" lon="2.43166">
        <ele>49.5</ele>
        <time>2022-04-20T12:28:11Z</time>
      </trkpt>
      <trkpt lat="49.96734" lon="2.43168">
        <ele>49.5</ele>
        <time>2022-04-20T12:28:12Z</time>
      </trkpt>
      <trkpt lat="49.96735" lon="2.43169">
        <ele>49.5</ele>
        <time>2022-04-20T12:28:14Z</time>
      </trkpt>
      <trkpt lat="49.96736" lon="2.43171">
        <ele>49.4</ele>
        <time>2022-04-20T12:28:15Z</time>
      </trkpt>
      <trkpt lat="49.96736" lon="2.43173">
        <ele>49.4</ele>
        <time>2022-04-20T12:28:16Z</time>
      </trkpt>
      <trkpt lat="49.96737" lon="2.43175">
        <ele>49.4</ele>
        <time>2022-04-20T12:28:17Z</time>
      </trkpt>
      <trkpt lat="49.96737" lon="2.43177">
        <ele>49.4</ele>
        <time>2022-04-20T12:28:18Z</time>
      </trkpt>
      <trkpt lat="49.96738" lon="2.43179">
        <ele>49.4</ele>
        <time>2022-04-20T12:28:19Z</time>
      </trkpt>
      <trkpt lat="49.96738" lon="2.43181">
        <ele>49.4</ele>
        <time>2022-04-20T12:28:21Z</time>
      </trkpt>
      <trkpt lat="49.96739" lon="2.43185">
        <ele>49.4</ele>
        <time>2022-04-20T12:28:22Z</time>
      </trkpt>
      <trkpt lat="49.96739" lon="2.43186">
        <ele>49.4</ele>
        <time>2022-04-20T12:28:23Z</time>
      </trkpt>
      <trkpt lat="49.96739" lon="2.43187">
        <ele>49.4</ele>
        <time>2022-04-20T12:28:24Z</time>
      </trkpt>
      <trkpt lat="49.9674" lon="2.43188">
        <ele>49.4</ele>
        <time>2022-04-20T12:28:25Z</time>
      </trkpt>
      <trkpt lat="49.9674" lon="2.4319">
        <ele>49.4</ele>
        <time>2022-04-20T12:28:26Z</time>
      </trkpt>
      <trkpt lat="49.96741" lon="2.43192">
        <ele>49.4</ele>
        <time>2022-04-20T12:28:27Z</time>
      </trkpt>
      <trkpt lat="49.96741" lon="2.43193">
        <ele>49.4</ele>
        <time>2022-04-20T12:28:28Z</time>
      </trkpt>
      <trkpt lat="49.96742" lon="2.43195">
        <ele>49.4</ele>
        <time>2022-04-20T12:28:29Z</time>
      </trkpt>
      <trkpt lat="49.96742" lon="2.43197">
        <ele>49.4</ele>
        <time>2022-04-20T12:28:30Z</time>
      </trkpt>
      <trkpt lat="49.96743" lon="2.43198">
        <ele>49.4</ele>
        <time>2022-04-20T12:28:31Z</time>
      </trkpt>
      <trkpt lat="49.96743" lon="2.432">
        <ele>49.4</ele>
        <time>2022-04-20T12:28:33Z</time>
      </trkpt>
      <trkpt lat="49.96744" lon="2.43201">
        <ele>49.4</ele>
        <time>2022-04-20T12:28:34Z</time>
      </trkpt>
      <trkpt lat="49.96744" lon="2.43203">
        <ele>49.4</ele>
        <time>2022-04-20T12:28:35Z</time>
      </trkpt>
      <trkpt lat="49.96744" lon="2.43204">
        <ele>49.4</ele>
        <time>2022-04-20T12:28:36Z</time>
      </trkpt>
      <trkpt lat="49.96745" lon="2.43206">
        <ele>49.4</ele>
        <time>2022-04-20T12:28:37Z</time>
      </trkpt>
      <trkpt lat="49.96745" lon="2.43209">
        <ele>49.5</ele>
        <time>2022-04-20T12:28:38Z</time>
      </trkpt>
      <trkpt lat="49.96745" lon="2.43211">
        <ele>49.5</ele>
        <time>2022-04-20T12:28:39Z</time>
      </trkpt>
      <trkpt lat="49.96745" lon="2.43212">
        <ele>49.5</ele>
        <time>2022-04-20T12:28:40Z</time>
      </trkpt>
      <trkpt lat="49.96745" lon="2.43214">
        <ele>49.5</ele>
        <time>2022-04-20T12:28:42Z</time>
      </trkpt>
      <trkpt lat="49.96746" lon="2.43215">
        <ele>49.5</ele>
        <time>2022-04-20T12:28:43Z</time>
      </trkpt>
      <trkpt lat="49.96746" lon="2.43216">
        <ele>49.5</ele>
        <time>2022-04-20T12:28:44Z</time>
      </trkpt>
      <trkpt lat="49.96746" lon="2.43218">
        <ele>49.5</ele>
        <time>2022-04-20T12:28:45Z</time>
      </trkpt>
      <trkpt lat="49.96746" lon="2.4322">
        <ele>49.5</ele>
        <time>2022-04-20T12:28:46Z</time>
      </trkpt>
      <trkpt lat="49.96746" lon="2.43221">
        <ele>49.5</ele>
        <time>2022-04-20T12:28:47Z</time>
      </trkpt>
      <trkpt lat="49.96746" lon="2.43223">
        <ele>49.5</ele>
        <time>2022-04-20T12:28:49Z</time>
      </trkpt>
      <trkpt lat="49.96746" lon="2.43225">
        <ele>49.6</ele>
        <time>2022-04-20T12:28:50Z</time>
      </trkpt>
      <trkpt lat="49.96746" lon="2.43227">
        <ele>49.6</ele>
        <time>2022-04-20T12:28:52Z</time>
      </trkpt>
      <trkpt lat="49.96745" lon="2.43228">
        <ele>49.6</ele>
        <time>2022-04-20T12:28:53Z</time>
      </trkpt>
      <trkpt lat="49.96744" lon="2.43229">
        <ele>49.6</ele>
        <time>2022-04-20T12:28:55Z</time>
      </trkpt>
      <trkpt lat="49.96744" lon="2.43229">
        <ele>49.6</ele>
        <time>2022-04-20T12:28:56Z</time>
      </trkpt>
      <trkpt lat="49.96743" lon="2.43229">
        <ele>49.6</ele>
        <time>2022-04-20T12:28:57Z</time>
      </trkpt>
      <trkpt lat="49.96743" lon="2.43229">
        <ele>49.6</ele>
        <time>2022-04-20T12:28:58Z</time>
      </trkpt>
      <trkpt lat="49.96743" lon="2.43229">
        <ele>49.6</ele>
        <time>2022-04-20T12:28:59Z</time>
      </trkpt>
      <trkpt lat="49.96743" lon="2.43228">
        <ele>49.6</ele>
        <time>2022-04-20T12:29:00Z</time>
      </trkpt>
      <trkpt lat="49.96743" lon="2.43228">
        <ele>49.6</ele>
        <time>2022-04-20T12:29:01Z</time>
      </trkpt>
      <trkpt lat="49.96743" lon="2.43228">
        <ele>49.6</ele>
        <time>2022-04-20T12:29:02Z</time>
      </trkpt>
      <trkpt lat="49.96743" lon="2.43228">
        <ele>49.6</ele>
        <time>2022-04-20T12:29:03Z</time>
      </trkpt>
      <trkpt lat="49.96743" lon="2.43228">
        <ele>49.6</ele>
        <time>2022-04-20T12:29:04Z</time>
      </trkpt>
      <trkpt lat="49.96743" lon="2.43228">
        <ele>49.6</ele>
        <time>2022-04-20T12:29:05Z</time>
      </trkpt>
      <trkpt lat="49.96743" lon="2.43228">
        <ele>49.6</ele>
        <time>2022-04-20T12:29:06Z</time>
      </trkpt>
      <trkpt lat="49.96743" lon="2.43228">
        <ele>49.6</ele>
        <time>2022-04-20T12:29:07Z</time>
      </trkpt>
      <trkpt lat="49.96743" lon="2.43228">
        <ele>49.6</ele>
        <time>2022-04-20T12:29:08Z</time>
      </trkpt>
      <trkpt lat="49.96743" lon="2.43228">
        <ele>49.6</ele>
        <time>2022-04-20T12:29:09Z</time>
      </trkpt>
      <trkpt lat="49.96743" lon="2.43228">
        <ele>49.6</ele>
        <time>2022-04-20T12:29:10Z</time>
      </trkpt>
      <trkpt lat="49.96743" lon="2.43228">
        <ele>49.6</ele>
        <time>2022-04-20T12:29:11Z</time>
      </trkpt>
      <trkpt lat="49.96743" lon="2.43227">
        <ele>49.6</ele>
        <time>2022-04-20T12:29:12Z</time>
      </trkpt>
      <trkpt lat="49.96743" lon="2.43227">
        <ele>49.6</ele>
        <time>2022-04-20T12:29:13Z</time>
      </trkpt>
      <trkpt lat="49.96743" lon="2.43227">
        <ele>49.6</ele>
        <time>2022-04-20T12:29:14Z</time>
      </trkpt>
      <trkpt lat="49.96743" lon="2.43227">
        <ele>49.6</ele>
        <time>2022-04-20T12:29:15Z</time>
      </trkpt>
      <trkpt lat="49.96743" lon="2.43227">
        <ele>49.6</ele>
        <time>2022-04-20T12:29:16Z</time>
      </trkpt>
      <trkpt lat="49.96743" lon="2.43227">
        <ele>49.6</ele>
        <time>2022-04-20T12:29:17Z</time>
      </trkpt>
      <trkpt lat="49.96743" lon="2.43227">
        <ele>49.6</ele>
        <time>2022-04-20T12:29:18Z</time>
      </trkpt>
      <trkpt lat="49.96743" lon="2.43227">
        <ele>49.6</ele>
        <time>2022-04-20T12:29:19Z</time>
      </trkpt>
      <trkpt lat="49.96743" lon="2.43227">
        <ele>49.6</ele>
        <time>2022-04-20T12:29:20Z</time>
      </trkpt>
      <trkpt lat="49.96743" lon="2.43227">
        <ele>49.6</ele>
        <time>2022-04-20T12:29:21Z</time>
      </trkpt>
      <trkpt lat="49.96743" lon="2.43227">
        <ele>49.6</ele>
        <time>2022-04-20T12:29:22Z</time>
      </trkpt>
      <trkpt lat="49.96743" lon="2.43227">
        <ele>49.6</ele>
        <time>2022-04-20T12:29:23Z</time>
      </trkpt>
      <trkpt lat="49.96743" lon="2.43226">
        <ele>49.6</ele>
        <time>2022-04-20T12:29:24Z</time>
      </trkpt>
      <trkpt lat="49.96743" lon="2.43226">
        <ele>49.6</ele>
        <time>2022-04-20T12:29:25Z</time>
      </trkpt>
      <trkpt lat="49.96743" lon="2.43226">
        <ele>49.6</ele>
        <time>2022-04-20T12:29:26Z</time>
      </trkpt>
      <trkpt lat="49.96743" lon="2.43226">
        <ele>49.6</ele>
        <time>2022-04-20T12:29:27Z</time>
      </trkpt>
      <trkpt lat="49.96743" lon="2.43226">
        <ele>49.6</ele>
        <time>2022-04-20T12:29:28Z</time>
      </trkpt>
      <trkpt lat="49.96743" lon="2.43226">
        <ele>49.6</ele>
        <time>2022-04-20T12:29:29Z</time>
      </trkpt>
      <trkpt lat="49.96743" lon="2.43226">
        <ele>49.6</ele>
        <time>2022-04-20T12:29:30Z</time>
      </trkpt>
      <trkpt lat="49.96743" lon="2.43226">
        <ele>49.6</ele>
        <time>2022-04-20T12:29:31Z</time>
      </trkpt>
      <trkpt lat="49.96743" lon="2.43226">
        <ele>49.6</ele>
        <time>2022-04-20T12:29:32Z</time>
      </trkpt>
      <trkpt lat="49.96743" lon="2.43226">
        <ele>49.6</ele>
        <time>2022-04-20T12:29:33Z</time>
      </trkpt>
      <trkpt lat="49.96743" lon="2.43226">
        <ele>49.6</ele>
        <time>2022-04-20T12:29:34Z</time>
      </trkpt>
      <trkpt lat="49.96743" lon="2.43225">
        <ele>49.6</ele>
        <time>2022-04-20T12:29:35Z</time>
      </trkpt>
      <trkpt lat="49.96743" lon="2.43225">
        <ele>49.6</ele>
        <time>2022-04-20T12:29:36Z</time>
      </trkpt>
      <trkpt lat="49.96743" lon="2.43225">
        <ele>49.6</ele>
        <time>2022-04-20T12:29:37Z</time>
      </trkpt>
      <trkpt lat="49.96743" lon="2.43225">
        <ele>49.6</ele>
        <time>2022-04-20T12:29:38Z</time>
      </trkpt>
      <trkpt lat="49.96743" lon="2.43225">
        <ele>49.6</ele>
        <time>2022-04-20T12:29:39Z</time>
      </trkpt>
      <trkpt lat="49.96743" lon="2.43225">
        <ele>49.6</ele>
        <time>2022-04-20T12:29:40Z</time>
      </trkpt>
      <trkpt lat="49.96743" lon="2.43225">
        <ele>49.6</ele>
        <time>2022-04-20T12:29:41Z</time>
      </trkpt>
      <trkpt lat="49.96743" lon="2.43225">
        <ele>49.6</ele>
        <time>2022-04-20T12:29:42Z</time>
      </trkpt>
      <trkpt lat="49.96743" lon="2.43225">
        <ele>49.6</ele>
        <time>2022-04-20T12:29:43Z</time>
      </trkpt>
      <trkpt lat="49.96743" lon="2.43225">
        <ele>49.6</ele>
        <time>2022-04-20T12:29:44Z</time>
      </trkpt>
      <trkpt lat="49.96743" lon="2.43225">
        <ele>49.6</ele>
        <time>2022-04-20T12:29:45Z</time>
      </trkpt>
      <trkpt lat="49.96743" lon="2.43225">
        <ele>49.7</ele>
        <time>2022-04-20T12:29:46Z</time>
      </trkpt>
      <trkpt lat="49.96743" lon="2.43224">
        <ele>49.7</ele>
        <time>2022-04-20T12:29:47Z</time>
      </trkpt>
      <trkpt lat="49.96743" lon="2.43224">
        <ele>49.7</ele>
        <time>2022-04-20T12:29:48Z</time>
      </trkpt>
      <trkpt lat="49.96743" lon="2.43224">
        <ele>49.7</ele>
        <time>2022-04-20T12:29:49Z</time>
      </trkpt>
      <trkpt lat="49.96743" lon="2.43224">
        <ele>49.7</ele>
        <time>2022-04-20T12:29:50Z</time>
      </trkpt>
      <trkpt lat="49.96743" lon="2.43224">
        <ele>49.7</ele>
        <time>2022-04-20T12:29:51Z</time>
      </trkpt>
      <trkpt lat="49.96743" lon="2.43224">
        <ele>49.7</ele>
        <time>2022-04-20T12:29:52Z</time>
      </trkpt>
      <trkpt lat="49.96743" lon="2.43224">
        <ele>49.7</ele>
        <time>2022-04-20T12:29:53Z</time>
      </trkpt>
      <trkpt lat="49.96743" lon="2.43224">
        <ele>49.7</ele>
        <time>2022-04-20T12:29:54Z</time>
      </trkpt>
      <trkpt lat="49.96743" lon="2.43224">
        <ele>49.7</ele>
        <time>2022-04-20T12:29:55Z</time>
      </trkpt>
      <trkpt lat="49.96743" lon="2.43224">
        <ele>49.7</ele>
        <time>2022-04-20T12:29:56Z</time>
      </trkpt>
      <trkpt lat="49.96743" lon="2.43224">
        <ele>49.7</ele>
        <time>2022-04-20T12:29:57Z</time>
      </trkpt>
      <trkpt lat="49.96743" lon="2.43224">
        <ele>49.7</ele>
        <time>2022-04-20T12:29:58Z</time>
      </trkpt>
      <trkpt lat="49.96743" lon="2.43223">
        <ele>49.7</ele>
        <time>2022-04-20T12:29:59Z</time>
      </trkpt>
      <trkpt lat="49.96743" lon="2.43223">
        <ele>49.7</ele>
        <time>2022-04-20T12:30:00Z</time>
      </trkpt>
      <trkpt lat="49.96743" lon="2.43223">
        <ele>49.7</ele>
        <time>2022-04-20T12:30:01Z</time>
      </trkpt>
      <trkpt lat="49.96743" lon="2.43223">
        <ele>49.7</ele>
        <time>2022-04-20T12:30:02Z</time>
      </trkpt>
      <trkpt lat="49.96743" lon="2.43223">
        <ele>49.7</ele>
        <time>2022-04-20T12:30:03Z</time>
      </trkpt>
      <trkpt lat="49.96743" lon="2.43223">
        <ele>49.7</ele>
        <time>2022-04-20T12:30:04Z</time>
      </trkpt>
      <trkpt lat="49.96743" lon="2.43223">
        <ele>49.7</ele>
        <time>2022-04-20T12:30:05Z</time>
      </trkpt>
      <trkpt lat="49.96743" lon="2.43223">
        <ele>49.7</ele>
        <time>2022-04-20T12:30:06Z</time>
      </trkpt>
      <trkpt lat="49.96743" lon="2.43223">
        <ele>49.7</ele>
        <time>2022-04-20T12:30:07Z</time>
      </trkpt>
      <trkpt lat="49.96744" lon="2.43221">
        <ele>49.7</ele>
        <time>2022-04-20T12:30:08Z</time>
      </trkpt>
      <trkpt lat="49.96745" lon="2.43221">
        <ele>49.7</ele>
        <time>2022-04-20T12:30:09Z</time>
      </trkpt>
      <trkpt lat="49.96745" lon="2.43222">
        <ele>49.7</ele>
        <time>2022-04-20T12:30:10Z</time>
      </trkpt>
      <trkpt lat="49.96745" lon="2.43223">
        <ele>49.7</ele>
        <time>2022-04-20T12:30:11Z</time>
      </trkpt>
      <trkpt lat="49.96745" lon="2.43224">
        <ele>49.7</ele>
        <time>2022-04-20T12:30:12Z</time>
      </trkpt>
      <trkpt lat="49.96745" lon="2.43225">
        <ele>49.7</ele>
        <time>2022-04-20T12:30:13Z</time>
      </trkpt>
      <trkpt lat="49.96746" lon="2.43225">
        <ele>49.7</ele>
        <time>2022-04-20T12:30:14Z</time>
      </trkpt>
      <trkpt lat="49.96746" lon="2.43226">
        <ele>49.7</ele>
        <time>2022-04-20T12:30:15Z</time>
      </trkpt>
      <trkpt lat="49.96746" lon="2.43227">
        <ele>49.7</ele>
        <time>2022-04-20T12:30:17Z</time>
      </trkpt>
      <trkpt lat="49.96747" lon="2.4323">
        <ele>49.7</ele>
        <time>2022-04-20T12:30:18Z</time>
      </trkpt>
      <trkpt lat="49.96749" lon="2.43232">
        <ele>49.7</ele>
        <time>2022-04-20T12:30:20Z</time>
      </trkpt>
      <trkpt lat="49.96749" lon="2.43234">
        <ele>49.7</ele>
        <time>2022-04-20T12:30:21Z</time>
      </trkpt>
      <trkpt lat="49.9675" lon="2.43235">
        <ele>49.7</ele>
        <time>2022-04-20T12:30:22Z</time>
      </trkpt>
      <trkpt lat="49.96751" lon="2.43236">
        <ele>49.7</ele>
        <time>2022-04-20T12:30:24Z</time>
      </trkpt>
      <trkpt lat="49.96752" lon="2.43237">
        <ele>49.7</ele>
        <time>2022-04-20T12:30:25Z</time>
      </trkpt>
      <trkpt lat="49.96753" lon="2.43237">
        <ele>49.7</ele>
        <time>2022-04-20T12:30:26Z</time>
      </trkpt>
      <trkpt lat="49.96754" lon="2.43238">
        <ele>49.7</ele>
        <time>2022-04-20T12:30:27Z</time>
      </trkpt>
      <trkpt lat="49.96755" lon="2.43237">
        <ele>49.7</ele>
        <time>2022-04-20T12:30:29Z</time>
      </trkpt>
      <trkpt lat="49.96756" lon="2.43237">
        <ele>49.7</ele>
        <time>2022-04-20T12:30:30Z</time>
      </trkpt>
      <trkpt lat="49.96758" lon="2.43237">
        <ele>49.7</ele>
        <time>2022-04-20T12:30:31Z</time>
      </trkpt>
      <trkpt lat="49.96759" lon="2.43237">
        <ele>49.7</ele>
        <time>2022-04-20T12:30:32Z</time>
      </trkpt>
      <trkpt lat="49.96761" lon="2.43236">
        <ele>49.7</ele>
        <time>2022-04-20T12:30:34Z</time>
      </trkpt>
      <trkpt lat="49.96762" lon="2.43235">
        <ele>49.7</ele>
        <time>2022-04-20T12:30:35Z</time>
      </trkpt>
      <trkpt lat="49.96762" lon="2.43235">
        <ele>49.7</ele>
        <time>2022-04-20T12:30:36Z</time>
      </trkpt>
      <trkpt lat="49.96763" lon="2.43234">
        <ele>49.7</ele>
        <time>2022-04-20T12:30:37Z</time>
      </trkpt>
      <trkpt lat="49.96764" lon="2.43234">
        <ele>49.7</ele>
        <time>2022-04-20T12:30:38Z</time>
      </trkpt>
      <trkpt lat="49.96765" lon="2.43233">
        <ele>49.7</ele>
        <time>2022-04-20T12:30:39Z</time>
      </trkpt>
      <trkpt lat="49.96767" lon="2.43232">
        <ele>49.7</ele>
        <time>2022-04-20T12:30:40Z</time>
      </trkpt>
      <trkpt lat="49.96768" lon="2.43232">
        <ele>49.7</ele>
        <time>2022-04-20T12:30:41Z</time>
      </trkpt>
      <trkpt lat="49.96769" lon="2.43232">
        <ele>49.7</ele>
        <time>2022-04-20T12:30:42Z</time>
      </trkpt>
      <trkpt lat="49.96771" lon="2.43232">
        <ele>49.7</ele>
        <time>2022-04-20T12:30:43Z</time>
      </trkpt>
      <trkpt lat="49.96772" lon="2.43231">
        <ele>49.7</ele>
        <time>2022-04-20T12:30:44Z</time>
      </trkpt>
      <trkpt lat="49.96772" lon="2.43231">
        <ele>49.7</ele>
        <time>2022-04-20T12:30:45Z</time>
      </trkpt>
      <trkpt lat="49.96774" lon="2.4323">
        <ele>49.6</ele>
        <time>2022-04-20T12:30:46Z</time>
      </trkpt>
      <trkpt lat="49.96775" lon="2.4323">
        <ele>49.6</ele>
        <time>2022-04-20T12:30:48Z</time>
      </trkpt>
      <trkpt lat="49.96777" lon="2.43229">
        <ele>49.6</ele>
        <time>2022-04-20T12:30:49Z</time>
      </trkpt>
      <trkpt lat="49.96778" lon="2.43228">
        <ele>49.6</ele>
        <time>2022-04-20T12:30:50Z</time>
      </trkpt>
      <trkpt lat="49.96779" lon="2.43228">
        <ele>49.6</ele>
        <time>2022-04-20T12:30:52Z</time>
      </trkpt>
      <trkpt lat="49.9678" lon="2.43227">
        <ele>49.6</ele>
        <time>2022-04-20T12:30:53Z</time>
      </trkpt>
      <trkpt lat="49.9678" lon="2.43227">
        <ele>49.6</ele>
        <time>2022-04-20T12:30:54Z</time>
      </trkpt>
      <trkpt lat="49.96781" lon="2.43226">
        <ele>49.6</ele>
        <time>2022-04-20T12:30:55Z</time>
      </trkpt>
      <trkpt lat="49.96782" lon="2.43226">
        <ele>49.6</ele>
        <time>2022-04-20T12:30:56Z</time>
      </trkpt>
      <trkpt lat="49.96783" lon="2.43225">
        <ele>49.6</ele>
        <time>2022-04-20T12:30:57Z</time>
      </trkpt>
      <trkpt lat="49.96783" lon="2.43225">
        <ele>49.6</ele>
        <time>2022-04-20T12:30:58Z</time>
      </trkpt>
      <trkpt lat="49.96785" lon="2.43224">
        <ele>49.6</ele>
        <time>2022-04-20T12:30:59Z</time>
      </trkpt>
      <trkpt lat="49.96786" lon="2.43224">
        <ele>49.5</ele>
        <time>2022-04-20T12:31:00Z</time>
      </trkpt>
      <trkpt lat="49.96787" lon="2.43224">
        <ele>49.5</ele>
        <time>2022-04-20T12:31:02Z</time>
      </trkpt>
      <trkpt lat="49.96788" lon="2.43224">
        <ele>49.5</ele>
        <time>2022-04-20T12:31:03Z</time>
      </trkpt>
      <trkpt lat="49.96789" lon="2.43224">
        <ele>49.5</ele>
        <time>2022-04-20T12:31:04Z</time>
      </trkpt>
      <trkpt lat="49.9679" lon="2.43224">
        <ele>49.5</ele>
        <time>2022-04-20T12:31:05Z</time>
      </trkpt>
      <trkpt lat="49.96791" lon="2.43224">
        <ele>49.5</ele>
        <time>2022-04-20T12:31:06Z</time>
      </trkpt>
      <trkpt lat="49.96793" lon="2.43223">
        <ele>49.5</ele>
        <time>2022-04-20T12:31:07Z</time>
      </trkpt>
      <trkpt lat="49.96794" lon="2.43223">
        <ele>49.5</ele>
        <time>2022-04-20T12:31:08Z</time>
      </trkpt>
      <trkpt lat="49.96795" lon="2.43223">
        <ele>49.4</ele>
        <time>2022-04-20T12:31:09Z</time>
      </trkpt>
      <trkpt lat="49.96796" lon="2.43223">
        <ele>49.4</ele>
        <time>2022-04-20T12:31:10Z</time>
      </trkpt>
      <trkpt lat="49.96797" lon="2.43223">
        <ele>49.4</ele>
        <time>2022-04-20T12:31:11Z</time>
      </trkpt>
      <trkpt lat="49.96798" lon="2.43223">
        <ele>49.4</ele>
        <time>2022-04-20T12:31:12Z</time>
      </trkpt>
      <trkpt lat="49.968" lon="2.43222">
        <ele>49.4</ele>
        <time>2022-04-20T12:31:13Z</time>
      </trkpt>
      <trkpt lat="49.96801" lon="2.43222">
        <ele>49.4</ele>
        <time>2022-04-20T12:31:14Z</time>
      </trkpt>
      <trkpt lat="49.96802" lon="2.43222">
        <ele>49.4</ele>
        <time>2022-04-20T12:31:15Z</time>
      </trkpt>
      <trkpt lat="49.96805" lon="2.43222">
        <ele>49.4</ele>
        <time>2022-04-20T12:31:16Z</time>
      </trkpt>
      <trkpt lat="49.96806" lon="2.43222">
        <ele>49.4</ele>
        <time>2022-04-20T12:31:18Z</time>
      </trkpt>
      <trkpt lat="49.96807" lon="2.43221">
        <ele>49.4</ele>
        <time>2022-04-20T12:31:19Z</time>
      </trkpt>
      <trkpt lat="49.96809" lon="2.43221">
        <ele>49.3</ele>
        <time>2022-04-20T12:31:20Z</time>
      </trkpt>
      <trkpt lat="49.96809" lon="2.43221">
        <ele>49.3</ele>
        <time>2022-04-20T12:31:21Z</time>
      </trkpt>
      <trkpt lat="49.9681" lon="2.43221">
        <ele>49.3</ele>
        <time>2022-04-20T12:31:22Z</time>
      </trkpt>
      <trkpt lat="49.96812" lon="2.4322">
        <ele>49.3</ele>
        <time>2022-04-20T12:31:24Z</time>
      </trkpt>
      <trkpt lat="49.96813" lon="2.4322">
        <ele>49.3</ele>
        <time>2022-04-20T12:31:25Z</time>
      </trkpt>
      <trkpt lat="49.96814" lon="2.4322">
        <ele>49.3</ele>
        <time>2022-04-20T12:31:26Z</time>
      </trkpt>
      <trkpt lat="49.96816" lon="2.4322">
        <ele>49.3</ele>
        <time>2022-04-20T12:31:27Z</time>
      </trkpt>
      <trkpt lat="49.96817" lon="2.43219">
        <ele>49.3</ele>
        <time>2022-04-20T12:31:28Z</time>
      </trkpt>
      <trkpt lat="49.96818" lon="2.43219">
        <ele>49.3</ele>
        <time>2022-04-20T12:31:29Z</time>
      </trkpt>
      <trkpt lat="49.9682" lon="2.4322">
        <ele>49.2</ele>
        <time>2022-04-20T12:31:30Z</time>
      </trkpt>
      <trkpt lat="49.96821" lon="2.4322">
        <ele>49.2</ele>
        <time>2022-04-20T12:31:31Z</time>
      </trkpt>
      <trkpt lat="49.96821" lon="2.4322">
        <ele>49.2</ele>
        <time>2022-04-20T12:31:32Z</time>
      </trkpt>
      <trkpt lat="49.96822" lon="2.4322">
        <ele>49.2</ele>
        <time>2022-04-20T12:31:34Z</time>
      </trkpt>
      <trkpt lat="49.96824" lon="2.4322">
        <ele>49.2</ele>
        <time>2022-04-20T12:31:35Z</time>
      </trkpt>
      <trkpt lat="49.96825" lon="2.4322">
        <ele>49.2</ele>
        <time>2022-04-20T12:31:36Z</time>
      </trkpt>
      <trkpt lat="49.96827" lon="2.4322">
        <ele>49.2</ele>
        <time>2022-04-20T12:31:37Z</time>
      </trkpt>
      <trkpt lat="49.96828" lon="2.4322">
        <ele>49.3</ele>
        <time>2022-04-20T12:31:38Z</time>
      </trkpt>
      <trkpt lat="49.96829" lon="2.43221">
        <ele>49.3</ele>
        <time>2022-04-20T12:31:39Z</time>
      </trkpt>
      <trkpt lat="49.9683" lon="2.43221">
        <ele>49.3</ele>
        <time>2022-04-20T12:31:40Z</time>
      </trkpt>
      <trkpt lat="49.96831" lon="2.43221">
        <ele>49.3</ele>
        <time>2022-04-20T12:31:41Z</time>
      </trkpt>
      <trkpt lat="49.96833" lon="2.43221">
        <ele>49.3</ele>
        <time>2022-04-20T12:31:43Z</time>
      </trkpt>
      <trkpt lat="49.96834" lon="2.43221">
        <ele>49.3</ele>
        <time>2022-04-20T12:31:44Z</time>
      </trkpt>
      <trkpt lat="49.96834" lon="2.43221">
        <ele>49.3</ele>
        <time>2022-04-20T12:31:45Z</time>
      </trkpt>
      <trkpt lat="49.96835" lon="2.43221">
        <ele>49.3</ele>
        <time>2022-04-20T12:31:46Z</time>
      </trkpt>
      <trkpt lat="49.96837" lon="2.43221">
        <ele>49.3</ele>
        <time>2022-04-20T12:31:47Z</time>
      </trkpt>
      <trkpt lat="49.96838" lon="2.43221">
        <ele>49.3</ele>
        <time>2022-04-20T12:31:48Z</time>
      </trkpt>
      <trkpt lat="49.96839" lon="2.43221">
        <ele>49.3</ele>
        <time>2022-04-20T12:31:49Z</time>
      </trkpt>
      <trkpt lat="49.9684" lon="2.43222">
        <ele>49.3</ele>
        <time>2022-04-20T12:31:50Z</time>
      </trkpt>
      <trkpt lat="49.96841" lon="2.43222">
        <ele>49.3</ele>
        <time>2022-04-20T12:31:51Z</time>
      </trkpt>
      <trkpt lat="49.96842" lon="2.43222">
        <ele>49.3</ele>
        <time>2022-04-20T12:31:52Z</time>
      </trkpt>
      <trkpt lat="49.96844" lon="2.43223">
        <ele>49.3</ele>
        <time>2022-04-20T12:31:54Z</time>
      </trkpt>
      <trkpt lat="49.96844" lon="2.43223">
        <ele>49.3</ele>
        <time>2022-04-20T12:31:55Z</time>
      </trkpt>
      <trkpt lat="49.96845" lon="2.43223">
        <ele>49.3</ele>
        <time>2022-04-20T12:31:56Z</time>
      </trkpt>
      <trkpt lat="49.96846" lon="2.43223">
        <ele>49.3</ele>
        <time>2022-04-20T12:31:57Z</time>
      </trkpt>
      <trkpt lat="49.96847" lon="2.43224">
        <ele>49.3</ele>
        <time>2022-04-20T12:31:58Z</time>
      </trkpt>
      <trkpt lat="49.96849" lon="2.43224">
        <ele>49.3</ele>
        <time>2022-04-20T12:32:00Z</time>
      </trkpt>
      <trkpt lat="49.9685" lon="2.43224">
        <ele>49.3</ele>
        <time>2022-04-20T12:32:01Z</time>
      </trkpt>
      <trkpt lat="49.9685" lon="2.43224">
        <ele>49.3</ele>
        <time>2022-04-20T12:32:02Z</time>
      </trkpt>
      <trkpt lat="49.96849" lon="2.43223">
        <ele>49.3</ele>
        <time>2022-04-20T12:32:03Z</time>
      </trkpt>
      <trkpt lat="49.9685" lon="2.43223">
        <ele>49.3</ele>
        <time>2022-04-20T12:32:04Z</time>
      </trkpt>
      <trkpt lat="49.96851" lon="2.43223">
        <ele>49.3</ele>
        <time>2022-04-20T12:32:05Z</time>
      </trkpt>
      <trkpt lat="49.96853" lon="2.43222">
        <ele>49.3</ele>
        <time>2022-04-20T12:32:07Z</time>
      </trkpt>
      <trkpt lat="49.96855" lon="2.43222">
        <ele>49.3</ele>
        <time>2022-04-20T12:32:08Z</time>
      </trkpt>
      <trkpt lat="49.96856" lon="2.43222">
        <ele>49.2</ele>
        <time>2022-04-20T12:32:09Z</time>
      </trkpt>
      <trkpt lat="49.96857" lon="2.43222">
        <ele>49.2</ele>
        <time>2022-04-20T12:32:10Z</time>
      </trkpt>
      <trkpt lat="49.96858" lon="2.43222">
        <ele>49.2</ele>
        <time>2022-04-20T12:32:11Z</time>
      </trkpt>
      <trkpt lat="49.96859" lon="2.43223">
        <ele>49.2</ele>
        <time>2022-04-20T12:32:12Z</time>
      </trkpt>
      <trkpt lat="49.96861" lon="2.43225">
        <ele>49.2</ele>
        <time>2022-04-20T12:32:14Z</time>
      </trkpt>
      <trkpt lat="49.96862" lon="2.43225">
        <ele>49.2</ele>
        <time>2022-04-20T12:32:15Z</time>
      </trkpt>
      <trkpt lat="49.96862" lon="2.43226">
        <ele>49.2</ele>
        <time>2022-04-20T12:32:16Z</time>
      </trkpt>
      <trkpt lat="49.96863" lon="2.43227">
        <ele>49.2</ele>
        <time>2022-04-20T12:32:17Z</time>
      </trkpt>
      <trkpt lat="49.96864" lon="2.43228">
        <ele>49.2</ele>
        <time>2022-04-20T12:32:18Z</time>
      </trkpt>
      <trkpt lat="49.96864" lon="2.4323">
        <ele>49.2</ele>
        <time>2022-04-20T12:32:20Z</time>
      </trkpt>
      <trkpt lat="49.96863" lon="2.43231">
        <ele>49.1</ele>
        <time>2022-04-20T12:32:21Z</time>
      </trkpt>
      <trkpt lat="49.96863" lon="2.43231">
        <ele>49.1</ele>
        <time>2022-04-20T12:32:22Z</time>
      </trkpt>
      <trkpt lat="49.96862" lon="2.43231">
        <ele>49.1</ele>
        <time>2022-04-20T12:32:23Z</time>
      </trkpt>
      <trkpt lat="49.96861" lon="2.43231">
        <ele>49.1</ele>
        <time>2022-04-20T12:32:24Z</time>
      </trkpt>
      <trkpt lat="49.96861" lon="2.43231">
        <ele>49.1</ele>
        <time>2022-04-20T12:32:25Z</time>
      </trkpt>
      <trkpt lat="49.96861" lon="2.43231">
        <ele>49.1</ele>
        <time>2022-04-20T12:32:26Z</time>
      </trkpt>
      <trkpt lat="49.96861" lon="2.43231">
        <ele>49.1</ele>
        <time>2022-04-20T12:32:27Z</time>
      </trkpt>
      <trkpt lat="49.96861" lon="2.4323">
        <ele>49.1</ele>
        <time>2022-04-20T12:32:28Z</time>
      </trkpt>
      <trkpt lat="49.9686" lon="2.4323">
        <ele>49.1</ele>
        <time>2022-04-20T12:32:29Z</time>
      </trkpt>
      <trkpt lat="49.9686" lon="2.4323">
        <ele>49.1</ele>
        <time>2022-04-20T12:32:30Z</time>
      </trkpt>
      <trkpt lat="49.9686" lon="2.4323">
        <ele>49.1</ele>
        <time>2022-04-20T12:32:31Z</time>
      </trkpt>
      <trkpt lat="49.9686" lon="2.4323">
        <ele>49.1</ele>
        <time>2022-04-20T12:32:32Z</time>
      </trkpt>
      <trkpt lat="49.9686" lon="2.4323">
        <ele>49.1</ele>
        <time>2022-04-20T12:32:34Z</time>
      </trkpt>
      <trkpt lat="49.9686" lon="2.4323">
        <ele>49.1</ele>
        <time>2022-04-20T12:32:35Z</time>
      </trkpt>
      <trkpt lat="49.9686" lon="2.4323">
        <ele>49.1</ele>
        <time>2022-04-20T12:32:36Z</time>
      </trkpt>
      <trkpt lat="49.9686" lon="2.43229">
        <ele>49.1</ele>
        <time>2022-04-20T12:32:37Z</time>
      </trkpt>
      <trkpt lat="49.96861" lon="2.43229">
        <ele>49.1</ele>
        <time>2022-04-20T12:32:38Z</time>
      </trkpt>
      <trkpt lat="49.96862" lon="2.43229">
        <ele>49.2</ele>
        <time>2022-04-20T12:32:39Z</time>
      </trkpt>
      <trkpt lat="49.96862" lon="2.43229">
        <ele>49.2</ele>
        <time>2022-04-20T12:32:41Z</time>
      </trkpt>
      <trkpt lat="49.96863" lon="2.43228">
        <ele>49.2</ele>
        <time>2022-04-20T12:32:42Z</time>
      </trkpt>
      <trkpt lat="49.96864" lon="2.43228">
        <ele>49.2</ele>
        <time>2022-04-20T12:32:43Z</time>
      </trkpt>
      <trkpt lat="49.96865" lon="2.43228">
        <ele>49.2</ele>
        <time>2022-04-20T12:32:44Z</time>
      </trkpt>
      <trkpt lat="49.96866" lon="2.43227">
        <ele>49.2</ele>
        <time>2022-04-20T12:32:45Z</time>
      </trkpt>
      <trkpt lat="49.96867" lon="2.43227">
        <ele>49.2</ele>
        <time>2022-04-20T12:32:46Z</time>
      </trkpt>
      <trkpt lat="49.96869" lon="2.43226">
        <ele>49.2</ele>
        <time>2022-04-20T12:32:48Z</time>
      </trkpt>
      <trkpt lat="49.9687" lon="2.43224">
        <ele>49.2</ele>
        <time>2022-04-20T12:32:49Z</time>
      </trkpt>
      <trkpt lat="49.96872" lon="2.43223">
        <ele>49.2</ele>
        <time>2022-04-20T12:32:50Z</time>
      </trkpt>
      <trkpt lat="49.96873" lon="2.43222">
        <ele>49.2</ele>
        <time>2022-04-20T12:32:51Z</time>
      </trkpt>
      <trkpt lat="49.96875" lon="2.43221">
        <ele>49.2</ele>
        <time>2022-04-20T12:32:52Z</time>
      </trkpt>
      <trkpt lat="49.96876" lon="2.4322">
        <ele>49.2</ele>
        <time>2022-04-20T12:32:53Z</time>
      </trkpt>
      <trkpt lat="49.96877" lon="2.43218">
        <ele>49.2</ele>
        <time>2022-04-20T12:32:54Z</time>
      </trkpt>
      <trkpt lat="49.96878" lon="2.43217">
        <ele>49.2</ele>
        <time>2022-04-20T12:32:55Z</time>
      </trkpt>
      <trkpt lat="49.9688" lon="2.43215">
        <ele>49.2</ele>
        <time>2022-04-20T12:32:56Z</time>
      </trkpt>
      <trkpt lat="49.96881" lon="2.43215">
        <ele>49.2</ele>
        <time>2022-04-20T12:32:57Z</time>
      </trkpt>
      <trkpt lat="49.96882" lon="2.43215">
        <ele>49.2</ele>
        <time>2022-04-20T12:32:58Z</time>
      </trkpt>
      <trkpt lat="49.96884" lon="2.43211">
        <ele>49.2</ele>
        <time>2022-04-20T12:33:00Z</time>
      </trkpt>
      <trkpt lat="49.96885" lon="2.43211">
        <ele>49.2</ele>
        <time>2022-04-20T12:33:01Z</time>
      </trkpt>
      <trkpt lat="49.96885" lon="2.43209">
        <ele>49.1</ele>
        <time>2022-04-20T12:33:02Z</time>
      </trkpt>
      <trkpt lat="49.96886" lon="2.43207">
        <ele>49.1</ele>
        <time>2022-04-20T12:33:03Z</time>
      </trkpt>
      <trkpt lat="49.96888" lon="2.43203">
        <ele>49.1</ele>
        <time>2022-04-20T12:33:04Z</time>
      </trkpt>
      <trkpt lat="49.96888" lon="2.43202">
        <ele>49.1</ele>
        <time>2022-04-20T12:33:05Z</time>
      </trkpt>
      <trkpt lat="49.96889" lon="2.43201">
        <ele>49.1</ele>
        <time>2022-04-20T12:33:07Z</time>
      </trkpt>
      <trkpt lat="49.9689" lon="2.432">
        <ele>49.1</ele>
        <time>2022-04-20T12:33:08Z</time>
      </trkpt>
      <trkpt lat="49.96891" lon="2.432">
        <ele>49.1</ele>
        <time>2022-04-20T12:33:09Z</time>
      </trkpt>
      <trkpt lat="49.96893" lon="2.43201">
        <ele>49.1</ele>
        <time>2022-04-20T12:33:10Z</time>
      </trkpt>
      <trkpt lat="49.96894" lon="2.43202">
        <ele>49</ele>
        <time>2022-04-20T12:33:11Z</time>
      </trkpt>
      <trkpt lat="49.96896" lon="2.43202">
        <ele>49</ele>
        <time>2022-04-20T12:33:12Z</time>
      </trkpt>
      <trkpt lat="49.96897" lon="2.43202">
        <ele>49</ele>
        <time>2022-04-20T12:33:13Z</time>
      </trkpt>
      <trkpt lat="49.96898" lon="2.43202">
        <ele>49</ele>
        <time>2022-04-20T12:33:14Z</time>
      </trkpt>
      <trkpt lat="49.969" lon="2.43202">
        <ele>49</ele>
        <time>2022-04-20T12:33:15Z</time>
      </trkpt>
      <trkpt lat="49.96901" lon="2.43202">
        <ele>49</ele>
        <time>2022-04-20T12:33:16Z</time>
      </trkpt>
      <trkpt lat="49.96903" lon="2.43202">
        <ele>49</ele>
        <time>2022-04-20T12:33:17Z</time>
      </trkpt>
      <trkpt lat="49.96904" lon="2.43202">
        <ele>49</ele>
        <time>2022-04-20T12:33:18Z</time>
      </trkpt>
      <trkpt lat="49.96906" lon="2.43202">
        <ele>49</ele>
        <time>2022-04-20T12:33:19Z</time>
      </trkpt>
      <trkpt lat="49.96907" lon="2.43202">
        <ele>49</ele>
        <time>2022-04-20T12:33:20Z</time>
      </trkpt>
      <trkpt lat="49.96909" lon="2.43203">
        <ele>49</ele>
        <time>2022-04-20T12:33:21Z</time>
      </trkpt>
      <trkpt lat="49.9691" lon="2.43203">
        <ele>49</ele>
        <time>2022-04-20T12:33:22Z</time>
      </trkpt>
      <trkpt lat="49.96912" lon="2.43204">
        <ele>49</ele>
        <time>2022-04-20T12:33:23Z</time>
      </trkpt>
      <trkpt lat="49.96913" lon="2.43204">
        <ele>49</ele>
        <time>2022-04-20T12:33:25Z</time>
      </trkpt>
      <trkpt lat="49.96915" lon="2.43204">
        <ele>49</ele>
        <time>2022-04-20T12:33:26Z</time>
      </trkpt>
      <trkpt lat="49.96916" lon="2.43204">
        <ele>49</ele>
        <time>2022-04-20T12:33:27Z</time>
      </trkpt>
      <trkpt lat="49.96919" lon="2.43205">
        <ele>49</ele>
        <time>2022-04-20T12:33:28Z</time>
      </trkpt>
      <trkpt lat="49.96919" lon="2.43205">
        <ele>49</ele>
        <time>2022-04-20T12:33:29Z</time>
      </trkpt>
      <trkpt lat="49.9692" lon="2.43205">
        <ele>49</ele>
        <time>2022-04-20T12:33:30Z</time>
      </trkpt>
      <trkpt lat="49.96922" lon="2.43205">
        <ele>49</ele>
        <time>2022-04-20T12:33:31Z</time>
      </trkpt>
      <trkpt lat="49.96923" lon="2.43205">
        <ele>49</ele>
        <time>2022-04-20T12:33:32Z</time>
      </trkpt>
      <trkpt lat="49.96925" lon="2.43205">
        <ele>49</ele>
        <time>2022-04-20T12:33:33Z</time>
      </trkpt>
      <trkpt lat="49.96926" lon="2.43205">
        <ele>49</ele>
        <time>2022-04-20T12:33:34Z</time>
      </trkpt>
      <trkpt lat="49.96928" lon="2.43205">
        <ele>49</ele>
        <time>2022-04-20T12:33:36Z</time>
      </trkpt>
      <trkpt lat="49.96929" lon="2.43205">
        <ele>49</ele>
        <time>2022-04-20T12:33:37Z</time>
      </trkpt>
      <trkpt lat="49.96931" lon="2.43205">
        <ele>49.1</ele>
        <time>2022-04-20T12:33:38Z</time>
      </trkpt>
      <trkpt lat="49.96932" lon="2.43205">
        <ele>49.1</ele>
        <time>2022-04-20T12:33:39Z</time>
      </trkpt>
      <trkpt lat="49.96933" lon="2.43205">
        <ele>49.1</ele>
        <time>2022-04-20T12:33:40Z</time>
      </trkpt>
      <trkpt lat="49.96934" lon="2.43204">
        <ele>49.1</ele>
        <time>2022-04-20T12:33:41Z</time>
      </trkpt>
      <trkpt lat="49.96936" lon="2.43204">
        <ele>49.1</ele>
        <time>2022-04-20T12:33:42Z</time>
      </trkpt>
      <trkpt lat="49.96938" lon="2.43203">
        <ele>49.1</ele>
        <time>2022-04-20T12:33:43Z</time>
      </trkpt>
      <trkpt lat="49.96938" lon="2.43203">
        <ele>49.1</ele>
        <time>2022-04-20T12:33:44Z</time>
      </trkpt>
      <trkpt lat="49.96939" lon="2.43203">
        <ele>49.1</ele>
        <time>2022-04-20T12:33:45Z</time>
      </trkpt>
      <trkpt lat="49.96941" lon="2.43202">
        <ele>49.1</ele>
        <time>2022-04-20T12:33:46Z</time>
      </trkpt>
      <trkpt lat="49.96942" lon="2.43202">
        <ele>49.1</ele>
        <time>2022-04-20T12:33:47Z</time>
      </trkpt>
      <trkpt lat="49.96943" lon="2.43202">
        <ele>49.1</ele>
        <time>2022-04-20T12:33:48Z</time>
      </trkpt>
      <trkpt lat="49.96945" lon="2.43203">
        <ele>49.1</ele>
        <time>2022-04-20T12:33:49Z</time>
      </trkpt>
      <trkpt lat="49.96947" lon="2.43202">
        <ele>49.1</ele>
        <time>2022-04-20T12:33:50Z</time>
      </trkpt>
      <trkpt lat="49.96948" lon="2.43202">
        <ele>49.1</ele>
        <time>2022-04-20T12:33:51Z</time>
      </trkpt>
      <trkpt lat="49.96949" lon="2.43202">
        <ele>49.1</ele>
        <time>2022-04-20T12:33:52Z</time>
      </trkpt>
      <trkpt lat="49.96951" lon="2.43202">
        <ele>49.1</ele>
        <time>2022-04-20T12:33:53Z</time>
      </trkpt>
      <trkpt lat="49.96952" lon="2.43202">
        <ele>49.1</ele>
        <time>2022-04-20T12:33:55Z</time>
      </trkpt>
      <trkpt lat="49.96953" lon="2.43202">
        <ele>49.1</ele>
        <time>2022-04-20T12:33:56Z</time>
      </trkpt>
      <trkpt lat="49.96954" lon="2.43202">
        <ele>49.1</ele>
        <time>2022-04-20T12:33:57Z</time>
      </trkpt>
      <trkpt lat="49.96955" lon="2.43202">
        <ele>49.1</ele>
        <time>2022-04-20T12:33:58Z</time>
      </trkpt>
      <trkpt lat="49.96957" lon="2.43202">
        <ele>49.1</ele>
        <time>2022-04-20T12:33:59Z</time>
      </trkpt>
      <trkpt lat="49.96958" lon="2.43202">
        <ele>49.1</ele>
        <time>2022-04-20T12:34:00Z</time>
      </trkpt>
      <trkpt lat="49.96959" lon="2.43202">
        <ele>49.1</ele>
        <time>2022-04-20T12:34:01Z</time>
      </trkpt>
      <trkpt lat="49.96961" lon="2.43202">
        <ele>49.1</ele>
        <time>2022-04-20T12:34:02Z</time>
      </trkpt>
      <trkpt lat="49.96962" lon="2.43202">
        <ele>49.1</ele>
        <time>2022-04-20T12:34:03Z</time>
      </trkpt>
      <trkpt lat="49.96963" lon="2.43202">
        <ele>49.1</ele>
        <time>2022-04-20T12:34:04Z</time>
      </trkpt>
      <trkpt lat="49.96964" lon="2.43202">
        <ele>49.1</ele>
        <time>2022-04-20T12:34:05Z</time>
      </trkpt>
      <trkpt lat="49.96966" lon="2.43202">
        <ele>49.1</ele>
        <time>2022-04-20T12:34:06Z</time>
      </trkpt>
      <trkpt lat="49.96968" lon="2.43202">
        <ele>49.1</ele>
        <time>2022-04-20T12:34:08Z</time>
      </trkpt>
      <trkpt lat="49.96969" lon="2.43202">
        <ele>49.1</ele>
        <time>2022-04-20T12:34:09Z</time>
      </trkpt>
      <trkpt lat="49.9697" lon="2.43202">
        <ele>49.1</ele>
        <time>2022-04-20T12:34:10Z</time>
      </trkpt>
      <trkpt lat="49.96972" lon="2.43202">
        <ele>49.1</ele>
        <time>2022-04-20T12:34:11Z</time>
      </trkpt>
      <trkpt lat="49.96973" lon="2.43201">
        <ele>49.1</ele>
        <time>2022-04-20T12:34:12Z</time>
      </trkpt>
      <trkpt lat="49.96975" lon="2.43201">
        <ele>49.1</ele>
        <time>2022-04-20T12:34:13Z</time>
      </trkpt>
      <trkpt lat="49.96976" lon="2.43201">
        <ele>49.1</ele>
        <time>2022-04-20T12:34:14Z</time>
      </trkpt>
      <trkpt lat="49.96977" lon="2.43201">
        <ele>49.1</ele>
        <time>2022-04-20T12:34:15Z</time>
      </trkpt>
      <trkpt lat="49.96979" lon="2.43201">
        <ele>49.1</ele>
        <time>2022-04-20T12:34:16Z</time>
      </trkpt>
      <trkpt lat="49.9698" lon="2.432">
        <ele>49.1</ele>
        <time>2022-04-20T12:34:17Z</time>
      </trkpt>
      <trkpt lat="49.96981" lon="2.432">
        <ele>49.1</ele>
        <time>2022-04-20T12:34:18Z</time>
      </trkpt>
      <trkpt lat="49.96983" lon="2.432">
        <ele>49.2</ele>
        <time>2022-04-20T12:34:20Z</time>
      </trkpt>
      <trkpt lat="49.96984" lon="2.432">
        <ele>49.2</ele>
        <time>2022-04-20T12:34:21Z</time>
      </trkpt>
      <trkpt lat="49.96986" lon="2.432">
        <ele>49.2</ele>
        <time>2022-04-20T12:34:22Z</time>
      </trkpt>
      <trkpt lat="49.96987" lon="2.43198">
        <ele>49.2</ele>
        <time>2022-04-20T12:34:23Z</time>
      </trkpt>
      <trkpt lat="49.96988" lon="2.43198">
        <ele>49.2</ele>
        <time>2022-04-20T12:34:24Z</time>
      </trkpt>
      <trkpt lat="49.96989" lon="2.43197">
        <ele>49.2</ele>
        <time>2022-04-20T12:34:25Z</time>
      </trkpt>
      <trkpt lat="49.96991" lon="2.43197">
        <ele>49.2</ele>
        <time>2022-04-20T12:34:26Z</time>
      </trkpt>
      <trkpt lat="49.96993" lon="2.43197">
        <ele>49.2</ele>
        <time>2022-04-20T12:34:27Z</time>
      </trkpt>
      <trkpt lat="49.96994" lon="2.43197">
        <ele>49.2</ele>
        <time>2022-04-20T12:34:28Z</time>
      </trkpt>
      <trkpt lat="49.96996" lon="2.43198">
        <ele>49.2</ele>
        <time>2022-04-20T12:34:30Z</time>
      </trkpt>
      <trkpt lat="49.96997" lon="2.43198">
        <ele>49.2</ele>
        <time>2022-04-20T12:34:31Z</time>
      </trkpt>
      <trkpt lat="49.96999" lon="2.43198">
        <ele>49.2</ele>
        <time>2022-04-20T12:34:32Z</time>
      </trkpt>
      <trkpt lat="49.97" lon="2.43199">
        <ele>49.2</ele>
        <time>2022-04-20T12:34:33Z</time>
      </trkpt>
      <trkpt lat="49.97001" lon="2.43199">
        <ele>49.2</ele>
        <time>2022-04-20T12:34:34Z</time>
      </trkpt>
      <trkpt lat="49.97002" lon="2.43199">
        <ele>49.2</ele>
        <time>2022-04-20T12:34:35Z</time>
      </trkpt>
      <trkpt lat="49.97003" lon="2.43199">
        <ele>49.2</ele>
        <time>2022-04-20T12:34:36Z</time>
      </trkpt>
      <trkpt lat="49.97004" lon="2.43199">
        <ele>49.2</ele>
        <time>2022-04-20T12:34:37Z</time>
      </trkpt>
      <trkpt lat="49.97006" lon="2.43199">
        <ele>49.2</ele>
        <time>2022-04-20T12:34:38Z</time>
      </trkpt>
      <trkpt lat="49.97007" lon="2.43199">
        <ele>49.2</ele>
        <time>2022-04-20T12:34:39Z</time>
      </trkpt>
      <trkpt lat="49.97008" lon="2.43199">
        <ele>49.2</ele>
        <time>2022-04-20T12:34:40Z</time>
      </trkpt>
      <trkpt lat="49.9701" lon="2.43199">
        <ele>49.2</ele>
        <time>2022-04-20T12:34:42Z</time>
      </trkpt>
      <trkpt lat="49.97011" lon="2.43199">
        <ele>49.2</ele>
        <time>2022-04-20T12:34:43Z</time>
      </trkpt>
      <trkpt lat="49.97012" lon="2.43199">
        <ele>49.2</ele>
        <time>2022-04-20T12:34:44Z</time>
      </trkpt>
      <trkpt lat="49.97013" lon="2.43199">
        <ele>49.2</ele>
        <time>2022-04-20T12:34:45Z</time>
      </trkpt>
      <trkpt lat="49.97014" lon="2.43199">
        <ele>49.2</ele>
        <time>2022-04-20T12:34:46Z</time>
      </trkpt>
      <trkpt lat="49.97015" lon="2.432">
        <ele>49.2</ele>
        <time>2022-04-20T12:34:47Z</time>
      </trkpt>
      <trkpt lat="49.97017" lon="2.432">
        <ele>49.2</ele>
        <time>2022-04-20T12:34:48Z</time>
      </trkpt>
      <trkpt lat="49.97018" lon="2.43201">
        <ele>49.2</ele>
        <time>2022-04-20T12:34:49Z</time>
      </trkpt>
      <trkpt lat="49.97019" lon="2.43201">
        <ele>49.2</ele>
        <time>2022-04-20T12:34:50Z</time>
      </trkpt>
      <trkpt lat="49.9702" lon="2.43201">
        <ele>49.2</ele>
        <time>2022-04-20T12:34:51Z</time>
      </trkpt>
      <trkpt lat="49.97022" lon="2.43201">
        <ele>49.2</ele>
        <time>2022-04-20T12:34:53Z</time>
      </trkpt>
      <trkpt lat="49.97023" lon="2.43201">
        <ele>49.2</ele>
        <time>2022-04-20T12:34:54Z</time>
      </trkpt>
      <trkpt lat="49.97024" lon="2.43201">
        <ele>49.2</ele>
        <time>2022-04-20T12:34:55Z</time>
      </trkpt>
      <trkpt lat="49.97025" lon="2.43202">
        <ele>49.2</ele>
        <time>2022-04-20T12:34:56Z</time>
      </trkpt>
      <trkpt lat="49.97027" lon="2.43201">
        <ele>49.2</ele>
        <time>2022-04-20T12:34:57Z</time>
      </trkpt>
      <trkpt lat="49.97028" lon="2.43201">
        <ele>49.2</ele>
        <time>2022-04-20T12:34:58Z</time>
      </trkpt>
      <trkpt lat="49.97029" lon="2.43201">
        <ele>49.2</ele>
        <time>2022-04-20T12:34:59Z</time>
      </trkpt>
      <trkpt lat="49.9703" lon="2.43201">
        <ele>49.2</ele>
        <time>2022-04-20T12:35:00Z</time>
      </trkpt>
      <trkpt lat="49.97031" lon="2.43201">
        <ele>49.2</ele>
        <time>2022-04-20T12:35:01Z</time>
      </trkpt>
      <trkpt lat="49.97032" lon="2.43201">
        <ele>49.2</ele>
        <time>2022-04-20T12:35:03Z</time>
      </trkpt>
      <trkpt lat="49.97033" lon="2.43201">
        <ele>49.2</ele>
        <time>2022-04-20T12:35:04Z</time>
      </trkpt>
      <trkpt lat="49.97034" lon="2.432">
        <ele>49.3</ele>
        <time>2022-04-20T12:35:05Z</time>
      </trkpt>
      <trkpt lat="49.97035" lon="2.432">
        <ele>49.3</ele>
        <time>2022-04-20T12:35:06Z</time>
      </trkpt>
      <trkpt lat="49.97036" lon="2.432">
        <ele>49.3</ele>
        <time>2022-04-20T12:35:07Z</time>
      </trkpt>
      <trkpt lat="49.97037" lon="2.432">
        <ele>49.3</ele>
        <time>2022-04-20T12:35:08Z</time>
      </trkpt>
      <trkpt lat="49.97038" lon="2.432">
        <ele>49.3</ele>
        <time>2022-04-20T12:35:09Z</time>
      </trkpt>
      <trkpt lat="49.97039" lon="2.432">
        <ele>49.3</ele>
        <time>2022-04-20T12:35:10Z</time>
      </trkpt>
      <trkpt lat="49.97041" lon="2.43201">
        <ele>49.3</ele>
        <time>2022-04-20T12:35:11Z</time>
      </trkpt>
      <trkpt lat="49.97042" lon="2.43201">
        <ele>49.3</ele>
        <time>2022-04-20T12:35:12Z</time>
      </trkpt>
      <trkpt lat="49.97043" lon="2.43202">
        <ele>49.3</ele>
        <time>2022-04-20T12:35:13Z</time>
      </trkpt>
      <trkpt lat="49.97044" lon="2.43202">
        <ele>49.3</ele>
        <time>2022-04-20T12:35:14Z</time>
      </trkpt>
      <trkpt lat="49.97045" lon="2.43203">
        <ele>49.3</ele>
        <time>2022-04-20T12:35:15Z</time>
      </trkpt>
      <trkpt lat="49.97046" lon="2.43203">
        <ele>49.3</ele>
        <time>2022-04-20T12:35:16Z</time>
      </trkpt>
      <trkpt lat="49.97047" lon="2.43203">
        <ele>49.3</ele>
        <time>2022-04-20T12:35:17Z</time>
      </trkpt>
      <trkpt lat="49.97049" lon="2.43203">
        <ele>49.3</ele>
        <time>2022-04-20T12:35:19Z</time>
      </trkpt>
      <trkpt lat="49.97049" lon="2.43203">
        <ele>49.3</ele>
        <time>2022-04-20T12:35:20Z</time>
      </trkpt>
      <trkpt lat="49.9705" lon="2.43203">
        <ele>49.3</ele>
        <time>2022-04-20T12:35:21Z</time>
      </trkpt>
      <trkpt lat="49.97051" lon="2.43203">
        <ele>49.3</ele>
        <time>2022-04-20T12:35:22Z</time>
      </trkpt>
      <trkpt lat="49.97053" lon="2.43203">
        <ele>49.3</ele>
        <time>2022-04-20T12:35:23Z</time>
      </trkpt>
      <trkpt lat="49.97054" lon="2.43203">
        <ele>49.3</ele>
        <time>2022-04-20T12:35:24Z</time>
      </trkpt>
      <trkpt lat="49.97056" lon="2.43204">
        <ele>49.3</ele>
        <time>2022-04-20T12:35:25Z</time>
      </trkpt>
      <trkpt lat="49.97056" lon="2.43204">
        <ele>49.3</ele>
        <time>2022-04-20T12:35:26Z</time>
      </trkpt>
      <trkpt lat="49.97057" lon="2.43204">
        <ele>49.3</ele>
        <time>2022-04-20T12:35:27Z</time>
      </trkpt>
      <trkpt lat="49.97059" lon="2.43204">
        <ele>49.3</ele>
        <time>2022-04-20T12:35:28Z</time>
      </trkpt>
      <trkpt lat="49.9706" lon="2.43204">
        <ele>49.3</ele>
        <time>2022-04-20T12:35:29Z</time>
      </trkpt>
      <trkpt lat="49.97061" lon="2.43204">
        <ele>49.2</ele>
        <time>2022-04-20T12:35:30Z</time>
      </trkpt>
      <trkpt lat="49.97062" lon="2.43204">
        <ele>49.2</ele>
        <time>2022-04-20T12:35:31Z</time>
      </trkpt>
      <trkpt lat="49.97063" lon="2.43204">
        <ele>49.2</ele>
        <time>2022-04-20T12:35:32Z</time>
      </trkpt>
      <trkpt lat="49.97064" lon="2.43205">
        <ele>49.2</ele>
        <time>2022-04-20T12:35:34Z</time>
      </trkpt>
      <trkpt lat="49.97066" lon="2.43205">
        <ele>49.2</ele>
        <time>2022-04-20T12:35:35Z</time>
      </trkpt>
      <trkpt lat="49.97067" lon="2.43205">
        <ele>49.2</ele>
        <time>2022-04-20T12:35:36Z</time>
      </trkpt>
      <trkpt lat="49.97069" lon="2.43206">
        <ele>49.2</ele>
        <time>2022-04-20T12:35:37Z</time>
      </trkpt>
      <trkpt lat="49.9707" lon="2.43206">
        <ele>49.2</ele>
        <time>2022-04-20T12:35:38Z</time>
      </trkpt>
      <trkpt lat="49.97071" lon="2.43206">
        <ele>49.2</ele>
        <time>2022-04-20T12:35:39Z</time>
      </trkpt>
      <trkpt lat="49.97073" lon="2.43206">
        <ele>49.2</ele>
        <time>2022-04-20T12:35:40Z</time>
      </trkpt>
      <trkpt lat="49.97074" lon="2.43206">
        <ele>49.2</ele>
        <time>2022-04-20T12:35:41Z</time>
      </trkpt>
      <trkpt lat="49.97076" lon="2.43206">
        <ele>49.2</ele>
        <time>2022-04-20T12:35:42Z</time>
      </trkpt>
      <trkpt lat="49.97078" lon="2.43206">
        <ele>49.2</ele>
        <time>2022-04-20T12:35:43Z</time>
      </trkpt>
      <trkpt lat="49.97079" lon="2.43206">
        <ele>49.2</ele>
        <time>2022-04-20T12:35:44Z</time>
      </trkpt>
      <trkpt lat="49.97079" lon="2.43207">
        <ele>49.3</ele>
        <time>2022-04-20T12:35:45Z</time>
      </trkpt>
      <trkpt lat="49.97082" lon="2.43207">
        <ele>49.3</ele>
        <time>2022-04-20T12:35:47Z</time>
      </trkpt>
      <trkpt lat="49.97082" lon="2.43207">
        <ele>49.3</ele>
        <time>2022-04-20T12:35:48Z</time>
      </trkpt>
      <trkpt lat="49.97083" lon="2.43207">
        <ele>49.3</ele>
        <time>2022-04-20T12:35:49Z</time>
      </trkpt>
      <trkpt lat="49.97085" lon="2.43207">
        <ele>49.3</ele>
        <time>2022-04-20T12:35:50Z</time>
      </trkpt>
      <trkpt lat="49.97086" lon="2.43207">
        <ele>49.3</ele>
        <time>2022-04-20T12:35:51Z</time>
      </trkpt>
      <trkpt lat="49.97087" lon="2.43207">
        <ele>49.3</ele>
        <time>2022-04-20T12:35:52Z</time>
      </trkpt>
      <trkpt lat="49.97089" lon="2.43207">
        <ele>49.4</ele>
        <time>2022-04-20T12:35:53Z</time>
      </trkpt>
      <trkpt lat="49.9709" lon="2.43207">
        <ele>49.4</ele>
        <time>2022-04-20T12:35:54Z</time>
      </trkpt>
      <trkpt lat="49.97092" lon="2.43208">
        <ele>49.4</ele>
        <time>2022-04-20T12:35:56Z</time>
      </trkpt>
      <trkpt lat="49.97093" lon="2.43208">
        <ele>49.4</ele>
        <time>2022-04-20T12:35:57Z</time>
      </trkpt>
      <trkpt lat="49.97095" lon="2.43208">
        <ele>49.5</ele>
        <time>2022-04-20T12:35:58Z</time>
      </trkpt>
      <trkpt lat="49.97096" lon="2.43208">
        <ele>49.5</ele>
        <time>2022-04-20T12:35:59Z</time>
      </trkpt>
      <trkpt lat="49.97097" lon="2.43208">
        <ele>49.5</ele>
        <time>2022-04-20T12:36:00Z</time>
      </trkpt>
      <trkpt lat="49.97099" lon="2.43208">
        <ele>49.5</ele>
        <time>2022-04-20T12:36:01Z</time>
      </trkpt>
      <trkpt lat="49.971" lon="2.43208">
        <ele>49.5</ele>
        <time>2022-04-20T12:36:03Z</time>
      </trkpt>
      <trkpt lat="49.97102" lon="2.43208">
        <ele>49.5</ele>
        <time>2022-04-20T12:36:04Z</time>
      </trkpt>
      <trkpt lat="49.97103" lon="2.43208">
        <ele>49.6</ele>
        <time>2022-04-20T12:36:05Z</time>
      </trkpt>
      <trkpt lat="49.97104" lon="2.43209">
        <ele>49.6</ele>
        <time>2022-04-20T12:36:06Z</time>
      </trkpt>
      <trkpt lat="49.97106" lon="2.43209">
        <ele>49.6</ele>
        <time>2022-04-20T12:36:07Z</time>
      </trkpt>
      <trkpt lat="49.97108" lon="2.43208">
        <ele>49.6</ele>
        <time>2022-04-20T12:36:08Z</time>
      </trkpt>
      <trkpt lat="49.97109" lon="2.43208">
        <ele>49.6</ele>
        <time>2022-04-20T12:36:09Z</time>
      </trkpt>
      <trkpt lat="49.97109" lon="2.43208">
        <ele>49.6</ele>
        <time>2022-04-20T12:36:10Z</time>
      </trkpt>
      <trkpt lat="49.97111" lon="2.43208">
        <ele>49.6</ele>
        <time>2022-04-20T12:36:11Z</time>
      </trkpt>
      <trkpt lat="49.97112" lon="2.43208">
        <ele>49.6</ele>
        <time>2022-04-20T12:36:12Z</time>
      </trkpt>
      <trkpt lat="49.97115" lon="2.43208">
        <ele>49.7</ele>
        <time>2022-04-20T12:36:13Z</time>
      </trkpt>
      <trkpt lat="49.97115" lon="2.43208">
        <ele>49.7</ele>
        <time>2022-04-20T12:36:14Z</time>
      </trkpt>
      <trkpt lat="49.97116" lon="2.43208">
        <ele>49.7</ele>
        <time>2022-04-20T12:36:15Z</time>
      </trkpt>
      <trkpt lat="49.97118" lon="2.43208">
        <ele>49.7</ele>
        <time>2022-04-20T12:36:16Z</time>
      </trkpt>
      <trkpt lat="49.97119" lon="2.43208">
        <ele>49.7</ele>
        <time>2022-04-20T12:36:18Z</time>
      </trkpt>
      <trkpt lat="49.9712" lon="2.43208">
        <ele>49.7</ele>
        <time>2022-04-20T12:36:19Z</time>
      </trkpt>
      <trkpt lat="49.97121" lon="2.43208">
        <ele>49.7</ele>
        <time>2022-04-20T12:36:20Z</time>
      </trkpt>
      <trkpt lat="49.97122" lon="2.43208">
        <ele>49.7</ele>
        <time>2022-04-20T12:36:21Z</time>
      </trkpt>
      <trkpt lat="49.97123" lon="2.43208">
        <ele>49.7</ele>
        <time>2022-04-20T12:36:22Z</time>
      </trkpt>
      <trkpt lat="49.97124" lon="2.43209">
        <ele>49.7</ele>
        <time>2022-04-20T12:36:23Z</time>
      </trkpt>
      <trkpt lat="49.97126" lon="2.43209">
        <ele>49.8</ele>
        <time>2022-04-20T12:36:24Z</time>
      </trkpt>
      <trkpt lat="49.97127" lon="2.43209">
        <ele>49.8</ele>
        <time>2022-04-20T12:36:25Z</time>
      </trkpt>
      <trkpt lat="49.97128" lon="2.43209">
        <ele>49.8</ele>
        <time>2022-04-20T12:36:26Z</time>
      </trkpt>
      <trkpt lat="49.97129" lon="2.43209">
        <ele>49.8</ele>
        <time>2022-04-20T12:36:27Z</time>
      </trkpt>
      <trkpt lat="49.9713" lon="2.43209">
        <ele>49.8</ele>
        <time>2022-04-20T12:36:28Z</time>
      </trkpt>
      <trkpt lat="49.97132" lon="2.43209">
        <ele>49.8</ele>
        <time>2022-04-20T12:36:29Z</time>
      </trkpt>
      <trkpt lat="49.97133" lon="2.43209">
        <ele>49.8</ele>
        <time>2022-04-20T12:36:30Z</time>
      </trkpt>
      <trkpt lat="49.97134" lon="2.43209">
        <ele>49.8</ele>
        <time>2022-04-20T12:36:32Z</time>
      </trkpt>
      <trkpt lat="49.97135" lon="2.43209">
        <ele>49.8</ele>
        <time>2022-04-20T12:36:33Z</time>
      </trkpt>
      <trkpt lat="49.97136" lon="2.43209">
        <ele>49.8</ele>
        <time>2022-04-20T12:36:34Z</time>
      </trkpt>
      <trkpt lat="49.97137" lon="2.43209">
        <ele>49.8</ele>
        <time>2022-04-20T12:36:35Z</time>
      </trkpt>
      <trkpt lat="49.97138" lon="2.43209">
        <ele>49.9</ele>
        <time>2022-04-20T12:36:36Z</time>
      </trkpt>
      <trkpt lat="49.97139" lon="2.43209">
        <ele>49.9</ele>
        <time>2022-04-20T12:36:37Z</time>
      </trkpt>
      <trkpt lat="49.97141" lon="2.43209">
        <ele>49.9</ele>
        <time>2022-04-20T12:36:38Z</time>
      </trkpt>
      <trkpt lat="49.97142" lon="2.43209">
        <ele>49.9</ele>
        <time>2022-04-20T12:36:39Z</time>
      </trkpt>
      <trkpt lat="49.97143" lon="2.43209">
        <ele>49.9</ele>
        <time>2022-04-20T12:36:40Z</time>
      </trkpt>
      <trkpt lat="49.97144" lon="2.43209">
        <ele>49.9</ele>
        <time>2022-04-20T12:36:41Z</time>
      </trkpt>
      <trkpt lat="49.97145" lon="2.43209">
        <ele>49.9</ele>
        <time>2022-04-20T12:36:42Z</time>
      </trkpt>
      <trkpt lat="49.97146" lon="2.43209">
        <ele>49.9</ele>
        <time>2022-04-20T12:36:43Z</time>
      </trkpt>
      <trkpt lat="49.97148" lon="2.43209">
        <ele>49.9</ele>
        <time>2022-04-20T12:36:45Z</time>
      </trkpt>
      <trkpt lat="49.97149" lon="2.43209">
        <ele>49.9</ele>
        <time>2022-04-20T12:36:46Z</time>
      </trkpt>
      <trkpt lat="49.9715" lon="2.43209">
        <ele>49.9</ele>
        <time>2022-04-20T12:36:47Z</time>
      </trkpt>
      <trkpt lat="49.97151" lon="2.43209">
        <ele>49.9</ele>
        <time>2022-04-20T12:36:48Z</time>
      </trkpt>
      <trkpt lat="49.97152" lon="2.43209">
        <ele>50</ele>
        <time>2022-04-20T12:36:49Z</time>
      </trkpt>
      <trkpt lat="49.97153" lon="2.43209">
        <ele>50</ele>
        <time>2022-04-20T12:36:50Z</time>
      </trkpt>
      <trkpt lat="49.97154" lon="2.43209">
        <ele>50</ele>
        <time>2022-04-20T12:36:51Z</time>
      </trkpt>
      <trkpt lat="49.97156" lon="2.43209">
        <ele>50</ele>
        <time>2022-04-20T12:36:52Z</time>
      </trkpt>
      <trkpt lat="49.97157" lon="2.43209">
        <ele>50</ele>
        <time>2022-04-20T12:36:53Z</time>
      </trkpt>
      <trkpt lat="49.97158" lon="2.43209">
        <ele>50</ele>
        <time>2022-04-20T12:36:54Z</time>
      </trkpt>
      <trkpt lat="49.9716" lon="2.4321">
        <ele>50</ele>
        <time>2022-04-20T12:36:56Z</time>
      </trkpt>
      <trkpt lat="49.97161" lon="2.4321">
        <ele>50</ele>
        <time>2022-04-20T12:36:57Z</time>
      </trkpt>
      <trkpt lat="49.97162" lon="2.4321">
        <ele>50</ele>
        <time>2022-04-20T12:36:58Z</time>
      </trkpt>
      <trkpt lat="49.97164" lon="2.43211">
        <ele>50</ele>
        <time>2022-04-20T12:36:59Z</time>
      </trkpt>
      <trkpt lat="49.97165" lon="2.43211">
        <ele>50.1</ele>
        <time>2022-04-20T12:37:00Z</time>
      </trkpt>
      <trkpt lat="49.97166" lon="2.43211">
        <ele>50.1</ele>
        <time>2022-04-20T12:37:01Z</time>
      </trkpt>
      <trkpt lat="49.97167" lon="2.43211">
        <ele>50.1</ele>
        <time>2022-04-20T12:37:02Z</time>
      </trkpt>
      <trkpt lat="49.97168" lon="2.43211">
        <ele>50.1</ele>
        <time>2022-04-20T12:37:03Z</time>
      </trkpt>
      <trkpt lat="49.9717" lon="2.4321">
        <ele>50.1</ele>
        <time>2022-04-20T12:37:04Z</time>
      </trkpt>
      <trkpt lat="49.97171" lon="2.4321">
        <ele>50.2</ele>
        <time>2022-04-20T12:37:05Z</time>
      </trkpt>
      <trkpt lat="49.97172" lon="2.43209">
        <ele>50.2</ele>
        <time>2022-04-20T12:37:07Z</time>
      </trkpt>
      <trkpt lat="49.97175" lon="2.43209">
        <ele>50.2</ele>
        <time>2022-04-20T12:37:08Z</time>
      </trkpt>
      <trkpt lat="49.97176" lon="2.43209">
        <ele>50.2</ele>
        <time>2022-04-20T12:37:10Z</time>
      </trkpt>
      <trkpt lat="49.97177" lon="2.43208">
        <ele>50.3</ele>
        <time>2022-04-20T12:37:11Z</time>
      </trkpt>
      <trkpt lat="49.97178" lon="2.43208">
        <ele>50.3</ele>
        <time>2022-04-20T12:37:12Z</time>
      </trkpt>
      <trkpt lat="49.97179" lon="2.43208">
        <ele>50.3</ele>
        <time>2022-04-20T12:37:13Z</time>
      </trkpt>
      <trkpt lat="49.97181" lon="2.43208">
        <ele>50.3</ele>
        <time>2022-04-20T12:37:14Z</time>
      </trkpt>
      <trkpt lat="49.97182" lon="2.43208">
        <ele>50.3</ele>
        <time>2022-04-20T12:37:15Z</time>
      </trkpt>
      <trkpt lat="49.97183" lon="2.43208">
        <ele>50.3</ele>
        <time>2022-04-20T12:37:16Z</time>
      </trkpt>
      <trkpt lat="49.97184" lon="2.43208">
        <ele>50.3</ele>
        <time>2022-04-20T12:37:17Z</time>
      </trkpt>
      <trkpt lat="49.97186" lon="2.43208">
        <ele>50.4</ele>
        <time>2022-04-20T12:37:18Z</time>
      </trkpt>
      <trkpt lat="49.97187" lon="2.43207">
        <ele>50.4</ele>
        <time>2022-04-20T12:37:20Z</time>
      </trkpt>
      <trkpt lat="49.97189" lon="2.43207">
        <ele>50.4</ele>
        <time>2022-04-20T12:37:21Z</time>
      </trkpt>
      <trkpt lat="49.9719" lon="2.43207">
        <ele>50.4</ele>
        <time>2022-04-20T12:37:22Z</time>
      </trkpt>
      <trkpt lat="49.97191" lon="2.43207">
        <ele>50.4</ele>
        <time>2022-04-20T12:37:23Z</time>
      </trkpt>
      <trkpt lat="49.97192" lon="2.43207">
        <ele>50.4</ele>
        <time>2022-04-20T12:37:24Z</time>
      </trkpt>
      <trkpt lat="49.97193" lon="2.43207">
        <ele>50.4</ele>
        <time>2022-04-20T12:37:25Z</time>
      </trkpt>
      <trkpt lat="49.97194" lon="2.43207">
        <ele>50.4</ele>
        <time>2022-04-20T12:37:26Z</time>
      </trkpt>
      <trkpt lat="49.97195" lon="2.43206">
        <ele>50.4</ele>
        <time>2022-04-20T12:37:27Z</time>
      </trkpt>
      <trkpt lat="49.97196" lon="2.43206">
        <ele>50.4</ele>
        <time>2022-04-20T12:37:28Z</time>
      </trkpt>
      <trkpt lat="49.97197" lon="2.43206">
        <ele>50.4</ele>
        <time>2022-04-20T12:37:30Z</time>
      </trkpt>
      <trkpt lat="49.97198" lon="2.43206">
        <ele>50.4</ele>
        <time>2022-04-20T12:37:31Z</time>
      </trkpt>
      <trkpt lat="49.972" lon="2.43206">
        <ele>50.4</ele>
        <time>2022-04-20T12:37:32Z</time>
      </trkpt>
      <trkpt lat="49.97201" lon="2.43205">
        <ele>50.4</ele>
        <time>2022-04-20T12:37:33Z</time>
      </trkpt>
      <trkpt lat="49.97202" lon="2.43204">
        <ele>50.4</ele>
        <time>2022-04-20T12:37:34Z</time>
      </trkpt>
      <trkpt lat="49.97203" lon="2.43203">
        <ele>50.4</ele>
        <time>2022-04-20T12:37:35Z</time>
      </trkpt>
      <trkpt lat="49.97204" lon="2.43203">
        <ele>50.4</ele>
        <time>2022-04-20T12:37:36Z</time>
      </trkpt>
      <trkpt lat="49.97205" lon="2.43202">
        <ele>50.4</ele>
        <time>2022-04-20T12:37:38Z</time>
      </trkpt>
      <trkpt lat="49.97206" lon="2.43201">
        <ele>50.4</ele>
        <time>2022-04-20T12:37:39Z</time>
      </trkpt>
      <trkpt lat="49.97208" lon="2.432">
        <ele>50.4</ele>
        <time>2022-04-20T12:37:40Z</time>
      </trkpt>
      <trkpt lat="49.97209" lon="2.432">
        <ele>50.4</ele>
        <time>2022-04-20T12:37:41Z</time>
      </trkpt>
      <trkpt lat="49.9721" lon="2.43199">
        <ele>50.4</ele>
        <time>2022-04-20T12:37:42Z</time>
      </trkpt>
      <trkpt lat="49.97211" lon="2.43199">
        <ele>50.4</ele>
        <time>2022-04-20T12:37:43Z</time>
      </trkpt>
      <trkpt lat="49.97212" lon="2.43198">
        <ele>50.4</ele>
        <time>2022-04-20T12:37:44Z</time>
      </trkpt>
      <trkpt lat="49.97213" lon="2.43198">
        <ele>50.4</ele>
        <time>2022-04-20T12:37:45Z</time>
      </trkpt>
      <trkpt lat="49.97215" lon="2.43197">
        <ele>50.4</ele>
        <time>2022-04-20T12:37:46Z</time>
      </trkpt>
      <trkpt lat="49.97217" lon="2.43196">
        <ele>50.4</ele>
        <time>2022-04-20T12:37:48Z</time>
      </trkpt>
      <trkpt lat="49.97217" lon="2.43195">
        <ele>50.4</ele>
        <time>2022-04-20T12:37:49Z</time>
      </trkpt>
      <trkpt lat="49.97218" lon="2.43195">
        <ele>50.4</ele>
        <time>2022-04-20T12:37:50Z</time>
      </trkpt>
      <trkpt lat="49.9722" lon="2.43193">
        <ele>50.5</ele>
        <time>2022-04-20T12:37:51Z</time>
      </trkpt>
      <trkpt lat="49.97221" lon="2.43193">
        <ele>50.5</ele>
        <time>2022-04-20T12:37:52Z</time>
      </trkpt>
      <trkpt lat="49.97222" lon="2.43192">
        <ele>50.5</ele>
        <time>2022-04-20T12:37:53Z</time>
      </trkpt>
      <trkpt lat="49.97223" lon="2.43192">
        <ele>50.5</ele>
        <time>2022-04-20T12:37:54Z</time>
      </trkpt>
      <trkpt lat="49.97224" lon="2.43191">
        <ele>50.5</ele>
        <time>2022-04-20T12:37:55Z</time>
      </trkpt>
      <trkpt lat="49.97225" lon="2.4319">
        <ele>50.5</ele>
        <time>2022-04-20T12:37:56Z</time>
      </trkpt>
      <trkpt lat="49.97226" lon="2.43189">
        <ele>50.5</ele>
        <time>2022-04-20T12:37:57Z</time>
      </trkpt>
      <trkpt lat="49.97227" lon="2.43188">
        <ele>50.5</ele>
        <time>2022-04-20T12:37:58Z</time>
      </trkpt>
      <trkpt lat="49.97228" lon="2.43187">
        <ele>50.5</ele>
        <time>2022-04-20T12:37:59Z</time>
      </trkpt>
      <trkpt lat="49.97229" lon="2.43186">
        <ele>50.5</ele>
        <time>2022-04-20T12:38:00Z</time>
      </trkpt>
      <trkpt lat="49.9723" lon="2.43185">
        <ele>50.6</ele>
        <time>2022-04-20T12:38:02Z</time>
      </trkpt>
      <trkpt lat="49.97231" lon="2.43185">
        <ele>50.6</ele>
        <time>2022-04-20T12:38:03Z</time>
      </trkpt>
      <trkpt lat="49.97232" lon="2.43184">
        <ele>50.6</ele>
        <time>2022-04-20T12:38:04Z</time>
      </trkpt>
      <trkpt lat="49.97234" lon="2.43182">
        <ele>50.6</ele>
        <time>2022-04-20T12:38:05Z</time>
      </trkpt>
      <trkpt lat="49.97235" lon="2.43181">
        <ele>50.6</ele>
        <time>2022-04-20T12:38:06Z</time>
      </trkpt>
      <trkpt lat="49.97236" lon="2.4318">
        <ele>50.6</ele>
        <time>2022-04-20T12:38:07Z</time>
      </trkpt>
      <trkpt lat="49.97237" lon="2.43179">
        <ele>50.7</ele>
        <time>2022-04-20T12:38:08Z</time>
      </trkpt>
      <trkpt lat="49.97238" lon="2.43177">
        <ele>50.7</ele>
        <time>2022-04-20T12:38:09Z</time>
      </trkpt>
      <trkpt lat="49.97239" lon="2.43176">
        <ele>50.7</ele>
        <time>2022-04-20T12:38:10Z</time>
      </trkpt>
      <trkpt lat="49.97241" lon="2.43175">
        <ele>50.7</ele>
        <time>2022-04-20T12:38:12Z</time>
      </trkpt>
      <trkpt lat="49.97242" lon="2.43173">
        <ele>50.7</ele>
        <time>2022-04-20T12:38:13Z</time>
      </trkpt>
      <trkpt lat="49.97243" lon="2.43172">
        <ele>50.8</ele>
        <time>2022-04-20T12:38:14Z</time>
      </trkpt>
      <trkpt lat="49.97244" lon="2.43171">
        <ele>50.8</ele>
        <time>2022-04-20T12:38:15Z</time>
      </trkpt>
      <trkpt lat="49.97245" lon="2.43169">
        <ele>50.8</ele>
        <time>2022-04-20T12:38:16Z</time>
      </trkpt>
      <trkpt lat="49.97246" lon="2.43168">
        <ele>50.9</ele>
        <time>2022-04-20T12:38:17Z</time>
      </trkpt>
      <trkpt lat="49.97247" lon="2.43166">
        <ele>50.9</ele>
        <time>2022-04-20T12:38:19Z</time>
      </trkpt>
      <trkpt lat="49.97248" lon="2.43165">
        <ele>50.9</ele>
        <time>2022-04-20T12:38:20Z</time>
      </trkpt>
      <trkpt lat="49.9725" lon="2.43163">
        <ele>50.9</ele>
        <time>2022-04-20T12:38:21Z</time>
      </trkpt>
      <trkpt lat="49.97251" lon="2.43161">
        <ele>51</ele>
        <time>2022-04-20T12:38:22Z</time>
      </trkpt>
      <trkpt lat="49.97252" lon="2.43161">
        <ele>51</ele>
        <time>2022-04-20T12:38:23Z</time>
      </trkpt>
      <trkpt lat="49.97252" lon="2.4316">
        <ele>51</ele>
        <time>2022-04-20T12:38:24Z</time>
      </trkpt>
      <trkpt lat="49.97253" lon="2.43159">
        <ele>51</ele>
        <time>2022-04-20T12:38:25Z</time>
      </trkpt>
      <trkpt lat="49.97254" lon="2.43157">
        <ele>51.1</ele>
        <time>2022-04-20T12:38:26Z</time>
      </trkpt>
      <trkpt lat="49.97255" lon="2.43156">
        <ele>51.1</ele>
        <time>2022-04-20T12:38:27Z</time>
      </trkpt>
      <trkpt lat="49.97256" lon="2.43155">
        <ele>51.1</ele>
        <time>2022-04-20T12:38:28Z</time>
      </trkpt>
      <trkpt lat="49.97257" lon="2.43154">
        <ele>51.1</ele>
        <time>2022-04-20T12:38:29Z</time>
      </trkpt>
      <trkpt lat="49.97258" lon="2.43153">
        <ele>51.1</ele>
        <time>2022-04-20T12:38:30Z</time>
      </trkpt>
      <trkpt lat="49.97259" lon="2.43152">
        <ele>51.1</ele>
        <time>2022-04-20T12:38:31Z</time>
      </trkpt>
      <trkpt lat="49.97259" lon="2.4315">
        <ele>51.2</ele>
        <time>2022-04-20T12:38:32Z</time>
      </trkpt>
      <trkpt lat="49.9726" lon="2.43149">
        <ele>51.2</ele>
        <time>2022-04-20T12:38:34Z</time>
      </trkpt>
      <trkpt lat="49.97261" lon="2.43147">
        <ele>51.2</ele>
        <time>2022-04-20T12:38:35Z</time>
      </trkpt>
      <trkpt lat="49.97261" lon="2.43146">
        <ele>51.2</ele>
        <time>2022-04-20T12:38:36Z</time>
      </trkpt>
      <trkpt lat="49.97262" lon="2.43145">
        <ele>51.2</ele>
        <time>2022-04-20T12:38:37Z</time>
      </trkpt>
      <trkpt lat="49.97263" lon="2.43143">
        <ele>51.2</ele>
        <time>2022-04-20T12:38:38Z</time>
      </trkpt>
      <trkpt lat="49.97263" lon="2.43141">
        <ele>51.2</ele>
        <time>2022-04-20T12:38:39Z</time>
      </trkpt>
      <trkpt lat="49.97264" lon="2.4314">
        <ele>51.3</ele>
        <time>2022-04-20T12:38:40Z</time>
      </trkpt>
      <trkpt lat="49.97265" lon="2.43137">
        <ele>51.3</ele>
        <time>2022-04-20T12:38:41Z</time>
      </trkpt>
      <trkpt lat="49.97266" lon="2.43136">
        <ele>51.3</ele>
        <time>2022-04-20T12:38:42Z</time>
      </trkpt>
      <trkpt lat="49.97266" lon="2.43135">
        <ele>51.3</ele>
        <time>2022-04-20T12:38:43Z</time>
      </trkpt>
      <trkpt lat="49.97266" lon="2.43133">
        <ele>51.4</ele>
        <time>2022-04-20T12:38:44Z</time>
      </trkpt>
      <trkpt lat="49.97267" lon="2.43132">
        <ele>51.4</ele>
        <time>2022-04-20T12:38:46Z</time>
      </trkpt>
      <trkpt lat="49.97268" lon="2.4313">
        <ele>51.4</ele>
        <time>2022-04-20T12:38:47Z</time>
      </trkpt>
      <trkpt lat="49.97269" lon="2.43128">
        <ele>51.5</ele>
        <time>2022-04-20T12:38:48Z</time>
      </trkpt>
      <trkpt lat="49.97269" lon="2.43127">
        <ele>51.5</ele>
        <time>2022-04-20T12:38:49Z</time>
      </trkpt>
      <trkpt lat="49.9727" lon="2.43126">
        <ele>51.5</ele>
        <time>2022-04-20T12:38:50Z</time>
      </trkpt>
      <trkpt lat="49.97271" lon="2.43124">
        <ele>51.6</ele>
        <time>2022-04-20T12:38:51Z</time>
      </trkpt>
      <trkpt lat="49.97272" lon="2.43122">
        <ele>51.6</ele>
        <time>2022-04-20T12:38:53Z</time>
      </trkpt>
      <trkpt lat="49.97272" lon="2.4312">
        <ele>51.6</ele>
        <time>2022-04-20T12:38:54Z</time>
      </trkpt>
      <trkpt lat="49.97273" lon="2.43119">
        <ele>51.7</ele>
        <time>2022-04-20T12:38:55Z</time>
      </trkpt>
      <trkpt lat="49.97274" lon="2.43118">
        <ele>51.7</ele>
        <time>2022-04-20T12:38:56Z</time>
      </trkpt>
      <trkpt lat="49.97275" lon="2.43116">
        <ele>51.8</ele>
        <time>2022-04-20T12:38:57Z</time>
      </trkpt>
      <trkpt lat="49.97276" lon="2.43115">
        <ele>51.9</ele>
        <time>2022-04-20T12:38:58Z</time>
      </trkpt>
      <trkpt lat="49.97276" lon="2.43114">
        <ele>52</ele>
        <time>2022-04-20T12:38:59Z</time>
      </trkpt>
      <trkpt lat="49.97278" lon="2.43112">
        <ele>52</ele>
        <time>2022-04-20T12:39:00Z</time>
      </trkpt>
      <trkpt lat="49.97279" lon="2.43111">
        <ele>52</ele>
        <time>2022-04-20T12:39:01Z</time>
      </trkpt>
      <trkpt lat="49.97279" lon="2.4311">
        <ele>52</ele>
        <time>2022-04-20T12:39:02Z</time>
      </trkpt>
      <trkpt lat="49.9728" lon="2.43109">
        <ele>52</ele>
        <time>2022-04-20T12:39:03Z</time>
      </trkpt>
      <trkpt lat="49.97281" lon="2.43108">
        <ele>52.1</ele>
        <time>2022-04-20T12:39:04Z</time>
      </trkpt>
      <trkpt lat="49.97282" lon="2.43107">
        <ele>52.1</ele>
        <time>2022-04-20T12:39:06Z</time>
      </trkpt>
      <trkpt lat="49.97284" lon="2.43105">
        <ele>52.1</ele>
        <time>2022-04-20T12:39:07Z</time>
      </trkpt>
      <trkpt lat="49.97285" lon="2.43105">
        <ele>52.1</ele>
        <time>2022-04-20T12:39:08Z</time>
      </trkpt>
      <trkpt lat="49.97286" lon="2.43105">
        <ele>52.1</ele>
        <time>2022-04-20T12:39:09Z</time>
      </trkpt>
      <trkpt lat="49.97287" lon="2.43104">
        <ele>52.2</ele>
        <time>2022-04-20T12:39:10Z</time>
      </trkpt>
      <trkpt lat="49.97288" lon="2.43103">
        <ele>52.2</ele>
        <time>2022-04-20T12:39:11Z</time>
      </trkpt>
      <trkpt lat="49.97289" lon="2.43103">
        <ele>52.2</ele>
        <time>2022-04-20T12:39:12Z</time>
      </trkpt>
      <trkpt lat="49.9729" lon="2.43102">
        <ele>52.2</ele>
        <time>2022-04-20T12:39:13Z</time>
      </trkpt>
      <trkpt lat="49.97291" lon="2.43102">
        <ele>52.2</ele>
        <time>2022-04-20T12:39:15Z</time>
      </trkpt>
      <trkpt lat="49.97292" lon="2.43101">
        <ele>52.3</ele>
        <time>2022-04-20T12:39:16Z</time>
      </trkpt>
      <trkpt lat="49.97293" lon="2.431">
        <ele>52.3</ele>
        <time>2022-04-20T12:39:17Z</time>
      </trkpt>
      <trkpt lat="49.97293" lon="2.431">
        <ele>52.3</ele>
        <time>2022-04-20T12:39:18Z</time>
      </trkpt>
      <trkpt lat="49.97294" lon="2.43099">
        <ele>52.3</ele>
        <time>2022-04-20T12:39:19Z</time>
      </trkpt>
      <trkpt lat="49.97295" lon="2.43098">
        <ele>52.3</ele>
        <time>2022-04-20T12:39:21Z</time>
      </trkpt>
      <trkpt lat="49.97296" lon="2.43098">
        <ele>52.4</ele>
        <time>2022-04-20T12:39:22Z</time>
      </trkpt>
      <trkpt lat="49.97297" lon="2.43097">
        <ele>52.4</ele>
        <time>2022-04-20T12:39:23Z</time>
      </trkpt>
      <trkpt lat="49.97298" lon="2.43097">
        <ele>52.4</ele>
        <time>2022-04-20T12:39:24Z</time>
      </trkpt>
      <trkpt lat="49.973" lon="2.43096">
        <ele>52.4</ele>
        <time>2022-04-20T12:39:25Z</time>
      </trkpt>
      <trkpt lat="49.97301" lon="2.43096">
        <ele>52.4</ele>
        <time>2022-04-20T12:39:26Z</time>
      </trkpt>
      <trkpt lat="49.97302" lon="2.43096">
        <ele>52.5</ele>
        <time>2022-04-20T12:39:27Z</time>
      </trkpt>
      <trkpt lat="49.97303" lon="2.43096">
        <ele>52.5</ele>
        <time>2022-04-20T12:39:28Z</time>
      </trkpt>
      <trkpt lat="49.97304" lon="2.43096">
        <ele>52.5</ele>
        <time>2022-04-20T12:39:29Z</time>
      </trkpt>
      <trkpt lat="49.97305" lon="2.43095">
        <ele>52.5</ele>
        <time>2022-04-20T12:39:31Z</time>
      </trkpt>
      <trkpt lat="49.97307" lon="2.43095">
        <ele>52.6</ele>
        <time>2022-04-20T12:39:32Z</time>
      </trkpt>
      <trkpt lat="49.97308" lon="2.43095">
        <ele>52.6</ele>
        <time>2022-04-20T12:39:33Z</time>
      </trkpt>
      <trkpt lat="49.97308" lon="2.43094">
        <ele>52.6</ele>
        <time>2022-04-20T12:39:34Z</time>
      </trkpt>
      <trkpt lat="49.97309" lon="2.43094">
        <ele>52.6</ele>
        <time>2022-04-20T12:39:35Z</time>
      </trkpt>
      <trkpt lat="49.9731" lon="2.43094">
        <ele>52.6</ele>
        <time>2022-04-20T12:39:36Z</time>
      </trkpt>
      <trkpt lat="49.97312" lon="2.43093">
        <ele>52.7</ele>
        <time>2022-04-20T12:39:37Z</time>
      </trkpt>
      <trkpt lat="49.97313" lon="2.43092">
        <ele>52.7</ele>
        <time>2022-04-20T12:39:39Z</time>
      </trkpt>
      <trkpt lat="49.97313" lon="2.43092">
        <ele>52.7</ele>
        <time>2022-04-20T12:39:40Z</time>
      </trkpt>
      <trkpt lat="49.97314" lon="2.43092">
        <ele>52.7</ele>
        <time>2022-04-20T12:39:41Z</time>
      </trkpt>
      <trkpt lat="49.97315" lon="2.43091">
        <ele>52.7</ele>
        <time>2022-04-20T12:39:42Z</time>
      </trkpt>
      <trkpt lat="49.97316" lon="2.43091">
        <ele>52.7</ele>
        <time>2022-04-20T12:39:43Z</time>
      </trkpt>
      <trkpt lat="49.97317" lon="2.4309">
        <ele>52.8</ele>
        <time>2022-04-20T12:39:44Z</time>
      </trkpt>
      <trkpt lat="49.97318" lon="2.4309">
        <ele>52.8</ele>
        <time>2022-04-20T12:39:45Z</time>
      </trkpt>
      <trkpt lat="49.97319" lon="2.4309">
        <ele>52.8</ele>
        <time>2022-04-20T12:39:46Z</time>
      </trkpt>
      <trkpt lat="49.9732" lon="2.4309">
        <ele>52.8</ele>
        <time>2022-04-20T12:39:48Z</time>
      </trkpt>
      <trkpt lat="49.97321" lon="2.43089">
        <ele>52.9</ele>
        <time>2022-04-20T12:39:49Z</time>
      </trkpt>
      <trkpt lat="49.97322" lon="2.43089">
        <ele>52.9</ele>
        <time>2022-04-20T12:39:50Z</time>
      </trkpt>
      <trkpt lat="49.97323" lon="2.43089">
        <ele>52.9</ele>
        <time>2022-04-20T12:39:51Z</time>
      </trkpt>
      <trkpt lat="49.97325" lon="2.43088">
        <ele>53</ele>
        <time>2022-04-20T12:39:52Z</time>
      </trkpt>
      <trkpt lat="49.97326" lon="2.43088">
        <ele>53</ele>
        <time>2022-04-20T12:39:53Z</time>
      </trkpt>
      <trkpt lat="49.97327" lon="2.43088">
        <ele>53</ele>
        <time>2022-04-20T12:39:54Z</time>
      </trkpt>
      <trkpt lat="49.97328" lon="2.43088">
        <ele>53</ele>
        <time>2022-04-20T12:39:55Z</time>
      </trkpt>
      <trkpt lat="49.97329" lon="2.43087">
        <ele>53.1</ele>
        <time>2022-04-20T12:39:57Z</time>
      </trkpt>
      <trkpt lat="49.9733" lon="2.43087">
        <ele>53.1</ele>
        <time>2022-04-20T12:39:58Z</time>
      </trkpt>
      <trkpt lat="49.97332" lon="2.43087">
        <ele>53.2</ele>
        <time>2022-04-20T12:39:59Z</time>
      </trkpt>
      <trkpt lat="49.97333" lon="2.43087">
        <ele>53.2</ele>
        <time>2022-04-20T12:40:00Z</time>
      </trkpt>
      <trkpt lat="49.97334" lon="2.43087">
        <ele>53.2</ele>
        <time>2022-04-20T12:40:01Z</time>
      </trkpt>
      <trkpt lat="49.97336" lon="2.43086">
        <ele>53.3</ele>
        <time>2022-04-20T12:40:02Z</time>
      </trkpt>
      <trkpt lat="49.97337" lon="2.43086">
        <ele>53.3</ele>
        <time>2022-04-20T12:40:04Z</time>
      </trkpt>
      <trkpt lat="49.97338" lon="2.43086">
        <ele>53.3</ele>
        <time>2022-04-20T12:40:05Z</time>
      </trkpt>
      <trkpt lat="49.9734" lon="2.43085">
        <ele>53.4</ele>
        <time>2022-04-20T12:40:06Z</time>
      </trkpt>
      <trkpt lat="49.97341" lon="2.43085">
        <ele>53.4</ele>
        <time>2022-04-20T12:40:07Z</time>
      </trkpt>
      <trkpt lat="49.97342" lon="2.43085">
        <ele>53.5</ele>
        <time>2022-04-20T12:40:08Z</time>
      </trkpt>
      <trkpt lat="49.97344" lon="2.43085">
        <ele>53.5</ele>
        <time>2022-04-20T12:40:09Z</time>
      </trkpt>
      <trkpt lat="49.97345" lon="2.43085">
        <ele>53.6</ele>
        <time>2022-04-20T12:40:10Z</time>
      </trkpt>
      <trkpt lat="49.97346" lon="2.43084">
        <ele>53.6</ele>
        <time>2022-04-20T12:40:11Z</time>
      </trkpt>
      <trkpt lat="49.97347" lon="2.43084">
        <ele>53.6</ele>
        <time>2022-04-20T12:40:12Z</time>
      </trkpt>
      <trkpt lat="49.97349" lon="2.43083">
        <ele>53.7</ele>
        <time>2022-04-20T12:40:14Z</time>
      </trkpt>
      <trkpt lat="49.9735" lon="2.43083">
        <ele>53.7</ele>
        <time>2022-04-20T12:40:15Z</time>
      </trkpt>
      <trkpt lat="49.97351" lon="2.43082">
        <ele>53.8</ele>
        <time>2022-04-20T12:40:16Z</time>
      </trkpt>
      <trkpt lat="49.97352" lon="2.43082">
        <ele>53.8</ele>
        <time>2022-04-20T12:40:17Z</time>
      </trkpt>
      <trkpt lat="49.97354" lon="2.43081">
        <ele>53.9</ele>
        <time>2022-04-20T12:40:18Z</time>
      </trkpt>
      <trkpt lat="49.97355" lon="2.43081">
        <ele>53.9</ele>
        <time>2022-04-20T12:40:20Z</time>
      </trkpt>
      <trkpt lat="49.97356" lon="2.43081">
        <ele>53.9</ele>
        <time>2022-04-20T12:40:21Z</time>
      </trkpt>
      <trkpt lat="49.97357" lon="2.43081">
        <ele>53.9</ele>
        <time>2022-04-20T12:40:22Z</time>
      </trkpt>
      <trkpt lat="49.97358" lon="2.43081">
        <ele>54</ele>
        <time>2022-04-20T12:40:23Z</time>
      </trkpt>
      <trkpt lat="49.97359" lon="2.43081">
        <ele>54</ele>
        <time>2022-04-20T12:40:24Z</time>
      </trkpt>
      <trkpt lat="49.9736" lon="2.43081">
        <ele>54</ele>
        <time>2022-04-20T12:40:25Z</time>
      </trkpt>
      <trkpt lat="49.9736" lon="2.43081">
        <ele>54.1</ele>
        <time>2022-04-20T12:40:26Z</time>
      </trkpt>
      <trkpt lat="49.97362" lon="2.43081">
        <ele>54.1</ele>
        <time>2022-04-20T12:40:27Z</time>
      </trkpt>
      <trkpt lat="49.97363" lon="2.43081">
        <ele>54.2</ele>
        <time>2022-04-20T12:40:28Z</time>
      </trkpt>
      <trkpt lat="49.97363" lon="2.43081">
        <ele>54.2</ele>
        <time>2022-04-20T12:40:29Z</time>
      </trkpt>
      <trkpt lat="49.97364" lon="2.43081">
        <ele>54.2</ele>
        <time>2022-04-20T12:40:31Z</time>
      </trkpt>
      <trkpt lat="49.97365" lon="2.43081">
        <ele>54.2</ele>
        <time>2022-04-20T12:40:32Z</time>
      </trkpt>
      <trkpt lat="49.97366" lon="2.43081">
        <ele>54.3</ele>
        <time>2022-04-20T12:40:33Z</time>
      </trkpt>
      <trkpt lat="49.97367" lon="2.43081">
        <ele>54.3</ele>
        <time>2022-04-20T12:40:34Z</time>
      </trkpt>
      <trkpt lat="49.97368" lon="2.43081">
        <ele>54.4</ele>
        <time>2022-04-20T12:40:35Z</time>
      </trkpt>
      <trkpt lat="49.97369" lon="2.43081">
        <ele>54.4</ele>
        <time>2022-04-20T12:40:37Z</time>
      </trkpt>
      <trkpt lat="49.9737" lon="2.4308">
        <ele>54.4</ele>
        <time>2022-04-20T12:40:38Z</time>
      </trkpt>
      <trkpt lat="49.97371" lon="2.4308">
        <ele>54.5</ele>
        <time>2022-04-20T12:40:39Z</time>
      </trkpt>
      <trkpt lat="49.97372" lon="2.43079">
        <ele>54.5</ele>
        <time>2022-04-20T12:40:40Z</time>
      </trkpt>
      <trkpt lat="49.97374" lon="2.43078">
        <ele>54.6</ele>
        <time>2022-04-20T12:40:41Z</time>
      </trkpt>
      <trkpt lat="49.97375" lon="2.43078">
        <ele>54.6</ele>
        <time>2022-04-20T12:40:43Z</time>
      </trkpt>
      <trkpt lat="49.97377" lon="2.43077">
        <ele>54.7</ele>
        <time>2022-04-20T12:40:44Z</time>
      </trkpt>
      <trkpt lat="49.97378" lon="2.43077">
        <ele>54.8</ele>
        <time>2022-04-20T12:40:45Z</time>
      </trkpt>
      <trkpt lat="49.97379" lon="2.43077">
        <ele>54.8</ele>
        <time>2022-04-20T12:40:46Z</time>
      </trkpt>
      <trkpt lat="49.9738" lon="2.43076">
        <ele>54.9</ele>
        <time>2022-04-20T12:40:47Z</time>
      </trkpt>
      <trkpt lat="49.97381" lon="2.43075">
        <ele>54.9</ele>
        <time>2022-04-20T12:40:48Z</time>
      </trkpt>
      <trkpt lat="49.97383" lon="2.43075">
        <ele>55</ele>
        <time>2022-04-20T12:40:50Z</time>
      </trkpt>
      <trkpt lat="49.97385" lon="2.43074">
        <ele>55.1</ele>
        <time>2022-04-20T12:40:51Z</time>
      </trkpt>
      <trkpt lat="49.97386" lon="2.43073">
        <ele>55.1</ele>
        <time>2022-04-20T12:40:52Z</time>
      </trkpt>
      <trkpt lat="49.97386" lon="2.43073">
        <ele>55.2</ele>
        <time>2022-04-20T12:40:53Z</time>
      </trkpt>
      <trkpt lat="49.97388" lon="2.43072">
        <ele>55.2</ele>
        <time>2022-04-20T12:40:54Z</time>
      </trkpt>
      <trkpt lat="49.97389" lon="2.43072">
        <ele>55.3</ele>
        <time>2022-04-20T12:40:56Z</time>
      </trkpt>
      <trkpt lat="49.9739" lon="2.43071">
        <ele>55.4</ele>
        <time>2022-04-20T12:40:57Z</time>
      </trkpt>
      <trkpt lat="49.97392" lon="2.43071">
        <ele>55.4</ele>
        <time>2022-04-20T12:40:58Z</time>
      </trkpt>
      <trkpt lat="49.97393" lon="2.4307">
        <ele>55.5</ele>
        <time>2022-04-20T12:40:59Z</time>
      </trkpt>
      <trkpt lat="49.97394" lon="2.4307">
        <ele>55.5</ele>
        <time>2022-04-20T12:41:00Z</time>
      </trkpt>
      <trkpt lat="49.97396" lon="2.43068">
        <ele>55.6</ele>
        <time>2022-04-20T12:41:01Z</time>
      </trkpt>
      <trkpt lat="49.97397" lon="2.43068">
        <ele>55.7</ele>
        <time>2022-04-20T12:41:03Z</time>
      </trkpt>
      <trkpt lat="49.97398" lon="2.43067">
        <ele>55.7</ele>
        <time>2022-04-20T12:41:04Z</time>
      </trkpt>
      <trkpt lat="49.97399" lon="2.43067">
        <ele>55.8</ele>
        <time>2022-04-20T12:41:05Z</time>
      </trkpt>
      <trkpt lat="49.974" lon="2.43066">
        <ele>55.8</ele>
        <time>2022-04-20T12:41:06Z</time>
      </trkpt>
      <trkpt lat="49.97401" lon="2.43066">
        <ele>55.9</ele>
        <time>2022-04-20T12:41:07Z</time>
      </trkpt>
      <trkpt lat="49.97403" lon="2.43064">
        <ele>56</ele>
        <time>2022-04-20T12:41:08Z</time>
      </trkpt>
      <trkpt lat="49.97404" lon="2.43064">
        <ele>56</ele>
        <time>2022-04-20T12:41:09Z</time>
      </trkpt>
      <trkpt lat="49.97404" lon="2.43063">
        <ele>56.1</ele>
        <time>2022-04-20T12:41:10Z</time>
      </trkpt>
      <trkpt lat="49.97406" lon="2.43062">
        <ele>56.1</ele>
        <time>2022-04-20T12:41:12Z</time>
      </trkpt>
      <trkpt lat="49.97407" lon="2.43061">
        <ele>56.2</ele>
        <time>2022-04-20T12:41:13Z</time>
      </trkpt>
      <trkpt lat="49.97408" lon="2.4306">
        <ele>56.2</ele>
        <time>2022-04-20T12:41:14Z</time>
      </trkpt>
      <trkpt lat="49.97409" lon="2.43059">
        <ele>56.3</ele>
        <time>2022-04-20T12:41:15Z</time>
      </trkpt>
      <trkpt lat="49.9741" lon="2.43059">
        <ele>56.3</ele>
        <time>2022-04-20T12:41:16Z</time>
      </trkpt>
      <trkpt lat="49.97411" lon="2.43058">
        <ele>56.4</ele>
        <time>2022-04-20T12:41:18Z</time>
      </trkpt>
      <trkpt lat="49.97412" lon="2.43057">
        <ele>56.5</ele>
        <time>2022-04-20T12:41:19Z</time>
      </trkpt>
      <trkpt lat="49.97413" lon="2.43056">
        <ele>56.5</ele>
        <time>2022-04-20T12:41:20Z</time>
      </trkpt>
      <trkpt lat="49.97414" lon="2.43055">
        <ele>56.6</ele>
        <time>2022-04-20T12:41:21Z</time>
      </trkpt>
      <trkpt lat="49.97415" lon="2.43054">
        <ele>56.6</ele>
        <time>2022-04-20T12:41:22Z</time>
      </trkpt>
      <trkpt lat="49.97417" lon="2.43053">
        <ele>56.7</ele>
        <time>2022-04-20T12:41:23Z</time>
      </trkpt>
      <trkpt lat="49.97418" lon="2.43052">
        <ele>56.8</ele>
        <time>2022-04-20T12:41:25Z</time>
      </trkpt>
      <trkpt lat="49.97419" lon="2.43051">
        <ele>56.8</ele>
        <time>2022-04-20T12:41:26Z</time>
      </trkpt>
      <trkpt lat="49.9742" lon="2.4305">
        <ele>56.9</ele>
        <time>2022-04-20T12:41:27Z</time>
      </trkpt>
      <trkpt lat="49.9742" lon="2.43049">
        <ele>56.9</ele>
        <time>2022-04-20T12:41:28Z</time>
      </trkpt>
      <trkpt lat="49.97421" lon="2.43048">
        <ele>57</ele>
        <time>2022-04-20T12:41:29Z</time>
      </trkpt>
      <trkpt lat="49.97422" lon="2.43047">
        <ele>57</ele>
        <time>2022-04-20T12:41:31Z</time>
      </trkpt>
      <trkpt lat="49.97423" lon="2.43046">
        <ele>57.1</ele>
        <time>2022-04-20T12:41:32Z</time>
      </trkpt>
      <trkpt lat="49.97424" lon="2.43045">
        <ele>57.1</ele>
        <time>2022-04-20T12:41:33Z</time>
      </trkpt>
      <trkpt lat="49.97425" lon="2.43044">
        <ele>57.2</ele>
        <time>2022-04-20T12:41:34Z</time>
      </trkpt>
      <trkpt lat="49.97426" lon="2.43044">
        <ele>57.2</ele>
        <time>2022-04-20T12:41:35Z</time>
      </trkpt>
      <trkpt lat="49.97427" lon="2.43042">
        <ele>57.3</ele>
        <time>2022-04-20T12:41:36Z</time>
      </trkpt>
      <trkpt lat="49.97428" lon="2.43042">
        <ele>57.4</ele>
        <time>2022-04-20T12:41:37Z</time>
      </trkpt>
      <trkpt lat="49.97429" lon="2.43041">
        <ele>57.4</ele>
        <time>2022-04-20T12:41:38Z</time>
      </trkpt>
      <trkpt lat="49.9743" lon="2.4304">
        <ele>57.4</ele>
        <time>2022-04-20T12:41:40Z</time>
      </trkpt>
      <trkpt lat="49.97431" lon="2.43039">
        <ele>57.5</ele>
        <time>2022-04-20T12:41:41Z</time>
      </trkpt>
      <trkpt lat="49.97432" lon="2.43038">
        <ele>57.5</ele>
        <time>2022-04-20T12:41:42Z</time>
      </trkpt>
      <trkpt lat="49.97433" lon="2.43036">
        <ele>57.6</ele>
        <time>2022-04-20T12:41:43Z</time>
      </trkpt>
      <trkpt lat="49.97434" lon="2.43036">
        <ele>57.6</ele>
        <time>2022-04-20T12:41:44Z</time>
      </trkpt>
      <trkpt lat="49.97435" lon="2.43035">
        <ele>57.7</ele>
        <time>2022-04-20T12:41:45Z</time>
      </trkpt>
      <trkpt lat="49.97436" lon="2.43034">
        <ele>57.7</ele>
        <time>2022-04-20T12:41:47Z</time>
      </trkpt>
      <trkpt lat="49.97437" lon="2.43033">
        <ele>57.8</ele>
        <time>2022-04-20T12:41:48Z</time>
      </trkpt>
      <trkpt lat="49.97437" lon="2.43033">
        <ele>57.8</ele>
        <time>2022-04-20T12:41:49Z</time>
      </trkpt>
      <trkpt lat="49.97439" lon="2.43032">
        <ele>57.8</ele>
        <time>2022-04-20T12:41:50Z</time>
      </trkpt>
      <trkpt lat="49.97439" lon="2.43031">
        <ele>57.9</ele>
        <time>2022-04-20T12:41:51Z</time>
      </trkpt>
      <trkpt lat="49.9744" lon="2.43031">
        <ele>57.9</ele>
        <time>2022-04-20T12:41:53Z</time>
      </trkpt>
      <trkpt lat="49.97441" lon="2.4303">
        <ele>58</ele>
        <time>2022-04-20T12:41:54Z</time>
      </trkpt>
      <trkpt lat="49.97442" lon="2.43029">
        <ele>58</ele>
        <time>2022-04-20T12:41:55Z</time>
      </trkpt>
      <trkpt lat="49.97443" lon="2.43029">
        <ele>58</ele>
        <time>2022-04-20T12:41:56Z</time>
      </trkpt>
      <trkpt lat="49.97444" lon="2.43028">
        <ele>58.1</ele>
        <time>2022-04-20T12:41:57Z</time>
      </trkpt>
      <trkpt lat="49.97445" lon="2.43027">
        <ele>58.1</ele>
        <time>2022-04-20T12:41:58Z</time>
      </trkpt>
      <trkpt lat="49.97446" lon="2.43027">
        <ele>58.1</ele>
        <time>2022-04-20T12:41:59Z</time>
      </trkpt>
      <trkpt lat="49.97447" lon="2.43026">
        <ele>58.2</ele>
        <time>2022-04-20T12:42:01Z</time>
      </trkpt>
      <trkpt lat="49.97448" lon="2.43025">
        <ele>58.2</ele>
        <time>2022-04-20T12:42:02Z</time>
      </trkpt>
      <trkpt lat="49.97449" lon="2.43024">
        <ele>58.3</ele>
        <time>2022-04-20T12:42:03Z</time>
      </trkpt>
      <trkpt lat="49.9745" lon="2.43023">
        <ele>58.3</ele>
        <time>2022-04-20T12:42:04Z</time>
      </trkpt>
      <trkpt lat="49.97451" lon="2.43022">
        <ele>58.3</ele>
        <time>2022-04-20T12:42:05Z</time>
      </trkpt>
      <trkpt lat="49.97452" lon="2.43022">
        <ele>58.4</ele>
        <time>2022-04-20T12:42:06Z</time>
      </trkpt>
      <trkpt lat="49.97453" lon="2.43021">
        <ele>58.4</ele>
        <time>2022-04-20T12:42:07Z</time>
      </trkpt>
      <trkpt lat="49.97454" lon="2.4302">
        <ele>58.5</ele>
        <time>2022-04-20T12:42:09Z</time>
      </trkpt>
      <trkpt lat="49.97455" lon="2.43019">
        <ele>58.5</ele>
        <time>2022-04-20T12:42:10Z</time>
      </trkpt>
      <trkpt lat="49.97456" lon="2.43017">
        <ele>58.6</ele>
        <time>2022-04-20T12:42:11Z</time>
      </trkpt>
      <trkpt lat="49.97457" lon="2.43017">
        <ele>58.6</ele>
        <time>2022-04-20T12:42:12Z</time>
      </trkpt>
      <trkpt lat="49.97458" lon="2.43016">
        <ele>58.7</ele>
        <time>2022-04-20T12:42:13Z</time>
      </trkpt>
      <trkpt lat="49.97459" lon="2.43015">
        <ele>58.7</ele>
        <time>2022-04-20T12:42:14Z</time>
      </trkpt>
      <trkpt lat="49.9746" lon="2.43014">
        <ele>58.7</ele>
        <time>2022-04-20T12:42:15Z</time>
      </trkpt>
      <trkpt lat="49.97461" lon="2.43013">
        <ele>58.8</ele>
        <time>2022-04-20T12:42:17Z</time>
      </trkpt>
      <trkpt lat="49.97463" lon="2.43012">
        <ele>58.9</ele>
        <time>2022-04-20T12:42:18Z</time>
      </trkpt>
      <trkpt lat="49.97464" lon="2.43012">
        <ele>58.9</ele>
        <time>2022-04-20T12:42:19Z</time>
      </trkpt>
      <trkpt lat="49.97465" lon="2.43012">
        <ele>58.9</ele>
        <time>2022-04-20T12:42:21Z</time>
      </trkpt>
      <trkpt lat="49.97466" lon="2.43012">
        <ele>59</ele>
        <time>2022-04-20T12:42:22Z</time>
      </trkpt>
      <trkpt lat="49.97467" lon="2.43012">
        <ele>59</ele>
        <time>2022-04-20T12:42:23Z</time>
      </trkpt>
      <trkpt lat="49.97468" lon="2.43012">
        <ele>59</ele>
        <time>2022-04-20T12:42:24Z</time>
      </trkpt>
      <trkpt lat="49.97469" lon="2.43012">
        <ele>59.1</ele>
        <time>2022-04-20T12:42:25Z</time>
      </trkpt>
      <trkpt lat="49.9747" lon="2.43011">
        <ele>59.1</ele>
        <time>2022-04-20T12:42:26Z</time>
      </trkpt>
      <trkpt lat="49.97472" lon="2.43011">
        <ele>59.2</ele>
        <time>2022-04-20T12:42:28Z</time>
      </trkpt>
      <trkpt lat="49.97474" lon="2.4301">
        <ele>59.3</ele>
        <time>2022-04-20T12:42:29Z</time>
      </trkpt>
      <trkpt lat="49.97474" lon="2.4301">
        <ele>59.3</ele>
        <time>2022-04-20T12:42:30Z</time>
      </trkpt>
      <trkpt lat="49.97475" lon="2.4301">
        <ele>59.3</ele>
        <time>2022-04-20T12:42:31Z</time>
      </trkpt>
      <trkpt lat="49.97476" lon="2.43009">
        <ele>59.3</ele>
        <time>2022-04-20T12:42:32Z</time>
      </trkpt>
      <trkpt lat="49.97477" lon="2.43008">
        <ele>59.4</ele>
        <time>2022-04-20T12:42:33Z</time>
      </trkpt>
      <trkpt lat="49.97478" lon="2.43008">
        <ele>59.4</ele>
        <time>2022-04-20T12:42:34Z</time>
      </trkpt>
      <trkpt lat="49.9748" lon="2.43007">
        <ele>59.5</ele>
        <time>2022-04-20T12:42:35Z</time>
      </trkpt>
      <trkpt lat="49.9748" lon="2.43004">
        <ele>59.5</ele>
        <time>2022-04-20T12:42:36Z</time>
      </trkpt>
      <trkpt lat="49.97482" lon="2.43001">
        <ele>59.6</ele>
        <time>2022-04-20T12:42:37Z</time>
      </trkpt>
      <trkpt lat="49.97483" lon="2.43">
        <ele>59.7</ele>
        <time>2022-04-20T12:42:39Z</time>
      </trkpt>
      <trkpt lat="49.97484" lon="2.42999">
        <ele>59.7</ele>
        <time>2022-04-20T12:42:40Z</time>
      </trkpt>
      <trkpt lat="49.97485" lon="2.42999">
        <ele>59.7</ele>
        <time>2022-04-20T12:42:41Z</time>
      </trkpt>
      <trkpt lat="49.97486" lon="2.42998">
        <ele>59.8</ele>
        <time>2022-04-20T12:42:42Z</time>
      </trkpt>
      <trkpt lat="49.97487" lon="2.42998">
        <ele>59.8</ele>
        <time>2022-04-20T12:42:43Z</time>
      </trkpt>
      <trkpt lat="49.97488" lon="2.42997">
        <ele>59.8</ele>
        <time>2022-04-20T12:42:44Z</time>
      </trkpt>
      <trkpt lat="49.97489" lon="2.42996">
        <ele>59.9</ele>
        <time>2022-04-20T12:42:46Z</time>
      </trkpt>
      <trkpt lat="49.97491" lon="2.42996">
        <ele>59.9</ele>
        <time>2022-04-20T12:42:47Z</time>
      </trkpt>
      <trkpt lat="49.97492" lon="2.42996">
        <ele>60</ele>
        <time>2022-04-20T12:42:48Z</time>
      </trkpt>
      <trkpt lat="49.97493" lon="2.42995">
        <ele>60</ele>
        <time>2022-04-20T12:42:49Z</time>
      </trkpt>
      <trkpt lat="49.97494" lon="2.42995">
        <ele>60</ele>
        <time>2022-04-20T12:42:50Z</time>
      </trkpt>
      <trkpt lat="49.97495" lon="2.42994">
        <ele>60</ele>
        <time>2022-04-20T12:42:52Z</time>
      </trkpt>
      <trkpt lat="49.97496" lon="2.42993">
        <ele>60.1</ele>
        <time>2022-04-20T12:42:53Z</time>
      </trkpt>
      <trkpt lat="49.97498" lon="2.42992">
        <ele>60.1</ele>
        <time>2022-04-20T12:42:54Z</time>
      </trkpt>
      <trkpt lat="49.97499" lon="2.42991">
        <ele>60.2</ele>
        <time>2022-04-20T12:42:55Z</time>
      </trkpt>
      <trkpt lat="49.975" lon="2.42991">
        <ele>60.2</ele>
        <time>2022-04-20T12:42:56Z</time>
      </trkpt>
      <trkpt lat="49.97502" lon="2.4299">
        <ele>60.2</ele>
        <time>2022-04-20T12:42:57Z</time>
      </trkpt>
      <trkpt lat="49.97502" lon="2.4299">
        <ele>60.3</ele>
        <time>2022-04-20T12:42:59Z</time>
      </trkpt>
      <trkpt lat="49.97503" lon="2.42989">
        <ele>60.3</ele>
        <time>2022-04-20T12:43:00Z</time>
      </trkpt>
      <trkpt lat="49.97504" lon="2.42989">
        <ele>60.3</ele>
        <time>2022-04-20T12:43:01Z</time>
      </trkpt>
      <trkpt lat="49.97505" lon="2.42988">
        <ele>60.3</ele>
        <time>2022-04-20T12:43:02Z</time>
      </trkpt>
      <trkpt lat="49.97506" lon="2.42987">
        <ele>60.4</ele>
        <time>2022-04-20T12:43:03Z</time>
      </trkpt>
      <trkpt lat="49.97508" lon="2.42986">
        <ele>60.4</ele>
        <time>2022-04-20T12:43:05Z</time>
      </trkpt>
      <trkpt lat="49.97509" lon="2.42985">
        <ele>60.4</ele>
        <time>2022-04-20T12:43:06Z</time>
      </trkpt>
      <trkpt lat="49.9751" lon="2.42985">
        <ele>60.5</ele>
        <time>2022-04-20T12:43:07Z</time>
      </trkpt>
      <trkpt lat="49.97511" lon="2.42984">
        <ele>60.5</ele>
        <time>2022-04-20T12:43:08Z</time>
      </trkpt>
      <trkpt lat="49.97512" lon="2.42984">
        <ele>60.5</ele>
        <time>2022-04-20T12:43:09Z</time>
      </trkpt>
      <trkpt lat="49.97513" lon="2.42983">
        <ele>60.5</ele>
        <time>2022-04-20T12:43:10Z</time>
      </trkpt>
      <trkpt lat="49.97514" lon="2.42983">
        <ele>60.6</ele>
        <time>2022-04-20T12:43:11Z</time>
      </trkpt>
      <trkpt lat="49.97515" lon="2.42982">
        <ele>60.6</ele>
        <time>2022-04-20T12:43:12Z</time>
      </trkpt>
      <trkpt lat="49.97516" lon="2.42982">
        <ele>60.6</ele>
        <time>2022-04-20T12:43:13Z</time>
      </trkpt>
      <trkpt lat="49.97517" lon="2.42982">
        <ele>60.7</ele>
        <time>2022-04-20T12:43:14Z</time>
      </trkpt>
      <trkpt lat="49.97518" lon="2.42981">
        <ele>60.7</ele>
        <time>2022-04-20T12:43:15Z</time>
      </trkpt>
      <trkpt lat="49.97519" lon="2.42981">
        <ele>60.7</ele>
        <time>2022-04-20T12:43:16Z</time>
      </trkpt>
      <trkpt lat="49.9752" lon="2.4298">
        <ele>60.8</ele>
        <time>2022-04-20T12:43:17Z</time>
      </trkpt>
      <trkpt lat="49.97521" lon="2.4298">
        <ele>60.8</ele>
        <time>2022-04-20T12:43:18Z</time>
      </trkpt>
      <trkpt lat="49.97522" lon="2.4298">
        <ele>60.8</ele>
        <time>2022-04-20T12:43:20Z</time>
      </trkpt>
      <trkpt lat="49.97523" lon="2.4298">
        <ele>60.9</ele>
        <time>2022-04-20T12:43:21Z</time>
      </trkpt>
      <trkpt lat="49.97525" lon="2.42979">
        <ele>60.9</ele>
        <time>2022-04-20T12:43:22Z</time>
      </trkpt>
      <trkpt lat="49.97526" lon="2.42979">
        <ele>60.9</ele>
        <time>2022-04-20T12:43:23Z</time>
      </trkpt>
      <trkpt lat="49.97528" lon="2.42978">
        <ele>61</ele>
        <time>2022-04-20T12:43:24Z</time>
      </trkpt>
      <trkpt lat="49.97529" lon="2.42977">
        <ele>61</ele>
        <time>2022-04-20T12:43:25Z</time>
      </trkpt>
      <trkpt lat="49.97529" lon="2.42977">
        <ele>61.1</ele>
        <time>2022-04-20T12:43:26Z</time>
      </trkpt>
      <trkpt lat="49.97531" lon="2.42976">
        <ele>61.1</ele>
        <time>2022-04-20T12:43:28Z</time>
      </trkpt>
      <trkpt lat="49.97532" lon="2.42975">
        <ele>61.1</ele>
        <time>2022-04-20T12:43:29Z</time>
      </trkpt>
      <trkpt lat="49.97534" lon="2.42973">
        <ele>61.2</ele>
        <time>2022-04-20T12:43:31Z</time>
      </trkpt>
      <trkpt lat="49.97535" lon="2.42972">
        <ele>61.3</ele>
        <time>2022-04-20T12:43:32Z</time>
      </trkpt>
      <trkpt lat="49.97535" lon="2.42973">
        <ele>61.3</ele>
        <time>2022-04-20T12:43:34Z</time>
      </trkpt>
      <trkpt lat="49.97534" lon="2.42975">
        <ele>61.3</ele>
        <time>2022-04-20T12:43:36Z</time>
      </trkpt>
      <trkpt lat="49.97533" lon="2.42976">
        <ele>61.4</ele>
        <time>2022-04-20T12:43:37Z</time>
      </trkpt>
      <trkpt lat="49.97533" lon="2.42977">
        <ele>61.4</ele>
        <time>2022-04-20T12:43:38Z</time>
      </trkpt>
      <trkpt lat="49.97532" lon="2.42978">
        <ele>61.4</ele>
        <time>2022-04-20T12:43:39Z</time>
      </trkpt>
      <trkpt lat="49.97532" lon="2.42978">
        <ele>61.4</ele>
        <time>2022-04-20T12:43:40Z</time>
      </trkpt>
      <trkpt lat="49.97532" lon="2.42977">
        <ele>61.5</ele>
        <time>2022-04-20T12:43:42Z</time>
      </trkpt>
      <trkpt lat="49.97533" lon="2.42977">
        <ele>61.5</ele>
        <time>2022-04-20T12:43:43Z</time>
      </trkpt>
      <trkpt lat="49.97532" lon="2.42974">
        <ele>61.6</ele>
        <time>2022-04-20T12:43:45Z</time>
      </trkpt>
      <trkpt lat="49.97531" lon="2.42974">
        <ele>61.6</ele>
        <time>2022-04-20T12:43:46Z</time>
      </trkpt>
      <trkpt lat="49.9753" lon="2.42974">
        <ele>61.6</ele>
        <time>2022-04-20T12:43:47Z</time>
      </trkpt>
      <trkpt lat="49.97529" lon="2.42974">
        <ele>61.6</ele>
        <time>2022-04-20T12:43:48Z</time>
      </trkpt>
      <trkpt lat="49.97529" lon="2.42974">
        <ele>61.7</ele>
        <time>2022-04-20T12:43:49Z</time>
      </trkpt>
      <trkpt lat="49.97528" lon="2.42974">
        <ele>61.7</ele>
        <time>2022-04-20T12:43:50Z</time>
      </trkpt>
      <trkpt lat="49.97528" lon="2.42974">
        <ele>61.7</ele>
        <time>2022-04-20T12:43:51Z</time>
      </trkpt>
      <trkpt lat="49.97528" lon="2.42974">
        <ele>61.7</ele>
        <time>2022-04-20T12:43:52Z</time>
      </trkpt>
      <trkpt lat="49.97528" lon="2.42973">
        <ele>61.7</ele>
        <time>2022-04-20T12:43:53Z</time>
      </trkpt>
      <trkpt lat="49.97528" lon="2.42972">
        <ele>61.7</ele>
        <time>2022-04-20T12:43:54Z</time>
      </trkpt>
      <trkpt lat="49.97528" lon="2.42971">
        <ele>61.8</ele>
        <time>2022-04-20T12:43:56Z</time>
      </trkpt>
      <trkpt lat="49.97528" lon="2.42971">
        <ele>61.8</ele>
        <time>2022-04-20T12:43:57Z</time>
      </trkpt>
      <trkpt lat="49.97527" lon="2.4297">
        <ele>61.8</ele>
        <time>2022-04-20T12:43:58Z</time>
      </trkpt>
      <trkpt lat="49.97527" lon="2.4297">
        <ele>61.8</ele>
        <time>2022-04-20T12:43:59Z</time>
      </trkpt>
      <trkpt lat="49.97526" lon="2.42969">
        <ele>61.8</ele>
        <time>2022-04-20T12:44:00Z</time>
      </trkpt>
      <trkpt lat="49.97526" lon="2.42969">
        <ele>61.8</ele>
        <time>2022-04-20T12:44:01Z</time>
      </trkpt>
      <trkpt lat="49.97526" lon="2.42968">
        <ele>61.9</ele>
        <time>2022-04-20T12:44:02Z</time>
      </trkpt>
      <trkpt lat="49.97526" lon="2.42968">
        <ele>61.9</ele>
        <time>2022-04-20T12:44:03Z</time>
      </trkpt>
      <trkpt lat="49.97526" lon="2.42967">
        <ele>61.9</ele>
        <time>2022-04-20T12:44:04Z</time>
      </trkpt>
      <trkpt lat="49.97526" lon="2.42967">
        <ele>61.9</ele>
        <time>2022-04-20T12:44:05Z</time>
      </trkpt>
      <trkpt lat="49.97527" lon="2.42968">
        <ele>61.9</ele>
        <time>2022-04-20T12:44:06Z</time>
      </trkpt>
      <trkpt lat="49.97527" lon="2.42969">
        <ele>61.9</ele>
        <time>2022-04-20T12:44:07Z</time>
      </trkpt>
      <trkpt lat="49.97527" lon="2.42969">
        <ele>62</ele>
        <time>2022-04-20T12:44:08Z</time>
      </trkpt>
      <trkpt lat="49.97528" lon="2.42969">
        <ele>62</ele>
        <time>2022-04-20T12:44:09Z</time>
      </trkpt>
      <trkpt lat="49.97528" lon="2.42969">
        <ele>62</ele>
        <time>2022-04-20T12:44:10Z</time>
      </trkpt>
      <trkpt lat="49.97527" lon="2.42969">
        <ele>62</ele>
        <time>2022-04-20T12:44:11Z</time>
      </trkpt>
      <trkpt lat="49.97527" lon="2.42969">
        <ele>62</ele>
        <time>2022-04-20T12:44:12Z</time>
      </trkpt>
      <trkpt lat="49.97527" lon="2.42969">
        <ele>62</ele>
        <time>2022-04-20T12:44:13Z</time>
      </trkpt>
      <trkpt lat="49.97527" lon="2.42969">
        <ele>62</ele>
        <time>2022-04-20T12:44:14Z</time>
      </trkpt>
      <trkpt lat="49.97526" lon="2.42969">
        <ele>62</ele>
        <time>2022-04-20T12:44:15Z</time>
      </trkpt>
      <trkpt lat="49.97526" lon="2.4297">
        <ele>62</ele>
        <time>2022-04-20T12:44:16Z</time>
      </trkpt>
      <trkpt lat="49.97526" lon="2.4297">
        <ele>62</ele>
        <time>2022-04-20T12:44:17Z</time>
      </trkpt>
      <trkpt lat="49.97526" lon="2.4297">
        <ele>62</ele>
        <time>2022-04-20T12:44:18Z</time>
      </trkpt>
      <trkpt lat="49.97526" lon="2.42971">
        <ele>62.1</ele>
        <time>2022-04-20T12:44:19Z</time>
      </trkpt>
      <trkpt lat="49.97526" lon="2.42971">
        <ele>62.1</ele>
        <time>2022-04-20T12:44:20Z</time>
      </trkpt>
      <trkpt lat="49.97526" lon="2.42971">
        <ele>62.1</ele>
        <time>2022-04-20T12:44:21Z</time>
      </trkpt>
      <trkpt lat="49.97526" lon="2.42971">
        <ele>62.1</ele>
        <time>2022-04-20T12:44:22Z</time>
      </trkpt>
      <trkpt lat="49.97525" lon="2.42971">
        <ele>62.1</ele>
        <time>2022-04-20T12:44:23Z</time>
      </trkpt>
      <trkpt lat="49.97525" lon="2.42971">
        <ele>62.1</ele>
        <time>2022-04-20T12:44:24Z</time>
      </trkpt>
      <trkpt lat="49.97524" lon="2.42971">
        <ele>62.1</ele>
        <time>2022-04-20T12:44:25Z</time>
      </trkpt>
      <trkpt lat="49.97524" lon="2.42971">
        <ele>62.1</ele>
        <time>2022-04-20T12:44:26Z</time>
      </trkpt>
      <trkpt lat="49.97524" lon="2.42971">
        <ele>62.2</ele>
        <time>2022-04-20T12:44:27Z</time>
      </trkpt>
      <trkpt lat="49.97524" lon="2.42971">
        <ele>62.2</ele>
        <time>2022-04-20T12:44:28Z</time>
      </trkpt>
      <trkpt lat="49.97524" lon="2.42971">
        <ele>62.2</ele>
        <time>2022-04-20T12:44:29Z</time>
      </trkpt>
      <trkpt lat="49.97524" lon="2.42971">
        <ele>62.2</ele>
        <time>2022-04-20T12:44:30Z</time>
      </trkpt>
      <trkpt lat="49.97524" lon="2.42971">
        <ele>62.2</ele>
        <time>2022-04-20T12:44:31Z</time>
      </trkpt>
      <trkpt lat="49.97524" lon="2.42971">
        <ele>62.2</ele>
        <time>2022-04-20T12:44:32Z</time>
      </trkpt>
      <trkpt lat="49.97524" lon="2.42971">
        <ele>62.2</ele>
        <time>2022-04-20T12:44:33Z</time>
      </trkpt>
      <trkpt lat="49.97524" lon="2.42971">
        <ele>62.2</ele>
        <time>2022-04-20T12:44:34Z</time>
      </trkpt>
      <trkpt lat="49.97524" lon="2.42971">
        <ele>62.2</ele>
        <time>2022-04-20T12:44:35Z</time>
      </trkpt>
      <trkpt lat="49.97524" lon="2.42971">
        <ele>62.2</ele>
        <time>2022-04-20T12:44:36Z</time>
      </trkpt>
      <trkpt lat="49.97524" lon="2.42971">
        <ele>62.2</ele>
        <time>2022-04-20T12:44:37Z</time>
      </trkpt>
      <trkpt lat="49.97524" lon="2.42971">
        <ele>62.2</ele>
        <time>2022-04-20T12:44:38Z</time>
      </trkpt>
      <trkpt lat="49.97524" lon="2.42971">
        <ele>62.2</ele>
        <time>2022-04-20T12:44:39Z</time>
      </trkpt>
      <trkpt lat="49.97524" lon="2.42971">
        <ele>62.2</ele>
        <time>2022-04-20T12:44:40Z</time>
      </trkpt>
      <trkpt lat="49.97524" lon="2.42971">
        <ele>62.2</ele>
        <time>2022-04-20T12:44:41Z</time>
      </trkpt>
      <trkpt lat="49.97524" lon="2.42971">
        <ele>62.2</ele>
        <time>2022-04-20T12:44:42Z</time>
      </trkpt>
      <trkpt lat="49.97524" lon="2.42971">
        <ele>62.2</ele>
        <time>2022-04-20T12:44:43Z</time>
      </trkpt>
      <trkpt lat="49.97524" lon="2.42971">
        <ele>62.2</ele>
        <time>2022-04-20T12:44:44Z</time>
      </trkpt>
      <trkpt lat="49.97524" lon="2.42971">
        <ele>62.2</ele>
        <time>2022-04-20T12:44:45Z</time>
      </trkpt>
      <trkpt lat="49.97524" lon="2.42971">
        <ele>62.2</ele>
        <time>2022-04-20T12:44:46Z</time>
      </trkpt>
      <trkpt lat="49.97524" lon="2.42971">
        <ele>62.2</ele>
        <time>2022-04-20T12:44:47Z</time>
      </trkpt>
      <trkpt lat="49.97524" lon="2.42971">
        <ele>62.2</ele>
        <time>2022-04-20T12:44:48Z</time>
      </trkpt>
      <trkpt lat="49.97524" lon="2.42971">
        <ele>62.2</ele>
        <time>2022-04-20T12:44:49Z</time>
      </trkpt>
      <trkpt lat="49.97524" lon="2.42971">
        <ele>62.2</ele>
        <time>2022-04-20T12:44:50Z</time>
      </trkpt>
      <trkpt lat="49.97524" lon="2.42971">
        <ele>62.2</ele>
        <time>2022-04-20T12:44:51Z</time>
      </trkpt>
      <trkpt lat="49.97524" lon="2.42971">
        <ele>62.2</ele>
        <time>2022-04-20T12:44:52Z</time>
      </trkpt>
      <trkpt lat="49.97524" lon="2.42971">
        <ele>62.2</ele>
        <time>2022-04-20T12:44:53Z</time>
      </trkpt>
      <trkpt lat="49.97524" lon="2.42971">
        <ele>62.2</ele>
        <time>2022-04-20T12:44:54Z</time>
      </trkpt>
      <trkpt lat="49.97524" lon="2.42971">
        <ele>62.2</ele>
        <time>2022-04-20T12:44:55Z</time>
      </trkpt>
      <trkpt lat="49.97524" lon="2.42971">
        <ele>62.2</ele>
        <time>2022-04-20T12:44:56Z</time>
      </trkpt>
      <trkpt lat="49.97524" lon="2.42971">
        <ele>62.2</ele>
        <time>2022-04-20T12:44:57Z</time>
      </trkpt>
      <trkpt lat="49.97524" lon="2.42971">
        <ele>62.2</ele>
        <time>2022-04-20T12:44:58Z</time>
      </trkpt>
      <trkpt lat="49.97524" lon="2.4297">
        <ele>62.2</ele>
        <time>2022-04-20T12:44:59Z</time>
      </trkpt>
      <trkpt lat="49.97524" lon="2.4297">
        <ele>62.2</ele>
        <time>2022-04-20T12:45:00Z</time>
      </trkpt>
      <trkpt lat="49.97524" lon="2.4297">
        <ele>62.2</ele>
        <time>2022-04-20T12:45:01Z</time>
      </trkpt>
      <trkpt lat="49.97524" lon="2.4297">
        <ele>62.2</ele>
        <time>2022-04-20T12:45:02Z</time>
      </trkpt>
      <trkpt lat="49.97524" lon="2.4297">
        <ele>62.2</ele>
        <time>2022-04-20T12:45:03Z</time>
      </trkpt>
      <trkpt lat="49.97524" lon="2.42971">
        <ele>62.2</ele>
        <time>2022-04-20T12:45:05Z</time>
      </trkpt>
      <trkpt lat="49.97524" lon="2.42971">
        <ele>62.2</ele>
        <time>2022-04-20T12:45:06Z</time>
      </trkpt>
      <trkpt lat="49.97524" lon="2.42971">
        <ele>62.2</ele>
        <time>2022-04-20T12:45:07Z</time>
      </trkpt>
      <trkpt lat="49.97524" lon="2.42971">
        <ele>62.2</ele>
        <time>2022-04-20T12:45:08Z</time>
      </trkpt>
      <trkpt lat="49.97524" lon="2.42971">
        <ele>62.2</ele>
        <time>2022-04-20T12:45:09Z</time>
      </trkpt>
      <trkpt lat="49.97524" lon="2.42971">
        <ele>62.2</ele>
        <time>2022-04-20T12:45:10Z</time>
      </trkpt>
      <trkpt lat="49.97524" lon="2.4297">
        <ele>62.2</ele>
        <time>2022-04-20T12:45:11Z</time>
      </trkpt>
      <trkpt lat="49.97524" lon="2.4297">
        <ele>62.2</ele>
        <time>2022-04-20T12:45:12Z</time>
      </trkpt>
      <trkpt lat="49.97524" lon="2.4297">
        <ele>62.3</ele>
        <time>2022-04-20T12:45:13Z</time>
      </trkpt>
      <trkpt lat="49.97524" lon="2.42971">
        <ele>62.3</ele>
        <time>2022-04-20T12:45:14Z</time>
      </trkpt>
      <trkpt lat="49.97524" lon="2.42971">
        <ele>62.3</ele>
        <time>2022-04-20T12:45:16Z</time>
      </trkpt>
      <trkpt lat="49.97524" lon="2.42971">
        <ele>62.3</ele>
        <time>2022-04-20T12:45:17Z</time>
      </trkpt>
      <trkpt lat="49.97523" lon="2.4297">
        <ele>62.3</ele>
        <time>2022-04-20T12:45:18Z</time>
      </trkpt>
      <trkpt lat="49.97523" lon="2.4297">
        <ele>62.3</ele>
        <time>2022-04-20T12:45:19Z</time>
      </trkpt>
      <trkpt lat="49.97523" lon="2.4297">
        <ele>62.3</ele>
        <time>2022-04-20T12:45:20Z</time>
      </trkpt>
      <trkpt lat="49.97524" lon="2.4297">
        <ele>62.3</ele>
        <time>2022-04-20T12:45:21Z</time>
      </trkpt>
      <trkpt lat="49.97524" lon="2.4297">
        <ele>62.3</ele>
        <time>2022-04-20T12:45:22Z</time>
      </trkpt>
      <trkpt lat="49.97524" lon="2.4297">
        <ele>62.3</ele>
        <time>2022-04-20T12:45:23Z</time>
      </trkpt>
      <trkpt lat="49.97524" lon="2.4297">
        <ele>62.3</ele>
        <time>2022-04-20T12:45:24Z</time>
      </trkpt>
      <trkpt lat="49.97524" lon="2.4297">
        <ele>62.3</ele>
        <time>2022-04-20T12:45:25Z</time>
      </trkpt>
      <trkpt lat="49.97524" lon="2.4297">
        <ele>62.3</ele>
        <time>2022-04-20T12:45:26Z</time>
      </trkpt>
      <trkpt lat="49.97524" lon="2.4297">
        <ele>62.3</ele>
        <time>2022-04-20T12:45:27Z</time>
      </trkpt>
      <trkpt lat="49.97524" lon="2.4297">
        <ele>62.3</ele>
        <time>2022-04-20T12:45:28Z</time>
      </trkpt>
      <trkpt lat="49.97524" lon="2.4297">
        <ele>62.3</ele>
        <time>2022-04-20T12:45:29Z</time>
      </trkpt>
      <trkpt lat="49.97524" lon="2.4297">
        <ele>62.3</ele>
        <time>2022-04-20T12:45:30Z</time>
      </trkpt>
      <trkpt lat="49.97524" lon="2.4297">
        <ele>62.3</ele>
        <time>2022-04-20T12:45:31Z</time>
      </trkpt>
      <trkpt lat="49.97524" lon="2.4297">
        <ele>62.3</ele>
        <time>2022-04-20T12:45:32Z</time>
      </trkpt>
      <trkpt lat="49.97524" lon="2.4297">
        <ele>62.3</ele>
        <time>2022-04-20T12:45:33Z</time>
      </trkpt>
      <trkpt lat="49.97524" lon="2.4297">
        <ele>62.3</ele>
        <time>2022-04-20T12:45:34Z</time>
      </trkpt>
      <trkpt lat="49.97524" lon="2.42969">
        <ele>62.3</ele>
        <time>2022-04-20T12:45:35Z</time>
      </trkpt>
      <trkpt lat="49.97524" lon="2.42969">
        <ele>62.4</ele>
        <time>2022-04-20T12:45:36Z</time>
      </trkpt>
      <trkpt lat="49.97524" lon="2.42969">
        <ele>62.4</ele>
        <time>2022-04-20T12:45:37Z</time>
      </trkpt>
      <trkpt lat="49.97524" lon="2.42968">
        <ele>62.4</ele>
        <time>2022-04-20T12:45:38Z</time>
      </trkpt>
      <trkpt lat="49.97525" lon="2.42968">
        <ele>62.4</ele>
        <time>2022-04-20T12:45:39Z</time>
      </trkpt>
      <trkpt lat="49.97525" lon="2.42968">
        <ele>62.4</ele>
        <time>2022-04-20T12:45:40Z</time>
      </trkpt>
      <trkpt lat="49.97525" lon="2.42968">
        <ele>62.4</ele>
        <time>2022-04-20T12:45:41Z</time>
      </trkpt>
      <trkpt lat="49.97525" lon="2.42968">
        <ele>62.4</ele>
        <time>2022-04-20T12:45:42Z</time>
      </trkpt>
      <trkpt lat="49.97526" lon="2.42968">
        <ele>62.4</ele>
        <time>2022-04-20T12:45:43Z</time>
      </trkpt>
      <trkpt lat="49.97525" lon="2.42969">
        <ele>62.5</ele>
        <time>2022-04-20T12:45:44Z</time>
      </trkpt>
      <trkpt lat="49.97526" lon="2.4297">
        <ele>62.5</ele>
        <time>2022-04-20T12:45:45Z</time>
      </trkpt>
      <trkpt lat="49.97526" lon="2.4297">
        <ele>62.5</ele>
        <time>2022-04-20T12:45:46Z</time>
      </trkpt>
      <trkpt lat="49.97526" lon="2.4297">
        <ele>62.5</ele>
        <time>2022-04-20T12:45:47Z</time>
      </trkpt>
      <trkpt lat="49.97526" lon="2.42969">
        <ele>62.5</ele>
        <time>2022-04-20T12:45:48Z</time>
      </trkpt>
      <trkpt lat="49.97526" lon="2.42969">
        <ele>62.5</ele>
        <time>2022-04-20T12:45:49Z</time>
      </trkpt>
      <trkpt lat="49.97526" lon="2.42969">
        <ele>62.5</ele>
        <time>2022-04-20T12:45:50Z</time>
      </trkpt>
      <trkpt lat="49.97526" lon="2.42968">
        <ele>62.5</ele>
        <time>2022-04-20T12:45:51Z</time>
      </trkpt>
      <trkpt lat="49.97526" lon="2.42966">
        <ele>62.6</ele>
        <time>2022-04-20T12:45:53Z</time>
      </trkpt>
      <trkpt lat="49.97526" lon="2.42965">
        <ele>62.6</ele>
        <time>2022-04-20T12:45:55Z</time>
      </trkpt>
      <trkpt lat="49.97525" lon="2.42966">
        <ele>62.7</ele>
        <time>2022-04-20T12:45:57Z</time>
      </trkpt>
      <trkpt lat="49.97525" lon="2.42966">
        <ele>62.7</ele>
        <time>2022-04-20T12:45:58Z</time>
      </trkpt>
      <trkpt lat="49.97525" lon="2.42965">
        <ele>62.7</ele>
        <time>2022-04-20T12:45:59Z</time>
      </trkpt>
      <trkpt lat="49.97526" lon="2.42964">
        <ele>62.7</ele>
        <time>2022-04-20T12:46:00Z</time>
      </trkpt>
      <trkpt lat="49.97526" lon="2.42963">
        <ele>62.8</ele>
        <time>2022-04-20T12:46:01Z</time>
      </trkpt>
      <trkpt lat="49.97527" lon="2.42961">
        <ele>62.8</ele>
        <time>2022-04-20T12:46:03Z</time>
      </trkpt>
      <trkpt lat="49.97527" lon="2.42963">
        <ele>62.9</ele>
        <time>2022-04-20T12:46:04Z</time>
      </trkpt>
      <trkpt lat="49.97526" lon="2.42964">
        <ele>62.9</ele>
        <time>2022-04-20T12:46:05Z</time>
      </trkpt>
      <trkpt lat="49.97527" lon="2.42965">
        <ele>62.9</ele>
        <time>2022-04-20T12:46:06Z</time>
      </trkpt>
      <trkpt lat="49.97527" lon="2.42966">
        <ele>63</ele>
        <time>2022-04-20T12:46:07Z</time>
      </trkpt>
      <trkpt lat="49.97527" lon="2.42966">
        <ele>63</ele>
        <time>2022-04-20T12:46:08Z</time>
      </trkpt>
      <trkpt lat="49.97527" lon="2.42966">
        <ele>63</ele>
        <time>2022-04-20T12:46:09Z</time>
      </trkpt>
      <trkpt lat="49.97527" lon="2.42967">
        <ele>63</ele>
        <time>2022-04-20T12:46:10Z</time>
      </trkpt>
      <trkpt lat="49.97528" lon="2.42967">
        <ele>63</ele>
        <time>2022-04-20T12:46:11Z</time>
      </trkpt>
      <trkpt lat="49.97528" lon="2.42967">
        <ele>63</ele>
        <time>2022-04-20T12:46:12Z</time>
      </trkpt>
      <trkpt lat="49.97528" lon="2.42967">
        <ele>63</ele>
        <time>2022-04-20T12:46:13Z</time>
      </trkpt>
      <trkpt lat="49.97529" lon="2.42967">
        <ele>63.1</ele>
        <time>2022-04-20T12:46:14Z</time>
      </trkpt>
      <trkpt lat="49.9753" lon="2.42967">
        <ele>63.1</ele>
        <time>2022-04-20T12:46:15Z</time>
      </trkpt>
      <trkpt lat="49.97531" lon="2.42966">
        <ele>63.1</ele>
        <time>2022-04-20T12:46:17Z</time>
      </trkpt>
      <trkpt lat="49.97531" lon="2.42967">
        <ele>63.2</ele>
        <time>2022-04-20T12:46:18Z</time>
      </trkpt>
      <trkpt lat="49.97532" lon="2.42967">
        <ele>63.2</ele>
        <time>2022-04-20T12:46:19Z</time>
      </trkpt>
      <trkpt lat="49.97533" lon="2.42968">
        <ele>63.2</ele>
        <time>2022-04-20T12:46:20Z</time>
      </trkpt>
      <trkpt lat="49.97533" lon="2.42968">
        <ele>63.3</ele>
        <time>2022-04-20T12:46:21Z</time>
      </trkpt>
      <trkpt lat="49.97535" lon="2.42968">
        <ele>63.3</ele>
        <time>2022-04-20T12:46:22Z</time>
      </trkpt>
      <trkpt lat="49.97536" lon="2.42968">
        <ele>63.4</ele>
        <time>2022-04-20T12:46:24Z</time>
      </trkpt>
      <trkpt lat="49.97537" lon="2.42967">
        <ele>63.4</ele>
        <time>2022-04-20T12:46:26Z</time>
      </trkpt>
      <trkpt lat="49.97538" lon="2.42967">
        <ele>63.5</ele>
        <time>2022-04-20T12:46:27Z</time>
      </trkpt>
      <trkpt lat="49.97538" lon="2.42966">
        <ele>63.5</ele>
        <time>2022-04-20T12:46:28Z</time>
      </trkpt>
      <trkpt lat="49.97539" lon="2.42965">
        <ele>63.5</ele>
        <time>2022-04-20T12:46:29Z</time>
      </trkpt>
      <trkpt lat="49.97541" lon="2.42963">
        <ele>63.6</ele>
        <time>2022-04-20T12:46:31Z</time>
      </trkpt>
      <trkpt lat="49.97542" lon="2.42961">
        <ele>63.7</ele>
        <time>2022-04-20T12:46:32Z</time>
      </trkpt>
      <trkpt lat="49.97543" lon="2.42959">
        <ele>63.7</ele>
        <time>2022-04-20T12:46:33Z</time>
      </trkpt>
      <trkpt lat="49.97544" lon="2.42958">
        <ele>63.7</ele>
        <time>2022-04-20T12:46:34Z</time>
      </trkpt>
      <trkpt lat="49.97544" lon="2.42956">
        <ele>63.7</ele>
        <time>2022-04-20T12:46:35Z</time>
      </trkpt>
      <trkpt lat="49.97546" lon="2.42953">
        <ele>63.7</ele>
        <time>2022-04-20T12:46:36Z</time>
      </trkpt>
      <trkpt lat="49.97547" lon="2.42952">
        <ele>63.7</ele>
        <time>2022-04-20T12:46:37Z</time>
      </trkpt>
      <trkpt lat="49.97547" lon="2.42949">
        <ele>63.7</ele>
        <time>2022-04-20T12:46:38Z</time>
      </trkpt>
      <trkpt lat="49.97547" lon="2.42947">
        <ele>63.7</ele>
        <time>2022-04-20T12:46:39Z</time>
      </trkpt>
      <trkpt lat="49.97548" lon="2.42944">
        <ele>63.7</ele>
        <time>2022-04-20T12:46:40Z</time>
      </trkpt>
      <trkpt lat="49.97548" lon="2.42942">
        <ele>63.7</ele>
        <time>2022-04-20T12:46:42Z</time>
      </trkpt>
      <trkpt lat="49.97548" lon="2.42941">
        <ele>63.7</ele>
        <time>2022-04-20T12:46:43Z</time>
      </trkpt>
      <trkpt lat="49.97549" lon="2.42938">
        <ele>63.7</ele>
        <time>2022-04-20T12:46:44Z</time>
      </trkpt>
      <trkpt lat="49.9755" lon="2.42937">
        <ele>63.8</ele>
        <time>2022-04-20T12:46:45Z</time>
      </trkpt>
      <trkpt lat="49.9755" lon="2.42936">
        <ele>63.8</ele>
        <time>2022-04-20T12:46:46Z</time>
      </trkpt>
      <trkpt lat="49.97551" lon="2.42933">
        <ele>63.8</ele>
        <time>2022-04-20T12:46:47Z</time>
      </trkpt>
      <trkpt lat="49.97551" lon="2.42932">
        <ele>63.8</ele>
        <time>2022-04-20T12:46:48Z</time>
      </trkpt>
      <trkpt lat="49.97552" lon="2.42931">
        <ele>63.8</ele>
        <time>2022-04-20T12:46:49Z</time>
      </trkpt>
      <trkpt lat="49.97552" lon="2.4293">
        <ele>63.8</ele>
        <time>2022-04-20T12:46:50Z</time>
      </trkpt>
      <trkpt lat="49.97552" lon="2.42931">
        <ele>63.8</ele>
        <time>2022-04-20T12:46:51Z</time>
      </trkpt>
      <trkpt lat="49.97553" lon="2.42929">
        <ele>63.8</ele>
        <time>2022-04-20T12:46:53Z</time>
      </trkpt>
      <trkpt lat="49.97553" lon="2.42928">
        <ele>63.8</ele>
        <time>2022-04-20T12:46:54Z</time>
      </trkpt>
      <trkpt lat="49.97554" lon="2.42927">
        <ele>63.8</ele>
        <time>2022-04-20T12:46:55Z</time>
      </trkpt>
      <trkpt lat="49.97555" lon="2.42924">
        <ele>63.8</ele>
        <time>2022-04-20T12:46:57Z</time>
      </trkpt>
      <trkpt lat="49.97555" lon="2.42923">
        <ele>63.8</ele>
        <time>2022-04-20T12:46:58Z</time>
      </trkpt>
      <trkpt lat="49.97556" lon="2.42922">
        <ele>63.8</ele>
        <time>2022-04-20T12:46:59Z</time>
      </trkpt>
      <trkpt lat="49.97556" lon="2.4292">
        <ele>63.8</ele>
        <time>2022-04-20T12:47:00Z</time>
      </trkpt>
      <trkpt lat="49.97557" lon="2.42919">
        <ele>63.8</ele>
        <time>2022-04-20T12:47:01Z</time>
      </trkpt>
      <trkpt lat="49.97557" lon="2.42917">
        <ele>63.8</ele>
        <time>2022-04-20T12:47:02Z</time>
      </trkpt>
      <trkpt lat="49.97558" lon="2.42916">
        <ele>63.8</ele>
        <time>2022-04-20T12:47:03Z</time>
      </trkpt>
      <trkpt lat="49.97559" lon="2.42913">
        <ele>63.8</ele>
        <time>2022-04-20T12:47:05Z</time>
      </trkpt>
      <trkpt lat="49.97558" lon="2.42913">
        <ele>63.8</ele>
        <time>2022-04-20T12:47:06Z</time>
      </trkpt>
      <trkpt lat="49.97558" lon="2.42913">
        <ele>63.8</ele>
        <time>2022-04-20T12:47:07Z</time>
      </trkpt>
      <trkpt lat="49.97558" lon="2.42913">
        <ele>63.8</ele>
        <time>2022-04-20T12:47:08Z</time>
      </trkpt>
      <trkpt lat="49.97559" lon="2.42912">
        <ele>63.8</ele>
        <time>2022-04-20T12:47:09Z</time>
      </trkpt>
      <trkpt lat="49.97559" lon="2.4291">
        <ele>63.8</ele>
        <time>2022-04-20T12:47:10Z</time>
      </trkpt>
      <trkpt lat="49.9756" lon="2.42909">
        <ele>63.8</ele>
        <time>2022-04-20T12:47:11Z</time>
      </trkpt>
      <trkpt lat="49.9756" lon="2.42907">
        <ele>63.9</ele>
        <time>2022-04-20T12:47:12Z</time>
      </trkpt>
      <trkpt lat="49.97561" lon="2.42904">
        <ele>63.9</ele>
        <time>2022-04-20T12:47:13Z</time>
      </trkpt>
      <trkpt lat="49.97562" lon="2.42902">
        <ele>63.9</ele>
        <time>2022-04-20T12:47:14Z</time>
      </trkpt>
      <trkpt lat="49.97562" lon="2.429">
        <ele>63.9</ele>
        <time>2022-04-20T12:47:15Z</time>
      </trkpt>
      <trkpt lat="49.97563" lon="2.42896">
        <ele>63.9</ele>
        <time>2022-04-20T12:47:16Z</time>
      </trkpt>
      <trkpt lat="49.97563" lon="2.42894">
        <ele>63.9</ele>
        <time>2022-04-20T12:47:17Z</time>
      </trkpt>
      <trkpt lat="49.97564" lon="2.42891">
        <ele>63.9</ele>
        <time>2022-04-20T12:47:19Z</time>
      </trkpt>
      <trkpt lat="49.97564" lon="2.4289">
        <ele>63.9</ele>
        <time>2022-04-20T12:47:20Z</time>
      </trkpt>
      <trkpt lat="49.97564" lon="2.42889">
        <ele>63.9</ele>
        <time>2022-04-20T12:47:21Z</time>
      </trkpt>
      <trkpt lat="49.97565" lon="2.42887">
        <ele>63.9</ele>
        <time>2022-04-20T12:47:22Z</time>
      </trkpt>
      <trkpt lat="49.97565" lon="2.42885">
        <ele>63.9</ele>
        <time>2022-04-20T12:47:23Z</time>
      </trkpt>
      <trkpt lat="49.97566" lon="2.42884">
        <ele>63.9</ele>
        <time>2022-04-20T12:47:24Z</time>
      </trkpt>
      <trkpt lat="49.97567" lon="2.42883">
        <ele>63.9</ele>
        <time>2022-04-20T12:47:25Z</time>
      </trkpt>
      <trkpt lat="49.97567" lon="2.42881">
        <ele>63.9</ele>
        <time>2022-04-20T12:47:26Z</time>
      </trkpt>
      <trkpt lat="49.97568" lon="2.42879">
        <ele>63.9</ele>
        <time>2022-04-20T12:47:27Z</time>
      </trkpt>
      <trkpt lat="49.97569" lon="2.42877">
        <ele>63.9</ele>
        <time>2022-04-20T12:47:28Z</time>
      </trkpt>
      <trkpt lat="49.97569" lon="2.42876">
        <ele>63.9</ele>
        <time>2022-04-20T12:47:29Z</time>
      </trkpt>
      <trkpt lat="49.9757" lon="2.42874">
        <ele>63.9</ele>
        <time>2022-04-20T12:47:30Z</time>
      </trkpt>
      <trkpt lat="49.9757" lon="2.42872">
        <ele>63.9</ele>
        <time>2022-04-20T12:47:31Z</time>
      </trkpt>
      <trkpt lat="49.97571" lon="2.4287">
        <ele>63.9</ele>
        <time>2022-04-20T12:47:33Z</time>
      </trkpt>
      <trkpt lat="49.97572" lon="2.42867">
        <ele>63.9</ele>
        <time>2022-04-20T12:47:34Z</time>
      </trkpt>
      <trkpt lat="49.97572" lon="2.42866">
        <ele>63.9</ele>
        <time>2022-04-20T12:47:35Z</time>
      </trkpt>
      <trkpt lat="49.97573" lon="2.42865">
        <ele>63.9</ele>
        <time>2022-04-20T12:47:36Z</time>
      </trkpt>
      <trkpt lat="49.97574" lon="2.42862">
        <ele>63.9</ele>
        <time>2022-04-20T12:47:37Z</time>
      </trkpt>
      <trkpt lat="49.97574" lon="2.42861">
        <ele>63.9</ele>
        <time>2022-04-20T12:47:38Z</time>
      </trkpt>
      <trkpt lat="49.97575" lon="2.42859">
        <ele>63.9</ele>
        <time>2022-04-20T12:47:39Z</time>
      </trkpt>
      <trkpt lat="49.97576" lon="2.42858">
        <ele>63.9</ele>
        <time>2022-04-20T12:47:40Z</time>
      </trkpt>
      <trkpt lat="49.97577" lon="2.42855">
        <ele>63.9</ele>
        <time>2022-04-20T12:47:42Z</time>
      </trkpt>
      <trkpt lat="49.97578" lon="2.42853">
        <ele>63.9</ele>
        <time>2022-04-20T12:47:43Z</time>
      </trkpt>
      <trkpt lat="49.97578" lon="2.42851">
        <ele>63.9</ele>
        <time>2022-04-20T12:47:44Z</time>
      </trkpt>
      <trkpt lat="49.97579" lon="2.42847">
        <ele>63.9</ele>
        <time>2022-04-20T12:47:45Z</time>
      </trkpt>
      <trkpt lat="49.9758" lon="2.42845">
        <ele>63.9</ele>
        <time>2022-04-20T12:47:47Z</time>
      </trkpt>
      <trkpt lat="49.9758" lon="2.42844">
        <ele>63.9</ele>
        <time>2022-04-20T12:47:48Z</time>
      </trkpt>
      <trkpt lat="49.97581" lon="2.42842">
        <ele>63.9</ele>
        <time>2022-04-20T12:47:49Z</time>
      </trkpt>
      <trkpt lat="49.97581" lon="2.42841">
        <ele>63.9</ele>
        <time>2022-04-20T12:47:50Z</time>
      </trkpt>
      <trkpt lat="49.97582" lon="2.42838">
        <ele>64</ele>
        <time>2022-04-20T12:47:51Z</time>
      </trkpt>
      <trkpt lat="49.97582" lon="2.42837">
        <ele>64</ele>
        <time>2022-04-20T12:47:52Z</time>
      </trkpt>
      <trkpt lat="49.97583" lon="2.42835">
        <ele>64</ele>
        <time>2022-04-20T12:47:53Z</time>
      </trkpt>
      <trkpt lat="49.97584" lon="2.42833">
        <ele>64</ele>
        <time>2022-04-20T12:47:54Z</time>
      </trkpt>
      <trkpt lat="49.97584" lon="2.42832">
        <ele>64</ele>
        <time>2022-04-20T12:47:55Z</time>
      </trkpt>
      <trkpt lat="49.97585" lon="2.4283">
        <ele>64</ele>
        <time>2022-04-20T12:47:56Z</time>
      </trkpt>
      <trkpt lat="49.97585" lon="2.42829">
        <ele>64</ele>
        <time>2022-04-20T12:47:58Z</time>
      </trkpt>
      <trkpt lat="49.97586" lon="2.42827">
        <ele>64</ele>
        <time>2022-04-20T12:47:59Z</time>
      </trkpt>
      <trkpt lat="49.97586" lon="2.42826">
        <ele>64</ele>
        <time>2022-04-20T12:48:00Z</time>
      </trkpt>
      <trkpt lat="49.97587" lon="2.42824">
        <ele>64</ele>
        <time>2022-04-20T12:48:01Z</time>
      </trkpt>
      <trkpt lat="49.97587" lon="2.42822">
        <ele>64</ele>
        <time>2022-04-20T12:48:02Z</time>
      </trkpt>
      <trkpt lat="49.97588" lon="2.42821">
        <ele>64</ele>
        <time>2022-04-20T12:48:03Z</time>
      </trkpt>
      <trkpt lat="49.97588" lon="2.4282">
        <ele>64</ele>
        <time>2022-04-20T12:48:04Z</time>
      </trkpt>
      <trkpt lat="49.97589" lon="2.42819">
        <ele>64.1</ele>
        <time>2022-04-20T12:48:05Z</time>
      </trkpt>
      <trkpt lat="49.97589" lon="2.42817">
        <ele>64.1</ele>
        <time>2022-04-20T12:48:06Z</time>
      </trkpt>
      <trkpt lat="49.9759" lon="2.42815">
        <ele>64.1</ele>
        <time>2022-04-20T12:48:08Z</time>
      </trkpt>
      <trkpt lat="49.97591" lon="2.42813">
        <ele>64.1</ele>
        <time>2022-04-20T12:48:09Z</time>
      </trkpt>
      <trkpt lat="49.97591" lon="2.42812">
        <ele>64.1</ele>
        <time>2022-04-20T12:48:10Z</time>
      </trkpt>
      <trkpt lat="49.97592" lon="2.42811">
        <ele>64.1</ele>
        <time>2022-04-20T12:48:11Z</time>
      </trkpt>
      <trkpt lat="49.97593" lon="2.42809">
        <ele>64.1</ele>
        <time>2022-04-20T12:48:12Z</time>
      </trkpt>
      <trkpt lat="49.97593" lon="2.42808">
        <ele>64.1</ele>
        <time>2022-04-20T12:48:14Z</time>
      </trkpt>
      <trkpt lat="49.97594" lon="2.42806">
        <ele>64.1</ele>
        <time>2022-04-20T12:48:15Z</time>
      </trkpt>
      <trkpt lat="49.97595" lon="2.42804">
        <ele>64.2</ele>
        <time>2022-04-20T12:48:16Z</time>
      </trkpt>
      <trkpt lat="49.97595" lon="2.42802">
        <ele>64.2</ele>
        <time>2022-04-20T12:48:17Z</time>
      </trkpt>
      <trkpt lat="49.97596" lon="2.42801">
        <ele>64.2</ele>
        <time>2022-04-20T12:48:18Z</time>
      </trkpt>
      <trkpt lat="49.97596" lon="2.42799">
        <ele>64.2</ele>
        <time>2022-04-20T12:48:20Z</time>
      </trkpt>
      <trkpt lat="49.97597" lon="2.42798">
        <ele>64.2</ele>
        <time>2022-04-20T12:48:21Z</time>
      </trkpt>
      <trkpt lat="49.97597" lon="2.42796">
        <ele>64.2</ele>
        <time>2022-04-20T12:48:22Z</time>
      </trkpt>
      <trkpt lat="49.97598" lon="2.42795">
        <ele>64.2</ele>
        <time>2022-04-20T12:48:23Z</time>
      </trkpt>
      <trkpt lat="49.97598" lon="2.42793">
        <ele>64.2</ele>
        <time>2022-04-20T12:48:24Z</time>
      </trkpt>
      <trkpt lat="49.97599" lon="2.42791">
        <ele>64.2</ele>
        <time>2022-04-20T12:48:25Z</time>
      </trkpt>
      <trkpt lat="49.97599" lon="2.42789">
        <ele>64.3</ele>
        <time>2022-04-20T12:48:26Z</time>
      </trkpt>
      <trkpt lat="49.97599" lon="2.42786">
        <ele>64.3</ele>
        <time>2022-04-20T12:48:27Z</time>
      </trkpt>
      <trkpt lat="49.97599" lon="2.42785">
        <ele>64.3</ele>
        <time>2022-04-20T12:48:29Z</time>
      </trkpt>
      <trkpt lat="49.976" lon="2.42784">
        <ele>64.3</ele>
        <time>2022-04-20T12:48:30Z</time>
      </trkpt>
      <trkpt lat="49.976" lon="2.42782">
        <ele>64.3</ele>
        <time>2022-04-20T12:48:31Z</time>
      </trkpt>
      <trkpt lat="49.976" lon="2.42781">
        <ele>64.3</ele>
        <time>2022-04-20T12:48:32Z</time>
      </trkpt>
      <trkpt lat="49.97601" lon="2.42779">
        <ele>64.3</ele>
        <time>2022-04-20T12:48:33Z</time>
      </trkpt>
      <trkpt lat="49.97601" lon="2.42777">
        <ele>64.4</ele>
        <time>2022-04-20T12:48:34Z</time>
      </trkpt>
      <trkpt lat="49.97601" lon="2.42775">
        <ele>64.4</ele>
        <time>2022-04-20T12:48:35Z</time>
      </trkpt>
      <trkpt lat="49.97602" lon="2.42774">
        <ele>64.4</ele>
        <time>2022-04-20T12:48:37Z</time>
      </trkpt>
      <trkpt lat="49.97602" lon="2.42772">
        <ele>64.4</ele>
        <time>2022-04-20T12:48:38Z</time>
      </trkpt>
      <trkpt lat="49.97602" lon="2.4277">
        <ele>64.4</ele>
        <time>2022-04-20T12:48:39Z</time>
      </trkpt>
      <trkpt lat="49.97603" lon="2.42769">
        <ele>64.4</ele>
        <time>2022-04-20T12:48:40Z</time>
      </trkpt>
      <trkpt lat="49.97604" lon="2.42766">
        <ele>64.4</ele>
        <time>2022-04-20T12:48:41Z</time>
      </trkpt>
      <trkpt lat="49.97604" lon="2.42765">
        <ele>64.4</ele>
        <time>2022-04-20T12:48:42Z</time>
      </trkpt>
      <trkpt lat="49.97604" lon="2.42763">
        <ele>64.4</ele>
        <time>2022-04-20T12:48:43Z</time>
      </trkpt>
      <trkpt lat="49.97605" lon="2.42762">
        <ele>64.4</ele>
        <time>2022-04-20T12:48:44Z</time>
      </trkpt>
      <trkpt lat="49.97605" lon="2.4276">
        <ele>64.4</ele>
        <time>2022-04-20T12:48:45Z</time>
      </trkpt>
      <trkpt lat="49.97606" lon="2.42758">
        <ele>64.5</ele>
        <time>2022-04-20T12:48:47Z</time>
      </trkpt>
      <trkpt lat="49.97606" lon="2.42756">
        <ele>64.5</ele>
        <time>2022-04-20T12:48:48Z</time>
      </trkpt>
      <trkpt lat="49.97607" lon="2.42753">
        <ele>64.5</ele>
        <time>2022-04-20T12:48:49Z</time>
      </trkpt>
      <trkpt lat="49.97607" lon="2.4275">
        <ele>64.5</ele>
        <time>2022-04-20T12:48:50Z</time>
      </trkpt>
      <trkpt lat="49.97608" lon="2.42748">
        <ele>64.5</ele>
        <time>2022-04-20T12:48:52Z</time>
      </trkpt>
      <trkpt lat="49.97609" lon="2.42746">
        <ele>64.5</ele>
        <time>2022-04-20T12:48:53Z</time>
      </trkpt>
      <trkpt lat="49.97609" lon="2.42744">
        <ele>64.5</ele>
        <time>2022-04-20T12:48:54Z</time>
      </trkpt>
      <trkpt lat="49.9761" lon="2.42741">
        <ele>64.6</ele>
        <time>2022-04-20T12:48:55Z</time>
      </trkpt>
      <trkpt lat="49.97611" lon="2.4274">
        <ele>64.6</ele>
        <time>2022-04-20T12:48:56Z</time>
      </trkpt>
      <trkpt lat="49.97611" lon="2.42739">
        <ele>64.6</ele>
        <time>2022-04-20T12:48:57Z</time>
      </trkpt>
      <trkpt lat="49.97612" lon="2.42737">
        <ele>64.6</ele>
        <time>2022-04-20T12:48:58Z</time>
      </trkpt>
      <trkpt lat="49.97612" lon="2.42735">
        <ele>64.7</ele>
        <time>2022-04-20T12:48:59Z</time>
      </trkpt>
      <trkpt lat="49.97613" lon="2.42734">
        <ele>64.7</ele>
        <time>2022-04-20T12:49:01Z</time>
      </trkpt>
      <trkpt lat="49.97614" lon="2.42731">
        <ele>64.7</ele>
        <time>2022-04-20T12:49:02Z</time>
      </trkpt>
      <trkpt lat="49.97614" lon="2.4273">
        <ele>64.7</ele>
        <time>2022-04-20T12:49:03Z</time>
      </trkpt>
      <trkpt lat="49.97615" lon="2.42729">
        <ele>64.8</ele>
        <time>2022-04-20T12:49:04Z</time>
      </trkpt>
      <trkpt lat="49.97615" lon="2.42727">
        <ele>64.8</ele>
        <time>2022-04-20T12:49:05Z</time>
      </trkpt>
      <trkpt lat="49.97616" lon="2.42726">
        <ele>64.8</ele>
        <time>2022-04-20T12:49:06Z</time>
      </trkpt>
      <trkpt lat="49.97616" lon="2.42724">
        <ele>64.8</ele>
        <time>2022-04-20T12:49:07Z</time>
      </trkpt>
      <trkpt lat="49.97617" lon="2.42722">
        <ele>64.8</ele>
        <time>2022-04-20T12:49:08Z</time>
      </trkpt>
      <trkpt lat="49.97617" lon="2.4272">
        <ele>64.9</ele>
        <time>2022-04-20T12:49:10Z</time>
      </trkpt>
      <trkpt lat="49.97618" lon="2.42718">
        <ele>64.9</ele>
        <time>2022-04-20T12:49:11Z</time>
      </trkpt>
      <trkpt lat="49.97618" lon="2.42716">
        <ele>64.9</ele>
        <time>2022-04-20T12:49:13Z</time>
      </trkpt>
      <trkpt lat="49.97619" lon="2.42714">
        <ele>65</ele>
        <time>2022-04-20T12:49:14Z</time>
      </trkpt>
      <trkpt lat="49.97619" lon="2.42712">
        <ele>65</ele>
        <time>2022-04-20T12:49:15Z</time>
      </trkpt>
      <trkpt lat="49.97619" lon="2.42711">
        <ele>65</ele>
        <time>2022-04-20T12:49:16Z</time>
      </trkpt>
      <trkpt lat="49.9762" lon="2.42709">
        <ele>65</ele>
        <time>2022-04-20T12:49:17Z</time>
      </trkpt>
      <trkpt lat="49.9762" lon="2.42707">
        <ele>65.1</ele>
        <time>2022-04-20T12:49:18Z</time>
      </trkpt>
      <trkpt lat="49.97621" lon="2.42704">
        <ele>65.1</ele>
        <time>2022-04-20T12:49:20Z</time>
      </trkpt>
      <trkpt lat="49.97621" lon="2.42702">
        <ele>65.1</ele>
        <time>2022-04-20T12:49:21Z</time>
      </trkpt>
      <trkpt lat="49.97622" lon="2.42699">
        <ele>65.2</ele>
        <time>2022-04-20T12:49:22Z</time>
      </trkpt>
      <trkpt lat="49.97623" lon="2.42698">
        <ele>65.2</ele>
        <time>2022-04-20T12:49:23Z</time>
      </trkpt>
      <trkpt lat="49.97623" lon="2.42697">
        <ele>65.2</ele>
        <time>2022-04-20T12:49:24Z</time>
      </trkpt>
      <trkpt lat="49.97624" lon="2.42694">
        <ele>65.3</ele>
        <time>2022-04-20T12:49:25Z</time>
      </trkpt>
      <trkpt lat="49.97625" lon="2.42692">
        <ele>65.3</ele>
        <time>2022-04-20T12:49:26Z</time>
      </trkpt>
      <trkpt lat="49.97625" lon="2.42691">
        <ele>65.4</ele>
        <time>2022-04-20T12:49:28Z</time>
      </trkpt>
      <trkpt lat="49.97626" lon="2.42689">
        <ele>65.4</ele>
        <time>2022-04-20T12:49:29Z</time>
      </trkpt>
      <trkpt lat="49.97626" lon="2.42688">
        <ele>65.4</ele>
        <time>2022-04-20T12:49:30Z</time>
      </trkpt>
      <trkpt lat="49.97627" lon="2.42686">
        <ele>65.5</ele>
        <time>2022-04-20T12:49:31Z</time>
      </trkpt>
      <trkpt lat="49.97628" lon="2.42684">
        <ele>65.6</ele>
        <time>2022-04-20T12:49:32Z</time>
      </trkpt>
      <trkpt lat="49.97628" lon="2.42683">
        <ele>65.6</ele>
        <time>2022-04-20T12:49:33Z</time>
      </trkpt>
      <trkpt lat="49.97629" lon="2.42682">
        <ele>65.6</ele>
        <time>2022-04-20T12:49:34Z</time>
      </trkpt>
      <trkpt lat="49.9763" lon="2.4268">
        <ele>65.7</ele>
        <time>2022-04-20T12:49:35Z</time>
      </trkpt>
      <trkpt lat="49.97631" lon="2.42679">
        <ele>65.7</ele>
        <time>2022-04-20T12:49:36Z</time>
      </trkpt>
      <trkpt lat="49.97631" lon="2.42678">
        <ele>65.7</ele>
        <time>2022-04-20T12:49:38Z</time>
      </trkpt>
      <trkpt lat="49.97632" lon="2.42676">
        <ele>65.8</ele>
        <time>2022-04-20T12:49:39Z</time>
      </trkpt>
      <trkpt lat="49.97633" lon="2.42675">
        <ele>65.8</ele>
        <time>2022-04-20T12:49:40Z</time>
      </trkpt>
      <trkpt lat="49.97634" lon="2.42674">
        <ele>65.9</ele>
        <time>2022-04-20T12:49:41Z</time>
      </trkpt>
      <trkpt lat="49.97634" lon="2.42673">
        <ele>65.9</ele>
        <time>2022-04-20T12:49:42Z</time>
      </trkpt>
      <trkpt lat="49.97635" lon="2.42671">
        <ele>65.9</ele>
        <time>2022-04-20T12:49:43Z</time>
      </trkpt>
      <trkpt lat="49.97636" lon="2.4267">
        <ele>66</ele>
        <time>2022-04-20T12:49:44Z</time>
      </trkpt>
      <trkpt lat="49.97636" lon="2.42669">
        <ele>66</ele>
        <time>2022-04-20T12:49:45Z</time>
      </trkpt>
      <trkpt lat="49.97637" lon="2.42668">
        <ele>66.1</ele>
        <time>2022-04-20T12:49:46Z</time>
      </trkpt>
      <trkpt lat="49.97638" lon="2.42666">
        <ele>66.1</ele>
        <time>2022-04-20T12:49:48Z</time>
      </trkpt>
      <trkpt lat="49.97639" lon="2.42665">
        <ele>66.2</ele>
        <time>2022-04-20T12:49:49Z</time>
      </trkpt>
      <trkpt lat="49.97639" lon="2.42664">
        <ele>66.2</ele>
        <time>2022-04-20T12:49:50Z</time>
      </trkpt>
      <trkpt lat="49.9764" lon="2.42662">
        <ele>66.3</ele>
        <time>2022-04-20T12:49:51Z</time>
      </trkpt>
      <trkpt lat="49.97641" lon="2.42661">
        <ele>66.3</ele>
        <time>2022-04-20T12:49:52Z</time>
      </trkpt>
      <trkpt lat="49.97641" lon="2.4266">
        <ele>66.3</ele>
        <time>2022-04-20T12:49:53Z</time>
      </trkpt>
      <trkpt lat="49.97642" lon="2.42659">
        <ele>66.4</ele>
        <time>2022-04-20T12:49:54Z</time>
      </trkpt>
      <trkpt lat="49.97643" lon="2.42658">
        <ele>66.4</ele>
        <time>2022-04-20T12:49:55Z</time>
      </trkpt>
      <trkpt lat="49.97643" lon="2.42656">
        <ele>66.5</ele>
        <time>2022-04-20T12:49:56Z</time>
      </trkpt>
      <trkpt lat="49.97644" lon="2.42655">
        <ele>66.5</ele>
        <time>2022-04-20T12:49:57Z</time>
      </trkpt>
      <trkpt lat="49.97645" lon="2.42653">
        <ele>66.6</ele>
        <time>2022-04-20T12:49:59Z</time>
      </trkpt>
      <trkpt lat="49.97645" lon="2.42652">
        <ele>66.6</ele>
        <time>2022-04-20T12:50:00Z</time>
      </trkpt>
      <trkpt lat="49.97646" lon="2.42651">
        <ele>66.7</ele>
        <time>2022-04-20T12:50:01Z</time>
      </trkpt>
      <trkpt lat="49.97646" lon="2.42649">
        <ele>66.7</ele>
        <time>2022-04-20T12:50:02Z</time>
      </trkpt>
      <trkpt lat="49.97646" lon="2.42648">
        <ele>66.7</ele>
        <time>2022-04-20T12:50:03Z</time>
      </trkpt>
      <trkpt lat="49.97646" lon="2.42647">
        <ele>66.8</ele>
        <time>2022-04-20T12:50:04Z</time>
      </trkpt>
      <trkpt lat="49.97647" lon="2.42645">
        <ele>66.8</ele>
        <time>2022-04-20T12:50:05Z</time>
      </trkpt>
      <trkpt lat="49.97648" lon="2.42644">
        <ele>66.9</ele>
        <time>2022-04-20T12:50:07Z</time>
      </trkpt>
      <trkpt lat="49.97648" lon="2.42643">
        <ele>66.9</ele>
        <time>2022-04-20T12:50:08Z</time>
      </trkpt>
      <trkpt lat="49.97649" lon="2.42641">
        <ele>67</ele>
        <time>2022-04-20T12:50:09Z</time>
      </trkpt>
      <trkpt lat="49.97649" lon="2.4264">
        <ele>67</ele>
        <time>2022-04-20T12:50:10Z</time>
      </trkpt>
      <trkpt lat="49.9765" lon="2.42639">
        <ele>67.1</ele>
        <time>2022-04-20T12:50:11Z</time>
      </trkpt>
      <trkpt lat="49.97651" lon="2.42637">
        <ele>67.1</ele>
        <time>2022-04-20T12:50:12Z</time>
      </trkpt>
      <trkpt lat="49.97651" lon="2.42636">
        <ele>67.2</ele>
        <time>2022-04-20T12:50:14Z</time>
      </trkpt>
      <trkpt lat="49.97652" lon="2.42634">
        <ele>67.2</ele>
        <time>2022-04-20T12:50:15Z</time>
      </trkpt>
      <trkpt lat="49.97652" lon="2.42633">
        <ele>67.3</ele>
        <time>2022-04-20T12:50:16Z</time>
      </trkpt>
      <trkpt lat="49.97652" lon="2.42631">
        <ele>67.4</ele>
        <time>2022-04-20T12:50:17Z</time>
      </trkpt>
      <trkpt lat="49.97653" lon="2.4263">
        <ele>67.4</ele>
        <time>2022-04-20T12:50:18Z</time>
      </trkpt>
      <trkpt lat="49.97653" lon="2.42629">
        <ele>67.4</ele>
        <time>2022-04-20T12:50:19Z</time>
      </trkpt>
      <trkpt lat="49.97653" lon="2.42628">
        <ele>67.5</ele>
        <time>2022-04-20T12:50:20Z</time>
      </trkpt>
      <trkpt lat="49.97654" lon="2.42625">
        <ele>67.6</ele>
        <time>2022-04-20T12:50:21Z</time>
      </trkpt>
      <trkpt lat="49.97654" lon="2.42624">
        <ele>67.6</ele>
        <time>2022-04-20T12:50:22Z</time>
      </trkpt>
      <trkpt lat="49.97655" lon="2.42623">
        <ele>67.6</ele>
        <time>2022-04-20T12:50:23Z</time>
      </trkpt>
      <trkpt lat="49.97656" lon="2.4262">
        <ele>67.7</ele>
        <time>2022-04-20T12:50:25Z</time>
      </trkpt>
      <trkpt lat="49.97656" lon="2.42619">
        <ele>67.8</ele>
        <time>2022-04-20T12:50:26Z</time>
      </trkpt>
      <trkpt lat="49.97657" lon="2.42618">
        <ele>67.8</ele>
        <time>2022-04-20T12:50:27Z</time>
      </trkpt>
      <trkpt lat="49.97657" lon="2.42616">
        <ele>67.9</ele>
        <time>2022-04-20T12:50:28Z</time>
      </trkpt>
      <trkpt lat="49.97658" lon="2.42614">
        <ele>67.9</ele>
        <time>2022-04-20T12:50:29Z</time>
      </trkpt>
      <trkpt lat="49.97659" lon="2.42612">
        <ele>68</ele>
        <time>2022-04-20T12:50:31Z</time>
      </trkpt>
      <trkpt lat="49.9766" lon="2.42612">
        <ele>68</ele>
        <time>2022-04-20T12:50:32Z</time>
      </trkpt>
      <trkpt lat="49.97661" lon="2.42611">
        <ele>68.1</ele>
        <time>2022-04-20T12:50:33Z</time>
      </trkpt>
      <trkpt lat="49.97662" lon="2.4261">
        <ele>68.1</ele>
        <time>2022-04-20T12:50:34Z</time>
      </trkpt>
      <trkpt lat="49.97663" lon="2.42609">
        <ele>68.2</ele>
        <time>2022-04-20T12:50:35Z</time>
      </trkpt>
      <trkpt lat="49.97664" lon="2.42607">
        <ele>68.2</ele>
        <time>2022-04-20T12:50:37Z</time>
      </trkpt>
      <trkpt lat="49.97664" lon="2.42606">
        <ele>68.3</ele>
        <time>2022-04-20T12:50:38Z</time>
      </trkpt>
      <trkpt lat="49.97665" lon="2.42605">
        <ele>68.3</ele>
        <time>2022-04-20T12:50:39Z</time>
      </trkpt>
      <trkpt lat="49.97665" lon="2.42603">
        <ele>68.4</ele>
        <time>2022-04-20T12:50:40Z</time>
      </trkpt>
      <trkpt lat="49.97665" lon="2.42601">
        <ele>68.4</ele>
        <time>2022-04-20T12:50:41Z</time>
      </trkpt>
      <trkpt lat="49.97666" lon="2.42598">
        <ele>68.5</ele>
        <time>2022-04-20T12:50:43Z</time>
      </trkpt>
      <trkpt lat="49.97666" lon="2.42596">
        <ele>68.6</ele>
        <time>2022-04-20T12:50:44Z</time>
      </trkpt>
      <trkpt lat="49.97666" lon="2.42594">
        <ele>68.7</ele>
        <time>2022-04-20T12:50:45Z</time>
      </trkpt>
      <trkpt lat="49.97667" lon="2.4259">
        <ele>68.8</ele>
        <time>2022-04-20T12:50:46Z</time>
      </trkpt>
      <trkpt lat="49.97667" lon="2.42589">
        <ele>68.8</ele>
        <time>2022-04-20T12:50:47Z</time>
      </trkpt>
      <trkpt lat="49.97668" lon="2.42588">
        <ele>68.9</ele>
        <time>2022-04-20T12:50:48Z</time>
      </trkpt>
      <trkpt lat="49.97668" lon="2.42586">
        <ele>68.9</ele>
        <time>2022-04-20T12:50:50Z</time>
      </trkpt>
      <trkpt lat="49.97669" lon="2.42582">
        <ele>69</ele>
        <time>2022-04-20T12:50:52Z</time>
      </trkpt>
      <trkpt lat="49.97669" lon="2.42579">
        <ele>69.1</ele>
        <time>2022-04-20T12:50:53Z</time>
      </trkpt>
      <trkpt lat="49.97669" lon="2.42578">
        <ele>69.2</ele>
        <time>2022-04-20T12:50:54Z</time>
      </trkpt>
      <trkpt lat="49.9767" lon="2.42576">
        <ele>69.2</ele>
        <time>2022-04-20T12:50:55Z</time>
      </trkpt>
      <trkpt lat="49.9767" lon="2.42574">
        <ele>69.3</ele>
        <time>2022-04-20T12:50:56Z</time>
      </trkpt>
      <trkpt lat="49.9767" lon="2.42572">
        <ele>69.3</ele>
        <time>2022-04-20T12:50:57Z</time>
      </trkpt>
      <trkpt lat="49.97671" lon="2.42571">
        <ele>69.4</ele>
        <time>2022-04-20T12:50:59Z</time>
      </trkpt>
      <trkpt lat="49.97671" lon="2.42569">
        <ele>69.4</ele>
        <time>2022-04-20T12:51:00Z</time>
      </trkpt>
      <trkpt lat="49.97671" lon="2.42567">
        <ele>69.5</ele>
        <time>2022-04-20T12:51:01Z</time>
      </trkpt>
      <trkpt lat="49.97672" lon="2.42565">
        <ele>69.5</ele>
        <time>2022-04-20T12:51:02Z</time>
      </trkpt>
      <trkpt lat="49.97672" lon="2.42562">
        <ele>69.6</ele>
        <time>2022-04-20T12:51:03Z</time>
      </trkpt>
      <trkpt lat="49.97672" lon="2.42561">
        <ele>69.7</ele>
        <time>2022-04-20T12:51:04Z</time>
      </trkpt>
      <trkpt lat="49.97673" lon="2.4256">
        <ele>69.7</ele>
        <time>2022-04-20T12:51:05Z</time>
      </trkpt>
      <trkpt lat="49.97674" lon="2.42556">
        <ele>69.8</ele>
        <time>2022-04-20T12:51:06Z</time>
      </trkpt>
      <trkpt lat="49.97674" lon="2.42554">
        <ele>69.9</ele>
        <time>2022-04-20T12:51:08Z</time>
      </trkpt>
      <trkpt lat="49.97674" lon="2.42553">
        <ele>69.9</ele>
        <time>2022-04-20T12:51:09Z</time>
      </trkpt>
      <trkpt lat="49.97675" lon="2.42551">
        <ele>70</ele>
        <time>2022-04-20T12:51:10Z</time>
      </trkpt>
      <trkpt lat="49.97675" lon="2.4255">
        <ele>70</ele>
        <time>2022-04-20T12:51:11Z</time>
      </trkpt>
      <trkpt lat="49.97675" lon="2.42548">
        <ele>70</ele>
        <time>2022-04-20T12:51:12Z</time>
      </trkpt>
      <trkpt lat="49.97676" lon="2.42546">
        <ele>70.1</ele>
        <time>2022-04-20T12:51:13Z</time>
      </trkpt>
      <trkpt lat="49.97677" lon="2.42544">
        <ele>70.2</ele>
        <time>2022-04-20T12:51:15Z</time>
      </trkpt>
      <trkpt lat="49.97677" lon="2.42542">
        <ele>70.2</ele>
        <time>2022-04-20T12:51:16Z</time>
      </trkpt>
      <trkpt lat="49.97678" lon="2.4254">
        <ele>70.3</ele>
        <time>2022-04-20T12:51:17Z</time>
      </trkpt>
      <trkpt lat="49.97679" lon="2.42538">
        <ele>70.3</ele>
        <time>2022-04-20T12:51:19Z</time>
      </trkpt>
      <trkpt lat="49.97679" lon="2.42536">
        <ele>70.4</ele>
        <time>2022-04-20T12:51:20Z</time>
      </trkpt>
      <trkpt lat="49.9768" lon="2.42533">
        <ele>70.5</ele>
        <time>2022-04-20T12:51:21Z</time>
      </trkpt>
      <trkpt lat="49.9768" lon="2.42531">
        <ele>70.5</ele>
        <time>2022-04-20T12:51:23Z</time>
      </trkpt>
      <trkpt lat="49.97681" lon="2.42529">
        <ele>70.6</ele>
        <time>2022-04-20T12:51:24Z</time>
      </trkpt>
      <trkpt lat="49.97681" lon="2.42527">
        <ele>70.6</ele>
        <time>2022-04-20T12:51:25Z</time>
      </trkpt>
      <trkpt lat="49.97682" lon="2.42524">
        <ele>70.7</ele>
        <time>2022-04-20T12:51:27Z</time>
      </trkpt>
      <trkpt lat="49.97682" lon="2.42523">
        <ele>70.7</ele>
        <time>2022-04-20T12:51:28Z</time>
      </trkpt>
      <trkpt lat="49.97683" lon="2.42521">
        <ele>70.8</ele>
        <time>2022-04-20T12:51:29Z</time>
      </trkpt>
      <trkpt lat="49.97683" lon="2.4252">
        <ele>70.8</ele>
        <time>2022-04-20T12:51:30Z</time>
      </trkpt>
      <trkpt lat="49.97684" lon="2.42517">
        <ele>70.9</ele>
        <time>2022-04-20T12:51:31Z</time>
      </trkpt>
      <trkpt lat="49.97684" lon="2.42515">
        <ele>70.9</ele>
        <time>2022-04-20T12:51:32Z</time>
      </trkpt>
      <trkpt lat="49.97684" lon="2.42514">
        <ele>70.9</ele>
        <time>2022-04-20T12:51:33Z</time>
      </trkpt>
      <trkpt lat="49.97685" lon="2.4251">
        <ele>71</ele>
        <time>2022-04-20T12:51:35Z</time>
      </trkpt>
      <trkpt lat="49.97685" lon="2.42509">
        <ele>71</ele>
        <time>2022-04-20T12:51:36Z</time>
      </trkpt>
      <trkpt lat="49.97685" lon="2.42508">
        <ele>71.1</ele>
        <time>2022-04-20T12:51:37Z</time>
      </trkpt>
      <trkpt lat="49.97686" lon="2.42507">
        <ele>71.1</ele>
        <time>2022-04-20T12:51:38Z</time>
      </trkpt>
      <trkpt lat="49.97686" lon="2.42505">
        <ele>71.1</ele>
        <time>2022-04-20T12:51:39Z</time>
      </trkpt>
      <trkpt lat="49.97687" lon="2.42503">
        <ele>71.2</ele>
        <time>2022-04-20T12:51:40Z</time>
      </trkpt>
      <trkpt lat="49.97687" lon="2.42502">
        <ele>71.2</ele>
        <time>2022-04-20T12:51:41Z</time>
      </trkpt>
      <trkpt lat="49.97688" lon="2.42499">
        <ele>71.2</ele>
        <time>2022-04-20T12:51:43Z</time>
      </trkpt>
      <trkpt lat="49.97688" lon="2.42497">
        <ele>71.3</ele>
        <time>2022-04-20T12:51:44Z</time>
      </trkpt>
      <trkpt lat="49.97688" lon="2.42495">
        <ele>71.3</ele>
        <time>2022-04-20T12:51:45Z</time>
      </trkpt>
      <trkpt lat="49.97688" lon="2.42494">
        <ele>71.4</ele>
        <time>2022-04-20T12:51:46Z</time>
      </trkpt>
      <trkpt lat="49.97689" lon="2.42491">
        <ele>71.4</ele>
        <time>2022-04-20T12:51:47Z</time>
      </trkpt>
      <trkpt lat="49.97689" lon="2.42489">
        <ele>71.5</ele>
        <time>2022-04-20T12:51:48Z</time>
      </trkpt>
      <trkpt lat="49.97689" lon="2.42488">
        <ele>71.5</ele>
        <time>2022-04-20T12:51:49Z</time>
      </trkpt>
      <trkpt lat="49.9769" lon="2.42485">
        <ele>71.6</ele>
        <time>2022-04-20T12:51:51Z</time>
      </trkpt>
      <trkpt lat="49.97691" lon="2.42484">
        <ele>71.6</ele>
        <time>2022-04-20T12:51:52Z</time>
      </trkpt>
      <trkpt lat="49.97691" lon="2.42482">
        <ele>71.6</ele>
        <time>2022-04-20T12:51:53Z</time>
      </trkpt>
      <trkpt lat="49.97692" lon="2.4248">
        <ele>71.7</ele>
        <time>2022-04-20T12:51:54Z</time>
      </trkpt>
      <trkpt lat="49.97692" lon="2.42479">
        <ele>71.7</ele>
        <time>2022-04-20T12:51:55Z</time>
      </trkpt>
      <trkpt lat="49.97693" lon="2.42475">
        <ele>71.8</ele>
        <time>2022-04-20T12:51:57Z</time>
      </trkpt>
      <trkpt lat="49.97693" lon="2.42474">
        <ele>71.8</ele>
        <time>2022-04-20T12:51:58Z</time>
      </trkpt>
      <trkpt lat="49.97693" lon="2.42471">
        <ele>71.9</ele>
        <time>2022-04-20T12:51:59Z</time>
      </trkpt>
      <trkpt lat="49.97694" lon="2.42469">
        <ele>71.9</ele>
        <time>2022-04-20T12:52:00Z</time>
      </trkpt>
      <trkpt lat="49.97695" lon="2.42466">
        <ele>72</ele>
        <time>2022-04-20T12:52:01Z</time>
      </trkpt>
      <trkpt lat="49.97695" lon="2.42465">
        <ele>72</ele>
        <time>2022-04-20T12:52:03Z</time>
      </trkpt>
      <trkpt lat="49.97695" lon="2.42464">
        <ele>72.1</ele>
        <time>2022-04-20T12:52:04Z</time>
      </trkpt>
      <trkpt lat="49.97696" lon="2.42462">
        <ele>72.1</ele>
        <time>2022-04-20T12:52:05Z</time>
      </trkpt>
      <trkpt lat="49.97696" lon="2.42461">
        <ele>72.1</ele>
        <time>2022-04-20T12:52:06Z</time>
      </trkpt>
      <trkpt lat="49.97697" lon="2.4246">
        <ele>72.2</ele>
        <time>2022-04-20T12:52:07Z</time>
      </trkpt>
      <trkpt lat="49.97697" lon="2.42458">
        <ele>72.2</ele>
        <time>2022-04-20T12:52:08Z</time>
      </trkpt>
      <trkpt lat="49.97698" lon="2.42456">
        <ele>72.3</ele>
        <time>2022-04-20T12:52:09Z</time>
      </trkpt>
      <trkpt lat="49.97699" lon="2.42454">
        <ele>72.3</ele>
        <time>2022-04-20T12:52:11Z</time>
      </trkpt>
      <trkpt lat="49.977" lon="2.42452">
        <ele>72.4</ele>
        <time>2022-04-20T12:52:12Z</time>
      </trkpt>
      <trkpt lat="49.97701" lon="2.4245">
        <ele>72.4</ele>
        <time>2022-04-20T12:52:14Z</time>
      </trkpt>
      <trkpt lat="49.97702" lon="2.42448">
        <ele>72.5</ele>
        <time>2022-04-20T12:52:15Z</time>
      </trkpt>
      <trkpt lat="49.97702" lon="2.42447">
        <ele>72.5</ele>
        <time>2022-04-20T12:52:16Z</time>
      </trkpt>
      <trkpt lat="49.97703" lon="2.42445">
        <ele>72.6</ele>
        <time>2022-04-20T12:52:17Z</time>
      </trkpt>
      <trkpt lat="49.97704" lon="2.42443">
        <ele>72.7</ele>
        <time>2022-04-20T12:52:18Z</time>
      </trkpt>
      <trkpt lat="49.97704" lon="2.42442">
        <ele>72.7</ele>
        <time>2022-04-20T12:52:19Z</time>
      </trkpt>
      <trkpt lat="49.97705" lon="2.42441">
        <ele>72.8</ele>
        <time>2022-04-20T12:52:20Z</time>
      </trkpt>
      <trkpt lat="49.97706" lon="2.42439">
        <ele>72.8</ele>
        <time>2022-04-20T12:52:21Z</time>
      </trkpt>
      <trkpt lat="49.97706" lon="2.42437">
        <ele>72.9</ele>
        <time>2022-04-20T12:52:23Z</time>
      </trkpt>
      <trkpt lat="49.97707" lon="2.42435">
        <ele>73</ele>
        <time>2022-04-20T12:52:24Z</time>
      </trkpt>
      <trkpt lat="49.97708" lon="2.42434">
        <ele>73</ele>
        <time>2022-04-20T12:52:25Z</time>
      </trkpt>
      <trkpt lat="49.97708" lon="2.42433">
        <ele>73.1</ele>
        <time>2022-04-20T12:52:26Z</time>
      </trkpt>
      <trkpt lat="49.97709" lon="2.42431">
        <ele>73.1</ele>
        <time>2022-04-20T12:52:27Z</time>
      </trkpt>
      <trkpt lat="49.9771" lon="2.4243">
        <ele>73.2</ele>
        <time>2022-04-20T12:52:28Z</time>
      </trkpt>
      <trkpt lat="49.9771" lon="2.42429">
        <ele>73.2</ele>
        <time>2022-04-20T12:52:29Z</time>
      </trkpt>
      <trkpt lat="49.97711" lon="2.42428">
        <ele>73.3</ele>
        <time>2022-04-20T12:52:31Z</time>
      </trkpt>
      <trkpt lat="49.97712" lon="2.42427">
        <ele>73.3</ele>
        <time>2022-04-20T12:52:32Z</time>
      </trkpt>
      <trkpt lat="49.97713" lon="2.42426">
        <ele>73.4</ele>
        <time>2022-04-20T12:52:33Z</time>
      </trkpt>
      <trkpt lat="49.97714" lon="2.42425">
        <ele>73.5</ele>
        <time>2022-04-20T12:52:34Z</time>
      </trkpt>
      <trkpt lat="49.97714" lon="2.42424">
        <ele>73.5</ele>
        <time>2022-04-20T12:52:35Z</time>
      </trkpt>
      <trkpt lat="49.97716" lon="2.42422">
        <ele>73.6</ele>
        <time>2022-04-20T12:52:36Z</time>
      </trkpt>
      <trkpt lat="49.97717" lon="2.42421">
        <ele>73.7</ele>
        <time>2022-04-20T12:52:37Z</time>
      </trkpt>
      <trkpt lat="49.97718" lon="2.4242">
        <ele>73.8</ele>
        <time>2022-04-20T12:52:39Z</time>
      </trkpt>
      <trkpt lat="49.97719" lon="2.42419">
        <ele>73.8</ele>
        <time>2022-04-20T12:52:40Z</time>
      </trkpt>
      <trkpt lat="49.9772" lon="2.42418">
        <ele>73.9</ele>
        <time>2022-04-20T12:52:41Z</time>
      </trkpt>
      <trkpt lat="49.97721" lon="2.42417">
        <ele>74</ele>
        <time>2022-04-20T12:52:42Z</time>
      </trkpt>
      <trkpt lat="49.97722" lon="2.42416">
        <ele>74</ele>
        <time>2022-04-20T12:52:43Z</time>
      </trkpt>
      <trkpt lat="49.97723" lon="2.42415">
        <ele>74.2</ele>
        <time>2022-04-20T12:52:44Z</time>
      </trkpt>
      <trkpt lat="49.97724" lon="2.42414">
        <ele>74.2</ele>
        <time>2022-04-20T12:52:46Z</time>
      </trkpt>
      <trkpt lat="49.97725" lon="2.42414">
        <ele>74.3</ele>
        <time>2022-04-20T12:52:47Z</time>
      </trkpt>
      <trkpt lat="49.97726" lon="2.42413">
        <ele>74.3</ele>
        <time>2022-04-20T12:52:48Z</time>
      </trkpt>
      <trkpt lat="49.97727" lon="2.42412">
        <ele>74.4</ele>
        <time>2022-04-20T12:52:49Z</time>
      </trkpt>
      <trkpt lat="49.97728" lon="2.42411">
        <ele>74.5</ele>
        <time>2022-04-20T12:52:50Z</time>
      </trkpt>
      <trkpt lat="49.9773" lon="2.42409">
        <ele>74.6</ele>
        <time>2022-04-20T12:52:51Z</time>
      </trkpt>
      <trkpt lat="49.9773" lon="2.42409">
        <ele>74.7</ele>
        <time>2022-04-20T12:52:53Z</time>
      </trkpt>
      <trkpt lat="49.97731" lon="2.42408">
        <ele>74.7</ele>
        <time>2022-04-20T12:52:54Z</time>
      </trkpt>
      <trkpt lat="49.97732" lon="2.42408">
        <ele>74.8</ele>
        <time>2022-04-20T12:52:55Z</time>
      </trkpt>
      <trkpt lat="49.97733" lon="2.42407">
        <ele>74.9</ele>
        <time>2022-04-20T12:52:56Z</time>
      </trkpt>
      <trkpt lat="49.97734" lon="2.42407">
        <ele>74.9</ele>
        <time>2022-04-20T12:52:57Z</time>
      </trkpt>
      <trkpt lat="49.97736" lon="2.42406">
        <ele>75.1</ele>
        <time>2022-04-20T12:52:58Z</time>
      </trkpt>
      <trkpt lat="49.97737" lon="2.42405">
        <ele>75.1</ele>
        <time>2022-04-20T12:53:00Z</time>
      </trkpt>
      <trkpt lat="49.97738" lon="2.42405">
        <ele>75.2</ele>
        <time>2022-04-20T12:53:01Z</time>
      </trkpt>
      <trkpt lat="49.97739" lon="2.42405">
        <ele>75.2</ele>
        <time>2022-04-20T12:53:02Z</time>
      </trkpt>
      <trkpt lat="49.9774" lon="2.42404">
        <ele>75.3</ele>
        <time>2022-04-20T12:53:03Z</time>
      </trkpt>
      <trkpt lat="49.97741" lon="2.42404">
        <ele>75.4</ele>
        <time>2022-04-20T12:53:04Z</time>
      </trkpt>
      <trkpt lat="49.97742" lon="2.42403">
        <ele>75.5</ele>
        <time>2022-04-20T12:53:05Z</time>
      </trkpt>
      <trkpt lat="49.97744" lon="2.42402">
        <ele>75.6</ele>
        <time>2022-04-20T12:53:06Z</time>
      </trkpt>
      <trkpt lat="49.97745" lon="2.42402">
        <ele>75.6</ele>
        <time>2022-04-20T12:53:08Z</time>
      </trkpt>
      <trkpt lat="49.97745" lon="2.42401">
        <ele>75.7</ele>
        <time>2022-04-20T12:53:09Z</time>
      </trkpt>
      <trkpt lat="49.97746" lon="2.42401">
        <ele>75.8</ele>
        <time>2022-04-20T12:53:10Z</time>
      </trkpt>
      <trkpt lat="49.97747" lon="2.42401">
        <ele>75.8</ele>
        <time>2022-04-20T12:53:11Z</time>
      </trkpt>
      <trkpt lat="49.97748" lon="2.42402">
        <ele>75.9</ele>
        <time>2022-04-20T12:53:12Z</time>
      </trkpt>
      <trkpt lat="49.97748" lon="2.42403">
        <ele>75.9</ele>
        <time>2022-04-20T12:53:14Z</time>
      </trkpt>
      <trkpt lat="49.97748" lon="2.42404">
        <ele>76</ele>
        <time>2022-04-20T12:53:15Z</time>
      </trkpt>
      <trkpt lat="49.97748" lon="2.42404">
        <ele>76</ele>
        <time>2022-04-20T12:53:16Z</time>
      </trkpt>
      <trkpt lat="49.97748" lon="2.42404">
        <ele>76</ele>
        <time>2022-04-20T12:53:17Z</time>
      </trkpt>
      <trkpt lat="49.97748" lon="2.42404">
        <ele>76</ele>
        <time>2022-04-20T12:53:18Z</time>
      </trkpt>
      <trkpt lat="49.97748" lon="2.42404">
        <ele>76</ele>
        <time>2022-04-20T12:53:19Z</time>
      </trkpt>
      <trkpt lat="49.97748" lon="2.42404">
        <ele>76</ele>
        <time>2022-04-20T12:53:20Z</time>
      </trkpt>
      <trkpt lat="49.97748" lon="2.42404">
        <ele>76</ele>
        <time>2022-04-20T12:53:21Z</time>
      </trkpt>
      <trkpt lat="49.97748" lon="2.42404">
        <ele>76</ele>
        <time>2022-04-20T12:53:22Z</time>
      </trkpt>
      <trkpt lat="49.97748" lon="2.42404">
        <ele>76</ele>
        <time>2022-04-20T12:53:23Z</time>
      </trkpt>
      <trkpt lat="49.97748" lon="2.42404">
        <ele>76</ele>
        <time>2022-04-20T12:53:24Z</time>
      </trkpt>
      <trkpt lat="49.97748" lon="2.42404">
        <ele>76</ele>
        <time>2022-04-20T12:53:25Z</time>
      </trkpt>
      <trkpt lat="49.97748" lon="2.42404">
        <ele>76</ele>
        <time>2022-04-20T12:53:26Z</time>
      </trkpt>
      <trkpt lat="49.97748" lon="2.42405">
        <ele>76</ele>
        <time>2022-04-20T12:53:27Z</time>
      </trkpt>
      <trkpt lat="49.97748" lon="2.42405">
        <ele>76</ele>
        <time>2022-04-20T12:53:28Z</time>
      </trkpt>
      <trkpt lat="49.97748" lon="2.42405">
        <ele>76</ele>
        <time>2022-04-20T12:53:29Z</time>
      </trkpt>
      <trkpt lat="49.97748" lon="2.42405">
        <ele>76</ele>
        <time>2022-04-20T12:53:30Z</time>
      </trkpt>
      <trkpt lat="49.97748" lon="2.42405">
        <ele>76.1</ele>
        <time>2022-04-20T12:53:31Z</time>
      </trkpt>
      <trkpt lat="49.97748" lon="2.42404">
        <ele>76.1</ele>
        <time>2022-04-20T12:53:32Z</time>
      </trkpt>
      <trkpt lat="49.97748" lon="2.42404">
        <ele>76.1</ele>
        <time>2022-04-20T12:53:33Z</time>
      </trkpt>
      <trkpt lat="49.97748" lon="2.42404">
        <ele>76.1</ele>
        <time>2022-04-20T12:53:34Z</time>
      </trkpt>
      <trkpt lat="49.97748" lon="2.42404">
        <ele>76.1</ele>
        <time>2022-04-20T12:53:35Z</time>
      </trkpt>
      <trkpt lat="49.97748" lon="2.42404">
        <ele>76.1</ele>
        <time>2022-04-20T12:53:36Z</time>
      </trkpt>
      <trkpt lat="49.97748" lon="2.42404">
        <ele>76.1</ele>
        <time>2022-04-20T12:53:37Z</time>
      </trkpt>
      <trkpt lat="49.97748" lon="2.42404">
        <ele>76.1</ele>
        <time>2022-04-20T12:53:38Z</time>
      </trkpt>
      <trkpt lat="49.97748" lon="2.42404">
        <ele>76.1</ele>
        <time>2022-04-20T12:53:39Z</time>
      </trkpt>
      <trkpt lat="49.97748" lon="2.42404">
        <ele>76.1</ele>
        <time>2022-04-20T12:53:40Z</time>
      </trkpt>
      <trkpt lat="49.97748" lon="2.42404">
        <ele>76.1</ele>
        <time>2022-04-20T12:53:41Z</time>
      </trkpt>
      <trkpt lat="49.97748" lon="2.42404">
        <ele>76.1</ele>
        <time>2022-04-20T12:53:42Z</time>
      </trkpt>
      <trkpt lat="49.97748" lon="2.42404">
        <ele>76.1</ele>
        <time>2022-04-20T12:53:43Z</time>
      </trkpt>
      <trkpt lat="49.97748" lon="2.42404">
        <ele>76.1</ele>
        <time>2022-04-20T12:53:44Z</time>
      </trkpt>
      <trkpt lat="49.97748" lon="2.42404">
        <ele>76.1</ele>
        <time>2022-04-20T12:53:45Z</time>
      </trkpt>
      <trkpt lat="49.97748" lon="2.42404">
        <ele>76.1</ele>
        <time>2022-04-20T12:53:46Z</time>
      </trkpt>
      <trkpt lat="49.97748" lon="2.42404">
        <ele>76.1</ele>
        <time>2022-04-20T12:53:47Z</time>
      </trkpt>
      <trkpt lat="49.97748" lon="2.42404">
        <ele>76.1</ele>
        <time>2022-04-20T12:53:48Z</time>
      </trkpt>
      <trkpt lat="49.97748" lon="2.42404">
        <ele>76.1</ele>
        <time>2022-04-20T12:53:49Z</time>
      </trkpt>
      <trkpt lat="49.97748" lon="2.42404">
        <ele>76.1</ele>
        <time>2022-04-20T12:53:50Z</time>
      </trkpt>
      <trkpt lat="49.97748" lon="2.42404">
        <ele>76.1</ele>
        <time>2022-04-20T12:53:51Z</time>
      </trkpt>
      <trkpt lat="49.97748" lon="2.42404">
        <ele>76.1</ele>
        <time>2022-04-20T12:53:52Z</time>
      </trkpt>
      <trkpt lat="49.97748" lon="2.42404">
        <ele>76.1</ele>
        <time>2022-04-20T12:53:53Z</time>
      </trkpt>
      <trkpt lat="49.97748" lon="2.42404">
        <ele>76.1</ele>
        <time>2022-04-20T12:53:54Z</time>
      </trkpt>
      <trkpt lat="49.97748" lon="2.42404">
        <ele>76.1</ele>
        <time>2022-04-20T12:53:55Z</time>
      </trkpt>
      <trkpt lat="49.97748" lon="2.42404">
        <ele>76.1</ele>
        <time>2022-04-20T12:53:56Z</time>
      </trkpt>
      <trkpt lat="49.97748" lon="2.42404">
        <ele>76.1</ele>
        <time>2022-04-20T12:53:57Z</time>
      </trkpt>
      <trkpt lat="49.97748" lon="2.42404">
        <ele>76.1</ele>
        <time>2022-04-20T12:53:58Z</time>
      </trkpt>
      <trkpt lat="49.97748" lon="2.42404">
        <ele>76.1</ele>
        <time>2022-04-20T12:53:59Z</time>
      </trkpt>
      <trkpt lat="49.97748" lon="2.42404">
        <ele>76.1</ele>
        <time>2022-04-20T12:54:00Z</time>
      </trkpt>
      <trkpt lat="49.97748" lon="2.42404">
        <ele>76.1</ele>
        <time>2022-04-20T12:54:01Z</time>
      </trkpt>
      <trkpt lat="49.97748" lon="2.42404">
        <ele>76.1</ele>
        <time>2022-04-20T12:54:02Z</time>
      </trkpt>
      <trkpt lat="49.97748" lon="2.42404">
        <ele>76.1</ele>
        <time>2022-04-20T12:54:03Z</time>
      </trkpt>
      <trkpt lat="49.97748" lon="2.42404">
        <ele>76.1</ele>
        <time>2022-04-20T12:54:04Z</time>
      </trkpt>
      <trkpt lat="49.97748" lon="2.42404">
        <ele>76.1</ele>
        <time>2022-04-20T12:54:05Z</time>
      </trkpt>
      <trkpt lat="49.97748" lon="2.42404">
        <ele>76.1</ele>
        <time>2022-04-20T12:54:06Z</time>
      </trkpt>
      <trkpt lat="49.97748" lon="2.42404">
        <ele>76.1</ele>
        <time>2022-04-20T12:54:07Z</time>
      </trkpt>
      <trkpt lat="49.97748" lon="2.42404">
        <ele>76.1</ele>
        <time>2022-04-20T12:54:08Z</time>
      </trkpt>
      <trkpt lat="49.97748" lon="2.42404">
        <ele>76.1</ele>
        <time>2022-04-20T12:54:09Z</time>
      </trkpt>
      <trkpt lat="49.97748" lon="2.42404">
        <ele>76.1</ele>
        <time>2022-04-20T12:54:10Z</time>
      </trkpt>
      <trkpt lat="49.97747" lon="2.42402">
        <ele>76.2</ele>
        <time>2022-04-20T12:54:11Z</time>
      </trkpt>
      <trkpt lat="49.97747" lon="2.424">
        <ele>76.3</ele>
        <time>2022-04-20T12:54:12Z</time>
      </trkpt>
      <trkpt lat="49.97747" lon="2.42399">
        <ele>76.3</ele>
        <time>2022-04-20T12:54:13Z</time>
      </trkpt>
      <trkpt lat="49.97747" lon="2.42398">
        <ele>76.4</ele>
        <time>2022-04-20T12:54:14Z</time>
      </trkpt>
      <trkpt lat="49.97747" lon="2.42398">
        <ele>76.4</ele>
        <time>2022-04-20T12:54:15Z</time>
      </trkpt>
      <trkpt lat="49.97747" lon="2.42397">
        <ele>76.4</ele>
        <time>2022-04-20T12:54:16Z</time>
      </trkpt>
      <trkpt lat="49.97747" lon="2.42397">
        <ele>76.5</ele>
        <time>2022-04-20T12:54:18Z</time>
      </trkpt>
      <trkpt lat="49.97747" lon="2.42396">
        <ele>76.5</ele>
        <time>2022-04-20T12:54:19Z</time>
      </trkpt>
      <trkpt lat="49.97748" lon="2.42396">
        <ele>76.5</ele>
        <time>2022-04-20T12:54:20Z</time>
      </trkpt>
      <trkpt lat="49.97748" lon="2.42395">
        <ele>76.6</ele>
        <time>2022-04-20T12:54:21Z</time>
      </trkpt>
      <trkpt lat="49.97748" lon="2.42395">
        <ele>76.6</ele>
        <time>2022-04-20T12:54:22Z</time>
      </trkpt>
      <trkpt lat="49.97748" lon="2.42396">
        <ele>76.6</ele>
        <time>2022-04-20T12:54:23Z</time>
      </trkpt>
      <trkpt lat="49.97749" lon="2.42396">
        <ele>76.6</ele>
        <time>2022-04-20T12:54:24Z</time>
      </trkpt>
      <trkpt lat="49.97749" lon="2.42396">
        <ele>76.6</ele>
        <time>2022-04-20T12:54:25Z</time>
      </trkpt>
      <trkpt lat="49.97749" lon="2.42396">
        <ele>76.6</ele>
        <time>2022-04-20T12:54:26Z</time>
      </trkpt>
      <trkpt lat="49.97749" lon="2.42396">
        <ele>76.6</ele>
        <time>2022-04-20T12:54:27Z</time>
      </trkpt>
      <trkpt lat="49.97749" lon="2.42396">
        <ele>76.7</ele>
        <time>2022-04-20T12:54:28Z</time>
      </trkpt>
      <trkpt lat="49.97749" lon="2.42396">
        <ele>76.7</ele>
        <time>2022-04-20T12:54:29Z</time>
      </trkpt>
      <trkpt lat="49.9775" lon="2.42396">
        <ele>76.7</ele>
        <time>2022-04-20T12:54:30Z</time>
      </trkpt>
      <trkpt lat="49.9775" lon="2.42396">
        <ele>76.7</ele>
        <time>2022-04-20T12:54:31Z</time>
      </trkpt>
      <trkpt lat="49.9775" lon="2.42396">
        <ele>76.7</ele>
        <time>2022-04-20T12:54:32Z</time>
      </trkpt>
      <trkpt lat="49.9775" lon="2.42396">
        <ele>76.7</ele>
        <time>2022-04-20T12:54:33Z</time>
      </trkpt>
      <trkpt lat="49.9775" lon="2.42396">
        <ele>76.7</ele>
        <time>2022-04-20T12:54:34Z</time>
      </trkpt>
      <trkpt lat="49.9775" lon="2.42396">
        <ele>76.7</ele>
        <time>2022-04-20T12:54:35Z</time>
      </trkpt>
      <trkpt lat="49.9775" lon="2.42396">
        <ele>76.7</ele>
        <time>2022-04-20T12:54:36Z</time>
      </trkpt>
      <trkpt lat="49.9775" lon="2.42396">
        <ele>76.7</ele>
        <time>2022-04-20T12:54:37Z</time>
      </trkpt>
      <trkpt lat="49.9775" lon="2.42396">
        <ele>76.7</ele>
        <time>2022-04-20T12:54:38Z</time>
      </trkpt>
      <trkpt lat="49.9775" lon="2.42396">
        <ele>76.7</ele>
        <time>2022-04-20T12:54:39Z</time>
      </trkpt>
      <trkpt lat="49.9775" lon="2.42396">
        <ele>76.7</ele>
        <time>2022-04-20T12:54:40Z</time>
      </trkpt>
      <trkpt lat="49.97751" lon="2.42396">
        <ele>76.7</ele>
        <time>2022-04-20T12:54:41Z</time>
      </trkpt>
      <trkpt lat="49.97751" lon="2.42396">
        <ele>76.8</ele>
        <time>2022-04-20T12:54:42Z</time>
      </trkpt>
      <trkpt lat="49.97751" lon="2.42396">
        <ele>76.8</ele>
        <time>2022-04-20T12:54:43Z</time>
      </trkpt>
      <trkpt lat="49.97751" lon="2.42396">
        <ele>76.8</ele>
        <time>2022-04-20T12:54:44Z</time>
      </trkpt>
      <trkpt lat="49.9775" lon="2.42396">
        <ele>76.9</ele>
        <time>2022-04-20T12:54:45Z</time>
      </trkpt>
      <trkpt lat="49.9775" lon="2.42396">
        <ele>76.9</ele>
        <time>2022-04-20T12:54:46Z</time>
      </trkpt>
      <trkpt lat="49.97751" lon="2.42396">
        <ele>76.9</ele>
        <time>2022-04-20T12:54:47Z</time>
      </trkpt>
      <trkpt lat="49.97751" lon="2.42396">
        <ele>76.9</ele>
        <time>2022-04-20T12:54:48Z</time>
      </trkpt>
      <trkpt lat="49.97752" lon="2.42396">
        <ele>77</ele>
        <time>2022-04-20T12:54:50Z</time>
      </trkpt>
      <trkpt lat="49.97753" lon="2.42396">
        <ele>77</ele>
        <time>2022-04-20T12:54:51Z</time>
      </trkpt>
      <trkpt lat="49.97753" lon="2.42396">
        <ele>77.1</ele>
        <time>2022-04-20T12:54:52Z</time>
      </trkpt>
      <trkpt lat="49.97753" lon="2.42396">
        <ele>77.1</ele>
        <time>2022-04-20T12:54:53Z</time>
      </trkpt>
      <trkpt lat="49.97753" lon="2.42396">
        <ele>77.1</ele>
        <time>2022-04-20T12:54:54Z</time>
      </trkpt>
      <trkpt lat="49.97753" lon="2.42396">
        <ele>77.1</ele>
        <time>2022-04-20T12:54:55Z</time>
      </trkpt>
      <trkpt lat="49.97753" lon="2.42396">
        <ele>77.1</ele>
        <time>2022-04-20T12:54:56Z</time>
      </trkpt>
      <trkpt lat="49.97753" lon="2.42395">
        <ele>77.1</ele>
        <time>2022-04-20T12:54:57Z</time>
      </trkpt>
      <trkpt lat="49.97753" lon="2.42394">
        <ele>77.2</ele>
        <time>2022-04-20T12:54:58Z</time>
      </trkpt>
      <trkpt lat="49.97753" lon="2.42394">
        <ele>77.2</ele>
        <time>2022-04-20T12:54:59Z</time>
      </trkpt>
      <trkpt lat="49.97753" lon="2.42393">
        <ele>77.2</ele>
        <time>2022-04-20T12:55:00Z</time>
      </trkpt>
      <trkpt lat="49.97753" lon="2.42392">
        <ele>77.3</ele>
        <time>2022-04-20T12:55:02Z</time>
      </trkpt>
      <trkpt lat="49.97753" lon="2.42391">
        <ele>77.3</ele>
        <time>2022-04-20T12:55:03Z</time>
      </trkpt>
      <trkpt lat="49.97753" lon="2.4239">
        <ele>77.3</ele>
        <time>2022-04-20T12:55:04Z</time>
      </trkpt>
      <trkpt lat="49.97753" lon="2.42389">
        <ele>77.4</ele>
        <time>2022-04-20T12:55:05Z</time>
      </trkpt>
      <trkpt lat="49.97753" lon="2.42389">
        <ele>77.4</ele>
        <time>2022-04-20T12:55:06Z</time>
      </trkpt>
      <trkpt lat="49.97754" lon="2.42389">
        <ele>77.5</ele>
        <time>2022-04-20T12:55:07Z</time>
      </trkpt>
      <trkpt lat="49.97755" lon="2.42389">
        <ele>77.5</ele>
        <time>2022-04-20T12:55:09Z</time>
      </trkpt>
      <trkpt lat="49.97755" lon="2.42389">
        <ele>77.5</ele>
        <time>2022-04-20T12:55:10Z</time>
      </trkpt>
      <trkpt lat="49.97756" lon="2.42388">
        <ele>77.6</ele>
        <time>2022-04-20T12:55:11Z</time>
      </trkpt>
      <trkpt lat="49.97757" lon="2.42387">
        <ele>77.7</ele>
        <time>2022-04-20T12:55:12Z</time>
      </trkpt>
      <trkpt lat="49.97757" lon="2.42386">
        <ele>77.7</ele>
        <time>2022-04-20T12:55:13Z</time>
      </trkpt>
      <trkpt lat="49.97759" lon="2.42385">
        <ele>77.8</ele>
        <time>2022-04-20T12:55:15Z</time>
      </trkpt>
      <trkpt lat="49.97759" lon="2.42385">
        <ele>78.3</ele>
        <time>2022-04-20T12:55:16Z</time>
      </trkpt>
      <trkpt lat="49.9776" lon="2.42386">
        <ele>78.3</ele>
        <time>2022-04-20T12:55:17Z</time>
      </trkpt>
      <trkpt lat="49.97762" lon="2.42388">
        <ele>78.3</ele>
        <time>2022-04-20T12:55:18Z</time>
      </trkpt>
      <trkpt lat="49.97763" lon="2.42388">
        <ele>78.4</ele>
        <time>2022-04-20T12:55:19Z</time>
      </trkpt>
      <trkpt lat="49.97763" lon="2.42389">
        <ele>78.4</ele>
        <time>2022-04-20T12:55:20Z</time>
      </trkpt>
      <trkpt lat="49.97764" lon="2.42389">
        <ele>78.4</ele>
        <time>2022-04-20T12:55:21Z</time>
      </trkpt>
      <trkpt lat="49.97765" lon="2.42389">
        <ele>78.4</ele>
        <time>2022-04-20T12:55:22Z</time>
      </trkpt>
      <trkpt lat="49.97765" lon="2.4239">
        <ele>78.4</ele>
        <time>2022-04-20T12:55:23Z</time>
      </trkpt>
      <trkpt lat="49.97765" lon="2.4239">
        <ele>78.4</ele>
        <time>2022-04-20T12:55:24Z</time>
      </trkpt>
      <trkpt lat="49.97765" lon="2.4239">
        <ele>78.4</ele>
        <time>2022-04-20T12:55:25Z</time>
      </trkpt>
      <trkpt lat="49.97765" lon="2.4239">
        <ele>78.4</ele>
        <time>2022-04-20T12:55:26Z</time>
      </trkpt>
      <trkpt lat="49.97765" lon="2.4239">
        <ele>78.4</ele>
        <time>2022-04-20T12:55:27Z</time>
      </trkpt>
      <trkpt lat="49.97765" lon="2.42389">
        <ele>78.4</ele>
        <time>2022-04-20T12:55:28Z</time>
      </trkpt>
      <trkpt lat="49.97764" lon="2.42387">
        <ele>78.4</ele>
        <time>2022-04-20T12:55:29Z</time>
      </trkpt>
      <trkpt lat="49.97764" lon="2.42386">
        <ele>78.5</ele>
        <time>2022-04-20T12:55:30Z</time>
      </trkpt>
      <trkpt lat="49.97764" lon="2.42382">
        <ele>78.5</ele>
        <time>2022-04-20T12:55:32Z</time>
      </trkpt>
      <trkpt lat="49.97765" lon="2.42381">
        <ele>78.5</ele>
        <time>2022-04-20T12:55:33Z</time>
      </trkpt>
      <trkpt lat="49.97765" lon="2.4238">
        <ele>78.5</ele>
        <time>2022-04-20T12:55:34Z</time>
      </trkpt>
      <trkpt lat="49.97765" lon="2.42377">
        <ele>78.5</ele>
        <time>2022-04-20T12:55:35Z</time>
      </trkpt>
      <trkpt lat="49.97766" lon="2.42376">
        <ele>78.6</ele>
        <time>2022-04-20T12:55:36Z</time>
      </trkpt>
      <trkpt lat="49.97766" lon="2.42374">
        <ele>78.6</ele>
        <time>2022-04-20T12:55:37Z</time>
      </trkpt>
      <trkpt lat="49.97767" lon="2.42373">
        <ele>78.6</ele>
        <time>2022-04-20T12:55:38Z</time>
      </trkpt>
      <trkpt lat="49.97767" lon="2.4237">
        <ele>78.6</ele>
        <time>2022-04-20T12:55:39Z</time>
      </trkpt>
      <trkpt lat="49.97767" lon="2.42367">
        <ele>78.6</ele>
        <time>2022-04-20T12:55:41Z</time>
      </trkpt>
      <trkpt lat="49.97767" lon="2.42365">
        <ele>78.7</ele>
        <time>2022-04-20T12:55:42Z</time>
      </trkpt>
      <trkpt lat="49.97767" lon="2.42364">
        <ele>78.7</ele>
        <time>2022-04-20T12:55:43Z</time>
      </trkpt>
      <trkpt lat="49.97768" lon="2.42363">
        <ele>78.7</ele>
        <time>2022-04-20T12:55:44Z</time>
      </trkpt>
      <trkpt lat="49.97768" lon="2.42363">
        <ele>78.7</ele>
        <time>2022-04-20T12:55:45Z</time>
      </trkpt>
      <trkpt lat="49.97768" lon="2.42362">
        <ele>78.7</ele>
        <time>2022-04-20T12:55:46Z</time>
      </trkpt>
      <trkpt lat="49.97769" lon="2.4236">
        <ele>78.7</ele>
        <time>2022-04-20T12:55:47Z</time>
      </trkpt>
      <trkpt lat="49.97769" lon="2.42357">
        <ele>78.7</ele>
        <time>2022-04-20T12:55:48Z</time>
      </trkpt>
      <trkpt lat="49.97769" lon="2.42354">
        <ele>78.8</ele>
        <time>2022-04-20T12:55:50Z</time>
      </trkpt>
      <trkpt lat="49.97769" lon="2.42352">
        <ele>78.8</ele>
        <time>2022-04-20T12:55:51Z</time>
      </trkpt>
      <trkpt lat="49.97769" lon="2.4235">
        <ele>78.8</ele>
        <time>2022-04-20T12:55:52Z</time>
      </trkpt>
      <trkpt lat="49.97769" lon="2.42348">
        <ele>78.9</ele>
        <time>2022-04-20T12:55:53Z</time>
      </trkpt>
      <trkpt lat="49.97769" lon="2.42347">
        <ele>78.9</ele>
        <time>2022-04-20T12:55:54Z</time>
      </trkpt>
      <trkpt lat="49.9777" lon="2.42345">
        <ele>78.9</ele>
        <time>2022-04-20T12:55:55Z</time>
      </trkpt>
      <trkpt lat="49.9777" lon="2.42345">
        <ele>78.9</ele>
        <time>2022-04-20T12:55:57Z</time>
      </trkpt>
      <trkpt lat="49.9777" lon="2.42345">
        <ele>78.9</ele>
        <time>2022-04-20T12:55:58Z</time>
      </trkpt>
      <trkpt lat="49.9777" lon="2.42345">
        <ele>78.9</ele>
        <time>2022-04-20T12:55:59Z</time>
      </trkpt>
      <trkpt lat="49.97771" lon="2.42343">
        <ele>79</ele>
        <time>2022-04-20T12:56:00Z</time>
      </trkpt>
      <trkpt lat="49.97771" lon="2.42341">
        <ele>79</ele>
        <time>2022-04-20T12:56:01Z</time>
      </trkpt>
      <trkpt lat="49.97771" lon="2.42339">
        <ele>79.1</ele>
        <time>2022-04-20T12:56:03Z</time>
      </trkpt>
      <trkpt lat="49.97771" lon="2.42337">
        <ele>79.1</ele>
        <time>2022-04-20T12:56:04Z</time>
      </trkpt>
      <trkpt lat="49.97771" lon="2.42335">
        <ele>79.1</ele>
        <time>2022-04-20T12:56:05Z</time>
      </trkpt>
      <trkpt lat="49.97771" lon="2.42333">
        <ele>79.2</ele>
        <time>2022-04-20T12:56:06Z</time>
      </trkpt>
      <trkpt lat="49.97771" lon="2.4233">
        <ele>79.3</ele>
        <time>2022-04-20T12:56:07Z</time>
      </trkpt>
      <trkpt lat="49.97771" lon="2.42328">
        <ele>79.3</ele>
        <time>2022-04-20T12:56:08Z</time>
      </trkpt>
      <trkpt lat="49.97771" lon="2.42327">
        <ele>79.3</ele>
        <time>2022-04-20T12:56:09Z</time>
      </trkpt>
      <trkpt lat="49.97771" lon="2.42325">
        <ele>79.4</ele>
        <time>2022-04-20T12:56:10Z</time>
      </trkpt>
      <trkpt lat="49.97772" lon="2.42322">
        <ele>79.4</ele>
        <time>2022-04-20T12:56:11Z</time>
      </trkpt>
      <trkpt lat="49.97772" lon="2.4232">
        <ele>79.5</ele>
        <time>2022-04-20T12:56:12Z</time>
      </trkpt>
      <trkpt lat="49.97772" lon="2.42318">
        <ele>79.5</ele>
        <time>2022-04-20T12:56:14Z</time>
      </trkpt>
      <trkpt lat="49.97772" lon="2.42316">
        <ele>79.6</ele>
        <time>2022-04-20T12:56:15Z</time>
      </trkpt>
      <trkpt lat="49.97772" lon="2.42314">
        <ele>79.6</ele>
        <time>2022-04-20T12:56:16Z</time>
      </trkpt>
      <trkpt lat="49.97772" lon="2.42311">
        <ele>79.7</ele>
        <time>2022-04-20T12:56:17Z</time>
      </trkpt>
      <trkpt lat="49.97773" lon="2.42309">
        <ele>79.7</ele>
        <time>2022-04-20T12:56:18Z</time>
      </trkpt>
      <trkpt lat="49.97773" lon="2.42308">
        <ele>79.8</ele>
        <time>2022-04-20T12:56:19Z</time>
      </trkpt>
      <trkpt lat="49.97773" lon="2.42304">
        <ele>79.9</ele>
        <time>2022-04-20T12:56:20Z</time>
      </trkpt>
      <trkpt lat="49.97773" lon="2.42302">
        <ele>79.9</ele>
        <time>2022-04-20T12:56:22Z</time>
      </trkpt>
      <trkpt lat="49.97774" lon="2.423">
        <ele>80</ele>
        <time>2022-04-20T12:56:23Z</time>
      </trkpt>
      <trkpt lat="49.97774" lon="2.42299">
        <ele>80</ele>
        <time>2022-04-20T12:56:24Z</time>
      </trkpt>
      <trkpt lat="49.97774" lon="2.42297">
        <ele>80.1</ele>
        <time>2022-04-20T12:56:25Z</time>
      </trkpt>
      <trkpt lat="49.97774" lon="2.42295">
        <ele>80.1</ele>
        <time>2022-04-20T12:56:26Z</time>
      </trkpt>
      <trkpt lat="49.97774" lon="2.42293">
        <ele>80.2</ele>
        <time>2022-04-20T12:56:27Z</time>
      </trkpt>
      <trkpt lat="49.97775" lon="2.4229">
        <ele>80.2</ele>
        <time>2022-04-20T12:56:29Z</time>
      </trkpt>
      <trkpt lat="49.97775" lon="2.42288">
        <ele>80.3</ele>
        <time>2022-04-20T12:56:30Z</time>
      </trkpt>
      <trkpt lat="49.97775" lon="2.42286">
        <ele>80.4</ele>
        <time>2022-04-20T12:56:31Z</time>
      </trkpt>
      <trkpt lat="49.97775" lon="2.42283">
        <ele>80.5</ele>
        <time>2022-04-20T12:56:32Z</time>
      </trkpt>
      <trkpt lat="49.97775" lon="2.42281">
        <ele>80.5</ele>
        <time>2022-04-20T12:56:33Z</time>
      </trkpt>
      <trkpt lat="49.97776" lon="2.42279">
        <ele>80.6</ele>
        <time>2022-04-20T12:56:34Z</time>
      </trkpt>
      <trkpt lat="49.97776" lon="2.42276">
        <ele>80.7</ele>
        <time>2022-04-20T12:56:35Z</time>
      </trkpt>
      <trkpt lat="49.97776" lon="2.42274">
        <ele>80.7</ele>
        <time>2022-04-20T12:56:37Z</time>
      </trkpt>
      <trkpt lat="49.97776" lon="2.42271">
        <ele>80.8</ele>
        <time>2022-04-20T12:56:38Z</time>
      </trkpt>
      <trkpt lat="49.97777" lon="2.42269">
        <ele>80.9</ele>
        <time>2022-04-20T12:56:39Z</time>
      </trkpt>
      <trkpt lat="49.97777" lon="2.42267">
        <ele>81</ele>
        <time>2022-04-20T12:56:40Z</time>
      </trkpt>
      <trkpt lat="49.97777" lon="2.42265">
        <ele>81</ele>
        <time>2022-04-20T12:56:41Z</time>
      </trkpt>
      <trkpt lat="49.97777" lon="2.42261">
        <ele>81.1</ele>
        <time>2022-04-20T12:56:42Z</time>
      </trkpt>
      <trkpt lat="49.97777" lon="2.4226">
        <ele>81.2</ele>
        <time>2022-04-20T12:56:44Z</time>
      </trkpt>
      <trkpt lat="49.97778" lon="2.42259">
        <ele>81.2</ele>
        <time>2022-04-20T12:56:45Z</time>
      </trkpt>
      <trkpt lat="49.97778" lon="2.42258">
        <ele>81.3</ele>
        <time>2022-04-20T12:56:46Z</time>
      </trkpt>
      <trkpt lat="49.97778" lon="2.42256">
        <ele>81.3</ele>
        <time>2022-04-20T12:56:47Z</time>
      </trkpt>
      <trkpt lat="49.97778" lon="2.42254">
        <ele>81.4</ele>
        <time>2022-04-20T12:56:48Z</time>
      </trkpt>
      <trkpt lat="49.97779" lon="2.42252">
        <ele>81.5</ele>
        <time>2022-04-20T12:56:49Z</time>
      </trkpt>
      <trkpt lat="49.97779" lon="2.4225">
        <ele>81.5</ele>
        <time>2022-04-20T12:56:51Z</time>
      </trkpt>
      <trkpt lat="49.97779" lon="2.42248">
        <ele>81.6</ele>
        <time>2022-04-20T12:56:52Z</time>
      </trkpt>
      <trkpt lat="49.97779" lon="2.42247">
        <ele>81.6</ele>
        <time>2022-04-20T12:56:53Z</time>
      </trkpt>
      <trkpt lat="49.97779" lon="2.42245">
        <ele>81.7</ele>
        <time>2022-04-20T12:56:54Z</time>
      </trkpt>
      <trkpt lat="49.9778" lon="2.42244">
        <ele>81.7</ele>
        <time>2022-04-20T12:56:55Z</time>
      </trkpt>
      <trkpt lat="49.9778" lon="2.42242">
        <ele>81.8</ele>
        <time>2022-04-20T12:56:56Z</time>
      </trkpt>
      <trkpt lat="49.9778" lon="2.42241">
        <ele>81.8</ele>
        <time>2022-04-20T12:56:57Z</time>
      </trkpt>
      <trkpt lat="49.9778" lon="2.42239">
        <ele>81.9</ele>
        <time>2022-04-20T12:56:58Z</time>
      </trkpt>
      <trkpt lat="49.97781" lon="2.42238">
        <ele>81.9</ele>
        <time>2022-04-20T12:56:59Z</time>
      </trkpt>
      <trkpt lat="49.97781" lon="2.42236">
        <ele>82</ele>
        <time>2022-04-20T12:57:00Z</time>
      </trkpt>
      <trkpt lat="49.97781" lon="2.42234">
        <ele>82.1</ele>
        <time>2022-04-20T12:57:01Z</time>
      </trkpt>
      <trkpt lat="49.97781" lon="2.42232">
        <ele>82.1</ele>
        <time>2022-04-20T12:57:02Z</time>
      </trkpt>
      <trkpt lat="49.97782" lon="2.4223">
        <ele>82.2</ele>
        <time>2022-04-20T12:57:03Z</time>
      </trkpt>
      <trkpt lat="49.97782" lon="2.42226">
        <ele>82.3</ele>
        <time>2022-04-20T12:57:05Z</time>
      </trkpt>
      <trkpt lat="49.97782" lon="2.42225">
        <ele>82.4</ele>
        <time>2022-04-20T12:57:06Z</time>
      </trkpt>
      <trkpt lat="49.97782" lon="2.42224">
        <ele>82.4</ele>
        <time>2022-04-20T12:57:07Z</time>
      </trkpt>
      <trkpt lat="49.97783" lon="2.42222">
        <ele>82.5</ele>
        <time>2022-04-20T12:57:08Z</time>
      </trkpt>
      <trkpt lat="49.97783" lon="2.4222">
        <ele>82.6</ele>
        <time>2022-04-20T12:57:09Z</time>
      </trkpt>
      <trkpt lat="49.97783" lon="2.42218">
        <ele>82.6</ele>
        <time>2022-04-20T12:57:10Z</time>
      </trkpt>
      <trkpt lat="49.97784" lon="2.42215">
        <ele>82.7</ele>
        <time>2022-04-20T12:57:11Z</time>
      </trkpt>
      <trkpt lat="49.97784" lon="2.42214">
        <ele>82.8</ele>
        <time>2022-04-20T12:57:13Z</time>
      </trkpt>
      <trkpt lat="49.97784" lon="2.42213">
        <ele>82.8</ele>
        <time>2022-04-20T12:57:14Z</time>
      </trkpt>
      <trkpt lat="49.97784" lon="2.42211">
        <ele>82.9</ele>
        <time>2022-04-20T12:57:15Z</time>
      </trkpt>
      <trkpt lat="49.97785" lon="2.42209">
        <ele>83</ele>
        <time>2022-04-20T12:57:16Z</time>
      </trkpt>
      <trkpt lat="49.97785" lon="2.42207">
        <ele>83</ele>
        <time>2022-04-20T12:57:17Z</time>
      </trkpt>
      <trkpt lat="49.97786" lon="2.42206">
        <ele>83.1</ele>
        <time>2022-04-20T12:57:18Z</time>
      </trkpt>
      <trkpt lat="49.97786" lon="2.42204">
        <ele>83.2</ele>
        <time>2022-04-20T12:57:20Z</time>
      </trkpt>
      <trkpt lat="49.97786" lon="2.42203">
        <ele>83.2</ele>
        <time>2022-04-20T12:57:21Z</time>
      </trkpt>
      <trkpt lat="49.97787" lon="2.42201">
        <ele>83.3</ele>
        <time>2022-04-20T12:57:22Z</time>
      </trkpt>
      <trkpt lat="49.97787" lon="2.422">
        <ele>83.3</ele>
        <time>2022-04-20T12:57:23Z</time>
      </trkpt>
      <trkpt lat="49.97787" lon="2.42199">
        <ele>83.4</ele>
        <time>2022-04-20T12:57:24Z</time>
      </trkpt>
      <trkpt lat="49.97787" lon="2.42197">
        <ele>83.4</ele>
        <time>2022-04-20T12:57:25Z</time>
      </trkpt>
      <trkpt lat="49.97788" lon="2.42196">
        <ele>83.5</ele>
        <time>2022-04-20T12:57:27Z</time>
      </trkpt>
      <trkpt lat="49.97788" lon="2.42195">
        <ele>83.5</ele>
        <time>2022-04-20T12:57:28Z</time>
      </trkpt>
      <trkpt lat="49.97788" lon="2.42194">
        <ele>83.6</ele>
        <time>2022-04-20T12:57:29Z</time>
      </trkpt>
      <trkpt lat="49.97788" lon="2.42192">
        <ele>83.6</ele>
        <time>2022-04-20T12:57:30Z</time>
      </trkpt>
      <trkpt lat="49.97788" lon="2.42191">
        <ele>83.6</ele>
        <time>2022-04-20T12:57:31Z</time>
      </trkpt>
      <trkpt lat="49.97789" lon="2.42189">
        <ele>83.7</ele>
        <time>2022-04-20T12:57:32Z</time>
      </trkpt>
      <trkpt lat="49.97789" lon="2.42188">
        <ele>83.7</ele>
        <time>2022-04-20T12:57:33Z</time>
      </trkpt>
      <trkpt lat="49.97789" lon="2.42186">
        <ele>83.8</ele>
        <time>2022-04-20T12:57:35Z</time>
      </trkpt>
      <trkpt lat="49.9779" lon="2.42185">
        <ele>83.8</ele>
        <time>2022-04-20T12:57:36Z</time>
      </trkpt>
      <trkpt lat="49.9779" lon="2.42182">
        <ele>83.9</ele>
        <time>2022-04-20T12:57:37Z</time>
      </trkpt>
      <trkpt lat="49.97791" lon="2.42181">
        <ele>84</ele>
        <time>2022-04-20T12:57:38Z</time>
      </trkpt>
      <trkpt lat="49.97791" lon="2.42179">
        <ele>84</ele>
        <time>2022-04-20T12:57:39Z</time>
      </trkpt>
      <trkpt lat="49.97792" lon="2.42177">
        <ele>84</ele>
        <time>2022-04-20T12:57:40Z</time>
      </trkpt>
      <trkpt lat="49.97792" lon="2.42175">
        <ele>84.1</ele>
        <time>2022-04-20T12:57:41Z</time>
      </trkpt>
      <trkpt lat="49.97793" lon="2.42172">
        <ele>84.2</ele>
        <time>2022-04-20T12:57:43Z</time>
      </trkpt>
      <trkpt lat="49.97793" lon="2.4217">
        <ele>84.2</ele>
        <time>2022-04-20T12:57:44Z</time>
      </trkpt>
      <trkpt lat="49.97793" lon="2.42169">
        <ele>84.2</ele>
        <time>2022-04-20T12:57:45Z</time>
      </trkpt>
      <trkpt lat="49.97794" lon="2.42167">
        <ele>84.3</ele>
        <time>2022-04-20T12:57:46Z</time>
      </trkpt>
      <trkpt lat="49.97794" lon="2.42165">
        <ele>84.3</ele>
        <time>2022-04-20T12:57:47Z</time>
      </trkpt>
      <trkpt lat="49.97794" lon="2.42163">
        <ele>84.3</ele>
        <time>2022-04-20T12:57:48Z</time>
      </trkpt>
      <trkpt lat="49.97795" lon="2.42161">
        <ele>84.4</ele>
        <time>2022-04-20T12:57:49Z</time>
      </trkpt>
      <trkpt lat="49.97796" lon="2.42157">
        <ele>84.4</ele>
        <time>2022-04-20T12:57:51Z</time>
      </trkpt>
      <trkpt lat="49.97796" lon="2.42156">
        <ele>84.4</ele>
        <time>2022-04-20T12:57:52Z</time>
      </trkpt>
      <trkpt lat="49.97796" lon="2.42155">
        <ele>84.5</ele>
        <time>2022-04-20T12:57:53Z</time>
      </trkpt>
      <trkpt lat="49.97797" lon="2.42152">
        <ele>84.5</ele>
        <time>2022-04-20T12:57:54Z</time>
      </trkpt>
      <trkpt lat="49.97797" lon="2.42151">
        <ele>84.5</ele>
        <time>2022-04-20T12:57:55Z</time>
      </trkpt>
      <trkpt lat="49.97798" lon="2.42149">
        <ele>84.5</ele>
        <time>2022-04-20T12:57:56Z</time>
      </trkpt>
      <trkpt lat="49.97798" lon="2.42146">
        <ele>84.6</ele>
        <time>2022-04-20T12:57:57Z</time>
      </trkpt>
      <trkpt lat="49.97799" lon="2.42145">
        <ele>84.6</ele>
        <time>2022-04-20T12:57:58Z</time>
      </trkpt>
      <trkpt lat="49.97799" lon="2.42144">
        <ele>84.6</ele>
        <time>2022-04-20T12:57:59Z</time>
      </trkpt>
      <trkpt lat="49.978" lon="2.42141">
        <ele>84.7</ele>
        <time>2022-04-20T12:58:01Z</time>
      </trkpt>
      <trkpt lat="49.97801" lon="2.4214">
        <ele>84.7</ele>
        <time>2022-04-20T12:58:02Z</time>
      </trkpt>
      <trkpt lat="49.97801" lon="2.42139">
        <ele>84.7</ele>
        <time>2022-04-20T12:58:03Z</time>
      </trkpt>
      <trkpt lat="49.97802" lon="2.42136">
        <ele>84.7</ele>
        <time>2022-04-20T12:58:04Z</time>
      </trkpt>
      <trkpt lat="49.97803" lon="2.42135">
        <ele>84.7</ele>
        <time>2022-04-20T12:58:05Z</time>
      </trkpt>
      <trkpt lat="49.97803" lon="2.42134">
        <ele>84.7</ele>
        <time>2022-04-20T12:58:06Z</time>
      </trkpt>
      <trkpt lat="49.97804" lon="2.42132">
        <ele>84.8</ele>
        <time>2022-04-20T12:58:07Z</time>
      </trkpt>
      <trkpt lat="49.97804" lon="2.4213">
        <ele>84.8</ele>
        <time>2022-04-20T12:58:08Z</time>
      </trkpt>
      <trkpt lat="49.97805" lon="2.42127">
        <ele>84.8</ele>
        <time>2022-04-20T12:58:10Z</time>
      </trkpt>
      <trkpt lat="49.97806" lon="2.42125">
        <ele>84.8</ele>
        <time>2022-04-20T12:58:11Z</time>
      </trkpt>
      <trkpt lat="49.97806" lon="2.42124">
        <ele>84.8</ele>
        <time>2022-04-20T12:58:12Z</time>
      </trkpt>
      <trkpt lat="49.97807" lon="2.42122">
        <ele>84.8</ele>
        <time>2022-04-20T12:58:13Z</time>
      </trkpt>
      <trkpt lat="49.97807" lon="2.42121">
        <ele>84.8</ele>
        <time>2022-04-20T12:58:14Z</time>
      </trkpt>
      <trkpt lat="49.97808" lon="2.42119">
        <ele>84.8</ele>
        <time>2022-04-20T12:58:15Z</time>
      </trkpt>
      <trkpt lat="49.97809" lon="2.42118">
        <ele>84.8</ele>
        <time>2022-04-20T12:58:16Z</time>
      </trkpt>
      <trkpt lat="49.97809" lon="2.42117">
        <ele>84.8</ele>
        <time>2022-04-20T12:58:18Z</time>
      </trkpt>
      <trkpt lat="49.9781" lon="2.42116">
        <ele>84.8</ele>
        <time>2022-04-20T12:58:19Z</time>
      </trkpt>
      <trkpt lat="49.97811" lon="2.42115">
        <ele>84.8</ele>
        <time>2022-04-20T12:58:20Z</time>
      </trkpt>
      <trkpt lat="49.97811" lon="2.42114">
        <ele>84.8</ele>
        <time>2022-04-20T12:58:21Z</time>
      </trkpt>
      <trkpt lat="49.97812" lon="2.42113">
        <ele>84.8</ele>
        <time>2022-04-20T12:58:22Z</time>
      </trkpt>
      <trkpt lat="49.97813" lon="2.42111">
        <ele>84.8</ele>
        <time>2022-04-20T12:58:23Z</time>
      </trkpt>
      <trkpt lat="49.97813" lon="2.4211">
        <ele>84.8</ele>
        <time>2022-04-20T12:58:25Z</time>
      </trkpt>
      <trkpt lat="49.97813" lon="2.42108">
        <ele>84.8</ele>
        <time>2022-04-20T12:58:26Z</time>
      </trkpt>
      <trkpt lat="49.97814" lon="2.42107">
        <ele>84.8</ele>
        <time>2022-04-20T12:58:27Z</time>
      </trkpt>
      <trkpt lat="49.97814" lon="2.42105">
        <ele>84.9</ele>
        <time>2022-04-20T12:58:28Z</time>
      </trkpt>
      <trkpt lat="49.97814" lon="2.42103">
        <ele>84.9</ele>
        <time>2022-04-20T12:58:29Z</time>
      </trkpt>
      <trkpt lat="49.97815" lon="2.42101">
        <ele>84.9</ele>
        <time>2022-04-20T12:58:30Z</time>
      </trkpt>
      <trkpt lat="49.97815" lon="2.42099">
        <ele>84.9</ele>
        <time>2022-04-20T12:58:31Z</time>
      </trkpt>
      <trkpt lat="49.97816" lon="2.42098">
        <ele>84.9</ele>
        <time>2022-04-20T12:58:33Z</time>
      </trkpt>
      <trkpt lat="49.97816" lon="2.42096">
        <ele>84.9</ele>
        <time>2022-04-20T12:58:34Z</time>
      </trkpt>
      <trkpt lat="49.97817" lon="2.42095">
        <ele>84.9</ele>
        <time>2022-04-20T12:58:35Z</time>
      </trkpt>
      <trkpt lat="49.97817" lon="2.42092">
        <ele>84.9</ele>
        <time>2022-04-20T12:58:36Z</time>
      </trkpt>
      <trkpt lat="49.97818" lon="2.4209">
        <ele>84.8</ele>
        <time>2022-04-20T12:58:37Z</time>
      </trkpt>
      <trkpt lat="49.97818" lon="2.42089">
        <ele>84.8</ele>
        <time>2022-04-20T12:58:38Z</time>
      </trkpt>
      <trkpt lat="49.97818" lon="2.42087">
        <ele>84.8</ele>
        <time>2022-04-20T12:58:39Z</time>
      </trkpt>
      <trkpt lat="49.97819" lon="2.42085">
        <ele>84.8</ele>
        <time>2022-04-20T12:58:41Z</time>
      </trkpt>
      <trkpt lat="49.97819" lon="2.42083">
        <ele>84.8</ele>
        <time>2022-04-20T12:58:42Z</time>
      </trkpt>
      <trkpt lat="49.97819" lon="2.42081">
        <ele>84.8</ele>
        <time>2022-04-20T12:58:43Z</time>
      </trkpt>
      <trkpt lat="49.97819" lon="2.42079">
        <ele>84.8</ele>
        <time>2022-04-20T12:58:44Z</time>
      </trkpt>
      <trkpt lat="49.97819" lon="2.42078">
        <ele>84.8</ele>
        <time>2022-04-20T12:58:45Z</time>
      </trkpt>
      <trkpt lat="49.97818" lon="2.42077">
        <ele>84.8</ele>
        <time>2022-04-20T12:58:46Z</time>
      </trkpt>
      <trkpt lat="49.97818" lon="2.42076">
        <ele>84.8</ele>
        <time>2022-04-20T12:58:47Z</time>
      </trkpt>
      <trkpt lat="49.97818" lon="2.42075">
        <ele>84.8</ele>
        <time>2022-04-20T12:58:49Z</time>
      </trkpt>
      <trkpt lat="49.97818" lon="2.42073">
        <ele>84.8</ele>
        <time>2022-04-20T12:58:50Z</time>
      </trkpt>
      <trkpt lat="49.97818" lon="2.42072">
        <ele>84.7</ele>
        <time>2022-04-20T12:58:51Z</time>
      </trkpt>
      <trkpt lat="49.97819" lon="2.42071">
        <ele>84.7</ele>
        <time>2022-04-20T12:58:52Z</time>
      </trkpt>
      <trkpt lat="49.97819" lon="2.4207">
        <ele>84.7</ele>
        <time>2022-04-20T12:58:53Z</time>
      </trkpt>
      <trkpt lat="49.97819" lon="2.42068">
        <ele>84.7</ele>
        <time>2022-04-20T12:58:54Z</time>
      </trkpt>
      <trkpt lat="49.97819" lon="2.42067">
        <ele>84.7</ele>
        <time>2022-04-20T12:58:55Z</time>
      </trkpt>
      <trkpt lat="49.97819" lon="2.42065">
        <ele>84.7</ele>
        <time>2022-04-20T12:58:57Z</time>
      </trkpt>
      <trkpt lat="49.9782" lon="2.42064">
        <ele>84.7</ele>
        <time>2022-04-20T12:58:58Z</time>
      </trkpt>
      <trkpt lat="49.9782" lon="2.42063">
        <ele>84.7</ele>
        <time>2022-04-20T12:58:59Z</time>
      </trkpt>
      <trkpt lat="49.9782" lon="2.42061">
        <ele>84.7</ele>
        <time>2022-04-20T12:59:00Z</time>
      </trkpt>
      <trkpt lat="49.9782" lon="2.4206">
        <ele>84.7</ele>
        <time>2022-04-20T12:59:01Z</time>
      </trkpt>
      <trkpt lat="49.97821" lon="2.42059">
        <ele>84.7</ele>
        <time>2022-04-20T12:59:03Z</time>
      </trkpt>
      <trkpt lat="49.97821" lon="2.4206">
        <ele>84.7</ele>
        <time>2022-04-20T12:59:04Z</time>
      </trkpt>
      <trkpt lat="49.97821" lon="2.4206">
        <ele>84.7</ele>
        <time>2022-04-20T12:59:05Z</time>
      </trkpt>
      <trkpt lat="49.97821" lon="2.4206">
        <ele>84.7</ele>
        <time>2022-04-20T12:59:06Z</time>
      </trkpt>
      <trkpt lat="49.97821" lon="2.4206">
        <ele>84.7</ele>
        <time>2022-04-20T12:59:07Z</time>
      </trkpt>
      <trkpt lat="49.97821" lon="2.4206">
        <ele>84.7</ele>
        <time>2022-04-20T12:59:08Z</time>
      </trkpt>
      <trkpt lat="49.97821" lon="2.4206">
        <ele>84.7</ele>
        <time>2022-04-20T12:59:09Z</time>
      </trkpt>
      <trkpt lat="49.97821" lon="2.42059">
        <ele>84.7</ele>
        <time>2022-04-20T12:59:10Z</time>
      </trkpt>
      <trkpt lat="49.97821" lon="2.42059">
        <ele>84.7</ele>
        <time>2022-04-20T12:59:11Z</time>
      </trkpt>
      <trkpt lat="49.97821" lon="2.42059">
        <ele>84.7</ele>
        <time>2022-04-20T12:59:12Z</time>
      </trkpt>
      <trkpt lat="49.97822" lon="2.42059">
        <ele>84.7</ele>
        <time>2022-04-20T12:59:13Z</time>
      </trkpt>
      <trkpt lat="49.97822" lon="2.42059">
        <ele>84.7</ele>
        <time>2022-04-20T12:59:14Z</time>
      </trkpt>
      <trkpt lat="49.97822" lon="2.42059">
        <ele>84.7</ele>
        <time>2022-04-20T12:59:15Z</time>
      </trkpt>
      <trkpt lat="49.97822" lon="2.42058">
        <ele>84.7</ele>
        <time>2022-04-20T12:59:16Z</time>
      </trkpt>
      <trkpt lat="49.97822" lon="2.42058">
        <ele>84.7</ele>
        <time>2022-04-20T12:59:17Z</time>
      </trkpt>
      <trkpt lat="49.97822" lon="2.42058">
        <ele>84.7</ele>
        <time>2022-04-20T12:59:18Z</time>
      </trkpt>
      <trkpt lat="49.97822" lon="2.42058">
        <ele>84.7</ele>
        <time>2022-04-20T12:59:19Z</time>
      </trkpt>
      <trkpt lat="49.97822" lon="2.42058">
        <ele>84.7</ele>
        <time>2022-04-20T12:59:20Z</time>
      </trkpt>
      <trkpt lat="49.97823" lon="2.42057">
        <ele>84.6</ele>
        <time>2022-04-20T12:59:21Z</time>
      </trkpt>
      <trkpt lat="49.97823" lon="2.42056">
        <ele>84.6</ele>
        <time>2022-04-20T12:59:23Z</time>
      </trkpt>
      <trkpt lat="49.97823" lon="2.42054">
        <ele>84.6</ele>
        <time>2022-04-20T12:59:24Z</time>
      </trkpt>
      <trkpt lat="49.97824" lon="2.42051">
        <ele>84.6</ele>
        <time>2022-04-20T12:59:25Z</time>
      </trkpt>
      <trkpt lat="49.97825" lon="2.42049">
        <ele>84.6</ele>
        <time>2022-04-20T12:59:26Z</time>
      </trkpt>
      <trkpt lat="49.97825" lon="2.42044">
        <ele>84.6</ele>
        <time>2022-04-20T12:59:27Z</time>
      </trkpt>
      <trkpt lat="49.97826" lon="2.42043">
        <ele>84.6</ele>
        <time>2022-04-20T12:59:28Z</time>
      </trkpt>
      <trkpt lat="49.97826" lon="2.4204">
        <ele>84.6</ele>
        <time>2022-04-20T12:59:29Z</time>
      </trkpt>
      <trkpt lat="49.97826" lon="2.42038">
        <ele>84.6</ele>
        <time>2022-04-20T12:59:31Z</time>
      </trkpt>
      <trkpt lat="49.97827" lon="2.42036">
        <ele>84.6</ele>
        <time>2022-04-20T12:59:32Z</time>
      </trkpt>
      <trkpt lat="49.97827" lon="2.42034">
        <ele>84.6</ele>
        <time>2022-04-20T12:59:33Z</time>
      </trkpt>
      <trkpt lat="49.97828" lon="2.42033">
        <ele>84.6</ele>
        <time>2022-04-20T12:59:34Z</time>
      </trkpt>
      <trkpt lat="49.97829" lon="2.42029">
        <ele>84.6</ele>
        <time>2022-04-20T12:59:35Z</time>
      </trkpt>
      <trkpt lat="49.97829" lon="2.42028">
        <ele>84.6</ele>
        <time>2022-04-20T12:59:36Z</time>
      </trkpt>
      <trkpt lat="49.97829" lon="2.42027">
        <ele>84.6</ele>
        <time>2022-04-20T12:59:37Z</time>
      </trkpt>
      <trkpt lat="49.9783" lon="2.42024">
        <ele>84.6</ele>
        <time>2022-04-20T12:59:38Z</time>
      </trkpt>
      <trkpt lat="49.9783" lon="2.42023">
        <ele>84.6</ele>
        <time>2022-04-20T12:59:40Z</time>
      </trkpt>
      <trkpt lat="49.9783" lon="2.42022">
        <ele>84.6</ele>
        <time>2022-04-20T12:59:41Z</time>
      </trkpt>
      <trkpt lat="49.97831" lon="2.42019">
        <ele>84.6</ele>
        <time>2022-04-20T12:59:42Z</time>
      </trkpt>
      <trkpt lat="49.97832" lon="2.42017">
        <ele>84.6</ele>
        <time>2022-04-20T12:59:43Z</time>
      </trkpt>
      <trkpt lat="49.97832" lon="2.42016">
        <ele>84.6</ele>
        <time>2022-04-20T12:59:44Z</time>
      </trkpt>
      <trkpt lat="49.97833" lon="2.42013">
        <ele>84.6</ele>
        <time>2022-04-20T12:59:45Z</time>
      </trkpt>
      <trkpt lat="49.97833" lon="2.42012">
        <ele>84.6</ele>
        <time>2022-04-20T12:59:47Z</time>
      </trkpt>
      <trkpt lat="49.97833" lon="2.42011">
        <ele>84.6</ele>
        <time>2022-04-20T12:59:48Z</time>
      </trkpt>
      <trkpt lat="49.97834" lon="2.42007">
        <ele>84.6</ele>
        <time>2022-04-20T12:59:49Z</time>
      </trkpt>
      <trkpt lat="49.97834" lon="2.42006">
        <ele>84.6</ele>
        <time>2022-04-20T12:59:50Z</time>
      </trkpt>
      <trkpt lat="49.97835" lon="2.42005">
        <ele>84.6</ele>
        <time>2022-04-20T12:59:51Z</time>
      </trkpt>
      <trkpt lat="49.97836" lon="2.42001">
        <ele>84.6</ele>
        <time>2022-04-20T12:59:53Z</time>
      </trkpt>
      <trkpt lat="49.97836" lon="2.41999">
        <ele>84.6</ele>
        <time>2022-04-20T12:59:54Z</time>
      </trkpt>
      <trkpt lat="49.97836" lon="2.41997">
        <ele>84.6</ele>
        <time>2022-04-20T12:59:55Z</time>
      </trkpt>
      <trkpt lat="49.97837" lon="2.41995">
        <ele>84.6</ele>
        <time>2022-04-20T12:59:56Z</time>
      </trkpt>
      <trkpt lat="49.97837" lon="2.41993">
        <ele>84.6</ele>
        <time>2022-04-20T12:59:57Z</time>
      </trkpt>
      <trkpt lat="49.97837" lon="2.41991">
        <ele>84.6</ele>
        <time>2022-04-20T12:59:58Z</time>
      </trkpt>
      <trkpt lat="49.97837" lon="2.41987">
        <ele>84.6</ele>
        <time>2022-04-20T12:59:59Z</time>
      </trkpt>
      <trkpt lat="49.97837" lon="2.41986">
        <ele>84.6</ele>
        <time>2022-04-20T13:00:00Z</time>
      </trkpt>
      <trkpt lat="49.97838" lon="2.41985">
        <ele>84.6</ele>
        <time>2022-04-20T13:00:01Z</time>
      </trkpt>
      <trkpt lat="49.97838" lon="2.41983">
        <ele>84.6</ele>
        <time>2022-04-20T13:00:03Z</time>
      </trkpt>
      <trkpt lat="49.97838" lon="2.41981">
        <ele>84.6</ele>
        <time>2022-04-20T13:00:04Z</time>
      </trkpt>
      <trkpt lat="49.97839" lon="2.4198">
        <ele>84.6</ele>
        <time>2022-04-20T13:00:05Z</time>
      </trkpt>
      <trkpt lat="49.97839" lon="2.41978">
        <ele>84.6</ele>
        <time>2022-04-20T13:00:06Z</time>
      </trkpt>
      <trkpt lat="49.97839" lon="2.41976">
        <ele>84.6</ele>
        <time>2022-04-20T13:00:07Z</time>
      </trkpt>
      <trkpt lat="49.97839" lon="2.41974">
        <ele>84.6</ele>
        <time>2022-04-20T13:00:08Z</time>
      </trkpt>
      <trkpt lat="49.97839" lon="2.41971">
        <ele>84.6</ele>
        <time>2022-04-20T13:00:10Z</time>
      </trkpt>
      <trkpt lat="49.97839" lon="2.4197">
        <ele>84.6</ele>
        <time>2022-04-20T13:00:11Z</time>
      </trkpt>
      <trkpt lat="49.97839" lon="2.41968">
        <ele>84.6</ele>
        <time>2022-04-20T13:00:12Z</time>
      </trkpt>
      <trkpt lat="49.97839" lon="2.41967">
        <ele>84.6</ele>
        <time>2022-04-20T13:00:13Z</time>
      </trkpt>
      <trkpt lat="49.97839" lon="2.41965">
        <ele>84.6</ele>
        <time>2022-04-20T13:00:14Z</time>
      </trkpt>
      <trkpt lat="49.97839" lon="2.41963">
        <ele>84.6</ele>
        <time>2022-04-20T13:00:15Z</time>
      </trkpt>
      <trkpt lat="49.97839" lon="2.41961">
        <ele>84.6</ele>
        <time>2022-04-20T13:00:16Z</time>
      </trkpt>
      <trkpt lat="49.97839" lon="2.41959">
        <ele>84.6</ele>
        <time>2022-04-20T13:00:18Z</time>
      </trkpt>
      <trkpt lat="49.97839" lon="2.41957">
        <ele>84.6</ele>
        <time>2022-04-20T13:00:19Z</time>
      </trkpt>
      <trkpt lat="49.9784" lon="2.41955">
        <ele>84.6</ele>
        <time>2022-04-20T13:00:20Z</time>
      </trkpt>
      <trkpt lat="49.9784" lon="2.41954">
        <ele>84.6</ele>
        <time>2022-04-20T13:00:21Z</time>
      </trkpt>
      <trkpt lat="49.9784" lon="2.41952">
        <ele>84.6</ele>
        <time>2022-04-20T13:00:22Z</time>
      </trkpt>
      <trkpt lat="49.9784" lon="2.4195">
        <ele>84.6</ele>
        <time>2022-04-20T13:00:23Z</time>
      </trkpt>
      <trkpt lat="49.9784" lon="2.41949">
        <ele>84.6</ele>
        <time>2022-04-20T13:00:24Z</time>
      </trkpt>
      <trkpt lat="49.97841" lon="2.41947">
        <ele>84.6</ele>
        <time>2022-04-20T13:00:25Z</time>
      </trkpt>
      <trkpt lat="49.97841" lon="2.41944">
        <ele>84.7</ele>
        <time>2022-04-20T13:00:27Z</time>
      </trkpt>
      <trkpt lat="49.97841" lon="2.41943">
        <ele>84.7</ele>
        <time>2022-04-20T13:00:28Z</time>
      </trkpt>
      <trkpt lat="49.97841" lon="2.41941">
        <ele>84.7</ele>
        <time>2022-04-20T13:00:29Z</time>
      </trkpt>
      <trkpt lat="49.97842" lon="2.4194">
        <ele>84.7</ele>
        <time>2022-04-20T13:00:30Z</time>
      </trkpt>
      <trkpt lat="49.97842" lon="2.41938">
        <ele>84.7</ele>
        <time>2022-04-20T13:00:31Z</time>
      </trkpt>
      <trkpt lat="49.97842" lon="2.41937">
        <ele>84.7</ele>
        <time>2022-04-20T13:00:32Z</time>
      </trkpt>
      <trkpt lat="49.97843" lon="2.41935">
        <ele>84.8</ele>
        <time>2022-04-20T13:00:34Z</time>
      </trkpt>
      <trkpt lat="49.97844" lon="2.41933">
        <ele>84.8</ele>
        <time>2022-04-20T13:00:35Z</time>
      </trkpt>
      <trkpt lat="49.97844" lon="2.41932">
        <ele>84.8</ele>
        <time>2022-04-20T13:00:36Z</time>
      </trkpt>
      <trkpt lat="49.97844" lon="2.4193">
        <ele>84.8</ele>
        <time>2022-04-20T13:00:37Z</time>
      </trkpt>
      <trkpt lat="49.97844" lon="2.41928">
        <ele>84.8</ele>
        <time>2022-04-20T13:00:38Z</time>
      </trkpt>
      <trkpt lat="49.97844" lon="2.41927">
        <ele>84.8</ele>
        <time>2022-04-20T13:00:39Z</time>
      </trkpt>
      <trkpt lat="49.97844" lon="2.41926">
        <ele>84.9</ele>
        <time>2022-04-20T13:00:40Z</time>
      </trkpt>
      <trkpt lat="49.97844" lon="2.41926">
        <ele>84.9</ele>
        <time>2022-04-20T13:00:41Z</time>
      </trkpt>
      <trkpt lat="49.97845" lon="2.41925">
        <ele>84.9</ele>
        <time>2022-04-20T13:00:42Z</time>
      </trkpt>
      <trkpt lat="49.97845" lon="2.41924">
        <ele>84.9</ele>
        <time>2022-04-20T13:00:43Z</time>
      </trkpt>
      <trkpt lat="49.97846" lon="2.41922">
        <ele>84.9</ele>
        <time>2022-04-20T13:00:44Z</time>
      </trkpt>
      <trkpt lat="49.97846" lon="2.41921">
        <ele>84.9</ele>
        <time>2022-04-20T13:00:45Z</time>
      </trkpt>
      <trkpt lat="49.97846" lon="2.41919">
        <ele>84.9</ele>
        <time>2022-04-20T13:00:46Z</time>
      </trkpt>
      <trkpt lat="49.97847" lon="2.41918">
        <ele>85</ele>
        <time>2022-04-20T13:00:48Z</time>
      </trkpt>
      <trkpt lat="49.97847" lon="2.41916">
        <ele>85</ele>
        <time>2022-04-20T13:00:49Z</time>
      </trkpt>
      <trkpt lat="49.97847" lon="2.41915">
        <ele>85</ele>
        <time>2022-04-20T13:00:50Z</time>
      </trkpt>
      <trkpt lat="49.97847" lon="2.41916">
        <ele>85</ele>
        <time>2022-04-20T13:00:51Z</time>
      </trkpt>
      <trkpt lat="49.97847" lon="2.41915">
        <ele>85</ele>
        <time>2022-04-20T13:00:52Z</time>
      </trkpt>
      <trkpt lat="49.97848" lon="2.41912">
        <ele>85.1</ele>
        <time>2022-04-20T13:00:54Z</time>
      </trkpt>
      <trkpt lat="49.97848" lon="2.4191">
        <ele>85.1</ele>
        <time>2022-04-20T13:00:55Z</time>
      </trkpt>
      <trkpt lat="49.97848" lon="2.41909">
        <ele>85.1</ele>
        <time>2022-04-20T13:00:56Z</time>
      </trkpt>
      <trkpt lat="49.97849" lon="2.41907">
        <ele>85.1</ele>
        <time>2022-04-20T13:00:57Z</time>
      </trkpt>
      <trkpt lat="49.97849" lon="2.41904">
        <ele>85.2</ele>
        <time>2022-04-20T13:00:58Z</time>
      </trkpt>
      <trkpt lat="49.97849" lon="2.41903">
        <ele>85.2</ele>
        <time>2022-04-20T13:00:59Z</time>
      </trkpt>
      <trkpt lat="49.9785" lon="2.41901">
        <ele>85.2</ele>
        <time>2022-04-20T13:01:00Z</time>
      </trkpt>
      <trkpt lat="49.9785" lon="2.41899">
        <ele>85.3</ele>
        <time>2022-04-20T13:01:01Z</time>
      </trkpt>
      <trkpt lat="49.97851" lon="2.41898">
        <ele>85.3</ele>
        <time>2022-04-20T13:01:02Z</time>
      </trkpt>
      <trkpt lat="49.97851" lon="2.41896">
        <ele>85.3</ele>
        <time>2022-04-20T13:01:03Z</time>
      </trkpt>
      <trkpt lat="49.97852" lon="2.41895">
        <ele>85.4</ele>
        <time>2022-04-20T13:01:04Z</time>
      </trkpt>
      <trkpt lat="49.97852" lon="2.41892">
        <ele>85.4</ele>
        <time>2022-04-20T13:01:06Z</time>
      </trkpt>
      <trkpt lat="49.97853" lon="2.4189">
        <ele>85.4</ele>
        <time>2022-04-20T13:01:07Z</time>
      </trkpt>
      <trkpt lat="49.97853" lon="2.41888">
        <ele>85.5</ele>
        <time>2022-04-20T13:01:08Z</time>
      </trkpt>
      <trkpt lat="49.97854" lon="2.41886">
        <ele>85.5</ele>
        <time>2022-04-20T13:01:09Z</time>
      </trkpt>
      <trkpt lat="49.97854" lon="2.41883">
        <ele>85.6</ele>
        <time>2022-04-20T13:01:10Z</time>
      </trkpt>
      <trkpt lat="49.97854" lon="2.4188">
        <ele>85.7</ele>
        <time>2022-04-20T13:01:11Z</time>
      </trkpt>
      <trkpt lat="49.97854" lon="2.41878">
        <ele>85.7</ele>
        <time>2022-04-20T13:01:13Z</time>
      </trkpt>
      <trkpt lat="49.97855" lon="2.41877">
        <ele>85.7</ele>
        <time>2022-04-20T13:01:14Z</time>
      </trkpt>
      <trkpt lat="49.97855" lon="2.41875">
        <ele>85.7</ele>
        <time>2022-04-20T13:01:15Z</time>
      </trkpt>
      <trkpt lat="49.97855" lon="2.41874">
        <ele>85.8</ele>
        <time>2022-04-20T13:01:16Z</time>
      </trkpt>
      <trkpt lat="49.97855" lon="2.41872">
        <ele>85.8</ele>
        <time>2022-04-20T13:01:17Z</time>
      </trkpt>
      <trkpt lat="49.97855" lon="2.4187">
        <ele>85.9</ele>
        <time>2022-04-20T13:01:18Z</time>
      </trkpt>
      <trkpt lat="49.97856" lon="2.41867">
        <ele>85.9</ele>
        <time>2022-04-20T13:01:19Z</time>
      </trkpt>
      <trkpt lat="49.97856" lon="2.41865">
        <ele>85.9</ele>
        <time>2022-04-20T13:01:20Z</time>
      </trkpt>
      <trkpt lat="49.97856" lon="2.41863">
        <ele>86</ele>
        <time>2022-04-20T13:01:21Z</time>
      </trkpt>
      <trkpt lat="49.97856" lon="2.4186">
        <ele>86</ele>
        <time>2022-04-20T13:01:22Z</time>
      </trkpt>
      <trkpt lat="49.97856" lon="2.41859">
        <ele>86.1</ele>
        <time>2022-04-20T13:01:24Z</time>
      </trkpt>
      <trkpt lat="49.97856" lon="2.41857">
        <ele>86.1</ele>
        <time>2022-04-20T13:01:25Z</time>
      </trkpt>
      <trkpt lat="49.97857" lon="2.41855">
        <ele>86.1</ele>
        <time>2022-04-20T13:01:26Z</time>
      </trkpt>
      <trkpt lat="49.97857" lon="2.41853">
        <ele>86.2</ele>
        <time>2022-04-20T13:01:27Z</time>
      </trkpt>
      <trkpt lat="49.97858" lon="2.41852">
        <ele>86.2</ele>
        <time>2022-04-20T13:01:28Z</time>
      </trkpt>
      <trkpt lat="49.97858" lon="2.4185">
        <ele>86.2</ele>
        <time>2022-04-20T13:01:29Z</time>
      </trkpt>
      <trkpt lat="49.97858" lon="2.41847">
        <ele>86.3</ele>
        <time>2022-04-20T13:01:31Z</time>
      </trkpt>
      <trkpt lat="49.97859" lon="2.41845">
        <ele>86.3</ele>
        <time>2022-04-20T13:01:32Z</time>
      </trkpt>
      <trkpt lat="49.97859" lon="2.41843">
        <ele>86.3</ele>
        <time>2022-04-20T13:01:33Z</time>
      </trkpt>
      <trkpt lat="49.9786" lon="2.4184">
        <ele>86.4</ele>
        <time>2022-04-20T13:01:34Z</time>
      </trkpt>
      <trkpt lat="49.97861" lon="2.41838">
        <ele>86.4</ele>
        <time>2022-04-20T13:01:35Z</time>
      </trkpt>
      <trkpt lat="49.97861" lon="2.41837">
        <ele>86.4</ele>
        <time>2022-04-20T13:01:36Z</time>
      </trkpt>
      <trkpt lat="49.97862" lon="2.41835">
        <ele>86.5</ele>
        <time>2022-04-20T13:01:37Z</time>
      </trkpt>
      <trkpt lat="49.97862" lon="2.41833">
        <ele>86.5</ele>
        <time>2022-04-20T13:01:39Z</time>
      </trkpt>
      <trkpt lat="49.97863" lon="2.41831">
        <ele>86.5</ele>
        <time>2022-04-20T13:01:40Z</time>
      </trkpt>
      <trkpt lat="49.97864" lon="2.41829">
        <ele>86.5</ele>
        <time>2022-04-20T13:01:41Z</time>
      </trkpt>
      <trkpt lat="49.97865" lon="2.41826">
        <ele>86.6</ele>
        <time>2022-04-20T13:01:42Z</time>
      </trkpt>
      <trkpt lat="49.97865" lon="2.41825">
        <ele>86.6</ele>
        <time>2022-04-20T13:01:43Z</time>
      </trkpt>
      <trkpt lat="49.97865" lon="2.41824">
        <ele>86.6</ele>
        <time>2022-04-20T13:01:44Z</time>
      </trkpt>
      <trkpt lat="49.97866" lon="2.41822">
        <ele>86.6</ele>
        <time>2022-04-20T13:01:45Z</time>
      </trkpt>
      <trkpt lat="49.97867" lon="2.4182">
        <ele>86.7</ele>
        <time>2022-04-20T13:01:46Z</time>
      </trkpt>
      <trkpt lat="49.97867" lon="2.41818">
        <ele>86.7</ele>
        <time>2022-04-20T13:01:48Z</time>
      </trkpt>
      <trkpt lat="49.97867" lon="2.41817">
        <ele>86.7</ele>
        <time>2022-04-20T13:01:49Z</time>
      </trkpt>
      <trkpt lat="49.97868" lon="2.41815">
        <ele>86.7</ele>
        <time>2022-04-20T13:01:50Z</time>
      </trkpt>
      <trkpt lat="49.97868" lon="2.41813">
        <ele>86.7</ele>
        <time>2022-04-20T13:01:51Z</time>
      </trkpt>
      <trkpt lat="49.97869" lon="2.4181">
        <ele>86.8</ele>
        <time>2022-04-20T13:01:52Z</time>
      </trkpt>
      <trkpt lat="49.97869" lon="2.41809">
        <ele>86.8</ele>
        <time>2022-04-20T13:01:53Z</time>
      </trkpt>
      <trkpt lat="49.97869" lon="2.41807">
        <ele>86.8</ele>
        <time>2022-04-20T13:01:54Z</time>
      </trkpt>
      <trkpt lat="49.9787" lon="2.41804">
        <ele>86.8</ele>
        <time>2022-04-20T13:01:55Z</time>
      </trkpt>
      <trkpt lat="49.9787" lon="2.41803">
        <ele>86.8</ele>
        <time>2022-04-20T13:01:57Z</time>
      </trkpt>
      <trkpt lat="49.97871" lon="2.41802">
        <ele>86.8</ele>
        <time>2022-04-20T13:01:58Z</time>
      </trkpt>
      <trkpt lat="49.97871" lon="2.41801">
        <ele>86.9</ele>
        <time>2022-04-20T13:01:59Z</time>
      </trkpt>
      <trkpt lat="49.97872" lon="2.41799">
        <ele>86.9</ele>
        <time>2022-04-20T13:02:00Z</time>
      </trkpt>
      <trkpt lat="49.97872" lon="2.41797">
        <ele>86.9</ele>
        <time>2022-04-20T13:02:01Z</time>
      </trkpt>
      <trkpt lat="49.97873" lon="2.41796">
        <ele>86.9</ele>
        <time>2022-04-20T13:02:02Z</time>
      </trkpt>
      <trkpt lat="49.97873" lon="2.41794">
        <ele>86.9</ele>
        <time>2022-04-20T13:02:04Z</time>
      </trkpt>
      <trkpt lat="49.97873" lon="2.41792">
        <ele>86.9</ele>
        <time>2022-04-20T13:02:05Z</time>
      </trkpt>
      <trkpt lat="49.97874" lon="2.41791">
        <ele>86.9</ele>
        <time>2022-04-20T13:02:06Z</time>
      </trkpt>
      <trkpt lat="49.97874" lon="2.41789">
        <ele>87</ele>
        <time>2022-04-20T13:02:07Z</time>
      </trkpt>
      <trkpt lat="49.97874" lon="2.41788">
        <ele>87</ele>
        <time>2022-04-20T13:02:08Z</time>
      </trkpt>
      <trkpt lat="49.97875" lon="2.41786">
        <ele>87</ele>
        <time>2022-04-20T13:02:09Z</time>
      </trkpt>
      <trkpt lat="49.97875" lon="2.41784">
        <ele>87</ele>
        <time>2022-04-20T13:02:10Z</time>
      </trkpt>
      <trkpt lat="49.97875" lon="2.41782">
        <ele>87</ele>
        <time>2022-04-20T13:02:12Z</time>
      </trkpt>
      <trkpt lat="49.97876" lon="2.41781">
        <ele>87</ele>
        <time>2022-04-20T13:02:13Z</time>
      </trkpt>
      <trkpt lat="49.97876" lon="2.41779">
        <ele>87</ele>
        <time>2022-04-20T13:02:14Z</time>
      </trkpt>
      <trkpt lat="49.97876" lon="2.41778">
        <ele>87</ele>
        <time>2022-04-20T13:02:15Z</time>
      </trkpt>
      <trkpt lat="49.97876" lon="2.41776">
        <ele>87.1</ele>
        <time>2022-04-20T13:02:16Z</time>
      </trkpt>
      <trkpt lat="49.97877" lon="2.41775">
        <ele>87.1</ele>
        <time>2022-04-20T13:02:17Z</time>
      </trkpt>
      <trkpt lat="49.97877" lon="2.41773">
        <ele>87.1</ele>
        <time>2022-04-20T13:02:19Z</time>
      </trkpt>
      <trkpt lat="49.97877" lon="2.41771">
        <ele>87.1</ele>
        <time>2022-04-20T13:02:20Z</time>
      </trkpt>
      <trkpt lat="49.97878" lon="2.41769">
        <ele>87.1</ele>
        <time>2022-04-20T13:02:21Z</time>
      </trkpt>
      <trkpt lat="49.97878" lon="2.41767">
        <ele>87.1</ele>
        <time>2022-04-20T13:02:22Z</time>
      </trkpt>
      <trkpt lat="49.97878" lon="2.41766">
        <ele>87.1</ele>
        <time>2022-04-20T13:02:24Z</time>
      </trkpt>
      <trkpt lat="49.97878" lon="2.41764">
        <ele>87.1</ele>
        <time>2022-04-20T13:02:25Z</time>
      </trkpt>
      <trkpt lat="49.97879" lon="2.41763">
        <ele>87.1</ele>
        <time>2022-04-20T13:02:26Z</time>
      </trkpt>
      <trkpt lat="49.97879" lon="2.41761">
        <ele>87.2</ele>
        <time>2022-04-20T13:02:27Z</time>
      </trkpt>
      <trkpt lat="49.97879" lon="2.41759">
        <ele>87.2</ele>
        <time>2022-04-20T13:02:28Z</time>
      </trkpt>
      <trkpt lat="49.9788" lon="2.41758">
        <ele>87.2</ele>
        <time>2022-04-20T13:02:29Z</time>
      </trkpt>
      <trkpt lat="49.9788" lon="2.41756">
        <ele>87.2</ele>
        <time>2022-04-20T13:02:30Z</time>
      </trkpt>
      <trkpt lat="49.97881" lon="2.41754">
        <ele>87.2</ele>
        <time>2022-04-20T13:02:31Z</time>
      </trkpt>
      <trkpt lat="49.97881" lon="2.41753">
        <ele>87.2</ele>
        <time>2022-04-20T13:02:33Z</time>
      </trkpt>
      <trkpt lat="49.97881" lon="2.41751">
        <ele>87.2</ele>
        <time>2022-04-20T13:02:34Z</time>
      </trkpt>
      <trkpt lat="49.97882" lon="2.41749">
        <ele>87.2</ele>
        <time>2022-04-20T13:02:35Z</time>
      </trkpt>
      <trkpt lat="49.97882" lon="2.41748">
        <ele>87.2</ele>
        <time>2022-04-20T13:02:36Z</time>
      </trkpt>
      <trkpt lat="49.97883" lon="2.41746">
        <ele>87.2</ele>
        <time>2022-04-20T13:02:37Z</time>
      </trkpt>
      <trkpt lat="49.97883" lon="2.41744">
        <ele>87.2</ele>
        <time>2022-04-20T13:02:38Z</time>
      </trkpt>
      <trkpt lat="49.97884" lon="2.41743">
        <ele>87.2</ele>
        <time>2022-04-20T13:02:39Z</time>
      </trkpt>
      <trkpt lat="49.97884" lon="2.41741">
        <ele>87.3</ele>
        <time>2022-04-20T13:02:40Z</time>
      </trkpt>
      <trkpt lat="49.97884" lon="2.4174">
        <ele>87.3</ele>
        <time>2022-04-20T13:02:42Z</time>
      </trkpt>
      <trkpt lat="49.97885" lon="2.41738">
        <ele>87.3</ele>
        <time>2022-04-20T13:02:43Z</time>
      </trkpt>
      <trkpt lat="49.97885" lon="2.41736">
        <ele>87.3</ele>
        <time>2022-04-20T13:02:44Z</time>
      </trkpt>
      <trkpt lat="49.97886" lon="2.41735">
        <ele>87.3</ele>
        <time>2022-04-20T13:02:45Z</time>
      </trkpt>
      <trkpt lat="49.97886" lon="2.41734">
        <ele>87.3</ele>
        <time>2022-04-20T13:02:46Z</time>
      </trkpt>
      <trkpt lat="49.97886" lon="2.41732">
        <ele>87.3</ele>
        <time>2022-04-20T13:02:47Z</time>
      </trkpt>
      <trkpt lat="49.97887" lon="2.4173">
        <ele>87.3</ele>
        <time>2022-04-20T13:02:48Z</time>
      </trkpt>
      <trkpt lat="49.97887" lon="2.41729">
        <ele>87.3</ele>
        <time>2022-04-20T13:02:50Z</time>
      </trkpt>
      <trkpt lat="49.97888" lon="2.41727">
        <ele>87.3</ele>
        <time>2022-04-20T13:02:51Z</time>
      </trkpt>
      <trkpt lat="49.97888" lon="2.41726">
        <ele>87.3</ele>
        <time>2022-04-20T13:02:52Z</time>
      </trkpt>
      <trkpt lat="49.97889" lon="2.41724">
        <ele>87.3</ele>
        <time>2022-04-20T13:02:53Z</time>
      </trkpt>
      <trkpt lat="49.97889" lon="2.41721">
        <ele>87.4</ele>
        <time>2022-04-20T13:02:55Z</time>
      </trkpt>
      <trkpt lat="49.9789" lon="2.4172">
        <ele>87.4</ele>
        <time>2022-04-20T13:02:56Z</time>
      </trkpt>
      <trkpt lat="49.97891" lon="2.41716">
        <ele>87.4</ele>
        <time>2022-04-20T13:02:57Z</time>
      </trkpt>
      <trkpt lat="49.97891" lon="2.41715">
        <ele>87.4</ele>
        <time>2022-04-20T13:02:58Z</time>
      </trkpt>
      <trkpt lat="49.97891" lon="2.41714">
        <ele>87.4</ele>
        <time>2022-04-20T13:02:59Z</time>
      </trkpt>
      <trkpt lat="49.97892" lon="2.41711">
        <ele>87.4</ele>
        <time>2022-04-20T13:03:00Z</time>
      </trkpt>
      <trkpt lat="49.97892" lon="2.4171">
        <ele>87.4</ele>
        <time>2022-04-20T13:03:01Z</time>
      </trkpt>
      <trkpt lat="49.97892" lon="2.41708">
        <ele>87.5</ele>
        <time>2022-04-20T13:03:02Z</time>
      </trkpt>
      <trkpt lat="49.97893" lon="2.41705">
        <ele>87.5</ele>
        <time>2022-04-20T13:03:03Z</time>
      </trkpt>
      <trkpt lat="49.97893" lon="2.41704">
        <ele>87.5</ele>
        <time>2022-04-20T13:03:05Z</time>
      </trkpt>
      <trkpt lat="49.97893" lon="2.41702">
        <ele>87.5</ele>
        <time>2022-04-20T13:03:06Z</time>
      </trkpt>
      <trkpt lat="49.97894" lon="2.417">
        <ele>87.5</ele>
        <time>2022-04-20T13:03:07Z</time>
      </trkpt>
      <trkpt lat="49.97894" lon="2.41699">
        <ele>87.5</ele>
        <time>2022-04-20T13:03:08Z</time>
      </trkpt>
      <trkpt lat="49.97894" lon="2.41697">
        <ele>87.6</ele>
        <time>2022-04-20T13:03:09Z</time>
      </trkpt>
      <trkpt lat="49.97895" lon="2.41695">
        <ele>87.6</ele>
        <time>2022-04-20T13:03:10Z</time>
      </trkpt>
      <trkpt lat="49.97895" lon="2.41693">
        <ele>87.6</ele>
        <time>2022-04-20T13:03:11Z</time>
      </trkpt>
      <trkpt lat="49.97895" lon="2.41691">
        <ele>87.6</ele>
        <time>2022-04-20T13:03:13Z</time>
      </trkpt>
      <trkpt lat="49.97896" lon="2.41689">
        <ele>87.6</ele>
        <time>2022-04-20T13:03:14Z</time>
      </trkpt>
      <trkpt lat="49.97896" lon="2.41687">
        <ele>87.6</ele>
        <time>2022-04-20T13:03:15Z</time>
      </trkpt>
      <trkpt lat="49.97896" lon="2.41685">
        <ele>87.7</ele>
        <time>2022-04-20T13:03:16Z</time>
      </trkpt>
      <trkpt lat="49.97897" lon="2.41684">
        <ele>87.7</ele>
        <time>2022-04-20T13:03:17Z</time>
      </trkpt>
      <trkpt lat="49.97897" lon="2.41683">
        <ele>87.7</ele>
        <time>2022-04-20T13:03:18Z</time>
      </trkpt>
      <trkpt lat="49.97898" lon="2.41679">
        <ele>87.7</ele>
        <time>2022-04-20T13:03:19Z</time>
      </trkpt>
      <trkpt lat="49.97898" lon="2.41678">
        <ele>87.7</ele>
        <time>2022-04-20T13:03:20Z</time>
      </trkpt>
      <trkpt lat="49.97898" lon="2.41677">
        <ele>87.7</ele>
        <time>2022-04-20T13:03:21Z</time>
      </trkpt>
      <trkpt lat="49.97899" lon="2.41675">
        <ele>87.8</ele>
        <time>2022-04-20T13:03:23Z</time>
      </trkpt>
      <trkpt lat="49.97899" lon="2.41673">
        <ele>87.8</ele>
        <time>2022-04-20T13:03:24Z</time>
      </trkpt>
      <trkpt lat="49.97899" lon="2.41672">
        <ele>87.8</ele>
        <time>2022-04-20T13:03:25Z</time>
      </trkpt>
      <trkpt lat="49.97899" lon="2.4167">
        <ele>87.8</ele>
        <time>2022-04-20T13:03:26Z</time>
      </trkpt>
      <trkpt lat="49.979" lon="2.41669">
        <ele>87.8</ele>
        <time>2022-04-20T13:03:27Z</time>
      </trkpt>
      <trkpt lat="49.979" lon="2.41667">
        <ele>87.8</ele>
        <time>2022-04-20T13:03:28Z</time>
      </trkpt>
      <trkpt lat="49.97901" lon="2.41664">
        <ele>87.8</ele>
        <time>2022-04-20T13:03:29Z</time>
      </trkpt>
      <trkpt lat="49.97901" lon="2.41662">
        <ele>87.9</ele>
        <time>2022-04-20T13:03:31Z</time>
      </trkpt>
      <trkpt lat="49.97901" lon="2.41661">
        <ele>87.9</ele>
        <time>2022-04-20T13:03:32Z</time>
      </trkpt>
      <trkpt lat="49.97901" lon="2.41659">
        <ele>87.9</ele>
        <time>2022-04-20T13:03:33Z</time>
      </trkpt>
      <trkpt lat="49.97901" lon="2.41658">
        <ele>87.9</ele>
        <time>2022-04-20T13:03:34Z</time>
      </trkpt>
      <trkpt lat="49.97902" lon="2.41655">
        <ele>87.9</ele>
        <time>2022-04-20T13:03:36Z</time>
      </trkpt>
      <trkpt lat="49.97903" lon="2.41652">
        <ele>87.9</ele>
        <time>2022-04-20T13:03:37Z</time>
      </trkpt>
      <trkpt lat="49.97903" lon="2.4165">
        <ele>87.9</ele>
        <time>2022-04-20T13:03:38Z</time>
      </trkpt>
      <trkpt lat="49.97903" lon="2.41649">
        <ele>88</ele>
        <time>2022-04-20T13:03:39Z</time>
      </trkpt>
      <trkpt lat="49.97904" lon="2.41647">
        <ele>88</ele>
        <time>2022-04-20T13:03:40Z</time>
      </trkpt>
      <trkpt lat="49.97904" lon="2.41646">
        <ele>88</ele>
        <time>2022-04-20T13:03:41Z</time>
      </trkpt>
      <trkpt lat="49.97904" lon="2.41644">
        <ele>88</ele>
        <time>2022-04-20T13:03:43Z</time>
      </trkpt>
      <trkpt lat="49.97905" lon="2.41643">
        <ele>88</ele>
        <time>2022-04-20T13:03:44Z</time>
      </trkpt>
      <trkpt lat="49.97905" lon="2.41641">
        <ele>88</ele>
        <time>2022-04-20T13:03:45Z</time>
      </trkpt>
      <trkpt lat="49.97906" lon="2.41639">
        <ele>88</ele>
        <time>2022-04-20T13:03:46Z</time>
      </trkpt>
      <trkpt lat="49.97906" lon="2.41637">
        <ele>88</ele>
        <time>2022-04-20T13:03:47Z</time>
      </trkpt>
      <trkpt lat="49.97906" lon="2.41636">
        <ele>88</ele>
        <time>2022-04-20T13:03:48Z</time>
      </trkpt>
      <trkpt lat="49.97907" lon="2.41634">
        <ele>88.1</ele>
        <time>2022-04-20T13:03:49Z</time>
      </trkpt>
      <trkpt lat="49.97907" lon="2.41632">
        <ele>88.1</ele>
        <time>2022-04-20T13:03:50Z</time>
      </trkpt>
      <trkpt lat="49.97907" lon="2.41631">
        <ele>88.1</ele>
        <time>2022-04-20T13:03:52Z</time>
      </trkpt>
      <trkpt lat="49.97907" lon="2.41629">
        <ele>88.1</ele>
        <time>2022-04-20T13:03:53Z</time>
      </trkpt>
      <trkpt lat="49.97908" lon="2.41626">
        <ele>88.1</ele>
        <time>2022-04-20T13:03:54Z</time>
      </trkpt>
      <trkpt lat="49.97908" lon="2.41624">
        <ele>88.1</ele>
        <time>2022-04-20T13:03:55Z</time>
      </trkpt>
      <trkpt lat="49.97908" lon="2.41623">
        <ele>88.1</ele>
        <time>2022-04-20T13:03:56Z</time>
      </trkpt>
      <trkpt lat="49.97909" lon="2.4162">
        <ele>88.2</ele>
        <time>2022-04-20T13:03:57Z</time>
      </trkpt>
      <trkpt lat="49.97909" lon="2.41619">
        <ele>88.2</ele>
        <time>2022-04-20T13:03:58Z</time>
      </trkpt>
      <trkpt lat="49.97909" lon="2.41617">
        <ele>88.2</ele>
        <time>2022-04-20T13:03:59Z</time>
      </trkpt>
      <trkpt lat="49.97909" lon="2.41616">
        <ele>88.2</ele>
        <time>2022-04-20T13:04:01Z</time>
      </trkpt>
      <trkpt lat="49.97909" lon="2.41614">
        <ele>88.2</ele>
        <time>2022-04-20T13:04:02Z</time>
      </trkpt>
      <trkpt lat="49.97909" lon="2.41613">
        <ele>88.2</ele>
        <time>2022-04-20T13:04:03Z</time>
      </trkpt>
      <trkpt lat="49.97909" lon="2.41611">
        <ele>88.2</ele>
        <time>2022-04-20T13:04:04Z</time>
      </trkpt>
      <trkpt lat="49.97909" lon="2.41609">
        <ele>88.3</ele>
        <time>2022-04-20T13:04:05Z</time>
      </trkpt>
      <trkpt lat="49.9791" lon="2.41608">
        <ele>88.3</ele>
        <time>2022-04-20T13:04:06Z</time>
      </trkpt>
      <trkpt lat="49.9791" lon="2.41606">
        <ele>88.3</ele>
        <time>2022-04-20T13:04:08Z</time>
      </trkpt>
      <trkpt lat="49.9791" lon="2.41604">
        <ele>88.3</ele>
        <time>2022-04-20T13:04:09Z</time>
      </trkpt>
      <trkpt lat="49.9791" lon="2.41603">
        <ele>88.3</ele>
        <time>2022-04-20T13:04:10Z</time>
      </trkpt>
      <trkpt lat="49.97911" lon="2.41601">
        <ele>88.3</ele>
        <time>2022-04-20T13:04:11Z</time>
      </trkpt>
      <trkpt lat="49.97911" lon="2.416">
        <ele>88.4</ele>
        <time>2022-04-20T13:04:12Z</time>
      </trkpt>
      <trkpt lat="49.97911" lon="2.41598">
        <ele>88.4</ele>
        <time>2022-04-20T13:04:13Z</time>
      </trkpt>
      <trkpt lat="49.97912" lon="2.41596">
        <ele>88.4</ele>
        <time>2022-04-20T13:04:15Z</time>
      </trkpt>
      <trkpt lat="49.97912" lon="2.41594">
        <ele>88.4</ele>
        <time>2022-04-20T13:04:16Z</time>
      </trkpt>
      <trkpt lat="49.97912" lon="2.41593">
        <ele>88.4</ele>
        <time>2022-04-20T13:04:17Z</time>
      </trkpt>
      <trkpt lat="49.97913" lon="2.41591">
        <ele>88.5</ele>
        <time>2022-04-20T13:04:18Z</time>
      </trkpt>
      <trkpt lat="49.97913" lon="2.41588">
        <ele>88.5</ele>
        <time>2022-04-20T13:04:20Z</time>
      </trkpt>
      <trkpt lat="49.97913" lon="2.41587">
        <ele>88.5</ele>
        <time>2022-04-20T13:04:21Z</time>
      </trkpt>
      <trkpt lat="49.97913" lon="2.41585">
        <ele>88.5</ele>
        <time>2022-04-20T13:04:22Z</time>
      </trkpt>
      <trkpt lat="49.97914" lon="2.41583">
        <ele>88.5</ele>
        <time>2022-04-20T13:04:23Z</time>
      </trkpt>
      <trkpt lat="49.97914" lon="2.41582">
        <ele>88.6</ele>
        <time>2022-04-20T13:04:24Z</time>
      </trkpt>
      <trkpt lat="49.97914" lon="2.4158">
        <ele>88.6</ele>
        <time>2022-04-20T13:04:25Z</time>
      </trkpt>
      <trkpt lat="49.97914" lon="2.41578">
        <ele>88.6</ele>
        <time>2022-04-20T13:04:27Z</time>
      </trkpt>
      <trkpt lat="49.97914" lon="2.41576">
        <ele>88.6</ele>
        <time>2022-04-20T13:04:28Z</time>
      </trkpt>
      <trkpt lat="49.97914" lon="2.41575">
        <ele>88.6</ele>
        <time>2022-04-20T13:04:29Z</time>
      </trkpt>
      <trkpt lat="49.97915" lon="2.41573">
        <ele>88.6</ele>
        <time>2022-04-20T13:04:30Z</time>
      </trkpt>
      <trkpt lat="49.97915" lon="2.41571">
        <ele>88.6</ele>
        <time>2022-04-20T13:04:31Z</time>
      </trkpt>
      <trkpt lat="49.97915" lon="2.4157">
        <ele>88.7</ele>
        <time>2022-04-20T13:04:32Z</time>
      </trkpt>
      <trkpt lat="49.97915" lon="2.41568">
        <ele>88.7</ele>
        <time>2022-04-20T13:04:34Z</time>
      </trkpt>
      <trkpt lat="49.97915" lon="2.41566">
        <ele>88.7</ele>
        <time>2022-04-20T13:04:35Z</time>
      </trkpt>
      <trkpt lat="49.97915" lon="2.41564">
        <ele>88.7</ele>
        <time>2022-04-20T13:04:36Z</time>
      </trkpt>
      <trkpt lat="49.97915" lon="2.41563">
        <ele>88.7</ele>
        <time>2022-04-20T13:04:37Z</time>
      </trkpt>
      <trkpt lat="49.97915" lon="2.41561">
        <ele>88.7</ele>
        <time>2022-04-20T13:04:38Z</time>
      </trkpt>
      <trkpt lat="49.97915" lon="2.41559">
        <ele>88.8</ele>
        <time>2022-04-20T13:04:39Z</time>
      </trkpt>
      <trkpt lat="49.97915" lon="2.41557">
        <ele>88.8</ele>
        <time>2022-04-20T13:04:41Z</time>
      </trkpt>
      <trkpt lat="49.97915" lon="2.41555">
        <ele>88.8</ele>
        <time>2022-04-20T13:04:42Z</time>
      </trkpt>
      <trkpt lat="49.97916" lon="2.41554">
        <ele>88.8</ele>
        <time>2022-04-20T13:04:43Z</time>
      </trkpt>
      <trkpt lat="49.97916" lon="2.41552">
        <ele>88.8</ele>
        <time>2022-04-20T13:04:44Z</time>
      </trkpt>
      <trkpt lat="49.97916" lon="2.41551">
        <ele>88.9</ele>
        <time>2022-04-20T13:04:45Z</time>
      </trkpt>
      <trkpt lat="49.97916" lon="2.41549">
        <ele>88.9</ele>
        <time>2022-04-20T13:04:46Z</time>
      </trkpt>
      <trkpt lat="49.97916" lon="2.41547">
        <ele>88.9</ele>
        <time>2022-04-20T13:04:48Z</time>
      </trkpt>
      <trkpt lat="49.97916" lon="2.41545">
        <ele>88.9</ele>
        <time>2022-04-20T13:04:49Z</time>
      </trkpt>
      <trkpt lat="49.97916" lon="2.41543">
        <ele>88.9</ele>
        <time>2022-04-20T13:04:50Z</time>
      </trkpt>
      <trkpt lat="49.97916" lon="2.41541">
        <ele>89</ele>
        <time>2022-04-20T13:04:51Z</time>
      </trkpt>
      <trkpt lat="49.97917" lon="2.4154">
        <ele>89</ele>
        <time>2022-04-20T13:04:52Z</time>
      </trkpt>
      <trkpt lat="49.97917" lon="2.41538">
        <ele>89</ele>
        <time>2022-04-20T13:04:53Z</time>
      </trkpt>
      <trkpt lat="49.97917" lon="2.41536">
        <ele>89.1</ele>
        <time>2022-04-20T13:04:55Z</time>
      </trkpt>
      <trkpt lat="49.97917" lon="2.41534">
        <ele>89.1</ele>
        <time>2022-04-20T13:04:56Z</time>
      </trkpt>
      <trkpt lat="49.97917" lon="2.41532">
        <ele>89.1</ele>
        <time>2022-04-20T13:04:57Z</time>
      </trkpt>
      <trkpt lat="49.97917" lon="2.41531">
        <ele>89.1</ele>
        <time>2022-04-20T13:04:58Z</time>
      </trkpt>
      <trkpt lat="49.97917" lon="2.41527">
        <ele>89.2</ele>
        <time>2022-04-20T13:04:59Z</time>
      </trkpt>
      <trkpt lat="49.97917" lon="2.41526">
        <ele>89.2</ele>
        <time>2022-04-20T13:05:01Z</time>
      </trkpt>
      <trkpt lat="49.97917" lon="2.41525">
        <ele>89.2</ele>
        <time>2022-04-20T13:05:02Z</time>
      </trkpt>
      <trkpt lat="49.97917" lon="2.41521">
        <ele>89.3</ele>
        <time>2022-04-20T13:05:03Z</time>
      </trkpt>
      <trkpt lat="49.97917" lon="2.4152">
        <ele>89.3</ele>
        <time>2022-04-20T13:05:04Z</time>
      </trkpt>
      <trkpt lat="49.97917" lon="2.41519">
        <ele>89.3</ele>
        <time>2022-04-20T13:05:05Z</time>
      </trkpt>
      <trkpt lat="49.97917" lon="2.41515">
        <ele>89.4</ele>
        <time>2022-04-20T13:05:06Z</time>
      </trkpt>
      <trkpt lat="49.97917" lon="2.41514">
        <ele>89.4</ele>
        <time>2022-04-20T13:05:08Z</time>
      </trkpt>
      <trkpt lat="49.97917" lon="2.41513">
        <ele>89.4</ele>
        <time>2022-04-20T13:05:09Z</time>
      </trkpt>
      <trkpt lat="49.97916" lon="2.41512">
        <ele>89.4</ele>
        <time>2022-04-20T13:05:10Z</time>
      </trkpt>
      <trkpt lat="49.97916" lon="2.4151">
        <ele>89.5</ele>
        <time>2022-04-20T13:05:11Z</time>
      </trkpt>
      <trkpt lat="49.97916" lon="2.41509">
        <ele>89.5</ele>
        <time>2022-04-20T13:05:12Z</time>
      </trkpt>
      <trkpt lat="49.97916" lon="2.41507">
        <ele>89.5</ele>
        <time>2022-04-20T13:05:13Z</time>
      </trkpt>
      <trkpt lat="49.97916" lon="2.41505">
        <ele>89.5</ele>
        <time>2022-04-20T13:05:14Z</time>
      </trkpt>
      <trkpt lat="49.97916" lon="2.41503">
        <ele>89.6</ele>
        <time>2022-04-20T13:05:15Z</time>
      </trkpt>
      <trkpt lat="49.97916" lon="2.41499">
        <ele>89.7</ele>
        <time>2022-04-20T13:05:16Z</time>
      </trkpt>
      <trkpt lat="49.97916" lon="2.41497">
        <ele>89.7</ele>
        <time>2022-04-20T13:05:18Z</time>
      </trkpt>
      <trkpt lat="49.97916" lon="2.41495">
        <ele>89.7</ele>
        <time>2022-04-20T13:05:19Z</time>
      </trkpt>
      <trkpt lat="49.97916" lon="2.41493">
        <ele>89.8</ele>
        <time>2022-04-20T13:05:20Z</time>
      </trkpt>
      <trkpt lat="49.97917" lon="2.41492">
        <ele>89.8</ele>
        <time>2022-04-20T13:05:21Z</time>
      </trkpt>
      <trkpt lat="49.97917" lon="2.41488">
        <ele>89.9</ele>
        <time>2022-04-20T13:05:23Z</time>
      </trkpt>
      <trkpt lat="49.97917" lon="2.41487">
        <ele>89.9</ele>
        <time>2022-04-20T13:05:24Z</time>
      </trkpt>
      <trkpt lat="49.97918" lon="2.41486">
        <ele>89.9</ele>
        <time>2022-04-20T13:05:25Z</time>
      </trkpt>
      <trkpt lat="49.97918" lon="2.41483">
        <ele>90</ele>
        <time>2022-04-20T13:05:26Z</time>
      </trkpt>
      <trkpt lat="49.97919" lon="2.41482">
        <ele>90</ele>
        <time>2022-04-20T13:05:27Z</time>
      </trkpt>
      <trkpt lat="49.97919" lon="2.4148">
        <ele>90.1</ele>
        <time>2022-04-20T13:05:28Z</time>
      </trkpt>
      <trkpt lat="49.97919" lon="2.41479">
        <ele>90.1</ele>
        <time>2022-04-20T13:05:30Z</time>
      </trkpt>
      <trkpt lat="49.9792" lon="2.41477">
        <ele>90.2</ele>
        <time>2022-04-20T13:05:31Z</time>
      </trkpt>
      <trkpt lat="49.9792" lon="2.41475">
        <ele>90.2</ele>
        <time>2022-04-20T13:05:32Z</time>
      </trkpt>
      <trkpt lat="49.97921" lon="2.41472">
        <ele>90.3</ele>
        <time>2022-04-20T13:05:33Z</time>
      </trkpt>
      <trkpt lat="49.97921" lon="2.41471">
        <ele>90.3</ele>
        <time>2022-04-20T13:05:34Z</time>
      </trkpt>
      <trkpt lat="49.97921" lon="2.4147">
        <ele>90.3</ele>
        <time>2022-04-20T13:05:35Z</time>
      </trkpt>
      <trkpt lat="49.97922" lon="2.41468">
        <ele>90.4</ele>
        <time>2022-04-20T13:05:37Z</time>
      </trkpt>
      <trkpt lat="49.97922" lon="2.41466">
        <ele>90.4</ele>
        <time>2022-04-20T13:05:38Z</time>
      </trkpt>
      <trkpt lat="49.97922" lon="2.41465">
        <ele>90.5</ele>
        <time>2022-04-20T13:05:39Z</time>
      </trkpt>
      <trkpt lat="49.97922" lon="2.41463">
        <ele>90.5</ele>
        <time>2022-04-20T13:05:40Z</time>
      </trkpt>
      <trkpt lat="49.97923" lon="2.41461">
        <ele>90.6</ele>
        <time>2022-04-20T13:05:41Z</time>
      </trkpt>
      <trkpt lat="49.97923" lon="2.41459">
        <ele>90.6</ele>
        <time>2022-04-20T13:05:43Z</time>
      </trkpt>
      <trkpt lat="49.97923" lon="2.41457">
        <ele>90.7</ele>
        <time>2022-04-20T13:05:44Z</time>
      </trkpt>
      <trkpt lat="49.97924" lon="2.41456">
        <ele>90.7</ele>
        <time>2022-04-20T13:05:45Z</time>
      </trkpt>
      <trkpt lat="49.97924" lon="2.41454">
        <ele>90.8</ele>
        <time>2022-04-20T13:05:46Z</time>
      </trkpt>
      <trkpt lat="49.97924" lon="2.41453">
        <ele>90.8</ele>
        <time>2022-04-20T13:05:47Z</time>
      </trkpt>
      <trkpt lat="49.97925" lon="2.41452">
        <ele>90.8</ele>
        <time>2022-04-20T13:05:48Z</time>
      </trkpt>
      <trkpt lat="49.97925" lon="2.4145">
        <ele>90.9</ele>
        <time>2022-04-20T13:05:49Z</time>
      </trkpt>
      <trkpt lat="49.97925" lon="2.41449">
        <ele>90.9</ele>
        <time>2022-04-20T13:05:50Z</time>
      </trkpt>
      <trkpt lat="49.97925" lon="2.41448">
        <ele>90.9</ele>
        <time>2022-04-20T13:05:51Z</time>
      </trkpt>
      <trkpt lat="49.97925" lon="2.41446">
        <ele>91</ele>
        <time>2022-04-20T13:05:52Z</time>
      </trkpt>
      <trkpt lat="49.97925" lon="2.41442">
        <ele>91.1</ele>
        <time>2022-04-20T13:05:53Z</time>
      </trkpt>
      <trkpt lat="49.97925" lon="2.41441">
        <ele>91.1</ele>
        <time>2022-04-20T13:05:54Z</time>
      </trkpt>
      <trkpt lat="49.97925" lon="2.4144">
        <ele>91.2</ele>
        <time>2022-04-20T13:05:56Z</time>
      </trkpt>
      <trkpt lat="49.97925" lon="2.41438">
        <ele>91.2</ele>
        <time>2022-04-20T13:05:57Z</time>
      </trkpt>
      <trkpt lat="49.97924" lon="2.41437">
        <ele>91.2</ele>
        <time>2022-04-20T13:05:58Z</time>
      </trkpt>
      <trkpt lat="49.97924" lon="2.41435">
        <ele>91.3</ele>
        <time>2022-04-20T13:05:59Z</time>
      </trkpt>
      <trkpt lat="49.97924" lon="2.41433">
        <ele>91.3</ele>
        <time>2022-04-20T13:06:00Z</time>
      </trkpt>
      <trkpt lat="49.97924" lon="2.41432">
        <ele>91.4</ele>
        <time>2022-04-20T13:06:02Z</time>
      </trkpt>
      <trkpt lat="49.97924" lon="2.4143">
        <ele>91.4</ele>
        <time>2022-04-20T13:06:03Z</time>
      </trkpt>
      <trkpt lat="49.97923" lon="2.41428">
        <ele>91.5</ele>
        <time>2022-04-20T13:06:04Z</time>
      </trkpt>
      <trkpt lat="49.97923" lon="2.41426">
        <ele>91.5</ele>
        <time>2022-04-20T13:06:05Z</time>
      </trkpt>
      <trkpt lat="49.97923" lon="2.41424">
        <ele>91.6</ele>
        <time>2022-04-20T13:06:06Z</time>
      </trkpt>
      <trkpt lat="49.97923" lon="2.41421">
        <ele>91.7</ele>
        <time>2022-04-20T13:06:07Z</time>
      </trkpt>
      <trkpt lat="49.97923" lon="2.4142">
        <ele>91.7</ele>
        <time>2022-04-20T13:06:09Z</time>
      </trkpt>
      <trkpt lat="49.97923" lon="2.41419">
        <ele>91.8</ele>
        <time>2022-04-20T13:06:10Z</time>
      </trkpt>
      <trkpt lat="49.97922" lon="2.41417">
        <ele>91.8</ele>
        <time>2022-04-20T13:06:11Z</time>
      </trkpt>
      <trkpt lat="49.97922" lon="2.41416">
        <ele>91.9</ele>
        <time>2022-04-20T13:06:12Z</time>
      </trkpt>
      <trkpt lat="49.97922" lon="2.41414">
        <ele>91.9</ele>
        <time>2022-04-20T13:06:13Z</time>
      </trkpt>
      <trkpt lat="49.97922" lon="2.41411">
        <ele>92</ele>
        <time>2022-04-20T13:06:14Z</time>
      </trkpt>
      <trkpt lat="49.97922" lon="2.41409">
        <ele>92.1</ele>
        <time>2022-04-20T13:06:15Z</time>
      </trkpt>
      <trkpt lat="49.97922" lon="2.41408">
        <ele>92.1</ele>
        <time>2022-04-20T13:06:16Z</time>
      </trkpt>
      <trkpt lat="49.97922" lon="2.41405">
        <ele>92.2</ele>
        <time>2022-04-20T13:06:17Z</time>
      </trkpt>
      <trkpt lat="49.97922" lon="2.41403">
        <ele>92.3</ele>
        <time>2022-04-20T13:06:19Z</time>
      </trkpt>
      <trkpt lat="49.97921" lon="2.41402">
        <ele>92.3</ele>
        <time>2022-04-20T13:06:20Z</time>
      </trkpt>
      <trkpt lat="49.97921" lon="2.41401">
        <ele>92.3</ele>
        <time>2022-04-20T13:06:21Z</time>
      </trkpt>
      <trkpt lat="49.97921" lon="2.41399">
        <ele>92.4</ele>
        <time>2022-04-20T13:06:22Z</time>
      </trkpt>
      <trkpt lat="49.97921" lon="2.41397">
        <ele>92.5</ele>
        <time>2022-04-20T13:06:23Z</time>
      </trkpt>
      <trkpt lat="49.97921" lon="2.41395">
        <ele>92.5</ele>
        <time>2022-04-20T13:06:25Z</time>
      </trkpt>
      <trkpt lat="49.97921" lon="2.41394">
        <ele>92.6</ele>
        <time>2022-04-20T13:06:26Z</time>
      </trkpt>
      <trkpt lat="49.97922" lon="2.41392">
        <ele>92.6</ele>
        <time>2022-04-20T13:06:27Z</time>
      </trkpt>
      <trkpt lat="49.97922" lon="2.41391">
        <ele>92.6</ele>
        <time>2022-04-20T13:06:28Z</time>
      </trkpt>
      <trkpt lat="49.97922" lon="2.4139">
        <ele>92.7</ele>
        <time>2022-04-20T13:06:29Z</time>
      </trkpt>
      <trkpt lat="49.97922" lon="2.41389">
        <ele>92.7</ele>
        <time>2022-04-20T13:06:30Z</time>
      </trkpt>
      <trkpt lat="49.97922" lon="2.41388">
        <ele>92.7</ele>
        <time>2022-04-20T13:06:31Z</time>
      </trkpt>
      <trkpt lat="49.97922" lon="2.41387">
        <ele>92.8</ele>
        <time>2022-04-20T13:06:33Z</time>
      </trkpt>
      <trkpt lat="49.97922" lon="2.41385">
        <ele>92.8</ele>
        <time>2022-04-20T13:06:34Z</time>
      </trkpt>
      <trkpt lat="49.97922" lon="2.41384">
        <ele>92.9</ele>
        <time>2022-04-20T13:06:35Z</time>
      </trkpt>
      <trkpt lat="49.97923" lon="2.41383">
        <ele>92.9</ele>
        <time>2022-04-20T13:06:36Z</time>
      </trkpt>
      <trkpt lat="49.97923" lon="2.41381">
        <ele>93</ele>
        <time>2022-04-20T13:06:37Z</time>
      </trkpt>
      <trkpt lat="49.97923" lon="2.4138">
        <ele>93</ele>
        <time>2022-04-20T13:06:38Z</time>
      </trkpt>
      <trkpt lat="49.97924" lon="2.41378">
        <ele>93.1</ele>
        <time>2022-04-20T13:06:39Z</time>
      </trkpt>
      <trkpt lat="49.97924" lon="2.41377">
        <ele>93.1</ele>
        <time>2022-04-20T13:06:41Z</time>
      </trkpt>
      <trkpt lat="49.97924" lon="2.41375">
        <ele>93.1</ele>
        <time>2022-04-20T13:06:42Z</time>
      </trkpt>
      <trkpt lat="49.97925" lon="2.41374">
        <ele>93.2</ele>
        <time>2022-04-20T13:06:43Z</time>
      </trkpt>
      <trkpt lat="49.97925" lon="2.41372">
        <ele>93.2</ele>
        <time>2022-04-20T13:06:45Z</time>
      </trkpt>
      <trkpt lat="49.97925" lon="2.41371">
        <ele>93.3</ele>
        <time>2022-04-20T13:06:46Z</time>
      </trkpt>
      <trkpt lat="49.97926" lon="2.4137">
        <ele>93.3</ele>
        <time>2022-04-20T13:06:47Z</time>
      </trkpt>
      <trkpt lat="49.97926" lon="2.41368">
        <ele>93.3</ele>
        <time>2022-04-20T13:06:48Z</time>
      </trkpt>
      <trkpt lat="49.97926" lon="2.41367">
        <ele>93.4</ele>
        <time>2022-04-20T13:06:50Z</time>
      </trkpt>
      <trkpt lat="49.97926" lon="2.41365">
        <ele>93.4</ele>
        <time>2022-04-20T13:06:51Z</time>
      </trkpt>
      <trkpt lat="49.97926" lon="2.41365">
        <ele>93.4</ele>
        <time>2022-04-20T13:06:52Z</time>
      </trkpt>
      <trkpt lat="49.97924" lon="2.41365">
        <ele>93.5</ele>
        <time>2022-04-20T13:06:53Z</time>
      </trkpt>
      <trkpt lat="49.97924" lon="2.41364">
        <ele>93.6</ele>
        <time>2022-04-20T13:06:54Z</time>
      </trkpt>
      <trkpt lat="49.97924" lon="2.41363">
        <ele>93.6</ele>
        <time>2022-04-20T13:06:56Z</time>
      </trkpt>
      <trkpt lat="49.97924" lon="2.41363">
        <ele>93.6</ele>
        <time>2022-04-20T13:06:57Z</time>
      </trkpt>
      <trkpt lat="49.97924" lon="2.41362">
        <ele>93.6</ele>
        <time>2022-04-20T13:06:58Z</time>
      </trkpt>
      <trkpt lat="49.97924" lon="2.41361">
        <ele>93.7</ele>
        <time>2022-04-20T13:06:59Z</time>
      </trkpt>
      <trkpt lat="49.97924" lon="2.4136">
        <ele>93.7</ele>
        <time>2022-04-20T13:07:00Z</time>
      </trkpt>
      <trkpt lat="49.97924" lon="2.4136">
        <ele>93.7</ele>
        <time>2022-04-20T13:07:01Z</time>
      </trkpt>
      <trkpt lat="49.97923" lon="2.41359">
        <ele>93.7</ele>
        <time>2022-04-20T13:07:02Z</time>
      </trkpt>
      <trkpt lat="49.97924" lon="2.41358">
        <ele>93.8</ele>
        <time>2022-04-20T13:07:03Z</time>
      </trkpt>
      <trkpt lat="49.97924" lon="2.41357">
        <ele>93.8</ele>
        <time>2022-04-20T13:07:04Z</time>
      </trkpt>
      <trkpt lat="49.97924" lon="2.41356">
        <ele>93.8</ele>
        <time>2022-04-20T13:07:05Z</time>
      </trkpt>
      <trkpt lat="49.97924" lon="2.41355">
        <ele>93.8</ele>
        <time>2022-04-20T13:07:06Z</time>
      </trkpt>
      <trkpt lat="49.97925" lon="2.41354">
        <ele>93.9</ele>
        <time>2022-04-20T13:07:07Z</time>
      </trkpt>
      <trkpt lat="49.97925" lon="2.41353">
        <ele>93.9</ele>
        <time>2022-04-20T13:07:08Z</time>
      </trkpt>
      <trkpt lat="49.97925" lon="2.41352">
        <ele>93.9</ele>
        <time>2022-04-20T13:07:10Z</time>
      </trkpt>
      <trkpt lat="49.97925" lon="2.41351">
        <ele>94</ele>
        <time>2022-04-20T13:07:11Z</time>
      </trkpt>
      <trkpt lat="49.97925" lon="2.41351">
        <ele>94</ele>
        <time>2022-04-20T13:07:12Z</time>
      </trkpt>
      <trkpt lat="49.97926" lon="2.4135">
        <ele>94</ele>
        <time>2022-04-20T13:07:14Z</time>
      </trkpt>
      <trkpt lat="49.97926" lon="2.41349">
        <ele>94</ele>
        <time>2022-04-20T13:07:15Z</time>
      </trkpt>
      <trkpt lat="49.97926" lon="2.41348">
        <ele>94.1</ele>
        <time>2022-04-20T13:07:16Z</time>
      </trkpt>
      <trkpt lat="49.97926" lon="2.41347">
        <ele>94.1</ele>
        <time>2022-04-20T13:07:17Z</time>
      </trkpt>
      <trkpt lat="49.97927" lon="2.41346">
        <ele>94.1</ele>
        <time>2022-04-20T13:07:18Z</time>
      </trkpt>
      <trkpt lat="49.97927" lon="2.41344">
        <ele>94.2</ele>
        <time>2022-04-20T13:07:19Z</time>
      </trkpt>
      <trkpt lat="49.97928" lon="2.41343">
        <ele>94.2</ele>
        <time>2022-04-20T13:07:21Z</time>
      </trkpt>
      <trkpt lat="49.97929" lon="2.41341">
        <ele>94.3</ele>
        <time>2022-04-20T13:07:22Z</time>
      </trkpt>
      <trkpt lat="49.97929" lon="2.4134">
        <ele>94.3</ele>
        <time>2022-04-20T13:07:23Z</time>
      </trkpt>
      <trkpt lat="49.9793" lon="2.41339">
        <ele>94.3</ele>
        <time>2022-04-20T13:07:24Z</time>
      </trkpt>
      <trkpt lat="49.9793" lon="2.41337">
        <ele>94.4</ele>
        <time>2022-04-20T13:07:25Z</time>
      </trkpt>
      <trkpt lat="49.9793" lon="2.41336">
        <ele>94.4</ele>
        <time>2022-04-20T13:07:26Z</time>
      </trkpt>
      <trkpt lat="49.97931" lon="2.41335">
        <ele>94.5</ele>
        <time>2022-04-20T13:07:27Z</time>
      </trkpt>
      <trkpt lat="49.97931" lon="2.41333">
        <ele>94.5</ele>
        <time>2022-04-20T13:07:28Z</time>
      </trkpt>
      <trkpt lat="49.97932" lon="2.41332">
        <ele>94.6</ele>
        <time>2022-04-20T13:07:29Z</time>
      </trkpt>
      <trkpt lat="49.97932" lon="2.41331">
        <ele>94.6</ele>
        <time>2022-04-20T13:07:30Z</time>
      </trkpt>
      <trkpt lat="49.97932" lon="2.41329">
        <ele>94.6</ele>
        <time>2022-04-20T13:07:31Z</time>
      </trkpt>
      <trkpt lat="49.97933" lon="2.41328">
        <ele>94.7</ele>
        <time>2022-04-20T13:07:32Z</time>
      </trkpt>
      <trkpt lat="49.97933" lon="2.41326">
        <ele>94.7</ele>
        <time>2022-04-20T13:07:34Z</time>
      </trkpt>
      <trkpt lat="49.97933" lon="2.41325">
        <ele>94.7</ele>
        <time>2022-04-20T13:07:35Z</time>
      </trkpt>
      <trkpt lat="49.97934" lon="2.41323">
        <ele>94.8</ele>
        <time>2022-04-20T13:07:36Z</time>
      </trkpt>
      <trkpt lat="49.97934" lon="2.41322">
        <ele>94.8</ele>
        <time>2022-04-20T13:07:37Z</time>
      </trkpt>
      <trkpt lat="49.97934" lon="2.4132">
        <ele>94.9</ele>
        <time>2022-04-20T13:07:38Z</time>
      </trkpt>
      <trkpt lat="49.97933" lon="2.41319">
        <ele>94.9</ele>
        <time>2022-04-20T13:07:39Z</time>
      </trkpt>
      <trkpt lat="49.97933" lon="2.41317">
        <ele>94.9</ele>
        <time>2022-04-20T13:07:40Z</time>
      </trkpt>
      <trkpt lat="49.97933" lon="2.41316">
        <ele>95</ele>
        <time>2022-04-20T13:07:41Z</time>
      </trkpt>
      <trkpt lat="49.97933" lon="2.41314">
        <ele>95</ele>
        <time>2022-04-20T13:07:42Z</time>
      </trkpt>
      <trkpt lat="49.97934" lon="2.41311">
        <ele>95.1</ele>
        <time>2022-04-20T13:07:44Z</time>
      </trkpt>
      <trkpt lat="49.97935" lon="2.4131">
        <ele>95.1</ele>
        <time>2022-04-20T13:07:45Z</time>
      </trkpt>
      <trkpt lat="49.97935" lon="2.41308">
        <ele>95.2</ele>
        <time>2022-04-20T13:07:46Z</time>
      </trkpt>
      <trkpt lat="49.97936" lon="2.41307">
        <ele>95.2</ele>
        <time>2022-04-20T13:07:48Z</time>
      </trkpt>
      <trkpt lat="49.97936" lon="2.41305">
        <ele>95.2</ele>
        <time>2022-04-20T13:07:49Z</time>
      </trkpt>
      <trkpt lat="49.97936" lon="2.41303">
        <ele>95.3</ele>
        <time>2022-04-20T13:07:50Z</time>
      </trkpt>
      <trkpt lat="49.97936" lon="2.41302">
        <ele>95.3</ele>
        <time>2022-04-20T13:07:51Z</time>
      </trkpt>
      <trkpt lat="49.97937" lon="2.413">
        <ele>95.4</ele>
        <time>2022-04-20T13:07:52Z</time>
      </trkpt>
      <trkpt lat="49.97937" lon="2.41298">
        <ele>95.4</ele>
        <time>2022-04-20T13:07:54Z</time>
      </trkpt>
      <trkpt lat="49.97937" lon="2.41296">
        <ele>95.4</ele>
        <time>2022-04-20T13:07:55Z</time>
      </trkpt>
      <trkpt lat="49.97938" lon="2.41293">
        <ele>95.5</ele>
        <time>2022-04-20T13:07:56Z</time>
      </trkpt>
      <trkpt lat="49.97938" lon="2.41292">
        <ele>95.5</ele>
        <time>2022-04-20T13:07:57Z</time>
      </trkpt>
      <trkpt lat="49.97938" lon="2.41291">
        <ele>95.5</ele>
        <time>2022-04-20T13:07:58Z</time>
      </trkpt>
      <trkpt lat="49.97939" lon="2.41288">
        <ele>95.6</ele>
        <time>2022-04-20T13:08:00Z</time>
      </trkpt>
      <trkpt lat="49.97939" lon="2.41286">
        <ele>95.6</ele>
        <time>2022-04-20T13:08:01Z</time>
      </trkpt>
      <trkpt lat="49.97939" lon="2.41285">
        <ele>95.6</ele>
        <time>2022-04-20T13:08:02Z</time>
      </trkpt>
      <trkpt lat="49.9794" lon="2.41283">
        <ele>95.7</ele>
        <time>2022-04-20T13:08:03Z</time>
      </trkpt>
      <trkpt lat="49.9794" lon="2.41282">
        <ele>95.7</ele>
        <time>2022-04-20T13:08:05Z</time>
      </trkpt>
      <trkpt lat="49.9794" lon="2.4128">
        <ele>95.7</ele>
        <time>2022-04-20T13:08:06Z</time>
      </trkpt>
      <trkpt lat="49.9794" lon="2.41279">
        <ele>95.7</ele>
        <time>2022-04-20T13:08:07Z</time>
      </trkpt>
      <trkpt lat="49.9794" lon="2.41278">
        <ele>95.7</ele>
        <time>2022-04-20T13:08:08Z</time>
      </trkpt>
      <trkpt lat="49.97941" lon="2.41276">
        <ele>95.8</ele>
        <time>2022-04-20T13:08:09Z</time>
      </trkpt>
      <trkpt lat="49.97941" lon="2.41275">
        <ele>95.8</ele>
        <time>2022-04-20T13:08:10Z</time>
      </trkpt>
      <trkpt lat="49.9794" lon="2.41273">
        <ele>95.8</ele>
        <time>2022-04-20T13:08:11Z</time>
      </trkpt>
      <trkpt lat="49.9794" lon="2.41271">
        <ele>95.8</ele>
        <time>2022-04-20T13:08:12Z</time>
      </trkpt>
      <trkpt lat="49.9794" lon="2.41267">
        <ele>95.9</ele>
        <time>2022-04-20T13:08:14Z</time>
      </trkpt>
      <trkpt lat="49.9794" lon="2.41266">
        <ele>95.9</ele>
        <time>2022-04-20T13:08:15Z</time>
      </trkpt>
      <trkpt lat="49.9794" lon="2.41265">
        <ele>95.9</ele>
        <time>2022-04-20T13:08:16Z</time>
      </trkpt>
      <trkpt lat="49.9794" lon="2.41261">
        <ele>95.9</ele>
        <time>2022-04-20T13:08:17Z</time>
      </trkpt>
      <trkpt lat="49.9794" lon="2.4126">
        <ele>95.9</ele>
        <time>2022-04-20T13:08:18Z</time>
      </trkpt>
      <trkpt lat="49.97941" lon="2.41259">
        <ele>95.9</ele>
        <time>2022-04-20T13:08:19Z</time>
      </trkpt>
      <trkpt lat="49.97941" lon="2.41257">
        <ele>95.9</ele>
        <time>2022-04-20T13:08:21Z</time>
      </trkpt>
      <trkpt lat="49.97941" lon="2.41255">
        <ele>95.9</ele>
        <time>2022-04-20T13:08:22Z</time>
      </trkpt>
      <trkpt lat="49.97941" lon="2.41254">
        <ele>95.9</ele>
        <time>2022-04-20T13:08:23Z</time>
      </trkpt>
      <trkpt lat="49.97942" lon="2.41252">
        <ele>96</ele>
        <time>2022-04-20T13:08:24Z</time>
      </trkpt>
      <trkpt lat="49.97942" lon="2.4125">
        <ele>96</ele>
        <time>2022-04-20T13:08:25Z</time>
      </trkpt>
      <trkpt lat="49.97942" lon="2.41248">
        <ele>96</ele>
        <time>2022-04-20T13:08:27Z</time>
      </trkpt>
      <trkpt lat="49.97942" lon="2.41246">
        <ele>96</ele>
        <time>2022-04-20T13:08:28Z</time>
      </trkpt>
      <trkpt lat="49.97943" lon="2.41245">
        <ele>96</ele>
        <time>2022-04-20T13:08:29Z</time>
      </trkpt>
      <trkpt lat="49.97943" lon="2.41243">
        <ele>96</ele>
        <time>2022-04-20T13:08:30Z</time>
      </trkpt>
      <trkpt lat="49.97943" lon="2.4124">
        <ele>96</ele>
        <time>2022-04-20T13:08:32Z</time>
      </trkpt>
      <trkpt lat="49.97944" lon="2.41238">
        <ele>96</ele>
        <time>2022-04-20T13:08:33Z</time>
      </trkpt>
      <trkpt lat="49.97944" lon="2.41236">
        <ele>96</ele>
        <time>2022-04-20T13:08:34Z</time>
      </trkpt>
      <trkpt lat="49.97944" lon="2.41234">
        <ele>96</ele>
        <time>2022-04-20T13:08:35Z</time>
      </trkpt>
      <trkpt lat="49.97944" lon="2.41231">
        <ele>96</ele>
        <time>2022-04-20T13:08:36Z</time>
      </trkpt>
      <trkpt lat="49.97944" lon="2.4123">
        <ele>96</ele>
        <time>2022-04-20T13:08:38Z</time>
      </trkpt>
      <trkpt lat="49.97945" lon="2.41228">
        <ele>96</ele>
        <time>2022-04-20T13:08:39Z</time>
      </trkpt>
      <trkpt lat="49.97945" lon="2.41227">
        <ele>96</ele>
        <time>2022-04-20T13:08:40Z</time>
      </trkpt>
      <trkpt lat="49.97945" lon="2.41225">
        <ele>96</ele>
        <time>2022-04-20T13:08:41Z</time>
      </trkpt>
      <trkpt lat="49.97945" lon="2.41223">
        <ele>95.9</ele>
        <time>2022-04-20T13:08:42Z</time>
      </trkpt>
      <trkpt lat="49.97946" lon="2.41221">
        <ele>95.9</ele>
        <time>2022-04-20T13:08:43Z</time>
      </trkpt>
      <trkpt lat="49.97946" lon="2.41219">
        <ele>95.9</ele>
        <time>2022-04-20T13:08:45Z</time>
      </trkpt>
      <trkpt lat="49.97946" lon="2.41218">
        <ele>95.9</ele>
        <time>2022-04-20T13:08:46Z</time>
      </trkpt>
      <trkpt lat="49.97947" lon="2.41216">
        <ele>95.9</ele>
        <time>2022-04-20T13:08:47Z</time>
      </trkpt>
      <trkpt lat="49.97947" lon="2.41215">
        <ele>95.9</ele>
        <time>2022-04-20T13:08:48Z</time>
      </trkpt>
      <trkpt lat="49.97948" lon="2.41213">
        <ele>95.9</ele>
        <time>2022-04-20T13:08:49Z</time>
      </trkpt>
      <trkpt lat="49.97948" lon="2.41212">
        <ele>95.9</ele>
        <time>2022-04-20T13:08:50Z</time>
      </trkpt>
      <trkpt lat="49.97948" lon="2.4121">
        <ele>95.9</ele>
        <time>2022-04-20T13:08:51Z</time>
      </trkpt>
      <trkpt lat="49.97949" lon="2.41208">
        <ele>95.8</ele>
        <time>2022-04-20T13:08:52Z</time>
      </trkpt>
      <trkpt lat="49.97949" lon="2.41205">
        <ele>95.8</ele>
        <time>2022-04-20T13:08:53Z</time>
      </trkpt>
      <trkpt lat="49.9795" lon="2.41204">
        <ele>95.8</ele>
        <time>2022-04-20T13:08:55Z</time>
      </trkpt>
      <trkpt lat="49.9795" lon="2.41203">
        <ele>95.8</ele>
        <time>2022-04-20T13:08:56Z</time>
      </trkpt>
      <trkpt lat="49.9795" lon="2.41201">
        <ele>95.7</ele>
        <time>2022-04-20T13:08:57Z</time>
      </trkpt>
      <trkpt lat="49.97951" lon="2.412">
        <ele>95.7</ele>
        <time>2022-04-20T13:08:58Z</time>
      </trkpt>
      <trkpt lat="49.97951" lon="2.41198">
        <ele>95.7</ele>
        <time>2022-04-20T13:08:59Z</time>
      </trkpt>
      <trkpt lat="49.97952" lon="2.41197">
        <ele>95.7</ele>
        <time>2022-04-20T13:09:00Z</time>
      </trkpt>
      <trkpt lat="49.97952" lon="2.41194">
        <ele>95.6</ele>
        <time>2022-04-20T13:09:02Z</time>
      </trkpt>
      <trkpt lat="49.97953" lon="2.41191">
        <ele>95.6</ele>
        <time>2022-04-20T13:09:04Z</time>
      </trkpt>
      <trkpt lat="49.97954" lon="2.4119">
        <ele>95.6</ele>
        <time>2022-04-20T13:09:05Z</time>
      </trkpt>
      <trkpt lat="49.97954" lon="2.41188">
        <ele>95.5</ele>
        <time>2022-04-20T13:09:06Z</time>
      </trkpt>
      <trkpt lat="49.97954" lon="2.41187">
        <ele>95.5</ele>
        <time>2022-04-20T13:09:07Z</time>
      </trkpt>
      <trkpt lat="49.97954" lon="2.41185">
        <ele>95.5</ele>
        <time>2022-04-20T13:09:08Z</time>
      </trkpt>
      <trkpt lat="49.97954" lon="2.41183">
        <ele>95.5</ele>
        <time>2022-04-20T13:09:09Z</time>
      </trkpt>
      <trkpt lat="49.97955" lon="2.41181">
        <ele>95.4</ele>
        <time>2022-04-20T13:09:10Z</time>
      </trkpt>
      <trkpt lat="49.97955" lon="2.41179">
        <ele>95.4</ele>
        <time>2022-04-20T13:09:12Z</time>
      </trkpt>
      <trkpt lat="49.97955" lon="2.41177">
        <ele>95.4</ele>
        <time>2022-04-20T13:09:13Z</time>
      </trkpt>
      <trkpt lat="49.97956" lon="2.41176">
        <ele>95.3</ele>
        <time>2022-04-20T13:09:14Z</time>
      </trkpt>
      <trkpt lat="49.97956" lon="2.41174">
        <ele>95.3</ele>
        <time>2022-04-20T13:09:15Z</time>
      </trkpt>
      <trkpt lat="49.97956" lon="2.41172">
        <ele>95.3</ele>
        <time>2022-04-20T13:09:16Z</time>
      </trkpt>
      <trkpt lat="49.97956" lon="2.41171">
        <ele>95.3</ele>
        <time>2022-04-20T13:09:17Z</time>
      </trkpt>
      <trkpt lat="49.97957" lon="2.41169">
        <ele>95.2</ele>
        <time>2022-04-20T13:09:18Z</time>
      </trkpt>
      <trkpt lat="49.97957" lon="2.41167">
        <ele>95.2</ele>
        <time>2022-04-20T13:09:19Z</time>
      </trkpt>
      <trkpt lat="49.97958" lon="2.41165">
        <ele>95.2</ele>
        <time>2022-04-20T13:09:20Z</time>
      </trkpt>
      <trkpt lat="49.97958" lon="2.41163">
        <ele>95.1</ele>
        <time>2022-04-20T13:09:22Z</time>
      </trkpt>
      <trkpt lat="49.97959" lon="2.41161">
        <ele>95.1</ele>
        <time>2022-04-20T13:09:23Z</time>
      </trkpt>
      <trkpt lat="49.97959" lon="2.41159">
        <ele>95</ele>
        <time>2022-04-20T13:09:24Z</time>
      </trkpt>
      <trkpt lat="49.9796" lon="2.41157">
        <ele>95</ele>
        <time>2022-04-20T13:09:25Z</time>
      </trkpt>
      <trkpt lat="49.9796" lon="2.41155">
        <ele>95</ele>
        <time>2022-04-20T13:09:26Z</time>
      </trkpt>
      <trkpt lat="49.97961" lon="2.41153">
        <ele>94.9</ele>
        <time>2022-04-20T13:09:27Z</time>
      </trkpt>
      <trkpt lat="49.97961" lon="2.41151">
        <ele>94.9</ele>
        <time>2022-04-20T13:09:28Z</time>
      </trkpt>
      <trkpt lat="49.97962" lon="2.41149">
        <ele>94.9</ele>
        <time>2022-04-20T13:09:29Z</time>
      </trkpt>
      <trkpt lat="49.97963" lon="2.41146">
        <ele>94.8</ele>
        <time>2022-04-20T13:09:30Z</time>
      </trkpt>
      <trkpt lat="49.97963" lon="2.41145">
        <ele>94.8</ele>
        <time>2022-04-20T13:09:32Z</time>
      </trkpt>
      <trkpt lat="49.97963" lon="2.41144">
        <ele>94.8</ele>
        <time>2022-04-20T13:09:33Z</time>
      </trkpt>
      <trkpt lat="49.97964" lon="2.41141">
        <ele>94.7</ele>
        <time>2022-04-20T13:09:34Z</time>
      </trkpt>
      <trkpt lat="49.97965" lon="2.4114">
        <ele>94.7</ele>
        <time>2022-04-20T13:09:35Z</time>
      </trkpt>
      <trkpt lat="49.97965" lon="2.41139">
        <ele>94.7</ele>
        <time>2022-04-20T13:09:36Z</time>
      </trkpt>
      <trkpt lat="49.97965" lon="2.41137">
        <ele>94.6</ele>
        <time>2022-04-20T13:09:37Z</time>
      </trkpt>
      <trkpt lat="49.97966" lon="2.41135">
        <ele>94.6</ele>
        <time>2022-04-20T13:09:38Z</time>
      </trkpt>
      <trkpt lat="49.97966" lon="2.41134">
        <ele>94.6</ele>
        <time>2022-04-20T13:09:40Z</time>
      </trkpt>
      <trkpt lat="49.97967" lon="2.41132">
        <ele>94.6</ele>
        <time>2022-04-20T13:09:41Z</time>
      </trkpt>
      <trkpt lat="49.97967" lon="2.41131">
        <ele>94.5</ele>
        <time>2022-04-20T13:09:42Z</time>
      </trkpt>
      <trkpt lat="49.97967" lon="2.41129">
        <ele>94.5</ele>
        <time>2022-04-20T13:09:43Z</time>
      </trkpt>
      <trkpt lat="49.97968" lon="2.41128">
        <ele>94.5</ele>
        <time>2022-04-20T13:09:44Z</time>
      </trkpt>
      <trkpt lat="49.97968" lon="2.41126">
        <ele>94.5</ele>
        <time>2022-04-20T13:09:45Z</time>
      </trkpt>
      <trkpt lat="49.97969" lon="2.41125">
        <ele>94.4</ele>
        <time>2022-04-20T13:09:46Z</time>
      </trkpt>
      <trkpt lat="49.97969" lon="2.41123">
        <ele>94.4</ele>
        <time>2022-04-20T13:09:48Z</time>
      </trkpt>
      <trkpt lat="49.9797" lon="2.41122">
        <ele>94.4</ele>
        <time>2022-04-20T13:09:49Z</time>
      </trkpt>
      <trkpt lat="49.9797" lon="2.41121">
        <ele>94.4</ele>
        <time>2022-04-20T13:09:50Z</time>
      </trkpt>
      <trkpt lat="49.97971" lon="2.4112">
        <ele>94.4</ele>
        <time>2022-04-20T13:09:51Z</time>
      </trkpt>
      <trkpt lat="49.97971" lon="2.41119">
        <ele>94.4</ele>
        <time>2022-04-20T13:09:52Z</time>
      </trkpt>
      <trkpt lat="49.97972" lon="2.41118">
        <ele>94.3</ele>
        <time>2022-04-20T13:09:53Z</time>
      </trkpt>
      <trkpt lat="49.97973" lon="2.41117">
        <ele>94.3</ele>
        <time>2022-04-20T13:09:54Z</time>
      </trkpt>
      <trkpt lat="49.97973" lon="2.41116">
        <ele>94.3</ele>
        <time>2022-04-20T13:09:55Z</time>
      </trkpt>
      <trkpt lat="49.97972" lon="2.41116">
        <ele>94.3</ele>
        <time>2022-04-20T13:09:56Z</time>
      </trkpt>
      <trkpt lat="49.97972" lon="2.41116">
        <ele>94.3</ele>
        <time>2022-04-20T13:09:57Z</time>
      </trkpt>
      <trkpt lat="49.97972" lon="2.41116">
        <ele>94.3</ele>
        <time>2022-04-20T13:09:58Z</time>
      </trkpt>
      <trkpt lat="49.97972" lon="2.41116">
        <ele>94.3</ele>
        <time>2022-04-20T13:09:59Z</time>
      </trkpt>
      <trkpt lat="49.97972" lon="2.41116">
        <ele>94.3</ele>
        <time>2022-04-20T13:10:00Z</time>
      </trkpt>
      <trkpt lat="49.97972" lon="2.41116">
        <ele>94.3</ele>
        <time>2022-04-20T13:10:01Z</time>
      </trkpt>
      <trkpt lat="49.97971" lon="2.41116">
        <ele>94.3</ele>
        <time>2022-04-20T13:10:02Z</time>
      </trkpt>
      <trkpt lat="49.97971" lon="2.41116">
        <ele>94.3</ele>
        <time>2022-04-20T13:10:03Z</time>
      </trkpt>
      <trkpt lat="49.97971" lon="2.41116">
        <ele>94.3</ele>
        <time>2022-04-20T13:10:04Z</time>
      </trkpt>
      <trkpt lat="49.97971" lon="2.41116">
        <ele>94.3</ele>
        <time>2022-04-20T13:10:05Z</time>
      </trkpt>
      <trkpt lat="49.97971" lon="2.41116">
        <ele>94.3</ele>
        <time>2022-04-20T13:10:06Z</time>
      </trkpt>
      <trkpt lat="49.97971" lon="2.41116">
        <ele>94.3</ele>
        <time>2022-04-20T13:10:07Z</time>
      </trkpt>
      <trkpt lat="49.97971" lon="2.41116">
        <ele>94.3</ele>
        <time>2022-04-20T13:10:08Z</time>
      </trkpt>
      <trkpt lat="49.97971" lon="2.41116">
        <ele>94.3</ele>
        <time>2022-04-20T13:10:09Z</time>
      </trkpt>
      <trkpt lat="49.97971" lon="2.41116">
        <ele>94.3</ele>
        <time>2022-04-20T13:10:10Z</time>
      </trkpt>
      <trkpt lat="49.97971" lon="2.41116">
        <ele>94.3</ele>
        <time>2022-04-20T13:10:11Z</time>
      </trkpt>
      <trkpt lat="49.97971" lon="2.41116">
        <ele>94.3</ele>
        <time>2022-04-20T13:10:12Z</time>
      </trkpt>
      <trkpt lat="49.97971" lon="2.41116">
        <ele>94.3</ele>
        <time>2022-04-20T13:10:13Z</time>
      </trkpt>
      <trkpt lat="49.97971" lon="2.41117">
        <ele>94.3</ele>
        <time>2022-04-20T13:10:14Z</time>
      </trkpt>
      <trkpt lat="49.97971" lon="2.41117">
        <ele>94.3</ele>
        <time>2022-04-20T13:10:15Z</time>
      </trkpt>
      <trkpt lat="49.97971" lon="2.41117">
        <ele>94.3</ele>
        <time>2022-04-20T13:10:16Z</time>
      </trkpt>
      <trkpt lat="49.97971" lon="2.41118">
        <ele>94.3</ele>
        <time>2022-04-20T13:10:17Z</time>
      </trkpt>
      <trkpt lat="49.97971" lon="2.41118">
        <ele>94.3</ele>
        <time>2022-04-20T13:10:18Z</time>
      </trkpt>
      <trkpt lat="49.97971" lon="2.41118">
        <ele>94.3</ele>
        <time>2022-04-20T13:10:19Z</time>
      </trkpt>
      <trkpt lat="49.97971" lon="2.41118">
        <ele>94.3</ele>
        <time>2022-04-20T13:10:20Z</time>
      </trkpt>
      <trkpt lat="49.97971" lon="2.41118">
        <ele>94.3</ele>
        <time>2022-04-20T13:10:21Z</time>
      </trkpt>
      <trkpt lat="49.97971" lon="2.41118">
        <ele>94.3</ele>
        <time>2022-04-20T13:10:22Z</time>
      </trkpt>
      <trkpt lat="49.97971" lon="2.41118">
        <ele>94.3</ele>
        <time>2022-04-20T13:10:23Z</time>
      </trkpt>
      <trkpt lat="49.97971" lon="2.41118">
        <ele>94.3</ele>
        <time>2022-04-20T13:10:24Z</time>
      </trkpt>
      <trkpt lat="49.97971" lon="2.41118">
        <ele>94.3</ele>
        <time>2022-04-20T13:10:25Z</time>
      </trkpt>
      <trkpt lat="49.97971" lon="2.41118">
        <ele>94.3</ele>
        <time>2022-04-20T13:10:26Z</time>
      </trkpt>
      <trkpt lat="49.97971" lon="2.41118">
        <ele>94.3</ele>
        <time>2022-04-20T13:10:27Z</time>
      </trkpt>
      <trkpt lat="49.97971" lon="2.41118">
        <ele>94.3</ele>
        <time>2022-04-20T13:10:28Z</time>
      </trkpt>
      <trkpt lat="49.97971" lon="2.41118">
        <ele>94.3</ele>
        <time>2022-04-20T13:10:29Z</time>
      </trkpt>
      <trkpt lat="49.97971" lon="2.41118">
        <ele>94.3</ele>
        <time>2022-04-20T13:10:30Z</time>
      </trkpt>
      <trkpt lat="49.97971" lon="2.41118">
        <ele>94.3</ele>
        <time>2022-04-20T13:10:31Z</time>
      </trkpt>
      <trkpt lat="49.97971" lon="2.41118">
        <ele>94.3</ele>
        <time>2022-04-20T13:10:32Z</time>
      </trkpt>
      <trkpt lat="49.97971" lon="2.41118">
        <ele>94.3</ele>
        <time>2022-04-20T13:10:33Z</time>
      </trkpt>
      <trkpt lat="49.97971" lon="2.41118">
        <ele>94.3</ele>
        <time>2022-04-20T13:10:34Z</time>
      </trkpt>
      <trkpt lat="49.97971" lon="2.41118">
        <ele>94.3</ele>
        <time>2022-04-20T13:10:35Z</time>
      </trkpt>
      <trkpt lat="49.97971" lon="2.41118">
        <ele>94.3</ele>
        <time>2022-04-20T13:10:36Z</time>
      </trkpt>
      <trkpt lat="49.97971" lon="2.41118">
        <ele>94.3</ele>
        <time>2022-04-20T13:10:37Z</time>
      </trkpt>
      <trkpt lat="49.97971" lon="2.41118">
        <ele>94.3</ele>
        <time>2022-04-20T13:10:38Z</time>
      </trkpt>
      <trkpt lat="49.97971" lon="2.41118">
        <ele>94.3</ele>
        <time>2022-04-20T13:10:39Z</time>
      </trkpt>
      <trkpt lat="49.97971" lon="2.41118">
        <ele>94.3</ele>
        <time>2022-04-20T13:10:40Z</time>
      </trkpt>
      <trkpt lat="49.97971" lon="2.41118">
        <ele>94.3</ele>
        <time>2022-04-20T13:10:41Z</time>
      </trkpt>
      <trkpt lat="49.97971" lon="2.41118">
        <ele>94.3</ele>
        <time>2022-04-20T13:10:42Z</time>
      </trkpt>
      <trkpt lat="49.97971" lon="2.41118">
        <ele>94.3</ele>
        <time>2022-04-20T13:10:43Z</time>
      </trkpt>
      <trkpt lat="49.97971" lon="2.41118">
        <ele>94.3</ele>
        <time>2022-04-20T13:10:44Z</time>
      </trkpt>
      <trkpt lat="49.97971" lon="2.41118">
        <ele>94.3</ele>
        <time>2022-04-20T13:10:45Z</time>
      </trkpt>
      <trkpt lat="49.97971" lon="2.41118">
        <ele>94.2</ele>
        <time>2022-04-20T13:10:46Z</time>
      </trkpt>
      <trkpt lat="49.97971" lon="2.41118">
        <ele>94.2</ele>
        <time>2022-04-20T13:10:47Z</time>
      </trkpt>
      <trkpt lat="49.97971" lon="2.41118">
        <ele>94.2</ele>
        <time>2022-04-20T13:10:48Z</time>
      </trkpt>
      <trkpt lat="49.97971" lon="2.41118">
        <ele>94.2</ele>
        <time>2022-04-20T13:10:49Z</time>
      </trkpt>
      <trkpt lat="49.97971" lon="2.41118">
        <ele>94.2</ele>
        <time>2022-04-20T13:10:50Z</time>
      </trkpt>
      <trkpt lat="49.97971" lon="2.41118">
        <ele>94.2</ele>
        <time>2022-04-20T13:10:51Z</time>
      </trkpt>
      <trkpt lat="49.97971" lon="2.41118">
        <ele>94.2</ele>
        <time>2022-04-20T13:10:52Z</time>
      </trkpt>
      <trkpt lat="49.97971" lon="2.41118">
        <ele>94.2</ele>
        <time>2022-04-20T13:10:53Z</time>
      </trkpt>
      <trkpt lat="49.97971" lon="2.41118">
        <ele>94.2</ele>
        <time>2022-04-20T13:10:54Z</time>
      </trkpt>
      <trkpt lat="49.97971" lon="2.41118">
        <ele>94.2</ele>
        <time>2022-04-20T13:10:55Z</time>
      </trkpt>
      <trkpt lat="49.97971" lon="2.41118">
        <ele>94.2</ele>
        <time>2022-04-20T13:10:56Z</time>
      </trkpt>
      <trkpt lat="49.97971" lon="2.41118">
        <ele>94.2</ele>
        <time>2022-04-20T13:10:57Z</time>
      </trkpt>
      <trkpt lat="49.97971" lon="2.41118">
        <ele>94.2</ele>
        <time>2022-04-20T13:10:58Z</time>
      </trkpt>
      <trkpt lat="49.97971" lon="2.41118">
        <ele>94.2</ele>
        <time>2022-04-20T13:10:59Z</time>
      </trkpt>
      <trkpt lat="49.97971" lon="2.41118">
        <ele>94.2</ele>
        <time>2022-04-20T13:11:00Z</time>
      </trkpt>
      <trkpt lat="49.97971" lon="2.41118">
        <ele>94.2</ele>
        <time>2022-04-20T13:11:01Z</time>
      </trkpt>
      <trkpt lat="49.97971" lon="2.41118">
        <ele>94.2</ele>
        <time>2022-04-20T13:11:02Z</time>
      </trkpt>
      <trkpt lat="49.97971" lon="2.41118">
        <ele>94.2</ele>
        <time>2022-04-20T13:11:03Z</time>
      </trkpt>
      <trkpt lat="49.97971" lon="2.41118">
        <ele>94.2</ele>
        <time>2022-04-20T13:11:04Z</time>
      </trkpt>
      <trkpt lat="49.97971" lon="2.41118">
        <ele>94.2</ele>
        <time>2022-04-20T13:11:05Z</time>
      </trkpt>
      <trkpt lat="49.97971" lon="2.41118">
        <ele>94.2</ele>
        <time>2022-04-20T13:11:06Z</time>
      </trkpt>
      <trkpt lat="49.97971" lon="2.41118">
        <ele>94.2</ele>
        <time>2022-04-20T13:11:07Z</time>
      </trkpt>
      <trkpt lat="49.97971" lon="2.41118">
        <ele>94.2</ele>
        <time>2022-04-20T13:11:08Z</time>
      </trkpt>
      <trkpt lat="49.97971" lon="2.41118">
        <ele>94.2</ele>
        <time>2022-04-20T13:11:09Z</time>
      </trkpt>
      <trkpt lat="49.97971" lon="2.41118">
        <ele>94.2</ele>
        <time>2022-04-20T13:11:10Z</time>
      </trkpt>
      <trkpt lat="49.97971" lon="2.41118">
        <ele>94.2</ele>
        <time>2022-04-20T13:11:11Z</time>
      </trkpt>
      <trkpt lat="49.97971" lon="2.41118">
        <ele>94.2</ele>
        <time>2022-04-20T13:11:12Z</time>
      </trkpt>
      <trkpt lat="49.97971" lon="2.41118">
        <ele>94.2</ele>
        <time>2022-04-20T13:11:13Z</time>
      </trkpt>
      <trkpt lat="49.97971" lon="2.41118">
        <ele>94.2</ele>
        <time>2022-04-20T13:11:14Z</time>
      </trkpt>
      <trkpt lat="49.97971" lon="2.41118">
        <ele>94.2</ele>
        <time>2022-04-20T13:11:15Z</time>
      </trkpt>
      <trkpt lat="49.97971" lon="2.41118">
        <ele>94.2</ele>
        <time>2022-04-20T13:11:16Z</time>
      </trkpt>
      <trkpt lat="49.97971" lon="2.41118">
        <ele>94.2</ele>
        <time>2022-04-20T13:11:17Z</time>
      </trkpt>
      <trkpt lat="49.97971" lon="2.41118">
        <ele>94.2</ele>
        <time>2022-04-20T13:11:18Z</time>
      </trkpt>
      <trkpt lat="49.97971" lon="2.41118">
        <ele>94.2</ele>
        <time>2022-04-20T13:11:19Z</time>
      </trkpt>
      <trkpt lat="49.97971" lon="2.41118">
        <ele>94.2</ele>
        <time>2022-04-20T13:11:20Z</time>
      </trkpt>
      <trkpt lat="49.97971" lon="2.41118">
        <ele>94.2</ele>
        <time>2022-04-20T13:11:21Z</time>
      </trkpt>
      <trkpt lat="49.97971" lon="2.41118">
        <ele>94.2</ele>
        <time>2022-04-20T13:11:22Z</time>
      </trkpt>
      <trkpt lat="49.97971" lon="2.41118">
        <ele>94.2</ele>
        <time>2022-04-20T13:11:23Z</time>
      </trkpt>
      <trkpt lat="49.97971" lon="2.41118">
        <ele>94.2</ele>
        <time>2022-04-20T13:11:24Z</time>
      </trkpt>
      <trkpt lat="49.97971" lon="2.41118">
        <ele>94.2</ele>
        <time>2022-04-20T13:11:25Z</time>
      </trkpt>
      <trkpt lat="49.97971" lon="2.41118">
        <ele>94.2</ele>
        <time>2022-04-20T13:11:26Z</time>
      </trkpt>
      <trkpt lat="49.97971" lon="2.41118">
        <ele>94.2</ele>
        <time>2022-04-20T13:11:27Z</time>
      </trkpt>
      <trkpt lat="49.97971" lon="2.41118">
        <ele>94.2</ele>
        <time>2022-04-20T13:11:28Z</time>
      </trkpt>
      <trkpt lat="49.97971" lon="2.41118">
        <ele>94.2</ele>
        <time>2022-04-20T13:11:29Z</time>
      </trkpt>
      <trkpt lat="49.97971" lon="2.41118">
        <ele>94.2</ele>
        <time>2022-04-20T13:11:30Z</time>
      </trkpt>
      <trkpt lat="49.97971" lon="2.41118">
        <ele>94.2</ele>
        <time>2022-04-20T13:11:31Z</time>
      </trkpt>
      <trkpt lat="49.97971" lon="2.41118">
        <ele>94.2</ele>
        <time>2022-04-20T13:11:32Z</time>
      </trkpt>
      <trkpt lat="49.97971" lon="2.41118">
        <ele>94.2</ele>
        <time>2022-04-20T13:11:33Z</time>
      </trkpt>
      <trkpt lat="49.97971" lon="2.41118">
        <ele>94.2</ele>
        <time>2022-04-20T13:11:34Z</time>
      </trkpt>
      <trkpt lat="49.97971" lon="2.41118">
        <ele>94.2</ele>
        <time>2022-04-20T13:11:35Z</time>
      </trkpt>
      <trkpt lat="49.97971" lon="2.41118">
        <ele>94.2</ele>
        <time>2022-04-20T13:11:36Z</time>
      </trkpt>
      <trkpt lat="49.97971" lon="2.41118">
        <ele>94.2</ele>
        <time>2022-04-20T13:11:37Z</time>
      </trkpt>
      <trkpt lat="49.97971" lon="2.41118">
        <ele>94.2</ele>
        <time>2022-04-20T13:11:38Z</time>
      </trkpt>
      <trkpt lat="49.97971" lon="2.41118">
        <ele>94.2</ele>
        <time>2022-04-20T13:11:39Z</time>
      </trkpt>
      <trkpt lat="49.97971" lon="2.41118">
        <ele>94.2</ele>
        <time>2022-04-20T13:11:40Z</time>
      </trkpt>
      <trkpt lat="49.97971" lon="2.41118">
        <ele>94.2</ele>
        <time>2022-04-20T13:11:41Z</time>
      </trkpt>
      <trkpt lat="49.97971" lon="2.41118">
        <ele>94.2</ele>
        <time>2022-04-20T13:11:42Z</time>
      </trkpt>
      <trkpt lat="49.97971" lon="2.41118">
        <ele>94.2</ele>
        <time>2022-04-20T13:11:43Z</time>
      </trkpt>
      <trkpt lat="49.97971" lon="2.41118">
        <ele>94.2</ele>
        <time>2022-04-20T13:11:44Z</time>
      </trkpt>
      <trkpt lat="49.97971" lon="2.41121">
        <ele>94.2</ele>
        <time>2022-04-20T13:11:45Z</time>
      </trkpt>
      <trkpt lat="49.97971" lon="2.41119">
        <ele>94.2</ele>
        <time>2022-04-20T13:11:46Z</time>
      </trkpt>
      <trkpt lat="49.97971" lon="2.41119">
        <ele>94.2</ele>
        <time>2022-04-20T13:11:47Z</time>
      </trkpt>
      <trkpt lat="49.97971" lon="2.4112">
        <ele>94.2</ele>
        <time>2022-04-20T13:11:49Z</time>
      </trkpt>
      <trkpt lat="49.97972" lon="2.4112">
        <ele>94.2</ele>
        <time>2022-04-20T13:11:50Z</time>
      </trkpt>
      <trkpt lat="49.97973" lon="2.4112">
        <ele>94.2</ele>
        <time>2022-04-20T13:11:51Z</time>
      </trkpt>
      <trkpt lat="49.97973" lon="2.4112">
        <ele>94.1</ele>
        <time>2022-04-20T13:11:52Z</time>
      </trkpt>
      <trkpt lat="49.97974" lon="2.4112">
        <ele>94.1</ele>
        <time>2022-04-20T13:11:53Z</time>
      </trkpt>
      <trkpt lat="49.97975" lon="2.41119">
        <ele>94.1</ele>
        <time>2022-04-20T13:11:54Z</time>
      </trkpt>
      <trkpt lat="49.97976" lon="2.41118">
        <ele>94.1</ele>
        <time>2022-04-20T13:11:55Z</time>
      </trkpt>
      <trkpt lat="49.97977" lon="2.41117">
        <ele>94.1</ele>
        <time>2022-04-20T13:11:56Z</time>
      </trkpt>
      <trkpt lat="49.97978" lon="2.41116">
        <ele>94.1</ele>
        <time>2022-04-20T13:11:58Z</time>
      </trkpt>
      <trkpt lat="49.97979" lon="2.41115">
        <ele>94.1</ele>
        <time>2022-04-20T13:11:59Z</time>
      </trkpt>
      <trkpt lat="49.9798" lon="2.41113">
        <ele>94</ele>
        <time>2022-04-20T13:12:00Z</time>
      </trkpt>
      <trkpt lat="49.97981" lon="2.41111">
        <ele>94</ele>
        <time>2022-04-20T13:12:01Z</time>
      </trkpt>
      <trkpt lat="49.97982" lon="2.41109">
        <ele>94</ele>
        <time>2022-04-20T13:12:02Z</time>
      </trkpt>
      <trkpt lat="49.97983" lon="2.41107">
        <ele>94</ele>
        <time>2022-04-20T13:12:03Z</time>
      </trkpt>
      <trkpt lat="49.97984" lon="2.41103">
        <ele>94</ele>
        <time>2022-04-20T13:12:04Z</time>
      </trkpt>
      <trkpt lat="49.97985" lon="2.41101">
        <ele>93.9</ele>
        <time>2022-04-20T13:12:06Z</time>
      </trkpt>
      <trkpt lat="49.97985" lon="2.41099">
        <ele>93.9</ele>
        <time>2022-04-20T13:12:07Z</time>
      </trkpt>
      <trkpt lat="49.97986" lon="2.41098">
        <ele>93.9</ele>
        <time>2022-04-20T13:12:08Z</time>
      </trkpt>
      <trkpt lat="49.97986" lon="2.41096">
        <ele>93.9</ele>
        <time>2022-04-20T13:12:09Z</time>
      </trkpt>
      <trkpt lat="49.97987" lon="2.41093">
        <ele>93.9</ele>
        <time>2022-04-20T13:12:10Z</time>
      </trkpt>
      <trkpt lat="49.97987" lon="2.41092">
        <ele>93.9</ele>
        <time>2022-04-20T13:12:12Z</time>
      </trkpt>
      <trkpt lat="49.97988" lon="2.4109">
        <ele>93.9</ele>
        <time>2022-04-20T13:12:13Z</time>
      </trkpt>
      <trkpt lat="49.97988" lon="2.41089">
        <ele>93.9</ele>
        <time>2022-04-20T13:12:14Z</time>
      </trkpt>
      <trkpt lat="49.97989" lon="2.41087">
        <ele>93.9</ele>
        <time>2022-04-20T13:12:15Z</time>
      </trkpt>
      <trkpt lat="49.97989" lon="2.41085">
        <ele>93.8</ele>
        <time>2022-04-20T13:12:17Z</time>
      </trkpt>
      <trkpt lat="49.9799" lon="2.41082">
        <ele>93.8</ele>
        <time>2022-04-20T13:12:19Z</time>
      </trkpt>
      <trkpt lat="49.97991" lon="2.4108">
        <ele>93.8</ele>
        <time>2022-04-20T13:12:20Z</time>
      </trkpt>
      <trkpt lat="49.97991" lon="2.41078">
        <ele>93.8</ele>
        <time>2022-04-20T13:12:21Z</time>
      </trkpt>
      <trkpt lat="49.97991" lon="2.41077">
        <ele>93.8</ele>
        <time>2022-04-20T13:12:22Z</time>
      </trkpt>
      <trkpt lat="49.97991" lon="2.41074">
        <ele>93.8</ele>
        <time>2022-04-20T13:12:24Z</time>
      </trkpt>
      <trkpt lat="49.97989" lon="2.4107">
        <ele>93.8</ele>
        <time>2022-04-20T13:12:25Z</time>
      </trkpt>
      <trkpt lat="49.97989" lon="2.41069">
        <ele>93.8</ele>
        <time>2022-04-20T13:12:26Z</time>
      </trkpt>
      <trkpt lat="49.97989" lon="2.41068">
        <ele>93.8</ele>
        <time>2022-04-20T13:12:27Z</time>
      </trkpt>
      <trkpt lat="49.97989" lon="2.41065">
        <ele>93.8</ele>
        <time>2022-04-20T13:12:29Z</time>
      </trkpt>
      <trkpt lat="49.97989" lon="2.41064">
        <ele>93.8</ele>
        <time>2022-04-20T13:12:30Z</time>
      </trkpt>
      <trkpt lat="49.9799" lon="2.41062">
        <ele>93.8</ele>
        <time>2022-04-20T13:12:31Z</time>
      </trkpt>
      <trkpt lat="49.9799" lon="2.41061">
        <ele>93.8</ele>
        <time>2022-04-20T13:12:32Z</time>
      </trkpt>
      <trkpt lat="49.97991" lon="2.4106">
        <ele>93.8</ele>
        <time>2022-04-20T13:12:33Z</time>
      </trkpt>
      <trkpt lat="49.97992" lon="2.41058">
        <ele>93.8</ele>
        <time>2022-04-20T13:12:34Z</time>
      </trkpt>
      <trkpt lat="49.97992" lon="2.41056">
        <ele>93.8</ele>
        <time>2022-04-20T13:12:36Z</time>
      </trkpt>
      <trkpt lat="49.97992" lon="2.41055">
        <ele>93.8</ele>
        <time>2022-04-20T13:12:37Z</time>
      </trkpt>
      <trkpt lat="49.97992" lon="2.41053">
        <ele>93.8</ele>
        <time>2022-04-20T13:12:38Z</time>
      </trkpt>
      <trkpt lat="49.97993" lon="2.41052">
        <ele>93.8</ele>
        <time>2022-04-20T13:12:39Z</time>
      </trkpt>
      <trkpt lat="49.97993" lon="2.41051">
        <ele>93.8</ele>
        <time>2022-04-20T13:12:40Z</time>
      </trkpt>
      <trkpt lat="49.97994" lon="2.41049">
        <ele>93.8</ele>
        <time>2022-04-20T13:12:41Z</time>
      </trkpt>
      <trkpt lat="49.97994" lon="2.41048">
        <ele>93.8</ele>
        <time>2022-04-20T13:12:42Z</time>
      </trkpt>
      <trkpt lat="49.97995" lon="2.41046">
        <ele>93.8</ele>
        <time>2022-04-20T13:12:43Z</time>
      </trkpt>
      <trkpt lat="49.97995" lon="2.41045">
        <ele>93.8</ele>
        <time>2022-04-20T13:12:44Z</time>
      </trkpt>
      <trkpt lat="49.97996" lon="2.41043">
        <ele>93.8</ele>
        <time>2022-04-20T13:12:45Z</time>
      </trkpt>
      <trkpt lat="49.97996" lon="2.41042">
        <ele>93.8</ele>
        <time>2022-04-20T13:12:46Z</time>
      </trkpt>
      <trkpt lat="49.97995" lon="2.4104">
        <ele>93.8</ele>
        <time>2022-04-20T13:12:47Z</time>
      </trkpt>
      <trkpt lat="49.97995" lon="2.41038">
        <ele>93.8</ele>
        <time>2022-04-20T13:12:48Z</time>
      </trkpt>
      <trkpt lat="49.97995" lon="2.41037">
        <ele>93.8</ele>
        <time>2022-04-20T13:12:49Z</time>
      </trkpt>
      <trkpt lat="49.97995" lon="2.41035">
        <ele>93.8</ele>
        <time>2022-04-20T13:12:51Z</time>
      </trkpt>
      <trkpt lat="49.97996" lon="2.41033">
        <ele>93.8</ele>
        <time>2022-04-20T13:12:52Z</time>
      </trkpt>
      <trkpt lat="49.97996" lon="2.41031">
        <ele>93.8</ele>
        <time>2022-04-20T13:12:53Z</time>
      </trkpt>
      <trkpt lat="49.97996" lon="2.41029">
        <ele>93.8</ele>
        <time>2022-04-20T13:12:54Z</time>
      </trkpt>
      <trkpt lat="49.97997" lon="2.41027">
        <ele>93.8</ele>
        <time>2022-04-20T13:12:56Z</time>
      </trkpt>
      <trkpt lat="49.97997" lon="2.41025">
        <ele>93.8</ele>
        <time>2022-04-20T13:12:57Z</time>
      </trkpt>
      <trkpt lat="49.97998" lon="2.41023">
        <ele>93.8</ele>
        <time>2022-04-20T13:12:58Z</time>
      </trkpt>
      <trkpt lat="49.97999" lon="2.41022">
        <ele>93.8</ele>
        <time>2022-04-20T13:12:59Z</time>
      </trkpt>
      <trkpt lat="49.98" lon="2.4102">
        <ele>93.8</ele>
        <time>2022-04-20T13:13:00Z</time>
      </trkpt>
      <trkpt lat="49.98001" lon="2.41018">
        <ele>93.8</ele>
        <time>2022-04-20T13:13:02Z</time>
      </trkpt>
      <trkpt lat="49.98002" lon="2.41016">
        <ele>93.8</ele>
        <time>2022-04-20T13:13:03Z</time>
      </trkpt>
      <trkpt lat="49.98002" lon="2.41015">
        <ele>93.8</ele>
        <time>2022-04-20T13:13:04Z</time>
      </trkpt>
      <trkpt lat="49.98003" lon="2.41013">
        <ele>93.9</ele>
        <time>2022-04-20T13:13:05Z</time>
      </trkpt>
      <trkpt lat="49.98004" lon="2.41012">
        <ele>93.9</ele>
        <time>2022-04-20T13:13:06Z</time>
      </trkpt>
      <trkpt lat="49.98005" lon="2.4101">
        <ele>93.9</ele>
        <time>2022-04-20T13:13:07Z</time>
      </trkpt>
      <trkpt lat="49.98005" lon="2.41009">
        <ele>93.9</ele>
        <time>2022-04-20T13:13:08Z</time>
      </trkpt>
      <trkpt lat="49.98006" lon="2.41008">
        <ele>93.9</ele>
        <time>2022-04-20T13:13:09Z</time>
      </trkpt>
      <trkpt lat="49.98007" lon="2.41006">
        <ele>93.9</ele>
        <time>2022-04-20T13:13:10Z</time>
      </trkpt>
      <trkpt lat="49.98008" lon="2.41004">
        <ele>93.9</ele>
        <time>2022-04-20T13:13:11Z</time>
      </trkpt>
      <trkpt lat="49.98009" lon="2.41002">
        <ele>94</ele>
        <time>2022-04-20T13:13:12Z</time>
      </trkpt>
      <trkpt lat="49.9801" lon="2.41001">
        <ele>94</ele>
        <time>2022-04-20T13:13:14Z</time>
      </trkpt>
      <trkpt lat="49.98011" lon="2.40999">
        <ele>94</ele>
        <time>2022-04-20T13:13:15Z</time>
      </trkpt>
      <trkpt lat="49.98012" lon="2.40998">
        <ele>94</ele>
        <time>2022-04-20T13:13:16Z</time>
      </trkpt>
      <trkpt lat="49.98013" lon="2.40998">
        <ele>94</ele>
        <time>2022-04-20T13:13:17Z</time>
      </trkpt>
      <trkpt lat="49.98013" lon="2.40998">
        <ele>94</ele>
        <time>2022-04-20T13:13:18Z</time>
      </trkpt>
      <trkpt lat="49.98014" lon="2.40997">
        <ele>94</ele>
        <time>2022-04-20T13:13:19Z</time>
      </trkpt>
      <trkpt lat="49.98015" lon="2.40996">
        <ele>94</ele>
        <time>2022-04-20T13:13:20Z</time>
      </trkpt>
      <trkpt lat="49.98017" lon="2.40994">
        <ele>94.1</ele>
        <time>2022-04-20T13:13:22Z</time>
      </trkpt>
      <trkpt lat="49.98018" lon="2.40993">
        <ele>94.1</ele>
        <time>2022-04-20T13:13:23Z</time>
      </trkpt>
      <trkpt lat="49.98018" lon="2.40992">
        <ele>94.1</ele>
        <time>2022-04-20T13:13:24Z</time>
      </trkpt>
      <trkpt lat="49.98019" lon="2.40991">
        <ele>94.1</ele>
        <time>2022-04-20T13:13:25Z</time>
      </trkpt>
      <trkpt lat="49.9802" lon="2.40989">
        <ele>94.1</ele>
        <time>2022-04-20T13:13:26Z</time>
      </trkpt>
      <trkpt lat="49.98021" lon="2.40987">
        <ele>94.1</ele>
        <time>2022-04-20T13:13:28Z</time>
      </trkpt>
      <trkpt lat="49.9802" lon="2.40985">
        <ele>94.1</ele>
        <time>2022-04-20T13:13:29Z</time>
      </trkpt>
      <trkpt lat="49.98021" lon="2.40984">
        <ele>94.1</ele>
        <time>2022-04-20T13:13:30Z</time>
      </trkpt>
      <trkpt lat="49.98021" lon="2.40982">
        <ele>94.1</ele>
        <time>2022-04-20T13:13:31Z</time>
      </trkpt>
      <trkpt lat="49.98022" lon="2.40981">
        <ele>94.2</ele>
        <time>2022-04-20T13:13:32Z</time>
      </trkpt>
      <trkpt lat="49.98023" lon="2.40979">
        <ele>94.2</ele>
        <time>2022-04-20T13:13:33Z</time>
      </trkpt>
      <trkpt lat="49.98024" lon="2.40978">
        <ele>94.2</ele>
        <time>2022-04-20T13:13:34Z</time>
      </trkpt>
      <trkpt lat="49.98024" lon="2.40977">
        <ele>94.2</ele>
        <time>2022-04-20T13:13:35Z</time>
      </trkpt>
      <trkpt lat="49.98025" lon="2.40975">
        <ele>94.2</ele>
        <time>2022-04-20T13:13:36Z</time>
      </trkpt>
      <trkpt lat="49.98026" lon="2.40974">
        <ele>94.2</ele>
        <time>2022-04-20T13:13:37Z</time>
      </trkpt>
      <trkpt lat="49.98027" lon="2.40973">
        <ele>94.2</ele>
        <time>2022-04-20T13:13:38Z</time>
      </trkpt>
      <trkpt lat="49.98027" lon="2.40971">
        <ele>94.2</ele>
        <time>2022-04-20T13:13:39Z</time>
      </trkpt>
      <trkpt lat="49.98028" lon="2.4097">
        <ele>94.2</ele>
        <time>2022-04-20T13:13:40Z</time>
      </trkpt>
      <trkpt lat="49.98029" lon="2.40969">
        <ele>94.2</ele>
        <time>2022-04-20T13:13:41Z</time>
      </trkpt>
      <trkpt lat="49.98029" lon="2.40968">
        <ele>94.2</ele>
        <time>2022-04-20T13:13:42Z</time>
      </trkpt>
      <trkpt lat="49.98028" lon="2.40968">
        <ele>94.2</ele>
        <time>2022-04-20T13:13:43Z</time>
      </trkpt>
      <trkpt lat="49.98027" lon="2.40969">
        <ele>94.3</ele>
        <time>2022-04-20T13:13:44Z</time>
      </trkpt>
      <trkpt lat="49.98027" lon="2.40969">
        <ele>94.3</ele>
        <time>2022-04-20T13:13:45Z</time>
      </trkpt>
      <trkpt lat="49.98028" lon="2.40968">
        <ele>94.3</ele>
        <time>2022-04-20T13:13:46Z</time>
      </trkpt>
      <trkpt lat="49.98029" lon="2.40968">
        <ele>94.3</ele>
        <time>2022-04-20T13:13:48Z</time>
      </trkpt>
      <trkpt lat="49.9803" lon="2.40967">
        <ele>94.3</ele>
        <time>2022-04-20T13:13:49Z</time>
      </trkpt>
      <trkpt lat="49.98031" lon="2.40966">
        <ele>94.3</ele>
        <time>2022-04-20T13:13:50Z</time>
      </trkpt>
      <trkpt lat="49.98031" lon="2.40966">
        <ele>94.3</ele>
        <time>2022-04-20T13:13:51Z</time>
      </trkpt>
      <trkpt lat="49.98032" lon="2.40964">
        <ele>94.3</ele>
        <time>2022-04-20T13:13:52Z</time>
      </trkpt>
      <trkpt lat="49.98033" lon="2.40963">
        <ele>94.3</ele>
        <time>2022-04-20T13:13:54Z</time>
      </trkpt>
      <trkpt lat="49.98034" lon="2.40963">
        <ele>94.3</ele>
        <time>2022-04-20T13:13:55Z</time>
      </trkpt>
      <trkpt lat="49.98034" lon="2.40962">
        <ele>94.3</ele>
        <time>2022-04-20T13:13:56Z</time>
      </trkpt>
      <trkpt lat="49.98035" lon="2.40961">
        <ele>94.3</ele>
        <time>2022-04-20T13:13:57Z</time>
      </trkpt>
      <trkpt lat="49.98035" lon="2.40959">
        <ele>94.4</ele>
        <time>2022-04-20T13:13:58Z</time>
      </trkpt>
      <trkpt lat="49.98036" lon="2.40958">
        <ele>94.4</ele>
        <time>2022-04-20T13:13:59Z</time>
      </trkpt>
      <trkpt lat="49.98036" lon="2.40957">
        <ele>94.4</ele>
        <time>2022-04-20T13:14:01Z</time>
      </trkpt>
      <trkpt lat="49.98037" lon="2.40956">
        <ele>94.4</ele>
        <time>2022-04-20T13:14:02Z</time>
      </trkpt>
      <trkpt lat="49.98038" lon="2.40955">
        <ele>94.4</ele>
        <time>2022-04-20T13:14:03Z</time>
      </trkpt>
      <trkpt lat="49.98038" lon="2.40953">
        <ele>94.4</ele>
        <time>2022-04-20T13:14:04Z</time>
      </trkpt>
      <trkpt lat="49.98038" lon="2.40952">
        <ele>94.4</ele>
        <time>2022-04-20T13:14:05Z</time>
      </trkpt>
      <trkpt lat="49.98039" lon="2.4095">
        <ele>94.4</ele>
        <time>2022-04-20T13:14:06Z</time>
      </trkpt>
      <trkpt lat="49.9804" lon="2.40949">
        <ele>94.4</ele>
        <time>2022-04-20T13:14:07Z</time>
      </trkpt>
      <trkpt lat="49.9804" lon="2.40947">
        <ele>94.5</ele>
        <time>2022-04-20T13:14:09Z</time>
      </trkpt>
      <trkpt lat="49.98041" lon="2.40946">
        <ele>94.5</ele>
        <time>2022-04-20T13:14:10Z</time>
      </trkpt>
      <trkpt lat="49.98042" lon="2.40944">
        <ele>94.5</ele>
        <time>2022-04-20T13:14:11Z</time>
      </trkpt>
      <trkpt lat="49.98042" lon="2.40943">
        <ele>94.5</ele>
        <time>2022-04-20T13:14:12Z</time>
      </trkpt>
      <trkpt lat="49.98043" lon="2.40941">
        <ele>94.5</ele>
        <time>2022-04-20T13:14:13Z</time>
      </trkpt>
      <trkpt lat="49.98044" lon="2.4094">
        <ele>94.5</ele>
        <time>2022-04-20T13:14:14Z</time>
      </trkpt>
      <trkpt lat="49.98044" lon="2.40938">
        <ele>94.5</ele>
        <time>2022-04-20T13:14:15Z</time>
      </trkpt>
      <trkpt lat="49.98045" lon="2.40937">
        <ele>94.5</ele>
        <time>2022-04-20T13:14:16Z</time>
      </trkpt>
      <trkpt lat="49.98046" lon="2.40935">
        <ele>94.6</ele>
        <time>2022-04-20T13:14:17Z</time>
      </trkpt>
      <trkpt lat="49.98046" lon="2.40932">
        <ele>94.6</ele>
        <time>2022-04-20T13:14:18Z</time>
      </trkpt>
      <trkpt lat="49.98046" lon="2.40929">
        <ele>94.6</ele>
        <time>2022-04-20T13:14:19Z</time>
      </trkpt>
      <trkpt lat="49.98046" lon="2.40928">
        <ele>94.6</ele>
        <time>2022-04-20T13:14:20Z</time>
      </trkpt>
      <trkpt lat="49.98047" lon="2.40926">
        <ele>94.6</ele>
        <time>2022-04-20T13:14:21Z</time>
      </trkpt>
      <trkpt lat="49.98048" lon="2.40924">
        <ele>94.7</ele>
        <time>2022-04-20T13:14:22Z</time>
      </trkpt>
      <trkpt lat="49.98048" lon="2.40923">
        <ele>94.7</ele>
        <time>2022-04-20T13:14:23Z</time>
      </trkpt>
      <trkpt lat="49.98049" lon="2.4092">
        <ele>94.7</ele>
        <time>2022-04-20T13:14:25Z</time>
      </trkpt>
      <trkpt lat="49.9805" lon="2.40919">
        <ele>94.7</ele>
        <time>2022-04-20T13:14:26Z</time>
      </trkpt>
      <trkpt lat="49.9805" lon="2.40917">
        <ele>94.8</ele>
        <time>2022-04-20T13:14:27Z</time>
      </trkpt>
      <trkpt lat="49.98051" lon="2.40915">
        <ele>94.8</ele>
        <time>2022-04-20T13:14:28Z</time>
      </trkpt>
      <trkpt lat="49.98051" lon="2.40913">
        <ele>94.8</ele>
        <time>2022-04-20T13:14:29Z</time>
      </trkpt>
      <trkpt lat="49.98051" lon="2.40909">
        <ele>94.8</ele>
        <time>2022-04-20T13:14:30Z</time>
      </trkpt>
      <trkpt lat="49.98051" lon="2.40907">
        <ele>94.9</ele>
        <time>2022-04-20T13:14:31Z</time>
      </trkpt>
      <trkpt lat="49.98051" lon="2.40905">
        <ele>94.9</ele>
        <time>2022-04-20T13:14:33Z</time>
      </trkpt>
      <trkpt lat="49.98052" lon="2.40902">
        <ele>94.9</ele>
        <time>2022-04-20T13:14:34Z</time>
      </trkpt>
      <trkpt lat="49.98052" lon="2.409">
        <ele>95</ele>
        <time>2022-04-20T13:14:35Z</time>
      </trkpt>
      <trkpt lat="49.98053" lon="2.40898">
        <ele>95</ele>
        <time>2022-04-20T13:14:36Z</time>
      </trkpt>
      <trkpt lat="49.98053" lon="2.40896">
        <ele>95</ele>
        <time>2022-04-20T13:14:38Z</time>
      </trkpt>
      <trkpt lat="49.98054" lon="2.40894">
        <ele>95</ele>
        <time>2022-04-20T13:14:39Z</time>
      </trkpt>
      <trkpt lat="49.98054" lon="2.40892">
        <ele>95.1</ele>
        <time>2022-04-20T13:14:40Z</time>
      </trkpt>
      <trkpt lat="49.98053" lon="2.4089">
        <ele>95.1</ele>
        <time>2022-04-20T13:14:41Z</time>
      </trkpt>
      <trkpt lat="49.98053" lon="2.40886">
        <ele>95.1</ele>
        <time>2022-04-20T13:14:42Z</time>
      </trkpt>
      <trkpt lat="49.98053" lon="2.40885">
        <ele>95.2</ele>
        <time>2022-04-20T13:14:43Z</time>
      </trkpt>
      <trkpt lat="49.98054" lon="2.40884">
        <ele>95.2</ele>
        <time>2022-04-20T13:14:44Z</time>
      </trkpt>
      <trkpt lat="49.98055" lon="2.4088">
        <ele>95.3</ele>
        <time>2022-04-20T13:14:45Z</time>
      </trkpt>
      <trkpt lat="49.98055" lon="2.40879">
        <ele>95.3</ele>
        <time>2022-04-20T13:14:47Z</time>
      </trkpt>
      <trkpt lat="49.98055" lon="2.40877">
        <ele>95.3</ele>
        <time>2022-04-20T13:14:48Z</time>
      </trkpt>
      <trkpt lat="49.98056" lon="2.40876">
        <ele>95.3</ele>
        <time>2022-04-20T13:14:49Z</time>
      </trkpt>
      <trkpt lat="49.98056" lon="2.40874">
        <ele>95.4</ele>
        <time>2022-04-20T13:14:50Z</time>
      </trkpt>
      <trkpt lat="49.98057" lon="2.40872">
        <ele>95.4</ele>
        <time>2022-04-20T13:14:51Z</time>
      </trkpt>
      <trkpt lat="49.98058" lon="2.4087">
        <ele>95.4</ele>
        <time>2022-04-20T13:14:52Z</time>
      </trkpt>
      <trkpt lat="49.98058" lon="2.40868">
        <ele>95.5</ele>
        <time>2022-04-20T13:14:54Z</time>
      </trkpt>
      <trkpt lat="49.98059" lon="2.40867">
        <ele>95.5</ele>
        <time>2022-04-20T13:14:55Z</time>
      </trkpt>
      <trkpt lat="49.9806" lon="2.40865">
        <ele>95.6</ele>
        <time>2022-04-20T13:14:56Z</time>
      </trkpt>
      <trkpt lat="49.9806" lon="2.40864">
        <ele>95.6</ele>
        <time>2022-04-20T13:14:57Z</time>
      </trkpt>
      <trkpt lat="49.98061" lon="2.40863">
        <ele>95.6</ele>
        <time>2022-04-20T13:14:58Z</time>
      </trkpt>
      <trkpt lat="49.98061" lon="2.40862">
        <ele>95.6</ele>
        <time>2022-04-20T13:14:59Z</time>
      </trkpt>
      <trkpt lat="49.98062" lon="2.4086">
        <ele>95.7</ele>
        <time>2022-04-20T13:15:00Z</time>
      </trkpt>
      <trkpt lat="49.98064" lon="2.40857">
        <ele>95.7</ele>
        <time>2022-04-20T13:15:02Z</time>
      </trkpt>
      <trkpt lat="49.98064" lon="2.40856">
        <ele>95.8</ele>
        <time>2022-04-20T13:15:03Z</time>
      </trkpt>
      <trkpt lat="49.98065" lon="2.40855">
        <ele>95.8</ele>
        <time>2022-04-20T13:15:04Z</time>
      </trkpt>
      <trkpt lat="49.98065" lon="2.40854">
        <ele>95.8</ele>
        <time>2022-04-20T13:15:05Z</time>
      </trkpt>
      <trkpt lat="49.98067" lon="2.40853">
        <ele>95.9</ele>
        <time>2022-04-20T13:15:06Z</time>
      </trkpt>
      <trkpt lat="49.98068" lon="2.40851">
        <ele>95.9</ele>
        <time>2022-04-20T13:15:08Z</time>
      </trkpt>
      <trkpt lat="49.98069" lon="2.40849">
        <ele>96</ele>
        <time>2022-04-20T13:15:09Z</time>
      </trkpt>
      <trkpt lat="49.9807" lon="2.40848">
        <ele>96</ele>
        <time>2022-04-20T13:15:10Z</time>
      </trkpt>
      <trkpt lat="49.9807" lon="2.40847">
        <ele>96.1</ele>
        <time>2022-04-20T13:15:11Z</time>
      </trkpt>
      <trkpt lat="49.98071" lon="2.40846">
        <ele>96.1</ele>
        <time>2022-04-20T13:15:12Z</time>
      </trkpt>
      <trkpt lat="49.98072" lon="2.40844">
        <ele>96.2</ele>
        <time>2022-04-20T13:15:13Z</time>
      </trkpt>
      <trkpt lat="49.98073" lon="2.40841">
        <ele>96.2</ele>
        <time>2022-04-20T13:15:15Z</time>
      </trkpt>
      <trkpt lat="49.98074" lon="2.4084">
        <ele>96.3</ele>
        <time>2022-04-20T13:15:16Z</time>
      </trkpt>
      <trkpt lat="49.98074" lon="2.40839">
        <ele>96.3</ele>
        <time>2022-04-20T13:15:17Z</time>
      </trkpt>
      <trkpt lat="49.98074" lon="2.40837">
        <ele>96.4</ele>
        <time>2022-04-20T13:15:18Z</time>
      </trkpt>
      <trkpt lat="49.98075" lon="2.40835">
        <ele>96.4</ele>
        <time>2022-04-20T13:15:19Z</time>
      </trkpt>
      <trkpt lat="49.98075" lon="2.40832">
        <ele>96.5</ele>
        <time>2022-04-20T13:15:20Z</time>
      </trkpt>
      <trkpt lat="49.98076" lon="2.4083">
        <ele>96.5</ele>
        <time>2022-04-20T13:15:22Z</time>
      </trkpt>
      <trkpt lat="49.98076" lon="2.40829">
        <ele>96.6</ele>
        <time>2022-04-20T13:15:23Z</time>
      </trkpt>
      <trkpt lat="49.98076" lon="2.40826">
        <ele>96.6</ele>
        <time>2022-04-20T13:15:24Z</time>
      </trkpt>
      <trkpt lat="49.98076" lon="2.40824">
        <ele>96.7</ele>
        <time>2022-04-20T13:15:25Z</time>
      </trkpt>
      <trkpt lat="49.98076" lon="2.40823">
        <ele>96.7</ele>
        <time>2022-04-20T13:15:26Z</time>
      </trkpt>
      <trkpt lat="49.98076" lon="2.4082">
        <ele>96.8</ele>
        <time>2022-04-20T13:15:28Z</time>
      </trkpt>
      <trkpt lat="49.98076" lon="2.40818">
        <ele>96.8</ele>
        <time>2022-04-20T13:15:29Z</time>
      </trkpt>
      <trkpt lat="49.98076" lon="2.40815">
        <ele>96.9</ele>
        <time>2022-04-20T13:15:30Z</time>
      </trkpt>
      <trkpt lat="49.98076" lon="2.40813">
        <ele>96.9</ele>
        <time>2022-04-20T13:15:32Z</time>
      </trkpt>
      <trkpt lat="49.98076" lon="2.40812">
        <ele>97</ele>
        <time>2022-04-20T13:15:33Z</time>
      </trkpt>
      <trkpt lat="49.98076" lon="2.40811">
        <ele>97</ele>
        <time>2022-04-20T13:15:34Z</time>
      </trkpt>
      <trkpt lat="49.98076" lon="2.40809">
        <ele>97</ele>
        <time>2022-04-20T13:15:35Z</time>
      </trkpt>
      <trkpt lat="49.98076" lon="2.40807">
        <ele>97.1</ele>
        <time>2022-04-20T13:15:36Z</time>
      </trkpt>
      <trkpt lat="49.98077" lon="2.40805">
        <ele>97.1</ele>
        <time>2022-04-20T13:15:37Z</time>
      </trkpt>
      <trkpt lat="49.98077" lon="2.40803">
        <ele>97.2</ele>
        <time>2022-04-20T13:15:38Z</time>
      </trkpt>
      <trkpt lat="49.98078" lon="2.40801">
        <ele>97.2</ele>
        <time>2022-04-20T13:15:40Z</time>
      </trkpt>
      <trkpt lat="49.98079" lon="2.40798">
        <ele>97.3</ele>
        <time>2022-04-20T13:15:41Z</time>
      </trkpt>
      <trkpt lat="49.9808" lon="2.40797">
        <ele>97.3</ele>
        <time>2022-04-20T13:15:42Z</time>
      </trkpt>
      <trkpt lat="49.98081" lon="2.40796">
        <ele>97.3</ele>
        <time>2022-04-20T13:15:43Z</time>
      </trkpt>
      <trkpt lat="49.98081" lon="2.40795">
        <ele>97.4</ele>
        <time>2022-04-20T13:15:44Z</time>
      </trkpt>
      <trkpt lat="49.98081" lon="2.40793">
        <ele>97.4</ele>
        <time>2022-04-20T13:15:45Z</time>
      </trkpt>
      <trkpt lat="49.98082" lon="2.40792">
        <ele>97.4</ele>
        <time>2022-04-20T13:15:46Z</time>
      </trkpt>
      <trkpt lat="49.98083" lon="2.4079">
        <ele>97.5</ele>
        <time>2022-04-20T13:15:48Z</time>
      </trkpt>
      <trkpt lat="49.98084" lon="2.40789">
        <ele>97.5</ele>
        <time>2022-04-20T13:15:49Z</time>
      </trkpt>
      <trkpt lat="49.98084" lon="2.40787">
        <ele>97.5</ele>
        <time>2022-04-20T13:15:50Z</time>
      </trkpt>
      <trkpt lat="49.98085" lon="2.40785">
        <ele>97.5</ele>
        <time>2022-04-20T13:15:51Z</time>
      </trkpt>
      <trkpt lat="49.98085" lon="2.40783">
        <ele>97.6</ele>
        <time>2022-04-20T13:15:52Z</time>
      </trkpt>
      <trkpt lat="49.98085" lon="2.40782">
        <ele>97.6</ele>
        <time>2022-04-20T13:15:53Z</time>
      </trkpt>
      <trkpt lat="49.98086" lon="2.4078">
        <ele>97.6</ele>
        <time>2022-04-20T13:15:54Z</time>
      </trkpt>
      <trkpt lat="49.98087" lon="2.40778">
        <ele>97.6</ele>
        <time>2022-04-20T13:15:56Z</time>
      </trkpt>
      <trkpt lat="49.98087" lon="2.40777">
        <ele>97.7</ele>
        <time>2022-04-20T13:15:57Z</time>
      </trkpt>
      <trkpt lat="49.98088" lon="2.40775">
        <ele>97.7</ele>
        <time>2022-04-20T13:15:58Z</time>
      </trkpt>
      <trkpt lat="49.98089" lon="2.40772">
        <ele>97.8</ele>
        <time>2022-04-20T13:16:00Z</time>
      </trkpt>
      <trkpt lat="49.9809" lon="2.40769">
        <ele>97.8</ele>
        <time>2022-04-20T13:16:01Z</time>
      </trkpt>
      <trkpt lat="49.98091" lon="2.40768">
        <ele>97.8</ele>
        <time>2022-04-20T13:16:02Z</time>
      </trkpt>
      <trkpt lat="49.98091" lon="2.40767">
        <ele>97.8</ele>
        <time>2022-04-20T13:16:03Z</time>
      </trkpt>
      <trkpt lat="49.9809" lon="2.40765">
        <ele>97.9</ele>
        <time>2022-04-20T13:16:04Z</time>
      </trkpt>
      <trkpt lat="49.9809" lon="2.40762">
        <ele>97.9</ele>
        <time>2022-04-20T13:16:05Z</time>
      </trkpt>
      <trkpt lat="49.98091" lon="2.4076">
        <ele>97.9</ele>
        <time>2022-04-20T13:16:06Z</time>
      </trkpt>
      <trkpt lat="49.98091" lon="2.40758">
        <ele>98</ele>
        <time>2022-04-20T13:16:07Z</time>
      </trkpt>
      <trkpt lat="49.98091" lon="2.40755">
        <ele>98</ele>
        <time>2022-04-20T13:16:09Z</time>
      </trkpt>
      <trkpt lat="49.98092" lon="2.40753">
        <ele>98</ele>
        <time>2022-04-20T13:16:10Z</time>
      </trkpt>
      <trkpt lat="49.98092" lon="2.4075">
        <ele>98.1</ele>
        <time>2022-04-20T13:16:11Z</time>
      </trkpt>
      <trkpt lat="49.98093" lon="2.40749">
        <ele>98.1</ele>
        <time>2022-04-20T13:16:12Z</time>
      </trkpt>
      <trkpt lat="49.98093" lon="2.40747">
        <ele>98.1</ele>
        <time>2022-04-20T13:16:13Z</time>
      </trkpt>
      <trkpt lat="49.98093" lon="2.40745">
        <ele>98.2</ele>
        <time>2022-04-20T13:16:14Z</time>
      </trkpt>
      <trkpt lat="49.98094" lon="2.40742">
        <ele>98.2</ele>
        <time>2022-04-20T13:16:16Z</time>
      </trkpt>
      <trkpt lat="49.98094" lon="2.4074">
        <ele>98.2</ele>
        <time>2022-04-20T13:16:17Z</time>
      </trkpt>
      <trkpt lat="49.98095" lon="2.40738">
        <ele>98.3</ele>
        <time>2022-04-20T13:16:18Z</time>
      </trkpt>
      <trkpt lat="49.98095" lon="2.40735">
        <ele>98.3</ele>
        <time>2022-04-20T13:16:20Z</time>
      </trkpt>
      <trkpt lat="49.98096" lon="2.40733">
        <ele>98.3</ele>
        <time>2022-04-20T13:16:21Z</time>
      </trkpt>
      <trkpt lat="49.98096" lon="2.40729">
        <ele>98.4</ele>
        <time>2022-04-20T13:16:22Z</time>
      </trkpt>
      <trkpt lat="49.98097" lon="2.40727">
        <ele>98.4</ele>
        <time>2022-04-20T13:16:24Z</time>
      </trkpt>
      <trkpt lat="49.98097" lon="2.40726">
        <ele>98.4</ele>
        <time>2022-04-20T13:16:25Z</time>
      </trkpt>
      <trkpt lat="49.98098" lon="2.40724">
        <ele>98.5</ele>
        <time>2022-04-20T13:16:26Z</time>
      </trkpt>
      <trkpt lat="49.98098" lon="2.40722">
        <ele>98.5</ele>
        <time>2022-04-20T13:16:27Z</time>
      </trkpt>
      <trkpt lat="49.98098" lon="2.40721">
        <ele>98.5</ele>
        <time>2022-04-20T13:16:28Z</time>
      </trkpt>
      <trkpt lat="49.98099" lon="2.40719">
        <ele>98.5</ele>
        <time>2022-04-20T13:16:29Z</time>
      </trkpt>
      <trkpt lat="49.98099" lon="2.40717">
        <ele>98.5</ele>
        <time>2022-04-20T13:16:30Z</time>
      </trkpt>
      <trkpt lat="49.98099" lon="2.40716">
        <ele>98.5</ele>
        <time>2022-04-20T13:16:31Z</time>
      </trkpt>
      <trkpt lat="49.98099" lon="2.40713">
        <ele>98.6</ele>
        <time>2022-04-20T13:16:32Z</time>
      </trkpt>
      <trkpt lat="49.98099" lon="2.4071">
        <ele>98.6</ele>
        <time>2022-04-20T13:16:34Z</time>
      </trkpt>
      <trkpt lat="49.98099" lon="2.40708">
        <ele>98.6</ele>
        <time>2022-04-20T13:16:35Z</time>
      </trkpt>
      <trkpt lat="49.98099" lon="2.40705">
        <ele>98.6</ele>
        <time>2022-04-20T13:16:37Z</time>
      </trkpt>
      <trkpt lat="49.981" lon="2.40702">
        <ele>98.6</ele>
        <time>2022-04-20T13:16:38Z</time>
      </trkpt>
      <trkpt lat="49.981" lon="2.407">
        <ele>98.7</ele>
        <time>2022-04-20T13:16:39Z</time>
      </trkpt>
      <trkpt lat="49.981" lon="2.40698">
        <ele>98.7</ele>
        <time>2022-04-20T13:16:40Z</time>
      </trkpt>
      <trkpt lat="49.981" lon="2.40696">
        <ele>98.7</ele>
        <time>2022-04-20T13:16:41Z</time>
      </trkpt>
      <trkpt lat="49.981" lon="2.40692">
        <ele>98.7</ele>
        <time>2022-04-20T13:16:42Z</time>
      </trkpt>
      <trkpt lat="49.981" lon="2.40691">
        <ele>98.7</ele>
        <time>2022-04-20T13:16:43Z</time>
      </trkpt>
      <trkpt lat="49.981" lon="2.4069">
        <ele>98.7</ele>
        <time>2022-04-20T13:16:44Z</time>
      </trkpt>
      <trkpt lat="49.981" lon="2.40687">
        <ele>98.7</ele>
        <time>2022-04-20T13:16:45Z</time>
      </trkpt>
      <trkpt lat="49.981" lon="2.40685">
        <ele>98.7</ele>
        <time>2022-04-20T13:16:47Z</time>
      </trkpt>
      <trkpt lat="49.981" lon="2.40683">
        <ele>98.7</ele>
        <time>2022-04-20T13:16:48Z</time>
      </trkpt>
      <trkpt lat="49.981" lon="2.40682">
        <ele>98.8</ele>
        <time>2022-04-20T13:16:49Z</time>
      </trkpt>
      <trkpt lat="49.981" lon="2.4068">
        <ele>98.8</ele>
        <time>2022-04-20T13:16:50Z</time>
      </trkpt>
      <trkpt lat="49.98101" lon="2.40677">
        <ele>98.8</ele>
        <time>2022-04-20T13:16:51Z</time>
      </trkpt>
      <trkpt lat="49.98102" lon="2.40675">
        <ele>98.8</ele>
        <time>2022-04-20T13:16:52Z</time>
      </trkpt>
      <trkpt lat="49.98102" lon="2.40674">
        <ele>98.8</ele>
        <time>2022-04-20T13:16:53Z</time>
      </trkpt>
      <trkpt lat="49.98103" lon="2.40671">
        <ele>98.8</ele>
        <time>2022-04-20T13:16:54Z</time>
      </trkpt>
      <trkpt lat="49.98103" lon="2.4067">
        <ele>98.8</ele>
        <time>2022-04-20T13:16:55Z</time>
      </trkpt>
      <trkpt lat="49.98104" lon="2.40668">
        <ele>98.8</ele>
        <time>2022-04-20T13:16:56Z</time>
      </trkpt>
      <trkpt lat="49.98105" lon="2.40665">
        <ele>98.8</ele>
        <time>2022-04-20T13:16:58Z</time>
      </trkpt>
      <trkpt lat="49.98105" lon="2.40664">
        <ele>98.9</ele>
        <time>2022-04-20T13:16:59Z</time>
      </trkpt>
      <trkpt lat="49.98105" lon="2.40663">
        <ele>98.9</ele>
        <time>2022-04-20T13:17:00Z</time>
      </trkpt>
      <trkpt lat="49.98106" lon="2.40661">
        <ele>98.9</ele>
        <time>2022-04-20T13:17:01Z</time>
      </trkpt>
      <trkpt lat="49.98105" lon="2.4066">
        <ele>98.9</ele>
        <time>2022-04-20T13:17:02Z</time>
      </trkpt>
      <trkpt lat="49.98105" lon="2.40658">
        <ele>98.9</ele>
        <time>2022-04-20T13:17:03Z</time>
      </trkpt>
      <trkpt lat="49.98105" lon="2.40656">
        <ele>98.9</ele>
        <time>2022-04-20T13:17:04Z</time>
      </trkpt>
      <trkpt lat="49.98106" lon="2.40654">
        <ele>98.9</ele>
        <time>2022-04-20T13:17:05Z</time>
      </trkpt>
      <trkpt lat="49.98106" lon="2.40651">
        <ele>98.9</ele>
        <time>2022-04-20T13:17:06Z</time>
      </trkpt>
      <trkpt lat="49.98107" lon="2.40649">
        <ele>99</ele>
        <time>2022-04-20T13:17:08Z</time>
      </trkpt>
      <trkpt lat="49.98107" lon="2.40648">
        <ele>99</ele>
        <time>2022-04-20T13:17:09Z</time>
      </trkpt>
      <trkpt lat="49.98108" lon="2.40646">
        <ele>99</ele>
        <time>2022-04-20T13:17:10Z</time>
      </trkpt>
      <trkpt lat="49.98108" lon="2.40645">
        <ele>99</ele>
        <time>2022-04-20T13:17:11Z</time>
      </trkpt>
      <trkpt lat="49.98108" lon="2.40644">
        <ele>99</ele>
        <time>2022-04-20T13:17:12Z</time>
      </trkpt>
      <trkpt lat="49.98109" lon="2.40641">
        <ele>99</ele>
        <time>2022-04-20T13:17:13Z</time>
      </trkpt>
      <trkpt lat="49.98109" lon="2.4064">
        <ele>99</ele>
        <time>2022-04-20T13:17:14Z</time>
      </trkpt>
      <trkpt lat="49.9811" lon="2.40638">
        <ele>99</ele>
        <time>2022-04-20T13:17:15Z</time>
      </trkpt>
      <trkpt lat="49.98111" lon="2.40636">
        <ele>99.1</ele>
        <time>2022-04-20T13:17:16Z</time>
      </trkpt>
      <trkpt lat="49.98111" lon="2.40635">
        <ele>99.1</ele>
        <time>2022-04-20T13:17:18Z</time>
      </trkpt>
      <trkpt lat="49.98112" lon="2.40634">
        <ele>99.1</ele>
        <time>2022-04-20T13:17:19Z</time>
      </trkpt>
      <trkpt lat="49.98112" lon="2.40632">
        <ele>99.1</ele>
        <time>2022-04-20T13:17:20Z</time>
      </trkpt>
      <trkpt lat="49.98113" lon="2.4063">
        <ele>99.1</ele>
        <time>2022-04-20T13:17:21Z</time>
      </trkpt>
      <trkpt lat="49.98113" lon="2.40629">
        <ele>99.1</ele>
        <time>2022-04-20T13:17:22Z</time>
      </trkpt>
      <trkpt lat="49.98114" lon="2.40626">
        <ele>99.2</ele>
        <time>2022-04-20T13:17:23Z</time>
      </trkpt>
      <trkpt lat="49.98114" lon="2.40624">
        <ele>99.2</ele>
        <time>2022-04-20T13:17:24Z</time>
      </trkpt>
      <trkpt lat="49.98115" lon="2.40623">
        <ele>99.2</ele>
        <time>2022-04-20T13:17:25Z</time>
      </trkpt>
      <trkpt lat="49.98115" lon="2.40621">
        <ele>99.2</ele>
        <time>2022-04-20T13:17:26Z</time>
      </trkpt>
      <trkpt lat="49.98116" lon="2.40619">
        <ele>99.2</ele>
        <time>2022-04-20T13:17:27Z</time>
      </trkpt>
      <trkpt lat="49.98116" lon="2.40617">
        <ele>99.2</ele>
        <time>2022-04-20T13:17:29Z</time>
      </trkpt>
      <trkpt lat="49.98116" lon="2.40615">
        <ele>99.3</ele>
        <time>2022-04-20T13:17:30Z</time>
      </trkpt>
      <trkpt lat="49.98116" lon="2.40614">
        <ele>99.3</ele>
        <time>2022-04-20T13:17:31Z</time>
      </trkpt>
      <trkpt lat="49.98116" lon="2.40612">
        <ele>99.3</ele>
        <time>2022-04-20T13:17:32Z</time>
      </trkpt>
      <trkpt lat="49.98117" lon="2.4061">
        <ele>99.3</ele>
        <time>2022-04-20T13:17:33Z</time>
      </trkpt>
      <trkpt lat="49.98117" lon="2.40608">
        <ele>99.3</ele>
        <time>2022-04-20T13:17:35Z</time>
      </trkpt>
      <trkpt lat="49.98117" lon="2.40604">
        <ele>99.4</ele>
        <time>2022-04-20T13:17:36Z</time>
      </trkpt>
      <trkpt lat="49.98118" lon="2.40603">
        <ele>99.4</ele>
        <time>2022-04-20T13:17:37Z</time>
      </trkpt>
      <trkpt lat="49.98118" lon="2.40602">
        <ele>99.4</ele>
        <time>2022-04-20T13:17:38Z</time>
      </trkpt>
      <trkpt lat="49.98118" lon="2.406">
        <ele>99.4</ele>
        <time>2022-04-20T13:17:39Z</time>
      </trkpt>
      <trkpt lat="49.98118" lon="2.40598">
        <ele>99.4</ele>
        <time>2022-04-20T13:17:40Z</time>
      </trkpt>
      <trkpt lat="49.98117" lon="2.40595">
        <ele>99.5</ele>
        <time>2022-04-20T13:17:42Z</time>
      </trkpt>
      <trkpt lat="49.98117" lon="2.40593">
        <ele>99.5</ele>
        <time>2022-04-20T13:17:43Z</time>
      </trkpt>
      <trkpt lat="49.98117" lon="2.4059">
        <ele>99.5</ele>
        <time>2022-04-20T13:17:45Z</time>
      </trkpt>
      <trkpt lat="49.98117" lon="2.40588">
        <ele>99.6</ele>
        <time>2022-04-20T13:17:46Z</time>
      </trkpt>
      <trkpt lat="49.98117" lon="2.40586">
        <ele>99.6</ele>
        <time>2022-04-20T13:17:47Z</time>
      </trkpt>
      <trkpt lat="49.98117" lon="2.40583">
        <ele>99.6</ele>
        <time>2022-04-20T13:17:48Z</time>
      </trkpt>
      <trkpt lat="49.98118" lon="2.40581">
        <ele>99.6</ele>
        <time>2022-04-20T13:17:49Z</time>
      </trkpt>
      <trkpt lat="49.98118" lon="2.4058">
        <ele>99.7</ele>
        <time>2022-04-20T13:17:50Z</time>
      </trkpt>
      <trkpt lat="49.98118" lon="2.40577">
        <ele>99.7</ele>
        <time>2022-04-20T13:17:52Z</time>
      </trkpt>
      <trkpt lat="49.98118" lon="2.40576">
        <ele>99.7</ele>
        <time>2022-04-20T13:17:53Z</time>
      </trkpt>
      <trkpt lat="49.98118" lon="2.40574">
        <ele>99.7</ele>
        <time>2022-04-20T13:17:54Z</time>
      </trkpt>
      <trkpt lat="49.98118" lon="2.40571">
        <ele>99.8</ele>
        <time>2022-04-20T13:17:55Z</time>
      </trkpt>
      <trkpt lat="49.98118" lon="2.4057">
        <ele>99.8</ele>
        <time>2022-04-20T13:17:56Z</time>
      </trkpt>
      <trkpt lat="49.98118" lon="2.40568">
        <ele>99.8</ele>
        <time>2022-04-20T13:17:57Z</time>
      </trkpt>
      <trkpt lat="49.98119" lon="2.40566">
        <ele>99.8</ele>
        <time>2022-04-20T13:17:58Z</time>
      </trkpt>
      <trkpt lat="49.98119" lon="2.40565">
        <ele>99.8</ele>
        <time>2022-04-20T13:17:59Z</time>
      </trkpt>
      <trkpt lat="49.98119" lon="2.40563">
        <ele>99.9</ele>
        <time>2022-04-20T13:18:01Z</time>
      </trkpt>
      <trkpt lat="49.98119" lon="2.40561">
        <ele>99.9</ele>
        <time>2022-04-20T13:18:02Z</time>
      </trkpt>
      <trkpt lat="49.98119" lon="2.4056">
        <ele>99.9</ele>
        <time>2022-04-20T13:18:03Z</time>
      </trkpt>
      <trkpt lat="49.98119" lon="2.40558">
        <ele>99.9</ele>
        <time>2022-04-20T13:18:04Z</time>
      </trkpt>
      <trkpt lat="49.98119" lon="2.40556">
        <ele>100</ele>
        <time>2022-04-20T13:18:05Z</time>
      </trkpt>
      <trkpt lat="49.98119" lon="2.40554">
        <ele>100</ele>
        <time>2022-04-20T13:18:06Z</time>
      </trkpt>
      <trkpt lat="49.98119" lon="2.40553">
        <ele>100</ele>
        <time>2022-04-20T13:18:07Z</time>
      </trkpt>
      <trkpt lat="49.9812" lon="2.40551">
        <ele>100</ele>
        <time>2022-04-20T13:18:09Z</time>
      </trkpt>
      <trkpt lat="49.9812" lon="2.4055">
        <ele>100</ele>
        <time>2022-04-20T13:18:10Z</time>
      </trkpt>
      <trkpt lat="49.9812" lon="2.40548">
        <ele>100.1</ele>
        <time>2022-04-20T13:18:11Z</time>
      </trkpt>
      <trkpt lat="49.98121" lon="2.40547">
        <ele>100.1</ele>
        <time>2022-04-20T13:18:12Z</time>
      </trkpt>
      <trkpt lat="49.98121" lon="2.40545">
        <ele>100.1</ele>
        <time>2022-04-20T13:18:13Z</time>
      </trkpt>
      <trkpt lat="49.98121" lon="2.40543">
        <ele>100.1</ele>
        <time>2022-04-20T13:18:14Z</time>
      </trkpt>
      <trkpt lat="49.98122" lon="2.40542">
        <ele>100.1</ele>
        <time>2022-04-20T13:18:15Z</time>
      </trkpt>
      <trkpt lat="49.98122" lon="2.4054">
        <ele>100.2</ele>
        <time>2022-04-20T13:18:17Z</time>
      </trkpt>
      <trkpt lat="49.98123" lon="2.40539">
        <ele>100.2</ele>
        <time>2022-04-20T13:18:18Z</time>
      </trkpt>
      <trkpt lat="49.98123" lon="2.40537">
        <ele>100.2</ele>
        <time>2022-04-20T13:18:19Z</time>
      </trkpt>
      <trkpt lat="49.98124" lon="2.40535">
        <ele>100.2</ele>
        <time>2022-04-20T13:18:20Z</time>
      </trkpt>
      <trkpt lat="49.98124" lon="2.40534">
        <ele>100.2</ele>
        <time>2022-04-20T13:18:21Z</time>
      </trkpt>
      <trkpt lat="49.98124" lon="2.40531">
        <ele>100.3</ele>
        <time>2022-04-20T13:18:22Z</time>
      </trkpt>
      <trkpt lat="49.98125" lon="2.40529">
        <ele>100.3</ele>
        <time>2022-04-20T13:18:23Z</time>
      </trkpt>
      <trkpt lat="49.98125" lon="2.40528">
        <ele>100.3</ele>
        <time>2022-04-20T13:18:24Z</time>
      </trkpt>
      <trkpt lat="49.98125" lon="2.40525">
        <ele>100.4</ele>
        <time>2022-04-20T13:18:25Z</time>
      </trkpt>
      <trkpt lat="49.98125" lon="2.40524">
        <ele>100.4</ele>
        <time>2022-04-20T13:18:27Z</time>
      </trkpt>
      <trkpt lat="49.98125" lon="2.40522">
        <ele>100.4</ele>
        <time>2022-04-20T13:18:28Z</time>
      </trkpt>
      <trkpt lat="49.98126" lon="2.40519">
        <ele>100.4</ele>
        <time>2022-04-20T13:18:29Z</time>
      </trkpt>
      <trkpt lat="49.98126" lon="2.40518">
        <ele>100.4</ele>
        <time>2022-04-20T13:18:30Z</time>
      </trkpt>
      <trkpt lat="49.98126" lon="2.40517">
        <ele>100.5</ele>
        <time>2022-04-20T13:18:31Z</time>
      </trkpt>
      <trkpt lat="49.98127" lon="2.40515">
        <ele>100.5</ele>
        <time>2022-04-20T13:18:33Z</time>
      </trkpt>
      <trkpt lat="49.98127" lon="2.40513">
        <ele>100.5</ele>
        <time>2022-04-20T13:18:34Z</time>
      </trkpt>
      <trkpt lat="49.98127" lon="2.40511">
        <ele>100.5</ele>
        <time>2022-04-20T13:18:35Z</time>
      </trkpt>
      <trkpt lat="49.98128" lon="2.4051">
        <ele>100.5</ele>
        <time>2022-04-20T13:18:36Z</time>
      </trkpt>
      <trkpt lat="49.98128" lon="2.40508">
        <ele>100.6</ele>
        <time>2022-04-20T13:18:37Z</time>
      </trkpt>
      <trkpt lat="49.98128" lon="2.40506">
        <ele>100.6</ele>
        <time>2022-04-20T13:18:38Z</time>
      </trkpt>
      <trkpt lat="49.98129" lon="2.40505">
        <ele>100.6</ele>
        <time>2022-04-20T13:18:39Z</time>
      </trkpt>
      <trkpt lat="49.98129" lon="2.40503">
        <ele>100.6</ele>
        <time>2022-04-20T13:18:41Z</time>
      </trkpt>
      <trkpt lat="49.9813" lon="2.40501">
        <ele>100.6</ele>
        <time>2022-04-20T13:18:42Z</time>
      </trkpt>
      <trkpt lat="49.98129" lon="2.405">
        <ele>100.7</ele>
        <time>2022-04-20T13:18:43Z</time>
      </trkpt>
      <trkpt lat="49.98128" lon="2.40499">
        <ele>100.7</ele>
        <time>2022-04-20T13:18:44Z</time>
      </trkpt>
      <trkpt lat="49.98128" lon="2.40497">
        <ele>100.7</ele>
        <time>2022-04-20T13:18:45Z</time>
      </trkpt>
      <trkpt lat="49.98129" lon="2.40494">
        <ele>100.8</ele>
        <time>2022-04-20T13:18:46Z</time>
      </trkpt>
      <trkpt lat="49.98129" lon="2.40493">
        <ele>100.8</ele>
        <time>2022-04-20T13:18:48Z</time>
      </trkpt>
      <trkpt lat="49.98129" lon="2.40492">
        <ele>100.8</ele>
        <time>2022-04-20T13:18:49Z</time>
      </trkpt>
      <trkpt lat="49.9813" lon="2.40489">
        <ele>100.9</ele>
        <time>2022-04-20T13:18:50Z</time>
      </trkpt>
      <trkpt lat="49.98131" lon="2.40487">
        <ele>100.9</ele>
        <time>2022-04-20T13:18:51Z</time>
      </trkpt>
      <trkpt lat="49.98131" lon="2.40486">
        <ele>100.9</ele>
        <time>2022-04-20T13:18:52Z</time>
      </trkpt>
      <trkpt lat="49.98132" lon="2.40484">
        <ele>100.9</ele>
        <time>2022-04-20T13:18:53Z</time>
      </trkpt>
      <trkpt lat="49.98132" lon="2.40482">
        <ele>101</ele>
        <time>2022-04-20T13:18:54Z</time>
      </trkpt>
      <trkpt lat="49.98132" lon="2.40481">
        <ele>101</ele>
        <time>2022-04-20T13:18:56Z</time>
      </trkpt>
      <trkpt lat="49.98133" lon="2.40478">
        <ele>101</ele>
        <time>2022-04-20T13:18:57Z</time>
      </trkpt>
      <trkpt lat="49.98134" lon="2.40476">
        <ele>101.1</ele>
        <time>2022-04-20T13:18:58Z</time>
      </trkpt>
      <trkpt lat="49.98134" lon="2.40475">
        <ele>101.1</ele>
        <time>2022-04-20T13:18:59Z</time>
      </trkpt>
      <trkpt lat="49.98134" lon="2.40474">
        <ele>101.1</ele>
        <time>2022-04-20T13:19:00Z</time>
      </trkpt>
      <trkpt lat="49.98135" lon="2.40472">
        <ele>101.1</ele>
        <time>2022-04-20T13:19:01Z</time>
      </trkpt>
      <trkpt lat="49.98135" lon="2.40471">
        <ele>101.2</ele>
        <time>2022-04-20T13:19:03Z</time>
      </trkpt>
      <trkpt lat="49.98136" lon="2.40469">
        <ele>101.2</ele>
        <time>2022-04-20T13:19:04Z</time>
      </trkpt>
      <trkpt lat="49.98136" lon="2.40468">
        <ele>101.2</ele>
        <time>2022-04-20T13:19:05Z</time>
      </trkpt>
      <trkpt lat="49.98137" lon="2.40466">
        <ele>101.2</ele>
        <time>2022-04-20T13:19:06Z</time>
      </trkpt>
      <trkpt lat="49.98137" lon="2.40465">
        <ele>101.3</ele>
        <time>2022-04-20T13:19:07Z</time>
      </trkpt>
      <trkpt lat="49.98137" lon="2.40463">
        <ele>101.3</ele>
        <time>2022-04-20T13:19:08Z</time>
      </trkpt>
      <trkpt lat="49.98137" lon="2.40462">
        <ele>101.3</ele>
        <time>2022-04-20T13:19:09Z</time>
      </trkpt>
      <trkpt lat="49.98137" lon="2.40461">
        <ele>101.3</ele>
        <time>2022-04-20T13:19:10Z</time>
      </trkpt>
      <trkpt lat="49.98137" lon="2.40459">
        <ele>101.4</ele>
        <time>2022-04-20T13:19:11Z</time>
      </trkpt>
      <trkpt lat="49.98137" lon="2.40457">
        <ele>101.4</ele>
        <time>2022-04-20T13:19:12Z</time>
      </trkpt>
      <trkpt lat="49.98136" lon="2.40457">
        <ele>101.5</ele>
        <time>2022-04-20T13:19:13Z</time>
      </trkpt>
      <trkpt lat="49.98134" lon="2.40456">
        <ele>101.5</ele>
        <time>2022-04-20T13:19:14Z</time>
      </trkpt>
      <trkpt lat="49.98133" lon="2.40456">
        <ele>101.5</ele>
        <time>2022-04-20T13:19:15Z</time>
      </trkpt>
      <trkpt lat="49.98132" lon="2.40455">
        <ele>101.6</ele>
        <time>2022-04-20T13:19:16Z</time>
      </trkpt>
      <trkpt lat="49.98132" lon="2.40453">
        <ele>101.6</ele>
        <time>2022-04-20T13:19:18Z</time>
      </trkpt>
      <trkpt lat="49.98133" lon="2.40451">
        <ele>101.6</ele>
        <time>2022-04-20T13:19:19Z</time>
      </trkpt>
      <trkpt lat="49.98133" lon="2.40449">
        <ele>101.7</ele>
        <time>2022-04-20T13:19:20Z</time>
      </trkpt>
      <trkpt lat="49.98133" lon="2.40448">
        <ele>101.7</ele>
        <time>2022-04-20T13:19:21Z</time>
      </trkpt>
      <trkpt lat="49.98132" lon="2.40446">
        <ele>101.7</ele>
        <time>2022-04-20T13:19:22Z</time>
      </trkpt>
      <trkpt lat="49.98131" lon="2.40445">
        <ele>101.8</ele>
        <time>2022-04-20T13:19:24Z</time>
      </trkpt>
      <trkpt lat="49.98131" lon="2.40443">
        <ele>101.8</ele>
        <time>2022-04-20T13:19:25Z</time>
      </trkpt>
      <trkpt lat="49.98131" lon="2.40442">
        <ele>101.8</ele>
        <time>2022-04-20T13:19:26Z</time>
      </trkpt>
      <trkpt lat="49.98131" lon="2.4044">
        <ele>101.9</ele>
        <time>2022-04-20T13:19:27Z</time>
      </trkpt>
      <trkpt lat="49.98131" lon="2.40438">
        <ele>101.9</ele>
        <time>2022-04-20T13:19:28Z</time>
      </trkpt>
      <trkpt lat="49.98132" lon="2.40435">
        <ele>102</ele>
        <time>2022-04-20T13:19:29Z</time>
      </trkpt>
      <trkpt lat="49.98132" lon="2.40433">
        <ele>102</ele>
        <time>2022-04-20T13:19:30Z</time>
      </trkpt>
      <trkpt lat="49.98133" lon="2.40432">
        <ele>102</ele>
        <time>2022-04-20T13:19:32Z</time>
      </trkpt>
      <trkpt lat="49.98133" lon="2.4043">
        <ele>102</ele>
        <time>2022-04-20T13:19:33Z</time>
      </trkpt>
      <trkpt lat="49.98133" lon="2.40429">
        <ele>102.1</ele>
        <time>2022-04-20T13:19:34Z</time>
      </trkpt>
      <trkpt lat="49.98134" lon="2.40428">
        <ele>102.1</ele>
        <time>2022-04-20T13:19:35Z</time>
      </trkpt>
      <trkpt lat="49.98134" lon="2.40426">
        <ele>102.1</ele>
        <time>2022-04-20T13:19:36Z</time>
      </trkpt>
      <trkpt lat="49.98134" lon="2.40425">
        <ele>102.2</ele>
        <time>2022-04-20T13:19:37Z</time>
      </trkpt>
      <trkpt lat="49.98134" lon="2.40424">
        <ele>102.2</ele>
        <time>2022-04-20T13:19:39Z</time>
      </trkpt>
      <trkpt lat="49.98135" lon="2.40422">
        <ele>102.2</ele>
        <time>2022-04-20T13:19:40Z</time>
      </trkpt>
      <trkpt lat="49.98135" lon="2.40419">
        <ele>102.3</ele>
        <time>2022-04-20T13:19:41Z</time>
      </trkpt>
      <trkpt lat="49.98136" lon="2.40418">
        <ele>102.3</ele>
        <time>2022-04-20T13:19:42Z</time>
      </trkpt>
      <trkpt lat="49.98136" lon="2.40417">
        <ele>102.3</ele>
        <time>2022-04-20T13:19:43Z</time>
      </trkpt>
      <trkpt lat="49.98136" lon="2.40415">
        <ele>102.4</ele>
        <time>2022-04-20T13:19:44Z</time>
      </trkpt>
      <trkpt lat="49.98137" lon="2.40413">
        <ele>102.4</ele>
        <time>2022-04-20T13:19:45Z</time>
      </trkpt>
      <trkpt lat="49.98137" lon="2.40411">
        <ele>102.5</ele>
        <time>2022-04-20T13:19:47Z</time>
      </trkpt>
      <trkpt lat="49.98138" lon="2.40408">
        <ele>102.5</ele>
        <time>2022-04-20T13:19:48Z</time>
      </trkpt>
      <trkpt lat="49.98138" lon="2.40406">
        <ele>102.6</ele>
        <time>2022-04-20T13:19:49Z</time>
      </trkpt>
      <trkpt lat="49.98139" lon="2.40405">
        <ele>102.6</ele>
        <time>2022-04-20T13:19:50Z</time>
      </trkpt>
      <trkpt lat="49.9814" lon="2.40402">
        <ele>102.7</ele>
        <time>2022-04-20T13:19:51Z</time>
      </trkpt>
      <trkpt lat="49.9814" lon="2.40401">
        <ele>102.7</ele>
        <time>2022-04-20T13:19:52Z</time>
      </trkpt>
      <trkpt lat="49.9814" lon="2.404">
        <ele>102.7</ele>
        <time>2022-04-20T13:19:53Z</time>
      </trkpt>
      <trkpt lat="49.98141" lon="2.40398">
        <ele>102.8</ele>
        <time>2022-04-20T13:19:55Z</time>
      </trkpt>
      <trkpt lat="49.98141" lon="2.40397">
        <ele>102.8</ele>
        <time>2022-04-20T13:19:56Z</time>
      </trkpt>
      <trkpt lat="49.98142" lon="2.40396">
        <ele>102.8</ele>
        <time>2022-04-20T13:19:57Z</time>
      </trkpt>
      <trkpt lat="49.98144" lon="2.40393">
        <ele>102.9</ele>
        <time>2022-04-20T13:19:58Z</time>
      </trkpt>
      <trkpt lat="49.98144" lon="2.40392">
        <ele>102.9</ele>
        <time>2022-04-20T13:19:59Z</time>
      </trkpt>
      <trkpt lat="49.98145" lon="2.40391">
        <ele>102.9</ele>
        <time>2022-04-20T13:20:00Z</time>
      </trkpt>
      <trkpt lat="49.98146" lon="2.40388">
        <ele>103</ele>
        <time>2022-04-20T13:20:01Z</time>
      </trkpt>
      <trkpt lat="49.98147" lon="2.40387">
        <ele>103</ele>
        <time>2022-04-20T13:20:03Z</time>
      </trkpt>
      <trkpt lat="49.98147" lon="2.40386">
        <ele>103</ele>
        <time>2022-04-20T13:20:04Z</time>
      </trkpt>
      <trkpt lat="49.98148" lon="2.40385">
        <ele>103.1</ele>
        <time>2022-04-20T13:20:05Z</time>
      </trkpt>
      <trkpt lat="49.98149" lon="2.40384">
        <ele>103.1</ele>
        <time>2022-04-20T13:20:06Z</time>
      </trkpt>
      <trkpt lat="49.9815" lon="2.40382">
        <ele>103.1</ele>
        <time>2022-04-20T13:20:07Z</time>
      </trkpt>
      <trkpt lat="49.98152" lon="2.4038">
        <ele>103.2</ele>
        <time>2022-04-20T13:20:08Z</time>
      </trkpt>
      <trkpt lat="49.98152" lon="2.40379">
        <ele>103.2</ele>
        <time>2022-04-20T13:20:09Z</time>
      </trkpt>
      <trkpt lat="49.98153" lon="2.40378">
        <ele>103.2</ele>
        <time>2022-04-20T13:20:10Z</time>
      </trkpt>
      <trkpt lat="49.98154" lon="2.40376">
        <ele>103.3</ele>
        <time>2022-04-20T13:20:12Z</time>
      </trkpt>
      <trkpt lat="49.98156" lon="2.40373">
        <ele>103.3</ele>
        <time>2022-04-20T13:20:14Z</time>
      </trkpt>
      <trkpt lat="49.98157" lon="2.40371">
        <ele>103.3</ele>
        <time>2022-04-20T13:20:15Z</time>
      </trkpt>
      <trkpt lat="49.98158" lon="2.4037">
        <ele>103.3</ele>
        <time>2022-04-20T13:20:16Z</time>
      </trkpt>
      <trkpt lat="49.98158" lon="2.40369">
        <ele>103.3</ele>
        <time>2022-04-20T13:20:17Z</time>
      </trkpt>
      <trkpt lat="49.98159" lon="2.40366">
        <ele>103.4</ele>
        <time>2022-04-20T13:20:18Z</time>
      </trkpt>
      <trkpt lat="49.9816" lon="2.40364">
        <ele>103.4</ele>
        <time>2022-04-20T13:20:19Z</time>
      </trkpt>
      <trkpt lat="49.9816" lon="2.40363">
        <ele>103.4</ele>
        <time>2022-04-20T13:20:20Z</time>
      </trkpt>
      <trkpt lat="49.98161" lon="2.4036">
        <ele>103.4</ele>
        <time>2022-04-20T13:20:22Z</time>
      </trkpt>
      <trkpt lat="49.98161" lon="2.40358">
        <ele>103.5</ele>
        <time>2022-04-20T13:20:23Z</time>
      </trkpt>
      <trkpt lat="49.98162" lon="2.40355">
        <ele>103.5</ele>
        <time>2022-04-20T13:20:24Z</time>
      </trkpt>
      <trkpt lat="49.98162" lon="2.40354">
        <ele>103.5</ele>
        <time>2022-04-20T13:20:25Z</time>
      </trkpt>
      <trkpt lat="49.98162" lon="2.40353">
        <ele>103.5</ele>
        <time>2022-04-20T13:20:26Z</time>
      </trkpt>
      <trkpt lat="49.98164" lon="2.4035">
        <ele>103.6</ele>
        <time>2022-04-20T13:20:28Z</time>
      </trkpt>
      <trkpt lat="49.98164" lon="2.40349">
        <ele>103.6</ele>
        <time>2022-04-20T13:20:29Z</time>
      </trkpt>
      <trkpt lat="49.98165" lon="2.40348">
        <ele>103.6</ele>
        <time>2022-04-20T13:20:30Z</time>
      </trkpt>
      <trkpt lat="49.98165" lon="2.40346">
        <ele>103.6</ele>
        <time>2022-04-20T13:20:31Z</time>
      </trkpt>
      <trkpt lat="49.98166" lon="2.40345">
        <ele>103.6</ele>
        <time>2022-04-20T13:20:32Z</time>
      </trkpt>
      <trkpt lat="49.98167" lon="2.40342">
        <ele>103.7</ele>
        <time>2022-04-20T13:20:34Z</time>
      </trkpt>
      <trkpt lat="49.98167" lon="2.40341">
        <ele>103.7</ele>
        <time>2022-04-20T13:20:35Z</time>
      </trkpt>
      <trkpt lat="49.98167" lon="2.40339">
        <ele>103.7</ele>
        <time>2022-04-20T13:20:36Z</time>
      </trkpt>
      <trkpt lat="49.98168" lon="2.40337">
        <ele>103.8</ele>
        <time>2022-04-20T13:20:37Z</time>
      </trkpt>
      <trkpt lat="49.98169" lon="2.40335">
        <ele>103.8</ele>
        <time>2022-04-20T13:20:39Z</time>
      </trkpt>
      <trkpt lat="49.9817" lon="2.40333">
        <ele>103.8</ele>
        <time>2022-04-20T13:20:40Z</time>
      </trkpt>
      <trkpt lat="49.9817" lon="2.40331">
        <ele>103.9</ele>
        <time>2022-04-20T13:20:41Z</time>
      </trkpt>
      <trkpt lat="49.98171" lon="2.40329">
        <ele>103.9</ele>
        <time>2022-04-20T13:20:42Z</time>
      </trkpt>
      <trkpt lat="49.98171" lon="2.40328">
        <ele>103.9</ele>
        <time>2022-04-20T13:20:43Z</time>
      </trkpt>
      <trkpt lat="49.98171" lon="2.40327">
        <ele>103.9</ele>
        <time>2022-04-20T13:20:44Z</time>
      </trkpt>
      <trkpt lat="49.98172" lon="2.40326">
        <ele>103.9</ele>
        <time>2022-04-20T13:20:45Z</time>
      </trkpt>
      <trkpt lat="49.98172" lon="2.40325">
        <ele>103.9</ele>
        <time>2022-04-20T13:20:47Z</time>
      </trkpt>
      <trkpt lat="49.98172" lon="2.40324">
        <ele>103.9</ele>
        <time>2022-04-20T13:20:48Z</time>
      </trkpt>
      <trkpt lat="49.98173" lon="2.40323">
        <ele>104</ele>
        <time>2022-04-20T13:20:49Z</time>
      </trkpt>
      <trkpt lat="49.98174" lon="2.40322">
        <ele>104</ele>
        <time>2022-04-20T13:20:50Z</time>
      </trkpt>
      <trkpt lat="49.98174" lon="2.4032">
        <ele>104</ele>
        <time>2022-04-20T13:20:51Z</time>
      </trkpt>
      <trkpt lat="49.98176" lon="2.40318">
        <ele>104.1</ele>
        <time>2022-04-20T13:20:52Z</time>
      </trkpt>
      <trkpt lat="49.98177" lon="2.40316">
        <ele>104.1</ele>
        <time>2022-04-20T13:20:54Z</time>
      </trkpt>
      <trkpt lat="49.98177" lon="2.40315">
        <ele>104.1</ele>
        <time>2022-04-20T13:20:55Z</time>
      </trkpt>
      <trkpt lat="49.98178" lon="2.40313">
        <ele>104.1</ele>
        <time>2022-04-20T13:20:57Z</time>
      </trkpt>
      <trkpt lat="49.98179" lon="2.40311">
        <ele>104.2</ele>
        <time>2022-04-20T13:20:58Z</time>
      </trkpt>
      <trkpt lat="49.9818" lon="2.40308">
        <ele>104.2</ele>
        <time>2022-04-20T13:20:59Z</time>
      </trkpt>
      <trkpt lat="49.98181" lon="2.40307">
        <ele>104.2</ele>
        <time>2022-04-20T13:21:00Z</time>
      </trkpt>
      <trkpt lat="49.98181" lon="2.40306">
        <ele>104.2</ele>
        <time>2022-04-20T13:21:01Z</time>
      </trkpt>
      <trkpt lat="49.98183" lon="2.40304">
        <ele>104.3</ele>
        <time>2022-04-20T13:21:03Z</time>
      </trkpt>
      <trkpt lat="49.98183" lon="2.40303">
        <ele>104.3</ele>
        <time>2022-04-20T13:21:04Z</time>
      </trkpt>
      <trkpt lat="49.98184" lon="2.40301">
        <ele>104.3</ele>
        <time>2022-04-20T13:21:05Z</time>
      </trkpt>
      <trkpt lat="49.98185" lon="2.40298">
        <ele>104.4</ele>
        <time>2022-04-20T13:21:07Z</time>
      </trkpt>
      <trkpt lat="49.98186" lon="2.40297">
        <ele>104.4</ele>
        <time>2022-04-20T13:21:08Z</time>
      </trkpt>
      <trkpt lat="49.98186" lon="2.40295">
        <ele>104.4</ele>
        <time>2022-04-20T13:21:09Z</time>
      </trkpt>
      <trkpt lat="49.98187" lon="2.40293">
        <ele>104.4</ele>
        <time>2022-04-20T13:21:10Z</time>
      </trkpt>
      <trkpt lat="49.98187" lon="2.40291">
        <ele>104.5</ele>
        <time>2022-04-20T13:21:11Z</time>
      </trkpt>
      <trkpt lat="49.98188" lon="2.40289">
        <ele>104.5</ele>
        <time>2022-04-20T13:21:12Z</time>
      </trkpt>
      <trkpt lat="49.98189" lon="2.40288">
        <ele>104.5</ele>
        <time>2022-04-20T13:21:14Z</time>
      </trkpt>
      <trkpt lat="49.9819" lon="2.40286">
        <ele>104.5</ele>
        <time>2022-04-20T13:21:15Z</time>
      </trkpt>
      <trkpt lat="49.9819" lon="2.40284">
        <ele>104.6</ele>
        <time>2022-04-20T13:21:16Z</time>
      </trkpt>
      <trkpt lat="49.98192" lon="2.40282">
        <ele>104.6</ele>
        <time>2022-04-20T13:21:17Z</time>
      </trkpt>
      <trkpt lat="49.98192" lon="2.40281">
        <ele>104.6</ele>
        <time>2022-04-20T13:21:18Z</time>
      </trkpt>
      <trkpt lat="49.98193" lon="2.40279">
        <ele>104.6</ele>
        <time>2022-04-20T13:21:19Z</time>
      </trkpt>
      <trkpt lat="49.98194" lon="2.40276">
        <ele>104.7</ele>
        <time>2022-04-20T13:21:20Z</time>
      </trkpt>
      <trkpt lat="49.98195" lon="2.40275">
        <ele>104.7</ele>
        <time>2022-04-20T13:21:22Z</time>
      </trkpt>
      <trkpt lat="49.98195" lon="2.40274">
        <ele>104.7</ele>
        <time>2022-04-20T13:21:23Z</time>
      </trkpt>
      <trkpt lat="49.98196" lon="2.40272">
        <ele>104.7</ele>
        <time>2022-04-20T13:21:24Z</time>
      </trkpt>
      <trkpt lat="49.98196" lon="2.40271">
        <ele>104.8</ele>
        <time>2022-04-20T13:21:25Z</time>
      </trkpt>
      <trkpt lat="49.98198" lon="2.40268">
        <ele>104.8</ele>
        <time>2022-04-20T13:21:26Z</time>
      </trkpt>
      <trkpt lat="49.98198" lon="2.40267">
        <ele>104.8</ele>
        <time>2022-04-20T13:21:27Z</time>
      </trkpt>
      <trkpt lat="49.98198" lon="2.40266">
        <ele>104.8</ele>
        <time>2022-04-20T13:21:28Z</time>
      </trkpt>
      <trkpt lat="49.982" lon="2.40263">
        <ele>104.9</ele>
        <time>2022-04-20T13:21:29Z</time>
      </trkpt>
      <trkpt lat="49.982" lon="2.40262">
        <ele>104.9</ele>
        <time>2022-04-20T13:21:31Z</time>
      </trkpt>
      <trkpt lat="49.98201" lon="2.4026">
        <ele>104.9</ele>
        <time>2022-04-20T13:21:32Z</time>
      </trkpt>
      <trkpt lat="49.98202" lon="2.40259">
        <ele>104.9</ele>
        <time>2022-04-20T13:21:33Z</time>
      </trkpt>
      <trkpt lat="49.98202" lon="2.40257">
        <ele>105</ele>
        <time>2022-04-20T13:21:34Z</time>
      </trkpt>
      <trkpt lat="49.98203" lon="2.40256">
        <ele>105</ele>
        <time>2022-04-20T13:21:35Z</time>
      </trkpt>
      <trkpt lat="49.98203" lon="2.40254">
        <ele>105</ele>
        <time>2022-04-20T13:21:36Z</time>
      </trkpt>
      <trkpt lat="49.98203" lon="2.40252">
        <ele>105</ele>
        <time>2022-04-20T13:21:37Z</time>
      </trkpt>
      <trkpt lat="49.98204" lon="2.40251">
        <ele>105</ele>
        <time>2022-04-20T13:21:38Z</time>
      </trkpt>
      <trkpt lat="49.98205" lon="2.40248">
        <ele>105.1</ele>
        <time>2022-04-20T13:21:40Z</time>
      </trkpt>
      <trkpt lat="49.98205" lon="2.40246">
        <ele>105.1</ele>
        <time>2022-04-20T13:21:41Z</time>
      </trkpt>
      <trkpt lat="49.98206" lon="2.40245">
        <ele>105.1</ele>
        <time>2022-04-20T13:21:42Z</time>
      </trkpt>
      <trkpt lat="49.98207" lon="2.40243">
        <ele>105.1</ele>
        <time>2022-04-20T13:21:43Z</time>
      </trkpt>
      <trkpt lat="49.98207" lon="2.40241">
        <ele>105.2</ele>
        <time>2022-04-20T13:21:44Z</time>
      </trkpt>
      <trkpt lat="49.98208" lon="2.40239">
        <ele>105.2</ele>
        <time>2022-04-20T13:21:45Z</time>
      </trkpt>
      <trkpt lat="49.98209" lon="2.40236">
        <ele>105.2</ele>
        <time>2022-04-20T13:21:46Z</time>
      </trkpt>
      <trkpt lat="49.98209" lon="2.40235">
        <ele>105.2</ele>
        <time>2022-04-20T13:21:48Z</time>
      </trkpt>
      <trkpt lat="49.9821" lon="2.40234">
        <ele>105.2</ele>
        <time>2022-04-20T13:21:49Z</time>
      </trkpt>
      <trkpt lat="49.9821" lon="2.40232">
        <ele>105.3</ele>
        <time>2022-04-20T13:21:50Z</time>
      </trkpt>
      <trkpt lat="49.98211" lon="2.4023">
        <ele>105.3</ele>
        <time>2022-04-20T13:21:51Z</time>
      </trkpt>
      <trkpt lat="49.98212" lon="2.40228">
        <ele>105.3</ele>
        <time>2022-04-20T13:21:52Z</time>
      </trkpt>
      <trkpt lat="49.98212" lon="2.40226">
        <ele>105.3</ele>
        <time>2022-04-20T13:21:53Z</time>
      </trkpt>
      <trkpt lat="49.98213" lon="2.40224">
        <ele>105.3</ele>
        <time>2022-04-20T13:21:55Z</time>
      </trkpt>
      <trkpt lat="49.98214" lon="2.40221">
        <ele>105.3</ele>
        <time>2022-04-20T13:21:56Z</time>
      </trkpt>
      <trkpt lat="49.98214" lon="2.4022">
        <ele>105.4</ele>
        <time>2022-04-20T13:21:57Z</time>
      </trkpt>
      <trkpt lat="49.98214" lon="2.40218">
        <ele>105.4</ele>
        <time>2022-04-20T13:21:58Z</time>
      </trkpt>
      <trkpt lat="49.98215" lon="2.40215">
        <ele>105.4</ele>
        <time>2022-04-20T13:21:59Z</time>
      </trkpt>
      <trkpt lat="49.98215" lon="2.40214">
        <ele>105.4</ele>
        <time>2022-04-20T13:22:00Z</time>
      </trkpt>
      <trkpt lat="49.98216" lon="2.40213">
        <ele>105.4</ele>
        <time>2022-04-20T13:22:01Z</time>
      </trkpt>
      <trkpt lat="49.98216" lon="2.40212">
        <ele>105.4</ele>
        <time>2022-04-20T13:22:02Z</time>
      </trkpt>
      <trkpt lat="49.98217" lon="2.4021">
        <ele>105.4</ele>
        <time>2022-04-20T13:22:04Z</time>
      </trkpt>
      <trkpt lat="49.98218" lon="2.40209">
        <ele>105.4</ele>
        <time>2022-04-20T13:22:05Z</time>
      </trkpt>
      <trkpt lat="49.98219" lon="2.40206">
        <ele>105.4</ele>
        <time>2022-04-20T13:22:06Z</time>
      </trkpt>
      <trkpt lat="49.9822" lon="2.40205">
        <ele>105.4</ele>
        <time>2022-04-20T13:22:07Z</time>
      </trkpt>
      <trkpt lat="49.9822" lon="2.40204">
        <ele>105.4</ele>
        <time>2022-04-20T13:22:08Z</time>
      </trkpt>
      <trkpt lat="49.98221" lon="2.40203">
        <ele>105.4</ele>
        <time>2022-04-20T13:22:09Z</time>
      </trkpt>
      <trkpt lat="49.98222" lon="2.40201">
        <ele>105.5</ele>
        <time>2022-04-20T13:22:10Z</time>
      </trkpt>
      <trkpt lat="49.98223" lon="2.402">
        <ele>105.5</ele>
        <time>2022-04-20T13:22:12Z</time>
      </trkpt>
      <trkpt lat="49.98223" lon="2.40198">
        <ele>105.5</ele>
        <time>2022-04-20T13:22:13Z</time>
      </trkpt>
      <trkpt lat="49.98224" lon="2.40197">
        <ele>105.5</ele>
        <time>2022-04-20T13:22:14Z</time>
      </trkpt>
      <trkpt lat="49.98225" lon="2.40194">
        <ele>105.5</ele>
        <time>2022-04-20T13:22:15Z</time>
      </trkpt>
      <trkpt lat="49.98225" lon="2.40193">
        <ele>105.5</ele>
        <time>2022-04-20T13:22:16Z</time>
      </trkpt>
      <trkpt lat="49.98226" lon="2.40192">
        <ele>105.5</ele>
        <time>2022-04-20T13:22:17Z</time>
      </trkpt>
      <trkpt lat="49.98227" lon="2.40191">
        <ele>105.5</ele>
        <time>2022-04-20T13:22:18Z</time>
      </trkpt>
      <trkpt lat="49.98227" lon="2.40189">
        <ele>105.5</ele>
        <time>2022-04-20T13:22:19Z</time>
      </trkpt>
      <trkpt lat="49.98227" lon="2.40188">
        <ele>105.5</ele>
        <time>2022-04-20T13:22:20Z</time>
      </trkpt>
      <trkpt lat="49.98228" lon="2.40185">
        <ele>105.6</ele>
        <time>2022-04-20T13:22:22Z</time>
      </trkpt>
      <trkpt lat="49.98228" lon="2.40184">
        <ele>105.6</ele>
        <time>2022-04-20T13:22:23Z</time>
      </trkpt>
      <trkpt lat="49.98229" lon="2.40183">
        <ele>105.6</ele>
        <time>2022-04-20T13:22:24Z</time>
      </trkpt>
      <trkpt lat="49.9823" lon="2.4018">
        <ele>105.6</ele>
        <time>2022-04-20T13:22:25Z</time>
      </trkpt>
      <trkpt lat="49.98231" lon="2.40179">
        <ele>105.6</ele>
        <time>2022-04-20T13:22:26Z</time>
      </trkpt>
      <trkpt lat="49.98231" lon="2.40178">
        <ele>105.6</ele>
        <time>2022-04-20T13:22:27Z</time>
      </trkpt>
      <trkpt lat="49.98233" lon="2.40175">
        <ele>105.6</ele>
        <time>2022-04-20T13:22:28Z</time>
      </trkpt>
      <trkpt lat="49.98233" lon="2.40174">
        <ele>105.7</ele>
        <time>2022-04-20T13:22:29Z</time>
      </trkpt>
      <trkpt lat="49.98234" lon="2.40172">
        <ele>105.7</ele>
        <time>2022-04-20T13:22:31Z</time>
      </trkpt>
      <trkpt lat="49.98234" lon="2.40171">
        <ele>105.7</ele>
        <time>2022-04-20T13:22:32Z</time>
      </trkpt>
      <trkpt lat="49.98235" lon="2.4017">
        <ele>105.7</ele>
        <time>2022-04-20T13:22:33Z</time>
      </trkpt>
      <trkpt lat="49.98235" lon="2.40168">
        <ele>105.7</ele>
        <time>2022-04-20T13:22:34Z</time>
      </trkpt>
      <trkpt lat="49.98236" lon="2.40167">
        <ele>105.7</ele>
        <time>2022-04-20T13:22:35Z</time>
      </trkpt>
      <trkpt lat="49.98237" lon="2.40165">
        <ele>105.7</ele>
        <time>2022-04-20T13:22:36Z</time>
      </trkpt>
      <trkpt lat="49.98238" lon="2.40164">
        <ele>105.7</ele>
        <time>2022-04-20T13:22:37Z</time>
      </trkpt>
      <trkpt lat="49.98239" lon="2.40162">
        <ele>105.7</ele>
        <time>2022-04-20T13:22:38Z</time>
      </trkpt>
      <trkpt lat="49.9824" lon="2.40159">
        <ele>105.7</ele>
        <time>2022-04-20T13:22:39Z</time>
      </trkpt>
      <trkpt lat="49.98241" lon="2.40158">
        <ele>105.7</ele>
        <time>2022-04-20T13:22:41Z</time>
      </trkpt>
      <trkpt lat="49.98241" lon="2.40157">
        <ele>105.7</ele>
        <time>2022-04-20T13:22:42Z</time>
      </trkpt>
      <trkpt lat="49.98242" lon="2.40156">
        <ele>105.7</ele>
        <time>2022-04-20T13:22:43Z</time>
      </trkpt>
      <trkpt lat="49.98243" lon="2.40153">
        <ele>105.7</ele>
        <time>2022-04-20T13:22:45Z</time>
      </trkpt>
      <trkpt lat="49.98244" lon="2.40152">
        <ele>105.7</ele>
        <time>2022-04-20T13:22:46Z</time>
      </trkpt>
      <trkpt lat="49.98245" lon="2.4015">
        <ele>105.7</ele>
        <time>2022-04-20T13:22:47Z</time>
      </trkpt>
      <trkpt lat="49.98246" lon="2.40149">
        <ele>105.7</ele>
        <time>2022-04-20T13:22:48Z</time>
      </trkpt>
      <trkpt lat="49.98246" lon="2.40148">
        <ele>105.7</ele>
        <time>2022-04-20T13:22:49Z</time>
      </trkpt>
      <trkpt lat="49.98247" lon="2.40147">
        <ele>105.7</ele>
        <time>2022-04-20T13:22:50Z</time>
      </trkpt>
      <trkpt lat="49.98248" lon="2.40146">
        <ele>105.7</ele>
        <time>2022-04-20T13:22:51Z</time>
      </trkpt>
      <trkpt lat="49.98249" lon="2.40144">
        <ele>105.8</ele>
        <time>2022-04-20T13:22:52Z</time>
      </trkpt>
      <trkpt lat="49.9825" lon="2.40142">
        <ele>105.8</ele>
        <time>2022-04-20T13:22:53Z</time>
      </trkpt>
      <trkpt lat="49.98251" lon="2.40139">
        <ele>105.8</ele>
        <time>2022-04-20T13:22:55Z</time>
      </trkpt>
      <trkpt lat="49.98252" lon="2.40138">
        <ele>105.8</ele>
        <time>2022-04-20T13:22:56Z</time>
      </trkpt>
      <trkpt lat="49.98252" lon="2.40137">
        <ele>105.8</ele>
        <time>2022-04-20T13:22:57Z</time>
      </trkpt>
      <trkpt lat="49.98253" lon="2.40135">
        <ele>105.8</ele>
        <time>2022-04-20T13:22:58Z</time>
      </trkpt>
      <trkpt lat="49.98254" lon="2.40134">
        <ele>105.8</ele>
        <time>2022-04-20T13:23:00Z</time>
      </trkpt>
      <trkpt lat="49.98254" lon="2.40133">
        <ele>105.8</ele>
        <time>2022-04-20T13:23:01Z</time>
      </trkpt>
      <trkpt lat="49.98254" lon="2.40131">
        <ele>105.8</ele>
        <time>2022-04-20T13:23:02Z</time>
      </trkpt>
      <trkpt lat="49.98255" lon="2.4013">
        <ele>105.8</ele>
        <time>2022-04-20T13:23:03Z</time>
      </trkpt>
      <trkpt lat="49.98255" lon="2.40129">
        <ele>105.8</ele>
        <time>2022-04-20T13:23:04Z</time>
      </trkpt>
      <trkpt lat="49.98256" lon="2.40126">
        <ele>105.8</ele>
        <time>2022-04-20T13:23:06Z</time>
      </trkpt>
      <trkpt lat="49.98257" lon="2.40124">
        <ele>105.8</ele>
        <time>2022-04-20T13:23:07Z</time>
      </trkpt>
      <trkpt lat="49.98258" lon="2.40123">
        <ele>105.8</ele>
        <time>2022-04-20T13:23:08Z</time>
      </trkpt>
      <trkpt lat="49.98258" lon="2.40122">
        <ele>105.8</ele>
        <time>2022-04-20T13:23:09Z</time>
      </trkpt>
      <trkpt lat="49.98259" lon="2.40121">
        <ele>105.8</ele>
        <time>2022-04-20T13:23:10Z</time>
      </trkpt>
      <trkpt lat="49.9826" lon="2.40119">
        <ele>105.8</ele>
        <time>2022-04-20T13:23:12Z</time>
      </trkpt>
      <trkpt lat="49.98261" lon="2.40118">
        <ele>105.8</ele>
        <time>2022-04-20T13:23:13Z</time>
      </trkpt>
      <trkpt lat="49.98261" lon="2.40117">
        <ele>105.8</ele>
        <time>2022-04-20T13:23:14Z</time>
      </trkpt>
      <trkpt lat="49.98262" lon="2.40115">
        <ele>105.8</ele>
        <time>2022-04-20T13:23:15Z</time>
      </trkpt>
      <trkpt lat="49.98262" lon="2.40114">
        <ele>105.8</ele>
        <time>2022-04-20T13:23:16Z</time>
      </trkpt>
      <trkpt lat="49.98263" lon="2.40112">
        <ele>105.8</ele>
        <time>2022-04-20T13:23:17Z</time>
      </trkpt>
      <trkpt lat="49.98264" lon="2.40111">
        <ele>105.8</ele>
        <time>2022-04-20T13:23:18Z</time>
      </trkpt>
      <trkpt lat="49.98264" lon="2.40109">
        <ele>105.8</ele>
        <time>2022-04-20T13:23:20Z</time>
      </trkpt>
      <trkpt lat="49.98265" lon="2.40108">
        <ele>105.8</ele>
        <time>2022-04-20T13:23:21Z</time>
      </trkpt>
      <trkpt lat="49.98265" lon="2.40106">
        <ele>105.8</ele>
        <time>2022-04-20T13:23:22Z</time>
      </trkpt>
      <trkpt lat="49.98266" lon="2.40105">
        <ele>105.8</ele>
        <time>2022-04-20T13:23:23Z</time>
      </trkpt>
      <trkpt lat="49.98267" lon="2.40104">
        <ele>105.8</ele>
        <time>2022-04-20T13:23:24Z</time>
      </trkpt>
      <trkpt lat="49.98267" lon="2.40103">
        <ele>105.7</ele>
        <time>2022-04-20T13:23:25Z</time>
      </trkpt>
      <trkpt lat="49.98268" lon="2.40102">
        <ele>105.7</ele>
        <time>2022-04-20T13:23:26Z</time>
      </trkpt>
      <trkpt lat="49.98268" lon="2.40103">
        <ele>105.7</ele>
        <time>2022-04-20T13:23:27Z</time>
      </trkpt>
      <trkpt lat="49.98269" lon="2.40103">
        <ele>105.7</ele>
        <time>2022-04-20T13:23:28Z</time>
      </trkpt>
      <trkpt lat="49.98269" lon="2.40103">
        <ele>105.7</ele>
        <time>2022-04-20T13:23:30Z</time>
      </trkpt>
      <trkpt lat="49.9827" lon="2.40102">
        <ele>105.7</ele>
        <time>2022-04-20T13:23:31Z</time>
      </trkpt>
      <trkpt lat="49.9827" lon="2.40101">
        <ele>105.7</ele>
        <time>2022-04-20T13:23:32Z</time>
      </trkpt>
      <trkpt lat="49.98271" lon="2.40099">
        <ele>105.7</ele>
        <time>2022-04-20T13:23:33Z</time>
      </trkpt>
      <trkpt lat="49.98271" lon="2.40098">
        <ele>105.7</ele>
        <time>2022-04-20T13:23:34Z</time>
      </trkpt>
      <trkpt lat="49.98272" lon="2.40097">
        <ele>105.7</ele>
        <time>2022-04-20T13:23:36Z</time>
      </trkpt>
      <trkpt lat="49.98272" lon="2.40096">
        <ele>105.7</ele>
        <time>2022-04-20T13:23:37Z</time>
      </trkpt>
      <trkpt lat="49.98273" lon="2.40095">
        <ele>105.7</ele>
        <time>2022-04-20T13:23:38Z</time>
      </trkpt>
      <trkpt lat="49.98273" lon="2.40095">
        <ele>105.7</ele>
        <time>2022-04-20T13:23:40Z</time>
      </trkpt>
      <trkpt lat="49.98273" lon="2.40095">
        <ele>105.7</ele>
        <time>2022-04-20T13:23:41Z</time>
      </trkpt>
      <trkpt lat="49.98273" lon="2.40095">
        <ele>105.7</ele>
        <time>2022-04-20T13:23:42Z</time>
      </trkpt>
      <trkpt lat="49.98273" lon="2.40095">
        <ele>105.7</ele>
        <time>2022-04-20T13:23:43Z</time>
      </trkpt>
      <trkpt lat="49.98273" lon="2.40095">
        <ele>105.7</ele>
        <time>2022-04-20T13:23:44Z</time>
      </trkpt>
      <trkpt lat="49.98273" lon="2.40095">
        <ele>105.7</ele>
        <time>2022-04-20T13:23:45Z</time>
      </trkpt>
      <trkpt lat="49.98273" lon="2.40095">
        <ele>105.7</ele>
        <time>2022-04-20T13:23:46Z</time>
      </trkpt>
      <trkpt lat="49.98273" lon="2.40095">
        <ele>105.7</ele>
        <time>2022-04-20T13:23:47Z</time>
      </trkpt>
      <trkpt lat="49.98273" lon="2.40095">
        <ele>105.7</ele>
        <time>2022-04-20T13:23:48Z</time>
      </trkpt>
      <trkpt lat="49.98273" lon="2.40095">
        <ele>105.7</ele>
        <time>2022-04-20T13:23:49Z</time>
      </trkpt>
      <trkpt lat="49.98273" lon="2.40095">
        <ele>105.7</ele>
        <time>2022-04-20T13:23:50Z</time>
      </trkpt>
      <trkpt lat="49.98273" lon="2.40095">
        <ele>105.7</ele>
        <time>2022-04-20T13:23:51Z</time>
      </trkpt>
      <trkpt lat="49.98273" lon="2.40095">
        <ele>105.7</ele>
        <time>2022-04-20T13:23:52Z</time>
      </trkpt>
      <trkpt lat="49.98273" lon="2.40095">
        <ele>105.7</ele>
        <time>2022-04-20T13:23:53Z</time>
      </trkpt>
      <trkpt lat="49.98273" lon="2.40095">
        <ele>105.7</ele>
        <time>2022-04-20T13:23:54Z</time>
      </trkpt>
      <trkpt lat="49.98272" lon="2.40095">
        <ele>105.7</ele>
        <time>2022-04-20T13:23:55Z</time>
      </trkpt>
      <trkpt lat="49.98272" lon="2.40095">
        <ele>105.7</ele>
        <time>2022-04-20T13:23:56Z</time>
      </trkpt>
      <trkpt lat="49.98272" lon="2.40095">
        <ele>105.7</ele>
        <time>2022-04-20T13:23:57Z</time>
      </trkpt>
      <trkpt lat="49.98272" lon="2.40095">
        <ele>105.7</ele>
        <time>2022-04-20T13:23:58Z</time>
      </trkpt>
      <trkpt lat="49.98272" lon="2.40095">
        <ele>105.7</ele>
        <time>2022-04-20T13:23:59Z</time>
      </trkpt>
      <trkpt lat="49.98272" lon="2.40096">
        <ele>105.7</ele>
        <time>2022-04-20T13:24:00Z</time>
      </trkpt>
      <trkpt lat="49.98272" lon="2.40096">
        <ele>105.7</ele>
        <time>2022-04-20T13:24:01Z</time>
      </trkpt>
      <trkpt lat="49.98272" lon="2.40096">
        <ele>105.7</ele>
        <time>2022-04-20T13:24:02Z</time>
      </trkpt>
      <trkpt lat="49.98272" lon="2.40096">
        <ele>105.7</ele>
        <time>2022-04-20T13:24:03Z</time>
      </trkpt>
      <trkpt lat="49.98272" lon="2.40096">
        <ele>105.7</ele>
        <time>2022-04-20T13:24:04Z</time>
      </trkpt>
      <trkpt lat="49.98272" lon="2.40096">
        <ele>105.7</ele>
        <time>2022-04-20T13:24:05Z</time>
      </trkpt>
      <trkpt lat="49.98272" lon="2.40096">
        <ele>105.7</ele>
        <time>2022-04-20T13:24:06Z</time>
      </trkpt>
      <trkpt lat="49.98272" lon="2.40096">
        <ele>105.7</ele>
        <time>2022-04-20T13:24:07Z</time>
      </trkpt>
      <trkpt lat="49.98272" lon="2.40096">
        <ele>105.7</ele>
        <time>2022-04-20T13:24:08Z</time>
      </trkpt>
      <trkpt lat="49.98272" lon="2.40096">
        <ele>105.7</ele>
        <time>2022-04-20T13:24:09Z</time>
      </trkpt>
      <trkpt lat="49.98272" lon="2.40096">
        <ele>105.7</ele>
        <time>2022-04-20T13:24:10Z</time>
      </trkpt>
      <trkpt lat="49.98272" lon="2.40096">
        <ele>105.7</ele>
        <time>2022-04-20T13:24:11Z</time>
      </trkpt>
      <trkpt lat="49.98272" lon="2.40096">
        <ele>105.7</ele>
        <time>2022-04-20T13:24:12Z</time>
      </trkpt>
      <trkpt lat="49.98272" lon="2.40096">
        <ele>105.7</ele>
        <time>2022-04-20T13:24:13Z</time>
      </trkpt>
      <trkpt lat="49.98272" lon="2.40096">
        <ele>105.7</ele>
        <time>2022-04-20T13:24:14Z</time>
      </trkpt>
      <trkpt lat="49.98272" lon="2.40096">
        <ele>105.7</ele>
        <time>2022-04-20T13:24:15Z</time>
      </trkpt>
      <trkpt lat="49.98272" lon="2.40096">
        <ele>105.7</ele>
        <time>2022-04-20T13:24:16Z</time>
      </trkpt>
      <trkpt lat="49.98272" lon="2.40096">
        <ele>105.7</ele>
        <time>2022-04-20T13:24:17Z</time>
      </trkpt>
      <trkpt lat="49.98272" lon="2.40096">
        <ele>105.7</ele>
        <time>2022-04-20T13:24:18Z</time>
      </trkpt>
      <trkpt lat="49.98271" lon="2.40096">
        <ele>105.7</ele>
        <time>2022-04-20T13:24:19Z</time>
      </trkpt>
      <trkpt lat="49.98271" lon="2.40096">
        <ele>105.7</ele>
        <time>2022-04-20T13:24:20Z</time>
      </trkpt>
      <trkpt lat="49.98271" lon="2.40096">
        <ele>105.7</ele>
        <time>2022-04-20T13:24:21Z</time>
      </trkpt>
      <trkpt lat="49.98271" lon="2.40096">
        <ele>105.7</ele>
        <time>2022-04-20T13:24:22Z</time>
      </trkpt>
      <trkpt lat="49.98271" lon="2.40096">
        <ele>105.7</ele>
        <time>2022-04-20T13:24:23Z</time>
      </trkpt>
      <trkpt lat="49.98271" lon="2.40096">
        <ele>105.7</ele>
        <time>2022-04-20T13:24:24Z</time>
      </trkpt>
      <trkpt lat="49.98271" lon="2.40096">
        <ele>105.7</ele>
        <time>2022-04-20T13:24:25Z</time>
      </trkpt>
      <trkpt lat="49.98271" lon="2.40097">
        <ele>105.7</ele>
        <time>2022-04-20T13:24:26Z</time>
      </trkpt>
      <trkpt lat="49.98271" lon="2.40097">
        <ele>105.7</ele>
        <time>2022-04-20T13:24:27Z</time>
      </trkpt>
      <trkpt lat="49.98271" lon="2.40097">
        <ele>105.7</ele>
        <time>2022-04-20T13:24:28Z</time>
      </trkpt>
      <trkpt lat="49.98271" lon="2.40097">
        <ele>105.7</ele>
        <time>2022-04-20T13:24:29Z</time>
      </trkpt>
      <trkpt lat="49.98271" lon="2.40097">
        <ele>105.7</ele>
        <time>2022-04-20T13:24:30Z</time>
      </trkpt>
      <trkpt lat="49.98271" lon="2.40097">
        <ele>105.7</ele>
        <time>2022-04-20T13:24:31Z</time>
      </trkpt>
      <trkpt lat="49.98271" lon="2.40097">
        <ele>105.7</ele>
        <time>2022-04-20T13:24:32Z</time>
      </trkpt>
      <trkpt lat="49.98271" lon="2.40097">
        <ele>105.7</ele>
        <time>2022-04-20T13:24:33Z</time>
      </trkpt>
      <trkpt lat="49.98271" lon="2.40097">
        <ele>105.7</ele>
        <time>2022-04-20T13:24:34Z</time>
      </trkpt>
      <trkpt lat="49.98271" lon="2.40097">
        <ele>105.7</ele>
        <time>2022-04-20T13:24:35Z</time>
      </trkpt>
      <trkpt lat="49.98271" lon="2.40097">
        <ele>105.7</ele>
        <time>2022-04-20T13:24:36Z</time>
      </trkpt>
      <trkpt lat="49.98271" lon="2.40097">
        <ele>105.7</ele>
        <time>2022-04-20T13:24:37Z</time>
      </trkpt>
      <trkpt lat="49.98271" lon="2.40097">
        <ele>105.7</ele>
        <time>2022-04-20T13:24:38Z</time>
      </trkpt>
      <trkpt lat="49.98271" lon="2.40097">
        <ele>105.7</ele>
        <time>2022-04-20T13:24:39Z</time>
      </trkpt>
      <trkpt lat="49.98271" lon="2.40097">
        <ele>105.7</ele>
        <time>2022-04-20T13:24:40Z</time>
      </trkpt>
      <trkpt lat="49.98271" lon="2.40097">
        <ele>105.7</ele>
        <time>2022-04-20T13:24:41Z</time>
      </trkpt>
      <trkpt lat="49.98271" lon="2.40097">
        <ele>105.7</ele>
        <time>2022-04-20T13:24:42Z</time>
      </trkpt>
      <trkpt lat="49.9827" lon="2.40097">
        <ele>105.7</ele>
        <time>2022-04-20T13:24:43Z</time>
      </trkpt>
      <trkpt lat="49.9827" lon="2.40097">
        <ele>105.7</ele>
        <time>2022-04-20T13:24:44Z</time>
      </trkpt>
      <trkpt lat="49.9827" lon="2.40097">
        <ele>105.7</ele>
        <time>2022-04-20T13:24:45Z</time>
      </trkpt>
      <trkpt lat="49.9827" lon="2.40097">
        <ele>105.7</ele>
        <time>2022-04-20T13:24:46Z</time>
      </trkpt>
      <trkpt lat="49.9827" lon="2.40097">
        <ele>105.7</ele>
        <time>2022-04-20T13:24:47Z</time>
      </trkpt>
      <trkpt lat="49.9827" lon="2.40097">
        <ele>105.7</ele>
        <time>2022-04-20T13:24:48Z</time>
      </trkpt>
      <trkpt lat="49.9827" lon="2.40097">
        <ele>105.7</ele>
        <time>2022-04-20T13:24:49Z</time>
      </trkpt>
      <trkpt lat="49.9827" lon="2.40097">
        <ele>105.7</ele>
        <time>2022-04-20T13:24:50Z</time>
      </trkpt>
      <trkpt lat="49.9827" lon="2.40097">
        <ele>105.7</ele>
        <time>2022-04-20T13:24:51Z</time>
      </trkpt>
      <trkpt lat="49.9827" lon="2.40098">
        <ele>105.7</ele>
        <time>2022-04-20T13:24:52Z</time>
      </trkpt>
      <trkpt lat="49.9827" lon="2.40098">
        <ele>105.6</ele>
        <time>2022-04-20T13:24:53Z</time>
      </trkpt>
      <trkpt lat="49.9827" lon="2.40098">
        <ele>105.6</ele>
        <time>2022-04-20T13:24:54Z</time>
      </trkpt>
      <trkpt lat="49.9827" lon="2.40098">
        <ele>105.6</ele>
        <time>2022-04-20T13:24:55Z</time>
      </trkpt>
      <trkpt lat="49.9827" lon="2.40098">
        <ele>105.6</ele>
        <time>2022-04-20T13:24:56Z</time>
      </trkpt>
      <trkpt lat="49.9827" lon="2.40098">
        <ele>105.6</ele>
        <time>2022-04-20T13:24:57Z</time>
      </trkpt>
      <trkpt lat="49.9827" lon="2.40098">
        <ele>105.6</ele>
        <time>2022-04-20T13:24:58Z</time>
      </trkpt>
      <trkpt lat="49.9827" lon="2.40098">
        <ele>105.6</ele>
        <time>2022-04-20T13:24:59Z</time>
      </trkpt>
      <trkpt lat="49.9827" lon="2.40098">
        <ele>105.6</ele>
        <time>2022-04-20T13:25:00Z</time>
      </trkpt>
      <trkpt lat="49.9827" lon="2.40098">
        <ele>105.6</ele>
        <time>2022-04-20T13:25:01Z</time>
      </trkpt>
      <trkpt lat="49.9827" lon="2.40098">
        <ele>105.6</ele>
        <time>2022-04-20T13:25:02Z</time>
      </trkpt>
      <trkpt lat="49.9827" lon="2.40098">
        <ele>105.6</ele>
        <time>2022-04-20T13:25:03Z</time>
      </trkpt>
      <trkpt lat="49.9827" lon="2.40098">
        <ele>105.6</ele>
        <time>2022-04-20T13:25:04Z</time>
      </trkpt>
      <trkpt lat="49.9827" lon="2.40098">
        <ele>105.6</ele>
        <time>2022-04-20T13:25:05Z</time>
      </trkpt>
      <trkpt lat="49.9827" lon="2.40098">
        <ele>105.6</ele>
        <time>2022-04-20T13:25:06Z</time>
      </trkpt>
      <trkpt lat="49.98269" lon="2.40098">
        <ele>105.6</ele>
        <time>2022-04-20T13:25:07Z</time>
      </trkpt>
      <trkpt lat="49.98269" lon="2.40098">
        <ele>105.6</ele>
        <time>2022-04-20T13:25:08Z</time>
      </trkpt>
      <trkpt lat="49.98269" lon="2.40098">
        <ele>105.6</ele>
        <time>2022-04-20T13:25:09Z</time>
      </trkpt>
      <trkpt lat="49.98269" lon="2.40098">
        <ele>105.6</ele>
        <time>2022-04-20T13:25:10Z</time>
      </trkpt>
      <trkpt lat="49.98269" lon="2.40098">
        <ele>105.6</ele>
        <time>2022-04-20T13:25:11Z</time>
      </trkpt>
      <trkpt lat="49.98269" lon="2.40098">
        <ele>105.6</ele>
        <time>2022-04-20T13:25:12Z</time>
      </trkpt>
      <trkpt lat="49.98269" lon="2.40098">
        <ele>105.6</ele>
        <time>2022-04-20T13:25:13Z</time>
      </trkpt>
      <trkpt lat="49.98268" lon="2.40098">
        <ele>105.6</ele>
        <time>2022-04-20T13:25:14Z</time>
      </trkpt>
      <trkpt lat="49.98269" lon="2.40098">
        <ele>105.6</ele>
        <time>2022-04-20T13:25:15Z</time>
      </trkpt>
      <trkpt lat="49.98269" lon="2.40098">
        <ele>105.6</ele>
        <time>2022-04-20T13:25:16Z</time>
      </trkpt>
      <trkpt lat="49.98269" lon="2.40098">
        <ele>105.6</ele>
        <time>2022-04-20T13:25:17Z</time>
      </trkpt>
      <trkpt lat="49.98269" lon="2.40098">
        <ele>105.6</ele>
        <time>2022-04-20T13:25:18Z</time>
      </trkpt>
      <trkpt lat="49.98269" lon="2.40098">
        <ele>105.6</ele>
        <time>2022-04-20T13:25:19Z</time>
      </trkpt>
      <trkpt lat="49.98269" lon="2.40098">
        <ele>105.6</ele>
        <time>2022-04-20T13:25:20Z</time>
      </trkpt>
      <trkpt lat="49.98269" lon="2.40098">
        <ele>105.6</ele>
        <time>2022-04-20T13:25:21Z</time>
      </trkpt>
      <trkpt lat="49.98269" lon="2.40098">
        <ele>105.6</ele>
        <time>2022-04-20T13:25:22Z</time>
      </trkpt>
      <trkpt lat="49.98269" lon="2.40098">
        <ele>105.6</ele>
        <time>2022-04-20T13:25:23Z</time>
      </trkpt>
      <trkpt lat="49.98269" lon="2.40097">
        <ele>105.6</ele>
        <time>2022-04-20T13:25:24Z</time>
      </trkpt>
      <trkpt lat="49.98269" lon="2.40097">
        <ele>105.6</ele>
        <time>2022-04-20T13:25:25Z</time>
      </trkpt>
      <trkpt lat="49.98269" lon="2.40097">
        <ele>105.6</ele>
        <time>2022-04-20T13:25:26Z</time>
      </trkpt>
      <trkpt lat="49.98269" lon="2.40097">
        <ele>105.6</ele>
        <time>2022-04-20T13:25:27Z</time>
      </trkpt>
      <trkpt lat="49.98269" lon="2.40097">
        <ele>105.6</ele>
        <time>2022-04-20T13:25:28Z</time>
      </trkpt>
      <trkpt lat="49.98269" lon="2.40097">
        <ele>105.6</ele>
        <time>2022-04-20T13:25:29Z</time>
      </trkpt>
      <trkpt lat="49.98269" lon="2.40097">
        <ele>105.6</ele>
        <time>2022-04-20T13:25:30Z</time>
      </trkpt>
      <trkpt lat="49.98269" lon="2.40097">
        <ele>105.6</ele>
        <time>2022-04-20T13:25:31Z</time>
      </trkpt>
      <trkpt lat="49.98269" lon="2.40097">
        <ele>105.6</ele>
        <time>2022-04-20T13:25:32Z</time>
      </trkpt>
      <trkpt lat="49.98269" lon="2.40096">
        <ele>105.6</ele>
        <time>2022-04-20T13:25:33Z</time>
      </trkpt>
      <trkpt lat="49.98269" lon="2.40096">
        <ele>105.6</ele>
        <time>2022-04-20T13:25:34Z</time>
      </trkpt>
      <trkpt lat="49.98269" lon="2.40096">
        <ele>105.6</ele>
        <time>2022-04-20T13:25:35Z</time>
      </trkpt>
      <trkpt lat="49.98269" lon="2.40096">
        <ele>105.6</ele>
        <time>2022-04-20T13:25:36Z</time>
      </trkpt>
      <trkpt lat="49.98269" lon="2.40096">
        <ele>105.6</ele>
        <time>2022-04-20T13:25:37Z</time>
      </trkpt>
      <trkpt lat="49.98269" lon="2.40096">
        <ele>105.6</ele>
        <time>2022-04-20T13:25:38Z</time>
      </trkpt>
      <trkpt lat="49.98269" lon="2.40096">
        <ele>105.6</ele>
        <time>2022-04-20T13:25:39Z</time>
      </trkpt>
      <trkpt lat="49.98269" lon="2.40096">
        <ele>105.6</ele>
        <time>2022-04-20T13:25:40Z</time>
      </trkpt>
      <trkpt lat="49.98269" lon="2.40096">
        <ele>105.6</ele>
        <time>2022-04-20T13:25:41Z</time>
      </trkpt>
      <trkpt lat="49.98269" lon="2.40096">
        <ele>105.6</ele>
        <time>2022-04-20T13:25:42Z</time>
      </trkpt>
      <trkpt lat="49.98269" lon="2.40095">
        <ele>105.6</ele>
        <time>2022-04-20T13:25:43Z</time>
      </trkpt>
      <trkpt lat="49.98269" lon="2.40095">
        <ele>105.6</ele>
        <time>2022-04-20T13:25:44Z</time>
      </trkpt>
      <trkpt lat="49.98269" lon="2.40095">
        <ele>105.6</ele>
        <time>2022-04-20T13:25:45Z</time>
      </trkpt>
      <trkpt lat="49.98269" lon="2.40095">
        <ele>105.6</ele>
        <time>2022-04-20T13:25:46Z</time>
      </trkpt>
      <trkpt lat="49.98269" lon="2.40095">
        <ele>105.6</ele>
        <time>2022-04-20T13:25:47Z</time>
      </trkpt>
      <trkpt lat="49.98269" lon="2.40095">
        <ele>105.6</ele>
        <time>2022-04-20T13:25:48Z</time>
      </trkpt>
      <trkpt lat="49.98269" lon="2.40095">
        <ele>105.6</ele>
        <time>2022-04-20T13:25:49Z</time>
      </trkpt>
      <trkpt lat="49.98269" lon="2.40095">
        <ele>105.6</ele>
        <time>2022-04-20T13:25:50Z</time>
      </trkpt>
      <trkpt lat="49.98269" lon="2.40095">
        <ele>105.6</ele>
        <time>2022-04-20T13:25:51Z</time>
      </trkpt>
      <trkpt lat="49.98269" lon="2.40094">
        <ele>105.6</ele>
        <time>2022-04-20T13:25:52Z</time>
      </trkpt>
      <trkpt lat="49.98269" lon="2.40094">
        <ele>105.6</ele>
        <time>2022-04-20T13:25:53Z</time>
      </trkpt>
      <trkpt lat="49.98269" lon="2.40094">
        <ele>105.6</ele>
        <time>2022-04-20T13:25:54Z</time>
      </trkpt>
      <trkpt lat="49.98269" lon="2.40094">
        <ele>105.6</ele>
        <time>2022-04-20T13:25:55Z</time>
      </trkpt>
      <trkpt lat="49.98269" lon="2.40094">
        <ele>105.6</ele>
        <time>2022-04-20T13:25:56Z</time>
      </trkpt>
      <trkpt lat="49.98269" lon="2.40094">
        <ele>105.6</ele>
        <time>2022-04-20T13:25:57Z</time>
      </trkpt>
      <trkpt lat="49.98269" lon="2.40094">
        <ele>105.6</ele>
        <time>2022-04-20T13:25:58Z</time>
      </trkpt>
      <trkpt lat="49.98269" lon="2.40094">
        <ele>105.6</ele>
        <time>2022-04-20T13:25:59Z</time>
      </trkpt>
      <trkpt lat="49.98269" lon="2.40094">
        <ele>105.6</ele>
        <time>2022-04-20T13:26:00Z</time>
      </trkpt>
      <trkpt lat="49.98269" lon="2.40094">
        <ele>105.6</ele>
        <time>2022-04-20T13:26:01Z</time>
      </trkpt>
      <trkpt lat="49.98269" lon="2.40093">
        <ele>105.6</ele>
        <time>2022-04-20T13:26:02Z</time>
      </trkpt>
      <trkpt lat="49.98269" lon="2.40093">
        <ele>105.6</ele>
        <time>2022-04-20T13:26:03Z</time>
      </trkpt>
      <trkpt lat="49.98269" lon="2.40093">
        <ele>105.6</ele>
        <time>2022-04-20T13:26:04Z</time>
      </trkpt>
      <trkpt lat="49.98269" lon="2.40093">
        <ele>105.6</ele>
        <time>2022-04-20T13:26:05Z</time>
      </trkpt>
      <trkpt lat="49.9827" lon="2.40093">
        <ele>105.6</ele>
        <time>2022-04-20T13:26:06Z</time>
      </trkpt>
      <trkpt lat="49.9827" lon="2.40093">
        <ele>105.6</ele>
        <time>2022-04-20T13:26:07Z</time>
      </trkpt>
      <trkpt lat="49.9827" lon="2.40093">
        <ele>105.6</ele>
        <time>2022-04-20T13:26:08Z</time>
      </trkpt>
      <trkpt lat="49.9827" lon="2.40093">
        <ele>105.6</ele>
        <time>2022-04-20T13:26:09Z</time>
      </trkpt>
      <trkpt lat="49.9827" lon="2.40093">
        <ele>105.6</ele>
        <time>2022-04-20T13:26:10Z</time>
      </trkpt>
      <trkpt lat="49.9827" lon="2.40092">
        <ele>105.6</ele>
        <time>2022-04-20T13:26:11Z</time>
      </trkpt>
      <trkpt lat="49.9827" lon="2.40092">
        <ele>105.6</ele>
        <time>2022-04-20T13:26:12Z</time>
      </trkpt>
      <trkpt lat="49.9827" lon="2.40092">
        <ele>105.6</ele>
        <time>2022-04-20T13:26:13Z</time>
      </trkpt>
      <trkpt lat="49.9827" lon="2.40092">
        <ele>105.6</ele>
        <time>2022-04-20T13:26:14Z</time>
      </trkpt>
      <trkpt lat="49.9827" lon="2.40092">
        <ele>105.6</ele>
        <time>2022-04-20T13:26:15Z</time>
      </trkpt>
      <trkpt lat="49.9827" lon="2.40092">
        <ele>105.6</ele>
        <time>2022-04-20T13:26:16Z</time>
      </trkpt>
      <trkpt lat="49.9827" lon="2.40092">
        <ele>105.6</ele>
        <time>2022-04-20T13:26:17Z</time>
      </trkpt>
      <trkpt lat="49.9827" lon="2.40092">
        <ele>105.6</ele>
        <time>2022-04-20T13:26:18Z</time>
      </trkpt>
      <trkpt lat="49.9827" lon="2.40092">
        <ele>105.6</ele>
        <time>2022-04-20T13:26:19Z</time>
      </trkpt>
      <trkpt lat="49.9827" lon="2.40092">
        <ele>105.6</ele>
        <time>2022-04-20T13:26:20Z</time>
      </trkpt>
      <trkpt lat="49.9827" lon="2.40091">
        <ele>105.6</ele>
        <time>2022-04-20T13:26:21Z</time>
      </trkpt>
      <trkpt lat="49.9827" lon="2.40091">
        <ele>105.5</ele>
        <time>2022-04-20T13:26:22Z</time>
      </trkpt>
      <trkpt lat="49.9827" lon="2.40091">
        <ele>105.5</ele>
        <time>2022-04-20T13:26:23Z</time>
      </trkpt>
      <trkpt lat="49.98271" lon="2.40087">
        <ele>105.5</ele>
        <time>2022-04-20T13:26:24Z</time>
      </trkpt>
      <trkpt lat="49.98271" lon="2.40086">
        <ele>105.5</ele>
        <time>2022-04-20T13:26:25Z</time>
      </trkpt>
      <trkpt lat="49.98271" lon="2.40086">
        <ele>105.5</ele>
        <time>2022-04-20T13:26:26Z</time>
      </trkpt>
      <trkpt lat="49.98271" lon="2.40086">
        <ele>105.5</ele>
        <time>2022-04-20T13:26:27Z</time>
      </trkpt>
      <trkpt lat="49.98271" lon="2.40086">
        <ele>105.5</ele>
        <time>2022-04-20T13:26:28Z</time>
      </trkpt>
      <trkpt lat="49.98271" lon="2.40086">
        <ele>105.5</ele>
        <time>2022-04-20T13:26:29Z</time>
      </trkpt>
      <trkpt lat="49.98271" lon="2.40086">
        <ele>105.5</ele>
        <time>2022-04-20T13:26:30Z</time>
      </trkpt>
      <trkpt lat="49.98271" lon="2.40086">
        <ele>105.5</ele>
        <time>2022-04-20T13:26:31Z</time>
      </trkpt>
      <trkpt lat="49.98271" lon="2.40086">
        <ele>105.5</ele>
        <time>2022-04-20T13:26:32Z</time>
      </trkpt>
      <trkpt lat="49.98271" lon="2.40086">
        <ele>105.5</ele>
        <time>2022-04-20T13:26:33Z</time>
      </trkpt>
      <trkpt lat="49.98271" lon="2.40087">
        <ele>105.5</ele>
        <time>2022-04-20T13:26:34Z</time>
      </trkpt>
      <trkpt lat="49.98271" lon="2.40087">
        <ele>105.5</ele>
        <time>2022-04-20T13:26:35Z</time>
      </trkpt>
      <trkpt lat="49.98272" lon="2.40088">
        <ele>105.5</ele>
        <time>2022-04-20T13:26:36Z</time>
      </trkpt>
      <trkpt lat="49.98272" lon="2.40088">
        <ele>105.5</ele>
        <time>2022-04-20T13:26:37Z</time>
      </trkpt>
      <trkpt lat="49.98272" lon="2.40088">
        <ele>105.5</ele>
        <time>2022-04-20T13:26:38Z</time>
      </trkpt>
      <trkpt lat="49.98272" lon="2.40088">
        <ele>105.5</ele>
        <time>2022-04-20T13:26:39Z</time>
      </trkpt>
      <trkpt lat="49.98271" lon="2.40088">
        <ele>105.5</ele>
        <time>2022-04-20T13:26:40Z</time>
      </trkpt>
      <trkpt lat="49.98271" lon="2.40088">
        <ele>105.5</ele>
        <time>2022-04-20T13:26:41Z</time>
      </trkpt>
      <trkpt lat="49.98271" lon="2.40088">
        <ele>105.5</ele>
        <time>2022-04-20T13:26:42Z</time>
      </trkpt>
      <trkpt lat="49.98271" lon="2.40088">
        <ele>105.5</ele>
        <time>2022-04-20T13:26:43Z</time>
      </trkpt>
      <trkpt lat="49.98271" lon="2.40088">
        <ele>105.5</ele>
        <time>2022-04-20T13:26:44Z</time>
      </trkpt>
      <trkpt lat="49.98271" lon="2.40088">
        <ele>105.5</ele>
        <time>2022-04-20T13:26:45Z</time>
      </trkpt>
      <trkpt lat="49.98271" lon="2.40088">
        <ele>105.5</ele>
        <time>2022-04-20T13:26:46Z</time>
      </trkpt>
      <trkpt lat="49.98271" lon="2.40088">
        <ele>105.5</ele>
        <time>2022-04-20T13:26:47Z</time>
      </trkpt>
      <trkpt lat="49.98271" lon="2.40088">
        <ele>105.5</ele>
        <time>2022-04-20T13:26:48Z</time>
      </trkpt>
      <trkpt lat="49.98271" lon="2.40088">
        <ele>105.5</ele>
        <time>2022-04-20T13:26:49Z</time>
      </trkpt>
      <trkpt lat="49.98271" lon="2.40088">
        <ele>105.5</ele>
        <time>2022-04-20T13:26:50Z</time>
      </trkpt>
      <trkpt lat="49.98271" lon="2.40088">
        <ele>105.5</ele>
        <time>2022-04-20T13:26:51Z</time>
      </trkpt>
      <trkpt lat="49.98271" lon="2.40088">
        <ele>105.5</ele>
        <time>2022-04-20T13:26:52Z</time>
      </trkpt>
      <trkpt lat="49.98271" lon="2.40088">
        <ele>105.5</ele>
        <time>2022-04-20T13:26:53Z</time>
      </trkpt>
      <trkpt lat="49.98271" lon="2.40088">
        <ele>105.5</ele>
        <time>2022-04-20T13:26:54Z</time>
      </trkpt>
      <trkpt lat="49.98271" lon="2.40088">
        <ele>105.5</ele>
        <time>2022-04-20T13:26:55Z</time>
      </trkpt>
      <trkpt lat="49.98271" lon="2.40088">
        <ele>105.5</ele>
        <time>2022-04-20T13:26:56Z</time>
      </trkpt>
      <trkpt lat="49.98271" lon="2.40088">
        <ele>105.5</ele>
        <time>2022-04-20T13:26:57Z</time>
      </trkpt>
      <trkpt lat="49.98271" lon="2.40088">
        <ele>105.5</ele>
        <time>2022-04-20T13:26:58Z</time>
      </trkpt>
      <trkpt lat="49.98271" lon="2.40088">
        <ele>105.5</ele>
        <time>2022-04-20T13:26:59Z</time>
      </trkpt>
      <trkpt lat="49.98271" lon="2.40088">
        <ele>105.5</ele>
        <time>2022-04-20T13:27:00Z</time>
      </trkpt>
      <trkpt lat="49.98271" lon="2.40088">
        <ele>105.5</ele>
        <time>2022-04-20T13:27:01Z</time>
      </trkpt>
      <trkpt lat="49.98271" lon="2.40088">
        <ele>105.5</ele>
        <time>2022-04-20T13:27:02Z</time>
      </trkpt>
      <trkpt lat="49.98271" lon="2.40088">
        <ele>105.5</ele>
        <time>2022-04-20T13:27:03Z</time>
      </trkpt>
      <trkpt lat="49.98271" lon="2.40088">
        <ele>105.5</ele>
        <time>2022-04-20T13:27:04Z</time>
      </trkpt>
      <trkpt lat="49.98271" lon="2.40088">
        <ele>105.5</ele>
        <time>2022-04-20T13:27:05Z</time>
      </trkpt>
      <trkpt lat="49.98271" lon="2.40088">
        <ele>105.5</ele>
        <time>2022-04-20T13:27:06Z</time>
      </trkpt>
      <trkpt lat="49.98271" lon="2.40088">
        <ele>105.5</ele>
        <time>2022-04-20T13:27:07Z</time>
      </trkpt>
      <trkpt lat="49.98271" lon="2.40088">
        <ele>105.5</ele>
        <time>2022-04-20T13:27:08Z</time>
      </trkpt>
      <trkpt lat="49.98271" lon="2.40088">
        <ele>105.5</ele>
        <time>2022-04-20T13:27:09Z</time>
      </trkpt>
      <trkpt lat="49.98271" lon="2.40088">
        <ele>105.5</ele>
        <time>2022-04-20T13:27:10Z</time>
      </trkpt>
      <trkpt lat="49.98271" lon="2.40088">
        <ele>105.4</ele>
        <time>2022-04-20T13:27:11Z</time>
      </trkpt>
      <trkpt lat="49.98271" lon="2.40087">
        <ele>105.4</ele>
        <time>2022-04-20T13:27:12Z</time>
      </trkpt>
      <trkpt lat="49.98271" lon="2.40086">
        <ele>105.4</ele>
        <time>2022-04-20T13:27:13Z</time>
      </trkpt>
      <trkpt lat="49.98272" lon="2.40086">
        <ele>105.4</ele>
        <time>2022-04-20T13:27:14Z</time>
      </trkpt>
      <trkpt lat="49.98272" lon="2.40086">
        <ele>105.4</ele>
        <time>2022-04-20T13:27:15Z</time>
      </trkpt>
      <trkpt lat="49.98272" lon="2.40087">
        <ele>105.4</ele>
        <time>2022-04-20T13:27:16Z</time>
      </trkpt>
      <trkpt lat="49.98273" lon="2.40087">
        <ele>105.4</ele>
        <time>2022-04-20T13:27:17Z</time>
      </trkpt>
      <trkpt lat="49.98273" lon="2.40087">
        <ele>105.4</ele>
        <time>2022-04-20T13:27:18Z</time>
      </trkpt>
      <trkpt lat="49.98274" lon="2.40086">
        <ele>105.4</ele>
        <time>2022-04-20T13:27:19Z</time>
      </trkpt>
      <trkpt lat="49.98275" lon="2.40086">
        <ele>105.3</ele>
        <time>2022-04-20T13:27:20Z</time>
      </trkpt>
      <trkpt lat="49.98276" lon="2.40085">
        <ele>105.3</ele>
        <time>2022-04-20T13:27:21Z</time>
      </trkpt>
      <trkpt lat="49.98277" lon="2.40084">
        <ele>105.3</ele>
        <time>2022-04-20T13:27:22Z</time>
      </trkpt>
      <trkpt lat="49.98279" lon="2.40082">
        <ele>105.2</ele>
        <time>2022-04-20T13:27:24Z</time>
      </trkpt>
      <trkpt lat="49.9828" lon="2.40081">
        <ele>105.2</ele>
        <time>2022-04-20T13:27:25Z</time>
      </trkpt>
      <trkpt lat="49.9828" lon="2.40081">
        <ele>105.2</ele>
        <time>2022-04-20T13:27:26Z</time>
      </trkpt>
      <trkpt lat="49.98282" lon="2.40079">
        <ele>105.1</ele>
        <time>2022-04-20T13:27:28Z</time>
      </trkpt>
      <trkpt lat="49.98283" lon="2.40078">
        <ele>105.1</ele>
        <time>2022-04-20T13:27:29Z</time>
      </trkpt>
      <trkpt lat="49.98284" lon="2.40076">
        <ele>105.1</ele>
        <time>2022-04-20T13:27:30Z</time>
      </trkpt>
      <trkpt lat="49.98285" lon="2.40075">
        <ele>105</ele>
        <time>2022-04-20T13:27:31Z</time>
      </trkpt>
      <trkpt lat="49.98286" lon="2.40074">
        <ele>105</ele>
        <time>2022-04-20T13:27:32Z</time>
      </trkpt>
      <trkpt lat="49.98288" lon="2.40072">
        <ele>104.9</ele>
        <time>2022-04-20T13:27:34Z</time>
      </trkpt>
      <trkpt lat="49.98289" lon="2.40071">
        <ele>104.9</ele>
        <time>2022-04-20T13:27:35Z</time>
      </trkpt>
      <trkpt lat="49.9829" lon="2.4007">
        <ele>104.8</ele>
        <time>2022-04-20T13:27:36Z</time>
      </trkpt>
      <trkpt lat="49.9829" lon="2.40069">
        <ele>104.8</ele>
        <time>2022-04-20T13:27:37Z</time>
      </trkpt>
      <trkpt lat="49.98291" lon="2.40069">
        <ele>104.8</ele>
        <time>2022-04-20T13:27:38Z</time>
      </trkpt>
      <trkpt lat="49.98292" lon="2.40068">
        <ele>104.8</ele>
        <time>2022-04-20T13:27:39Z</time>
      </trkpt>
      <trkpt lat="49.98293" lon="2.40067">
        <ele>104.7</ele>
        <time>2022-04-20T13:27:40Z</time>
      </trkpt>
      <trkpt lat="49.98294" lon="2.40067">
        <ele>104.7</ele>
        <time>2022-04-20T13:27:41Z</time>
      </trkpt>
      <trkpt lat="49.98295" lon="2.40066">
        <ele>104.7</ele>
        <time>2022-04-20T13:27:42Z</time>
      </trkpt>
      <trkpt lat="49.98296" lon="2.40065">
        <ele>104.6</ele>
        <time>2022-04-20T13:27:43Z</time>
      </trkpt>
      <trkpt lat="49.98296" lon="2.40065">
        <ele>104.6</ele>
        <time>2022-04-20T13:27:44Z</time>
      </trkpt>
      <trkpt lat="49.98296" lon="2.40064">
        <ele>104.6</ele>
        <time>2022-04-20T13:27:45Z</time>
      </trkpt>
      <trkpt lat="49.98296" lon="2.40064">
        <ele>104.6</ele>
        <time>2022-04-20T13:27:46Z</time>
      </trkpt>
      <trkpt lat="49.98297" lon="2.40064">
        <ele>104.6</ele>
        <time>2022-04-20T13:27:47Z</time>
      </trkpt>
      <trkpt lat="49.98297" lon="2.40063">
        <ele>104.6</ele>
        <time>2022-04-20T13:27:49Z</time>
      </trkpt>
      <trkpt lat="49.98298" lon="2.40061">
        <ele>104.5</ele>
        <time>2022-04-20T13:27:50Z</time>
      </trkpt>
      <trkpt lat="49.983" lon="2.40059">
        <ele>104.4</ele>
        <time>2022-04-20T13:27:52Z</time>
      </trkpt>
      <trkpt lat="49.98301" lon="2.40058">
        <ele>104.4</ele>
        <time>2022-04-20T13:27:53Z</time>
      </trkpt>
      <trkpt lat="49.98297" lon="2.40059">
        <ele>104.3</ele>
        <time>2022-04-20T13:27:54Z</time>
      </trkpt>
      <trkpt lat="49.98296" lon="2.40059">
        <ele>104.2</ele>
        <time>2022-04-20T13:27:55Z</time>
      </trkpt>
      <trkpt lat="49.98296" lon="2.40059">
        <ele>104.2</ele>
        <time>2022-04-20T13:27:56Z</time>
      </trkpt>
      <trkpt lat="49.98297" lon="2.40058">
        <ele>104.2</ele>
        <time>2022-04-20T13:27:57Z</time>
      </trkpt>
      <trkpt lat="49.98298" lon="2.40057">
        <ele>104.1</ele>
        <time>2022-04-20T13:27:58Z</time>
      </trkpt>
      <trkpt lat="49.98299" lon="2.40055">
        <ele>104.1</ele>
        <time>2022-04-20T13:27:59Z</time>
      </trkpt>
      <trkpt lat="49.983" lon="2.40054">
        <ele>104.1</ele>
        <time>2022-04-20T13:28:00Z</time>
      </trkpt>
      <trkpt lat="49.98301" lon="2.40053">
        <ele>104</ele>
        <time>2022-04-20T13:28:01Z</time>
      </trkpt>
      <trkpt lat="49.98302" lon="2.40052">
        <ele>104</ele>
        <time>2022-04-20T13:28:02Z</time>
      </trkpt>
      <trkpt lat="49.98303" lon="2.40051">
        <ele>103.9</ele>
        <time>2022-04-20T13:28:03Z</time>
      </trkpt>
      <trkpt lat="49.98304" lon="2.4005">
        <ele>103.9</ele>
        <time>2022-04-20T13:28:04Z</time>
      </trkpt>
      <trkpt lat="49.98305" lon="2.40049">
        <ele>103.9</ele>
        <time>2022-04-20T13:28:05Z</time>
      </trkpt>
      <trkpt lat="49.98305" lon="2.40049">
        <ele>103.8</ele>
        <time>2022-04-20T13:28:06Z</time>
      </trkpt>
      <trkpt lat="49.98306" lon="2.40048">
        <ele>103.8</ele>
        <time>2022-04-20T13:28:07Z</time>
      </trkpt>
      <trkpt lat="49.98307" lon="2.40047">
        <ele>103.8</ele>
        <time>2022-04-20T13:28:08Z</time>
      </trkpt>
      <trkpt lat="49.98309" lon="2.40045">
        <ele>103.7</ele>
        <time>2022-04-20T13:28:09Z</time>
      </trkpt>
      <trkpt lat="49.9831" lon="2.40044">
        <ele>103.6</ele>
        <time>2022-04-20T13:28:10Z</time>
      </trkpt>
      <trkpt lat="49.98311" lon="2.40043">
        <ele>103.6</ele>
        <time>2022-04-20T13:28:11Z</time>
      </trkpt>
      <trkpt lat="49.98312" lon="2.40042">
        <ele>103.6</ele>
        <time>2022-04-20T13:28:12Z</time>
      </trkpt>
      <trkpt lat="49.98314" lon="2.4004">
        <ele>103.5</ele>
        <time>2022-04-20T13:28:14Z</time>
      </trkpt>
      <trkpt lat="49.98315" lon="2.40039">
        <ele>103.4</ele>
        <time>2022-04-20T13:28:15Z</time>
      </trkpt>
      <trkpt lat="49.98316" lon="2.40037">
        <ele>103.4</ele>
        <time>2022-04-20T13:28:17Z</time>
      </trkpt>
      <trkpt lat="49.98318" lon="2.40035">
        <ele>103.3</ele>
        <time>2022-04-20T13:28:18Z</time>
      </trkpt>
      <trkpt lat="49.98319" lon="2.40034">
        <ele>103.3</ele>
        <time>2022-04-20T13:28:19Z</time>
      </trkpt>
      <trkpt lat="49.98319" lon="2.40033">
        <ele>103.3</ele>
        <time>2022-04-20T13:28:20Z</time>
      </trkpt>
      <trkpt lat="49.9832" lon="2.40032">
        <ele>103.2</ele>
        <time>2022-04-20T13:28:21Z</time>
      </trkpt>
      <trkpt lat="49.98321" lon="2.4003">
        <ele>103.2</ele>
        <time>2022-04-20T13:28:22Z</time>
      </trkpt>
      <trkpt lat="49.98322" lon="2.40029">
        <ele>103.2</ele>
        <time>2022-04-20T13:28:23Z</time>
      </trkpt>
      <trkpt lat="49.98322" lon="2.40029">
        <ele>103.1</ele>
        <time>2022-04-20T13:28:24Z</time>
      </trkpt>
      <trkpt lat="49.98323" lon="2.40027">
        <ele>103.1</ele>
        <time>2022-04-20T13:28:25Z</time>
      </trkpt>
      <trkpt lat="49.98324" lon="2.40026">
        <ele>103.1</ele>
        <time>2022-04-20T13:28:26Z</time>
      </trkpt>
      <trkpt lat="49.98326" lon="2.40024">
        <ele>103</ele>
        <time>2022-04-20T13:28:28Z</time>
      </trkpt>
      <trkpt lat="49.98326" lon="2.40023">
        <ele>103</ele>
        <time>2022-04-20T13:28:29Z</time>
      </trkpt>
      <trkpt lat="49.98327" lon="2.40022">
        <ele>103</ele>
        <time>2022-04-20T13:28:30Z</time>
      </trkpt>
      <trkpt lat="49.98328" lon="2.40022">
        <ele>102.9</ele>
        <time>2022-04-20T13:28:31Z</time>
      </trkpt>
      <trkpt lat="49.98328" lon="2.40021">
        <ele>102.9</ele>
        <time>2022-04-20T13:28:32Z</time>
      </trkpt>
      <trkpt lat="49.98329" lon="2.4002">
        <ele>102.9</ele>
        <time>2022-04-20T13:28:33Z</time>
      </trkpt>
      <trkpt lat="49.98331" lon="2.40018">
        <ele>102.8</ele>
        <time>2022-04-20T13:28:35Z</time>
      </trkpt>
      <trkpt lat="49.98332" lon="2.40017">
        <ele>102.8</ele>
        <time>2022-04-20T13:28:36Z</time>
      </trkpt>
      <trkpt lat="49.98334" lon="2.40015">
        <ele>102.8</ele>
        <time>2022-04-20T13:28:37Z</time>
      </trkpt>
      <trkpt lat="49.98335" lon="2.40015">
        <ele>102.7</ele>
        <time>2022-04-20T13:28:38Z</time>
      </trkpt>
      <trkpt lat="49.98336" lon="2.40014">
        <ele>102.7</ele>
        <time>2022-04-20T13:28:39Z</time>
      </trkpt>
      <trkpt lat="49.98338" lon="2.40013">
        <ele>102.7</ele>
        <time>2022-04-20T13:28:40Z</time>
      </trkpt>
      <trkpt lat="49.98339" lon="2.40012">
        <ele>102.7</ele>
        <time>2022-04-20T13:28:41Z</time>
      </trkpt>
      <trkpt lat="49.98341" lon="2.40011">
        <ele>102.6</ele>
        <time>2022-04-20T13:28:42Z</time>
      </trkpt>
      <trkpt lat="49.98342" lon="2.4001">
        <ele>102.6</ele>
        <time>2022-04-20T13:28:43Z</time>
      </trkpt>
      <trkpt lat="49.98344" lon="2.40009">
        <ele>102.6</ele>
        <time>2022-04-20T13:28:44Z</time>
      </trkpt>
      <trkpt lat="49.98345" lon="2.40007">
        <ele>102.6</ele>
        <time>2022-04-20T13:28:45Z</time>
      </trkpt>
      <trkpt lat="49.98346" lon="2.40006">
        <ele>102.5</ele>
        <time>2022-04-20T13:28:46Z</time>
      </trkpt>
      <trkpt lat="49.98348" lon="2.40005">
        <ele>102.5</ele>
        <time>2022-04-20T13:28:48Z</time>
      </trkpt>
      <trkpt lat="49.98349" lon="2.40004">
        <ele>102.5</ele>
        <time>2022-04-20T13:28:49Z</time>
      </trkpt>
      <trkpt lat="49.9835" lon="2.40002">
        <ele>102.5</ele>
        <time>2022-04-20T13:28:50Z</time>
      </trkpt>
      <trkpt lat="49.98352" lon="2.40001">
        <ele>102.5</ele>
        <time>2022-04-20T13:28:51Z</time>
      </trkpt>
      <trkpt lat="49.98353" lon="2.4">
        <ele>102.4</ele>
        <time>2022-04-20T13:28:52Z</time>
      </trkpt>
      <trkpt lat="49.98355" lon="2.39998">
        <ele>102.4</ele>
        <time>2022-04-20T13:28:53Z</time>
      </trkpt>
      <trkpt lat="49.98356" lon="2.39997">
        <ele>102.4</ele>
        <time>2022-04-20T13:28:54Z</time>
      </trkpt>
      <trkpt lat="49.98356" lon="2.39997">
        <ele>102.4</ele>
        <time>2022-04-20T13:28:55Z</time>
      </trkpt>
      <trkpt lat="49.98357" lon="2.39996">
        <ele>102.4</ele>
        <time>2022-04-20T13:28:56Z</time>
      </trkpt>
      <trkpt lat="49.98359" lon="2.39995">
        <ele>102.4</ele>
        <time>2022-04-20T13:28:57Z</time>
      </trkpt>
      <trkpt lat="49.9836" lon="2.39994">
        <ele>102.4</ele>
        <time>2022-04-20T13:28:58Z</time>
      </trkpt>
      <trkpt lat="49.98362" lon="2.39993">
        <ele>102.4</ele>
        <time>2022-04-20T13:28:59Z</time>
      </trkpt>
      <trkpt lat="49.98363" lon="2.39992">
        <ele>102.4</ele>
        <time>2022-04-20T13:29:00Z</time>
      </trkpt>
      <trkpt lat="49.98365" lon="2.39991">
        <ele>102.4</ele>
        <time>2022-04-20T13:29:01Z</time>
      </trkpt>
      <trkpt lat="49.98366" lon="2.3999">
        <ele>102.4</ele>
        <time>2022-04-20T13:29:03Z</time>
      </trkpt>
      <trkpt lat="49.98367" lon="2.39989">
        <ele>102.4</ele>
        <time>2022-04-20T13:29:04Z</time>
      </trkpt>
      <trkpt lat="49.98368" lon="2.39988">
        <ele>102.4</ele>
        <time>2022-04-20T13:29:05Z</time>
      </trkpt>
      <trkpt lat="49.9837" lon="2.39987">
        <ele>102.4</ele>
        <time>2022-04-20T13:29:06Z</time>
      </trkpt>
      <trkpt lat="49.98372" lon="2.39986">
        <ele>102.4</ele>
        <time>2022-04-20T13:29:07Z</time>
      </trkpt>
      <trkpt lat="49.98372" lon="2.39985">
        <ele>102.4</ele>
        <time>2022-04-20T13:29:08Z</time>
      </trkpt>
      <trkpt lat="49.98373" lon="2.39984">
        <ele>102.4</ele>
        <time>2022-04-20T13:29:09Z</time>
      </trkpt>
      <trkpt lat="49.98375" lon="2.39982">
        <ele>102.4</ele>
        <time>2022-04-20T13:29:10Z</time>
      </trkpt>
      <trkpt lat="49.98375" lon="2.39981">
        <ele>102.4</ele>
        <time>2022-04-20T13:29:11Z</time>
      </trkpt>
      <trkpt lat="49.98376" lon="2.39981">
        <ele>102.4</ele>
        <time>2022-04-20T13:29:12Z</time>
      </trkpt>
      <trkpt lat="49.98377" lon="2.39979">
        <ele>102.4</ele>
        <time>2022-04-20T13:29:13Z</time>
      </trkpt>
      <trkpt lat="49.98379" lon="2.39978">
        <ele>102.4</ele>
        <time>2022-04-20T13:29:14Z</time>
      </trkpt>
      <trkpt lat="49.9838" lon="2.39976">
        <ele>102.4</ele>
        <time>2022-04-20T13:29:15Z</time>
      </trkpt>
      <trkpt lat="49.98381" lon="2.39975">
        <ele>102.4</ele>
        <time>2022-04-20T13:29:17Z</time>
      </trkpt>
      <trkpt lat="49.98382" lon="2.39975">
        <ele>102.4</ele>
        <time>2022-04-20T13:29:18Z</time>
      </trkpt>
      <trkpt lat="49.98383" lon="2.39972">
        <ele>102.4</ele>
        <time>2022-04-20T13:29:19Z</time>
      </trkpt>
      <trkpt lat="49.98384" lon="2.39972">
        <ele>102.4</ele>
        <time>2022-04-20T13:29:20Z</time>
      </trkpt>
      <trkpt lat="49.98384" lon="2.39971">
        <ele>102.4</ele>
        <time>2022-04-20T13:29:21Z</time>
      </trkpt>
      <trkpt lat="49.98386" lon="2.39968">
        <ele>102.4</ele>
        <time>2022-04-20T13:29:22Z</time>
      </trkpt>
      <trkpt lat="49.98386" lon="2.39967">
        <ele>102.4</ele>
        <time>2022-04-20T13:29:23Z</time>
      </trkpt>
      <trkpt lat="49.98386" lon="2.39966">
        <ele>102.4</ele>
        <time>2022-04-20T13:29:24Z</time>
      </trkpt>
      <trkpt lat="49.98388" lon="2.39963">
        <ele>102.4</ele>
        <time>2022-04-20T13:29:25Z</time>
      </trkpt>
      <trkpt lat="49.98388" lon="2.39961">
        <ele>102.4</ele>
        <time>2022-04-20T13:29:26Z</time>
      </trkpt>
      <trkpt lat="49.98389" lon="2.3996">
        <ele>102.4</ele>
        <time>2022-04-20T13:29:27Z</time>
      </trkpt>
      <trkpt lat="49.9839" lon="2.39958">
        <ele>102.4</ele>
        <time>2022-04-20T13:29:29Z</time>
      </trkpt>
      <trkpt lat="49.98391" lon="2.39956">
        <ele>102.4</ele>
        <time>2022-04-20T13:29:30Z</time>
      </trkpt>
      <trkpt lat="49.98391" lon="2.39954">
        <ele>102.4</ele>
        <time>2022-04-20T13:29:31Z</time>
      </trkpt>
      <trkpt lat="49.98393" lon="2.39951">
        <ele>102.4</ele>
        <time>2022-04-20T13:29:32Z</time>
      </trkpt>
      <trkpt lat="49.98393" lon="2.3995">
        <ele>102.4</ele>
        <time>2022-04-20T13:29:33Z</time>
      </trkpt>
      <trkpt lat="49.98394" lon="2.39949">
        <ele>102.4</ele>
        <time>2022-04-20T13:29:34Z</time>
      </trkpt>
      <trkpt lat="49.98395" lon="2.39947">
        <ele>102.4</ele>
        <time>2022-04-20T13:29:35Z</time>
      </trkpt>
      <trkpt lat="49.98395" lon="2.39945">
        <ele>102.4</ele>
        <time>2022-04-20T13:29:36Z</time>
      </trkpt>
      <trkpt lat="49.98397" lon="2.39943">
        <ele>102.4</ele>
        <time>2022-04-20T13:29:37Z</time>
      </trkpt>
      <trkpt lat="49.98397" lon="2.39942">
        <ele>102.4</ele>
        <time>2022-04-20T13:29:38Z</time>
      </trkpt>
      <trkpt lat="49.98398" lon="2.39941">
        <ele>102.4</ele>
        <time>2022-04-20T13:29:39Z</time>
      </trkpt>
      <trkpt lat="49.98399" lon="2.39938">
        <ele>102.3</ele>
        <time>2022-04-20T13:29:41Z</time>
      </trkpt>
      <trkpt lat="49.984" lon="2.39937">
        <ele>102.3</ele>
        <time>2022-04-20T13:29:42Z</time>
      </trkpt>
      <trkpt lat="49.98401" lon="2.39936">
        <ele>102.3</ele>
        <time>2022-04-20T13:29:43Z</time>
      </trkpt>
      <trkpt lat="49.98402" lon="2.39934">
        <ele>102.3</ele>
        <time>2022-04-20T13:29:44Z</time>
      </trkpt>
      <trkpt lat="49.98402" lon="2.39933">
        <ele>102.2</ele>
        <time>2022-04-20T13:29:45Z</time>
      </trkpt>
      <trkpt lat="49.98403" lon="2.39932">
        <ele>102.2</ele>
        <time>2022-04-20T13:29:46Z</time>
      </trkpt>
      <trkpt lat="49.98404" lon="2.39931">
        <ele>102.2</ele>
        <time>2022-04-20T13:29:47Z</time>
      </trkpt>
      <trkpt lat="49.98402" lon="2.3993">
        <ele>102.2</ele>
        <time>2022-04-20T13:29:48Z</time>
      </trkpt>
      <trkpt lat="49.98403" lon="2.39929">
        <ele>102.2</ele>
        <time>2022-04-20T13:29:49Z</time>
      </trkpt>
      <trkpt lat="49.98404" lon="2.39927">
        <ele>102.1</ele>
        <time>2022-04-20T13:29:51Z</time>
      </trkpt>
      <trkpt lat="49.98405" lon="2.39926">
        <ele>102.1</ele>
        <time>2022-04-20T13:29:52Z</time>
      </trkpt>
      <trkpt lat="49.98405" lon="2.39925">
        <ele>102.1</ele>
        <time>2022-04-20T13:29:53Z</time>
      </trkpt>
      <trkpt lat="49.98405" lon="2.39924">
        <ele>102.1</ele>
        <time>2022-04-20T13:29:54Z</time>
      </trkpt>
      <trkpt lat="49.98405" lon="2.39923">
        <ele>102.1</ele>
        <time>2022-04-20T13:29:55Z</time>
      </trkpt>
      <trkpt lat="49.98405" lon="2.39923">
        <ele>102.1</ele>
        <time>2022-04-20T13:29:56Z</time>
      </trkpt>
      <trkpt lat="49.98406" lon="2.39923">
        <ele>102.1</ele>
        <time>2022-04-20T13:29:57Z</time>
      </trkpt>
      <trkpt lat="49.98408" lon="2.3992">
        <ele>102</ele>
        <time>2022-04-20T13:29:58Z</time>
      </trkpt>
      <trkpt lat="49.98409" lon="2.39919">
        <ele>102</ele>
        <time>2022-04-20T13:30:00Z</time>
      </trkpt>
      <trkpt lat="49.9841" lon="2.39917">
        <ele>102</ele>
        <time>2022-04-20T13:30:01Z</time>
      </trkpt>
      <trkpt lat="49.9841" lon="2.39916">
        <ele>102</ele>
        <time>2022-04-20T13:30:02Z</time>
      </trkpt>
      <trkpt lat="49.98411" lon="2.39915">
        <ele>101.9</ele>
        <time>2022-04-20T13:30:03Z</time>
      </trkpt>
      <trkpt lat="49.98412" lon="2.39913">
        <ele>101.9</ele>
        <time>2022-04-20T13:30:04Z</time>
      </trkpt>
      <trkpt lat="49.98413" lon="2.39911">
        <ele>101.9</ele>
        <time>2022-04-20T13:30:05Z</time>
      </trkpt>
      <trkpt lat="49.98414" lon="2.3991">
        <ele>101.9</ele>
        <time>2022-04-20T13:30:06Z</time>
      </trkpt>
      <trkpt lat="49.98415" lon="2.39908">
        <ele>101.9</ele>
        <time>2022-04-20T13:30:08Z</time>
      </trkpt>
      <trkpt lat="49.98416" lon="2.39907">
        <ele>101.9</ele>
        <time>2022-04-20T13:30:09Z</time>
      </trkpt>
      <trkpt lat="49.98417" lon="2.39906">
        <ele>101.9</ele>
        <time>2022-04-20T13:30:10Z</time>
      </trkpt>
      <trkpt lat="49.98418" lon="2.39905">
        <ele>101.8</ele>
        <time>2022-04-20T13:30:11Z</time>
      </trkpt>
      <trkpt lat="49.98419" lon="2.39902">
        <ele>101.8</ele>
        <time>2022-04-20T13:30:12Z</time>
      </trkpt>
      <trkpt lat="49.9842" lon="2.39902">
        <ele>101.8</ele>
        <time>2022-04-20T13:30:13Z</time>
      </trkpt>
      <trkpt lat="49.9842" lon="2.39901">
        <ele>101.8</ele>
        <time>2022-04-20T13:30:14Z</time>
      </trkpt>
      <trkpt lat="49.98421" lon="2.39899">
        <ele>101.8</ele>
        <time>2022-04-20T13:30:15Z</time>
      </trkpt>
      <trkpt lat="49.98423" lon="2.39898">
        <ele>101.8</ele>
        <time>2022-04-20T13:30:16Z</time>
      </trkpt>
      <trkpt lat="49.98424" lon="2.39896">
        <ele>101.8</ele>
        <time>2022-04-20T13:30:17Z</time>
      </trkpt>
      <trkpt lat="49.98425" lon="2.39895">
        <ele>101.8</ele>
        <time>2022-04-20T13:30:18Z</time>
      </trkpt>
      <trkpt lat="49.98426" lon="2.39893">
        <ele>101.7</ele>
        <time>2022-04-20T13:30:19Z</time>
      </trkpt>
      <trkpt lat="49.98427" lon="2.39893">
        <ele>101.7</ele>
        <time>2022-04-20T13:30:21Z</time>
      </trkpt>
      <trkpt lat="49.98427" lon="2.39891">
        <ele>101.7</ele>
        <time>2022-04-20T13:30:22Z</time>
      </trkpt>
      <trkpt lat="49.98428" lon="2.3989">
        <ele>101.7</ele>
        <time>2022-04-20T13:30:23Z</time>
      </trkpt>
      <trkpt lat="49.98429" lon="2.39888">
        <ele>101.7</ele>
        <time>2022-04-20T13:30:24Z</time>
      </trkpt>
      <trkpt lat="49.9843" lon="2.39887">
        <ele>101.7</ele>
        <time>2022-04-20T13:30:25Z</time>
      </trkpt>
      <trkpt lat="49.9843" lon="2.39886">
        <ele>101.7</ele>
        <time>2022-04-20T13:30:26Z</time>
      </trkpt>
      <trkpt lat="49.98431" lon="2.39886">
        <ele>101.7</ele>
        <time>2022-04-20T13:30:27Z</time>
      </trkpt>
      <trkpt lat="49.98431" lon="2.39885">
        <ele>101.7</ele>
        <time>2022-04-20T13:30:28Z</time>
      </trkpt>
      <trkpt lat="49.98433" lon="2.39882">
        <ele>101.7</ele>
        <time>2022-04-20T13:30:29Z</time>
      </trkpt>
      <trkpt lat="49.98433" lon="2.3988">
        <ele>101.7</ele>
        <time>2022-04-20T13:30:31Z</time>
      </trkpt>
      <trkpt lat="49.98434" lon="2.39879">
        <ele>101.6</ele>
        <time>2022-04-20T13:30:32Z</time>
      </trkpt>
      <trkpt lat="49.98435" lon="2.39878">
        <ele>101.6</ele>
        <time>2022-04-20T13:30:33Z</time>
      </trkpt>
      <trkpt lat="49.98436" lon="2.39877">
        <ele>101.6</ele>
        <time>2022-04-20T13:30:34Z</time>
      </trkpt>
      <trkpt lat="49.98437" lon="2.39873">
        <ele>101.6</ele>
        <time>2022-04-20T13:30:35Z</time>
      </trkpt>
      <trkpt lat="49.98438" lon="2.39872">
        <ele>101.5</ele>
        <time>2022-04-20T13:30:36Z</time>
      </trkpt>
      <trkpt lat="49.98439" lon="2.39869">
        <ele>101.5</ele>
        <time>2022-04-20T13:30:37Z</time>
      </trkpt>
      <trkpt lat="49.9844" lon="2.39867">
        <ele>101.5</ele>
        <time>2022-04-20T13:30:38Z</time>
      </trkpt>
      <trkpt lat="49.98441" lon="2.39865">
        <ele>101.4</ele>
        <time>2022-04-20T13:30:39Z</time>
      </trkpt>
      <trkpt lat="49.98442" lon="2.39864">
        <ele>101.4</ele>
        <time>2022-04-20T13:30:40Z</time>
      </trkpt>
      <trkpt lat="49.98443" lon="2.39862">
        <ele>101.3</ele>
        <time>2022-04-20T13:30:42Z</time>
      </trkpt>
      <trkpt lat="49.98444" lon="2.3986">
        <ele>101.3</ele>
        <time>2022-04-20T13:30:43Z</time>
      </trkpt>
      <trkpt lat="49.98446" lon="2.39859">
        <ele>101.3</ele>
        <time>2022-04-20T13:30:44Z</time>
      </trkpt>
      <trkpt lat="49.98447" lon="2.39857">
        <ele>101.2</ele>
        <time>2022-04-20T13:30:45Z</time>
      </trkpt>
      <trkpt lat="49.98447" lon="2.39856">
        <ele>101.2</ele>
        <time>2022-04-20T13:30:46Z</time>
      </trkpt>
      <trkpt lat="49.9845" lon="2.39852">
        <ele>101.1</ele>
        <time>2022-04-20T13:30:48Z</time>
      </trkpt>
      <trkpt lat="49.98451" lon="2.39849">
        <ele>101</ele>
        <time>2022-04-20T13:30:49Z</time>
      </trkpt>
      <trkpt lat="49.98452" lon="2.39848">
        <ele>101</ele>
        <time>2022-04-20T13:30:50Z</time>
      </trkpt>
      <trkpt lat="49.98454" lon="2.39844">
        <ele>100.9</ele>
        <time>2022-04-20T13:30:51Z</time>
      </trkpt>
      <trkpt lat="49.98454" lon="2.39843">
        <ele>100.9</ele>
        <time>2022-04-20T13:30:52Z</time>
      </trkpt>
      <trkpt lat="49.98456" lon="2.3984">
        <ele>100.8</ele>
        <time>2022-04-20T13:30:54Z</time>
      </trkpt>
      <trkpt lat="49.98457" lon="2.39839">
        <ele>100.7</ele>
        <time>2022-04-20T13:30:55Z</time>
      </trkpt>
      <trkpt lat="49.98458" lon="2.39837">
        <ele>100.7</ele>
        <time>2022-04-20T13:30:56Z</time>
      </trkpt>
      <trkpt lat="49.98459" lon="2.39835">
        <ele>100.6</ele>
        <time>2022-04-20T13:30:57Z</time>
      </trkpt>
      <trkpt lat="49.9846" lon="2.39834">
        <ele>100.6</ele>
        <time>2022-04-20T13:30:58Z</time>
      </trkpt>
      <trkpt lat="49.98461" lon="2.39831">
        <ele>100.5</ele>
        <time>2022-04-20T13:30:59Z</time>
      </trkpt>
      <trkpt lat="49.98462" lon="2.39829">
        <ele>100.5</ele>
        <time>2022-04-20T13:31:00Z</time>
      </trkpt>
      <trkpt lat="49.98463" lon="2.39828">
        <ele>100.4</ele>
        <time>2022-04-20T13:31:01Z</time>
      </trkpt>
      <trkpt lat="49.98464" lon="2.39826">
        <ele>100.3</ele>
        <time>2022-04-20T13:31:02Z</time>
      </trkpt>
      <trkpt lat="49.98465" lon="2.39824">
        <ele>100.3</ele>
        <time>2022-04-20T13:31:03Z</time>
      </trkpt>
      <trkpt lat="49.98465" lon="2.39822">
        <ele>100.2</ele>
        <time>2022-04-20T13:31:05Z</time>
      </trkpt>
      <trkpt lat="49.98466" lon="2.39821">
        <ele>100.2</ele>
        <time>2022-04-20T13:31:06Z</time>
      </trkpt>
      <trkpt lat="49.98467" lon="2.39819">
        <ele>100.1</ele>
        <time>2022-04-20T13:31:07Z</time>
      </trkpt>
      <trkpt lat="49.98468" lon="2.39817">
        <ele>100.1</ele>
        <time>2022-04-20T13:31:08Z</time>
      </trkpt>
      <trkpt lat="49.98469" lon="2.39814">
        <ele>100</ele>
        <time>2022-04-20T13:31:09Z</time>
      </trkpt>
      <trkpt lat="49.9847" lon="2.39813">
        <ele>100</ele>
        <time>2022-04-20T13:31:10Z</time>
      </trkpt>
      <trkpt lat="49.9847" lon="2.39812">
        <ele>99.9</ele>
        <time>2022-04-20T13:31:11Z</time>
      </trkpt>
      <trkpt lat="49.98472" lon="2.39809">
        <ele>99.8</ele>
        <time>2022-04-20T13:31:12Z</time>
      </trkpt>
      <trkpt lat="49.98472" lon="2.39808">
        <ele>99.8</ele>
        <time>2022-04-20T13:31:13Z</time>
      </trkpt>
      <trkpt lat="49.98473" lon="2.39806">
        <ele>99.8</ele>
        <time>2022-04-20T13:31:14Z</time>
      </trkpt>
      <trkpt lat="49.98474" lon="2.39805">
        <ele>99.7</ele>
        <time>2022-04-20T13:31:15Z</time>
      </trkpt>
      <trkpt lat="49.98474" lon="2.39803">
        <ele>99.6</ele>
        <time>2022-04-20T13:31:16Z</time>
      </trkpt>
      <trkpt lat="49.98476" lon="2.398">
        <ele>99.6</ele>
        <time>2022-04-20T13:31:17Z</time>
      </trkpt>
      <trkpt lat="49.98476" lon="2.39799">
        <ele>99.5</ele>
        <time>2022-04-20T13:31:19Z</time>
      </trkpt>
      <trkpt lat="49.98476" lon="2.39797">
        <ele>99.5</ele>
        <time>2022-04-20T13:31:20Z</time>
      </trkpt>
      <trkpt lat="49.98477" lon="2.39796">
        <ele>99.4</ele>
        <time>2022-04-20T13:31:21Z</time>
      </trkpt>
      <trkpt lat="49.98478" lon="2.39794">
        <ele>99.4</ele>
        <time>2022-04-20T13:31:22Z</time>
      </trkpt>
      <trkpt lat="49.98478" lon="2.39793">
        <ele>99.3</ele>
        <time>2022-04-20T13:31:23Z</time>
      </trkpt>
      <trkpt lat="49.98479" lon="2.3979">
        <ele>99.3</ele>
        <time>2022-04-20T13:31:24Z</time>
      </trkpt>
      <trkpt lat="49.98479" lon="2.39789">
        <ele>99.2</ele>
        <time>2022-04-20T13:31:25Z</time>
      </trkpt>
      <trkpt lat="49.9848" lon="2.39788">
        <ele>99.2</ele>
        <time>2022-04-20T13:31:26Z</time>
      </trkpt>
      <trkpt lat="49.98481" lon="2.39785">
        <ele>99.1</ele>
        <time>2022-04-20T13:31:27Z</time>
      </trkpt>
      <trkpt lat="49.98482" lon="2.39784">
        <ele>99.1</ele>
        <time>2022-04-20T13:31:28Z</time>
      </trkpt>
      <trkpt lat="49.98482" lon="2.39783">
        <ele>99</ele>
        <time>2022-04-20T13:31:29Z</time>
      </trkpt>
      <trkpt lat="49.98483" lon="2.3978">
        <ele>98.9</ele>
        <time>2022-04-20T13:31:30Z</time>
      </trkpt>
      <trkpt lat="49.98484" lon="2.39779">
        <ele>98.9</ele>
        <time>2022-04-20T13:31:32Z</time>
      </trkpt>
      <trkpt lat="49.98484" lon="2.39778">
        <ele>98.9</ele>
        <time>2022-04-20T13:31:33Z</time>
      </trkpt>
      <trkpt lat="49.98485" lon="2.39777">
        <ele>98.8</ele>
        <time>2022-04-20T13:31:34Z</time>
      </trkpt>
      <trkpt lat="49.98486" lon="2.39775">
        <ele>98.7</ele>
        <time>2022-04-20T13:31:35Z</time>
      </trkpt>
      <trkpt lat="49.98487" lon="2.39772">
        <ele>98.6</ele>
        <time>2022-04-20T13:31:36Z</time>
      </trkpt>
      <trkpt lat="49.98487" lon="2.39771">
        <ele>98.6</ele>
        <time>2022-04-20T13:31:37Z</time>
      </trkpt>
      <trkpt lat="49.98488" lon="2.3977">
        <ele>98.6</ele>
        <time>2022-04-20T13:31:38Z</time>
      </trkpt>
      <trkpt lat="49.98489" lon="2.39768">
        <ele>98.5</ele>
        <time>2022-04-20T13:31:39Z</time>
      </trkpt>
      <trkpt lat="49.9849" lon="2.39766">
        <ele>98.4</ele>
        <time>2022-04-20T13:31:40Z</time>
      </trkpt>
      <trkpt lat="49.9849" lon="2.39764">
        <ele>98.3</ele>
        <time>2022-04-20T13:31:41Z</time>
      </trkpt>
      <trkpt lat="49.98491" lon="2.39762">
        <ele>98.3</ele>
        <time>2022-04-20T13:31:42Z</time>
      </trkpt>
      <trkpt lat="49.98492" lon="2.3976">
        <ele>98.2</ele>
        <time>2022-04-20T13:31:44Z</time>
      </trkpt>
      <trkpt lat="49.98494" lon="2.39757">
        <ele>98.1</ele>
        <time>2022-04-20T13:31:46Z</time>
      </trkpt>
      <trkpt lat="49.98495" lon="2.39755">
        <ele>98</ele>
        <time>2022-04-20T13:31:47Z</time>
      </trkpt>
      <trkpt lat="49.98496" lon="2.39753">
        <ele>97.9</ele>
        <time>2022-04-20T13:31:48Z</time>
      </trkpt>
      <trkpt lat="49.98497" lon="2.3975">
        <ele>97.8</ele>
        <time>2022-04-20T13:31:50Z</time>
      </trkpt>
      <trkpt lat="49.98498" lon="2.39749">
        <ele>97.7</ele>
        <time>2022-04-20T13:31:51Z</time>
      </trkpt>
      <trkpt lat="49.98499" lon="2.39746">
        <ele>97.6</ele>
        <time>2022-04-20T13:31:52Z</time>
      </trkpt>
      <trkpt lat="49.985" lon="2.39744">
        <ele>97.6</ele>
        <time>2022-04-20T13:31:53Z</time>
      </trkpt>
      <trkpt lat="49.985" lon="2.39743">
        <ele>97.5</ele>
        <time>2022-04-20T13:31:54Z</time>
      </trkpt>
      <trkpt lat="49.98501" lon="2.39741">
        <ele>97.4</ele>
        <time>2022-04-20T13:31:55Z</time>
      </trkpt>
      <trkpt lat="49.98502" lon="2.39739">
        <ele>97.3</ele>
        <time>2022-04-20T13:31:57Z</time>
      </trkpt>
      <trkpt lat="49.98503" lon="2.39736">
        <ele>97.2</ele>
        <time>2022-04-20T13:31:58Z</time>
      </trkpt>
      <trkpt lat="49.98504" lon="2.39735">
        <ele>97.1</ele>
        <time>2022-04-20T13:31:59Z</time>
      </trkpt>
      <trkpt lat="49.98505" lon="2.39731">
        <ele>97</ele>
        <time>2022-04-20T13:32:00Z</time>
      </trkpt>
      <trkpt lat="49.98506" lon="2.3973">
        <ele>96.9</ele>
        <time>2022-04-20T13:32:02Z</time>
      </trkpt>
      <trkpt lat="49.98506" lon="2.39728">
        <ele>96.9</ele>
        <time>2022-04-20T13:32:03Z</time>
      </trkpt>
      <trkpt lat="49.98507" lon="2.39727">
        <ele>96.8</ele>
        <time>2022-04-20T13:32:04Z</time>
      </trkpt>
      <trkpt lat="49.98508" lon="2.39725">
        <ele>96.8</ele>
        <time>2022-04-20T13:32:05Z</time>
      </trkpt>
      <trkpt lat="49.98509" lon="2.39722">
        <ele>96.6</ele>
        <time>2022-04-20T13:32:06Z</time>
      </trkpt>
      <trkpt lat="49.98509" lon="2.39721">
        <ele>96.6</ele>
        <time>2022-04-20T13:32:07Z</time>
      </trkpt>
      <trkpt lat="49.98509" lon="2.3972">
        <ele>96.6</ele>
        <time>2022-04-20T13:32:08Z</time>
      </trkpt>
      <trkpt lat="49.9851" lon="2.39717">
        <ele>96.5</ele>
        <time>2022-04-20T13:32:09Z</time>
      </trkpt>
      <trkpt lat="49.98511" lon="2.39715">
        <ele>96.4</ele>
        <time>2022-04-20T13:32:11Z</time>
      </trkpt>
      <trkpt lat="49.98512" lon="2.39713">
        <ele>96.3</ele>
        <time>2022-04-20T13:32:12Z</time>
      </trkpt>
      <trkpt lat="49.98512" lon="2.39711">
        <ele>96.2</ele>
        <time>2022-04-20T13:32:13Z</time>
      </trkpt>
      <trkpt lat="49.98513" lon="2.39709">
        <ele>96.2</ele>
        <time>2022-04-20T13:32:14Z</time>
      </trkpt>
      <trkpt lat="49.98513" lon="2.39707">
        <ele>96.1</ele>
        <time>2022-04-20T13:32:15Z</time>
      </trkpt>
      <trkpt lat="49.98514" lon="2.39704">
        <ele>96</ele>
        <time>2022-04-20T13:32:16Z</time>
      </trkpt>
      <trkpt lat="49.98515" lon="2.39703">
        <ele>96</ele>
        <time>2022-04-20T13:32:17Z</time>
      </trkpt>
      <trkpt lat="49.98515" lon="2.39702">
        <ele>95.9</ele>
        <time>2022-04-20T13:32:18Z</time>
      </trkpt>
      <trkpt lat="49.98516" lon="2.39699">
        <ele>95.8</ele>
        <time>2022-04-20T13:32:19Z</time>
      </trkpt>
      <trkpt lat="49.98517" lon="2.39698">
        <ele>95.7</ele>
        <time>2022-04-20T13:32:20Z</time>
      </trkpt>
      <trkpt lat="49.98517" lon="2.39697">
        <ele>95.7</ele>
        <time>2022-04-20T13:32:21Z</time>
      </trkpt>
      <trkpt lat="49.98518" lon="2.39695">
        <ele>95.6</ele>
        <time>2022-04-20T13:32:22Z</time>
      </trkpt>
      <trkpt lat="49.98518" lon="2.39693">
        <ele>95.6</ele>
        <time>2022-04-20T13:32:23Z</time>
      </trkpt>
      <trkpt lat="49.98519" lon="2.39691">
        <ele>95.5</ele>
        <time>2022-04-20T13:32:25Z</time>
      </trkpt>
      <trkpt lat="49.98519" lon="2.39689">
        <ele>95.4</ele>
        <time>2022-04-20T13:32:26Z</time>
      </trkpt>
      <trkpt lat="49.9852" lon="2.39687">
        <ele>95.3</ele>
        <time>2022-04-20T13:32:27Z</time>
      </trkpt>
      <trkpt lat="49.98521" lon="2.39685">
        <ele>95.2</ele>
        <time>2022-04-20T13:32:29Z</time>
      </trkpt>
      <trkpt lat="49.98521" lon="2.39683">
        <ele>95.1</ele>
        <time>2022-04-20T13:32:30Z</time>
      </trkpt>
      <trkpt lat="49.98522" lon="2.39682">
        <ele>95.1</ele>
        <time>2022-04-20T13:32:31Z</time>
      </trkpt>
      <trkpt lat="49.98522" lon="2.3968">
        <ele>95</ele>
        <time>2022-04-20T13:32:32Z</time>
      </trkpt>
      <trkpt lat="49.98523" lon="2.39679">
        <ele>94.9</ele>
        <time>2022-04-20T13:32:33Z</time>
      </trkpt>
      <trkpt lat="49.98524" lon="2.39678">
        <ele>94.9</ele>
        <time>2022-04-20T13:32:34Z</time>
      </trkpt>
      <trkpt lat="49.98525" lon="2.39677">
        <ele>94.8</ele>
        <time>2022-04-20T13:32:35Z</time>
      </trkpt>
      <trkpt lat="49.98526" lon="2.39675">
        <ele>94.7</ele>
        <time>2022-04-20T13:32:36Z</time>
      </trkpt>
      <trkpt lat="49.98526" lon="2.39674">
        <ele>94.6</ele>
        <time>2022-04-20T13:32:37Z</time>
      </trkpt>
      <trkpt lat="49.98527" lon="2.39673">
        <ele>94.6</ele>
        <time>2022-04-20T13:32:38Z</time>
      </trkpt>
      <trkpt lat="49.98528" lon="2.39671">
        <ele>94.5</ele>
        <time>2022-04-20T13:32:39Z</time>
      </trkpt>
      <trkpt lat="49.98528" lon="2.3967">
        <ele>94.4</ele>
        <time>2022-04-20T13:32:41Z</time>
      </trkpt>
      <trkpt lat="49.98529" lon="2.39668">
        <ele>94.3</ele>
        <time>2022-04-20T13:32:42Z</time>
      </trkpt>
      <trkpt lat="49.9853" lon="2.39667">
        <ele>94.2</ele>
        <time>2022-04-20T13:32:43Z</time>
      </trkpt>
      <trkpt lat="49.98531" lon="2.39665">
        <ele>94.2</ele>
        <time>2022-04-20T13:32:44Z</time>
      </trkpt>
      <trkpt lat="49.98531" lon="2.39664">
        <ele>94.1</ele>
        <time>2022-04-20T13:32:45Z</time>
      </trkpt>
      <trkpt lat="49.98532" lon="2.39663">
        <ele>94</ele>
        <time>2022-04-20T13:32:46Z</time>
      </trkpt>
      <trkpt lat="49.98532" lon="2.39662">
        <ele>93.9</ele>
        <time>2022-04-20T13:32:47Z</time>
      </trkpt>
      <trkpt lat="49.98533" lon="2.3966">
        <ele>93.9</ele>
        <time>2022-04-20T13:32:48Z</time>
      </trkpt>
      <trkpt lat="49.98533" lon="2.39659">
        <ele>93.8</ele>
        <time>2022-04-20T13:32:49Z</time>
      </trkpt>
      <trkpt lat="49.98534" lon="2.39656">
        <ele>93.7</ele>
        <time>2022-04-20T13:32:50Z</time>
      </trkpt>
      <trkpt lat="49.98534" lon="2.39655">
        <ele>93.6</ele>
        <time>2022-04-20T13:32:52Z</time>
      </trkpt>
      <trkpt lat="49.98534" lon="2.39653">
        <ele>93.5</ele>
        <time>2022-04-20T13:32:53Z</time>
      </trkpt>
      <trkpt lat="49.98534" lon="2.39652">
        <ele>93.5</ele>
        <time>2022-04-20T13:32:54Z</time>
      </trkpt>
      <trkpt lat="49.98535" lon="2.3965">
        <ele>93.4</ele>
        <time>2022-04-20T13:32:55Z</time>
      </trkpt>
      <trkpt lat="49.98536" lon="2.39648">
        <ele>93.3</ele>
        <time>2022-04-20T13:32:56Z</time>
      </trkpt>
      <trkpt lat="49.98536" lon="2.39647">
        <ele>93.3</ele>
        <time>2022-04-20T13:32:57Z</time>
      </trkpt>
      <trkpt lat="49.98536" lon="2.39645">
        <ele>93.2</ele>
        <time>2022-04-20T13:32:58Z</time>
      </trkpt>
      <trkpt lat="49.98537" lon="2.39643">
        <ele>93.1</ele>
        <time>2022-04-20T13:32:59Z</time>
      </trkpt>
      <trkpt lat="49.98538" lon="2.39642">
        <ele>93</ele>
        <time>2022-04-20T13:33:00Z</time>
      </trkpt>
      <trkpt lat="49.98538" lon="2.3964">
        <ele>92.9</ele>
        <time>2022-04-20T13:33:01Z</time>
      </trkpt>
      <trkpt lat="49.9854" lon="2.39637">
        <ele>92.9</ele>
        <time>2022-04-20T13:33:02Z</time>
      </trkpt>
      <trkpt lat="49.9854" lon="2.39636">
        <ele>92.8</ele>
        <time>2022-04-20T13:33:04Z</time>
      </trkpt>
      <trkpt lat="49.98541" lon="2.39634">
        <ele>92.7</ele>
        <time>2022-04-20T13:33:05Z</time>
      </trkpt>
      <trkpt lat="49.98542" lon="2.39632">
        <ele>92.6</ele>
        <time>2022-04-20T13:33:06Z</time>
      </trkpt>
      <trkpt lat="49.98542" lon="2.39631">
        <ele>92.5</ele>
        <time>2022-04-20T13:33:07Z</time>
      </trkpt>
      <trkpt lat="49.98543" lon="2.39629">
        <ele>92.4</ele>
        <time>2022-04-20T13:33:08Z</time>
      </trkpt>
      <trkpt lat="49.98544" lon="2.39627">
        <ele>92.4</ele>
        <time>2022-04-20T13:33:09Z</time>
      </trkpt>
      <trkpt lat="49.98545" lon="2.39626">
        <ele>92.3</ele>
        <time>2022-04-20T13:33:10Z</time>
      </trkpt>
      <trkpt lat="49.98546" lon="2.39624">
        <ele>92.2</ele>
        <time>2022-04-20T13:33:11Z</time>
      </trkpt>
      <trkpt lat="49.98547" lon="2.39622">
        <ele>92.1</ele>
        <time>2022-04-20T13:33:12Z</time>
      </trkpt>
      <trkpt lat="49.98547" lon="2.3962">
        <ele>92</ele>
        <time>2022-04-20T13:33:13Z</time>
      </trkpt>
      <trkpt lat="49.98548" lon="2.39619">
        <ele>91.9</ele>
        <time>2022-04-20T13:33:14Z</time>
      </trkpt>
      <trkpt lat="49.98549" lon="2.39616">
        <ele>91.8</ele>
        <time>2022-04-20T13:33:16Z</time>
      </trkpt>
      <trkpt lat="49.9855" lon="2.39615">
        <ele>91.7</ele>
        <time>2022-04-20T13:33:17Z</time>
      </trkpt>
      <trkpt lat="49.9855" lon="2.39614">
        <ele>91.7</ele>
        <time>2022-04-20T13:33:18Z</time>
      </trkpt>
      <trkpt lat="49.98551" lon="2.39612">
        <ele>91.6</ele>
        <time>2022-04-20T13:33:19Z</time>
      </trkpt>
      <trkpt lat="49.98551" lon="2.3961">
        <ele>91.5</ele>
        <time>2022-04-20T13:33:20Z</time>
      </trkpt>
      <trkpt lat="49.98551" lon="2.39608">
        <ele>91.4</ele>
        <time>2022-04-20T13:33:21Z</time>
      </trkpt>
      <trkpt lat="49.98552" lon="2.39606">
        <ele>91.3</ele>
        <time>2022-04-20T13:33:22Z</time>
      </trkpt>
      <trkpt lat="49.98553" lon="2.39603">
        <ele>91.2</ele>
        <time>2022-04-20T13:33:24Z</time>
      </trkpt>
      <trkpt lat="49.98553" lon="2.39601">
        <ele>91.1</ele>
        <time>2022-04-20T13:33:25Z</time>
      </trkpt>
      <trkpt lat="49.98553" lon="2.39598">
        <ele>91</ele>
        <time>2022-04-20T13:33:26Z</time>
      </trkpt>
      <trkpt lat="49.98554" lon="2.39597">
        <ele>90.9</ele>
        <time>2022-04-20T13:33:27Z</time>
      </trkpt>
      <trkpt lat="49.98554" lon="2.39595">
        <ele>90.9</ele>
        <time>2022-04-20T13:33:28Z</time>
      </trkpt>
      <trkpt lat="49.98555" lon="2.39592">
        <ele>90.8</ele>
        <time>2022-04-20T13:33:29Z</time>
      </trkpt>
      <trkpt lat="49.98555" lon="2.39591">
        <ele>90.7</ele>
        <time>2022-04-20T13:33:30Z</time>
      </trkpt>
      <trkpt lat="49.98555" lon="2.3959">
        <ele>90.7</ele>
        <time>2022-04-20T13:33:31Z</time>
      </trkpt>
      <trkpt lat="49.98556" lon="2.39587">
        <ele>90.6</ele>
        <time>2022-04-20T13:33:33Z</time>
      </trkpt>
      <trkpt lat="49.98557" lon="2.39586">
        <ele>90.5</ele>
        <time>2022-04-20T13:33:34Z</time>
      </trkpt>
      <trkpt lat="49.98557" lon="2.39585">
        <ele>90.5</ele>
        <time>2022-04-20T13:33:35Z</time>
      </trkpt>
      <trkpt lat="49.98558" lon="2.39583">
        <ele>90.4</ele>
        <time>2022-04-20T13:33:36Z</time>
      </trkpt>
      <trkpt lat="49.98558" lon="2.39582">
        <ele>90.3</ele>
        <time>2022-04-20T13:33:37Z</time>
      </trkpt>
      <trkpt lat="49.98559" lon="2.3958">
        <ele>90.3</ele>
        <time>2022-04-20T13:33:38Z</time>
      </trkpt>
      <trkpt lat="49.9856" lon="2.39577">
        <ele>90.2</ele>
        <time>2022-04-20T13:33:39Z</time>
      </trkpt>
      <trkpt lat="49.9856" lon="2.39576">
        <ele>90.1</ele>
        <time>2022-04-20T13:33:40Z</time>
      </trkpt>
      <trkpt lat="49.9856" lon="2.39575">
        <ele>90.1</ele>
        <time>2022-04-20T13:33:41Z</time>
      </trkpt>
      <trkpt lat="49.98561" lon="2.39572">
        <ele>90</ele>
        <time>2022-04-20T13:33:42Z</time>
      </trkpt>
      <trkpt lat="49.98562" lon="2.39571">
        <ele>89.9</ele>
        <time>2022-04-20T13:33:43Z</time>
      </trkpt>
      <trkpt lat="49.98563" lon="2.39567">
        <ele>89.8</ele>
        <time>2022-04-20T13:33:44Z</time>
      </trkpt>
      <trkpt lat="49.98563" lon="2.39565">
        <ele>89.7</ele>
        <time>2022-04-20T13:33:46Z</time>
      </trkpt>
      <trkpt lat="49.98564" lon="2.39563">
        <ele>89.6</ele>
        <time>2022-04-20T13:33:48Z</time>
      </trkpt>
      <trkpt lat="49.98564" lon="2.39561">
        <ele>89.5</ele>
        <time>2022-04-20T13:33:49Z</time>
      </trkpt>
      <trkpt lat="49.98565" lon="2.39558">
        <ele>89.4</ele>
        <time>2022-04-20T13:33:50Z</time>
      </trkpt>
      <trkpt lat="49.98565" lon="2.39557">
        <ele>89.4</ele>
        <time>2022-04-20T13:33:51Z</time>
      </trkpt>
      <trkpt lat="49.98566" lon="2.39555">
        <ele>89.3</ele>
        <time>2022-04-20T13:33:52Z</time>
      </trkpt>
      <trkpt lat="49.98566" lon="2.39553">
        <ele>89.3</ele>
        <time>2022-04-20T13:33:53Z</time>
      </trkpt>
      <trkpt lat="49.98566" lon="2.39551">
        <ele>89.2</ele>
        <time>2022-04-20T13:33:54Z</time>
      </trkpt>
      <trkpt lat="49.98567" lon="2.39547">
        <ele>89.1</ele>
        <time>2022-04-20T13:33:55Z</time>
      </trkpt>
      <trkpt lat="49.98567" lon="2.39546">
        <ele>89</ele>
        <time>2022-04-20T13:33:57Z</time>
      </trkpt>
      <trkpt lat="49.98568" lon="2.39544">
        <ele>88.9</ele>
        <time>2022-04-20T13:33:58Z</time>
      </trkpt>
      <trkpt lat="49.98568" lon="2.39542">
        <ele>89</ele>
        <time>2022-04-20T13:33:59Z</time>
      </trkpt>
      <trkpt lat="49.98568" lon="2.39541">
        <ele>88.9</ele>
        <time>2022-04-20T13:34:00Z</time>
      </trkpt>
      <trkpt lat="49.98569" lon="2.39539">
        <ele>88.8</ele>
        <time>2022-04-20T13:34:01Z</time>
      </trkpt>
      <trkpt lat="49.98569" lon="2.39535">
        <ele>88.7</ele>
        <time>2022-04-20T13:34:03Z</time>
      </trkpt>
      <trkpt lat="49.9857" lon="2.39534">
        <ele>88.7</ele>
        <time>2022-04-20T13:34:04Z</time>
      </trkpt>
      <trkpt lat="49.9857" lon="2.39532">
        <ele>88.6</ele>
        <time>2022-04-20T13:34:05Z</time>
      </trkpt>
      <trkpt lat="49.9857" lon="2.39531">
        <ele>88.5</ele>
        <time>2022-04-20T13:34:06Z</time>
      </trkpt>
      <trkpt lat="49.98571" lon="2.39529">
        <ele>88.5</ele>
        <time>2022-04-20T13:34:07Z</time>
      </trkpt>
      <trkpt lat="49.98571" lon="2.39527">
        <ele>88.4</ele>
        <time>2022-04-20T13:34:08Z</time>
      </trkpt>
      <trkpt lat="49.98571" lon="2.39524">
        <ele>88.3</ele>
        <time>2022-04-20T13:34:10Z</time>
      </trkpt>
      <trkpt lat="49.98572" lon="2.39521">
        <ele>88.2</ele>
        <time>2022-04-20T13:34:11Z</time>
      </trkpt>
      <trkpt lat="49.98572" lon="2.39519">
        <ele>88.2</ele>
        <time>2022-04-20T13:34:12Z</time>
      </trkpt>
      <trkpt lat="49.98572" lon="2.39518">
        <ele>88.1</ele>
        <time>2022-04-20T13:34:13Z</time>
      </trkpt>
      <trkpt lat="49.98573" lon="2.39515">
        <ele>88</ele>
        <time>2022-04-20T13:34:14Z</time>
      </trkpt>
      <trkpt lat="49.98573" lon="2.39513">
        <ele>88</ele>
        <time>2022-04-20T13:34:16Z</time>
      </trkpt>
      <trkpt lat="49.98573" lon="2.39511">
        <ele>87.9</ele>
        <time>2022-04-20T13:34:17Z</time>
      </trkpt>
      <trkpt lat="49.98573" lon="2.3951">
        <ele>87.8</ele>
        <time>2022-04-20T13:34:18Z</time>
      </trkpt>
      <trkpt lat="49.98574" lon="2.39508">
        <ele>87.8</ele>
        <time>2022-04-20T13:34:19Z</time>
      </trkpt>
      <trkpt lat="49.98574" lon="2.39506">
        <ele>87.7</ele>
        <time>2022-04-20T13:34:20Z</time>
      </trkpt>
      <trkpt lat="49.98574" lon="2.39504">
        <ele>87.7</ele>
        <time>2022-04-20T13:34:21Z</time>
      </trkpt>
      <trkpt lat="49.98574" lon="2.39503">
        <ele>87.6</ele>
        <time>2022-04-20T13:34:22Z</time>
      </trkpt>
      <trkpt lat="49.98575" lon="2.39501">
        <ele>87.5</ele>
        <time>2022-04-20T13:34:23Z</time>
      </trkpt>
      <trkpt lat="49.98575" lon="2.39499">
        <ele>87.5</ele>
        <time>2022-04-20T13:34:24Z</time>
      </trkpt>
      <trkpt lat="49.98575" lon="2.39497">
        <ele>87.4</ele>
        <time>2022-04-20T13:34:26Z</time>
      </trkpt>
      <trkpt lat="49.98576" lon="2.39495">
        <ele>87.3</ele>
        <time>2022-04-20T13:34:27Z</time>
      </trkpt>
      <trkpt lat="49.98576" lon="2.39492">
        <ele>87.2</ele>
        <time>2022-04-20T13:34:29Z</time>
      </trkpt>
      <trkpt lat="49.98577" lon="2.39489">
        <ele>87.1</ele>
        <time>2022-04-20T13:34:31Z</time>
      </trkpt>
      <trkpt lat="49.98577" lon="2.39487">
        <ele>87.1</ele>
        <time>2022-04-20T13:34:32Z</time>
      </trkpt>
      <trkpt lat="49.98578" lon="2.39485">
        <ele>87</ele>
        <time>2022-04-20T13:34:33Z</time>
      </trkpt>
      <trkpt lat="49.98578" lon="2.39484">
        <ele>87</ele>
        <time>2022-04-20T13:34:34Z</time>
      </trkpt>
      <trkpt lat="49.98579" lon="2.39482">
        <ele>87</ele>
        <time>2022-04-20T13:34:35Z</time>
      </trkpt>
      <trkpt lat="49.98579" lon="2.39481">
        <ele>86.9</ele>
        <time>2022-04-20T13:34:36Z</time>
      </trkpt>
      <trkpt lat="49.9858" lon="2.39479">
        <ele>86.9</ele>
        <time>2022-04-20T13:34:37Z</time>
      </trkpt>
      <trkpt lat="49.9858" lon="2.39477">
        <ele>86.8</ele>
        <time>2022-04-20T13:34:38Z</time>
      </trkpt>
      <trkpt lat="49.98581" lon="2.39474">
        <ele>86.7</ele>
        <time>2022-04-20T13:34:40Z</time>
      </trkpt>
      <trkpt lat="49.98582" lon="2.39473">
        <ele>86.7</ele>
        <time>2022-04-20T13:34:41Z</time>
      </trkpt>
      <trkpt lat="49.98582" lon="2.39472">
        <ele>86.7</ele>
        <time>2022-04-20T13:34:42Z</time>
      </trkpt>
      <trkpt lat="49.98583" lon="2.39469">
        <ele>86.6</ele>
        <time>2022-04-20T13:34:43Z</time>
      </trkpt>
      <trkpt lat="49.98584" lon="2.39467">
        <ele>86.6</ele>
        <time>2022-04-20T13:34:45Z</time>
      </trkpt>
      <trkpt lat="49.98584" lon="2.39465">
        <ele>86.5</ele>
        <time>2022-04-20T13:34:46Z</time>
      </trkpt>
      <trkpt lat="49.98585" lon="2.39464">
        <ele>86.5</ele>
        <time>2022-04-20T13:34:47Z</time>
      </trkpt>
      <trkpt lat="49.98585" lon="2.39462">
        <ele>86.4</ele>
        <time>2022-04-20T13:34:48Z</time>
      </trkpt>
      <trkpt lat="49.98586" lon="2.3946">
        <ele>86.4</ele>
        <time>2022-04-20T13:34:49Z</time>
      </trkpt>
      <trkpt lat="49.98586" lon="2.39458">
        <ele>86.4</ele>
        <time>2022-04-20T13:34:50Z</time>
      </trkpt>
      <trkpt lat="49.98587" lon="2.39455">
        <ele>86.3</ele>
        <time>2022-04-20T13:34:51Z</time>
      </trkpt>
      <trkpt lat="49.98588" lon="2.39454">
        <ele>86.3</ele>
        <time>2022-04-20T13:34:52Z</time>
      </trkpt>
      <trkpt lat="49.98588" lon="2.39453">
        <ele>86.2</ele>
        <time>2022-04-20T13:34:53Z</time>
      </trkpt>
      <trkpt lat="49.98589" lon="2.39451">
        <ele>86.2</ele>
        <time>2022-04-20T13:34:54Z</time>
      </trkpt>
      <trkpt lat="49.98589" lon="2.39449">
        <ele>86.1</ele>
        <time>2022-04-20T13:34:55Z</time>
      </trkpt>
      <trkpt lat="49.98589" lon="2.39447">
        <ele>86.1</ele>
        <time>2022-04-20T13:34:57Z</time>
      </trkpt>
      <trkpt lat="49.9859" lon="2.39444">
        <ele>86</ele>
        <time>2022-04-20T13:34:58Z</time>
      </trkpt>
      <trkpt lat="49.9859" lon="2.39443">
        <ele>86</ele>
        <time>2022-04-20T13:34:59Z</time>
      </trkpt>
      <trkpt lat="49.9859" lon="2.39442">
        <ele>86</ele>
        <time>2022-04-20T13:35:00Z</time>
      </trkpt>
      <trkpt lat="49.98591" lon="2.39438">
        <ele>85.9</ele>
        <time>2022-04-20T13:35:01Z</time>
      </trkpt>
      <trkpt lat="49.98591" lon="2.39437">
        <ele>85.9</ele>
        <time>2022-04-20T13:35:02Z</time>
      </trkpt>
      <trkpt lat="49.98591" lon="2.39436">
        <ele>85.9</ele>
        <time>2022-04-20T13:35:03Z</time>
      </trkpt>
      <trkpt lat="49.98592" lon="2.39434">
        <ele>85.8</ele>
        <time>2022-04-20T13:35:04Z</time>
      </trkpt>
      <trkpt lat="49.98592" lon="2.39432">
        <ele>85.8</ele>
        <time>2022-04-20T13:35:05Z</time>
      </trkpt>
      <trkpt lat="49.98593" lon="2.3943">
        <ele>85.7</ele>
        <time>2022-04-20T13:35:07Z</time>
      </trkpt>
      <trkpt lat="49.98593" lon="2.39428">
        <ele>85.7</ele>
        <time>2022-04-20T13:35:08Z</time>
      </trkpt>
      <trkpt lat="49.98594" lon="2.39426">
        <ele>85.6</ele>
        <time>2022-04-20T13:35:09Z</time>
      </trkpt>
      <trkpt lat="49.98595" lon="2.39423">
        <ele>85.6</ele>
        <time>2022-04-20T13:35:10Z</time>
      </trkpt>
      <trkpt lat="49.98595" lon="2.39421">
        <ele>85.5</ele>
        <time>2022-04-20T13:35:11Z</time>
      </trkpt>
      <trkpt lat="49.98595" lon="2.3942">
        <ele>85.5</ele>
        <time>2022-04-20T13:35:12Z</time>
      </trkpt>
      <trkpt lat="49.98595" lon="2.39418">
        <ele>85.5</ele>
        <time>2022-04-20T13:35:13Z</time>
      </trkpt>
      <trkpt lat="49.98596" lon="2.39416">
        <ele>85.4</ele>
        <time>2022-04-20T13:35:15Z</time>
      </trkpt>
      <trkpt lat="49.98596" lon="2.39414">
        <ele>85.4</ele>
        <time>2022-04-20T13:35:16Z</time>
      </trkpt>
      <trkpt lat="49.98597" lon="2.39412">
        <ele>85.3</ele>
        <time>2022-04-20T13:35:17Z</time>
      </trkpt>
      <trkpt lat="49.98597" lon="2.3941">
        <ele>85.3</ele>
        <time>2022-04-20T13:35:19Z</time>
      </trkpt>
      <trkpt lat="49.98598" lon="2.39407">
        <ele>85.2</ele>
        <time>2022-04-20T13:35:20Z</time>
      </trkpt>
      <trkpt lat="49.98598" lon="2.39406">
        <ele>85.2</ele>
        <time>2022-04-20T13:35:21Z</time>
      </trkpt>
      <trkpt lat="49.98599" lon="2.39405">
        <ele>85.1</ele>
        <time>2022-04-20T13:35:22Z</time>
      </trkpt>
      <trkpt lat="49.98599" lon="2.39401">
        <ele>85.1</ele>
        <time>2022-04-20T13:35:23Z</time>
      </trkpt>
      <trkpt lat="49.986" lon="2.394">
        <ele>85</ele>
        <time>2022-04-20T13:35:24Z</time>
      </trkpt>
      <trkpt lat="49.986" lon="2.39399">
        <ele>85</ele>
        <time>2022-04-20T13:35:25Z</time>
      </trkpt>
      <trkpt lat="49.98601" lon="2.39396">
        <ele>84.9</ele>
        <time>2022-04-20T13:35:26Z</time>
      </trkpt>
      <trkpt lat="49.98601" lon="2.39395">
        <ele>84.9</ele>
        <time>2022-04-20T13:35:27Z</time>
      </trkpt>
      <trkpt lat="49.98601" lon="2.39393">
        <ele>84.9</ele>
        <time>2022-04-20T13:35:28Z</time>
      </trkpt>
      <trkpt lat="49.98602" lon="2.39392">
        <ele>84.8</ele>
        <time>2022-04-20T13:35:30Z</time>
      </trkpt>
      <trkpt lat="49.98602" lon="2.3939">
        <ele>84.8</ele>
        <time>2022-04-20T13:35:31Z</time>
      </trkpt>
      <trkpt lat="49.98603" lon="2.39389">
        <ele>84.8</ele>
        <time>2022-04-20T13:35:32Z</time>
      </trkpt>
      <trkpt lat="49.98603" lon="2.39386">
        <ele>84.7</ele>
        <time>2022-04-20T13:35:33Z</time>
      </trkpt>
      <trkpt lat="49.98603" lon="2.39384">
        <ele>84.7</ele>
        <time>2022-04-20T13:35:34Z</time>
      </trkpt>
      <trkpt lat="49.98604" lon="2.39382">
        <ele>84.6</ele>
        <time>2022-04-20T13:35:36Z</time>
      </trkpt>
      <trkpt lat="49.98604" lon="2.3938">
        <ele>84.6</ele>
        <time>2022-04-20T13:35:37Z</time>
      </trkpt>
      <trkpt lat="49.98605" lon="2.39378">
        <ele>84.5</ele>
        <time>2022-04-20T13:35:38Z</time>
      </trkpt>
      <trkpt lat="49.98605" lon="2.39376">
        <ele>84.5</ele>
        <time>2022-04-20T13:35:39Z</time>
      </trkpt>
      <trkpt lat="49.98606" lon="2.39374">
        <ele>84.5</ele>
        <time>2022-04-20T13:35:41Z</time>
      </trkpt>
      <trkpt lat="49.98606" lon="2.39372">
        <ele>84.4</ele>
        <time>2022-04-20T13:35:42Z</time>
      </trkpt>
      <trkpt lat="49.98606" lon="2.3937">
        <ele>84.4</ele>
        <time>2022-04-20T13:35:43Z</time>
      </trkpt>
      <trkpt lat="49.98607" lon="2.39369">
        <ele>84.4</ele>
        <time>2022-04-20T13:35:44Z</time>
      </trkpt>
      <trkpt lat="49.98607" lon="2.39367">
        <ele>84.3</ele>
        <time>2022-04-20T13:35:45Z</time>
      </trkpt>
      <trkpt lat="49.98607" lon="2.39365">
        <ele>84.3</ele>
        <time>2022-04-20T13:35:46Z</time>
      </trkpt>
      <trkpt lat="49.98607" lon="2.39363">
        <ele>84.3</ele>
        <time>2022-04-20T13:35:47Z</time>
      </trkpt>
      <trkpt lat="49.98608" lon="2.3936">
        <ele>84.2</ele>
        <time>2022-04-20T13:35:48Z</time>
      </trkpt>
      <trkpt lat="49.98608" lon="2.39359">
        <ele>84.2</ele>
        <time>2022-04-20T13:35:49Z</time>
      </trkpt>
      <trkpt lat="49.98608" lon="2.39358">
        <ele>84.2</ele>
        <time>2022-04-20T13:35:50Z</time>
      </trkpt>
      <trkpt lat="49.98609" lon="2.39354">
        <ele>84.2</ele>
        <time>2022-04-20T13:35:51Z</time>
      </trkpt>
      <trkpt lat="49.98609" lon="2.39353">
        <ele>84.2</ele>
        <time>2022-04-20T13:35:53Z</time>
      </trkpt>
      <trkpt lat="49.98609" lon="2.39352">
        <ele>84.1</ele>
        <time>2022-04-20T13:35:54Z</time>
      </trkpt>
      <trkpt lat="49.9861" lon="2.3935">
        <ele>84.1</ele>
        <time>2022-04-20T13:35:55Z</time>
      </trkpt>
      <trkpt lat="49.9861" lon="2.39348">
        <ele>84.1</ele>
        <time>2022-04-20T13:35:56Z</time>
      </trkpt>
      <trkpt lat="49.98611" lon="2.39345">
        <ele>84.1</ele>
        <time>2022-04-20T13:35:57Z</time>
      </trkpt>
      <trkpt lat="49.98611" lon="2.39344">
        <ele>84</ele>
        <time>2022-04-20T13:35:58Z</time>
      </trkpt>
      <trkpt lat="49.98611" lon="2.39343">
        <ele>84</ele>
        <time>2022-04-20T13:35:59Z</time>
      </trkpt>
      <trkpt lat="49.98612" lon="2.39341">
        <ele>84</ele>
        <time>2022-04-20T13:36:00Z</time>
      </trkpt>
      <trkpt lat="49.98612" lon="2.39339">
        <ele>84</ele>
        <time>2022-04-20T13:36:01Z</time>
      </trkpt>
      <trkpt lat="49.98613" lon="2.39336">
        <ele>83.9</ele>
        <time>2022-04-20T13:36:02Z</time>
      </trkpt>
      <trkpt lat="49.98613" lon="2.39334">
        <ele>83.9</ele>
        <time>2022-04-20T13:36:03Z</time>
      </trkpt>
      <trkpt lat="49.98613" lon="2.39333">
        <ele>83.9</ele>
        <time>2022-04-20T13:36:04Z</time>
      </trkpt>
      <trkpt lat="49.98614" lon="2.39331">
        <ele>83.9</ele>
        <time>2022-04-20T13:36:06Z</time>
      </trkpt>
      <trkpt lat="49.98614" lon="2.39329">
        <ele>83.9</ele>
        <time>2022-04-20T13:36:07Z</time>
      </trkpt>
      <trkpt lat="49.98615" lon="2.39328">
        <ele>83.8</ele>
        <time>2022-04-20T13:36:08Z</time>
      </trkpt>
      <trkpt lat="49.98615" lon="2.39326">
        <ele>83.8</ele>
        <time>2022-04-20T13:36:09Z</time>
      </trkpt>
      <trkpt lat="49.98615" lon="2.39325">
        <ele>83.8</ele>
        <time>2022-04-20T13:36:10Z</time>
      </trkpt>
      <trkpt lat="49.98616" lon="2.39323">
        <ele>83.8</ele>
        <time>2022-04-20T13:36:11Z</time>
      </trkpt>
      <trkpt lat="49.98616" lon="2.39319">
        <ele>83.7</ele>
        <time>2022-04-20T13:36:12Z</time>
      </trkpt>
      <trkpt lat="49.98617" lon="2.39318">
        <ele>83.7</ele>
        <time>2022-04-20T13:36:13Z</time>
      </trkpt>
      <trkpt lat="49.98617" lon="2.39317">
        <ele>83.7</ele>
        <time>2022-04-20T13:36:14Z</time>
      </trkpt>
      <trkpt lat="49.98618" lon="2.39314">
        <ele>83.7</ele>
        <time>2022-04-20T13:36:15Z</time>
      </trkpt>
      <trkpt lat="49.98618" lon="2.39313">
        <ele>83.7</ele>
        <time>2022-04-20T13:36:16Z</time>
      </trkpt>
      <trkpt lat="49.98618" lon="2.39311">
        <ele>83.6</ele>
        <time>2022-04-20T13:36:17Z</time>
      </trkpt>
      <trkpt lat="49.98619" lon="2.39308">
        <ele>83.6</ele>
        <time>2022-04-20T13:36:19Z</time>
      </trkpt>
      <trkpt lat="49.98619" lon="2.39307">
        <ele>83.6</ele>
        <time>2022-04-20T13:36:20Z</time>
      </trkpt>
      <trkpt lat="49.9862" lon="2.39306">
        <ele>83.6</ele>
        <time>2022-04-20T13:36:21Z</time>
      </trkpt>
      <trkpt lat="49.9862" lon="2.39303">
        <ele>83.6</ele>
        <time>2022-04-20T13:36:22Z</time>
      </trkpt>
      <trkpt lat="49.98621" lon="2.39302">
        <ele>83.5</ele>
        <time>2022-04-20T13:36:23Z</time>
      </trkpt>
      <trkpt lat="49.98621" lon="2.393">
        <ele>83.5</ele>
        <time>2022-04-20T13:36:24Z</time>
      </trkpt>
      <trkpt lat="49.98621" lon="2.39297">
        <ele>83.5</ele>
        <time>2022-04-20T13:36:25Z</time>
      </trkpt>
      <trkpt lat="49.98621" lon="2.39296">
        <ele>83.5</ele>
        <time>2022-04-20T13:36:27Z</time>
      </trkpt>
      <trkpt lat="49.98622" lon="2.39294">
        <ele>83.5</ele>
        <time>2022-04-20T13:36:28Z</time>
      </trkpt>
      <trkpt lat="49.98622" lon="2.39293">
        <ele>83.5</ele>
        <time>2022-04-20T13:36:29Z</time>
      </trkpt>
      <trkpt lat="49.98622" lon="2.39291">
        <ele>83.4</ele>
        <time>2022-04-20T13:36:30Z</time>
      </trkpt>
      <trkpt lat="49.98622" lon="2.39289">
        <ele>83.4</ele>
        <time>2022-04-20T13:36:31Z</time>
      </trkpt>
      <trkpt lat="49.98623" lon="2.39286">
        <ele>83.4</ele>
        <time>2022-04-20T13:36:32Z</time>
      </trkpt>
      <trkpt lat="49.98623" lon="2.39284">
        <ele>83.4</ele>
        <time>2022-04-20T13:36:33Z</time>
      </trkpt>
      <trkpt lat="49.98623" lon="2.39283">
        <ele>83.4</ele>
        <time>2022-04-20T13:36:34Z</time>
      </trkpt>
      <trkpt lat="49.98623" lon="2.3928">
        <ele>83.3</ele>
        <time>2022-04-20T13:36:35Z</time>
      </trkpt>
      <trkpt lat="49.98624" lon="2.39279">
        <ele>83.3</ele>
        <time>2022-04-20T13:36:36Z</time>
      </trkpt>
      <trkpt lat="49.98624" lon="2.39278">
        <ele>83.3</ele>
        <time>2022-04-20T13:36:37Z</time>
      </trkpt>
      <trkpt lat="49.98625" lon="2.39275">
        <ele>83.3</ele>
        <time>2022-04-20T13:36:39Z</time>
      </trkpt>
      <trkpt lat="49.98625" lon="2.39273">
        <ele>83.3</ele>
        <time>2022-04-20T13:36:40Z</time>
      </trkpt>
      <trkpt lat="49.98625" lon="2.39272">
        <ele>83.2</ele>
        <time>2022-04-20T13:36:41Z</time>
      </trkpt>
      <trkpt lat="49.98625" lon="2.39271">
        <ele>83.2</ele>
        <time>2022-04-20T13:36:42Z</time>
      </trkpt>
      <trkpt lat="49.98625" lon="2.39269">
        <ele>83.2</ele>
        <time>2022-04-20T13:36:43Z</time>
      </trkpt>
      <trkpt lat="49.98625" lon="2.39267">
        <ele>83.2</ele>
        <time>2022-04-20T13:36:44Z</time>
      </trkpt>
      <trkpt lat="49.98626" lon="2.39266">
        <ele>83.2</ele>
        <time>2022-04-20T13:36:45Z</time>
      </trkpt>
      <trkpt lat="49.98626" lon="2.39264">
        <ele>83.1</ele>
        <time>2022-04-20T13:36:46Z</time>
      </trkpt>
      <trkpt lat="49.98626" lon="2.39263">
        <ele>83.1</ele>
        <time>2022-04-20T13:36:47Z</time>
      </trkpt>
      <trkpt lat="49.98627" lon="2.39261">
        <ele>83.1</ele>
        <time>2022-04-20T13:36:49Z</time>
      </trkpt>
      <trkpt lat="49.98627" lon="2.3926">
        <ele>83.1</ele>
        <time>2022-04-20T13:36:50Z</time>
      </trkpt>
      <trkpt lat="49.98628" lon="2.39258">
        <ele>83.1</ele>
        <time>2022-04-20T13:36:51Z</time>
      </trkpt>
      <trkpt lat="49.98628" lon="2.39257">
        <ele>83.1</ele>
        <time>2022-04-20T13:36:52Z</time>
      </trkpt>
      <trkpt lat="49.98629" lon="2.39255">
        <ele>83</ele>
        <time>2022-04-20T13:36:53Z</time>
      </trkpt>
      <trkpt lat="49.98629" lon="2.39253">
        <ele>83</ele>
        <time>2022-04-20T13:36:54Z</time>
      </trkpt>
      <trkpt lat="49.9863" lon="2.39251">
        <ele>83</ele>
        <time>2022-04-20T13:36:56Z</time>
      </trkpt>
      <trkpt lat="49.9863" lon="2.39249">
        <ele>83</ele>
        <time>2022-04-20T13:36:57Z</time>
      </trkpt>
      <trkpt lat="49.98631" lon="2.39248">
        <ele>83</ele>
        <time>2022-04-20T13:36:58Z</time>
      </trkpt>
      <trkpt lat="49.98631" lon="2.39246">
        <ele>82.9</ele>
        <time>2022-04-20T13:36:59Z</time>
      </trkpt>
      <trkpt lat="49.98631" lon="2.39244">
        <ele>82.9</ele>
        <time>2022-04-20T13:37:00Z</time>
      </trkpt>
      <trkpt lat="49.98632" lon="2.39241">
        <ele>82.9</ele>
        <time>2022-04-20T13:37:01Z</time>
      </trkpt>
      <trkpt lat="49.98632" lon="2.3924">
        <ele>82.9</ele>
        <time>2022-04-20T13:37:02Z</time>
      </trkpt>
      <trkpt lat="49.98632" lon="2.39239">
        <ele>82.9</ele>
        <time>2022-04-20T13:37:03Z</time>
      </trkpt>
      <trkpt lat="49.98633" lon="2.39236">
        <ele>82.9</ele>
        <time>2022-04-20T13:37:05Z</time>
      </trkpt>
      <trkpt lat="49.98633" lon="2.39234">
        <ele>82.8</ele>
        <time>2022-04-20T13:37:06Z</time>
      </trkpt>
      <trkpt lat="49.98634" lon="2.39233">
        <ele>82.8</ele>
        <time>2022-04-20T13:37:07Z</time>
      </trkpt>
      <trkpt lat="49.98634" lon="2.39231">
        <ele>82.8</ele>
        <time>2022-04-20T13:37:08Z</time>
      </trkpt>
      <trkpt lat="49.98634" lon="2.3923">
        <ele>82.8</ele>
        <time>2022-04-20T13:37:09Z</time>
      </trkpt>
      <trkpt lat="49.98635" lon="2.39228">
        <ele>82.8</ele>
        <time>2022-04-20T13:37:10Z</time>
      </trkpt>
      <trkpt lat="49.98635" lon="2.39226">
        <ele>82.8</ele>
        <time>2022-04-20T13:37:11Z</time>
      </trkpt>
      <trkpt lat="49.98636" lon="2.39224">
        <ele>82.8</ele>
        <time>2022-04-20T13:37:12Z</time>
      </trkpt>
      <trkpt lat="49.98636" lon="2.39222">
        <ele>82.8</ele>
        <time>2022-04-20T13:37:14Z</time>
      </trkpt>
      <trkpt lat="49.98636" lon="2.39221">
        <ele>82.7</ele>
        <time>2022-04-20T13:37:15Z</time>
      </trkpt>
      <trkpt lat="49.98636" lon="2.3922">
        <ele>82.7</ele>
        <time>2022-04-20T13:37:16Z</time>
      </trkpt>
      <trkpt lat="49.98636" lon="2.39219">
        <ele>82.7</ele>
        <time>2022-04-20T13:37:17Z</time>
      </trkpt>
      <trkpt lat="49.98635" lon="2.39219">
        <ele>82.7</ele>
        <time>2022-04-20T13:37:18Z</time>
      </trkpt>
      <trkpt lat="49.98635" lon="2.3922">
        <ele>82.7</ele>
        <time>2022-04-20T13:37:19Z</time>
      </trkpt>
      <trkpt lat="49.98634" lon="2.39221">
        <ele>82.7</ele>
        <time>2022-04-20T13:37:20Z</time>
      </trkpt>
      <trkpt lat="49.98633" lon="2.39223">
        <ele>82.7</ele>
        <time>2022-04-20T13:37:21Z</time>
      </trkpt>
      <trkpt lat="49.98633" lon="2.39223">
        <ele>82.7</ele>
        <time>2022-04-20T13:37:22Z</time>
      </trkpt>
      <trkpt lat="49.98633" lon="2.39221">
        <ele>82.7</ele>
        <time>2022-04-20T13:37:23Z</time>
      </trkpt>
      <trkpt lat="49.98634" lon="2.3922">
        <ele>82.7</ele>
        <time>2022-04-20T13:37:24Z</time>
      </trkpt>
      <trkpt lat="49.98634" lon="2.39219">
        <ele>82.6</ele>
        <time>2022-04-20T13:37:25Z</time>
      </trkpt>
      <trkpt lat="49.98634" lon="2.39217">
        <ele>82.6</ele>
        <time>2022-04-20T13:37:26Z</time>
      </trkpt>
      <trkpt lat="49.98635" lon="2.39216">
        <ele>82.6</ele>
        <time>2022-04-20T13:37:28Z</time>
      </trkpt>
      <trkpt lat="49.98635" lon="2.39215">
        <ele>82.6</ele>
        <time>2022-04-20T13:37:29Z</time>
      </trkpt>
      <trkpt lat="49.98635" lon="2.39213">
        <ele>82.6</ele>
        <time>2022-04-20T13:37:30Z</time>
      </trkpt>
      <trkpt lat="49.98636" lon="2.39212">
        <ele>82.6</ele>
        <time>2022-04-20T13:37:31Z</time>
      </trkpt>
      <trkpt lat="49.98637" lon="2.3921">
        <ele>82.6</ele>
        <time>2022-04-20T13:37:32Z</time>
      </trkpt>
      <trkpt lat="49.98637" lon="2.39208">
        <ele>82.5</ele>
        <time>2022-04-20T13:37:33Z</time>
      </trkpt>
      <trkpt lat="49.98638" lon="2.39206">
        <ele>82.5</ele>
        <time>2022-04-20T13:37:34Z</time>
      </trkpt>
      <trkpt lat="49.98639" lon="2.39204">
        <ele>82.5</ele>
        <time>2022-04-20T13:37:35Z</time>
      </trkpt>
      <trkpt lat="49.9864" lon="2.39203">
        <ele>82.5</ele>
        <time>2022-04-20T13:37:37Z</time>
      </trkpt>
      <trkpt lat="49.98641" lon="2.39201">
        <ele>82.5</ele>
        <time>2022-04-20T13:37:38Z</time>
      </trkpt>
      <trkpt lat="49.98641" lon="2.39199">
        <ele>82.5</ele>
        <time>2022-04-20T13:37:39Z</time>
      </trkpt>
      <trkpt lat="49.98642" lon="2.39198">
        <ele>82.4</ele>
        <time>2022-04-20T13:37:40Z</time>
      </trkpt>
      <trkpt lat="49.98642" lon="2.39196">
        <ele>82.4</ele>
        <time>2022-04-20T13:37:41Z</time>
      </trkpt>
      <trkpt lat="49.98642" lon="2.39194">
        <ele>82.4</ele>
        <time>2022-04-20T13:37:42Z</time>
      </trkpt>
      <trkpt lat="49.98643" lon="2.39192">
        <ele>82.4</ele>
        <time>2022-04-20T13:37:43Z</time>
      </trkpt>
      <trkpt lat="49.98643" lon="2.39191">
        <ele>82.4</ele>
        <time>2022-04-20T13:37:44Z</time>
      </trkpt>
      <trkpt lat="49.98644" lon="2.39188">
        <ele>82.3</ele>
        <time>2022-04-20T13:37:45Z</time>
      </trkpt>
      <trkpt lat="49.98644" lon="2.39187">
        <ele>82.3</ele>
        <time>2022-04-20T13:37:46Z</time>
      </trkpt>
      <trkpt lat="49.98645" lon="2.39185">
        <ele>82.3</ele>
        <time>2022-04-20T13:37:47Z</time>
      </trkpt>
      <trkpt lat="49.98645" lon="2.39183">
        <ele>82.3</ele>
        <time>2022-04-20T13:37:49Z</time>
      </trkpt>
      <trkpt lat="49.98646" lon="2.39181">
        <ele>82.3</ele>
        <time>2022-04-20T13:37:50Z</time>
      </trkpt>
      <trkpt lat="49.98646" lon="2.39178">
        <ele>81.7</ele>
        <time>2022-04-20T13:37:51Z</time>
      </trkpt>
      <trkpt lat="49.98646" lon="2.39177">
        <ele>81.7</ele>
        <time>2022-04-20T13:37:52Z</time>
      </trkpt>
      <trkpt lat="49.98646" lon="2.39176">
        <ele>81.7</ele>
        <time>2022-04-20T13:37:53Z</time>
      </trkpt>
      <trkpt lat="49.98646" lon="2.39172">
        <ele>81.7</ele>
        <time>2022-04-20T13:37:54Z</time>
      </trkpt>
      <trkpt lat="49.98646" lon="2.39171">
        <ele>81.7</ele>
        <time>2022-04-20T13:37:56Z</time>
      </trkpt>
      <trkpt lat="49.98645" lon="2.3917">
        <ele>81.7</ele>
        <time>2022-04-20T13:37:57Z</time>
      </trkpt>
      <trkpt lat="49.98645" lon="2.39168">
        <ele>81.7</ele>
        <time>2022-04-20T13:37:58Z</time>
      </trkpt>
      <trkpt lat="49.98644" lon="2.39167">
        <ele>81.7</ele>
        <time>2022-04-20T13:37:59Z</time>
      </trkpt>
      <trkpt lat="49.98643" lon="2.39164">
        <ele>81.7</ele>
        <time>2022-04-20T13:38:01Z</time>
      </trkpt>
      <trkpt lat="49.98643" lon="2.39163">
        <ele>81.5</ele>
        <time>2022-04-20T13:38:02Z</time>
      </trkpt>
      <trkpt lat="49.98643" lon="2.39162">
        <ele>81.5</ele>
        <time>2022-04-20T13:38:03Z</time>
      </trkpt>
      <trkpt lat="49.98643" lon="2.39161">
        <ele>81.5</ele>
        <time>2022-04-20T13:38:04Z</time>
      </trkpt>
      <trkpt lat="49.98642" lon="2.3916">
        <ele>81.5</ele>
        <time>2022-04-20T13:38:05Z</time>
      </trkpt>
      <trkpt lat="49.98642" lon="2.39159">
        <ele>81.5</ele>
        <time>2022-04-20T13:38:06Z</time>
      </trkpt>
      <trkpt lat="49.98642" lon="2.39159">
        <ele>81.5</ele>
        <time>2022-04-20T13:38:07Z</time>
      </trkpt>
      <trkpt lat="49.98642" lon="2.39159">
        <ele>81.5</ele>
        <time>2022-04-20T13:38:08Z</time>
      </trkpt>
      <trkpt lat="49.98642" lon="2.39159">
        <ele>81.5</ele>
        <time>2022-04-20T13:38:09Z</time>
      </trkpt>
      <trkpt lat="49.98642" lon="2.3916">
        <ele>81.5</ele>
        <time>2022-04-20T13:38:10Z</time>
      </trkpt>
      <trkpt lat="49.98642" lon="2.3916">
        <ele>81.5</ele>
        <time>2022-04-20T13:38:11Z</time>
      </trkpt>
      <trkpt lat="49.98641" lon="2.39161">
        <ele>81.5</ele>
        <time>2022-04-20T13:38:12Z</time>
      </trkpt>
      <trkpt lat="49.98641" lon="2.39161">
        <ele>81.5</ele>
        <time>2022-04-20T13:38:13Z</time>
      </trkpt>
      <trkpt lat="49.98641" lon="2.39162">
        <ele>81.5</ele>
        <time>2022-04-20T13:38:14Z</time>
      </trkpt>
      <trkpt lat="49.98641" lon="2.39162">
        <ele>81.5</ele>
        <time>2022-04-20T13:38:15Z</time>
      </trkpt>
      <trkpt lat="49.98641" lon="2.39163">
        <ele>81.5</ele>
        <time>2022-04-20T13:38:16Z</time>
      </trkpt>
      <trkpt lat="49.98641" lon="2.39164">
        <ele>81.5</ele>
        <time>2022-04-20T13:38:17Z</time>
      </trkpt>
      <trkpt lat="49.98641" lon="2.39164">
        <ele>81.5</ele>
        <time>2022-04-20T13:38:18Z</time>
      </trkpt>
      <trkpt lat="49.98641" lon="2.39165">
        <ele>81.5</ele>
        <time>2022-04-20T13:38:19Z</time>
      </trkpt>
      <trkpt lat="49.98641" lon="2.39165">
        <ele>81.5</ele>
        <time>2022-04-20T13:38:20Z</time>
      </trkpt>
      <trkpt lat="49.98641" lon="2.39165">
        <ele>81.5</ele>
        <time>2022-04-20T13:38:21Z</time>
      </trkpt>
      <trkpt lat="49.98641" lon="2.39166">
        <ele>81.5</ele>
        <time>2022-04-20T13:38:22Z</time>
      </trkpt>
      <trkpt lat="49.98641" lon="2.39166">
        <ele>81.5</ele>
        <time>2022-04-20T13:38:23Z</time>
      </trkpt>
      <trkpt lat="49.98641" lon="2.39166">
        <ele>81.5</ele>
        <time>2022-04-20T13:38:24Z</time>
      </trkpt>
      <trkpt lat="49.98641" lon="2.39166">
        <ele>81.5</ele>
        <time>2022-04-20T13:38:25Z</time>
      </trkpt>
      <trkpt lat="49.98641" lon="2.39166">
        <ele>81.5</ele>
        <time>2022-04-20T13:38:26Z</time>
      </trkpt>
      <trkpt lat="49.98641" lon="2.39166">
        <ele>81.5</ele>
        <time>2022-04-20T13:38:27Z</time>
      </trkpt>
      <trkpt lat="49.98641" lon="2.39166">
        <ele>81.5</ele>
        <time>2022-04-20T13:38:28Z</time>
      </trkpt>
      <trkpt lat="49.98641" lon="2.39166">
        <ele>81.5</ele>
        <time>2022-04-20T13:38:29Z</time>
      </trkpt>
      <trkpt lat="49.98641" lon="2.39166">
        <ele>81.5</ele>
        <time>2022-04-20T13:38:30Z</time>
      </trkpt>
      <trkpt lat="49.98641" lon="2.39166">
        <ele>81.5</ele>
        <time>2022-04-20T13:38:31Z</time>
      </trkpt>
      <trkpt lat="49.98641" lon="2.39166">
        <ele>81.5</ele>
        <time>2022-04-20T13:38:32Z</time>
      </trkpt>
      <trkpt lat="49.98641" lon="2.39166">
        <ele>81.5</ele>
        <time>2022-04-20T13:38:33Z</time>
      </trkpt>
      <trkpt lat="49.98641" lon="2.39166">
        <ele>81.5</ele>
        <time>2022-04-20T13:38:34Z</time>
      </trkpt>
      <trkpt lat="49.98641" lon="2.39166">
        <ele>81.5</ele>
        <time>2022-04-20T13:38:35Z</time>
      </trkpt>
      <trkpt lat="49.98641" lon="2.39166">
        <ele>81.5</ele>
        <time>2022-04-20T13:38:36Z</time>
      </trkpt>
      <trkpt lat="49.98641" lon="2.39166">
        <ele>81.5</ele>
        <time>2022-04-20T13:38:37Z</time>
      </trkpt>
      <trkpt lat="49.98641" lon="2.39166">
        <ele>81.5</ele>
        <time>2022-04-20T13:38:38Z</time>
      </trkpt>
      <trkpt lat="49.98641" lon="2.39166">
        <ele>81.5</ele>
        <time>2022-04-20T13:38:39Z</time>
      </trkpt>
      <trkpt lat="49.98641" lon="2.39166">
        <ele>81.5</ele>
        <time>2022-04-20T13:38:40Z</time>
      </trkpt>
      <trkpt lat="49.98641" lon="2.39166">
        <ele>81.5</ele>
        <time>2022-04-20T13:38:41Z</time>
      </trkpt>
      <trkpt lat="49.98641" lon="2.39166">
        <ele>81.5</ele>
        <time>2022-04-20T13:38:42Z</time>
      </trkpt>
      <trkpt lat="49.98641" lon="2.39166">
        <ele>81.5</ele>
        <time>2022-04-20T13:38:43Z</time>
      </trkpt>
      <trkpt lat="49.98641" lon="2.39166">
        <ele>81.5</ele>
        <time>2022-04-20T13:38:44Z</time>
      </trkpt>
      <trkpt lat="49.98641" lon="2.39166">
        <ele>81.5</ele>
        <time>2022-04-20T13:38:45Z</time>
      </trkpt>
      <trkpt lat="49.98641" lon="2.39166">
        <ele>81.5</ele>
        <time>2022-04-20T13:38:46Z</time>
      </trkpt>
      <trkpt lat="49.98641" lon="2.39166">
        <ele>81.5</ele>
        <time>2022-04-20T13:38:47Z</time>
      </trkpt>
      <trkpt lat="49.98641" lon="2.39166">
        <ele>81.5</ele>
        <time>2022-04-20T13:38:48Z</time>
      </trkpt>
      <trkpt lat="49.98641" lon="2.39166">
        <ele>81.5</ele>
        <time>2022-04-20T13:38:49Z</time>
      </trkpt>
      <trkpt lat="49.98641" lon="2.39166">
        <ele>81.5</ele>
        <time>2022-04-20T13:38:50Z</time>
      </trkpt>
      <trkpt lat="49.98641" lon="2.39166">
        <ele>81.5</ele>
        <time>2022-04-20T13:38:51Z</time>
      </trkpt>
      <trkpt lat="49.98641" lon="2.39166">
        <ele>81.5</ele>
        <time>2022-04-20T13:38:52Z</time>
      </trkpt>
      <trkpt lat="49.98641" lon="2.39166">
        <ele>81.5</ele>
        <time>2022-04-20T13:38:53Z</time>
      </trkpt>
      <trkpt lat="49.98641" lon="2.39166">
        <ele>81.5</ele>
        <time>2022-04-20T13:38:54Z</time>
      </trkpt>
      <trkpt lat="49.98641" lon="2.39166">
        <ele>81.5</ele>
        <time>2022-04-20T13:38:55Z</time>
      </trkpt>
      <trkpt lat="49.98641" lon="2.39166">
        <ele>81.5</ele>
        <time>2022-04-20T13:38:56Z</time>
      </trkpt>
      <trkpt lat="49.98641" lon="2.39166">
        <ele>81.5</ele>
        <time>2022-04-20T13:38:57Z</time>
      </trkpt>
      <trkpt lat="49.98641" lon="2.39166">
        <ele>81.5</ele>
        <time>2022-04-20T13:38:58Z</time>
      </trkpt>
      <trkpt lat="49.98641" lon="2.39166">
        <ele>81.5</ele>
        <time>2022-04-20T13:38:59Z</time>
      </trkpt>
      <trkpt lat="49.98641" lon="2.39166">
        <ele>81.5</ele>
        <time>2022-04-20T13:39:00Z</time>
      </trkpt>
      <trkpt lat="49.98641" lon="2.39166">
        <ele>81.5</ele>
        <time>2022-04-20T13:39:01Z</time>
      </trkpt>
      <trkpt lat="49.98641" lon="2.39166">
        <ele>81.5</ele>
        <time>2022-04-20T13:39:02Z</time>
      </trkpt>
      <trkpt lat="49.98641" lon="2.39166">
        <ele>81.5</ele>
        <time>2022-04-20T13:39:03Z</time>
      </trkpt>
      <trkpt lat="49.98641" lon="2.39166">
        <ele>81.5</ele>
        <time>2022-04-20T13:39:04Z</time>
      </trkpt>
      <trkpt lat="49.98641" lon="2.39166">
        <ele>81.5</ele>
        <time>2022-04-20T13:39:05Z</time>
      </trkpt>
      <trkpt lat="49.98641" lon="2.39166">
        <ele>81.5</ele>
        <time>2022-04-20T13:39:06Z</time>
      </trkpt>
      <trkpt lat="49.98641" lon="2.39166">
        <ele>81.5</ele>
        <time>2022-04-20T13:39:07Z</time>
      </trkpt>
      <trkpt lat="49.98641" lon="2.39166">
        <ele>81.5</ele>
        <time>2022-04-20T13:39:08Z</time>
      </trkpt>
      <trkpt lat="49.98641" lon="2.39166">
        <ele>81.5</ele>
        <time>2022-04-20T13:39:09Z</time>
      </trkpt>
      <trkpt lat="49.98641" lon="2.39166">
        <ele>81.5</ele>
        <time>2022-04-20T13:39:10Z</time>
      </trkpt>
      <trkpt lat="49.98641" lon="2.39166">
        <ele>81.5</ele>
        <time>2022-04-20T13:39:11Z</time>
      </trkpt>
      <trkpt lat="49.98641" lon="2.39166">
        <ele>81.5</ele>
        <time>2022-04-20T13:39:12Z</time>
      </trkpt>
      <trkpt lat="49.98641" lon="2.39166">
        <ele>81.5</ele>
        <time>2022-04-20T13:39:13Z</time>
      </trkpt>
      <trkpt lat="49.98641" lon="2.39166">
        <ele>81.5</ele>
        <time>2022-04-20T13:39:14Z</time>
      </trkpt>
      <trkpt lat="49.98641" lon="2.39166">
        <ele>81.5</ele>
        <time>2022-04-20T13:39:15Z</time>
      </trkpt>
      <trkpt lat="49.98641" lon="2.39166">
        <ele>81.5</ele>
        <time>2022-04-20T13:39:16Z</time>
      </trkpt>
      <trkpt lat="49.98641" lon="2.39166">
        <ele>81.5</ele>
        <time>2022-04-20T13:39:17Z</time>
      </trkpt>
      <trkpt lat="49.98641" lon="2.39166">
        <ele>81.5</ele>
        <time>2022-04-20T13:39:18Z</time>
      </trkpt>
      <trkpt lat="49.98641" lon="2.39166">
        <ele>81.5</ele>
        <time>2022-04-20T13:39:19Z</time>
      </trkpt>
      <trkpt lat="49.98641" lon="2.39166">
        <ele>81.5</ele>
        <time>2022-04-20T13:39:20Z</time>
      </trkpt>
      <trkpt lat="49.98641" lon="2.39166">
        <ele>81.5</ele>
        <time>2022-04-20T13:39:21Z</time>
      </trkpt>
      <trkpt lat="49.98641" lon="2.39166">
        <ele>81.5</ele>
        <time>2022-04-20T13:39:22Z</time>
      </trkpt>
      <trkpt lat="49.98641" lon="2.39166">
        <ele>81.5</ele>
        <time>2022-04-20T13:39:23Z</time>
      </trkpt>
      <trkpt lat="49.98641" lon="2.39166">
        <ele>81.5</ele>
        <time>2022-04-20T13:39:24Z</time>
      </trkpt>
      <trkpt lat="49.98641" lon="2.39166">
        <ele>81.5</ele>
        <time>2022-04-20T13:39:25Z</time>
      </trkpt>
      <trkpt lat="49.98641" lon="2.39166">
        <ele>81.5</ele>
        <time>2022-04-20T13:39:26Z</time>
      </trkpt>
      <trkpt lat="49.98641" lon="2.39166">
        <ele>81.5</ele>
        <time>2022-04-20T13:39:27Z</time>
      </trkpt>
      <trkpt lat="49.98641" lon="2.39166">
        <ele>81.5</ele>
        <time>2022-04-20T13:39:28Z</time>
      </trkpt>
      <trkpt lat="49.98641" lon="2.39166">
        <ele>81.5</ele>
        <time>2022-04-20T13:39:29Z</time>
      </trkpt>
      <trkpt lat="49.98641" lon="2.39166">
        <ele>81.5</ele>
        <time>2022-04-20T13:39:30Z</time>
      </trkpt>
      <trkpt lat="49.98641" lon="2.39166">
        <ele>81.5</ele>
        <time>2022-04-20T13:39:31Z</time>
      </trkpt>
      <trkpt lat="49.98641" lon="2.39166">
        <ele>81.5</ele>
        <time>2022-04-20T13:39:32Z</time>
      </trkpt>
      <trkpt lat="49.98641" lon="2.39166">
        <ele>81.5</ele>
        <time>2022-04-20T13:39:33Z</time>
      </trkpt>
      <trkpt lat="49.98641" lon="2.39166">
        <ele>81.5</ele>
        <time>2022-04-20T13:39:34Z</time>
      </trkpt>
      <trkpt lat="49.98641" lon="2.39166">
        <ele>81.5</ele>
        <time>2022-04-20T13:39:35Z</time>
      </trkpt>
      <trkpt lat="49.98641" lon="2.39166">
        <ele>81.5</ele>
        <time>2022-04-20T13:39:36Z</time>
      </trkpt>
      <trkpt lat="49.98641" lon="2.39166">
        <ele>81.5</ele>
        <time>2022-04-20T13:39:37Z</time>
      </trkpt>
      <trkpt lat="49.98641" lon="2.39166">
        <ele>81.5</ele>
        <time>2022-04-20T13:39:38Z</time>
      </trkpt>
      <trkpt lat="49.98641" lon="2.39166">
        <ele>81.5</ele>
        <time>2022-04-20T13:39:39Z</time>
      </trkpt>
      <trkpt lat="49.98641" lon="2.39166">
        <ele>81.5</ele>
        <time>2022-04-20T13:39:40Z</time>
      </trkpt>
      <trkpt lat="49.98641" lon="2.39166">
        <ele>81.5</ele>
        <time>2022-04-20T13:39:41Z</time>
      </trkpt>
      <trkpt lat="49.98641" lon="2.39166">
        <ele>81.5</ele>
        <time>2022-04-20T13:39:42Z</time>
      </trkpt>
      <trkpt lat="49.98641" lon="2.39166">
        <ele>81.5</ele>
        <time>2022-04-20T13:39:43Z</time>
      </trkpt>
      <trkpt lat="49.98641" lon="2.39166">
        <ele>81.5</ele>
        <time>2022-04-20T13:39:44Z</time>
      </trkpt>
      <trkpt lat="49.98641" lon="2.39166">
        <ele>81.5</ele>
        <time>2022-04-20T13:39:45Z</time>
      </trkpt>
      <trkpt lat="49.98641" lon="2.39166">
        <ele>81.5</ele>
        <time>2022-04-20T13:39:46Z</time>
      </trkpt>
      <trkpt lat="49.98641" lon="2.39166">
        <ele>81.5</ele>
        <time>2022-04-20T13:39:47Z</time>
      </trkpt>
      <trkpt lat="49.98641" lon="2.39166">
        <ele>81.5</ele>
        <time>2022-04-20T13:39:48Z</time>
      </trkpt>
      <trkpt lat="49.98641" lon="2.39166">
        <ele>81.5</ele>
        <time>2022-04-20T13:39:49Z</time>
      </trkpt>
      <trkpt lat="49.98641" lon="2.39166">
        <ele>81.5</ele>
        <time>2022-04-20T13:39:50Z</time>
      </trkpt>
      <trkpt lat="49.98641" lon="2.39166">
        <ele>81.5</ele>
        <time>2022-04-20T13:39:51Z</time>
      </trkpt>
      <trkpt lat="49.98641" lon="2.39166">
        <ele>81.5</ele>
        <time>2022-04-20T13:39:52Z</time>
      </trkpt>
      <trkpt lat="49.98641" lon="2.39166">
        <ele>81.5</ele>
        <time>2022-04-20T13:39:53Z</time>
      </trkpt>
      <trkpt lat="49.98641" lon="2.39166">
        <ele>81.5</ele>
        <time>2022-04-20T13:39:54Z</time>
      </trkpt>
      <trkpt lat="49.98641" lon="2.39166">
        <ele>81.5</ele>
        <time>2022-04-20T13:39:55Z</time>
      </trkpt>
      <trkpt lat="49.98641" lon="2.39166">
        <ele>81.5</ele>
        <time>2022-04-20T13:39:56Z</time>
      </trkpt>
      <trkpt lat="49.98641" lon="2.39166">
        <ele>81.5</ele>
        <time>2022-04-20T13:39:57Z</time>
      </trkpt>
      <trkpt lat="49.98641" lon="2.39166">
        <ele>81.5</ele>
        <time>2022-04-20T13:39:58Z</time>
      </trkpt>
      <trkpt lat="49.98641" lon="2.39166">
        <ele>81.5</ele>
        <time>2022-04-20T13:39:59Z</time>
      </trkpt>
      <trkpt lat="49.98641" lon="2.39166">
        <ele>81.5</ele>
        <time>2022-04-20T13:40:00Z</time>
      </trkpt>
      <trkpt lat="49.98641" lon="2.39166">
        <ele>81.5</ele>
        <time>2022-04-20T13:40:01Z</time>
      </trkpt>
      <trkpt lat="49.98641" lon="2.39166">
        <ele>81.5</ele>
        <time>2022-04-20T13:40:02Z</time>
      </trkpt>
      <trkpt lat="49.98641" lon="2.39166">
        <ele>81.5</ele>
        <time>2022-04-20T13:40:03Z</time>
      </trkpt>
      <trkpt lat="49.98641" lon="2.39166">
        <ele>81.5</ele>
        <time>2022-04-20T13:40:04Z</time>
      </trkpt>
      <trkpt lat="49.98641" lon="2.39166">
        <ele>81.5</ele>
        <time>2022-04-20T13:40:05Z</time>
      </trkpt>
      <trkpt lat="49.98641" lon="2.39166">
        <ele>81.5</ele>
        <time>2022-04-20T13:40:06Z</time>
      </trkpt>
      <trkpt lat="49.98641" lon="2.39166">
        <ele>81.5</ele>
        <time>2022-04-20T13:40:07Z</time>
      </trkpt>
      <trkpt lat="49.98641" lon="2.39166">
        <ele>81.5</ele>
        <time>2022-04-20T13:40:08Z</time>
      </trkpt>
      <trkpt lat="49.98641" lon="2.39166">
        <ele>81.5</ele>
        <time>2022-04-20T13:40:09Z</time>
      </trkpt>
      <trkpt lat="49.98641" lon="2.39166">
        <ele>81.5</ele>
        <time>2022-04-20T13:40:10Z</time>
      </trkpt>
      <trkpt lat="49.98641" lon="2.39166">
        <ele>81.5</ele>
        <time>2022-04-20T13:40:11Z</time>
      </trkpt>
      <trkpt lat="49.98641" lon="2.39166">
        <ele>81.5</ele>
        <time>2022-04-20T13:40:12Z</time>
      </trkpt>
      <trkpt lat="49.98641" lon="2.39166">
        <ele>81.5</ele>
        <time>2022-04-20T13:40:13Z</time>
      </trkpt>
      <trkpt lat="49.98641" lon="2.39166">
        <ele>81.5</ele>
        <time>2022-04-20T13:40:14Z</time>
      </trkpt>
      <trkpt lat="49.98641" lon="2.39166">
        <ele>81.5</ele>
        <time>2022-04-20T13:40:15Z</time>
      </trkpt>
      <trkpt lat="49.98641" lon="2.39166">
        <ele>81.5</ele>
        <time>2022-04-20T13:40:16Z</time>
      </trkpt>
      <trkpt lat="49.98641" lon="2.39166">
        <ele>81.5</ele>
        <time>2022-04-20T13:40:17Z</time>
      </trkpt>
      <trkpt lat="49.98641" lon="2.39166">
        <ele>81.5</ele>
        <time>2022-04-20T13:40:18Z</time>
      </trkpt>
      <trkpt lat="49.98641" lon="2.39166">
        <ele>81.5</ele>
        <time>2022-04-20T13:40:19Z</time>
      </trkpt>
      <trkpt lat="49.98641" lon="2.39166">
        <ele>81.5</ele>
        <time>2022-04-20T13:40:20Z</time>
      </trkpt>
      <trkpt lat="49.98641" lon="2.39166">
        <ele>81.5</ele>
        <time>2022-04-20T13:40:21Z</time>
      </trkpt>
      <trkpt lat="49.98641" lon="2.39166">
        <ele>81.5</ele>
        <time>2022-04-20T13:40:22Z</time>
      </trkpt>
      <trkpt lat="49.98641" lon="2.39166">
        <ele>81.5</ele>
        <time>2022-04-20T13:40:23Z</time>
      </trkpt>
      <trkpt lat="49.98641" lon="2.39166">
        <ele>81.5</ele>
        <time>2022-04-20T13:40:24Z</time>
      </trkpt>
      <trkpt lat="49.98641" lon="2.39166">
        <ele>81.5</ele>
        <time>2022-04-20T13:40:25Z</time>
      </trkpt>
      <trkpt lat="49.98641" lon="2.39166">
        <ele>81.5</ele>
        <time>2022-04-20T13:40:26Z</time>
      </trkpt>
      <trkpt lat="49.98641" lon="2.39166">
        <ele>81.5</ele>
        <time>2022-04-20T13:40:27Z</time>
      </trkpt>
      <trkpt lat="49.98641" lon="2.39166">
        <ele>81.5</ele>
        <time>2022-04-20T13:40:28Z</time>
      </trkpt>
      <trkpt lat="49.98641" lon="2.39166">
        <ele>81.5</ele>
        <time>2022-04-20T13:40:29Z</time>
      </trkpt>
      <trkpt lat="49.98641" lon="2.39166">
        <ele>81.5</ele>
        <time>2022-04-20T13:40:30Z</time>
      </trkpt>
      <trkpt lat="49.98641" lon="2.39166">
        <ele>81.5</ele>
        <time>2022-04-20T13:40:31Z</time>
      </trkpt>
      <trkpt lat="49.98641" lon="2.39166">
        <ele>81.5</ele>
        <time>2022-04-20T13:40:32Z</time>
      </trkpt>
      <trkpt lat="49.98641" lon="2.39166">
        <ele>81.5</ele>
        <time>2022-04-20T13:40:33Z</time>
      </trkpt>
      <trkpt lat="49.98641" lon="2.39166">
        <ele>81.5</ele>
        <time>2022-04-20T13:40:34Z</time>
      </trkpt>
      <trkpt lat="49.98641" lon="2.39166">
        <ele>81.5</ele>
        <time>2022-04-20T13:40:35Z</time>
      </trkpt>
      <trkpt lat="49.98641" lon="2.39166">
        <ele>81.5</ele>
        <time>2022-04-20T13:40:36Z</time>
      </trkpt>
      <trkpt lat="49.98641" lon="2.39166">
        <ele>81.5</ele>
        <time>2022-04-20T13:40:37Z</time>
      </trkpt>
      <trkpt lat="49.98641" lon="2.39166">
        <ele>81.5</ele>
        <time>2022-04-20T13:40:38Z</time>
      </trkpt>
      <trkpt lat="49.98641" lon="2.39166">
        <ele>81.5</ele>
        <time>2022-04-20T13:40:39Z</time>
      </trkpt>
      <trkpt lat="49.98641" lon="2.39166">
        <ele>81.5</ele>
        <time>2022-04-20T13:40:40Z</time>
      </trkpt>
      <trkpt lat="49.98641" lon="2.39166">
        <ele>81.5</ele>
        <time>2022-04-20T13:40:41Z</time>
      </trkpt>
      <trkpt lat="49.98641" lon="2.39166">
        <ele>81.5</ele>
        <time>2022-04-20T13:40:42Z</time>
      </trkpt>
      <trkpt lat="49.98641" lon="2.39166">
        <ele>81.5</ele>
        <time>2022-04-20T13:40:43Z</time>
      </trkpt>
      <trkpt lat="49.98641" lon="2.39166">
        <ele>81.5</ele>
        <time>2022-04-20T13:40:44Z</time>
      </trkpt>
      <trkpt lat="49.98641" lon="2.39166">
        <ele>81.5</ele>
        <time>2022-04-20T13:40:45Z</time>
      </trkpt>
      <trkpt lat="49.98641" lon="2.39166">
        <ele>81.5</ele>
        <time>2022-04-20T13:40:46Z</time>
      </trkpt>
      <trkpt lat="49.98641" lon="2.39166">
        <ele>81.5</ele>
        <time>2022-04-20T13:40:47Z</time>
      </trkpt>
      <trkpt lat="49.98641" lon="2.39166">
        <ele>81.5</ele>
        <time>2022-04-20T13:40:48Z</time>
      </trkpt>
      <trkpt lat="49.98641" lon="2.39166">
        <ele>81.5</ele>
        <time>2022-04-20T13:40:49Z</time>
      </trkpt>
      <trkpt lat="49.98641" lon="2.39166">
        <ele>81.5</ele>
        <time>2022-04-20T13:40:50Z</time>
      </trkpt>
      <trkpt lat="49.98641" lon="2.39166">
        <ele>81.5</ele>
        <time>2022-04-20T13:40:51Z</time>
      </trkpt>
      <trkpt lat="49.98641" lon="2.39166">
        <ele>81.5</ele>
        <time>2022-04-20T13:40:52Z</time>
      </trkpt>
      <trkpt lat="49.98641" lon="2.39166">
        <ele>81.5</ele>
        <time>2022-04-20T13:40:53Z</time>
      </trkpt>
      <trkpt lat="49.98641" lon="2.39166">
        <ele>81.5</ele>
        <time>2022-04-20T13:40:54Z</time>
      </trkpt>
      <trkpt lat="49.98641" lon="2.39166">
        <ele>81.5</ele>
        <time>2022-04-20T13:40:55Z</time>
      </trkpt>
      <trkpt lat="49.98641" lon="2.39166">
        <ele>81.5</ele>
        <time>2022-04-20T13:40:56Z</time>
      </trkpt>
      <trkpt lat="49.98641" lon="2.39166">
        <ele>81.5</ele>
        <time>2022-04-20T13:40:57Z</time>
      </trkpt>
      <trkpt lat="49.98641" lon="2.39166">
        <ele>81.5</ele>
        <time>2022-04-20T13:40:58Z</time>
      </trkpt>
      <trkpt lat="49.98641" lon="2.39166">
        <ele>81.5</ele>
        <time>2022-04-20T13:40:59Z</time>
      </trkpt>
      <trkpt lat="49.98641" lon="2.39166">
        <ele>81.5</ele>
        <time>2022-04-20T13:41:00Z</time>
      </trkpt>
      <trkpt lat="49.98641" lon="2.39166">
        <ele>81.5</ele>
        <time>2022-04-20T13:41:01Z</time>
      </trkpt>
      <trkpt lat="49.98641" lon="2.39166">
        <ele>81.5</ele>
        <time>2022-04-20T13:41:02Z</time>
      </trkpt>
      <trkpt lat="49.98641" lon="2.39166">
        <ele>81.5</ele>
        <time>2022-04-20T13:41:03Z</time>
      </trkpt>
      <trkpt lat="49.98641" lon="2.39166">
        <ele>81.5</ele>
        <time>2022-04-20T13:41:04Z</time>
      </trkpt>
      <trkpt lat="49.98641" lon="2.39166">
        <ele>81.5</ele>
        <time>2022-04-20T13:41:05Z</time>
      </trkpt>
      <trkpt lat="49.98641" lon="2.39166">
        <ele>81.5</ele>
        <time>2022-04-20T13:41:06Z</time>
      </trkpt>
      <trkpt lat="49.98641" lon="2.39166">
        <ele>81.5</ele>
        <time>2022-04-20T13:41:07Z</time>
      </trkpt>
      <trkpt lat="49.98641" lon="2.39166">
        <ele>81.5</ele>
        <time>2022-04-20T13:41:08Z</time>
      </trkpt>
      <trkpt lat="49.98641" lon="2.39166">
        <ele>81.5</ele>
        <time>2022-04-20T13:41:09Z</time>
      </trkpt>
      <trkpt lat="49.98641" lon="2.39166">
        <ele>81.5</ele>
        <time>2022-04-20T13:41:10Z</time>
      </trkpt>
      <trkpt lat="49.98641" lon="2.39166">
        <ele>81.5</ele>
        <time>2022-04-20T13:41:11Z</time>
      </trkpt>
      <trkpt lat="49.98641" lon="2.39166">
        <ele>81.5</ele>
        <time>2022-04-20T13:41:12Z</time>
      </trkpt>
      <trkpt lat="49.98641" lon="2.39166">
        <ele>81.5</ele>
        <time>2022-04-20T13:41:13Z</time>
      </trkpt>
      <trkpt lat="49.98641" lon="2.39166">
        <ele>81.5</ele>
        <time>2022-04-20T13:41:14Z</time>
      </trkpt>
      <trkpt lat="49.98641" lon="2.39166">
        <ele>81.5</ele>
        <time>2022-04-20T13:41:15Z</time>
      </trkpt>
      <trkpt lat="49.98641" lon="2.39166">
        <ele>81.5</ele>
        <time>2022-04-20T13:41:16Z</time>
      </trkpt>
      <trkpt lat="49.98641" lon="2.39166">
        <ele>81.5</ele>
        <time>2022-04-20T13:41:17Z</time>
      </trkpt>
      <trkpt lat="49.98641" lon="2.39166">
        <ele>81.5</ele>
        <time>2022-04-20T13:41:18Z</time>
      </trkpt>
      <trkpt lat="49.98641" lon="2.39166">
        <ele>81.5</ele>
        <time>2022-04-20T13:41:19Z</time>
      </trkpt>
      <trkpt lat="49.98641" lon="2.39166">
        <ele>81.5</ele>
        <time>2022-04-20T13:41:20Z</time>
      </trkpt>
      <trkpt lat="49.98641" lon="2.39166">
        <ele>81.5</ele>
        <time>2022-04-20T13:41:21Z</time>
      </trkpt>
      <trkpt lat="49.98641" lon="2.39166">
        <ele>81.5</ele>
        <time>2022-04-20T13:41:22Z</time>
      </trkpt>
      <trkpt lat="49.98641" lon="2.39166">
        <ele>81.5</ele>
        <time>2022-04-20T13:41:23Z</time>
      </trkpt>
      <trkpt lat="49.98641" lon="2.39166">
        <ele>81.5</ele>
        <time>2022-04-20T13:41:24Z</time>
      </trkpt>
      <trkpt lat="49.98641" lon="2.39166">
        <ele>81.5</ele>
        <time>2022-04-20T13:41:25Z</time>
      </trkpt>
      <trkpt lat="49.98641" lon="2.39166">
        <ele>81.5</ele>
        <time>2022-04-20T13:41:26Z</time>
      </trkpt>
      <trkpt lat="49.98641" lon="2.39166">
        <ele>81.5</ele>
        <time>2022-04-20T13:41:27Z</time>
      </trkpt>
      <trkpt lat="49.98641" lon="2.39166">
        <ele>81.5</ele>
        <time>2022-04-20T13:41:28Z</time>
      </trkpt>
      <trkpt lat="49.98641" lon="2.39166">
        <ele>81.5</ele>
        <time>2022-04-20T13:41:29Z</time>
      </trkpt>
      <trkpt lat="49.98641" lon="2.39166">
        <ele>81.5</ele>
        <time>2022-04-20T13:41:30Z</time>
      </trkpt>
      <trkpt lat="49.98641" lon="2.39166">
        <ele>81.5</ele>
        <time>2022-04-20T13:41:31Z</time>
      </trkpt>
      <trkpt lat="49.98641" lon="2.39166">
        <ele>81.5</ele>
        <time>2022-04-20T13:41:32Z</time>
      </trkpt>
      <trkpt lat="49.98641" lon="2.39166">
        <ele>81.5</ele>
        <time>2022-04-20T13:41:33Z</time>
      </trkpt>
      <trkpt lat="49.98641" lon="2.39166">
        <ele>81.5</ele>
        <time>2022-04-20T13:41:34Z</time>
      </trkpt>
      <trkpt lat="49.98641" lon="2.39166">
        <ele>81.5</ele>
        <time>2022-04-20T13:41:35Z</time>
      </trkpt>
      <trkpt lat="49.98641" lon="2.39166">
        <ele>81.5</ele>
        <time>2022-04-20T13:41:36Z</time>
      </trkpt>
      <trkpt lat="49.98641" lon="2.39166">
        <ele>81.5</ele>
        <time>2022-04-20T13:41:37Z</time>
      </trkpt>
      <trkpt lat="49.98641" lon="2.39166">
        <ele>81.5</ele>
        <time>2022-04-20T13:41:38Z</time>
      </trkpt>
      <trkpt lat="49.98641" lon="2.39166">
        <ele>81.5</ele>
        <time>2022-04-20T13:41:39Z</time>
      </trkpt>
      <trkpt lat="49.98641" lon="2.39166">
        <ele>81.5</ele>
        <time>2022-04-20T13:41:40Z</time>
      </trkpt>
      <trkpt lat="49.98641" lon="2.39166">
        <ele>81.5</ele>
        <time>2022-04-20T13:41:41Z</time>
      </trkpt>
      <trkpt lat="49.98641" lon="2.39166">
        <ele>81.5</ele>
        <time>2022-04-20T13:41:42Z</time>
      </trkpt>
      <trkpt lat="49.98641" lon="2.39166">
        <ele>81.5</ele>
        <time>2022-04-20T13:41:43Z</time>
      </trkpt>
      <trkpt lat="49.98641" lon="2.39166">
        <ele>81.5</ele>
        <time>2022-04-20T13:41:44Z</time>
      </trkpt>
      <trkpt lat="49.98641" lon="2.39166">
        <ele>81.5</ele>
        <time>2022-04-20T13:41:45Z</time>
      </trkpt>
      <trkpt lat="49.98641" lon="2.39166">
        <ele>81.5</ele>
        <time>2022-04-20T13:41:46Z</time>
      </trkpt>
      <trkpt lat="49.98641" lon="2.39166">
        <ele>81.5</ele>
        <time>2022-04-20T13:41:47Z</time>
      </trkpt>
      <trkpt lat="49.98641" lon="2.39166">
        <ele>81.5</ele>
        <time>2022-04-20T13:41:48Z</time>
      </trkpt>
      <trkpt lat="49.98641" lon="2.39166">
        <ele>81.5</ele>
        <time>2022-04-20T13:41:49Z</time>
      </trkpt>
      <trkpt lat="49.98641" lon="2.39166">
        <ele>81.5</ele>
        <time>2022-04-20T13:41:50Z</time>
      </trkpt>
      <trkpt lat="49.98641" lon="2.39166">
        <ele>81.5</ele>
        <time>2022-04-20T13:41:51Z</time>
      </trkpt>
      <trkpt lat="49.98641" lon="2.39166">
        <ele>81.5</ele>
        <time>2022-04-20T13:41:52Z</time>
      </trkpt>
      <trkpt lat="49.98641" lon="2.39166">
        <ele>81.5</ele>
        <time>2022-04-20T13:41:53Z</time>
      </trkpt>
      <trkpt lat="49.98641" lon="2.39166">
        <ele>81.5</ele>
        <time>2022-04-20T13:41:54Z</time>
      </trkpt>
      <trkpt lat="49.98641" lon="2.39166">
        <ele>81.5</ele>
        <time>2022-04-20T13:41:55Z</time>
      </trkpt>
      <trkpt lat="49.98641" lon="2.39166">
        <ele>81.5</ele>
        <time>2022-04-20T13:41:56Z</time>
      </trkpt>
      <trkpt lat="49.98641" lon="2.39166">
        <ele>81.5</ele>
        <time>2022-04-20T13:41:57Z</time>
      </trkpt>
      <trkpt lat="49.98641" lon="2.39166">
        <ele>81.5</ele>
        <time>2022-04-20T13:41:58Z</time>
      </trkpt>
      <trkpt lat="49.98641" lon="2.39166">
        <ele>81.5</ele>
        <time>2022-04-20T13:41:59Z</time>
      </trkpt>
      <trkpt lat="49.98641" lon="2.39166">
        <ele>81.5</ele>
        <time>2022-04-20T13:42:00Z</time>
      </trkpt>
      <trkpt lat="49.98641" lon="2.39166">
        <ele>81.5</ele>
        <time>2022-04-20T13:42:01Z</time>
      </trkpt>
      <trkpt lat="49.98641" lon="2.39166">
        <ele>81.5</ele>
        <time>2022-04-20T13:42:02Z</time>
      </trkpt>
      <trkpt lat="49.98641" lon="2.39166">
        <ele>81.5</ele>
        <time>2022-04-20T13:42:03Z</time>
      </trkpt>
      <trkpt lat="49.98641" lon="2.39166">
        <ele>81.5</ele>
        <time>2022-04-20T13:42:04Z</time>
      </trkpt>
      <trkpt lat="49.98641" lon="2.39166">
        <ele>81.5</ele>
        <time>2022-04-20T13:42:05Z</time>
      </trkpt>
      <trkpt lat="49.98641" lon="2.39166">
        <ele>81.5</ele>
        <time>2022-04-20T13:42:06Z</time>
      </trkpt>
      <trkpt lat="49.98641" lon="2.39166">
        <ele>81.5</ele>
        <time>2022-04-20T13:42:07Z</time>
      </trkpt>
      <trkpt lat="49.98641" lon="2.39166">
        <ele>81.5</ele>
        <time>2022-04-20T13:42:08Z</time>
      </trkpt>
      <trkpt lat="49.98641" lon="2.39166">
        <ele>81.5</ele>
        <time>2022-04-20T13:42:09Z</time>
      </trkpt>
      <trkpt lat="49.98641" lon="2.39166">
        <ele>81.5</ele>
        <time>2022-04-20T13:42:10Z</time>
      </trkpt>
      <trkpt lat="49.98641" lon="2.39166">
        <ele>81.5</ele>
        <time>2022-04-20T13:42:11Z</time>
      </trkpt>
      <trkpt lat="49.98641" lon="2.39166">
        <ele>81.5</ele>
        <time>2022-04-20T13:42:12Z</time>
      </trkpt>
      <trkpt lat="49.98641" lon="2.39166">
        <ele>81.5</ele>
        <time>2022-04-20T13:42:13Z</time>
      </trkpt>
      <trkpt lat="49.98641" lon="2.39166">
        <ele>81.5</ele>
        <time>2022-04-20T13:42:14Z</time>
      </trkpt>
      <trkpt lat="49.98641" lon="2.39166">
        <ele>81.5</ele>
        <time>2022-04-20T13:42:15Z</time>
      </trkpt>
      <trkpt lat="49.98641" lon="2.39166">
        <ele>81.5</ele>
        <time>2022-04-20T13:42:16Z</time>
      </trkpt>
      <trkpt lat="49.98641" lon="2.39166">
        <ele>81.5</ele>
        <time>2022-04-20T13:42:17Z</time>
      </trkpt>
      <trkpt lat="49.98641" lon="2.39166">
        <ele>81.5</ele>
        <time>2022-04-20T13:42:18Z</time>
      </trkpt>
      <trkpt lat="49.98641" lon="2.39166">
        <ele>81.5</ele>
        <time>2022-04-20T13:42:19Z</time>
      </trkpt>
      <trkpt lat="49.98641" lon="2.39166">
        <ele>81.5</ele>
        <time>2022-04-20T13:42:20Z</time>
      </trkpt>
      <trkpt lat="49.98641" lon="2.39166">
        <ele>81.5</ele>
        <time>2022-04-20T13:42:21Z</time>
      </trkpt>
      <trkpt lat="49.98641" lon="2.39166">
        <ele>81.5</ele>
        <time>2022-04-20T13:42:22Z</time>
      </trkpt>
      <trkpt lat="49.98641" lon="2.39166">
        <ele>81.5</ele>
        <time>2022-04-20T13:42:23Z</time>
      </trkpt>
      <trkpt lat="49.98641" lon="2.39166">
        <ele>81.5</ele>
        <time>2022-04-20T13:42:24Z</time>
      </trkpt>
      <trkpt lat="49.98641" lon="2.39166">
        <ele>81.5</ele>
        <time>2022-04-20T13:42:25Z</time>
      </trkpt>
      <trkpt lat="49.98641" lon="2.39166">
        <ele>81.5</ele>
        <time>2022-04-20T13:42:26Z</time>
      </trkpt>
      <trkpt lat="49.98641" lon="2.39166">
        <ele>81.5</ele>
        <time>2022-04-20T13:42:27Z</time>
      </trkpt>
      <trkpt lat="49.98641" lon="2.39166">
        <ele>81.5</ele>
        <time>2022-04-20T13:42:28Z</time>
      </trkpt>
      <trkpt lat="49.98641" lon="2.39166">
        <ele>81.5</ele>
        <time>2022-04-20T13:42:29Z</time>
      </trkpt>
      <trkpt lat="49.98641" lon="2.39166">
        <ele>81.5</ele>
        <time>2022-04-20T13:42:30Z</time>
      </trkpt>
      <trkpt lat="49.98641" lon="2.39166">
        <ele>81.5</ele>
        <time>2022-04-20T13:42:31Z</time>
      </trkpt>
      <trkpt lat="49.98641" lon="2.39166">
        <ele>81.5</ele>
        <time>2022-04-20T13:42:32Z</time>
      </trkpt>
      <trkpt lat="49.98641" lon="2.39166">
        <ele>81.5</ele>
        <time>2022-04-20T13:42:33Z</time>
      </trkpt>
      <trkpt lat="49.98641" lon="2.39166">
        <ele>81.5</ele>
        <time>2022-04-20T13:42:34Z</time>
      </trkpt>
      <trkpt lat="49.98641" lon="2.39166">
        <ele>81.5</ele>
        <time>2022-04-20T13:42:35Z</time>
      </trkpt>
      <trkpt lat="49.98641" lon="2.39166">
        <ele>81.5</ele>
        <time>2022-04-20T13:42:36Z</time>
      </trkpt>
      <trkpt lat="49.98641" lon="2.39166">
        <ele>81.5</ele>
        <time>2022-04-20T13:42:37Z</time>
      </trkpt>
      <trkpt lat="49.98641" lon="2.39166">
        <ele>81.5</ele>
        <time>2022-04-20T13:42:38Z</time>
      </trkpt>
      <trkpt lat="49.98641" lon="2.39166">
        <ele>81.5</ele>
        <time>2022-04-20T13:42:39Z</time>
      </trkpt>
      <trkpt lat="49.98641" lon="2.39166">
        <ele>81.5</ele>
        <time>2022-04-20T13:42:40Z</time>
      </trkpt>
      <trkpt lat="49.98641" lon="2.39166">
        <ele>81.5</ele>
        <time>2022-04-20T13:42:41Z</time>
      </trkpt>
      <trkpt lat="49.98641" lon="2.39166">
        <ele>81.5</ele>
        <time>2022-04-20T13:42:42Z</time>
      </trkpt>
      <trkpt lat="49.98641" lon="2.39166">
        <ele>81.5</ele>
        <time>2022-04-20T13:42:43Z</time>
      </trkpt>
      <trkpt lat="49.98641" lon="2.39166">
        <ele>81.5</ele>
        <time>2022-04-20T13:42:44Z</time>
      </trkpt>
      <trkpt lat="49.98641" lon="2.39166">
        <ele>81.5</ele>
        <time>2022-04-20T13:42:45Z</time>
      </trkpt>
      <trkpt lat="49.98641" lon="2.39166">
        <ele>81.5</ele>
        <time>2022-04-20T13:42:46Z</time>
      </trkpt>
      <trkpt lat="49.98641" lon="2.39166">
        <ele>81.5</ele>
        <time>2022-04-20T13:42:47Z</time>
      </trkpt>
      <trkpt lat="49.98641" lon="2.39166">
        <ele>81.5</ele>
        <time>2022-04-20T13:42:48Z</time>
      </trkpt>
      <trkpt lat="49.98641" lon="2.39167">
        <ele>81.5</ele>
        <time>2022-04-20T13:42:49Z</time>
      </trkpt>
      <trkpt lat="49.98641" lon="2.39168">
        <ele>81.5</ele>
        <time>2022-04-20T13:42:50Z</time>
      </trkpt>
      <trkpt lat="49.9864" lon="2.39168">
        <ele>81.5</ele>
        <time>2022-04-20T13:42:51Z</time>
      </trkpt>
      <trkpt lat="49.9864" lon="2.39168">
        <ele>81.5</ele>
        <time>2022-04-20T13:42:52Z</time>
      </trkpt>
      <trkpt lat="49.98639" lon="2.39169">
        <ele>81.4</ele>
        <time>2022-04-20T13:42:53Z</time>
      </trkpt>
      <trkpt lat="49.98639" lon="2.39169">
        <ele>81.4</ele>
        <time>2022-04-20T13:42:54Z</time>
      </trkpt>
      <trkpt lat="49.98638" lon="2.39169">
        <ele>81.4</ele>
        <time>2022-04-20T13:42:55Z</time>
      </trkpt>
      <trkpt lat="49.98638" lon="2.3917">
        <ele>81.4</ele>
        <time>2022-04-20T13:42:56Z</time>
      </trkpt>
      <trkpt lat="49.98637" lon="2.39171">
        <ele>81.4</ele>
        <time>2022-04-20T13:42:57Z</time>
      </trkpt>
      <trkpt lat="49.98637" lon="2.39172">
        <ele>81.4</ele>
        <time>2022-04-20T13:42:58Z</time>
      </trkpt>
      <trkpt lat="49.98636" lon="2.39172">
        <ele>81.4</ele>
        <time>2022-04-20T13:42:59Z</time>
      </trkpt>
      <trkpt lat="49.98635" lon="2.39173">
        <ele>81.4</ele>
        <time>2022-04-20T13:43:00Z</time>
      </trkpt>
      <trkpt lat="49.98635" lon="2.39175">
        <ele>81.4</ele>
        <time>2022-04-20T13:43:02Z</time>
      </trkpt>
      <trkpt lat="49.98634" lon="2.39177">
        <ele>81.4</ele>
        <time>2022-04-20T13:43:03Z</time>
      </trkpt>
      <trkpt lat="49.98633" lon="2.39179">
        <ele>81.4</ele>
        <time>2022-04-20T13:43:04Z</time>
      </trkpt>
      <trkpt lat="49.98632" lon="2.39181">
        <ele>81.3</ele>
        <time>2022-04-20T13:43:05Z</time>
      </trkpt>
      <trkpt lat="49.98631" lon="2.39183">
        <ele>81.3</ele>
        <time>2022-04-20T13:43:06Z</time>
      </trkpt>
      <trkpt lat="49.9863" lon="2.39186">
        <ele>81.3</ele>
        <time>2022-04-20T13:43:07Z</time>
      </trkpt>
      <trkpt lat="49.9863" lon="2.39187">
        <ele>81.3</ele>
        <time>2022-04-20T13:43:09Z</time>
      </trkpt>
      <trkpt lat="49.98629" lon="2.39188">
        <ele>81.3</ele>
        <time>2022-04-20T13:43:10Z</time>
      </trkpt>
      <trkpt lat="49.98628" lon="2.3919">
        <ele>81.3</ele>
        <time>2022-04-20T13:43:11Z</time>
      </trkpt>
      <trkpt lat="49.98627" lon="2.39191">
        <ele>81.3</ele>
        <time>2022-04-20T13:43:12Z</time>
      </trkpt>
      <trkpt lat="49.98626" lon="2.39191">
        <ele>81.2</ele>
        <time>2022-04-20T13:43:13Z</time>
      </trkpt>
      <trkpt lat="49.98625" lon="2.39193">
        <ele>81.2</ele>
        <time>2022-04-20T13:43:14Z</time>
      </trkpt>
      <trkpt lat="49.98624" lon="2.39194">
        <ele>81.2</ele>
        <time>2022-04-20T13:43:15Z</time>
      </trkpt>
      <trkpt lat="49.98624" lon="2.39195">
        <ele>81.2</ele>
        <time>2022-04-20T13:43:16Z</time>
      </trkpt>
      <trkpt lat="49.98623" lon="2.39196">
        <ele>81.2</ele>
        <time>2022-04-20T13:43:17Z</time>
      </trkpt>
      <trkpt lat="49.98622" lon="2.39197">
        <ele>81.2</ele>
        <time>2022-04-20T13:43:19Z</time>
      </trkpt>
      <trkpt lat="49.98622" lon="2.39199">
        <ele>81.2</ele>
        <time>2022-04-20T13:43:20Z</time>
      </trkpt>
      <trkpt lat="49.98621" lon="2.392">
        <ele>81.2</ele>
        <time>2022-04-20T13:43:21Z</time>
      </trkpt>
      <trkpt lat="49.9862" lon="2.39202">
        <ele>81.1</ele>
        <time>2022-04-20T13:43:22Z</time>
      </trkpt>
      <trkpt lat="49.98619" lon="2.39203">
        <ele>81.1</ele>
        <time>2022-04-20T13:43:23Z</time>
      </trkpt>
      <trkpt lat="49.98619" lon="2.39204">
        <ele>81.1</ele>
        <time>2022-04-20T13:43:24Z</time>
      </trkpt>
      <trkpt lat="49.98619" lon="2.39204">
        <ele>81.1</ele>
        <time>2022-04-20T13:43:25Z</time>
      </trkpt>
      <trkpt lat="49.98619" lon="2.39204">
        <ele>81.1</ele>
        <time>2022-04-20T13:43:26Z</time>
      </trkpt>
      <trkpt lat="49.98619" lon="2.39205">
        <ele>81.1</ele>
        <time>2022-04-20T13:43:27Z</time>
      </trkpt>
      <trkpt lat="49.98618" lon="2.39206">
        <ele>81.1</ele>
        <time>2022-04-20T13:43:28Z</time>
      </trkpt>
      <trkpt lat="49.98617" lon="2.39208">
        <ele>81.1</ele>
        <time>2022-04-20T13:43:30Z</time>
      </trkpt>
      <trkpt lat="49.98616" lon="2.39211">
        <ele>81</ele>
        <time>2022-04-20T13:43:31Z</time>
      </trkpt>
      <trkpt lat="49.98615" lon="2.39212">
        <ele>81</ele>
        <time>2022-04-20T13:43:32Z</time>
      </trkpt>
      <trkpt lat="49.98615" lon="2.39213">
        <ele>81</ele>
        <time>2022-04-20T13:43:33Z</time>
      </trkpt>
      <trkpt lat="49.98613" lon="2.39215">
        <ele>81</ele>
        <time>2022-04-20T13:43:34Z</time>
      </trkpt>
      <trkpt lat="49.98612" lon="2.39216">
        <ele>81</ele>
        <time>2022-04-20T13:43:35Z</time>
      </trkpt>
      <trkpt lat="49.98612" lon="2.39217">
        <ele>81</ele>
        <time>2022-04-20T13:43:36Z</time>
      </trkpt>
      <trkpt lat="49.9861" lon="2.3922">
        <ele>80.9</ele>
        <time>2022-04-20T13:43:37Z</time>
      </trkpt>
      <trkpt lat="49.98609" lon="2.39221">
        <ele>80.9</ele>
        <time>2022-04-20T13:43:39Z</time>
      </trkpt>
      <trkpt lat="49.98608" lon="2.39223">
        <ele>80.9</ele>
        <time>2022-04-20T13:43:40Z</time>
      </trkpt>
      <trkpt lat="49.98607" lon="2.39225">
        <ele>80.9</ele>
        <time>2022-04-20T13:43:41Z</time>
      </trkpt>
      <trkpt lat="49.98606" lon="2.39227">
        <ele>80.9</ele>
        <time>2022-04-20T13:43:42Z</time>
      </trkpt>
      <trkpt lat="49.98605" lon="2.39229">
        <ele>80.9</ele>
        <time>2022-04-20T13:43:43Z</time>
      </trkpt>
      <trkpt lat="49.98604" lon="2.39232">
        <ele>80.8</ele>
        <time>2022-04-20T13:43:44Z</time>
      </trkpt>
      <trkpt lat="49.98603" lon="2.39234">
        <ele>80.8</ele>
        <time>2022-04-20T13:43:45Z</time>
      </trkpt>
      <trkpt lat="49.98602" lon="2.39236">
        <ele>80.8</ele>
        <time>2022-04-20T13:43:46Z</time>
      </trkpt>
      <trkpt lat="49.98601" lon="2.39238">
        <ele>80.8</ele>
        <time>2022-04-20T13:43:48Z</time>
      </trkpt>
      <trkpt lat="49.986" lon="2.3924">
        <ele>80.8</ele>
        <time>2022-04-20T13:43:49Z</time>
      </trkpt>
      <trkpt lat="49.98599" lon="2.39242">
        <ele>80.7</ele>
        <time>2022-04-20T13:43:50Z</time>
      </trkpt>
      <trkpt lat="49.98599" lon="2.39244">
        <ele>80.7</ele>
        <time>2022-04-20T13:43:51Z</time>
      </trkpt>
      <trkpt lat="49.98598" lon="2.39246">
        <ele>80.7</ele>
        <time>2022-04-20T13:43:52Z</time>
      </trkpt>
      <trkpt lat="49.98597" lon="2.39248">
        <ele>80.7</ele>
        <time>2022-04-20T13:43:53Z</time>
      </trkpt>
      <trkpt lat="49.98595" lon="2.39251">
        <ele>80.7</ele>
        <time>2022-04-20T13:43:55Z</time>
      </trkpt>
      <trkpt lat="49.98595" lon="2.39253">
        <ele>80.7</ele>
        <time>2022-04-20T13:43:56Z</time>
      </trkpt>
      <trkpt lat="49.98594" lon="2.39254">
        <ele>80.7</ele>
        <time>2022-04-20T13:43:57Z</time>
      </trkpt>
      <trkpt lat="49.98593" lon="2.39256">
        <ele>80.6</ele>
        <time>2022-04-20T13:43:58Z</time>
      </trkpt>
      <trkpt lat="49.98591" lon="2.39259">
        <ele>80.6</ele>
        <time>2022-04-20T13:44:00Z</time>
      </trkpt>
      <trkpt lat="49.9859" lon="2.39261">
        <ele>80.6</ele>
        <time>2022-04-20T13:44:01Z</time>
      </trkpt>
      <trkpt lat="49.9859" lon="2.39263">
        <ele>80.6</ele>
        <time>2022-04-20T13:44:02Z</time>
      </trkpt>
      <trkpt lat="49.98589" lon="2.39264">
        <ele>80.6</ele>
        <time>2022-04-20T13:44:03Z</time>
      </trkpt>
      <trkpt lat="49.98588" lon="2.39266">
        <ele>80.6</ele>
        <time>2022-04-20T13:44:04Z</time>
      </trkpt>
      <trkpt lat="49.98587" lon="2.39268">
        <ele>80.6</ele>
        <time>2022-04-20T13:44:05Z</time>
      </trkpt>
      <trkpt lat="49.98587" lon="2.3927">
        <ele>80.5</ele>
        <time>2022-04-20T13:44:06Z</time>
      </trkpt>
      <trkpt lat="49.98586" lon="2.39271">
        <ele>80.5</ele>
        <time>2022-04-20T13:44:07Z</time>
      </trkpt>
      <trkpt lat="49.98585" lon="2.39273">
        <ele>80.5</ele>
        <time>2022-04-20T13:44:08Z</time>
      </trkpt>
      <trkpt lat="49.98585" lon="2.39274">
        <ele>80.5</ele>
        <time>2022-04-20T13:44:09Z</time>
      </trkpt>
      <trkpt lat="49.98584" lon="2.39274">
        <ele>80.5</ele>
        <time>2022-04-20T13:44:10Z</time>
      </trkpt>
      <trkpt lat="49.98583" lon="2.39275">
        <ele>80.5</ele>
        <time>2022-04-20T13:44:11Z</time>
      </trkpt>
      <trkpt lat="49.98582" lon="2.39277">
        <ele>80.5</ele>
        <time>2022-04-20T13:44:12Z</time>
      </trkpt>
      <trkpt lat="49.98581" lon="2.39278">
        <ele>80.4</ele>
        <time>2022-04-20T13:44:13Z</time>
      </trkpt>
      <trkpt lat="49.9858" lon="2.3928">
        <ele>80.4</ele>
        <time>2022-04-20T13:44:14Z</time>
      </trkpt>
      <trkpt lat="49.9858" lon="2.39282">
        <ele>80.4</ele>
        <time>2022-04-20T13:44:15Z</time>
      </trkpt>
      <trkpt lat="49.98579" lon="2.39284">
        <ele>80.4</ele>
        <time>2022-04-20T13:44:17Z</time>
      </trkpt>
      <trkpt lat="49.98578" lon="2.39286">
        <ele>80.4</ele>
        <time>2022-04-20T13:44:18Z</time>
      </trkpt>
      <trkpt lat="49.98577" lon="2.39288">
        <ele>80.4</ele>
        <time>2022-04-20T13:44:19Z</time>
      </trkpt>
      <trkpt lat="49.98576" lon="2.3929">
        <ele>80.3</ele>
        <time>2022-04-20T13:44:20Z</time>
      </trkpt>
      <trkpt lat="49.98575" lon="2.39293">
        <ele>80.3</ele>
        <time>2022-04-20T13:44:22Z</time>
      </trkpt>
      <trkpt lat="49.98574" lon="2.39295">
        <ele>80.3</ele>
        <time>2022-04-20T13:44:23Z</time>
      </trkpt>
      <trkpt lat="49.98573" lon="2.39297">
        <ele>80.3</ele>
        <time>2022-04-20T13:44:25Z</time>
      </trkpt>
      <trkpt lat="49.98572" lon="2.39299">
        <ele>80.3</ele>
        <time>2022-04-20T13:44:26Z</time>
      </trkpt>
      <trkpt lat="49.98571" lon="2.39301">
        <ele>80.3</ele>
        <time>2022-04-20T13:44:27Z</time>
      </trkpt>
      <trkpt lat="49.9857" lon="2.39303">
        <ele>80.3</ele>
        <time>2022-04-20T13:44:28Z</time>
      </trkpt>
      <trkpt lat="49.9857" lon="2.39304">
        <ele>80.3</ele>
        <time>2022-04-20T13:44:29Z</time>
      </trkpt>
      <trkpt lat="49.98569" lon="2.39305">
        <ele>80.3</ele>
        <time>2022-04-20T13:44:30Z</time>
      </trkpt>
      <trkpt lat="49.98569" lon="2.39307">
        <ele>80.3</ele>
        <time>2022-04-20T13:44:31Z</time>
      </trkpt>
      <trkpt lat="49.98568" lon="2.39309">
        <ele>80.3</ele>
        <time>2022-04-20T13:44:32Z</time>
      </trkpt>
      <trkpt lat="49.98567" lon="2.39312">
        <ele>80.2</ele>
        <time>2022-04-20T13:44:33Z</time>
      </trkpt>
      <trkpt lat="49.98566" lon="2.39313">
        <ele>80.2</ele>
        <time>2022-04-20T13:44:34Z</time>
      </trkpt>
      <trkpt lat="49.98566" lon="2.39314">
        <ele>80.2</ele>
        <time>2022-04-20T13:44:35Z</time>
      </trkpt>
      <trkpt lat="49.98565" lon="2.39316">
        <ele>80.2</ele>
        <time>2022-04-20T13:44:36Z</time>
      </trkpt>
      <trkpt lat="49.98564" lon="2.39317">
        <ele>80.2</ele>
        <time>2022-04-20T13:44:37Z</time>
      </trkpt>
      <trkpt lat="49.98564" lon="2.39318">
        <ele>80.2</ele>
        <time>2022-04-20T13:44:38Z</time>
      </trkpt>
      <trkpt lat="49.98563" lon="2.3932">
        <ele>80.2</ele>
        <time>2022-04-20T13:44:39Z</time>
      </trkpt>
      <trkpt lat="49.98562" lon="2.39322">
        <ele>80.2</ele>
        <time>2022-04-20T13:44:40Z</time>
      </trkpt>
      <trkpt lat="49.98561" lon="2.39324">
        <ele>80.2</ele>
        <time>2022-04-20T13:44:41Z</time>
      </trkpt>
      <trkpt lat="49.9856" lon="2.39326">
        <ele>80.2</ele>
        <time>2022-04-20T13:44:42Z</time>
      </trkpt>
      <trkpt lat="49.98559" lon="2.39328">
        <ele>80.2</ele>
        <time>2022-04-20T13:44:44Z</time>
      </trkpt>
      <trkpt lat="49.98558" lon="2.39329">
        <ele>80.2</ele>
        <time>2022-04-20T13:44:45Z</time>
      </trkpt>
      <trkpt lat="49.98557" lon="2.39331">
        <ele>80.2</ele>
        <time>2022-04-20T13:44:46Z</time>
      </trkpt>
      <trkpt lat="49.98556" lon="2.39334">
        <ele>80.1</ele>
        <time>2022-04-20T13:44:47Z</time>
      </trkpt>
      <trkpt lat="49.98555" lon="2.39335">
        <ele>80.1</ele>
        <time>2022-04-20T13:44:48Z</time>
      </trkpt>
      <trkpt lat="49.98554" lon="2.39337">
        <ele>80.1</ele>
        <time>2022-04-20T13:44:50Z</time>
      </trkpt>
      <trkpt lat="49.98552" lon="2.3934">
        <ele>80.1</ele>
        <time>2022-04-20T13:44:52Z</time>
      </trkpt>
      <trkpt lat="49.98552" lon="2.39341">
        <ele>80.1</ele>
        <time>2022-04-20T13:44:53Z</time>
      </trkpt>
      <trkpt lat="49.98551" lon="2.39343">
        <ele>80.1</ele>
        <time>2022-04-20T13:44:54Z</time>
      </trkpt>
      <trkpt lat="49.9855" lon="2.39345">
        <ele>80.1</ele>
        <time>2022-04-20T13:44:55Z</time>
      </trkpt>
      <trkpt lat="49.98548" lon="2.39347">
        <ele>80</ele>
        <time>2022-04-20T13:44:56Z</time>
      </trkpt>
      <trkpt lat="49.98548" lon="2.39349">
        <ele>80</ele>
        <time>2022-04-20T13:44:57Z</time>
      </trkpt>
      <trkpt lat="49.98547" lon="2.3935">
        <ele>80</ele>
        <time>2022-04-20T13:44:58Z</time>
      </trkpt>
      <trkpt lat="49.98546" lon="2.39352">
        <ele>80</ele>
        <time>2022-04-20T13:44:59Z</time>
      </trkpt>
      <trkpt lat="49.98545" lon="2.39353">
        <ele>80</ele>
        <time>2022-04-20T13:45:00Z</time>
      </trkpt>
      <trkpt lat="49.98545" lon="2.39354">
        <ele>80</ele>
        <time>2022-04-20T13:45:01Z</time>
      </trkpt>
      <trkpt lat="49.98544" lon="2.39356">
        <ele>80</ele>
        <time>2022-04-20T13:45:02Z</time>
      </trkpt>
      <trkpt lat="49.98543" lon="2.39357">
        <ele>80</ele>
        <time>2022-04-20T13:45:03Z</time>
      </trkpt>
      <trkpt lat="49.98541" lon="2.39359">
        <ele>79.9</ele>
        <time>2022-04-20T13:45:04Z</time>
      </trkpt>
      <trkpt lat="49.9854" lon="2.39361">
        <ele>79.9</ele>
        <time>2022-04-20T13:45:06Z</time>
      </trkpt>
      <trkpt lat="49.98539" lon="2.39362">
        <ele>79.9</ele>
        <time>2022-04-20T13:45:07Z</time>
      </trkpt>
      <trkpt lat="49.98538" lon="2.39364">
        <ele>79.9</ele>
        <time>2022-04-20T13:45:08Z</time>
      </trkpt>
      <trkpt lat="49.98537" lon="2.39365">
        <ele>79.9</ele>
        <time>2022-04-20T13:45:09Z</time>
      </trkpt>
      <trkpt lat="49.98536" lon="2.39367">
        <ele>79.9</ele>
        <time>2022-04-20T13:45:10Z</time>
      </trkpt>
      <trkpt lat="49.98535" lon="2.39368">
        <ele>79.9</ele>
        <time>2022-04-20T13:45:11Z</time>
      </trkpt>
      <trkpt lat="49.98533" lon="2.3937">
        <ele>79.8</ele>
        <time>2022-04-20T13:45:12Z</time>
      </trkpt>
      <trkpt lat="49.98532" lon="2.39373">
        <ele>79.8</ele>
        <time>2022-04-20T13:45:14Z</time>
      </trkpt>
      <trkpt lat="49.98531" lon="2.39374">
        <ele>79.8</ele>
        <time>2022-04-20T13:45:15Z</time>
      </trkpt>
      <trkpt lat="49.9853" lon="2.39375">
        <ele>79.8</ele>
        <time>2022-04-20T13:45:16Z</time>
      </trkpt>
      <trkpt lat="49.98529" lon="2.39377">
        <ele>79.8</ele>
        <time>2022-04-20T13:45:17Z</time>
      </trkpt>
      <trkpt lat="49.98526" lon="2.39379">
        <ele>79.7</ele>
        <time>2022-04-20T13:45:19Z</time>
      </trkpt>
      <trkpt lat="49.98526" lon="2.3938">
        <ele>79.7</ele>
        <time>2022-04-20T13:45:20Z</time>
      </trkpt>
      <trkpt lat="49.98524" lon="2.39382">
        <ele>79.7</ele>
        <time>2022-04-20T13:45:21Z</time>
      </trkpt>
      <trkpt lat="49.98523" lon="2.39383">
        <ele>79.7</ele>
        <time>2022-04-20T13:45:22Z</time>
      </trkpt>
      <trkpt lat="49.98522" lon="2.39384">
        <ele>79.7</ele>
        <time>2022-04-20T13:45:23Z</time>
      </trkpt>
      <trkpt lat="49.98521" lon="2.39385">
        <ele>79.7</ele>
        <time>2022-04-20T13:45:24Z</time>
      </trkpt>
      <trkpt lat="49.9852" lon="2.39386">
        <ele>79.7</ele>
        <time>2022-04-20T13:45:25Z</time>
      </trkpt>
      <trkpt lat="49.98519" lon="2.39387">
        <ele>79.7</ele>
        <time>2022-04-20T13:45:26Z</time>
      </trkpt>
      <trkpt lat="49.98518" lon="2.39388">
        <ele>79.6</ele>
        <time>2022-04-20T13:45:27Z</time>
      </trkpt>
      <trkpt lat="49.98517" lon="2.39389">
        <ele>79.6</ele>
        <time>2022-04-20T13:45:28Z</time>
      </trkpt>
      <trkpt lat="49.98516" lon="2.39392">
        <ele>79.6</ele>
        <time>2022-04-20T13:45:29Z</time>
      </trkpt>
      <trkpt lat="49.98515" lon="2.39392">
        <ele>79.6</ele>
        <time>2022-04-20T13:45:30Z</time>
      </trkpt>
      <trkpt lat="49.98514" lon="2.39393">
        <ele>79.6</ele>
        <time>2022-04-20T13:45:31Z</time>
      </trkpt>
      <trkpt lat="49.98513" lon="2.39395">
        <ele>79.6</ele>
        <time>2022-04-20T13:45:32Z</time>
      </trkpt>
      <trkpt lat="49.98512" lon="2.39396">
        <ele>79.6</ele>
        <time>2022-04-20T13:45:33Z</time>
      </trkpt>
      <trkpt lat="49.98511" lon="2.39398">
        <ele>79.5</ele>
        <time>2022-04-20T13:45:35Z</time>
      </trkpt>
      <trkpt lat="49.9851" lon="2.39399">
        <ele>79.5</ele>
        <time>2022-04-20T13:45:36Z</time>
      </trkpt>
      <trkpt lat="49.98509" lon="2.394">
        <ele>79.5</ele>
        <time>2022-04-20T13:45:37Z</time>
      </trkpt>
      <trkpt lat="49.98507" lon="2.39401">
        <ele>79.5</ele>
        <time>2022-04-20T13:45:38Z</time>
      </trkpt>
      <trkpt lat="49.98506" lon="2.39403">
        <ele>79.5</ele>
        <time>2022-04-20T13:45:39Z</time>
      </trkpt>
      <trkpt lat="49.98505" lon="2.39404">
        <ele>79.5</ele>
        <time>2022-04-20T13:45:40Z</time>
      </trkpt>
      <trkpt lat="49.98504" lon="2.39405">
        <ele>79.5</ele>
        <time>2022-04-20T13:45:41Z</time>
      </trkpt>
      <trkpt lat="49.98503" lon="2.39407">
        <ele>79.5</ele>
        <time>2022-04-20T13:45:42Z</time>
      </trkpt>
      <trkpt lat="49.98502" lon="2.39408">
        <ele>79.4</ele>
        <time>2022-04-20T13:45:44Z</time>
      </trkpt>
      <trkpt lat="49.98501" lon="2.39409">
        <ele>79.4</ele>
        <time>2022-04-20T13:45:45Z</time>
      </trkpt>
      <trkpt lat="49.985" lon="2.3941">
        <ele>79.4</ele>
        <time>2022-04-20T13:45:46Z</time>
      </trkpt>
      <trkpt lat="49.98498" lon="2.39413">
        <ele>79.4</ele>
        <time>2022-04-20T13:45:47Z</time>
      </trkpt>
      <trkpt lat="49.98497" lon="2.39414">
        <ele>79.4</ele>
        <time>2022-04-20T13:45:48Z</time>
      </trkpt>
      <trkpt lat="49.98497" lon="2.39415">
        <ele>79.4</ele>
        <time>2022-04-20T13:45:49Z</time>
      </trkpt>
      <trkpt lat="49.98496" lon="2.39416">
        <ele>79.4</ele>
        <time>2022-04-20T13:45:50Z</time>
      </trkpt>
      <trkpt lat="49.98495" lon="2.39417">
        <ele>79.4</ele>
        <time>2022-04-20T13:45:51Z</time>
      </trkpt>
      <trkpt lat="49.98495" lon="2.39418">
        <ele>79.4</ele>
        <time>2022-04-20T13:45:52Z</time>
      </trkpt>
      <trkpt lat="49.98494" lon="2.3942">
        <ele>79.4</ele>
        <time>2022-04-20T13:45:53Z</time>
      </trkpt>
      <trkpt lat="49.98493" lon="2.39421">
        <ele>79.3</ele>
        <time>2022-04-20T13:45:54Z</time>
      </trkpt>
      <trkpt lat="49.98493" lon="2.39423">
        <ele>79.3</ele>
        <time>2022-04-20T13:45:55Z</time>
      </trkpt>
      <trkpt lat="49.98491" lon="2.39425">
        <ele>79.3</ele>
        <time>2022-04-20T13:45:56Z</time>
      </trkpt>
      <trkpt lat="49.98491" lon="2.39426">
        <ele>79.3</ele>
        <time>2022-04-20T13:45:57Z</time>
      </trkpt>
      <trkpt lat="49.9849" lon="2.39427">
        <ele>79.3</ele>
        <time>2022-04-20T13:45:58Z</time>
      </trkpt>
      <trkpt lat="49.98489" lon="2.39428">
        <ele>79.3</ele>
        <time>2022-04-20T13:45:59Z</time>
      </trkpt>
      <trkpt lat="49.98487" lon="2.3943">
        <ele>79.3</ele>
        <time>2022-04-20T13:46:00Z</time>
      </trkpt>
      <trkpt lat="49.98486" lon="2.39433">
        <ele>79.3</ele>
        <time>2022-04-20T13:46:01Z</time>
      </trkpt>
      <trkpt lat="49.98485" lon="2.39434">
        <ele>79.3</ele>
        <time>2022-04-20T13:46:03Z</time>
      </trkpt>
      <trkpt lat="49.98484" lon="2.39435">
        <ele>79.2</ele>
        <time>2022-04-20T13:46:04Z</time>
      </trkpt>
      <trkpt lat="49.98483" lon="2.39436">
        <ele>79.2</ele>
        <time>2022-04-20T13:46:05Z</time>
      </trkpt>
      <trkpt lat="49.98482" lon="2.39437">
        <ele>79.2</ele>
        <time>2022-04-20T13:46:06Z</time>
      </trkpt>
      <trkpt lat="49.98482" lon="2.39438">
        <ele>79.2</ele>
        <time>2022-04-20T13:46:07Z</time>
      </trkpt>
      <trkpt lat="49.98481" lon="2.39439">
        <ele>79.2</ele>
        <time>2022-04-20T13:46:08Z</time>
      </trkpt>
      <trkpt lat="49.9848" lon="2.3944">
        <ele>79.2</ele>
        <time>2022-04-20T13:46:09Z</time>
      </trkpt>
      <trkpt lat="49.98479" lon="2.39441">
        <ele>79.2</ele>
        <time>2022-04-20T13:46:10Z</time>
      </trkpt>
      <trkpt lat="49.98478" lon="2.39443">
        <ele>79.2</ele>
        <time>2022-04-20T13:46:11Z</time>
      </trkpt>
      <trkpt lat="49.98477" lon="2.39445">
        <ele>79.2</ele>
        <time>2022-04-20T13:46:12Z</time>
      </trkpt>
      <trkpt lat="49.98475" lon="2.39448">
        <ele>79.1</ele>
        <time>2022-04-20T13:46:14Z</time>
      </trkpt>
      <trkpt lat="49.98473" lon="2.39452">
        <ele>79.1</ele>
        <time>2022-04-20T13:46:16Z</time>
      </trkpt>
      <trkpt lat="49.98473" lon="2.39452">
        <ele>79.1</ele>
        <time>2022-04-20T13:46:17Z</time>
      </trkpt>
      <trkpt lat="49.98471" lon="2.39454">
        <ele>79.1</ele>
        <time>2022-04-20T13:46:18Z</time>
      </trkpt>
      <trkpt lat="49.9847" lon="2.39455">
        <ele>79.1</ele>
        <time>2022-04-20T13:46:19Z</time>
      </trkpt>
      <trkpt lat="49.98469" lon="2.39457">
        <ele>79</ele>
        <time>2022-04-20T13:46:21Z</time>
      </trkpt>
      <trkpt lat="49.98468" lon="2.39458">
        <ele>79</ele>
        <time>2022-04-20T13:46:22Z</time>
      </trkpt>
      <trkpt lat="49.98467" lon="2.3946">
        <ele>79</ele>
        <time>2022-04-20T13:46:23Z</time>
      </trkpt>
      <trkpt lat="49.98466" lon="2.39461">
        <ele>79</ele>
        <time>2022-04-20T13:46:24Z</time>
      </trkpt>
      <trkpt lat="49.98465" lon="2.39463">
        <ele>79</ele>
        <time>2022-04-20T13:46:25Z</time>
      </trkpt>
      <trkpt lat="49.98464" lon="2.39465">
        <ele>79</ele>
        <time>2022-04-20T13:46:26Z</time>
      </trkpt>
      <trkpt lat="49.98463" lon="2.39466">
        <ele>79</ele>
        <time>2022-04-20T13:46:27Z</time>
      </trkpt>
      <trkpt lat="49.98462" lon="2.39468">
        <ele>79</ele>
        <time>2022-04-20T13:46:28Z</time>
      </trkpt>
      <trkpt lat="49.9846" lon="2.3947">
        <ele>79</ele>
        <time>2022-04-20T13:46:29Z</time>
      </trkpt>
      <trkpt lat="49.98459" lon="2.39471">
        <ele>78.9</ele>
        <time>2022-04-20T13:46:30Z</time>
      </trkpt>
      <trkpt lat="49.98459" lon="2.39472">
        <ele>78.9</ele>
        <time>2022-04-20T13:46:31Z</time>
      </trkpt>
      <trkpt lat="49.98458" lon="2.39474">
        <ele>78.9</ele>
        <time>2022-04-20T13:46:32Z</time>
      </trkpt>
      <trkpt lat="49.98457" lon="2.39475">
        <ele>78.9</ele>
        <time>2022-04-20T13:46:33Z</time>
      </trkpt>
      <trkpt lat="49.98455" lon="2.39478">
        <ele>78.9</ele>
        <time>2022-04-20T13:46:34Z</time>
      </trkpt>
      <trkpt lat="49.98454" lon="2.3948">
        <ele>78.9</ele>
        <time>2022-04-20T13:46:36Z</time>
      </trkpt>
      <trkpt lat="49.98453" lon="2.39481">
        <ele>78.9</ele>
        <time>2022-04-20T13:46:37Z</time>
      </trkpt>
      <trkpt lat="49.98452" lon="2.39482">
        <ele>78.9</ele>
        <time>2022-04-20T13:46:38Z</time>
      </trkpt>
      <trkpt lat="49.98451" lon="2.39483">
        <ele>78.9</ele>
        <time>2022-04-20T13:46:39Z</time>
      </trkpt>
      <trkpt lat="49.9845" lon="2.39485">
        <ele>78.8</ele>
        <time>2022-04-20T13:46:40Z</time>
      </trkpt>
      <trkpt lat="49.98449" lon="2.39486">
        <ele>78.8</ele>
        <time>2022-04-20T13:46:41Z</time>
      </trkpt>
      <trkpt lat="49.98448" lon="2.39488">
        <ele>78.8</ele>
        <time>2022-04-20T13:46:42Z</time>
      </trkpt>
      <trkpt lat="49.98447" lon="2.39489">
        <ele>78.8</ele>
        <time>2022-04-20T13:46:43Z</time>
      </trkpt>
      <trkpt lat="49.98446" lon="2.39491">
        <ele>78.8</ele>
        <time>2022-04-20T13:46:45Z</time>
      </trkpt>
      <trkpt lat="49.98445" lon="2.39493">
        <ele>78.8</ele>
        <time>2022-04-20T13:46:46Z</time>
      </trkpt>
      <trkpt lat="49.98443" lon="2.39495">
        <ele>78.8</ele>
        <time>2022-04-20T13:46:48Z</time>
      </trkpt>
      <trkpt lat="49.98442" lon="2.39496">
        <ele>78.7</ele>
        <time>2022-04-20T13:46:49Z</time>
      </trkpt>
      <trkpt lat="49.98442" lon="2.39497">
        <ele>78.7</ele>
        <time>2022-04-20T13:46:50Z</time>
      </trkpt>
      <trkpt lat="49.98441" lon="2.39499">
        <ele>78.7</ele>
        <time>2022-04-20T13:46:51Z</time>
      </trkpt>
      <trkpt lat="49.9844" lon="2.39501">
        <ele>78.7</ele>
        <time>2022-04-20T13:46:52Z</time>
      </trkpt>
      <trkpt lat="49.98439" lon="2.39502">
        <ele>78.7</ele>
        <time>2022-04-20T13:46:53Z</time>
      </trkpt>
      <trkpt lat="49.98437" lon="2.39505">
        <ele>78.7</ele>
        <time>2022-04-20T13:46:54Z</time>
      </trkpt>
      <trkpt lat="49.98437" lon="2.39505">
        <ele>78.7</ele>
        <time>2022-04-20T13:46:55Z</time>
      </trkpt>
      <trkpt lat="49.98436" lon="2.39506">
        <ele>78.7</ele>
        <time>2022-04-20T13:46:56Z</time>
      </trkpt>
      <trkpt lat="49.98435" lon="2.39509">
        <ele>78.6</ele>
        <time>2022-04-20T13:46:57Z</time>
      </trkpt>
      <trkpt lat="49.98434" lon="2.39509">
        <ele>78.6</ele>
        <time>2022-04-20T13:46:58Z</time>
      </trkpt>
      <trkpt lat="49.98434" lon="2.3951">
        <ele>78.6</ele>
        <time>2022-04-20T13:46:59Z</time>
      </trkpt>
      <trkpt lat="49.98432" lon="2.39513">
        <ele>78.6</ele>
        <time>2022-04-20T13:47:00Z</time>
      </trkpt>
      <trkpt lat="49.98432" lon="2.39514">
        <ele>78.6</ele>
        <time>2022-04-20T13:47:01Z</time>
      </trkpt>
      <trkpt lat="49.98431" lon="2.39515">
        <ele>78.6</ele>
        <time>2022-04-20T13:47:02Z</time>
      </trkpt>
      <trkpt lat="49.9843" lon="2.39517">
        <ele>78.6</ele>
        <time>2022-04-20T13:47:03Z</time>
      </trkpt>
      <trkpt lat="49.98429" lon="2.39518">
        <ele>78.5</ele>
        <time>2022-04-20T13:47:04Z</time>
      </trkpt>
      <trkpt lat="49.98428" lon="2.39519">
        <ele>78.5</ele>
        <time>2022-04-20T13:47:05Z</time>
      </trkpt>
      <trkpt lat="49.98428" lon="2.3952">
        <ele>78.5</ele>
        <time>2022-04-20T13:47:06Z</time>
      </trkpt>
      <trkpt lat="49.98427" lon="2.39522">
        <ele>78.5</ele>
        <time>2022-04-20T13:47:08Z</time>
      </trkpt>
      <trkpt lat="49.98426" lon="2.39524">
        <ele>78.5</ele>
        <time>2022-04-20T13:47:09Z</time>
      </trkpt>
      <trkpt lat="49.98425" lon="2.39526">
        <ele>78.5</ele>
        <time>2022-04-20T13:47:10Z</time>
      </trkpt>
      <trkpt lat="49.98424" lon="2.39527">
        <ele>78.5</ele>
        <time>2022-04-20T13:47:11Z</time>
      </trkpt>
      <trkpt lat="49.98422" lon="2.3953">
        <ele>78.5</ele>
        <time>2022-04-20T13:47:13Z</time>
      </trkpt>
      <trkpt lat="49.98421" lon="2.39531">
        <ele>78.4</ele>
        <time>2022-04-20T13:47:14Z</time>
      </trkpt>
      <trkpt lat="49.9842" lon="2.39532">
        <ele>78.4</ele>
        <time>2022-04-20T13:47:15Z</time>
      </trkpt>
      <trkpt lat="49.98419" lon="2.39534">
        <ele>78.4</ele>
        <time>2022-04-20T13:47:16Z</time>
      </trkpt>
      <trkpt lat="49.98418" lon="2.39536">
        <ele>78.4</ele>
        <time>2022-04-20T13:47:18Z</time>
      </trkpt>
      <trkpt lat="49.98417" lon="2.39538">
        <ele>78.4</ele>
        <time>2022-04-20T13:47:19Z</time>
      </trkpt>
      <trkpt lat="49.98416" lon="2.39539">
        <ele>78.4</ele>
        <time>2022-04-20T13:47:20Z</time>
      </trkpt>
      <trkpt lat="49.98416" lon="2.3954">
        <ele>78.4</ele>
        <time>2022-04-20T13:47:21Z</time>
      </trkpt>
      <trkpt lat="49.98414" lon="2.39543">
        <ele>78.4</ele>
        <time>2022-04-20T13:47:22Z</time>
      </trkpt>
      <trkpt lat="49.98414" lon="2.39544">
        <ele>78.4</ele>
        <time>2022-04-20T13:47:23Z</time>
      </trkpt>
      <trkpt lat="49.98413" lon="2.39545">
        <ele>78.3</ele>
        <time>2022-04-20T13:47:24Z</time>
      </trkpt>
      <trkpt lat="49.98412" lon="2.39547">
        <ele>78.3</ele>
        <time>2022-04-20T13:47:25Z</time>
      </trkpt>
      <trkpt lat="49.98411" lon="2.39548">
        <ele>78.3</ele>
        <time>2022-04-20T13:47:26Z</time>
      </trkpt>
      <trkpt lat="49.9841" lon="2.39549">
        <ele>78.3</ele>
        <time>2022-04-20T13:47:27Z</time>
      </trkpt>
      <trkpt lat="49.98409" lon="2.39551">
        <ele>78.3</ele>
        <time>2022-04-20T13:47:28Z</time>
      </trkpt>
      <trkpt lat="49.98408" lon="2.39553">
        <ele>78.3</ele>
        <time>2022-04-20T13:47:30Z</time>
      </trkpt>
      <trkpt lat="49.98407" lon="2.39554">
        <ele>78.3</ele>
        <time>2022-04-20T13:47:31Z</time>
      </trkpt>
      <trkpt lat="49.98405" lon="2.39556">
        <ele>78.3</ele>
        <time>2022-04-20T13:47:32Z</time>
      </trkpt>
      <trkpt lat="49.98404" lon="2.39558">
        <ele>78.2</ele>
        <time>2022-04-20T13:47:33Z</time>
      </trkpt>
      <trkpt lat="49.98403" lon="2.39559">
        <ele>78.2</ele>
        <time>2022-04-20T13:47:34Z</time>
      </trkpt>
      <trkpt lat="49.98402" lon="2.39561">
        <ele>78.2</ele>
        <time>2022-04-20T13:47:35Z</time>
      </trkpt>
      <trkpt lat="49.98401" lon="2.39563">
        <ele>78.2</ele>
        <time>2022-04-20T13:47:36Z</time>
      </trkpt>
      <trkpt lat="49.984" lon="2.39564">
        <ele>78.2</ele>
        <time>2022-04-20T13:47:37Z</time>
      </trkpt>
      <trkpt lat="49.98399" lon="2.39566">
        <ele>78.2</ele>
        <time>2022-04-20T13:47:38Z</time>
      </trkpt>
      <trkpt lat="49.98398" lon="2.39568">
        <ele>78.1</ele>
        <time>2022-04-20T13:47:40Z</time>
      </trkpt>
      <trkpt lat="49.98397" lon="2.3957">
        <ele>78.1</ele>
        <time>2022-04-20T13:47:41Z</time>
      </trkpt>
      <trkpt lat="49.98396" lon="2.39571">
        <ele>78.1</ele>
        <time>2022-04-20T13:47:42Z</time>
      </trkpt>
      <trkpt lat="49.98395" lon="2.39572">
        <ele>78.1</ele>
        <time>2022-04-20T13:47:43Z</time>
      </trkpt>
      <trkpt lat="49.98394" lon="2.39573">
        <ele>78.1</ele>
        <time>2022-04-20T13:47:44Z</time>
      </trkpt>
      <trkpt lat="49.98393" lon="2.39575">
        <ele>78.1</ele>
        <time>2022-04-20T13:47:45Z</time>
      </trkpt>
      <trkpt lat="49.98391" lon="2.39578">
        <ele>78</ele>
        <time>2022-04-20T13:47:47Z</time>
      </trkpt>
      <trkpt lat="49.9839" lon="2.39578">
        <ele>78</ele>
        <time>2022-04-20T13:47:48Z</time>
      </trkpt>
      <trkpt lat="49.98389" lon="2.3958">
        <ele>78</ele>
        <time>2022-04-20T13:47:49Z</time>
      </trkpt>
      <trkpt lat="49.98388" lon="2.39581">
        <ele>78</ele>
        <time>2022-04-20T13:47:50Z</time>
      </trkpt>
      <trkpt lat="49.98387" lon="2.39583">
        <ele>78</ele>
        <time>2022-04-20T13:47:51Z</time>
      </trkpt>
      <trkpt lat="49.98387" lon="2.39584">
        <ele>77.9</ele>
        <time>2022-04-20T13:47:52Z</time>
      </trkpt>
      <trkpt lat="49.98386" lon="2.39585">
        <ele>77.9</ele>
        <time>2022-04-20T13:47:53Z</time>
      </trkpt>
      <trkpt lat="49.98385" lon="2.39587">
        <ele>77.9</ele>
        <time>2022-04-20T13:47:54Z</time>
      </trkpt>
      <trkpt lat="49.98384" lon="2.39589">
        <ele>77.9</ele>
        <time>2022-04-20T13:47:55Z</time>
      </trkpt>
      <trkpt lat="49.98382" lon="2.39591">
        <ele>77.8</ele>
        <time>2022-04-20T13:47:56Z</time>
      </trkpt>
      <trkpt lat="49.98381" lon="2.39592">
        <ele>77.8</ele>
        <time>2022-04-20T13:47:57Z</time>
      </trkpt>
      <trkpt lat="49.98381" lon="2.39593">
        <ele>77.8</ele>
        <time>2022-04-20T13:47:58Z</time>
      </trkpt>
      <trkpt lat="49.98379" lon="2.39595">
        <ele>77.8</ele>
        <time>2022-04-20T13:47:59Z</time>
      </trkpt>
      <trkpt lat="49.98379" lon="2.39597">
        <ele>77.8</ele>
        <time>2022-04-20T13:48:00Z</time>
      </trkpt>
      <trkpt lat="49.98378" lon="2.39598">
        <ele>77.7</ele>
        <time>2022-04-20T13:48:01Z</time>
      </trkpt>
      <trkpt lat="49.98377" lon="2.396">
        <ele>77.7</ele>
        <time>2022-04-20T13:48:03Z</time>
      </trkpt>
      <trkpt lat="49.98376" lon="2.39602">
        <ele>77.7</ele>
        <time>2022-04-20T13:48:04Z</time>
      </trkpt>
      <trkpt lat="49.98375" lon="2.39603">
        <ele>77.7</ele>
        <time>2022-04-20T13:48:05Z</time>
      </trkpt>
      <trkpt lat="49.98374" lon="2.39605">
        <ele>77.6</ele>
        <time>2022-04-20T13:48:06Z</time>
      </trkpt>
      <trkpt lat="49.98373" lon="2.39606">
        <ele>77.6</ele>
        <time>2022-04-20T13:48:07Z</time>
      </trkpt>
      <trkpt lat="49.98373" lon="2.39607">
        <ele>77.6</ele>
        <time>2022-04-20T13:48:08Z</time>
      </trkpt>
      <trkpt lat="49.98372" lon="2.39609">
        <ele>77.6</ele>
        <time>2022-04-20T13:48:09Z</time>
      </trkpt>
      <trkpt lat="49.98371" lon="2.3961">
        <ele>77.6</ele>
        <time>2022-04-20T13:48:10Z</time>
      </trkpt>
      <trkpt lat="49.9837" lon="2.39611">
        <ele>77.5</ele>
        <time>2022-04-20T13:48:11Z</time>
      </trkpt>
      <trkpt lat="49.98369" lon="2.39615">
        <ele>77.5</ele>
        <time>2022-04-20T13:48:12Z</time>
      </trkpt>
      <trkpt lat="49.98368" lon="2.39616">
        <ele>77.5</ele>
        <time>2022-04-20T13:48:14Z</time>
      </trkpt>
      <trkpt lat="49.98367" lon="2.39618">
        <ele>77.5</ele>
        <time>2022-04-20T13:48:15Z</time>
      </trkpt>
      <trkpt lat="49.98366" lon="2.39619">
        <ele>77.4</ele>
        <time>2022-04-20T13:48:17Z</time>
      </trkpt>
      <trkpt lat="49.98366" lon="2.39621">
        <ele>77.4</ele>
        <time>2022-04-20T13:48:18Z</time>
      </trkpt>
      <trkpt lat="49.98365" lon="2.39622">
        <ele>77.4</ele>
        <time>2022-04-20T13:48:19Z</time>
      </trkpt>
      <trkpt lat="49.98364" lon="2.39624">
        <ele>77.4</ele>
        <time>2022-04-20T13:48:20Z</time>
      </trkpt>
      <trkpt lat="49.98363" lon="2.39627">
        <ele>77.4</ele>
        <time>2022-04-20T13:48:21Z</time>
      </trkpt>
      <trkpt lat="49.98362" lon="2.39628">
        <ele>77.3</ele>
        <time>2022-04-20T13:48:22Z</time>
      </trkpt>
      <trkpt lat="49.98361" lon="2.39629">
        <ele>77.3</ele>
        <time>2022-04-20T13:48:23Z</time>
      </trkpt>
      <trkpt lat="49.9836" lon="2.39632">
        <ele>77.3</ele>
        <time>2022-04-20T13:48:24Z</time>
      </trkpt>
      <trkpt lat="49.98359" lon="2.39633">
        <ele>77.3</ele>
        <time>2022-04-20T13:48:26Z</time>
      </trkpt>
      <trkpt lat="49.98358" lon="2.39634">
        <ele>77.3</ele>
        <time>2022-04-20T13:48:27Z</time>
      </trkpt>
      <trkpt lat="49.98357" lon="2.39636">
        <ele>77.3</ele>
        <time>2022-04-20T13:48:28Z</time>
      </trkpt>
      <trkpt lat="49.98356" lon="2.39637">
        <ele>77.2</ele>
        <time>2022-04-20T13:48:29Z</time>
      </trkpt>
      <trkpt lat="49.98355" lon="2.39638">
        <ele>77.2</ele>
        <time>2022-04-20T13:48:30Z</time>
      </trkpt>
      <trkpt lat="49.98354" lon="2.3964">
        <ele>77.2</ele>
        <time>2022-04-20T13:48:31Z</time>
      </trkpt>
      <trkpt lat="49.98352" lon="2.39643">
        <ele>77.2</ele>
        <time>2022-04-20T13:48:32Z</time>
      </trkpt>
      <trkpt lat="49.98352" lon="2.39644">
        <ele>77.1</ele>
        <time>2022-04-20T13:48:33Z</time>
      </trkpt>
      <trkpt lat="49.98351" lon="2.39645">
        <ele>77.1</ele>
        <time>2022-04-20T13:48:34Z</time>
      </trkpt>
      <trkpt lat="49.9835" lon="2.39647">
        <ele>77.1</ele>
        <time>2022-04-20T13:48:36Z</time>
      </trkpt>
      <trkpt lat="49.98349" lon="2.39649">
        <ele>77.1</ele>
        <time>2022-04-20T13:48:37Z</time>
      </trkpt>
      <trkpt lat="49.98348" lon="2.3965">
        <ele>77.1</ele>
        <time>2022-04-20T13:48:38Z</time>
      </trkpt>
      <trkpt lat="49.98348" lon="2.39651">
        <ele>77</ele>
        <time>2022-04-20T13:48:39Z</time>
      </trkpt>
      <trkpt lat="49.98347" lon="2.39653">
        <ele>77</ele>
        <time>2022-04-20T13:48:40Z</time>
      </trkpt>
      <trkpt lat="49.98346" lon="2.39653">
        <ele>77</ele>
        <time>2022-04-20T13:48:41Z</time>
      </trkpt>
      <trkpt lat="49.98344" lon="2.39655">
        <ele>77</ele>
        <time>2022-04-20T13:48:42Z</time>
      </trkpt>
      <trkpt lat="49.98344" lon="2.39656">
        <ele>77</ele>
        <time>2022-04-20T13:48:44Z</time>
      </trkpt>
      <trkpt lat="49.98343" lon="2.39657">
        <ele>77</ele>
        <time>2022-04-20T13:48:45Z</time>
      </trkpt>
      <trkpt lat="49.98342" lon="2.39659">
        <ele>76.9</ele>
        <time>2022-04-20T13:48:46Z</time>
      </trkpt>
      <trkpt lat="49.9834" lon="2.39662">
        <ele>76.9</ele>
        <time>2022-04-20T13:48:48Z</time>
      </trkpt>
      <trkpt lat="49.98339" lon="2.39664">
        <ele>76.9</ele>
        <time>2022-04-20T13:48:49Z</time>
      </trkpt>
      <trkpt lat="49.98338" lon="2.39665">
        <ele>76.9</ele>
        <time>2022-04-20T13:48:50Z</time>
      </trkpt>
      <trkpt lat="49.98337" lon="2.39667">
        <ele>76.8</ele>
        <time>2022-04-20T13:48:51Z</time>
      </trkpt>
      <trkpt lat="49.98336" lon="2.39669">
        <ele>76.8</ele>
        <time>2022-04-20T13:48:52Z</time>
      </trkpt>
      <trkpt lat="49.98335" lon="2.3967">
        <ele>76.8</ele>
        <time>2022-04-20T13:48:53Z</time>
      </trkpt>
      <trkpt lat="49.98334" lon="2.39672">
        <ele>76.8</ele>
        <time>2022-04-20T13:48:54Z</time>
      </trkpt>
      <trkpt lat="49.98333" lon="2.39674">
        <ele>76.7</ele>
        <time>2022-04-20T13:48:55Z</time>
      </trkpt>
      <trkpt lat="49.98332" lon="2.39675">
        <ele>76.7</ele>
        <time>2022-04-20T13:48:56Z</time>
      </trkpt>
      <trkpt lat="49.98332" lon="2.39676">
        <ele>76.7</ele>
        <time>2022-04-20T13:48:57Z</time>
      </trkpt>
      <trkpt lat="49.9833" lon="2.39679">
        <ele>76.7</ele>
        <time>2022-04-20T13:48:58Z</time>
      </trkpt>
      <trkpt lat="49.9833" lon="2.3968">
        <ele>76.6</ele>
        <time>2022-04-20T13:48:59Z</time>
      </trkpt>
      <trkpt lat="49.98329" lon="2.39681">
        <ele>76.6</ele>
        <time>2022-04-20T13:49:00Z</time>
      </trkpt>
      <trkpt lat="49.98327" lon="2.39683">
        <ele>76.6</ele>
        <time>2022-04-20T13:49:01Z</time>
      </trkpt>
      <trkpt lat="49.98327" lon="2.39684">
        <ele>76.6</ele>
        <time>2022-04-20T13:49:02Z</time>
      </trkpt>
      <trkpt lat="49.98326" lon="2.39685">
        <ele>76.6</ele>
        <time>2022-04-20T13:49:03Z</time>
      </trkpt>
      <trkpt lat="49.98325" lon="2.39686">
        <ele>76.5</ele>
        <time>2022-04-20T13:49:04Z</time>
      </trkpt>
      <trkpt lat="49.98324" lon="2.39689">
        <ele>76.5</ele>
        <time>2022-04-20T13:49:06Z</time>
      </trkpt>
      <trkpt lat="49.98322" lon="2.39691">
        <ele>76.5</ele>
        <time>2022-04-20T13:49:07Z</time>
      </trkpt>
      <trkpt lat="49.98321" lon="2.39692">
        <ele>76.4</ele>
        <time>2022-04-20T13:49:08Z</time>
      </trkpt>
      <trkpt lat="49.98319" lon="2.39695">
        <ele>76.4</ele>
        <time>2022-04-20T13:49:10Z</time>
      </trkpt>
      <trkpt lat="49.98318" lon="2.39696">
        <ele>76.4</ele>
        <time>2022-04-20T13:49:11Z</time>
      </trkpt>
      <trkpt lat="49.98317" lon="2.39697">
        <ele>76.4</ele>
        <time>2022-04-20T13:49:12Z</time>
      </trkpt>
      <trkpt lat="49.98316" lon="2.39699">
        <ele>76.3</ele>
        <time>2022-04-20T13:49:13Z</time>
      </trkpt>
      <trkpt lat="49.98314" lon="2.39702">
        <ele>76.3</ele>
        <time>2022-04-20T13:49:15Z</time>
      </trkpt>
      <trkpt lat="49.98313" lon="2.39703">
        <ele>76.3</ele>
        <time>2022-04-20T13:49:16Z</time>
      </trkpt>
      <trkpt lat="49.98312" lon="2.39705">
        <ele>76.2</ele>
        <time>2022-04-20T13:49:17Z</time>
      </trkpt>
      <trkpt lat="49.98311" lon="2.39706">
        <ele>76.2</ele>
        <time>2022-04-20T13:49:18Z</time>
      </trkpt>
      <trkpt lat="49.9831" lon="2.39707">
        <ele>76.2</ele>
        <time>2022-04-20T13:49:19Z</time>
      </trkpt>
      <trkpt lat="49.98308" lon="2.3971">
        <ele>76.1</ele>
        <time>2022-04-20T13:49:21Z</time>
      </trkpt>
      <trkpt lat="49.98308" lon="2.39711">
        <ele>76.1</ele>
        <time>2022-04-20T13:49:22Z</time>
      </trkpt>
      <trkpt lat="49.98306" lon="2.39712">
        <ele>76.1</ele>
        <time>2022-04-20T13:49:23Z</time>
      </trkpt>
      <trkpt lat="49.98305" lon="2.39714">
        <ele>76.1</ele>
        <time>2022-04-20T13:49:24Z</time>
      </trkpt>
      <trkpt lat="49.98304" lon="2.39715">
        <ele>76.1</ele>
        <time>2022-04-20T13:49:25Z</time>
      </trkpt>
      <trkpt lat="49.98303" lon="2.39718">
        <ele>76</ele>
        <time>2022-04-20T13:49:27Z</time>
      </trkpt>
      <trkpt lat="49.98302" lon="2.39719">
        <ele>76</ele>
        <time>2022-04-20T13:49:28Z</time>
      </trkpt>
      <trkpt lat="49.98301" lon="2.3972">
        <ele>76</ele>
        <time>2022-04-20T13:49:29Z</time>
      </trkpt>
      <trkpt lat="49.983" lon="2.39721">
        <ele>76</ele>
        <time>2022-04-20T13:49:30Z</time>
      </trkpt>
      <trkpt lat="49.983" lon="2.39723">
        <ele>75.9</ele>
        <time>2022-04-20T13:49:31Z</time>
      </trkpt>
      <trkpt lat="49.98299" lon="2.39724">
        <ele>75.9</ele>
        <time>2022-04-20T13:49:32Z</time>
      </trkpt>
      <trkpt lat="49.98298" lon="2.39726">
        <ele>75.9</ele>
        <time>2022-04-20T13:49:33Z</time>
      </trkpt>
      <trkpt lat="49.98298" lon="2.39728">
        <ele>75.9</ele>
        <time>2022-04-20T13:49:34Z</time>
      </trkpt>
      <trkpt lat="49.98297" lon="2.3973">
        <ele>75.9</ele>
        <time>2022-04-20T13:49:35Z</time>
      </trkpt>
      <trkpt lat="49.98296" lon="2.39732">
        <ele>75.8</ele>
        <time>2022-04-20T13:49:36Z</time>
      </trkpt>
      <trkpt lat="49.98295" lon="2.39734">
        <ele>75.8</ele>
        <time>2022-04-20T13:49:38Z</time>
      </trkpt>
      <trkpt lat="49.98294" lon="2.39736">
        <ele>75.8</ele>
        <time>2022-04-20T13:49:39Z</time>
      </trkpt>
      <trkpt lat="49.98293" lon="2.39738">
        <ele>75.8</ele>
        <time>2022-04-20T13:49:40Z</time>
      </trkpt>
      <trkpt lat="49.98292" lon="2.39739">
        <ele>75.8</ele>
        <time>2022-04-20T13:49:41Z</time>
      </trkpt>
      <trkpt lat="49.98291" lon="2.39741">
        <ele>75.8</ele>
        <time>2022-04-20T13:49:42Z</time>
      </trkpt>
      <trkpt lat="49.98288" lon="2.39745">
        <ele>75.7</ele>
        <time>2022-04-20T13:49:44Z</time>
      </trkpt>
      <trkpt lat="49.98288" lon="2.39745">
        <ele>75.7</ele>
        <time>2022-04-20T13:49:45Z</time>
      </trkpt>
      <trkpt lat="49.98287" lon="2.39747">
        <ele>75.7</ele>
        <time>2022-04-20T13:49:46Z</time>
      </trkpt>
      <trkpt lat="49.98285" lon="2.39749">
        <ele>75.7</ele>
        <time>2022-04-20T13:49:47Z</time>
      </trkpt>
      <trkpt lat="49.98284" lon="2.39751">
        <ele>75.7</ele>
        <time>2022-04-20T13:49:48Z</time>
      </trkpt>
      <trkpt lat="49.98283" lon="2.39752">
        <ele>75.7</ele>
        <time>2022-04-20T13:49:49Z</time>
      </trkpt>
      <trkpt lat="49.98282" lon="2.39753">
        <ele>75.7</ele>
        <time>2022-04-20T13:49:50Z</time>
      </trkpt>
      <trkpt lat="49.98281" lon="2.39754">
        <ele>75.7</ele>
        <time>2022-04-20T13:49:51Z</time>
      </trkpt>
      <trkpt lat="49.98279" lon="2.39755">
        <ele>75.7</ele>
        <time>2022-04-20T13:49:53Z</time>
      </trkpt>
      <trkpt lat="49.98277" lon="2.39757">
        <ele>75.7</ele>
        <time>2022-04-20T13:49:54Z</time>
      </trkpt>
      <trkpt lat="49.98276" lon="2.39758">
        <ele>75.7</ele>
        <time>2022-04-20T13:49:55Z</time>
      </trkpt>
      <trkpt lat="49.98275" lon="2.39759">
        <ele>75.7</ele>
        <time>2022-04-20T13:49:56Z</time>
      </trkpt>
      <trkpt lat="49.98274" lon="2.3976">
        <ele>75.7</ele>
        <time>2022-04-20T13:49:57Z</time>
      </trkpt>
      <trkpt lat="49.98272" lon="2.39762">
        <ele>75.7</ele>
        <time>2022-04-20T13:49:59Z</time>
      </trkpt>
      <trkpt lat="49.98271" lon="2.39763">
        <ele>75.7</ele>
        <time>2022-04-20T13:50:00Z</time>
      </trkpt>
      <trkpt lat="49.98269" lon="2.39765">
        <ele>75.7</ele>
        <time>2022-04-20T13:50:01Z</time>
      </trkpt>
      <trkpt lat="49.98269" lon="2.39766">
        <ele>75.7</ele>
        <time>2022-04-20T13:50:02Z</time>
      </trkpt>
      <trkpt lat="49.98268" lon="2.39766">
        <ele>75.7</ele>
        <time>2022-04-20T13:50:03Z</time>
      </trkpt>
      <trkpt lat="49.98266" lon="2.39768">
        <ele>75.8</ele>
        <time>2022-04-20T13:50:04Z</time>
      </trkpt>
      <trkpt lat="49.98266" lon="2.39769">
        <ele>75.8</ele>
        <time>2022-04-20T13:50:05Z</time>
      </trkpt>
      <trkpt lat="49.98265" lon="2.3977">
        <ele>75.8</ele>
        <time>2022-04-20T13:50:06Z</time>
      </trkpt>
      <trkpt lat="49.98264" lon="2.39771">
        <ele>75.8</ele>
        <time>2022-04-20T13:50:07Z</time>
      </trkpt>
      <trkpt lat="49.98262" lon="2.39772">
        <ele>75.8</ele>
        <time>2022-04-20T13:50:08Z</time>
      </trkpt>
      <trkpt lat="49.98261" lon="2.39774">
        <ele>75.8</ele>
        <time>2022-04-20T13:50:10Z</time>
      </trkpt>
      <trkpt lat="49.9826" lon="2.39775">
        <ele>75.8</ele>
        <time>2022-04-20T13:50:11Z</time>
      </trkpt>
      <trkpt lat="49.98259" lon="2.39777">
        <ele>75.8</ele>
        <time>2022-04-20T13:50:12Z</time>
      </trkpt>
      <trkpt lat="49.98257" lon="2.39778">
        <ele>75.8</ele>
        <time>2022-04-20T13:50:13Z</time>
      </trkpt>
      <trkpt lat="49.98256" lon="2.3978">
        <ele>75.8</ele>
        <time>2022-04-20T13:50:14Z</time>
      </trkpt>
      <trkpt lat="49.98255" lon="2.39781">
        <ele>75.8</ele>
        <time>2022-04-20T13:50:15Z</time>
      </trkpt>
      <trkpt lat="49.98254" lon="2.39782">
        <ele>75.9</ele>
        <time>2022-04-20T13:50:16Z</time>
      </trkpt>
      <trkpt lat="49.98252" lon="2.39783">
        <ele>75.9</ele>
        <time>2022-04-20T13:50:17Z</time>
      </trkpt>
      <trkpt lat="49.98251" lon="2.39785">
        <ele>75.9</ele>
        <time>2022-04-20T13:50:18Z</time>
      </trkpt>
      <trkpt lat="49.9825" lon="2.39786">
        <ele>75.9</ele>
        <time>2022-04-20T13:50:19Z</time>
      </trkpt>
      <trkpt lat="49.98248" lon="2.39788">
        <ele>75.9</ele>
        <time>2022-04-20T13:50:21Z</time>
      </trkpt>
      <trkpt lat="49.98247" lon="2.39788">
        <ele>75.9</ele>
        <time>2022-04-20T13:50:22Z</time>
      </trkpt>
      <trkpt lat="49.98247" lon="2.39789">
        <ele>76</ele>
        <time>2022-04-20T13:50:23Z</time>
      </trkpt>
      <trkpt lat="49.98245" lon="2.39791">
        <ele>76</ele>
        <time>2022-04-20T13:50:24Z</time>
      </trkpt>
      <trkpt lat="49.98244" lon="2.39792">
        <ele>76</ele>
        <time>2022-04-20T13:50:25Z</time>
      </trkpt>
      <trkpt lat="49.98244" lon="2.39793">
        <ele>76</ele>
        <time>2022-04-20T13:50:26Z</time>
      </trkpt>
      <trkpt lat="49.98242" lon="2.39795">
        <ele>76.1</ele>
        <time>2022-04-20T13:50:27Z</time>
      </trkpt>
      <trkpt lat="49.98241" lon="2.39796">
        <ele>76.1</ele>
        <time>2022-04-20T13:50:28Z</time>
      </trkpt>
      <trkpt lat="49.9824" lon="2.39796">
        <ele>76.1</ele>
        <time>2022-04-20T13:50:29Z</time>
      </trkpt>
      <trkpt lat="49.98239" lon="2.39798">
        <ele>76.1</ele>
        <time>2022-04-20T13:50:31Z</time>
      </trkpt>
      <trkpt lat="49.98238" lon="2.39799">
        <ele>76.1</ele>
        <time>2022-04-20T13:50:32Z</time>
      </trkpt>
      <trkpt lat="49.98236" lon="2.39801">
        <ele>76.2</ele>
        <time>2022-04-20T13:50:33Z</time>
      </trkpt>
      <trkpt lat="49.98235" lon="2.39801">
        <ele>76.2</ele>
        <time>2022-04-20T13:50:34Z</time>
      </trkpt>
      <trkpt lat="49.98234" lon="2.39802">
        <ele>76.2</ele>
        <time>2022-04-20T13:50:35Z</time>
      </trkpt>
      <trkpt lat="49.98233" lon="2.39804">
        <ele>76.2</ele>
        <time>2022-04-20T13:50:36Z</time>
      </trkpt>
      <trkpt lat="49.98232" lon="2.39805">
        <ele>76.3</ele>
        <time>2022-04-20T13:50:37Z</time>
      </trkpt>
      <trkpt lat="49.98231" lon="2.39806">
        <ele>76.3</ele>
        <time>2022-04-20T13:50:38Z</time>
      </trkpt>
      <trkpt lat="49.9823" lon="2.39808">
        <ele>76.3</ele>
        <time>2022-04-20T13:50:40Z</time>
      </trkpt>
      <trkpt lat="49.98229" lon="2.39809">
        <ele>76.3</ele>
        <time>2022-04-20T13:50:41Z</time>
      </trkpt>
      <trkpt lat="49.98228" lon="2.3981">
        <ele>76.3</ele>
        <time>2022-04-20T13:50:42Z</time>
      </trkpt>
      <trkpt lat="49.98227" lon="2.39812">
        <ele>76.4</ele>
        <time>2022-04-20T13:50:43Z</time>
      </trkpt>
      <trkpt lat="49.98226" lon="2.39813">
        <ele>76.4</ele>
        <time>2022-04-20T13:50:44Z</time>
      </trkpt>
      <trkpt lat="49.98226" lon="2.39814">
        <ele>76.4</ele>
        <time>2022-04-20T13:50:45Z</time>
      </trkpt>
      <trkpt lat="49.98225" lon="2.39815">
        <ele>76.4</ele>
        <time>2022-04-20T13:50:46Z</time>
      </trkpt>
      <trkpt lat="49.98224" lon="2.39816">
        <ele>76.4</ele>
        <time>2022-04-20T13:50:47Z</time>
      </trkpt>
      <trkpt lat="49.98223" lon="2.39818">
        <ele>76.5</ele>
        <time>2022-04-20T13:50:48Z</time>
      </trkpt>
      <trkpt lat="49.98222" lon="2.3982">
        <ele>76.5</ele>
        <time>2022-04-20T13:50:49Z</time>
      </trkpt>
      <trkpt lat="49.98221" lon="2.3982">
        <ele>76.5</ele>
        <time>2022-04-20T13:50:50Z</time>
      </trkpt>
      <trkpt lat="49.98221" lon="2.39821">
        <ele>76.5</ele>
        <time>2022-04-20T13:50:51Z</time>
      </trkpt>
      <trkpt lat="49.98219" lon="2.39823">
        <ele>76.6</ele>
        <time>2022-04-20T13:50:53Z</time>
      </trkpt>
      <trkpt lat="49.98218" lon="2.39824">
        <ele>76.6</ele>
        <time>2022-04-20T13:50:54Z</time>
      </trkpt>
      <trkpt lat="49.98217" lon="2.39826">
        <ele>76.6</ele>
        <time>2022-04-20T13:50:55Z</time>
      </trkpt>
      <trkpt lat="49.98216" lon="2.39827">
        <ele>76.7</ele>
        <time>2022-04-20T13:50:56Z</time>
      </trkpt>
      <trkpt lat="49.98215" lon="2.39828">
        <ele>76.7</ele>
        <time>2022-04-20T13:50:57Z</time>
      </trkpt>
      <trkpt lat="49.98214" lon="2.39829">
        <ele>76.7</ele>
        <time>2022-04-20T13:50:58Z</time>
      </trkpt>
      <trkpt lat="49.98213" lon="2.3983">
        <ele>76.7</ele>
        <time>2022-04-20T13:50:59Z</time>
      </trkpt>
      <trkpt lat="49.98212" lon="2.39831">
        <ele>76.7</ele>
        <time>2022-04-20T13:51:00Z</time>
      </trkpt>
      <trkpt lat="49.98211" lon="2.39833">
        <ele>76.8</ele>
        <time>2022-04-20T13:51:02Z</time>
      </trkpt>
      <trkpt lat="49.9821" lon="2.39834">
        <ele>76.8</ele>
        <time>2022-04-20T13:51:03Z</time>
      </trkpt>
      <trkpt lat="49.98209" lon="2.39836">
        <ele>76.9</ele>
        <time>2022-04-20T13:51:04Z</time>
      </trkpt>
      <trkpt lat="49.98208" lon="2.39837">
        <ele>76.9</ele>
        <time>2022-04-20T13:51:05Z</time>
      </trkpt>
      <trkpt lat="49.98207" lon="2.39838">
        <ele>76.9</ele>
        <time>2022-04-20T13:51:06Z</time>
      </trkpt>
      <trkpt lat="49.98206" lon="2.39839">
        <ele>76.9</ele>
        <time>2022-04-20T13:51:07Z</time>
      </trkpt>
      <trkpt lat="49.98205" lon="2.39841">
        <ele>77</ele>
        <time>2022-04-20T13:51:08Z</time>
      </trkpt>
      <trkpt lat="49.98205" lon="2.39841">
        <ele>77</ele>
        <time>2022-04-20T13:51:09Z</time>
      </trkpt>
      <trkpt lat="49.98204" lon="2.39841">
        <ele>77</ele>
        <time>2022-04-20T13:51:10Z</time>
      </trkpt>
      <trkpt lat="49.98203" lon="2.39841">
        <ele>77</ele>
        <time>2022-04-20T13:51:12Z</time>
      </trkpt>
      <trkpt lat="49.98202" lon="2.39842">
        <ele>77</ele>
        <time>2022-04-20T13:51:13Z</time>
      </trkpt>
      <trkpt lat="49.98201" lon="2.39842">
        <ele>77.1</ele>
        <time>2022-04-20T13:51:14Z</time>
      </trkpt>
      <trkpt lat="49.982" lon="2.39842">
        <ele>77.1</ele>
        <time>2022-04-20T13:51:15Z</time>
      </trkpt>
      <trkpt lat="49.98198" lon="2.39843">
        <ele>77.1</ele>
        <time>2022-04-20T13:51:16Z</time>
      </trkpt>
      <trkpt lat="49.98197" lon="2.39844">
        <ele>77.1</ele>
        <time>2022-04-20T13:51:17Z</time>
      </trkpt>
      <trkpt lat="49.98196" lon="2.39846">
        <ele>77.2</ele>
        <time>2022-04-20T13:51:18Z</time>
      </trkpt>
      <trkpt lat="49.98195" lon="2.39847">
        <ele>77.2</ele>
        <time>2022-04-20T13:51:19Z</time>
      </trkpt>
      <trkpt lat="49.98194" lon="2.39848">
        <ele>77.2</ele>
        <time>2022-04-20T13:51:20Z</time>
      </trkpt>
      <trkpt lat="49.98193" lon="2.39849">
        <ele>77.3</ele>
        <time>2022-04-20T13:51:21Z</time>
      </trkpt>
      <trkpt lat="49.98191" lon="2.3985">
        <ele>77.3</ele>
        <time>2022-04-20T13:51:23Z</time>
      </trkpt>
      <trkpt lat="49.9819" lon="2.39851">
        <ele>77.3</ele>
        <time>2022-04-20T13:51:24Z</time>
      </trkpt>
      <trkpt lat="49.98189" lon="2.39851">
        <ele>77.4</ele>
        <time>2022-04-20T13:51:25Z</time>
      </trkpt>
      <trkpt lat="49.98188" lon="2.39852">
        <ele>77.4</ele>
        <time>2022-04-20T13:51:26Z</time>
      </trkpt>
      <trkpt lat="49.98187" lon="2.39853">
        <ele>77.4</ele>
        <time>2022-04-20T13:51:27Z</time>
      </trkpt>
      <trkpt lat="49.98185" lon="2.39855">
        <ele>77.5</ele>
        <time>2022-04-20T13:51:29Z</time>
      </trkpt>
      <trkpt lat="49.98184" lon="2.39856">
        <ele>77.5</ele>
        <time>2022-04-20T13:51:30Z</time>
      </trkpt>
      <trkpt lat="49.98183" lon="2.39857">
        <ele>77.5</ele>
        <time>2022-04-20T13:51:31Z</time>
      </trkpt>
      <trkpt lat="49.98181" lon="2.39859">
        <ele>77.6</ele>
        <time>2022-04-20T13:51:32Z</time>
      </trkpt>
      <trkpt lat="49.9818" lon="2.3986">
        <ele>77.6</ele>
        <time>2022-04-20T13:51:33Z</time>
      </trkpt>
      <trkpt lat="49.98179" lon="2.39861">
        <ele>77.6</ele>
        <time>2022-04-20T13:51:34Z</time>
      </trkpt>
      <trkpt lat="49.98178" lon="2.39862">
        <ele>77.6</ele>
        <time>2022-04-20T13:51:35Z</time>
      </trkpt>
      <trkpt lat="49.98177" lon="2.39863">
        <ele>77.7</ele>
        <time>2022-04-20T13:51:36Z</time>
      </trkpt>
      <trkpt lat="49.98175" lon="2.39864">
        <ele>77.7</ele>
        <time>2022-04-20T13:51:37Z</time>
      </trkpt>
      <trkpt lat="49.98174" lon="2.39865">
        <ele>77.8</ele>
        <time>2022-04-20T13:51:38Z</time>
      </trkpt>
      <trkpt lat="49.98173" lon="2.39866">
        <ele>77.8</ele>
        <time>2022-04-20T13:51:39Z</time>
      </trkpt>
      <trkpt lat="49.98171" lon="2.39867">
        <ele>77.8</ele>
        <time>2022-04-20T13:51:40Z</time>
      </trkpt>
      <trkpt lat="49.9817" lon="2.39869">
        <ele>77.9</ele>
        <time>2022-04-20T13:51:41Z</time>
      </trkpt>
      <trkpt lat="49.98169" lon="2.3987">
        <ele>77.9</ele>
        <time>2022-04-20T13:51:42Z</time>
      </trkpt>
      <trkpt lat="49.98167" lon="2.39872">
        <ele>78</ele>
        <time>2022-04-20T13:51:43Z</time>
      </trkpt>
      <trkpt lat="49.98167" lon="2.39872">
        <ele>78</ele>
        <time>2022-04-20T13:51:44Z</time>
      </trkpt>
      <trkpt lat="49.98166" lon="2.39873">
        <ele>78</ele>
        <time>2022-04-20T13:51:45Z</time>
      </trkpt>
      <trkpt lat="49.98165" lon="2.39874">
        <ele>78</ele>
        <time>2022-04-20T13:51:47Z</time>
      </trkpt>
      <trkpt lat="49.98164" lon="2.39875">
        <ele>78</ele>
        <time>2022-04-20T13:51:48Z</time>
      </trkpt>
      <trkpt lat="49.98163" lon="2.39876">
        <ele>78.1</ele>
        <time>2022-04-20T13:51:49Z</time>
      </trkpt>
      <trkpt lat="49.98161" lon="2.39877">
        <ele>78.1</ele>
        <time>2022-04-20T13:51:50Z</time>
      </trkpt>
      <trkpt lat="49.98161" lon="2.39878">
        <ele>78.1</ele>
        <time>2022-04-20T13:51:51Z</time>
      </trkpt>
      <trkpt lat="49.9816" lon="2.39879">
        <ele>78.2</ele>
        <time>2022-04-20T13:51:52Z</time>
      </trkpt>
      <trkpt lat="49.98158" lon="2.39881">
        <ele>78.2</ele>
        <time>2022-04-20T13:51:53Z</time>
      </trkpt>
      <trkpt lat="49.98158" lon="2.39882">
        <ele>78.2</ele>
        <time>2022-04-20T13:51:54Z</time>
      </trkpt>
      <trkpt lat="49.98157" lon="2.39883">
        <ele>78.3</ele>
        <time>2022-04-20T13:51:55Z</time>
      </trkpt>
      <trkpt lat="49.98155" lon="2.39884">
        <ele>78.3</ele>
        <time>2022-04-20T13:51:57Z</time>
      </trkpt>
      <trkpt lat="49.98154" lon="2.39885">
        <ele>78.3</ele>
        <time>2022-04-20T13:51:58Z</time>
      </trkpt>
      <trkpt lat="49.98154" lon="2.39886">
        <ele>78.3</ele>
        <time>2022-04-20T13:51:59Z</time>
      </trkpt>
      <trkpt lat="49.98153" lon="2.39886">
        <ele>78.4</ele>
        <time>2022-04-20T13:52:00Z</time>
      </trkpt>
      <trkpt lat="49.98151" lon="2.39887">
        <ele>78.4</ele>
        <time>2022-04-20T13:52:01Z</time>
      </trkpt>
      <trkpt lat="49.9815" lon="2.39888">
        <ele>78.4</ele>
        <time>2022-04-20T13:52:02Z</time>
      </trkpt>
      <trkpt lat="49.98149" lon="2.39889">
        <ele>78.5</ele>
        <time>2022-04-20T13:52:03Z</time>
      </trkpt>
      <trkpt lat="49.98148" lon="2.3989">
        <ele>78.5</ele>
        <time>2022-04-20T13:52:04Z</time>
      </trkpt>
      <trkpt lat="49.98147" lon="2.3989">
        <ele>78.5</ele>
        <time>2022-04-20T13:52:05Z</time>
      </trkpt>
      <trkpt lat="49.98146" lon="2.39891">
        <ele>78.6</ele>
        <time>2022-04-20T13:52:06Z</time>
      </trkpt>
      <trkpt lat="49.98144" lon="2.39893">
        <ele>78.6</ele>
        <time>2022-04-20T13:52:07Z</time>
      </trkpt>
      <trkpt lat="49.98143" lon="2.39894">
        <ele>78.6</ele>
        <time>2022-04-20T13:52:08Z</time>
      </trkpt>
      <trkpt lat="49.98142" lon="2.39895">
        <ele>78.6</ele>
        <time>2022-04-20T13:52:09Z</time>
      </trkpt>
      <trkpt lat="49.98141" lon="2.39897">
        <ele>78.7</ele>
        <time>2022-04-20T13:52:11Z</time>
      </trkpt>
      <trkpt lat="49.9814" lon="2.39898">
        <ele>78.7</ele>
        <time>2022-04-20T13:52:12Z</time>
      </trkpt>
      <trkpt lat="49.9814" lon="2.399">
        <ele>78.7</ele>
        <time>2022-04-20T13:52:13Z</time>
      </trkpt>
      <trkpt lat="49.98139" lon="2.39901">
        <ele>78.7</ele>
        <time>2022-04-20T13:52:14Z</time>
      </trkpt>
      <trkpt lat="49.98138" lon="2.39903">
        <ele>78.8</ele>
        <time>2022-04-20T13:52:15Z</time>
      </trkpt>
      <trkpt lat="49.98137" lon="2.39905">
        <ele>78.8</ele>
        <time>2022-04-20T13:52:16Z</time>
      </trkpt>
      <trkpt lat="49.98136" lon="2.39906">
        <ele>78.8</ele>
        <time>2022-04-20T13:52:17Z</time>
      </trkpt>
      <trkpt lat="49.98135" lon="2.39908">
        <ele>78.8</ele>
        <time>2022-04-20T13:52:18Z</time>
      </trkpt>
      <trkpt lat="49.98134" lon="2.3991">
        <ele>78.9</ele>
        <time>2022-04-20T13:52:19Z</time>
      </trkpt>
      <trkpt lat="49.98133" lon="2.39911">
        <ele>78.9</ele>
        <time>2022-04-20T13:52:20Z</time>
      </trkpt>
      <trkpt lat="49.98131" lon="2.39914">
        <ele>78.9</ele>
        <time>2022-04-20T13:52:21Z</time>
      </trkpt>
      <trkpt lat="49.98131" lon="2.39915">
        <ele>79</ele>
        <time>2022-04-20T13:52:22Z</time>
      </trkpt>
      <trkpt lat="49.9813" lon="2.39916">
        <ele>79</ele>
        <time>2022-04-20T13:52:23Z</time>
      </trkpt>
      <trkpt lat="49.98129" lon="2.39917">
        <ele>79</ele>
        <time>2022-04-20T13:52:24Z</time>
      </trkpt>
      <trkpt lat="49.98129" lon="2.39919">
        <ele>79</ele>
        <time>2022-04-20T13:52:25Z</time>
      </trkpt>
      <trkpt lat="49.98128" lon="2.3992">
        <ele>79</ele>
        <time>2022-04-20T13:52:27Z</time>
      </trkpt>
      <trkpt lat="49.98126" lon="2.39923">
        <ele>79.1</ele>
        <time>2022-04-20T13:52:28Z</time>
      </trkpt>
      <trkpt lat="49.98126" lon="2.39924">
        <ele>79.1</ele>
        <time>2022-04-20T13:52:29Z</time>
      </trkpt>
      <trkpt lat="49.98125" lon="2.39925">
        <ele>79.1</ele>
        <time>2022-04-20T13:52:30Z</time>
      </trkpt>
      <trkpt lat="49.98124" lon="2.39928">
        <ele>79.1</ele>
        <time>2022-04-20T13:52:31Z</time>
      </trkpt>
      <trkpt lat="49.98124" lon="2.39929">
        <ele>79.2</ele>
        <time>2022-04-20T13:52:32Z</time>
      </trkpt>
      <trkpt lat="49.98123" lon="2.3993">
        <ele>79.2</ele>
        <time>2022-04-20T13:52:33Z</time>
      </trkpt>
      <trkpt lat="49.98122" lon="2.39933">
        <ele>79.2</ele>
        <time>2022-04-20T13:52:34Z</time>
      </trkpt>
      <trkpt lat="49.98122" lon="2.39934">
        <ele>79.2</ele>
        <time>2022-04-20T13:52:36Z</time>
      </trkpt>
      <trkpt lat="49.98121" lon="2.39935">
        <ele>79.2</ele>
        <time>2022-04-20T13:52:37Z</time>
      </trkpt>
      <trkpt lat="49.9812" lon="2.39938">
        <ele>79.3</ele>
        <time>2022-04-20T13:52:38Z</time>
      </trkpt>
      <trkpt lat="49.98119" lon="2.39939">
        <ele>79.3</ele>
        <time>2022-04-20T13:52:39Z</time>
      </trkpt>
      <trkpt lat="49.98119" lon="2.3994">
        <ele>79.3</ele>
        <time>2022-04-20T13:52:40Z</time>
      </trkpt>
      <trkpt lat="49.98118" lon="2.39941">
        <ele>79.3</ele>
        <time>2022-04-20T13:52:41Z</time>
      </trkpt>
      <trkpt lat="49.98117" lon="2.39943">
        <ele>79.4</ele>
        <time>2022-04-20T13:52:42Z</time>
      </trkpt>
      <trkpt lat="49.98116" lon="2.39945">
        <ele>79.4</ele>
        <time>2022-04-20T13:52:43Z</time>
      </trkpt>
      <trkpt lat="49.98115" lon="2.39946">
        <ele>79.4</ele>
        <time>2022-04-20T13:52:45Z</time>
      </trkpt>
      <trkpt lat="49.98115" lon="2.39948">
        <ele>79.4</ele>
        <time>2022-04-20T13:52:46Z</time>
      </trkpt>
      <trkpt lat="49.98114" lon="2.39949">
        <ele>79.4</ele>
        <time>2022-04-20T13:52:47Z</time>
      </trkpt>
      <trkpt lat="49.98113" lon="2.39951">
        <ele>79.4</ele>
        <time>2022-04-20T13:52:48Z</time>
      </trkpt>
      <trkpt lat="49.98112" lon="2.39952">
        <ele>79.5</ele>
        <time>2022-04-20T13:52:49Z</time>
      </trkpt>
      <trkpt lat="49.98112" lon="2.39953">
        <ele>79.5</ele>
        <time>2022-04-20T13:52:50Z</time>
      </trkpt>
      <trkpt lat="49.98111" lon="2.39955">
        <ele>79.5</ele>
        <time>2022-04-20T13:52:51Z</time>
      </trkpt>
      <trkpt lat="49.9811" lon="2.39956">
        <ele>79.5</ele>
        <time>2022-04-20T13:52:52Z</time>
      </trkpt>
      <trkpt lat="49.9811" lon="2.39957">
        <ele>79.5</ele>
        <time>2022-04-20T13:52:53Z</time>
      </trkpt>
      <trkpt lat="49.98109" lon="2.3996">
        <ele>79.5</ele>
        <time>2022-04-20T13:52:55Z</time>
      </trkpt>
      <trkpt lat="49.98108" lon="2.39961">
        <ele>79.5</ele>
        <time>2022-04-20T13:52:56Z</time>
      </trkpt>
      <trkpt lat="49.98107" lon="2.39963">
        <ele>79.5</ele>
        <time>2022-04-20T13:52:57Z</time>
      </trkpt>
      <trkpt lat="49.98106" lon="2.39964">
        <ele>79.5</ele>
        <time>2022-04-20T13:52:58Z</time>
      </trkpt>
      <trkpt lat="49.98106" lon="2.39965">
        <ele>79.6</ele>
        <time>2022-04-20T13:52:59Z</time>
      </trkpt>
      <trkpt lat="49.98105" lon="2.39967">
        <ele>79.6</ele>
        <time>2022-04-20T13:53:00Z</time>
      </trkpt>
      <trkpt lat="49.98104" lon="2.39968">
        <ele>79.6</ele>
        <time>2022-04-20T13:53:01Z</time>
      </trkpt>
      <trkpt lat="49.98103" lon="2.39968">
        <ele>79.6</ele>
        <time>2022-04-20T13:53:02Z</time>
      </trkpt>
      <trkpt lat="49.98103" lon="2.3997">
        <ele>79.6</ele>
        <time>2022-04-20T13:53:03Z</time>
      </trkpt>
      <trkpt lat="49.98102" lon="2.39972">
        <ele>79.6</ele>
        <time>2022-04-20T13:53:04Z</time>
      </trkpt>
      <trkpt lat="49.98101" lon="2.39974">
        <ele>79.6</ele>
        <time>2022-04-20T13:53:05Z</time>
      </trkpt>
      <trkpt lat="49.981" lon="2.39976">
        <ele>79.6</ele>
        <time>2022-04-20T13:53:07Z</time>
      </trkpt>
      <trkpt lat="49.98099" lon="2.39977">
        <ele>79.6</ele>
        <time>2022-04-20T13:53:08Z</time>
      </trkpt>
      <trkpt lat="49.98098" lon="2.39979">
        <ele>79.6</ele>
        <time>2022-04-20T13:53:09Z</time>
      </trkpt>
      <trkpt lat="49.98097" lon="2.3998">
        <ele>79.6</ele>
        <time>2022-04-20T13:53:10Z</time>
      </trkpt>
      <trkpt lat="49.98097" lon="2.39982">
        <ele>79.5</ele>
        <time>2022-04-20T13:53:11Z</time>
      </trkpt>
      <trkpt lat="49.98096" lon="2.39983">
        <ele>79.5</ele>
        <time>2022-04-20T13:53:12Z</time>
      </trkpt>
      <trkpt lat="49.98095" lon="2.39985">
        <ele>79.5</ele>
        <time>2022-04-20T13:53:13Z</time>
      </trkpt>
      <trkpt lat="49.98094" lon="2.39986">
        <ele>79.5</ele>
        <time>2022-04-20T13:53:14Z</time>
      </trkpt>
      <trkpt lat="49.98093" lon="2.39988">
        <ele>79.5</ele>
        <time>2022-04-20T13:53:15Z</time>
      </trkpt>
      <trkpt lat="49.98093" lon="2.39989">
        <ele>79.5</ele>
        <time>2022-04-20T13:53:16Z</time>
      </trkpt>
      <trkpt lat="49.98092" lon="2.39991">
        <ele>79.5</ele>
        <time>2022-04-20T13:53:17Z</time>
      </trkpt>
      <trkpt lat="49.9809" lon="2.39995">
        <ele>79.5</ele>
        <time>2022-04-20T13:53:19Z</time>
      </trkpt>
      <trkpt lat="49.98089" lon="2.39996">
        <ele>79.5</ele>
        <time>2022-04-20T13:53:21Z</time>
      </trkpt>
      <trkpt lat="49.98088" lon="2.39999">
        <ele>79.5</ele>
        <time>2022-04-20T13:53:22Z</time>
      </trkpt>
      <trkpt lat="49.98087" lon="2.40001">
        <ele>79.5</ele>
        <time>2022-04-20T13:53:23Z</time>
      </trkpt>
      <trkpt lat="49.98086" lon="2.40003">
        <ele>79.5</ele>
        <time>2022-04-20T13:53:24Z</time>
      </trkpt>
      <trkpt lat="49.98085" lon="2.40005">
        <ele>79.5</ele>
        <time>2022-04-20T13:53:26Z</time>
      </trkpt>
      <trkpt lat="49.98084" lon="2.40007">
        <ele>79.5</ele>
        <time>2022-04-20T13:53:27Z</time>
      </trkpt>
      <trkpt lat="49.98084" lon="2.40008">
        <ele>79.5</ele>
        <time>2022-04-20T13:53:28Z</time>
      </trkpt>
      <trkpt lat="49.98083" lon="2.40009">
        <ele>79.5</ele>
        <time>2022-04-20T13:53:29Z</time>
      </trkpt>
      <trkpt lat="49.98082" lon="2.4001">
        <ele>79.5</ele>
        <time>2022-04-20T13:53:30Z</time>
      </trkpt>
      <trkpt lat="49.98082" lon="2.40011">
        <ele>79.4</ele>
        <time>2022-04-20T13:53:31Z</time>
      </trkpt>
      <trkpt lat="49.98081" lon="2.40012">
        <ele>79.4</ele>
        <time>2022-04-20T13:53:32Z</time>
      </trkpt>
      <trkpt lat="49.9808" lon="2.40014">
        <ele>79.4</ele>
        <time>2022-04-20T13:53:33Z</time>
      </trkpt>
      <trkpt lat="49.98078" lon="2.40017">
        <ele>79.4</ele>
        <time>2022-04-20T13:53:34Z</time>
      </trkpt>
      <trkpt lat="49.98078" lon="2.40019">
        <ele>79.4</ele>
        <time>2022-04-20T13:53:36Z</time>
      </trkpt>
      <trkpt lat="49.98077" lon="2.4002">
        <ele>79.4</ele>
        <time>2022-04-20T13:53:37Z</time>
      </trkpt>
      <trkpt lat="49.98077" lon="2.40022">
        <ele>79.4</ele>
        <time>2022-04-20T13:53:38Z</time>
      </trkpt>
      <trkpt lat="49.98076" lon="2.40024">
        <ele>79.4</ele>
        <time>2022-04-20T13:53:39Z</time>
      </trkpt>
      <trkpt lat="49.98075" lon="2.40025">
        <ele>79.4</ele>
        <time>2022-04-20T13:53:40Z</time>
      </trkpt>
      <trkpt lat="49.98074" lon="2.40027">
        <ele>79.4</ele>
        <time>2022-04-20T13:53:41Z</time>
      </trkpt>
      <trkpt lat="49.98073" lon="2.40029">
        <ele>79.4</ele>
        <time>2022-04-20T13:53:42Z</time>
      </trkpt>
      <trkpt lat="49.98071" lon="2.40032">
        <ele>79.4</ele>
        <time>2022-04-20T13:53:44Z</time>
      </trkpt>
      <trkpt lat="49.9807" lon="2.40034">
        <ele>79.4</ele>
        <time>2022-04-20T13:53:45Z</time>
      </trkpt>
      <trkpt lat="49.98069" lon="2.40035">
        <ele>79.4</ele>
        <time>2022-04-20T13:53:46Z</time>
      </trkpt>
      <trkpt lat="49.98069" lon="2.40036">
        <ele>79.4</ele>
        <time>2022-04-20T13:53:47Z</time>
      </trkpt>
      <trkpt lat="49.98067" lon="2.40038">
        <ele>79.5</ele>
        <time>2022-04-20T13:53:48Z</time>
      </trkpt>
      <trkpt lat="49.98067" lon="2.40039">
        <ele>79.5</ele>
        <time>2022-04-20T13:53:49Z</time>
      </trkpt>
      <trkpt lat="49.98066" lon="2.4004">
        <ele>79.5</ele>
        <time>2022-04-20T13:53:50Z</time>
      </trkpt>
      <trkpt lat="49.98064" lon="2.40043">
        <ele>79.5</ele>
        <time>2022-04-20T13:53:51Z</time>
      </trkpt>
      <trkpt lat="49.98064" lon="2.40044">
        <ele>79.5</ele>
        <time>2022-04-20T13:53:53Z</time>
      </trkpt>
      <trkpt lat="49.98063" lon="2.40046">
        <ele>79.5</ele>
        <time>2022-04-20T13:53:54Z</time>
      </trkpt>
      <trkpt lat="49.98062" lon="2.40047">
        <ele>79.5</ele>
        <time>2022-04-20T13:53:55Z</time>
      </trkpt>
      <trkpt lat="49.98062" lon="2.40049">
        <ele>79.5</ele>
        <time>2022-04-20T13:53:56Z</time>
      </trkpt>
      <trkpt lat="49.9806" lon="2.40051">
        <ele>79.5</ele>
        <time>2022-04-20T13:53:57Z</time>
      </trkpt>
      <trkpt lat="49.98059" lon="2.40052">
        <ele>79.5</ele>
        <time>2022-04-20T13:53:58Z</time>
      </trkpt>
      <trkpt lat="49.98059" lon="2.40053">
        <ele>79.5</ele>
        <time>2022-04-20T13:53:59Z</time>
      </trkpt>
      <trkpt lat="49.98058" lon="2.40054">
        <ele>79.5</ele>
        <time>2022-04-20T13:54:00Z</time>
      </trkpt>
      <trkpt lat="49.98057" lon="2.40055">
        <ele>79.5</ele>
        <time>2022-04-20T13:54:01Z</time>
      </trkpt>
      <trkpt lat="49.98056" lon="2.40057">
        <ele>79.5</ele>
        <time>2022-04-20T13:54:03Z</time>
      </trkpt>
      <trkpt lat="49.98055" lon="2.40059">
        <ele>79.6</ele>
        <time>2022-04-20T13:54:04Z</time>
      </trkpt>
      <trkpt lat="49.98054" lon="2.4006">
        <ele>79.6</ele>
        <time>2022-04-20T13:54:05Z</time>
      </trkpt>
      <trkpt lat="49.98053" lon="2.40062">
        <ele>79.6</ele>
        <time>2022-04-20T13:54:06Z</time>
      </trkpt>
      <trkpt lat="49.98052" lon="2.40063">
        <ele>79.6</ele>
        <time>2022-04-20T13:54:07Z</time>
      </trkpt>
      <trkpt lat="49.9805" lon="2.40066">
        <ele>79.6</ele>
        <time>2022-04-20T13:54:08Z</time>
      </trkpt>
      <trkpt lat="49.9805" lon="2.40067">
        <ele>79.6</ele>
        <time>2022-04-20T13:54:09Z</time>
      </trkpt>
      <trkpt lat="49.98049" lon="2.40068">
        <ele>79.6</ele>
        <time>2022-04-20T13:54:10Z</time>
      </trkpt>
      <trkpt lat="49.98048" lon="2.40069">
        <ele>79.6</ele>
        <time>2022-04-20T13:54:11Z</time>
      </trkpt>
      <trkpt lat="49.98047" lon="2.40071">
        <ele>79.7</ele>
        <time>2022-04-20T13:54:12Z</time>
      </trkpt>
      <trkpt lat="49.98046" lon="2.40073">
        <ele>79.7</ele>
        <time>2022-04-20T13:54:13Z</time>
      </trkpt>
      <trkpt lat="49.98045" lon="2.40074">
        <ele>79.7</ele>
        <time>2022-04-20T13:54:14Z</time>
      </trkpt>
      <trkpt lat="49.98044" lon="2.40076">
        <ele>79.7</ele>
        <time>2022-04-20T13:54:15Z</time>
      </trkpt>
      <trkpt lat="49.98043" lon="2.40078">
        <ele>79.7</ele>
        <time>2022-04-20T13:54:16Z</time>
      </trkpt>
      <trkpt lat="49.98042" lon="2.40079">
        <ele>79.8</ele>
        <time>2022-04-20T13:54:17Z</time>
      </trkpt>
      <trkpt lat="49.9804" lon="2.4008">
        <ele>79.8</ele>
        <time>2022-04-20T13:54:18Z</time>
      </trkpt>
      <trkpt lat="49.98039" lon="2.40082">
        <ele>79.8</ele>
        <time>2022-04-20T13:54:19Z</time>
      </trkpt>
      <trkpt lat="49.98038" lon="2.40083">
        <ele>79.8</ele>
        <time>2022-04-20T13:54:20Z</time>
      </trkpt>
      <trkpt lat="49.98038" lon="2.40084">
        <ele>79.8</ele>
        <time>2022-04-20T13:54:22Z</time>
      </trkpt>
      <trkpt lat="49.98036" lon="2.40085">
        <ele>79.8</ele>
        <time>2022-04-20T13:54:23Z</time>
      </trkpt>
      <trkpt lat="49.98035" lon="2.40087">
        <ele>79.9</ele>
        <time>2022-04-20T13:54:24Z</time>
      </trkpt>
      <trkpt lat="49.98034" lon="2.40089">
        <ele>79.9</ele>
        <time>2022-04-20T13:54:25Z</time>
      </trkpt>
      <trkpt lat="49.98033" lon="2.40091">
        <ele>79.9</ele>
        <time>2022-04-20T13:54:26Z</time>
      </trkpt>
      <trkpt lat="49.98032" lon="2.40093">
        <ele>80</ele>
        <time>2022-04-20T13:54:27Z</time>
      </trkpt>
      <trkpt lat="49.98031" lon="2.40094">
        <ele>80</ele>
        <time>2022-04-20T13:54:28Z</time>
      </trkpt>
      <trkpt lat="49.9803" lon="2.40095">
        <ele>80</ele>
        <time>2022-04-20T13:54:29Z</time>
      </trkpt>
      <trkpt lat="49.9803" lon="2.40097">
        <ele>80</ele>
        <time>2022-04-20T13:54:30Z</time>
      </trkpt>
      <trkpt lat="49.98029" lon="2.40098">
        <ele>80</ele>
        <time>2022-04-20T13:54:31Z</time>
      </trkpt>
      <trkpt lat="49.98028" lon="2.401">
        <ele>80.1</ele>
        <time>2022-04-20T13:54:33Z</time>
      </trkpt>
      <trkpt lat="49.98027" lon="2.40103">
        <ele>80.1</ele>
        <time>2022-04-20T13:54:34Z</time>
      </trkpt>
      <trkpt lat="49.98026" lon="2.40104">
        <ele>80.1</ele>
        <time>2022-04-20T13:54:35Z</time>
      </trkpt>
      <trkpt lat="49.98026" lon="2.40105">
        <ele>80.1</ele>
        <time>2022-04-20T13:54:36Z</time>
      </trkpt>
      <trkpt lat="49.98025" lon="2.40106">
        <ele>80.1</ele>
        <time>2022-04-20T13:54:37Z</time>
      </trkpt>
      <trkpt lat="49.98024" lon="2.40107">
        <ele>80.2</ele>
        <time>2022-04-20T13:54:38Z</time>
      </trkpt>
      <trkpt lat="49.98024" lon="2.40108">
        <ele>80.2</ele>
        <time>2022-04-20T13:54:39Z</time>
      </trkpt>
      <trkpt lat="49.98022" lon="2.40111">
        <ele>80.2</ele>
        <time>2022-04-20T13:54:40Z</time>
      </trkpt>
      <trkpt lat="49.98021" lon="2.40112">
        <ele>80.2</ele>
        <time>2022-04-20T13:54:42Z</time>
      </trkpt>
      <trkpt lat="49.9802" lon="2.40113">
        <ele>80.3</ele>
        <time>2022-04-20T13:54:43Z</time>
      </trkpt>
      <trkpt lat="49.9802" lon="2.40115">
        <ele>80.3</ele>
        <time>2022-04-20T13:54:44Z</time>
      </trkpt>
      <trkpt lat="49.98019" lon="2.40116">
        <ele>80.3</ele>
        <time>2022-04-20T13:54:45Z</time>
      </trkpt>
      <trkpt lat="49.98017" lon="2.40119">
        <ele>80.4</ele>
        <time>2022-04-20T13:54:46Z</time>
      </trkpt>
      <trkpt lat="49.98017" lon="2.4012">
        <ele>80.4</ele>
        <time>2022-04-20T13:54:47Z</time>
      </trkpt>
      <trkpt lat="49.98016" lon="2.40121">
        <ele>80.4</ele>
        <time>2022-04-20T13:54:48Z</time>
      </trkpt>
      <trkpt lat="49.98015" lon="2.40122">
        <ele>80.4</ele>
        <time>2022-04-20T13:54:49Z</time>
      </trkpt>
      <trkpt lat="49.98014" lon="2.40124">
        <ele>80.4</ele>
        <time>2022-04-20T13:54:50Z</time>
      </trkpt>
      <trkpt lat="49.98013" lon="2.40126">
        <ele>80.5</ele>
        <time>2022-04-20T13:54:51Z</time>
      </trkpt>
      <trkpt lat="49.98012" lon="2.40127">
        <ele>80.5</ele>
        <time>2022-04-20T13:54:52Z</time>
      </trkpt>
      <trkpt lat="49.98011" lon="2.4013">
        <ele>80.5</ele>
        <time>2022-04-20T13:54:53Z</time>
      </trkpt>
      <trkpt lat="49.9801" lon="2.4013">
        <ele>80.5</ele>
        <time>2022-04-20T13:54:54Z</time>
      </trkpt>
      <trkpt lat="49.9801" lon="2.40131">
        <ele>80.6</ele>
        <time>2022-04-20T13:54:55Z</time>
      </trkpt>
      <trkpt lat="49.98008" lon="2.40134">
        <ele>80.6</ele>
        <time>2022-04-20T13:54:57Z</time>
      </trkpt>
      <trkpt lat="49.98008" lon="2.40135">
        <ele>80.6</ele>
        <time>2022-04-20T13:54:58Z</time>
      </trkpt>
      <trkpt lat="49.98007" lon="2.40136">
        <ele>80.6</ele>
        <time>2022-04-20T13:54:59Z</time>
      </trkpt>
      <trkpt lat="49.98006" lon="2.40137">
        <ele>80.7</ele>
        <time>2022-04-20T13:55:00Z</time>
      </trkpt>
      <trkpt lat="49.98006" lon="2.40138">
        <ele>80.7</ele>
        <time>2022-04-20T13:55:01Z</time>
      </trkpt>
      <trkpt lat="49.98005" lon="2.4014">
        <ele>80.7</ele>
        <time>2022-04-20T13:55:02Z</time>
      </trkpt>
      <trkpt lat="49.98003" lon="2.40142">
        <ele>80.8</ele>
        <time>2022-04-20T13:55:03Z</time>
      </trkpt>
      <trkpt lat="49.98003" lon="2.40143">
        <ele>80.8</ele>
        <time>2022-04-20T13:55:04Z</time>
      </trkpt>
      <trkpt lat="49.98002" lon="2.40144">
        <ele>80.8</ele>
        <time>2022-04-20T13:55:05Z</time>
      </trkpt>
      <trkpt lat="49.98002" lon="2.40145">
        <ele>80.8</ele>
        <time>2022-04-20T13:55:06Z</time>
      </trkpt>
      <trkpt lat="49.98001" lon="2.40146">
        <ele>80.8</ele>
        <time>2022-04-20T13:55:08Z</time>
      </trkpt>
      <trkpt lat="49.98" lon="2.40148">
        <ele>80.9</ele>
        <time>2022-04-20T13:55:09Z</time>
      </trkpt>
      <trkpt lat="49.97999" lon="2.4015">
        <ele>80.9</ele>
        <time>2022-04-20T13:55:10Z</time>
      </trkpt>
      <trkpt lat="49.97998" lon="2.40151">
        <ele>80.9</ele>
        <time>2022-04-20T13:55:11Z</time>
      </trkpt>
      <trkpt lat="49.97997" lon="2.40152">
        <ele>81</ele>
        <time>2022-04-20T13:55:12Z</time>
      </trkpt>
      <trkpt lat="49.97996" lon="2.40155">
        <ele>81</ele>
        <time>2022-04-20T13:55:13Z</time>
      </trkpt>
      <trkpt lat="49.97996" lon="2.40156">
        <ele>81</ele>
        <time>2022-04-20T13:55:14Z</time>
      </trkpt>
      <trkpt lat="49.97995" lon="2.40157">
        <ele>81</ele>
        <time>2022-04-20T13:55:15Z</time>
      </trkpt>
      <trkpt lat="49.97994" lon="2.40158">
        <ele>81.1</ele>
        <time>2022-04-20T13:55:16Z</time>
      </trkpt>
      <trkpt lat="49.97994" lon="2.4016">
        <ele>81.1</ele>
        <time>2022-04-20T13:55:17Z</time>
      </trkpt>
      <trkpt lat="49.97993" lon="2.40162">
        <ele>81.1</ele>
        <time>2022-04-20T13:55:18Z</time>
      </trkpt>
      <trkpt lat="49.97992" lon="2.40163">
        <ele>81.1</ele>
        <time>2022-04-20T13:55:19Z</time>
      </trkpt>
      <trkpt lat="49.97992" lon="2.40164">
        <ele>81.2</ele>
        <time>2022-04-20T13:55:20Z</time>
      </trkpt>
      <trkpt lat="49.97991" lon="2.40167">
        <ele>81.2</ele>
        <time>2022-04-20T13:55:21Z</time>
      </trkpt>
      <trkpt lat="49.9799" lon="2.40168">
        <ele>81.2</ele>
        <time>2022-04-20T13:55:23Z</time>
      </trkpt>
      <trkpt lat="49.9799" lon="2.40169">
        <ele>81.2</ele>
        <time>2022-04-20T13:55:24Z</time>
      </trkpt>
      <trkpt lat="49.97989" lon="2.40173">
        <ele>81.3</ele>
        <time>2022-04-20T13:55:25Z</time>
      </trkpt>
      <trkpt lat="49.97989" lon="2.40174">
        <ele>81.3</ele>
        <time>2022-04-20T13:55:26Z</time>
      </trkpt>
      <trkpt lat="49.97989" lon="2.40175">
        <ele>81.3</ele>
        <time>2022-04-20T13:55:27Z</time>
      </trkpt>
      <trkpt lat="49.97988" lon="2.40177">
        <ele>81.3</ele>
        <time>2022-04-20T13:55:28Z</time>
      </trkpt>
      <trkpt lat="49.97988" lon="2.40179">
        <ele>81.3</ele>
        <time>2022-04-20T13:55:29Z</time>
      </trkpt>
      <trkpt lat="49.97987" lon="2.4018">
        <ele>81.3</ele>
        <time>2022-04-20T13:55:30Z</time>
      </trkpt>
      <trkpt lat="49.97986" lon="2.40184">
        <ele>81.3</ele>
        <time>2022-04-20T13:55:31Z</time>
      </trkpt>
      <trkpt lat="49.97986" lon="2.40185">
        <ele>81.4</ele>
        <time>2022-04-20T13:55:32Z</time>
      </trkpt>
      <trkpt lat="49.97986" lon="2.40186">
        <ele>81.4</ele>
        <time>2022-04-20T13:55:34Z</time>
      </trkpt>
      <trkpt lat="49.97986" lon="2.40188">
        <ele>81.4</ele>
        <time>2022-04-20T13:55:35Z</time>
      </trkpt>
      <trkpt lat="49.97985" lon="2.40189">
        <ele>81.4</ele>
        <time>2022-04-20T13:55:36Z</time>
      </trkpt>
      <trkpt lat="49.97985" lon="2.40191">
        <ele>81.4</ele>
        <time>2022-04-20T13:55:37Z</time>
      </trkpt>
      <trkpt lat="49.97984" lon="2.40194">
        <ele>81.4</ele>
        <time>2022-04-20T13:55:38Z</time>
      </trkpt>
      <trkpt lat="49.97984" lon="2.40196">
        <ele>81.4</ele>
        <time>2022-04-20T13:55:40Z</time>
      </trkpt>
      <trkpt lat="49.97983" lon="2.40198">
        <ele>81.3</ele>
        <time>2022-04-20T13:55:41Z</time>
      </trkpt>
      <trkpt lat="49.97983" lon="2.40199">
        <ele>81.3</ele>
        <time>2022-04-20T13:55:42Z</time>
      </trkpt>
      <trkpt lat="49.97982" lon="2.40201">
        <ele>81.3</ele>
        <time>2022-04-20T13:55:43Z</time>
      </trkpt>
      <trkpt lat="49.97982" lon="2.40203">
        <ele>81.3</ele>
        <time>2022-04-20T13:55:44Z</time>
      </trkpt>
      <trkpt lat="49.97981" lon="2.40205">
        <ele>81.3</ele>
        <time>2022-04-20T13:55:45Z</time>
      </trkpt>
      <trkpt lat="49.9798" lon="2.40206">
        <ele>81.3</ele>
        <time>2022-04-20T13:55:46Z</time>
      </trkpt>
      <trkpt lat="49.9798" lon="2.40209">
        <ele>81.3</ele>
        <time>2022-04-20T13:55:48Z</time>
      </trkpt>
      <trkpt lat="49.97979" lon="2.4021">
        <ele>81.3</ele>
        <time>2022-04-20T13:55:49Z</time>
      </trkpt>
      <trkpt lat="49.97979" lon="2.40211">
        <ele>81.3</ele>
        <time>2022-04-20T13:55:50Z</time>
      </trkpt>
      <trkpt lat="49.97979" lon="2.40212">
        <ele>81.3</ele>
        <time>2022-04-20T13:55:51Z</time>
      </trkpt>
      <trkpt lat="49.97978" lon="2.40213">
        <ele>81.2</ele>
        <time>2022-04-20T13:55:52Z</time>
      </trkpt>
      <trkpt lat="49.97978" lon="2.40214">
        <ele>81.2</ele>
        <time>2022-04-20T13:55:53Z</time>
      </trkpt>
      <trkpt lat="49.97977" lon="2.40216">
        <ele>81.2</ele>
        <time>2022-04-20T13:55:54Z</time>
      </trkpt>
      <trkpt lat="49.97977" lon="2.40217">
        <ele>81.2</ele>
        <time>2022-04-20T13:55:55Z</time>
      </trkpt>
      <trkpt lat="49.97976" lon="2.40218">
        <ele>81.2</ele>
        <time>2022-04-20T13:55:57Z</time>
      </trkpt>
      <trkpt lat="49.97976" lon="2.4022">
        <ele>81.2</ele>
        <time>2022-04-20T13:55:58Z</time>
      </trkpt>
      <trkpt lat="49.97975" lon="2.40221">
        <ele>81.2</ele>
        <time>2022-04-20T13:55:59Z</time>
      </trkpt>
      <trkpt lat="49.97975" lon="2.40222">
        <ele>81.1</ele>
        <time>2022-04-20T13:56:00Z</time>
      </trkpt>
      <trkpt lat="49.97975" lon="2.40223">
        <ele>81.1</ele>
        <time>2022-04-20T13:56:01Z</time>
      </trkpt>
      <trkpt lat="49.97974" lon="2.40224">
        <ele>81.1</ele>
        <time>2022-04-20T13:56:02Z</time>
      </trkpt>
      <trkpt lat="49.97974" lon="2.40225">
        <ele>81.1</ele>
        <time>2022-04-20T13:56:03Z</time>
      </trkpt>
      <trkpt lat="49.97973" lon="2.40228">
        <ele>81.1</ele>
        <time>2022-04-20T13:56:05Z</time>
      </trkpt>
      <trkpt lat="49.97972" lon="2.40229">
        <ele>81</ele>
        <time>2022-04-20T13:56:06Z</time>
      </trkpt>
      <trkpt lat="49.97971" lon="2.4023">
        <ele>81</ele>
        <time>2022-04-20T13:56:07Z</time>
      </trkpt>
      <trkpt lat="49.97971" lon="2.40231">
        <ele>81</ele>
        <time>2022-04-20T13:56:08Z</time>
      </trkpt>
      <trkpt lat="49.9797" lon="2.40233">
        <ele>81</ele>
        <time>2022-04-20T13:56:09Z</time>
      </trkpt>
      <trkpt lat="49.97969" lon="2.40235">
        <ele>80.9</ele>
        <time>2022-04-20T13:56:10Z</time>
      </trkpt>
      <trkpt lat="49.97968" lon="2.40236">
        <ele>80.9</ele>
        <time>2022-04-20T13:56:11Z</time>
      </trkpt>
      <trkpt lat="49.97968" lon="2.40237">
        <ele>80.9</ele>
        <time>2022-04-20T13:56:12Z</time>
      </trkpt>
      <trkpt lat="49.97967" lon="2.40238">
        <ele>80.9</ele>
        <time>2022-04-20T13:56:13Z</time>
      </trkpt>
      <trkpt lat="49.97967" lon="2.4024">
        <ele>80.8</ele>
        <time>2022-04-20T13:56:14Z</time>
      </trkpt>
      <trkpt lat="49.97966" lon="2.40242">
        <ele>80.8</ele>
        <time>2022-04-20T13:56:15Z</time>
      </trkpt>
      <trkpt lat="49.97965" lon="2.40244">
        <ele>80.8</ele>
        <time>2022-04-20T13:56:16Z</time>
      </trkpt>
      <trkpt lat="49.97965" lon="2.40246">
        <ele>80.7</ele>
        <time>2022-04-20T13:56:17Z</time>
      </trkpt>
      <trkpt lat="49.97965" lon="2.40248">
        <ele>80.7</ele>
        <time>2022-04-20T13:56:18Z</time>
      </trkpt>
      <trkpt lat="49.97964" lon="2.40251">
        <ele>80.7</ele>
        <time>2022-04-20T13:56:20Z</time>
      </trkpt>
      <trkpt lat="49.97964" lon="2.40253">
        <ele>80.7</ele>
        <time>2022-04-20T13:56:21Z</time>
      </trkpt>
      <trkpt lat="49.97963" lon="2.40254">
        <ele>80.7</ele>
        <time>2022-04-20T13:56:22Z</time>
      </trkpt>
      <trkpt lat="49.97963" lon="2.40256">
        <ele>80.7</ele>
        <time>2022-04-20T13:56:23Z</time>
      </trkpt>
      <trkpt lat="49.97962" lon="2.40257">
        <ele>80.7</ele>
        <time>2022-04-20T13:56:24Z</time>
      </trkpt>
      <trkpt lat="49.97962" lon="2.40259">
        <ele>80.7</ele>
        <time>2022-04-20T13:56:25Z</time>
      </trkpt>
      <trkpt lat="49.9796" lon="2.40261">
        <ele>80.7</ele>
        <time>2022-04-20T13:56:27Z</time>
      </trkpt>
      <trkpt lat="49.9796" lon="2.40262">
        <ele>80.7</ele>
        <time>2022-04-20T13:56:28Z</time>
      </trkpt>
      <trkpt lat="49.97959" lon="2.40263">
        <ele>80.7</ele>
        <time>2022-04-20T13:56:29Z</time>
      </trkpt>
      <trkpt lat="49.97958" lon="2.40263">
        <ele>80.7</ele>
        <time>2022-04-20T13:56:31Z</time>
      </trkpt>
      <trkpt lat="49.97957" lon="2.40264">
        <ele>80.7</ele>
        <time>2022-04-20T13:56:32Z</time>
      </trkpt>
      <trkpt lat="49.97957" lon="2.40265">
        <ele>80.7</ele>
        <time>2022-04-20T13:56:33Z</time>
      </trkpt>
      <trkpt lat="49.97957" lon="2.40265">
        <ele>80.7</ele>
        <time>2022-04-20T13:56:34Z</time>
      </trkpt>
      <trkpt lat="49.97958" lon="2.40266">
        <ele>80.7</ele>
        <time>2022-04-20T13:56:35Z</time>
      </trkpt>
      <trkpt lat="49.97958" lon="2.40267">
        <ele>80.7</ele>
        <time>2022-04-20T13:56:36Z</time>
      </trkpt>
      <trkpt lat="49.97958" lon="2.40268">
        <ele>80.6</ele>
        <time>2022-04-20T13:56:38Z</time>
      </trkpt>
      <trkpt lat="49.97958" lon="2.40268">
        <ele>80.6</ele>
        <time>2022-04-20T13:56:39Z</time>
      </trkpt>
      <trkpt lat="49.97957" lon="2.40269">
        <ele>80.6</ele>
        <time>2022-04-20T13:56:41Z</time>
      </trkpt>
      <trkpt lat="49.97957" lon="2.40269">
        <ele>80.6</ele>
        <time>2022-04-20T13:56:42Z</time>
      </trkpt>
      <trkpt lat="49.97957" lon="2.40268">
        <ele>80.6</ele>
        <time>2022-04-20T13:56:43Z</time>
      </trkpt>
      <trkpt lat="49.97957" lon="2.40268">
        <ele>80.6</ele>
        <time>2022-04-20T13:56:44Z</time>
      </trkpt>
      <trkpt lat="49.97956" lon="2.40267">
        <ele>80.6</ele>
        <time>2022-04-20T13:56:45Z</time>
      </trkpt>
      <trkpt lat="49.97956" lon="2.40266">
        <ele>80.6</ele>
        <time>2022-04-20T13:56:46Z</time>
      </trkpt>
      <trkpt lat="49.97956" lon="2.40266">
        <ele>80.6</ele>
        <time>2022-04-20T13:56:47Z</time>
      </trkpt>
      <trkpt lat="49.97956" lon="2.40266">
        <ele>80.6</ele>
        <time>2022-04-20T13:56:48Z</time>
      </trkpt>
      <trkpt lat="49.97956" lon="2.40265">
        <ele>80.6</ele>
        <time>2022-04-20T13:56:49Z</time>
      </trkpt>
      <trkpt lat="49.97956" lon="2.40265">
        <ele>80.6</ele>
        <time>2022-04-20T13:56:50Z</time>
      </trkpt>
      <trkpt lat="49.97956" lon="2.40265">
        <ele>80.6</ele>
        <time>2022-04-20T13:56:51Z</time>
      </trkpt>
      <trkpt lat="49.97956" lon="2.40265">
        <ele>80.6</ele>
        <time>2022-04-20T13:56:52Z</time>
      </trkpt>
      <trkpt lat="49.97956" lon="2.40265">
        <ele>80.6</ele>
        <time>2022-04-20T13:56:53Z</time>
      </trkpt>
      <trkpt lat="49.97956" lon="2.40265">
        <ele>80.6</ele>
        <time>2022-04-20T13:56:54Z</time>
      </trkpt>
      <trkpt lat="49.97956" lon="2.40265">
        <ele>80.6</ele>
        <time>2022-04-20T13:56:55Z</time>
      </trkpt>
      <trkpt lat="49.97955" lon="2.40265">
        <ele>80.6</ele>
        <time>2022-04-20T13:56:56Z</time>
      </trkpt>
      <trkpt lat="49.97955" lon="2.40265">
        <ele>80.6</ele>
        <time>2022-04-20T13:56:57Z</time>
      </trkpt>
      <trkpt lat="49.97955" lon="2.40265">
        <ele>80.6</ele>
        <time>2022-04-20T13:56:58Z</time>
      </trkpt>
      <trkpt lat="49.97956" lon="2.40265">
        <ele>80.6</ele>
        <time>2022-04-20T13:56:59Z</time>
      </trkpt>
      <trkpt lat="49.97956" lon="2.40265">
        <ele>80.5</ele>
        <time>2022-04-20T13:57:00Z</time>
      </trkpt>
      <trkpt lat="49.97956" lon="2.40265">
        <ele>80.5</ele>
        <time>2022-04-20T13:57:01Z</time>
      </trkpt>
      <trkpt lat="49.97956" lon="2.40265">
        <ele>80.5</ele>
        <time>2022-04-20T13:57:02Z</time>
      </trkpt>
      <trkpt lat="49.97956" lon="2.40265">
        <ele>80.5</ele>
        <time>2022-04-20T13:57:03Z</time>
      </trkpt>
      <trkpt lat="49.97956" lon="2.40265">
        <ele>80.5</ele>
        <time>2022-04-20T13:57:04Z</time>
      </trkpt>
      <trkpt lat="49.97956" lon="2.40265">
        <ele>80.5</ele>
        <time>2022-04-20T13:57:05Z</time>
      </trkpt>
      <trkpt lat="49.97956" lon="2.40265">
        <ele>80.5</ele>
        <time>2022-04-20T13:57:06Z</time>
      </trkpt>
      <trkpt lat="49.97956" lon="2.40265">
        <ele>80.5</ele>
        <time>2022-04-20T13:57:07Z</time>
      </trkpt>
      <trkpt lat="49.97956" lon="2.40265">
        <ele>80.5</ele>
        <time>2022-04-20T13:57:08Z</time>
      </trkpt>
      <trkpt lat="49.97956" lon="2.40265">
        <ele>80.5</ele>
        <time>2022-04-20T13:57:09Z</time>
      </trkpt>
      <trkpt lat="49.97956" lon="2.40265">
        <ele>80.5</ele>
        <time>2022-04-20T13:57:10Z</time>
      </trkpt>
      <trkpt lat="49.97956" lon="2.40265">
        <ele>80.5</ele>
        <time>2022-04-20T13:57:11Z</time>
      </trkpt>
      <trkpt lat="49.97956" lon="2.40265">
        <ele>80.5</ele>
        <time>2022-04-20T13:57:12Z</time>
      </trkpt>
      <trkpt lat="49.97956" lon="2.40265">
        <ele>80.5</ele>
        <time>2022-04-20T13:57:13Z</time>
      </trkpt>
      <trkpt lat="49.97956" lon="2.40265">
        <ele>80.5</ele>
        <time>2022-04-20T13:57:14Z</time>
      </trkpt>
      <trkpt lat="49.97956" lon="2.40265">
        <ele>80.5</ele>
        <time>2022-04-20T13:57:15Z</time>
      </trkpt>
      <trkpt lat="49.97956" lon="2.40265">
        <ele>80.5</ele>
        <time>2022-04-20T13:57:16Z</time>
      </trkpt>
      <trkpt lat="49.97956" lon="2.40265">
        <ele>80.5</ele>
        <time>2022-04-20T13:57:17Z</time>
      </trkpt>
      <trkpt lat="49.97956" lon="2.40265">
        <ele>80.5</ele>
        <time>2022-04-20T13:57:18Z</time>
      </trkpt>
      <trkpt lat="49.97956" lon="2.40265">
        <ele>80.5</ele>
        <time>2022-04-20T13:57:19Z</time>
      </trkpt>
      <trkpt lat="49.97956" lon="2.40265">
        <ele>80.5</ele>
        <time>2022-04-20T13:57:20Z</time>
      </trkpt>
      <trkpt lat="49.97956" lon="2.40265">
        <ele>80.5</ele>
        <time>2022-04-20T13:57:21Z</time>
      </trkpt>
      <trkpt lat="49.97956" lon="2.40265">
        <ele>80.5</ele>
        <time>2022-04-20T13:57:22Z</time>
      </trkpt>
      <trkpt lat="49.97956" lon="2.40265">
        <ele>80.5</ele>
        <time>2022-04-20T13:57:23Z</time>
      </trkpt>
      <trkpt lat="49.97956" lon="2.40265">
        <ele>80.5</ele>
        <time>2022-04-20T13:57:24Z</time>
      </trkpt>
      <trkpt lat="49.97956" lon="2.40265">
        <ele>80.5</ele>
        <time>2022-04-20T13:57:25Z</time>
      </trkpt>
      <trkpt lat="49.97956" lon="2.40265">
        <ele>80.5</ele>
        <time>2022-04-20T13:57:26Z</time>
      </trkpt>
      <trkpt lat="49.97956" lon="2.40265">
        <ele>80.5</ele>
        <time>2022-04-20T13:57:27Z</time>
      </trkpt>
      <trkpt lat="49.97956" lon="2.40265">
        <ele>80.5</ele>
        <time>2022-04-20T13:57:28Z</time>
      </trkpt>
      <trkpt lat="49.97956" lon="2.40265">
        <ele>80.5</ele>
        <time>2022-04-20T13:57:29Z</time>
      </trkpt>
      <trkpt lat="49.97956" lon="2.40265">
        <ele>80.5</ele>
        <time>2022-04-20T13:57:30Z</time>
      </trkpt>
      <trkpt lat="49.97956" lon="2.40265">
        <ele>80.5</ele>
        <time>2022-04-20T13:57:31Z</time>
      </trkpt>
      <trkpt lat="49.97956" lon="2.40265">
        <ele>80.5</ele>
        <time>2022-04-20T13:57:32Z</time>
      </trkpt>
      <trkpt lat="49.97956" lon="2.40265">
        <ele>80.5</ele>
        <time>2022-04-20T13:57:33Z</time>
      </trkpt>
      <trkpt lat="49.97956" lon="2.40265">
        <ele>80.5</ele>
        <time>2022-04-20T13:57:34Z</time>
      </trkpt>
      <trkpt lat="49.97956" lon="2.40265">
        <ele>80.5</ele>
        <time>2022-04-20T13:57:35Z</time>
      </trkpt>
      <trkpt lat="49.97956" lon="2.40265">
        <ele>80.5</ele>
        <time>2022-04-20T13:57:36Z</time>
      </trkpt>
      <trkpt lat="49.97956" lon="2.40265">
        <ele>80.5</ele>
        <time>2022-04-20T13:57:37Z</time>
      </trkpt>
      <trkpt lat="49.97956" lon="2.40265">
        <ele>80.5</ele>
        <time>2022-04-20T13:57:38Z</time>
      </trkpt>
      <trkpt lat="49.97956" lon="2.40265">
        <ele>80.5</ele>
        <time>2022-04-20T13:57:39Z</time>
      </trkpt>
      <trkpt lat="49.97956" lon="2.40265">
        <ele>80.5</ele>
        <time>2022-04-20T13:57:40Z</time>
      </trkpt>
      <trkpt lat="49.97956" lon="2.40265">
        <ele>80.5</ele>
        <time>2022-04-20T13:57:41Z</time>
      </trkpt>
      <trkpt lat="49.97956" lon="2.40265">
        <ele>80.5</ele>
        <time>2022-04-20T13:57:42Z</time>
      </trkpt>
      <trkpt lat="49.97956" lon="2.40265">
        <ele>80.5</ele>
        <time>2022-04-20T13:57:43Z</time>
      </trkpt>
      <trkpt lat="49.97956" lon="2.40265">
        <ele>80.5</ele>
        <time>2022-04-20T13:57:44Z</time>
      </trkpt>
      <trkpt lat="49.97956" lon="2.40265">
        <ele>80.5</ele>
        <time>2022-04-20T13:57:45Z</time>
      </trkpt>
      <trkpt lat="49.97956" lon="2.40265">
        <ele>80.5</ele>
        <time>2022-04-20T13:57:46Z</time>
      </trkpt>
      <trkpt lat="49.97956" lon="2.40265">
        <ele>80.5</ele>
        <time>2022-04-20T13:57:47Z</time>
      </trkpt>
      <trkpt lat="49.97956" lon="2.40265">
        <ele>80.5</ele>
        <time>2022-04-20T13:57:48Z</time>
      </trkpt>
      <trkpt lat="49.97956" lon="2.40265">
        <ele>80.5</ele>
        <time>2022-04-20T13:57:49Z</time>
      </trkpt>
      <trkpt lat="49.97956" lon="2.40265">
        <ele>80.5</ele>
        <time>2022-04-20T13:57:50Z</time>
      </trkpt>
      <trkpt lat="49.97956" lon="2.40265">
        <ele>80.5</ele>
        <time>2022-04-20T13:57:51Z</time>
      </trkpt>
      <trkpt lat="49.97956" lon="2.40265">
        <ele>80.5</ele>
        <time>2022-04-20T13:57:52Z</time>
      </trkpt>
      <trkpt lat="49.97956" lon="2.40265">
        <ele>80.5</ele>
        <time>2022-04-20T13:57:53Z</time>
      </trkpt>
      <trkpt lat="49.97956" lon="2.40265">
        <ele>80.5</ele>
        <time>2022-04-20T13:57:54Z</time>
      </trkpt>
      <trkpt lat="49.97956" lon="2.40265">
        <ele>80.5</ele>
        <time>2022-04-20T13:57:55Z</time>
      </trkpt>
      <trkpt lat="49.97956" lon="2.40265">
        <ele>80.5</ele>
        <time>2022-04-20T13:57:56Z</time>
      </trkpt>
      <trkpt lat="49.97956" lon="2.40265">
        <ele>80.5</ele>
        <time>2022-04-20T13:57:57Z</time>
      </trkpt>
      <trkpt lat="49.97956" lon="2.40265">
        <ele>80.5</ele>
        <time>2022-04-20T13:57:58Z</time>
      </trkpt>
      <trkpt lat="49.97956" lon="2.40265">
        <ele>80.5</ele>
        <time>2022-04-20T13:57:59Z</time>
      </trkpt>
      <trkpt lat="49.97956" lon="2.40265">
        <ele>80.5</ele>
        <time>2022-04-20T13:58:00Z</time>
      </trkpt>
      <trkpt lat="49.97956" lon="2.40265">
        <ele>80.5</ele>
        <time>2022-04-20T13:58:01Z</time>
      </trkpt>
      <trkpt lat="49.97956" lon="2.40265">
        <ele>80.5</ele>
        <time>2022-04-20T13:58:02Z</time>
      </trkpt>
      <trkpt lat="49.97956" lon="2.40265">
        <ele>80.5</ele>
        <time>2022-04-20T13:58:03Z</time>
      </trkpt>
      <trkpt lat="49.97956" lon="2.40265">
        <ele>80.5</ele>
        <time>2022-04-20T13:58:04Z</time>
      </trkpt>
      <trkpt lat="49.97956" lon="2.40265">
        <ele>80.5</ele>
        <time>2022-04-20T13:58:05Z</time>
      </trkpt>
      <trkpt lat="49.97956" lon="2.40265">
        <ele>80.5</ele>
        <time>2022-04-20T13:58:06Z</time>
      </trkpt>
      <trkpt lat="49.97956" lon="2.40265">
        <ele>80.5</ele>
        <time>2022-04-20T13:58:07Z</time>
      </trkpt>
      <trkpt lat="49.97956" lon="2.40265">
        <ele>80.5</ele>
        <time>2022-04-20T13:58:08Z</time>
      </trkpt>
      <trkpt lat="49.97956" lon="2.40265">
        <ele>80.5</ele>
        <time>2022-04-20T13:58:09Z</time>
      </trkpt>
      <trkpt lat="49.97956" lon="2.40265">
        <ele>80.5</ele>
        <time>2022-04-20T13:58:10Z</time>
      </trkpt>
      <trkpt lat="49.97956" lon="2.40265">
        <ele>80.5</ele>
        <time>2022-04-20T13:58:11Z</time>
      </trkpt>
      <trkpt lat="49.97956" lon="2.40265">
        <ele>80.5</ele>
        <time>2022-04-20T13:58:12Z</time>
      </trkpt>
      <trkpt lat="49.97956" lon="2.40265">
        <ele>80.5</ele>
        <time>2022-04-20T13:58:13Z</time>
      </trkpt>
      <trkpt lat="49.97956" lon="2.40265">
        <ele>80.5</ele>
        <time>2022-04-20T13:58:14Z</time>
      </trkpt>
      <trkpt lat="49.97956" lon="2.40265">
        <ele>80.5</ele>
        <time>2022-04-20T13:58:15Z</time>
      </trkpt>
      <trkpt lat="49.97956" lon="2.40265">
        <ele>80.5</ele>
        <time>2022-04-20T13:58:16Z</time>
      </trkpt>
      <trkpt lat="49.97956" lon="2.40265">
        <ele>80.5</ele>
        <time>2022-04-20T13:58:17Z</time>
      </trkpt>
      <trkpt lat="49.97956" lon="2.40265">
        <ele>80.5</ele>
        <time>2022-04-20T13:58:18Z</time>
      </trkpt>
      <trkpt lat="49.97956" lon="2.40265">
        <ele>80.5</ele>
        <time>2022-04-20T13:58:19Z</time>
      </trkpt>
      <trkpt lat="49.97956" lon="2.40265">
        <ele>80.5</ele>
        <time>2022-04-20T13:58:20Z</time>
      </trkpt>
      <trkpt lat="49.97956" lon="2.40265">
        <ele>80.5</ele>
        <time>2022-04-20T13:58:21Z</time>
      </trkpt>
      <trkpt lat="49.97956" lon="2.40265">
        <ele>80.5</ele>
        <time>2022-04-20T13:58:22Z</time>
      </trkpt>
      <trkpt lat="49.97956" lon="2.40265">
        <ele>80.5</ele>
        <time>2022-04-20T13:58:23Z</time>
      </trkpt>
      <trkpt lat="49.97956" lon="2.40265">
        <ele>80.5</ele>
        <time>2022-04-20T13:58:24Z</time>
      </trkpt>
      <trkpt lat="49.97956" lon="2.40265">
        <ele>80.5</ele>
        <time>2022-04-20T13:58:25Z</time>
      </trkpt>
      <trkpt lat="49.97956" lon="2.40265">
        <ele>80.5</ele>
        <time>2022-04-20T13:58:26Z</time>
      </trkpt>
      <trkpt lat="49.97956" lon="2.40265">
        <ele>80.5</ele>
        <time>2022-04-20T13:58:27Z</time>
      </trkpt>
      <trkpt lat="49.97956" lon="2.40265">
        <ele>80.5</ele>
        <time>2022-04-20T13:58:28Z</time>
      </trkpt>
      <trkpt lat="49.97956" lon="2.40265">
        <ele>80.5</ele>
        <time>2022-04-20T13:58:29Z</time>
      </trkpt>
      <trkpt lat="49.97956" lon="2.40265">
        <ele>80.5</ele>
        <time>2022-04-20T13:58:30Z</time>
      </trkpt>
      <trkpt lat="49.97956" lon="2.40265">
        <ele>80.5</ele>
        <time>2022-04-20T13:58:31Z</time>
      </trkpt>
      <trkpt lat="49.97956" lon="2.40264">
        <ele>80.5</ele>
        <time>2022-04-20T13:58:32Z</time>
      </trkpt>
      <trkpt lat="49.97957" lon="2.40262">
        <ele>80.5</ele>
        <time>2022-04-20T13:58:33Z</time>
      </trkpt>
      <trkpt lat="49.97957" lon="2.40262">
        <ele>80.5</ele>
        <time>2022-04-20T13:58:34Z</time>
      </trkpt>
      <trkpt lat="49.97958" lon="2.40262">
        <ele>80.5</ele>
        <time>2022-04-20T13:58:35Z</time>
      </trkpt>
      <trkpt lat="49.97958" lon="2.40263">
        <ele>80.5</ele>
        <time>2022-04-20T13:58:36Z</time>
      </trkpt>
      <trkpt lat="49.97958" lon="2.40263">
        <ele>80.5</ele>
        <time>2022-04-20T13:58:37Z</time>
      </trkpt>
      <trkpt lat="49.97958" lon="2.40265">
        <ele>80.5</ele>
        <time>2022-04-20T13:58:38Z</time>
      </trkpt>
      <trkpt lat="49.97958" lon="2.40264">
        <ele>80.4</ele>
        <time>2022-04-20T13:58:39Z</time>
      </trkpt>
      <trkpt lat="49.97958" lon="2.40266">
        <ele>80.4</ele>
        <time>2022-04-20T13:58:40Z</time>
      </trkpt>
      <trkpt lat="49.97957" lon="2.40268">
        <ele>80.4</ele>
        <time>2022-04-20T13:58:42Z</time>
      </trkpt>
      <trkpt lat="49.97957" lon="2.40269">
        <ele>80.4</ele>
        <time>2022-04-20T13:58:43Z</time>
      </trkpt>
      <trkpt lat="49.97956" lon="2.40271">
        <ele>80.3</ele>
        <time>2022-04-20T13:58:44Z</time>
      </trkpt>
      <trkpt lat="49.97955" lon="2.40273">
        <ele>80.3</ele>
        <time>2022-04-20T13:58:46Z</time>
      </trkpt>
      <trkpt lat="49.97954" lon="2.40272">
        <ele>80.3</ele>
        <time>2022-04-20T13:58:47Z</time>
      </trkpt>
      <trkpt lat="49.97954" lon="2.40271">
        <ele>80.3</ele>
        <time>2022-04-20T13:58:48Z</time>
      </trkpt>
      <trkpt lat="49.97954" lon="2.40271">
        <ele>80.3</ele>
        <time>2022-04-20T13:58:49Z</time>
      </trkpt>
      <trkpt lat="49.97954" lon="2.40272">
        <ele>80.3</ele>
        <time>2022-04-20T13:58:50Z</time>
      </trkpt>
      <trkpt lat="49.97954" lon="2.40273">
        <ele>80.3</ele>
        <time>2022-04-20T13:58:51Z</time>
      </trkpt>
      <trkpt lat="49.97954" lon="2.40273">
        <ele>80.3</ele>
        <time>2022-04-20T13:58:52Z</time>
      </trkpt>
      <trkpt lat="49.97955" lon="2.40273">
        <ele>80.2</ele>
        <time>2022-04-20T13:58:53Z</time>
      </trkpt>
      <trkpt lat="49.97955" lon="2.40274">
        <ele>80.2</ele>
        <time>2022-04-20T13:58:54Z</time>
      </trkpt>
      <trkpt lat="49.97955" lon="2.40274">
        <ele>80.2</ele>
        <time>2022-04-20T13:58:55Z</time>
      </trkpt>
      <trkpt lat="49.97955" lon="2.40274">
        <ele>80.2</ele>
        <time>2022-04-20T13:58:56Z</time>
      </trkpt>
      <trkpt lat="49.97955" lon="2.40274">
        <ele>80.2</ele>
        <time>2022-04-20T13:58:57Z</time>
      </trkpt>
      <trkpt lat="49.97955" lon="2.40274">
        <ele>80.2</ele>
        <time>2022-04-20T13:58:58Z</time>
      </trkpt>
      <trkpt lat="49.97955" lon="2.40274">
        <ele>80.2</ele>
        <time>2022-04-20T13:58:59Z</time>
      </trkpt>
      <trkpt lat="49.97955" lon="2.40274">
        <ele>80.2</ele>
        <time>2022-04-20T13:59:00Z</time>
      </trkpt>
      <trkpt lat="49.97955" lon="2.40274">
        <ele>80.2</ele>
        <time>2022-04-20T13:59:01Z</time>
      </trkpt>
      <trkpt lat="49.97955" lon="2.40274">
        <ele>80.2</ele>
        <time>2022-04-20T13:59:02Z</time>
      </trkpt>
      <trkpt lat="49.97954" lon="2.40275">
        <ele>80.2</ele>
        <time>2022-04-20T13:59:04Z</time>
      </trkpt>
      <trkpt lat="49.97954" lon="2.40276">
        <ele>80.2</ele>
        <time>2022-04-20T13:59:05Z</time>
      </trkpt>
      <trkpt lat="49.97954" lon="2.40276">
        <ele>80.2</ele>
        <time>2022-04-20T13:59:06Z</time>
      </trkpt>
      <trkpt lat="49.97954" lon="2.40277">
        <ele>80.2</ele>
        <time>2022-04-20T13:59:07Z</time>
      </trkpt>
      <trkpt lat="49.97954" lon="2.40279">
        <ele>80.2</ele>
        <time>2022-04-20T13:59:08Z</time>
      </trkpt>
      <trkpt lat="49.97954" lon="2.4028">
        <ele>80.2</ele>
        <time>2022-04-20T13:59:09Z</time>
      </trkpt>
      <trkpt lat="49.97954" lon="2.40281">
        <ele>80.2</ele>
        <time>2022-04-20T13:59:11Z</time>
      </trkpt>
      <trkpt lat="49.97954" lon="2.40282">
        <ele>80.1</ele>
        <time>2022-04-20T13:59:12Z</time>
      </trkpt>
      <trkpt lat="49.97954" lon="2.40282">
        <ele>80.1</ele>
        <time>2022-04-20T13:59:13Z</time>
      </trkpt>
      <trkpt lat="49.97954" lon="2.40283">
        <ele>80.1</ele>
        <time>2022-04-20T13:59:14Z</time>
      </trkpt>
      <trkpt lat="49.97954" lon="2.40284">
        <ele>80.1</ele>
        <time>2022-04-20T13:59:16Z</time>
      </trkpt>
      <trkpt lat="49.97954" lon="2.40285">
        <ele>80.1</ele>
        <time>2022-04-20T13:59:17Z</time>
      </trkpt>
      <trkpt lat="49.97953" lon="2.40285">
        <ele>80.1</ele>
        <time>2022-04-20T13:59:18Z</time>
      </trkpt>
      <trkpt lat="49.97953" lon="2.40285">
        <ele>80.1</ele>
        <time>2022-04-20T13:59:19Z</time>
      </trkpt>
      <trkpt lat="49.97953" lon="2.40285">
        <ele>80.1</ele>
        <time>2022-04-20T13:59:20Z</time>
      </trkpt>
      <trkpt lat="49.97953" lon="2.40285">
        <ele>80.1</ele>
        <time>2022-04-20T13:59:21Z</time>
      </trkpt>
      <trkpt lat="49.97953" lon="2.40285">
        <ele>80.1</ele>
        <time>2022-04-20T13:59:22Z</time>
      </trkpt>
      <trkpt lat="49.97953" lon="2.40285">
        <ele>80.1</ele>
        <time>2022-04-20T13:59:23Z</time>
      </trkpt>
      <trkpt lat="49.97953" lon="2.40285">
        <ele>80.1</ele>
        <time>2022-04-20T13:59:24Z</time>
      </trkpt>
      <trkpt lat="49.97953" lon="2.40285">
        <ele>80.1</ele>
        <time>2022-04-20T13:59:25Z</time>
      </trkpt>
      <trkpt lat="49.97953" lon="2.40285">
        <ele>80.1</ele>
        <time>2022-04-20T13:59:26Z</time>
      </trkpt>
      <trkpt lat="49.97953" lon="2.40286">
        <ele>80.1</ele>
        <time>2022-04-20T13:59:28Z</time>
      </trkpt>
      <trkpt lat="49.97953" lon="2.40287">
        <ele>80.1</ele>
        <time>2022-04-20T13:59:29Z</time>
      </trkpt>
      <trkpt lat="49.97953" lon="2.40288">
        <ele>80.1</ele>
        <time>2022-04-20T13:59:31Z</time>
      </trkpt>
      <trkpt lat="49.97953" lon="2.40289">
        <ele>80.1</ele>
        <time>2022-04-20T13:59:32Z</time>
      </trkpt>
      <trkpt lat="49.97952" lon="2.4029">
        <ele>80.1</ele>
        <time>2022-04-20T13:59:33Z</time>
      </trkpt>
      <trkpt lat="49.97952" lon="2.40291">
        <ele>80</ele>
        <time>2022-04-20T13:59:34Z</time>
      </trkpt>
      <trkpt lat="49.97951" lon="2.40293">
        <ele>80</ele>
        <time>2022-04-20T13:59:35Z</time>
      </trkpt>
      <trkpt lat="49.97951" lon="2.40295">
        <ele>80</ele>
        <time>2022-04-20T13:59:37Z</time>
      </trkpt>
      <trkpt lat="49.9795" lon="2.40296">
        <ele>80</ele>
        <time>2022-04-20T13:59:38Z</time>
      </trkpt>
      <trkpt lat="49.97949" lon="2.40296">
        <ele>80</ele>
        <time>2022-04-20T13:59:39Z</time>
      </trkpt>
      <trkpt lat="49.97949" lon="2.40297">
        <ele>80</ele>
        <time>2022-04-20T13:59:40Z</time>
      </trkpt>
      <trkpt lat="49.97948" lon="2.40299">
        <ele>80</ele>
        <time>2022-04-20T13:59:41Z</time>
      </trkpt>
      <trkpt lat="49.97948" lon="2.40301">
        <ele>80</ele>
        <time>2022-04-20T13:59:42Z</time>
      </trkpt>
      <trkpt lat="49.97947" lon="2.40303">
        <ele>80</ele>
        <time>2022-04-20T13:59:43Z</time>
      </trkpt>
      <trkpt lat="49.97946" lon="2.40305">
        <ele>80</ele>
        <time>2022-04-20T13:59:45Z</time>
      </trkpt>
      <trkpt lat="49.97945" lon="2.40307">
        <ele>80</ele>
        <time>2022-04-20T13:59:46Z</time>
      </trkpt>
      <trkpt lat="49.97945" lon="2.40309">
        <ele>79.9</ele>
        <time>2022-04-20T13:59:47Z</time>
      </trkpt>
      <trkpt lat="49.97944" lon="2.40312">
        <ele>79.9</ele>
        <time>2022-04-20T13:59:48Z</time>
      </trkpt>
      <trkpt lat="49.97943" lon="2.40314">
        <ele>79.9</ele>
        <time>2022-04-20T13:59:50Z</time>
      </trkpt>
      <trkpt lat="49.97943" lon="2.40315">
        <ele>79.9</ele>
        <time>2022-04-20T13:59:51Z</time>
      </trkpt>
      <trkpt lat="49.97942" lon="2.40317">
        <ele>79.9</ele>
        <time>2022-04-20T13:59:52Z</time>
      </trkpt>
      <trkpt lat="49.97941" lon="2.40317">
        <ele>79.9</ele>
        <time>2022-04-20T13:59:53Z</time>
      </trkpt>
      <trkpt lat="49.97941" lon="2.40318">
        <ele>79.9</ele>
        <time>2022-04-20T13:59:54Z</time>
      </trkpt>
      <trkpt lat="49.9794" lon="2.4032">
        <ele>79.9</ele>
        <time>2022-04-20T13:59:55Z</time>
      </trkpt>
      <trkpt lat="49.97939" lon="2.40324">
        <ele>79.9</ele>
        <time>2022-04-20T13:59:56Z</time>
      </trkpt>
      <trkpt lat="49.97939" lon="2.40325">
        <ele>79.9</ele>
        <time>2022-04-20T13:59:58Z</time>
      </trkpt>
      <trkpt lat="49.97938" lon="2.40326">
        <ele>79.9</ele>
        <time>2022-04-20T13:59:59Z</time>
      </trkpt>
      <trkpt lat="49.97938" lon="2.40327">
        <ele>79.9</ele>
        <time>2022-04-20T14:00:00Z</time>
      </trkpt>
      <trkpt lat="49.97937" lon="2.40328">
        <ele>79.8</ele>
        <time>2022-04-20T14:00:01Z</time>
      </trkpt>
      <trkpt lat="49.97937" lon="2.40329">
        <ele>79.8</ele>
        <time>2022-04-20T14:00:02Z</time>
      </trkpt>
      <trkpt lat="49.97936" lon="2.40331">
        <ele>79.8</ele>
        <time>2022-04-20T14:00:03Z</time>
      </trkpt>
      <trkpt lat="49.97936" lon="2.40334">
        <ele>79.8</ele>
        <time>2022-04-20T14:00:04Z</time>
      </trkpt>
      <trkpt lat="49.97935" lon="2.40336">
        <ele>79.8</ele>
        <time>2022-04-20T14:00:06Z</time>
      </trkpt>
      <trkpt lat="49.97935" lon="2.40339">
        <ele>79.7</ele>
        <time>2022-04-20T14:00:07Z</time>
      </trkpt>
      <trkpt lat="49.97933" lon="2.40343">
        <ele>79.7</ele>
        <time>2022-04-20T14:00:08Z</time>
      </trkpt>
      <trkpt lat="49.97933" lon="2.40344">
        <ele>79.7</ele>
        <time>2022-04-20T14:00:09Z</time>
      </trkpt>
      <trkpt lat="49.97933" lon="2.40347">
        <ele>79.6</ele>
        <time>2022-04-20T14:00:10Z</time>
      </trkpt>
      <trkpt lat="49.97932" lon="2.40349">
        <ele>79.6</ele>
        <time>2022-04-20T14:00:11Z</time>
      </trkpt>
      <trkpt lat="49.97932" lon="2.40352">
        <ele>79.5</ele>
        <time>2022-04-20T14:00:12Z</time>
      </trkpt>
      <trkpt lat="49.97931" lon="2.40354">
        <ele>79.5</ele>
        <time>2022-04-20T14:00:14Z</time>
      </trkpt>
      <trkpt lat="49.97931" lon="2.40356">
        <ele>79.5</ele>
        <time>2022-04-20T14:00:15Z</time>
      </trkpt>
      <trkpt lat="49.97931" lon="2.40359">
        <ele>79.4</ele>
        <time>2022-04-20T14:00:16Z</time>
      </trkpt>
      <trkpt lat="49.9793" lon="2.4036">
        <ele>79.4</ele>
        <time>2022-04-20T14:00:17Z</time>
      </trkpt>
      <trkpt lat="49.9793" lon="2.40362">
        <ele>79.4</ele>
        <time>2022-04-20T14:00:18Z</time>
      </trkpt>
      <trkpt lat="49.9793" lon="2.40364">
        <ele>79.3</ele>
        <time>2022-04-20T14:00:19Z</time>
      </trkpt>
      <trkpt lat="49.9793" lon="2.40367">
        <ele>79.3</ele>
        <time>2022-04-20T14:00:20Z</time>
      </trkpt>
      <trkpt lat="49.9793" lon="2.40368">
        <ele>79.3</ele>
        <time>2022-04-20T14:00:21Z</time>
      </trkpt>
      <trkpt lat="49.9793" lon="2.4037">
        <ele>79.2</ele>
        <time>2022-04-20T14:00:22Z</time>
      </trkpt>
      <trkpt lat="49.9793" lon="2.40374">
        <ele>79.2</ele>
        <time>2022-04-20T14:00:23Z</time>
      </trkpt>
      <trkpt lat="49.9793" lon="2.40376">
        <ele>79.1</ele>
        <time>2022-04-20T14:00:25Z</time>
      </trkpt>
      <trkpt lat="49.9793" lon="2.40377">
        <ele>79.1</ele>
        <time>2022-04-20T14:00:26Z</time>
      </trkpt>
      <trkpt lat="49.9793" lon="2.40379">
        <ele>79.1</ele>
        <time>2022-04-20T14:00:27Z</time>
      </trkpt>
      <trkpt lat="49.9793" lon="2.40381">
        <ele>79</ele>
        <time>2022-04-20T14:00:28Z</time>
      </trkpt>
      <trkpt lat="49.9793" lon="2.40384">
        <ele>79</ele>
        <time>2022-04-20T14:00:29Z</time>
      </trkpt>
      <trkpt lat="49.9793" lon="2.40385">
        <ele>79</ele>
        <time>2022-04-20T14:00:30Z</time>
      </trkpt>
      <trkpt lat="49.9793" lon="2.40387">
        <ele>78.9</ele>
        <time>2022-04-20T14:00:31Z</time>
      </trkpt>
      <trkpt lat="49.97929" lon="2.4039">
        <ele>78.9</ele>
        <time>2022-04-20T14:00:32Z</time>
      </trkpt>
      <trkpt lat="49.97929" lon="2.40391">
        <ele>78.9</ele>
        <time>2022-04-20T14:00:34Z</time>
      </trkpt>
      <trkpt lat="49.97929" lon="2.40392">
        <ele>78.8</ele>
        <time>2022-04-20T14:00:35Z</time>
      </trkpt>
      <trkpt lat="49.97928" lon="2.40396">
        <ele>78.8</ele>
        <time>2022-04-20T14:00:36Z</time>
      </trkpt>
      <trkpt lat="49.97927" lon="2.40397">
        <ele>78.7</ele>
        <time>2022-04-20T14:00:38Z</time>
      </trkpt>
      <trkpt lat="49.97927" lon="2.40399">
        <ele>78.7</ele>
        <time>2022-04-20T14:00:39Z</time>
      </trkpt>
      <trkpt lat="49.97927" lon="2.40401">
        <ele>78.7</ele>
        <time>2022-04-20T14:00:40Z</time>
      </trkpt>
      <trkpt lat="49.97926" lon="2.40403">
        <ele>78.6</ele>
        <time>2022-04-20T14:00:41Z</time>
      </trkpt>
      <trkpt lat="49.97926" lon="2.40406">
        <ele>78.6</ele>
        <time>2022-04-20T14:00:43Z</time>
      </trkpt>
      <trkpt lat="49.97925" lon="2.40407">
        <ele>78.6</ele>
        <time>2022-04-20T14:00:44Z</time>
      </trkpt>
      <trkpt lat="49.97925" lon="2.40409">
        <ele>78.5</ele>
        <time>2022-04-20T14:00:45Z</time>
      </trkpt>
      <trkpt lat="49.97925" lon="2.40412">
        <ele>78.5</ele>
        <time>2022-04-20T14:00:46Z</time>
      </trkpt>
      <trkpt lat="49.97925" lon="2.40413">
        <ele>78.4</ele>
        <time>2022-04-20T14:00:47Z</time>
      </trkpt>
      <trkpt lat="49.97925" lon="2.40415">
        <ele>78.4</ele>
        <time>2022-04-20T14:00:48Z</time>
      </trkpt>
      <trkpt lat="49.97924" lon="2.40418">
        <ele>78.4</ele>
        <time>2022-04-20T14:00:50Z</time>
      </trkpt>
      <trkpt lat="49.97924" lon="2.40419">
        <ele>78.3</ele>
        <time>2022-04-20T14:00:51Z</time>
      </trkpt>
      <trkpt lat="49.97923" lon="2.40423">
        <ele>78.3</ele>
        <time>2022-04-20T14:00:53Z</time>
      </trkpt>
      <trkpt lat="49.97923" lon="2.40424">
        <ele>78.2</ele>
        <time>2022-04-20T14:00:54Z</time>
      </trkpt>
      <trkpt lat="49.97922" lon="2.40426">
        <ele>78.2</ele>
        <time>2022-04-20T14:00:55Z</time>
      </trkpt>
      <trkpt lat="49.97922" lon="2.40428">
        <ele>78.1</ele>
        <time>2022-04-20T14:00:56Z</time>
      </trkpt>
      <trkpt lat="49.97921" lon="2.4043">
        <ele>78.1</ele>
        <time>2022-04-20T14:00:57Z</time>
      </trkpt>
      <trkpt lat="49.97921" lon="2.40433">
        <ele>78</ele>
        <time>2022-04-20T14:00:58Z</time>
      </trkpt>
      <trkpt lat="49.9792" lon="2.40434">
        <ele>78</ele>
        <time>2022-04-20T14:00:59Z</time>
      </trkpt>
      <trkpt lat="49.9792" lon="2.40436">
        <ele>77.9</ele>
        <time>2022-04-20T14:01:00Z</time>
      </trkpt>
      <trkpt lat="49.97919" lon="2.40438">
        <ele>77.9</ele>
        <time>2022-04-20T14:01:02Z</time>
      </trkpt>
      <trkpt lat="49.97919" lon="2.4044">
        <ele>77.8</ele>
        <time>2022-04-20T14:01:03Z</time>
      </trkpt>
      <trkpt lat="49.97919" lon="2.40441">
        <ele>77.8</ele>
        <time>2022-04-20T14:01:04Z</time>
      </trkpt>
      <trkpt lat="49.97918" lon="2.40443">
        <ele>77.8</ele>
        <time>2022-04-20T14:01:05Z</time>
      </trkpt>
      <trkpt lat="49.97918" lon="2.40444">
        <ele>77.7</ele>
        <time>2022-04-20T14:01:06Z</time>
      </trkpt>
      <trkpt lat="49.97917" lon="2.40446">
        <ele>77.7</ele>
        <time>2022-04-20T14:01:07Z</time>
      </trkpt>
      <trkpt lat="49.97917" lon="2.40448">
        <ele>77.7</ele>
        <time>2022-04-20T14:01:08Z</time>
      </trkpt>
      <trkpt lat="49.97916" lon="2.40451">
        <ele>77.6</ele>
        <time>2022-04-20T14:01:10Z</time>
      </trkpt>
      <trkpt lat="49.97916" lon="2.40452">
        <ele>77.6</ele>
        <time>2022-04-20T14:01:11Z</time>
      </trkpt>
      <trkpt lat="49.97915" lon="2.40453">
        <ele>77.6</ele>
        <time>2022-04-20T14:01:12Z</time>
      </trkpt>
      <trkpt lat="49.97915" lon="2.40455">
        <ele>77.6</ele>
        <time>2022-04-20T14:01:13Z</time>
      </trkpt>
      <trkpt lat="49.97915" lon="2.40456">
        <ele>77.5</ele>
        <time>2022-04-20T14:01:14Z</time>
      </trkpt>
      <trkpt lat="49.97914" lon="2.40458">
        <ele>77.5</ele>
        <time>2022-04-20T14:01:15Z</time>
      </trkpt>
      <trkpt lat="49.97913" lon="2.40459">
        <ele>77.5</ele>
        <time>2022-04-20T14:01:16Z</time>
      </trkpt>
      <trkpt lat="49.97913" lon="2.40461">
        <ele>77.4</ele>
        <time>2022-04-20T14:01:17Z</time>
      </trkpt>
      <trkpt lat="49.97913" lon="2.40463">
        <ele>77.4</ele>
        <time>2022-04-20T14:01:18Z</time>
      </trkpt>
      <trkpt lat="49.97912" lon="2.40466">
        <ele>77.4</ele>
        <time>2022-04-20T14:01:20Z</time>
      </trkpt>
      <trkpt lat="49.97912" lon="2.40467">
        <ele>77.4</ele>
        <time>2022-04-20T14:01:21Z</time>
      </trkpt>
      <trkpt lat="49.97911" lon="2.40468">
        <ele>77.3</ele>
        <time>2022-04-20T14:01:22Z</time>
      </trkpt>
      <trkpt lat="49.97911" lon="2.4047">
        <ele>77.3</ele>
        <time>2022-04-20T14:01:23Z</time>
      </trkpt>
      <trkpt lat="49.97911" lon="2.40471">
        <ele>77.3</ele>
        <time>2022-04-20T14:01:24Z</time>
      </trkpt>
      <trkpt lat="49.9791" lon="2.40473">
        <ele>77.3</ele>
        <time>2022-04-20T14:01:25Z</time>
      </trkpt>
      <trkpt lat="49.9791" lon="2.40474">
        <ele>77.2</ele>
        <time>2022-04-20T14:01:26Z</time>
      </trkpt>
      <trkpt lat="49.9791" lon="2.40476">
        <ele>77.2</ele>
        <time>2022-04-20T14:01:27Z</time>
      </trkpt>
      <trkpt lat="49.97909" lon="2.4048">
        <ele>77.2</ele>
        <time>2022-04-20T14:01:29Z</time>
      </trkpt>
      <trkpt lat="49.97909" lon="2.40483">
        <ele>77.1</ele>
        <time>2022-04-20T14:01:30Z</time>
      </trkpt>
      <trkpt lat="49.97909" lon="2.40485">
        <ele>77.1</ele>
        <time>2022-04-20T14:01:32Z</time>
      </trkpt>
      <trkpt lat="49.97908" lon="2.40487">
        <ele>77.1</ele>
        <time>2022-04-20T14:01:33Z</time>
      </trkpt>
      <trkpt lat="49.97908" lon="2.40489">
        <ele>77</ele>
        <time>2022-04-20T14:01:34Z</time>
      </trkpt>
      <trkpt lat="49.97908" lon="2.40491">
        <ele>77</ele>
        <time>2022-04-20T14:01:35Z</time>
      </trkpt>
      <trkpt lat="49.97908" lon="2.40494">
        <ele>77</ele>
        <time>2022-04-20T14:01:36Z</time>
      </trkpt>
      <trkpt lat="49.97907" lon="2.40495">
        <ele>76.9</ele>
        <time>2022-04-20T14:01:37Z</time>
      </trkpt>
      <trkpt lat="49.97907" lon="2.40497">
        <ele>76.9</ele>
        <time>2022-04-20T14:01:38Z</time>
      </trkpt>
      <trkpt lat="49.97907" lon="2.40499">
        <ele>76.9</ele>
        <time>2022-04-20T14:01:39Z</time>
      </trkpt>
      <trkpt lat="49.97906" lon="2.40501">
        <ele>76.8</ele>
        <time>2022-04-20T14:01:40Z</time>
      </trkpt>
      <trkpt lat="49.97906" lon="2.40504">
        <ele>76.8</ele>
        <time>2022-04-20T14:01:41Z</time>
      </trkpt>
      <trkpt lat="49.97906" lon="2.40505">
        <ele>76.7</ele>
        <time>2022-04-20T14:01:42Z</time>
      </trkpt>
      <trkpt lat="49.97905" lon="2.40506">
        <ele>76.7</ele>
        <time>2022-04-20T14:01:43Z</time>
      </trkpt>
      <trkpt lat="49.97905" lon="2.40508">
        <ele>76.7</ele>
        <time>2022-04-20T14:01:45Z</time>
      </trkpt>
      <trkpt lat="49.97904" lon="2.4051">
        <ele>76.6</ele>
        <time>2022-04-20T14:01:46Z</time>
      </trkpt>
      <trkpt lat="49.97904" lon="2.40512">
        <ele>76.6</ele>
        <time>2022-04-20T14:01:47Z</time>
      </trkpt>
      <trkpt lat="49.97903" lon="2.40514">
        <ele>76.6</ele>
        <time>2022-04-20T14:01:48Z</time>
      </trkpt>
      <trkpt lat="49.97902" lon="2.40515">
        <ele>76.5</ele>
        <time>2022-04-20T14:01:49Z</time>
      </trkpt>
      <trkpt lat="49.97902" lon="2.40519">
        <ele>76.5</ele>
        <time>2022-04-20T14:01:50Z</time>
      </trkpt>
      <trkpt lat="49.97901" lon="2.4052">
        <ele>76.5</ele>
        <time>2022-04-20T14:01:51Z</time>
      </trkpt>
      <trkpt lat="49.97901" lon="2.40521">
        <ele>76.4</ele>
        <time>2022-04-20T14:01:52Z</time>
      </trkpt>
      <trkpt lat="49.979" lon="2.40525">
        <ele>76.4</ele>
        <time>2022-04-20T14:01:53Z</time>
      </trkpt>
      <trkpt lat="49.979" lon="2.40526">
        <ele>76.4</ele>
        <time>2022-04-20T14:01:55Z</time>
      </trkpt>
      <trkpt lat="49.979" lon="2.40527">
        <ele>76.4</ele>
        <time>2022-04-20T14:01:56Z</time>
      </trkpt>
      <trkpt lat="49.97899" lon="2.4053">
        <ele>76.3</ele>
        <time>2022-04-20T14:01:57Z</time>
      </trkpt>
      <trkpt lat="49.97899" lon="2.40532">
        <ele>76.3</ele>
        <time>2022-04-20T14:01:58Z</time>
      </trkpt>
      <trkpt lat="49.97899" lon="2.40533">
        <ele>76.3</ele>
        <time>2022-04-20T14:01:59Z</time>
      </trkpt>
      <trkpt lat="49.97898" lon="2.40534">
        <ele>76.3</ele>
        <time>2022-04-20T14:02:00Z</time>
      </trkpt>
      <trkpt lat="49.97898" lon="2.40536">
        <ele>76.3</ele>
        <time>2022-04-20T14:02:01Z</time>
      </trkpt>
      <trkpt lat="49.97897" lon="2.40538">
        <ele>76.3</ele>
        <time>2022-04-20T14:02:02Z</time>
      </trkpt>
      <trkpt lat="49.97897" lon="2.40539">
        <ele>76.3</ele>
        <time>2022-04-20T14:02:03Z</time>
      </trkpt>
      <trkpt lat="49.97897" lon="2.40541">
        <ele>76.3</ele>
        <time>2022-04-20T14:02:04Z</time>
      </trkpt>
      <trkpt lat="49.97896" lon="2.40542">
        <ele>76.3</ele>
        <time>2022-04-20T14:02:05Z</time>
      </trkpt>
      <trkpt lat="49.97896" lon="2.40544">
        <ele>76.3</ele>
        <time>2022-04-20T14:02:06Z</time>
      </trkpt>
      <trkpt lat="49.97895" lon="2.40545">
        <ele>76.2</ele>
        <time>2022-04-20T14:02:07Z</time>
      </trkpt>
      <trkpt lat="49.97895" lon="2.40547">
        <ele>76.2</ele>
        <time>2022-04-20T14:02:08Z</time>
      </trkpt>
      <trkpt lat="49.97894" lon="2.40549">
        <ele>76.2</ele>
        <time>2022-04-20T14:02:09Z</time>
      </trkpt>
      <trkpt lat="49.97894" lon="2.40552">
        <ele>76.2</ele>
        <time>2022-04-20T14:02:11Z</time>
      </trkpt>
      <trkpt lat="49.97894" lon="2.40553">
        <ele>76.2</ele>
        <time>2022-04-20T14:02:12Z</time>
      </trkpt>
      <trkpt lat="49.97893" lon="2.40555">
        <ele>76.2</ele>
        <time>2022-04-20T14:02:13Z</time>
      </trkpt>
      <trkpt lat="49.97893" lon="2.40556">
        <ele>76.2</ele>
        <time>2022-04-20T14:02:14Z</time>
      </trkpt>
      <trkpt lat="49.97893" lon="2.40558">
        <ele>76.2</ele>
        <time>2022-04-20T14:02:15Z</time>
      </trkpt>
      <trkpt lat="49.97892" lon="2.40559">
        <ele>76.1</ele>
        <time>2022-04-20T14:02:17Z</time>
      </trkpt>
      <trkpt lat="49.97892" lon="2.4056">
        <ele>76.1</ele>
        <time>2022-04-20T14:02:18Z</time>
      </trkpt>
      <trkpt lat="49.97892" lon="2.40562">
        <ele>76.1</ele>
        <time>2022-04-20T14:02:19Z</time>
      </trkpt>
      <trkpt lat="49.97892" lon="2.40563">
        <ele>76.1</ele>
        <time>2022-04-20T14:02:20Z</time>
      </trkpt>
      <trkpt lat="49.97892" lon="2.40564">
        <ele>76.1</ele>
        <time>2022-04-20T14:02:21Z</time>
      </trkpt>
      <trkpt lat="49.97892" lon="2.40565">
        <ele>76.1</ele>
        <time>2022-04-20T14:02:22Z</time>
      </trkpt>
      <trkpt lat="49.97891" lon="2.40567">
        <ele>76.1</ele>
        <time>2022-04-20T14:02:23Z</time>
      </trkpt>
      <trkpt lat="49.97891" lon="2.40568">
        <ele>76.1</ele>
        <time>2022-04-20T14:02:24Z</time>
      </trkpt>
      <trkpt lat="49.97891" lon="2.4057">
        <ele>76.1</ele>
        <time>2022-04-20T14:02:25Z</time>
      </trkpt>
      <trkpt lat="49.97891" lon="2.40572">
        <ele>76</ele>
        <time>2022-04-20T14:02:26Z</time>
      </trkpt>
      <trkpt lat="49.9789" lon="2.40574">
        <ele>76</ele>
        <time>2022-04-20T14:02:27Z</time>
      </trkpt>
      <trkpt lat="49.9789" lon="2.40576">
        <ele>76</ele>
        <time>2022-04-20T14:02:28Z</time>
      </trkpt>
      <trkpt lat="49.9789" lon="2.40578">
        <ele>76</ele>
        <time>2022-04-20T14:02:29Z</time>
      </trkpt>
      <trkpt lat="49.97889" lon="2.40581">
        <ele>76</ele>
        <time>2022-04-20T14:02:31Z</time>
      </trkpt>
      <trkpt lat="49.97889" lon="2.40583">
        <ele>76</ele>
        <time>2022-04-20T14:02:32Z</time>
      </trkpt>
      <trkpt lat="49.97889" lon="2.40585">
        <ele>76</ele>
        <time>2022-04-20T14:02:33Z</time>
      </trkpt>
      <trkpt lat="49.97889" lon="2.40587">
        <ele>76</ele>
        <time>2022-04-20T14:02:34Z</time>
      </trkpt>
      <trkpt lat="49.97888" lon="2.40589">
        <ele>76</ele>
        <time>2022-04-20T14:02:35Z</time>
      </trkpt>
      <trkpt lat="49.97888" lon="2.40591">
        <ele>76</ele>
        <time>2022-04-20T14:02:36Z</time>
      </trkpt>
      <trkpt lat="49.97888" lon="2.40594">
        <ele>76</ele>
        <time>2022-04-20T14:02:38Z</time>
      </trkpt>
      <trkpt lat="49.97887" lon="2.40596">
        <ele>76</ele>
        <time>2022-04-20T14:02:39Z</time>
      </trkpt>
      <trkpt lat="49.97887" lon="2.40597">
        <ele>76</ele>
        <time>2022-04-20T14:02:40Z</time>
      </trkpt>
      <trkpt lat="49.97887" lon="2.406">
        <ele>76</ele>
        <time>2022-04-20T14:02:42Z</time>
      </trkpt>
      <trkpt lat="49.97886" lon="2.40602">
        <ele>76</ele>
        <time>2022-04-20T14:02:43Z</time>
      </trkpt>
      <trkpt lat="49.97886" lon="2.40604">
        <ele>76</ele>
        <time>2022-04-20T14:02:44Z</time>
      </trkpt>
      <trkpt lat="49.97886" lon="2.40606">
        <ele>76.1</ele>
        <time>2022-04-20T14:02:45Z</time>
      </trkpt>
      <trkpt lat="49.97886" lon="2.40609">
        <ele>76.1</ele>
        <time>2022-04-20T14:02:46Z</time>
      </trkpt>
      <trkpt lat="49.97886" lon="2.4061">
        <ele>76.1</ele>
        <time>2022-04-20T14:02:47Z</time>
      </trkpt>
      <trkpt lat="49.97886" lon="2.40611">
        <ele>76.1</ele>
        <time>2022-04-20T14:02:48Z</time>
      </trkpt>
      <trkpt lat="49.97886" lon="2.40615">
        <ele>76.1</ele>
        <time>2022-04-20T14:02:49Z</time>
      </trkpt>
      <trkpt lat="49.97886" lon="2.40616">
        <ele>76.2</ele>
        <time>2022-04-20T14:02:50Z</time>
      </trkpt>
      <trkpt lat="49.97886" lon="2.40617">
        <ele>76.2</ele>
        <time>2022-04-20T14:02:51Z</time>
      </trkpt>
      <trkpt lat="49.97885" lon="2.4062">
        <ele>76.2</ele>
        <time>2022-04-20T14:02:53Z</time>
      </trkpt>
      <trkpt lat="49.97885" lon="2.40622">
        <ele>76.2</ele>
        <time>2022-04-20T14:02:54Z</time>
      </trkpt>
      <trkpt lat="49.97885" lon="2.40623">
        <ele>76.2</ele>
        <time>2022-04-20T14:02:55Z</time>
      </trkpt>
      <trkpt lat="49.97885" lon="2.40625">
        <ele>76.2</ele>
        <time>2022-04-20T14:02:56Z</time>
      </trkpt>
      <trkpt lat="49.97885" lon="2.40627">
        <ele>76.2</ele>
        <time>2022-04-20T14:02:57Z</time>
      </trkpt>
      <trkpt lat="49.97885" lon="2.40628">
        <ele>76.3</ele>
        <time>2022-04-20T14:02:58Z</time>
      </trkpt>
      <trkpt lat="49.97884" lon="2.40632">
        <ele>76.3</ele>
        <time>2022-04-20T14:02:59Z</time>
      </trkpt>
      <trkpt lat="49.97884" lon="2.40633">
        <ele>76.3</ele>
        <time>2022-04-20T14:03:01Z</time>
      </trkpt>
      <trkpt lat="49.97884" lon="2.40634">
        <ele>76.3</ele>
        <time>2022-04-20T14:03:02Z</time>
      </trkpt>
      <trkpt lat="49.97884" lon="2.40636">
        <ele>76.3</ele>
        <time>2022-04-20T14:03:03Z</time>
      </trkpt>
      <trkpt lat="49.97884" lon="2.40638">
        <ele>76.3</ele>
        <time>2022-04-20T14:03:04Z</time>
      </trkpt>
      <trkpt lat="49.97884" lon="2.40641">
        <ele>76.4</ele>
        <time>2022-04-20T14:03:06Z</time>
      </trkpt>
      <trkpt lat="49.97883" lon="2.40644">
        <ele>76.4</ele>
        <time>2022-04-20T14:03:07Z</time>
      </trkpt>
      <trkpt lat="49.97883" lon="2.40646">
        <ele>76.4</ele>
        <time>2022-04-20T14:03:08Z</time>
      </trkpt>
      <trkpt lat="49.97883" lon="2.40647">
        <ele>76.4</ele>
        <time>2022-04-20T14:03:09Z</time>
      </trkpt>
      <trkpt lat="49.97883" lon="2.4065">
        <ele>76.5</ele>
        <time>2022-04-20T14:03:10Z</time>
      </trkpt>
      <trkpt lat="49.97883" lon="2.40651">
        <ele>76.5</ele>
        <time>2022-04-20T14:03:11Z</time>
      </trkpt>
      <trkpt lat="49.97883" lon="2.40653">
        <ele>76.5</ele>
        <time>2022-04-20T14:03:12Z</time>
      </trkpt>
      <trkpt lat="49.97883" lon="2.40655">
        <ele>76.5</ele>
        <time>2022-04-20T14:03:13Z</time>
      </trkpt>
      <trkpt lat="49.97883" lon="2.40656">
        <ele>76.5</ele>
        <time>2022-04-20T14:03:15Z</time>
      </trkpt>
      <trkpt lat="49.97882" lon="2.40658">
        <ele>76.5</ele>
        <time>2022-04-20T14:03:16Z</time>
      </trkpt>
      <trkpt lat="49.97882" lon="2.40661">
        <ele>76.6</ele>
        <time>2022-04-20T14:03:17Z</time>
      </trkpt>
      <trkpt lat="49.97882" lon="2.40662">
        <ele>76.6</ele>
        <time>2022-04-20T14:03:18Z</time>
      </trkpt>
      <trkpt lat="49.97882" lon="2.40664">
        <ele>76.6</ele>
        <time>2022-04-20T14:03:19Z</time>
      </trkpt>
      <trkpt lat="49.97881" lon="2.40667">
        <ele>76.6</ele>
        <time>2022-04-20T14:03:20Z</time>
      </trkpt>
      <trkpt lat="49.97881" lon="2.40668">
        <ele>76.7</ele>
        <time>2022-04-20T14:03:21Z</time>
      </trkpt>
      <trkpt lat="49.97881" lon="2.40669">
        <ele>76.7</ele>
        <time>2022-04-20T14:03:22Z</time>
      </trkpt>
      <trkpt lat="49.9788" lon="2.40671">
        <ele>76.7</ele>
        <time>2022-04-20T14:03:24Z</time>
      </trkpt>
      <trkpt lat="49.9788" lon="2.40673">
        <ele>76.7</ele>
        <time>2022-04-20T14:03:25Z</time>
      </trkpt>
      <trkpt lat="49.9788" lon="2.40675">
        <ele>76.7</ele>
        <time>2022-04-20T14:03:26Z</time>
      </trkpt>
      <trkpt lat="49.9788" lon="2.40677">
        <ele>76.7</ele>
        <time>2022-04-20T14:03:27Z</time>
      </trkpt>
      <trkpt lat="49.97879" lon="2.40678">
        <ele>76.8</ele>
        <time>2022-04-20T14:03:28Z</time>
      </trkpt>
      <trkpt lat="49.97879" lon="2.4068">
        <ele>76.8</ele>
        <time>2022-04-20T14:03:29Z</time>
      </trkpt>
      <trkpt lat="49.97879" lon="2.40684">
        <ele>76.8</ele>
        <time>2022-04-20T14:03:30Z</time>
      </trkpt>
      <trkpt lat="49.97878" lon="2.40685">
        <ele>76.8</ele>
        <time>2022-04-20T14:03:31Z</time>
      </trkpt>
      <trkpt lat="49.97878" lon="2.40686">
        <ele>76.8</ele>
        <time>2022-04-20T14:03:32Z</time>
      </trkpt>
      <trkpt lat="49.97877" lon="2.4069">
        <ele>76.8</ele>
        <time>2022-04-20T14:03:34Z</time>
      </trkpt>
      <trkpt lat="49.97877" lon="2.40691">
        <ele>76.8</ele>
        <time>2022-04-20T14:03:35Z</time>
      </trkpt>
      <trkpt lat="49.97877" lon="2.40692">
        <ele>76.8</ele>
        <time>2022-04-20T14:03:36Z</time>
      </trkpt>
      <trkpt lat="49.97876" lon="2.40695">
        <ele>76.9</ele>
        <time>2022-04-20T14:03:37Z</time>
      </trkpt>
      <trkpt lat="49.97876" lon="2.40697">
        <ele>76.9</ele>
        <time>2022-04-20T14:03:38Z</time>
      </trkpt>
      <trkpt lat="49.97875" lon="2.40698">
        <ele>76.9</ele>
        <time>2022-04-20T14:03:39Z</time>
      </trkpt>
      <trkpt lat="49.97875" lon="2.407">
        <ele>76.9</ele>
        <time>2022-04-20T14:03:40Z</time>
      </trkpt>
      <trkpt lat="49.97875" lon="2.40702">
        <ele>76.9</ele>
        <time>2022-04-20T14:03:41Z</time>
      </trkpt>
      <trkpt lat="49.97874" lon="2.40706">
        <ele>76.9</ele>
        <time>2022-04-20T14:03:43Z</time>
      </trkpt>
      <trkpt lat="49.97874" lon="2.40707">
        <ele>76.9</ele>
        <time>2022-04-20T14:03:44Z</time>
      </trkpt>
      <trkpt lat="49.97873" lon="2.40708">
        <ele>76.9</ele>
        <time>2022-04-20T14:03:45Z</time>
      </trkpt>
      <trkpt lat="49.97873" lon="2.40711">
        <ele>77</ele>
        <time>2022-04-20T14:03:46Z</time>
      </trkpt>
      <trkpt lat="49.97872" lon="2.40713">
        <ele>77</ele>
        <time>2022-04-20T14:03:47Z</time>
      </trkpt>
      <trkpt lat="49.97872" lon="2.40714">
        <ele>77</ele>
        <time>2022-04-20T14:03:48Z</time>
      </trkpt>
      <trkpt lat="49.97872" lon="2.40716">
        <ele>77</ele>
        <time>2022-04-20T14:03:49Z</time>
      </trkpt>
      <trkpt lat="49.97871" lon="2.40717">
        <ele>77</ele>
        <time>2022-04-20T14:03:51Z</time>
      </trkpt>
      <trkpt lat="49.97871" lon="2.40719">
        <ele>77</ele>
        <time>2022-04-20T14:03:52Z</time>
      </trkpt>
      <trkpt lat="49.9787" lon="2.4072">
        <ele>77.1</ele>
        <time>2022-04-20T14:03:53Z</time>
      </trkpt>
      <trkpt lat="49.97869" lon="2.40721">
        <ele>77.1</ele>
        <time>2022-04-20T14:03:54Z</time>
      </trkpt>
      <trkpt lat="49.97869" lon="2.40723">
        <ele>77.1</ele>
        <time>2022-04-20T14:03:55Z</time>
      </trkpt>
      <trkpt lat="49.97868" lon="2.40724">
        <ele>77.1</ele>
        <time>2022-04-20T14:03:57Z</time>
      </trkpt>
      <trkpt lat="49.97867" lon="2.40725">
        <ele>77.1</ele>
        <time>2022-04-20T14:03:58Z</time>
      </trkpt>
      <trkpt lat="49.97867" lon="2.40727">
        <ele>77.1</ele>
        <time>2022-04-20T14:03:59Z</time>
      </trkpt>
      <trkpt lat="49.97866" lon="2.40728">
        <ele>77.2</ele>
        <time>2022-04-20T14:04:00Z</time>
      </trkpt>
      <trkpt lat="49.97866" lon="2.40729">
        <ele>77.2</ele>
        <time>2022-04-20T14:04:01Z</time>
      </trkpt>
      <trkpt lat="49.97865" lon="2.4073">
        <ele>77.2</ele>
        <time>2022-04-20T14:04:02Z</time>
      </trkpt>
      <trkpt lat="49.97864" lon="2.40732">
        <ele>77.2</ele>
        <time>2022-04-20T14:04:03Z</time>
      </trkpt>
      <trkpt lat="49.97863" lon="2.40733">
        <ele>77.2</ele>
        <time>2022-04-20T14:04:04Z</time>
      </trkpt>
      <trkpt lat="49.97862" lon="2.40736">
        <ele>77.3</ele>
        <time>2022-04-20T14:04:06Z</time>
      </trkpt>
      <trkpt lat="49.97861" lon="2.40737">
        <ele>77.3</ele>
        <time>2022-04-20T14:04:07Z</time>
      </trkpt>
      <trkpt lat="49.97861" lon="2.40738">
        <ele>77.3</ele>
        <time>2022-04-20T14:04:08Z</time>
      </trkpt>
      <trkpt lat="49.9786" lon="2.40739">
        <ele>77.3</ele>
        <time>2022-04-20T14:04:09Z</time>
      </trkpt>
      <trkpt lat="49.97859" lon="2.4074">
        <ele>77.3</ele>
        <time>2022-04-20T14:04:10Z</time>
      </trkpt>
      <trkpt lat="49.97858" lon="2.40742">
        <ele>77.4</ele>
        <time>2022-04-20T14:04:11Z</time>
      </trkpt>
      <trkpt lat="49.97858" lon="2.40743">
        <ele>77.4</ele>
        <time>2022-04-20T14:04:12Z</time>
      </trkpt>
      <trkpt lat="49.97857" lon="2.40745">
        <ele>77.4</ele>
        <time>2022-04-20T14:04:13Z</time>
      </trkpt>
      <trkpt lat="49.97856" lon="2.40746">
        <ele>77.4</ele>
        <time>2022-04-20T14:04:14Z</time>
      </trkpt>
      <trkpt lat="49.97855" lon="2.40748">
        <ele>77.4</ele>
        <time>2022-04-20T14:04:15Z</time>
      </trkpt>
      <trkpt lat="49.97855" lon="2.40749">
        <ele>77.5</ele>
        <time>2022-04-20T14:04:16Z</time>
      </trkpt>
      <trkpt lat="49.97854" lon="2.4075">
        <ele>77.5</ele>
        <time>2022-04-20T14:04:17Z</time>
      </trkpt>
      <trkpt lat="49.97853" lon="2.40752">
        <ele>77.5</ele>
        <time>2022-04-20T14:04:18Z</time>
      </trkpt>
      <trkpt lat="49.97852" lon="2.40754">
        <ele>77.6</ele>
        <time>2022-04-20T14:04:19Z</time>
      </trkpt>
      <trkpt lat="49.97851" lon="2.40755">
        <ele>77.6</ele>
        <time>2022-04-20T14:04:21Z</time>
      </trkpt>
      <trkpt lat="49.9785" lon="2.40757">
        <ele>77.6</ele>
        <time>2022-04-20T14:04:22Z</time>
      </trkpt>
      <trkpt lat="49.9785" lon="2.40758">
        <ele>77.6</ele>
        <time>2022-04-20T14:04:23Z</time>
      </trkpt>
      <trkpt lat="49.97849" lon="2.40759">
        <ele>77.7</ele>
        <time>2022-04-20T14:04:24Z</time>
      </trkpt>
      <trkpt lat="49.97849" lon="2.40761">
        <ele>77.7</ele>
        <time>2022-04-20T14:04:25Z</time>
      </trkpt>
      <trkpt lat="49.97848" lon="2.40762">
        <ele>77.7</ele>
        <time>2022-04-20T14:04:26Z</time>
      </trkpt>
      <trkpt lat="49.97847" lon="2.40764">
        <ele>77.7</ele>
        <time>2022-04-20T14:04:27Z</time>
      </trkpt>
      <trkpt lat="49.97846" lon="2.40765">
        <ele>77.8</ele>
        <time>2022-04-20T14:04:29Z</time>
      </trkpt>
      <trkpt lat="49.97845" lon="2.40766">
        <ele>77.8</ele>
        <time>2022-04-20T14:04:30Z</time>
      </trkpt>
      <trkpt lat="49.97844" lon="2.40767">
        <ele>77.8</ele>
        <time>2022-04-20T14:04:31Z</time>
      </trkpt>
      <trkpt lat="49.97844" lon="2.40767">
        <ele>77.8</ele>
        <time>2022-04-20T14:04:32Z</time>
      </trkpt>
      <trkpt lat="49.97843" lon="2.40768">
        <ele>77.9</ele>
        <time>2022-04-20T14:04:33Z</time>
      </trkpt>
      <trkpt lat="49.97842" lon="2.40769">
        <ele>77.9</ele>
        <time>2022-04-20T14:04:34Z</time>
      </trkpt>
      <trkpt lat="49.97841" lon="2.4077">
        <ele>77.9</ele>
        <time>2022-04-20T14:04:35Z</time>
      </trkpt>
      <trkpt lat="49.9784" lon="2.40771">
        <ele>77.9</ele>
        <time>2022-04-20T14:04:36Z</time>
      </trkpt>
      <trkpt lat="49.9784" lon="2.40772">
        <ele>78</ele>
        <time>2022-04-20T14:04:38Z</time>
      </trkpt>
      <trkpt lat="49.97839" lon="2.40774">
        <ele>78</ele>
        <time>2022-04-20T14:04:39Z</time>
      </trkpt>
      <trkpt lat="49.97838" lon="2.40775">
        <ele>78</ele>
        <time>2022-04-20T14:04:40Z</time>
      </trkpt>
      <trkpt lat="49.97837" lon="2.40776">
        <ele>78</ele>
        <time>2022-04-20T14:04:41Z</time>
      </trkpt>
      <trkpt lat="49.97837" lon="2.40778">
        <ele>78.1</ele>
        <time>2022-04-20T14:04:43Z</time>
      </trkpt>
      <trkpt lat="49.97836" lon="2.40779">
        <ele>78.1</ele>
        <time>2022-04-20T14:04:44Z</time>
      </trkpt>
      <trkpt lat="49.97835" lon="2.4078">
        <ele>78.1</ele>
        <time>2022-04-20T14:04:45Z</time>
      </trkpt>
      <trkpt lat="49.97835" lon="2.40782">
        <ele>78.2</ele>
        <time>2022-04-20T14:04:46Z</time>
      </trkpt>
      <trkpt lat="49.97834" lon="2.40783">
        <ele>78.2</ele>
        <time>2022-04-20T14:04:47Z</time>
      </trkpt>
      <trkpt lat="49.97834" lon="2.40785">
        <ele>78.2</ele>
        <time>2022-04-20T14:04:49Z</time>
      </trkpt>
      <trkpt lat="49.97833" lon="2.40786">
        <ele>78.2</ele>
        <time>2022-04-20T14:04:50Z</time>
      </trkpt>
      <trkpt lat="49.97833" lon="2.40788">
        <ele>78.3</ele>
        <time>2022-04-20T14:04:51Z</time>
      </trkpt>
      <trkpt lat="49.97832" lon="2.40789">
        <ele>78.3</ele>
        <time>2022-04-20T14:04:52Z</time>
      </trkpt>
      <trkpt lat="49.97831" lon="2.4079">
        <ele>78.3</ele>
        <time>2022-04-20T14:04:53Z</time>
      </trkpt>
      <trkpt lat="49.97831" lon="2.40791">
        <ele>78.3</ele>
        <time>2022-04-20T14:04:54Z</time>
      </trkpt>
      <trkpt lat="49.9783" lon="2.40792">
        <ele>78.3</ele>
        <time>2022-04-20T14:04:55Z</time>
      </trkpt>
      <trkpt lat="49.9783" lon="2.40794">
        <ele>78.4</ele>
        <time>2022-04-20T14:04:56Z</time>
      </trkpt>
      <trkpt lat="49.97829" lon="2.40795">
        <ele>78.4</ele>
        <time>2022-04-20T14:04:57Z</time>
      </trkpt>
      <trkpt lat="49.97828" lon="2.40797">
        <ele>78.4</ele>
        <time>2022-04-20T14:04:58Z</time>
      </trkpt>
      <trkpt lat="49.97827" lon="2.40799">
        <ele>78.4</ele>
        <time>2022-04-20T14:05:00Z</time>
      </trkpt>
      <trkpt lat="49.97826" lon="2.408">
        <ele>78.5</ele>
        <time>2022-04-20T14:05:01Z</time>
      </trkpt>
      <trkpt lat="49.97826" lon="2.40801">
        <ele>78.5</ele>
        <time>2022-04-20T14:05:02Z</time>
      </trkpt>
      <trkpt lat="49.97825" lon="2.40804">
        <ele>78.5</ele>
        <time>2022-04-20T14:05:04Z</time>
      </trkpt>
      <trkpt lat="49.97824" lon="2.40805">
        <ele>78.5</ele>
        <time>2022-04-20T14:05:05Z</time>
      </trkpt>
      <trkpt lat="49.97823" lon="2.40807">
        <ele>78.5</ele>
        <time>2022-04-20T14:05:06Z</time>
      </trkpt>
      <trkpt lat="49.97822" lon="2.40809">
        <ele>78.6</ele>
        <time>2022-04-20T14:05:07Z</time>
      </trkpt>
      <trkpt lat="49.97821" lon="2.4081">
        <ele>78.6</ele>
        <time>2022-04-20T14:05:08Z</time>
      </trkpt>
      <trkpt lat="49.9782" lon="2.40811">
        <ele>78.6</ele>
        <time>2022-04-20T14:05:10Z</time>
      </trkpt>
      <trkpt lat="49.9782" lon="2.40813">
        <ele>78.6</ele>
        <time>2022-04-20T14:05:11Z</time>
      </trkpt>
      <trkpt lat="49.97818" lon="2.40815">
        <ele>78.7</ele>
        <time>2022-04-20T14:05:12Z</time>
      </trkpt>
      <trkpt lat="49.97818" lon="2.40816">
        <ele>78.7</ele>
        <time>2022-04-20T14:05:13Z</time>
      </trkpt>
      <trkpt lat="49.97817" lon="2.40818">
        <ele>78.7</ele>
        <time>2022-04-20T14:05:14Z</time>
      </trkpt>
      <trkpt lat="49.97816" lon="2.4082">
        <ele>78.7</ele>
        <time>2022-04-20T14:05:15Z</time>
      </trkpt>
      <trkpt lat="49.97816" lon="2.40821">
        <ele>78.7</ele>
        <time>2022-04-20T14:05:17Z</time>
      </trkpt>
      <trkpt lat="49.97815" lon="2.40822">
        <ele>78.8</ele>
        <time>2022-04-20T14:05:18Z</time>
      </trkpt>
      <trkpt lat="49.97814" lon="2.40824">
        <ele>78.8</ele>
        <time>2022-04-20T14:05:19Z</time>
      </trkpt>
      <trkpt lat="49.97814" lon="2.40825">
        <ele>78.8</ele>
        <time>2022-04-20T14:05:20Z</time>
      </trkpt>
      <trkpt lat="49.97813" lon="2.40826">
        <ele>78.8</ele>
        <time>2022-04-20T14:05:21Z</time>
      </trkpt>
      <trkpt lat="49.97812" lon="2.40829">
        <ele>78.8</ele>
        <time>2022-04-20T14:05:22Z</time>
      </trkpt>
      <trkpt lat="49.97811" lon="2.4083">
        <ele>78.8</ele>
        <time>2022-04-20T14:05:23Z</time>
      </trkpt>
      <trkpt lat="49.97811" lon="2.40831">
        <ele>78.8</ele>
        <time>2022-04-20T14:05:24Z</time>
      </trkpt>
      <trkpt lat="49.9781" lon="2.40832">
        <ele>78.8</ele>
        <time>2022-04-20T14:05:25Z</time>
      </trkpt>
      <trkpt lat="49.97809" lon="2.40834">
        <ele>78.9</ele>
        <time>2022-04-20T14:05:27Z</time>
      </trkpt>
      <trkpt lat="49.97809" lon="2.40835">
        <ele>78.9</ele>
        <time>2022-04-20T14:05:28Z</time>
      </trkpt>
      <trkpt lat="49.97808" lon="2.40839">
        <ele>78.9</ele>
        <time>2022-04-20T14:05:29Z</time>
      </trkpt>
      <trkpt lat="49.97808" lon="2.4084">
        <ele>78.9</ele>
        <time>2022-04-20T14:05:30Z</time>
      </trkpt>
      <trkpt lat="49.97807" lon="2.40841">
        <ele>78.9</ele>
        <time>2022-04-20T14:05:31Z</time>
      </trkpt>
      <trkpt lat="49.97807" lon="2.40843">
        <ele>78.9</ele>
        <time>2022-04-20T14:05:32Z</time>
      </trkpt>
      <trkpt lat="49.97806" lon="2.40845">
        <ele>78.9</ele>
        <time>2022-04-20T14:05:33Z</time>
      </trkpt>
      <trkpt lat="49.97806" lon="2.40847">
        <ele>78.9</ele>
        <time>2022-04-20T14:05:35Z</time>
      </trkpt>
      <trkpt lat="49.97805" lon="2.40848">
        <ele>79</ele>
        <time>2022-04-20T14:05:36Z</time>
      </trkpt>
      <trkpt lat="49.97804" lon="2.40851">
        <ele>79</ele>
        <time>2022-04-20T14:05:38Z</time>
      </trkpt>
      <trkpt lat="49.97804" lon="2.40853">
        <ele>79</ele>
        <time>2022-04-20T14:05:39Z</time>
      </trkpt>
      <trkpt lat="49.97803" lon="2.40854">
        <ele>79</ele>
        <time>2022-04-20T14:05:40Z</time>
      </trkpt>
      <trkpt lat="49.97803" lon="2.40856">
        <ele>79</ele>
        <time>2022-04-20T14:05:41Z</time>
      </trkpt>
      <trkpt lat="49.97802" lon="2.40858">
        <ele>79</ele>
        <time>2022-04-20T14:05:42Z</time>
      </trkpt>
      <trkpt lat="49.97802" lon="2.4086">
        <ele>79</ele>
        <time>2022-04-20T14:05:43Z</time>
      </trkpt>
      <trkpt lat="49.97801" lon="2.40861">
        <ele>79</ele>
        <time>2022-04-20T14:05:45Z</time>
      </trkpt>
      <trkpt lat="49.97801" lon="2.40863">
        <ele>79</ele>
        <time>2022-04-20T14:05:46Z</time>
      </trkpt>
      <trkpt lat="49.978" lon="2.40865">
        <ele>79</ele>
        <time>2022-04-20T14:05:47Z</time>
      </trkpt>
      <trkpt lat="49.978" lon="2.40866">
        <ele>79</ele>
        <time>2022-04-20T14:05:48Z</time>
      </trkpt>
      <trkpt lat="49.97799" lon="2.40868">
        <ele>79</ele>
        <time>2022-04-20T14:05:49Z</time>
      </trkpt>
      <trkpt lat="49.97799" lon="2.4087">
        <ele>79</ele>
        <time>2022-04-20T14:05:50Z</time>
      </trkpt>
      <trkpt lat="49.97798" lon="2.40872">
        <ele>79</ele>
        <time>2022-04-20T14:05:52Z</time>
      </trkpt>
      <trkpt lat="49.97797" lon="2.40873">
        <ele>79</ele>
        <time>2022-04-20T14:05:53Z</time>
      </trkpt>
      <trkpt lat="49.97797" lon="2.40875">
        <ele>79</ele>
        <time>2022-04-20T14:05:54Z</time>
      </trkpt>
      <trkpt lat="49.97796" lon="2.40876">
        <ele>79</ele>
        <time>2022-04-20T14:05:55Z</time>
      </trkpt>
      <trkpt lat="49.97795" lon="2.40877">
        <ele>79</ele>
        <time>2022-04-20T14:05:56Z</time>
      </trkpt>
      <trkpt lat="49.97795" lon="2.40879">
        <ele>79</ele>
        <time>2022-04-20T14:05:57Z</time>
      </trkpt>
      <trkpt lat="49.97794" lon="2.4088">
        <ele>79</ele>
        <time>2022-04-20T14:05:58Z</time>
      </trkpt>
      <trkpt lat="49.97793" lon="2.40884">
        <ele>79</ele>
        <time>2022-04-20T14:05:59Z</time>
      </trkpt>
      <trkpt lat="49.97792" lon="2.40885">
        <ele>79</ele>
        <time>2022-04-20T14:06:01Z</time>
      </trkpt>
      <trkpt lat="49.97792" lon="2.40886">
        <ele>79</ele>
        <time>2022-04-20T14:06:02Z</time>
      </trkpt>
      <trkpt lat="49.97791" lon="2.40888">
        <ele>79</ele>
        <time>2022-04-20T14:06:03Z</time>
      </trkpt>
      <trkpt lat="49.9779" lon="2.40889">
        <ele>79</ele>
        <time>2022-04-20T14:06:04Z</time>
      </trkpt>
      <trkpt lat="49.97789" lon="2.40891">
        <ele>79</ele>
        <time>2022-04-20T14:06:05Z</time>
      </trkpt>
      <trkpt lat="49.97788" lon="2.40892">
        <ele>79</ele>
        <time>2022-04-20T14:06:07Z</time>
      </trkpt>
      <trkpt lat="49.97787" lon="2.40892">
        <ele>79</ele>
        <time>2022-04-20T14:06:08Z</time>
      </trkpt>
      <trkpt lat="49.97787" lon="2.40894">
        <ele>79</ele>
        <time>2022-04-20T14:06:09Z</time>
      </trkpt>
      <trkpt lat="49.97786" lon="2.40895">
        <ele>79</ele>
        <time>2022-04-20T14:06:10Z</time>
      </trkpt>
      <trkpt lat="49.97785" lon="2.40897">
        <ele>79</ele>
        <time>2022-04-20T14:06:11Z</time>
      </trkpt>
      <trkpt lat="49.97784" lon="2.40899">
        <ele>79</ele>
        <time>2022-04-20T14:06:12Z</time>
      </trkpt>
      <trkpt lat="49.97783" lon="2.409">
        <ele>79</ele>
        <time>2022-04-20T14:06:13Z</time>
      </trkpt>
      <trkpt lat="49.97783" lon="2.40901">
        <ele>79</ele>
        <time>2022-04-20T14:06:14Z</time>
      </trkpt>
      <trkpt lat="49.97782" lon="2.40903">
        <ele>78.9</ele>
        <time>2022-04-20T14:06:16Z</time>
      </trkpt>
      <trkpt lat="49.97781" lon="2.40905">
        <ele>78.9</ele>
        <time>2022-04-20T14:06:17Z</time>
      </trkpt>
      <trkpt lat="49.97781" lon="2.40906">
        <ele>78.9</ele>
        <time>2022-04-20T14:06:18Z</time>
      </trkpt>
      <trkpt lat="49.9778" lon="2.40907">
        <ele>78.9</ele>
        <time>2022-04-20T14:06:19Z</time>
      </trkpt>
      <trkpt lat="49.97779" lon="2.40909">
        <ele>78.9</ele>
        <time>2022-04-20T14:06:20Z</time>
      </trkpt>
      <trkpt lat="49.97779" lon="2.40912">
        <ele>78.9</ele>
        <time>2022-04-20T14:06:21Z</time>
      </trkpt>
      <trkpt lat="49.97778" lon="2.40913">
        <ele>78.9</ele>
        <time>2022-04-20T14:06:22Z</time>
      </trkpt>
      <trkpt lat="49.97778" lon="2.40914">
        <ele>78.9</ele>
        <time>2022-04-20T14:06:23Z</time>
      </trkpt>
      <trkpt lat="49.97777" lon="2.40916">
        <ele>78.9</ele>
        <time>2022-04-20T14:06:24Z</time>
      </trkpt>
      <trkpt lat="49.97777" lon="2.40918">
        <ele>78.9</ele>
        <time>2022-04-20T14:06:26Z</time>
      </trkpt>
      <trkpt lat="49.97777" lon="2.40919">
        <ele>78.9</ele>
        <time>2022-04-20T14:06:27Z</time>
      </trkpt>
      <trkpt lat="49.97776" lon="2.40921">
        <ele>78.9</ele>
        <time>2022-04-20T14:06:28Z</time>
      </trkpt>
      <trkpt lat="49.97776" lon="2.40923">
        <ele>78.8</ele>
        <time>2022-04-20T14:06:29Z</time>
      </trkpt>
      <trkpt lat="49.97776" lon="2.40925">
        <ele>78.8</ele>
        <time>2022-04-20T14:06:30Z</time>
      </trkpt>
      <trkpt lat="49.97776" lon="2.40927">
        <ele>78.8</ele>
        <time>2022-04-20T14:06:31Z</time>
      </trkpt>
      <trkpt lat="49.97775" lon="2.40928">
        <ele>78.8</ele>
        <time>2022-04-20T14:06:32Z</time>
      </trkpt>
      <trkpt lat="49.97775" lon="2.4093">
        <ele>78.8</ele>
        <time>2022-04-20T14:06:33Z</time>
      </trkpt>
      <trkpt lat="49.97775" lon="2.40932">
        <ele>78.8</ele>
        <time>2022-04-20T14:06:35Z</time>
      </trkpt>
      <trkpt lat="49.97775" lon="2.40934">
        <ele>78.8</ele>
        <time>2022-04-20T14:06:36Z</time>
      </trkpt>
      <trkpt lat="49.97775" lon="2.40935">
        <ele>78.8</ele>
        <time>2022-04-20T14:06:37Z</time>
      </trkpt>
      <trkpt lat="49.97775" lon="2.40937">
        <ele>78.7</ele>
        <time>2022-04-20T14:06:38Z</time>
      </trkpt>
      <trkpt lat="49.97775" lon="2.40939">
        <ele>78.7</ele>
        <time>2022-04-20T14:06:39Z</time>
      </trkpt>
      <trkpt lat="49.97775" lon="2.40941">
        <ele>78.7</ele>
        <time>2022-04-20T14:06:40Z</time>
      </trkpt>
      <trkpt lat="49.97775" lon="2.40942">
        <ele>78.7</ele>
        <time>2022-04-20T14:06:42Z</time>
      </trkpt>
      <trkpt lat="49.97775" lon="2.40944">
        <ele>78.7</ele>
        <time>2022-04-20T14:06:43Z</time>
      </trkpt>
      <trkpt lat="49.97775" lon="2.40946">
        <ele>78.7</ele>
        <time>2022-04-20T14:06:44Z</time>
      </trkpt>
      <trkpt lat="49.97775" lon="2.40949">
        <ele>78.7</ele>
        <time>2022-04-20T14:06:45Z</time>
      </trkpt>
      <trkpt lat="49.97775" lon="2.4095">
        <ele>78.7</ele>
        <time>2022-04-20T14:06:46Z</time>
      </trkpt>
      <trkpt lat="49.97776" lon="2.40952">
        <ele>78.7</ele>
        <time>2022-04-20T14:06:47Z</time>
      </trkpt>
      <trkpt lat="49.97776" lon="2.40953">
        <ele>78.6</ele>
        <time>2022-04-20T14:06:49Z</time>
      </trkpt>
      <trkpt lat="49.97776" lon="2.40955">
        <ele>78.6</ele>
        <time>2022-04-20T14:06:50Z</time>
      </trkpt>
      <trkpt lat="49.97776" lon="2.40957">
        <ele>78.6</ele>
        <time>2022-04-20T14:06:51Z</time>
      </trkpt>
      <trkpt lat="49.97776" lon="2.4096">
        <ele>78.6</ele>
        <time>2022-04-20T14:06:52Z</time>
      </trkpt>
      <trkpt lat="49.97776" lon="2.40962">
        <ele>78.6</ele>
        <time>2022-04-20T14:06:53Z</time>
      </trkpt>
      <trkpt lat="49.97776" lon="2.40963">
        <ele>78.6</ele>
        <time>2022-04-20T14:06:54Z</time>
      </trkpt>
      <trkpt lat="49.97777" lon="2.40965">
        <ele>78.6</ele>
        <time>2022-04-20T14:06:56Z</time>
      </trkpt>
      <trkpt lat="49.97777" lon="2.40966">
        <ele>78.6</ele>
        <time>2022-04-20T14:06:57Z</time>
      </trkpt>
      <trkpt lat="49.97777" lon="2.40968">
        <ele>78.6</ele>
        <time>2022-04-20T14:06:58Z</time>
      </trkpt>
      <trkpt lat="49.97777" lon="2.40969">
        <ele>78.6</ele>
        <time>2022-04-20T14:06:59Z</time>
      </trkpt>
      <trkpt lat="49.97777" lon="2.40971">
        <ele>78.6</ele>
        <time>2022-04-20T14:07:00Z</time>
      </trkpt>
      <trkpt lat="49.97777" lon="2.40973">
        <ele>78.5</ele>
        <time>2022-04-20T14:07:01Z</time>
      </trkpt>
      <trkpt lat="49.97777" lon="2.40975">
        <ele>78.5</ele>
        <time>2022-04-20T14:07:03Z</time>
      </trkpt>
      <trkpt lat="49.97778" lon="2.40976">
        <ele>78.5</ele>
        <time>2022-04-20T14:07:04Z</time>
      </trkpt>
      <trkpt lat="49.97778" lon="2.40977">
        <ele>78.5</ele>
        <time>2022-04-20T14:07:05Z</time>
      </trkpt>
      <trkpt lat="49.97778" lon="2.40979">
        <ele>78.5</ele>
        <time>2022-04-20T14:07:06Z</time>
      </trkpt>
      <trkpt lat="49.97778" lon="2.4098">
        <ele>78.5</ele>
        <time>2022-04-20T14:07:07Z</time>
      </trkpt>
      <trkpt lat="49.97778" lon="2.40981">
        <ele>78.5</ele>
        <time>2022-04-20T14:07:08Z</time>
      </trkpt>
      <trkpt lat="49.97779" lon="2.40983">
        <ele>78.5</ele>
        <time>2022-04-20T14:07:10Z</time>
      </trkpt>
      <trkpt lat="49.97779" lon="2.40984">
        <ele>78.5</ele>
        <time>2022-04-20T14:07:11Z</time>
      </trkpt>
      <trkpt lat="49.97779" lon="2.40986">
        <ele>78.5</ele>
        <time>2022-04-20T14:07:12Z</time>
      </trkpt>
      <trkpt lat="49.9778" lon="2.40988">
        <ele>78.5</ele>
        <time>2022-04-20T14:07:14Z</time>
      </trkpt>
      <trkpt lat="49.97779" lon="2.40989">
        <ele>78.5</ele>
        <time>2022-04-20T14:07:16Z</time>
      </trkpt>
      <trkpt lat="49.97778" lon="2.40988">
        <ele>78.5</ele>
        <time>2022-04-20T14:07:17Z</time>
      </trkpt>
      <trkpt lat="49.97778" lon="2.40988">
        <ele>78.4</ele>
        <time>2022-04-20T14:07:18Z</time>
      </trkpt>
      <trkpt lat="49.97777" lon="2.40987">
        <ele>78.4</ele>
        <time>2022-04-20T14:07:20Z</time>
      </trkpt>
      <trkpt lat="49.97777" lon="2.40986">
        <ele>78.4</ele>
        <time>2022-04-20T14:07:21Z</time>
      </trkpt>
      <trkpt lat="49.97776" lon="2.40986">
        <ele>78.4</ele>
        <time>2022-04-20T14:07:22Z</time>
      </trkpt>
      <trkpt lat="49.97776" lon="2.40986">
        <ele>78.4</ele>
        <time>2022-04-20T14:07:23Z</time>
      </trkpt>
      <trkpt lat="49.97776" lon="2.40986">
        <ele>78.4</ele>
        <time>2022-04-20T14:07:24Z</time>
      </trkpt>
      <trkpt lat="49.97776" lon="2.40985">
        <ele>78.4</ele>
        <time>2022-04-20T14:07:25Z</time>
      </trkpt>
      <trkpt lat="49.97776" lon="2.40985">
        <ele>78.4</ele>
        <time>2022-04-20T14:07:26Z</time>
      </trkpt>
      <trkpt lat="49.97775" lon="2.40985">
        <ele>78.4</ele>
        <time>2022-04-20T14:07:27Z</time>
      </trkpt>
      <trkpt lat="49.97775" lon="2.40985">
        <ele>78.4</ele>
        <time>2022-04-20T14:07:28Z</time>
      </trkpt>
      <trkpt lat="49.97775" lon="2.40985">
        <ele>78.4</ele>
        <time>2022-04-20T14:07:29Z</time>
      </trkpt>
      <trkpt lat="49.97775" lon="2.40985">
        <ele>78.4</ele>
        <time>2022-04-20T14:07:30Z</time>
      </trkpt>
      <trkpt lat="49.97775" lon="2.40985">
        <ele>78.4</ele>
        <time>2022-04-20T14:07:31Z</time>
      </trkpt>
      <trkpt lat="49.97775" lon="2.40985">
        <ele>78.4</ele>
        <time>2022-04-20T14:07:32Z</time>
      </trkpt>
      <trkpt lat="49.97775" lon="2.40985">
        <ele>78.4</ele>
        <time>2022-04-20T14:07:33Z</time>
      </trkpt>
      <trkpt lat="49.97775" lon="2.40985">
        <ele>78.4</ele>
        <time>2022-04-20T14:07:34Z</time>
      </trkpt>
      <trkpt lat="49.97775" lon="2.40985">
        <ele>78.4</ele>
        <time>2022-04-20T14:07:35Z</time>
      </trkpt>
      <trkpt lat="49.97775" lon="2.40985">
        <ele>78.4</ele>
        <time>2022-04-20T14:07:36Z</time>
      </trkpt>
      <trkpt lat="49.97775" lon="2.40985">
        <ele>78.4</ele>
        <time>2022-04-20T14:07:37Z</time>
      </trkpt>
      <trkpt lat="49.97775" lon="2.40985">
        <ele>78.4</ele>
        <time>2022-04-20T14:07:38Z</time>
      </trkpt>
      <trkpt lat="49.97775" lon="2.40985">
        <ele>78.4</ele>
        <time>2022-04-20T14:07:39Z</time>
      </trkpt>
      <trkpt lat="49.97775" lon="2.40985">
        <ele>78.4</ele>
        <time>2022-04-20T14:07:40Z</time>
      </trkpt>
      <trkpt lat="49.97775" lon="2.40985">
        <ele>78.4</ele>
        <time>2022-04-20T14:07:41Z</time>
      </trkpt>
      <trkpt lat="49.97775" lon="2.40985">
        <ele>78.4</ele>
        <time>2022-04-20T14:07:42Z</time>
      </trkpt>
      <trkpt lat="49.97775" lon="2.40985">
        <ele>78.4</ele>
        <time>2022-04-20T14:07:43Z</time>
      </trkpt>
      <trkpt lat="49.97775" lon="2.40985">
        <ele>78.4</ele>
        <time>2022-04-20T14:07:44Z</time>
      </trkpt>
      <trkpt lat="49.97775" lon="2.40985">
        <ele>78.4</ele>
        <time>2022-04-20T14:07:45Z</time>
      </trkpt>
      <trkpt lat="49.97775" lon="2.40985">
        <ele>78.4</ele>
        <time>2022-04-20T14:07:46Z</time>
      </trkpt>
      <trkpt lat="49.97775" lon="2.40985">
        <ele>78.4</ele>
        <time>2022-04-20T14:07:47Z</time>
      </trkpt>
      <trkpt lat="49.97775" lon="2.40985">
        <ele>78.4</ele>
        <time>2022-04-20T14:07:48Z</time>
      </trkpt>
      <trkpt lat="49.97775" lon="2.40985">
        <ele>78.4</ele>
        <time>2022-04-20T14:07:49Z</time>
      </trkpt>
      <trkpt lat="49.97775" lon="2.40985">
        <ele>78.4</ele>
        <time>2022-04-20T14:07:50Z</time>
      </trkpt>
      <trkpt lat="49.97775" lon="2.40985">
        <ele>78.4</ele>
        <time>2022-04-20T14:07:51Z</time>
      </trkpt>
      <trkpt lat="49.97775" lon="2.40985">
        <ele>78.4</ele>
        <time>2022-04-20T14:07:52Z</time>
      </trkpt>
      <trkpt lat="49.97775" lon="2.40985">
        <ele>78.4</ele>
        <time>2022-04-20T14:07:53Z</time>
      </trkpt>
      <trkpt lat="49.97775" lon="2.40985">
        <ele>78.4</ele>
        <time>2022-04-20T14:07:54Z</time>
      </trkpt>
      <trkpt lat="49.97775" lon="2.40985">
        <ele>78.4</ele>
        <time>2022-04-20T14:07:55Z</time>
      </trkpt>
      <trkpt lat="49.97775" lon="2.40985">
        <ele>78.4</ele>
        <time>2022-04-20T14:07:56Z</time>
      </trkpt>
      <trkpt lat="49.97775" lon="2.40985">
        <ele>78.4</ele>
        <time>2022-04-20T14:07:57Z</time>
      </trkpt>
      <trkpt lat="49.97775" lon="2.40985">
        <ele>78.4</ele>
        <time>2022-04-20T14:07:58Z</time>
      </trkpt>
      <trkpt lat="49.97775" lon="2.40985">
        <ele>78.4</ele>
        <time>2022-04-20T14:07:59Z</time>
      </trkpt>
      <trkpt lat="49.97775" lon="2.40985">
        <ele>78.4</ele>
        <time>2022-04-20T14:08:00Z</time>
      </trkpt>
      <trkpt lat="49.97775" lon="2.40985">
        <ele>78.4</ele>
        <time>2022-04-20T14:08:01Z</time>
      </trkpt>
      <trkpt lat="49.97775" lon="2.40985">
        <ele>78.4</ele>
        <time>2022-04-20T14:08:02Z</time>
      </trkpt>
      <trkpt lat="49.97775" lon="2.40985">
        <ele>78.4</ele>
        <time>2022-04-20T14:08:03Z</time>
      </trkpt>
      <trkpt lat="49.97777" lon="2.40983">
        <ele>78.4</ele>
        <time>2022-04-20T14:08:04Z</time>
      </trkpt>
      <trkpt lat="49.97778" lon="2.40983">
        <ele>78.4</ele>
        <time>2022-04-20T14:08:05Z</time>
      </trkpt>
      <trkpt lat="49.97778" lon="2.40983">
        <ele>78.4</ele>
        <time>2022-04-20T14:08:06Z</time>
      </trkpt>
      <trkpt lat="49.97778" lon="2.40983">
        <ele>78.4</ele>
        <time>2022-04-20T14:08:07Z</time>
      </trkpt>
      <trkpt lat="49.97778" lon="2.40983">
        <ele>78.4</ele>
        <time>2022-04-20T14:08:08Z</time>
      </trkpt>
      <trkpt lat="49.97778" lon="2.40983">
        <ele>78.4</ele>
        <time>2022-04-20T14:08:09Z</time>
      </trkpt>
      <trkpt lat="49.97778" lon="2.40983">
        <ele>78.4</ele>
        <time>2022-04-20T14:08:10Z</time>
      </trkpt>
      <trkpt lat="49.97778" lon="2.40983">
        <ele>78.4</ele>
        <time>2022-04-20T14:08:11Z</time>
      </trkpt>
      <trkpt lat="49.97778" lon="2.40983">
        <ele>78.4</ele>
        <time>2022-04-20T14:08:12Z</time>
      </trkpt>
      <trkpt lat="49.97778" lon="2.40983">
        <ele>78.4</ele>
        <time>2022-04-20T14:08:13Z</time>
      </trkpt>
      <trkpt lat="49.97778" lon="2.40983">
        <ele>78.4</ele>
        <time>2022-04-20T14:08:14Z</time>
      </trkpt>
      <trkpt lat="49.97778" lon="2.40983">
        <ele>78.4</ele>
        <time>2022-04-20T14:08:15Z</time>
      </trkpt>
      <trkpt lat="49.97778" lon="2.40983">
        <ele>78.4</ele>
        <time>2022-04-20T14:08:16Z</time>
      </trkpt>
      <trkpt lat="49.97778" lon="2.40983">
        <ele>78.4</ele>
        <time>2022-04-20T14:08:17Z</time>
      </trkpt>
      <trkpt lat="49.97778" lon="2.40983">
        <ele>78.4</ele>
        <time>2022-04-20T14:08:18Z</time>
      </trkpt>
      <trkpt lat="49.97778" lon="2.40983">
        <ele>78.4</ele>
        <time>2022-04-20T14:08:19Z</time>
      </trkpt>
      <trkpt lat="49.97778" lon="2.40983">
        <ele>78.4</ele>
        <time>2022-04-20T14:08:20Z</time>
      </trkpt>
      <trkpt lat="49.97778" lon="2.40983">
        <ele>78.4</ele>
        <time>2022-04-20T14:08:21Z</time>
      </trkpt>
      <trkpt lat="49.97778" lon="2.40983">
        <ele>78.4</ele>
        <time>2022-04-20T14:08:22Z</time>
      </trkpt>
      <trkpt lat="49.97778" lon="2.40983">
        <ele>78.4</ele>
        <time>2022-04-20T14:08:23Z</time>
      </trkpt>
      <trkpt lat="49.97778" lon="2.40983">
        <ele>78.4</ele>
        <time>2022-04-20T14:08:24Z</time>
      </trkpt>
      <trkpt lat="49.97778" lon="2.40983">
        <ele>78.4</ele>
        <time>2022-04-20T14:08:25Z</time>
      </trkpt>
      <trkpt lat="49.97778" lon="2.40984">
        <ele>78.4</ele>
        <time>2022-04-20T14:08:26Z</time>
      </trkpt>
      <trkpt lat="49.97778" lon="2.40984">
        <ele>78.4</ele>
        <time>2022-04-20T14:08:27Z</time>
      </trkpt>
      <trkpt lat="49.97778" lon="2.40984">
        <ele>78.4</ele>
        <time>2022-04-20T14:08:28Z</time>
      </trkpt>
      <trkpt lat="49.97778" lon="2.40984">
        <ele>78.4</ele>
        <time>2022-04-20T14:08:29Z</time>
      </trkpt>
      <trkpt lat="49.97778" lon="2.40984">
        <ele>78.4</ele>
        <time>2022-04-20T14:08:30Z</time>
      </trkpt>
      <trkpt lat="49.97778" lon="2.40984">
        <ele>78.4</ele>
        <time>2022-04-20T14:08:31Z</time>
      </trkpt>
      <trkpt lat="49.97778" lon="2.40984">
        <ele>78.4</ele>
        <time>2022-04-20T14:08:32Z</time>
      </trkpt>
      <trkpt lat="49.97778" lon="2.40984">
        <ele>78.4</ele>
        <time>2022-04-20T14:08:33Z</time>
      </trkpt>
      <trkpt lat="49.97778" lon="2.40984">
        <ele>78.4</ele>
        <time>2022-04-20T14:08:34Z</time>
      </trkpt>
      <trkpt lat="49.97778" lon="2.40984">
        <ele>78.4</ele>
        <time>2022-04-20T14:08:35Z</time>
      </trkpt>
      <trkpt lat="49.97778" lon="2.40984">
        <ele>78.4</ele>
        <time>2022-04-20T14:08:36Z</time>
      </trkpt>
      <trkpt lat="49.97778" lon="2.40984">
        <ele>78.4</ele>
        <time>2022-04-20T14:08:37Z</time>
      </trkpt>
      <trkpt lat="49.97778" lon="2.40984">
        <ele>78.4</ele>
        <time>2022-04-20T14:08:38Z</time>
      </trkpt>
      <trkpt lat="49.97778" lon="2.40984">
        <ele>78.4</ele>
        <time>2022-04-20T14:08:39Z</time>
      </trkpt>
      <trkpt lat="49.97778" lon="2.40984">
        <ele>78.4</ele>
        <time>2022-04-20T14:08:40Z</time>
      </trkpt>
      <trkpt lat="49.97778" lon="2.40984">
        <ele>78.4</ele>
        <time>2022-04-20T14:08:41Z</time>
      </trkpt>
      <trkpt lat="49.97778" lon="2.40984">
        <ele>78.4</ele>
        <time>2022-04-20T14:08:42Z</time>
      </trkpt>
      <trkpt lat="49.97778" lon="2.40984">
        <ele>78.4</ele>
        <time>2022-04-20T14:08:43Z</time>
      </trkpt>
      <trkpt lat="49.97778" lon="2.40984">
        <ele>78.4</ele>
        <time>2022-04-20T14:08:44Z</time>
      </trkpt>
      <trkpt lat="49.97778" lon="2.40984">
        <ele>78.4</ele>
        <time>2022-04-20T14:08:45Z</time>
      </trkpt>
      <trkpt lat="49.97778" lon="2.40984">
        <ele>78.4</ele>
        <time>2022-04-20T14:08:46Z</time>
      </trkpt>
      <trkpt lat="49.97778" lon="2.40984">
        <ele>78.4</ele>
        <time>2022-04-20T14:08:47Z</time>
      </trkpt>
      <trkpt lat="49.97778" lon="2.40985">
        <ele>78.4</ele>
        <time>2022-04-20T14:08:48Z</time>
      </trkpt>
      <trkpt lat="49.97778" lon="2.40985">
        <ele>78.4</ele>
        <time>2022-04-20T14:08:49Z</time>
      </trkpt>
      <trkpt lat="49.97778" lon="2.40985">
        <ele>78.4</ele>
        <time>2022-04-20T14:08:50Z</time>
      </trkpt>
      <trkpt lat="49.97778" lon="2.40985">
        <ele>78.4</ele>
        <time>2022-04-20T14:08:51Z</time>
      </trkpt>
      <trkpt lat="49.97778" lon="2.40985">
        <ele>78.4</ele>
        <time>2022-04-20T14:08:52Z</time>
      </trkpt>
      <trkpt lat="49.97778" lon="2.40985">
        <ele>78.4</ele>
        <time>2022-04-20T14:08:53Z</time>
      </trkpt>
      <trkpt lat="49.97778" lon="2.40985">
        <ele>78.4</ele>
        <time>2022-04-20T14:08:54Z</time>
      </trkpt>
      <trkpt lat="49.97778" lon="2.40985">
        <ele>78.4</ele>
        <time>2022-04-20T14:08:55Z</time>
      </trkpt>
      <trkpt lat="49.97778" lon="2.40985">
        <ele>78.4</ele>
        <time>2022-04-20T14:08:56Z</time>
      </trkpt>
      <trkpt lat="49.97778" lon="2.40985">
        <ele>78.4</ele>
        <time>2022-04-20T14:08:57Z</time>
      </trkpt>
      <trkpt lat="49.97778" lon="2.40985">
        <ele>78.4</ele>
        <time>2022-04-20T14:08:58Z</time>
      </trkpt>
      <trkpt lat="49.97778" lon="2.40985">
        <ele>78.4</ele>
        <time>2022-04-20T14:08:59Z</time>
      </trkpt>
      <trkpt lat="49.97778" lon="2.40985">
        <ele>78.4</ele>
        <time>2022-04-20T14:09:00Z</time>
      </trkpt>
      <trkpt lat="49.97778" lon="2.40985">
        <ele>78.4</ele>
        <time>2022-04-20T14:09:01Z</time>
      </trkpt>
      <trkpt lat="49.97778" lon="2.40985">
        <ele>78.4</ele>
        <time>2022-04-20T14:09:02Z</time>
      </trkpt>
      <trkpt lat="49.97778" lon="2.40985">
        <ele>78.4</ele>
        <time>2022-04-20T14:09:03Z</time>
      </trkpt>
      <trkpt lat="49.97778" lon="2.40985">
        <ele>78.4</ele>
        <time>2022-04-20T14:09:04Z</time>
      </trkpt>
      <trkpt lat="49.97778" lon="2.40985">
        <ele>78.4</ele>
        <time>2022-04-20T14:09:05Z</time>
      </trkpt>
      <trkpt lat="49.97778" lon="2.40985">
        <ele>78.4</ele>
        <time>2022-04-20T14:09:06Z</time>
      </trkpt>
      <trkpt lat="49.97778" lon="2.40985">
        <ele>78.4</ele>
        <time>2022-04-20T14:09:07Z</time>
      </trkpt>
      <trkpt lat="49.97778" lon="2.40985">
        <ele>78.4</ele>
        <time>2022-04-20T14:09:08Z</time>
      </trkpt>
      <trkpt lat="49.97778" lon="2.40986">
        <ele>78.4</ele>
        <time>2022-04-20T14:09:09Z</time>
      </trkpt>
      <trkpt lat="49.97778" lon="2.40986">
        <ele>78.4</ele>
        <time>2022-04-20T14:09:10Z</time>
      </trkpt>
      <trkpt lat="49.97778" lon="2.40986">
        <ele>78.4</ele>
        <time>2022-04-20T14:09:11Z</time>
      </trkpt>
      <trkpt lat="49.97778" lon="2.40986">
        <ele>78.4</ele>
        <time>2022-04-20T14:09:12Z</time>
      </trkpt>
      <trkpt lat="49.97778" lon="2.40986">
        <ele>78.4</ele>
        <time>2022-04-20T14:09:13Z</time>
      </trkpt>
      <trkpt lat="49.97778" lon="2.40986">
        <ele>78.4</ele>
        <time>2022-04-20T14:09:14Z</time>
      </trkpt>
      <trkpt lat="49.97778" lon="2.40986">
        <ele>78.4</ele>
        <time>2022-04-20T14:09:15Z</time>
      </trkpt>
      <trkpt lat="49.97778" lon="2.40986">
        <ele>78.4</ele>
        <time>2022-04-20T14:09:16Z</time>
      </trkpt>
      <trkpt lat="49.97778" lon="2.40986">
        <ele>78.4</ele>
        <time>2022-04-20T14:09:17Z</time>
      </trkpt>
      <trkpt lat="49.97778" lon="2.40986">
        <ele>78.4</ele>
        <time>2022-04-20T14:09:18Z</time>
      </trkpt>
      <trkpt lat="49.97778" lon="2.40986">
        <ele>78.4</ele>
        <time>2022-04-20T14:09:19Z</time>
      </trkpt>
      <trkpt lat="49.97778" lon="2.40986">
        <ele>78.4</ele>
        <time>2022-04-20T14:09:20Z</time>
      </trkpt>
      <trkpt lat="49.97778" lon="2.40986">
        <ele>78.4</ele>
        <time>2022-04-20T14:09:21Z</time>
      </trkpt>
      <trkpt lat="49.97778" lon="2.40986">
        <ele>78.4</ele>
        <time>2022-04-20T14:09:22Z</time>
      </trkpt>
      <trkpt lat="49.97778" lon="2.40986">
        <ele>78.4</ele>
        <time>2022-04-20T14:09:23Z</time>
      </trkpt>
      <trkpt lat="49.97778" lon="2.40986">
        <ele>78.4</ele>
        <time>2022-04-20T14:09:24Z</time>
      </trkpt>
      <trkpt lat="49.97778" lon="2.40986">
        <ele>78.4</ele>
        <time>2022-04-20T14:09:25Z</time>
      </trkpt>
      <trkpt lat="49.97778" lon="2.40986">
        <ele>78.4</ele>
        <time>2022-04-20T14:09:26Z</time>
      </trkpt>
      <trkpt lat="49.97778" lon="2.40986">
        <ele>78.4</ele>
        <time>2022-04-20T14:09:27Z</time>
      </trkpt>
      <trkpt lat="49.97778" lon="2.40986">
        <ele>78.4</ele>
        <time>2022-04-20T14:09:28Z</time>
      </trkpt>
      <trkpt lat="49.97778" lon="2.40986">
        <ele>78.4</ele>
        <time>2022-04-20T14:09:29Z</time>
      </trkpt>
      <trkpt lat="49.97778" lon="2.40987">
        <ele>78.4</ele>
        <time>2022-04-20T14:09:30Z</time>
      </trkpt>
      <trkpt lat="49.97778" lon="2.40987">
        <ele>78.4</ele>
        <time>2022-04-20T14:09:31Z</time>
      </trkpt>
      <trkpt lat="49.97778" lon="2.40987">
        <ele>78.4</ele>
        <time>2022-04-20T14:09:32Z</time>
      </trkpt>
      <trkpt lat="49.97778" lon="2.40987">
        <ele>78.4</ele>
        <time>2022-04-20T14:09:33Z</time>
      </trkpt>
      <trkpt lat="49.97778" lon="2.40987">
        <ele>78.4</ele>
        <time>2022-04-20T14:09:34Z</time>
      </trkpt>
      <trkpt lat="49.97778" lon="2.40987">
        <ele>78.4</ele>
        <time>2022-04-20T14:09:35Z</time>
      </trkpt>
      <trkpt lat="49.97778" lon="2.40987">
        <ele>78.4</ele>
        <time>2022-04-20T14:09:36Z</time>
      </trkpt>
      <trkpt lat="49.97778" lon="2.40987">
        <ele>78.4</ele>
        <time>2022-04-20T14:09:37Z</time>
      </trkpt>
      <trkpt lat="49.97778" lon="2.40987">
        <ele>78.4</ele>
        <time>2022-04-20T14:09:38Z</time>
      </trkpt>
      <trkpt lat="49.97778" lon="2.40987">
        <ele>78.4</ele>
        <time>2022-04-20T14:09:39Z</time>
      </trkpt>
      <trkpt lat="49.97778" lon="2.40987">
        <ele>78.4</ele>
        <time>2022-04-20T14:09:40Z</time>
      </trkpt>
      <trkpt lat="49.97778" lon="2.40987">
        <ele>78.4</ele>
        <time>2022-04-20T14:09:41Z</time>
      </trkpt>
      <trkpt lat="49.97778" lon="2.40987">
        <ele>78.4</ele>
        <time>2022-04-20T14:09:42Z</time>
      </trkpt>
      <trkpt lat="49.97778" lon="2.40987">
        <ele>78.4</ele>
        <time>2022-04-20T14:09:43Z</time>
      </trkpt>
      <trkpt lat="49.97778" lon="2.40987">
        <ele>78.4</ele>
        <time>2022-04-20T14:09:44Z</time>
      </trkpt>
      <trkpt lat="49.97778" lon="2.40987">
        <ele>78.4</ele>
        <time>2022-04-20T14:09:45Z</time>
      </trkpt>
      <trkpt lat="49.97778" lon="2.40987">
        <ele>78.4</ele>
        <time>2022-04-20T14:09:46Z</time>
      </trkpt>
      <trkpt lat="49.97778" lon="2.40987">
        <ele>78.4</ele>
        <time>2022-04-20T14:09:47Z</time>
      </trkpt>
      <trkpt lat="49.97778" lon="2.40987">
        <ele>78.4</ele>
        <time>2022-04-20T14:09:48Z</time>
      </trkpt>
      <trkpt lat="49.97778" lon="2.40987">
        <ele>78.4</ele>
        <time>2022-04-20T14:09:49Z</time>
      </trkpt>
      <trkpt lat="49.97778" lon="2.40987">
        <ele>78.4</ele>
        <time>2022-04-20T14:09:50Z</time>
      </trkpt>
      <trkpt lat="49.97778" lon="2.40987">
        <ele>78.4</ele>
        <time>2022-04-20T14:09:51Z</time>
      </trkpt>
      <trkpt lat="49.97778" lon="2.40988">
        <ele>78.4</ele>
        <time>2022-04-20T14:09:52Z</time>
      </trkpt>
      <trkpt lat="49.97778" lon="2.40988">
        <ele>78.4</ele>
        <time>2022-04-20T14:09:53Z</time>
      </trkpt>
      <trkpt lat="49.97778" lon="2.40988">
        <ele>78.4</ele>
        <time>2022-04-20T14:09:54Z</time>
      </trkpt>
      <trkpt lat="49.97778" lon="2.40988">
        <ele>78.4</ele>
        <time>2022-04-20T14:09:55Z</time>
      </trkpt>
      <trkpt lat="49.97778" lon="2.40988">
        <ele>78.4</ele>
        <time>2022-04-20T14:09:56Z</time>
      </trkpt>
      <trkpt lat="49.97778" lon="2.40988">
        <ele>78.4</ele>
        <time>2022-04-20T14:09:57Z</time>
      </trkpt>
      <trkpt lat="49.97778" lon="2.40988">
        <ele>78.4</ele>
        <time>2022-04-20T14:09:58Z</time>
      </trkpt>
      <trkpt lat="49.97778" lon="2.40988">
        <ele>78.4</ele>
        <time>2022-04-20T14:09:59Z</time>
      </trkpt>
      <trkpt lat="49.97778" lon="2.40988">
        <ele>78.4</ele>
        <time>2022-04-20T14:10:00Z</time>
      </trkpt>
      <trkpt lat="49.97778" lon="2.40988">
        <ele>78.4</ele>
        <time>2022-04-20T14:10:01Z</time>
      </trkpt>
      <trkpt lat="49.97778" lon="2.40988">
        <ele>78.4</ele>
        <time>2022-04-20T14:10:02Z</time>
      </trkpt>
      <trkpt lat="49.97778" lon="2.40988">
        <ele>78.4</ele>
        <time>2022-04-20T14:10:03Z</time>
      </trkpt>
      <trkpt lat="49.97778" lon="2.40988">
        <ele>78.4</ele>
        <time>2022-04-20T14:10:05Z</time>
      </trkpt>
      <trkpt lat="49.97778" lon="2.40988">
        <ele>78.4</ele>
        <time>2022-04-20T14:10:06Z</time>
      </trkpt>
      <trkpt lat="49.97778" lon="2.40988">
        <ele>78.4</ele>
        <time>2022-04-20T14:10:07Z</time>
      </trkpt>
      <trkpt lat="49.97779" lon="2.40991">
        <ele>78.4</ele>
        <time>2022-04-20T14:10:08Z</time>
      </trkpt>
      <trkpt lat="49.97779" lon="2.40993">
        <ele>78.3</ele>
        <time>2022-04-20T14:10:09Z</time>
      </trkpt>
      <trkpt lat="49.97779" lon="2.40995">
        <ele>78.3</ele>
        <time>2022-04-20T14:10:11Z</time>
      </trkpt>
      <trkpt lat="49.97779" lon="2.40996">
        <ele>78.3</ele>
        <time>2022-04-20T14:10:12Z</time>
      </trkpt>
      <trkpt lat="49.97779" lon="2.40998">
        <ele>78.3</ele>
        <time>2022-04-20T14:10:13Z</time>
      </trkpt>
      <trkpt lat="49.9778" lon="2.41">
        <ele>78.3</ele>
        <time>2022-04-20T14:10:14Z</time>
      </trkpt>
      <trkpt lat="49.9778" lon="2.41002">
        <ele>78.3</ele>
        <time>2022-04-20T14:10:15Z</time>
      </trkpt>
      <trkpt lat="49.9778" lon="2.41003">
        <ele>78.3</ele>
        <time>2022-04-20T14:10:17Z</time>
      </trkpt>
      <trkpt lat="49.9778" lon="2.41005">
        <ele>78.3</ele>
        <time>2022-04-20T14:10:18Z</time>
      </trkpt>
      <trkpt lat="49.9778" lon="2.41008">
        <ele>78.3</ele>
        <time>2022-04-20T14:10:19Z</time>
      </trkpt>
      <trkpt lat="49.9778" lon="2.41009">
        <ele>78.3</ele>
        <time>2022-04-20T14:10:20Z</time>
      </trkpt>
      <trkpt lat="49.97781" lon="2.4101">
        <ele>78.3</ele>
        <time>2022-04-20T14:10:21Z</time>
      </trkpt>
      <trkpt lat="49.97781" lon="2.41011">
        <ele>78.3</ele>
        <time>2022-04-20T14:10:22Z</time>
      </trkpt>
      <trkpt lat="49.97781" lon="2.41012">
        <ele>78.3</ele>
        <time>2022-04-20T14:10:23Z</time>
      </trkpt>
      <trkpt lat="49.97781" lon="2.41013">
        <ele>78.3</ele>
        <time>2022-04-20T14:10:24Z</time>
      </trkpt>
      <trkpt lat="49.97781" lon="2.41015">
        <ele>78.3</ele>
        <time>2022-04-20T14:10:25Z</time>
      </trkpt>
      <trkpt lat="49.97781" lon="2.41018">
        <ele>78.3</ele>
        <time>2022-04-20T14:10:26Z</time>
      </trkpt>
      <trkpt lat="49.97782" lon="2.41019">
        <ele>78.3</ele>
        <time>2022-04-20T14:10:27Z</time>
      </trkpt>
      <trkpt lat="49.97782" lon="2.41021">
        <ele>78.3</ele>
        <time>2022-04-20T14:10:28Z</time>
      </trkpt>
      <trkpt lat="49.97782" lon="2.41023">
        <ele>78.3</ele>
        <time>2022-04-20T14:10:30Z</time>
      </trkpt>
      <trkpt lat="49.97783" lon="2.41025">
        <ele>78.3</ele>
        <time>2022-04-20T14:10:31Z</time>
      </trkpt>
      <trkpt lat="49.97783" lon="2.41028">
        <ele>78.3</ele>
        <time>2022-04-20T14:10:32Z</time>
      </trkpt>
      <trkpt lat="49.97783" lon="2.4103">
        <ele>78.3</ele>
        <time>2022-04-20T14:10:33Z</time>
      </trkpt>
      <trkpt lat="49.97783" lon="2.41032">
        <ele>78.3</ele>
        <time>2022-04-20T14:10:34Z</time>
      </trkpt>
      <trkpt lat="49.97784" lon="2.41034">
        <ele>78.3</ele>
        <time>2022-04-20T14:10:35Z</time>
      </trkpt>
      <trkpt lat="49.97784" lon="2.41037">
        <ele>78.3</ele>
        <time>2022-04-20T14:10:37Z</time>
      </trkpt>
      <trkpt lat="49.97785" lon="2.41039">
        <ele>78.3</ele>
        <time>2022-04-20T14:10:38Z</time>
      </trkpt>
      <trkpt lat="49.97785" lon="2.4104">
        <ele>78.3</ele>
        <time>2022-04-20T14:10:39Z</time>
      </trkpt>
      <trkpt lat="49.97785" lon="2.41043">
        <ele>78.3</ele>
        <time>2022-04-20T14:10:40Z</time>
      </trkpt>
      <trkpt lat="49.97786" lon="2.41044">
        <ele>78.3</ele>
        <time>2022-04-20T14:10:41Z</time>
      </trkpt>
      <trkpt lat="49.97786" lon="2.41046">
        <ele>78.3</ele>
        <time>2022-04-20T14:10:42Z</time>
      </trkpt>
      <trkpt lat="49.97786" lon="2.41049">
        <ele>78.3</ele>
        <time>2022-04-20T14:10:43Z</time>
      </trkpt>
      <trkpt lat="49.97786" lon="2.41051">
        <ele>78.3</ele>
        <time>2022-04-20T14:10:45Z</time>
      </trkpt>
      <trkpt lat="49.97787" lon="2.41052">
        <ele>78.3</ele>
        <time>2022-04-20T14:10:46Z</time>
      </trkpt>
      <trkpt lat="49.97787" lon="2.41054">
        <ele>78.3</ele>
        <time>2022-04-20T14:10:47Z</time>
      </trkpt>
      <trkpt lat="49.97787" lon="2.41055">
        <ele>78.4</ele>
        <time>2022-04-20T14:10:48Z</time>
      </trkpt>
      <trkpt lat="49.97787" lon="2.41059">
        <ele>78.4</ele>
        <time>2022-04-20T14:10:49Z</time>
      </trkpt>
      <trkpt lat="49.97787" lon="2.4106">
        <ele>78.4</ele>
        <time>2022-04-20T14:10:50Z</time>
      </trkpt>
      <trkpt lat="49.97787" lon="2.41061">
        <ele>78.4</ele>
        <time>2022-04-20T14:10:51Z</time>
      </trkpt>
      <trkpt lat="49.97787" lon="2.41064">
        <ele>78.4</ele>
        <time>2022-04-20T14:10:53Z</time>
      </trkpt>
      <trkpt lat="49.97788" lon="2.41067">
        <ele>78.4</ele>
        <time>2022-04-20T14:10:54Z</time>
      </trkpt>
      <trkpt lat="49.97788" lon="2.41069">
        <ele>78.4</ele>
        <time>2022-04-20T14:10:55Z</time>
      </trkpt>
      <trkpt lat="49.97788" lon="2.41071">
        <ele>78.4</ele>
        <time>2022-04-20T14:10:57Z</time>
      </trkpt>
      <trkpt lat="49.97788" lon="2.41074">
        <ele>78.5</ele>
        <time>2022-04-20T14:10:58Z</time>
      </trkpt>
      <trkpt lat="49.97788" lon="2.41076">
        <ele>78.5</ele>
        <time>2022-04-20T14:10:59Z</time>
      </trkpt>
      <trkpt lat="49.97788" lon="2.41079">
        <ele>78.4</ele>
        <time>2022-04-20T14:11:01Z</time>
      </trkpt>
      <trkpt lat="49.97788" lon="2.41081">
        <ele>78.4</ele>
        <time>2022-04-20T14:11:02Z</time>
      </trkpt>
      <trkpt lat="49.97788" lon="2.41084">
        <ele>78.4</ele>
        <time>2022-04-20T14:11:03Z</time>
      </trkpt>
      <trkpt lat="49.97787" lon="2.41086">
        <ele>78.4</ele>
        <time>2022-04-20T14:11:04Z</time>
      </trkpt>
      <trkpt lat="49.97787" lon="2.41087">
        <ele>78.4</ele>
        <time>2022-04-20T14:11:05Z</time>
      </trkpt>
      <trkpt lat="49.97787" lon="2.41089">
        <ele>78.4</ele>
        <time>2022-04-20T14:11:06Z</time>
      </trkpt>
      <trkpt lat="49.97787" lon="2.41091">
        <ele>78.3</ele>
        <time>2022-04-20T14:11:07Z</time>
      </trkpt>
      <trkpt lat="49.97787" lon="2.41094">
        <ele>78.3</ele>
        <time>2022-04-20T14:11:08Z</time>
      </trkpt>
      <trkpt lat="49.97787" lon="2.41096">
        <ele>78.3</ele>
        <time>2022-04-20T14:11:09Z</time>
      </trkpt>
      <trkpt lat="49.97787" lon="2.41098">
        <ele>78.2</ele>
        <time>2022-04-20T14:11:11Z</time>
      </trkpt>
      <trkpt lat="49.97787" lon="2.411">
        <ele>78.2</ele>
        <time>2022-04-20T14:11:12Z</time>
      </trkpt>
      <trkpt lat="49.97786" lon="2.41103">
        <ele>78.2</ele>
        <time>2022-04-20T14:11:13Z</time>
      </trkpt>
      <trkpt lat="49.97786" lon="2.41106">
        <ele>78.2</ele>
        <time>2022-04-20T14:11:15Z</time>
      </trkpt>
      <trkpt lat="49.97786" lon="2.41107">
        <ele>78.1</ele>
        <time>2022-04-20T14:11:16Z</time>
      </trkpt>
      <trkpt lat="49.97785" lon="2.41109">
        <ele>78.1</ele>
        <time>2022-04-20T14:11:17Z</time>
      </trkpt>
      <trkpt lat="49.97785" lon="2.41111">
        <ele>78.1</ele>
        <time>2022-04-20T14:11:18Z</time>
      </trkpt>
      <trkpt lat="49.97785" lon="2.41113">
        <ele>78.1</ele>
        <time>2022-04-20T14:11:19Z</time>
      </trkpt>
      <trkpt lat="49.97784" lon="2.41115">
        <ele>78</ele>
        <time>2022-04-20T14:11:20Z</time>
      </trkpt>
      <trkpt lat="49.97783" lon="2.41119">
        <ele>78</ele>
        <time>2022-04-20T14:11:21Z</time>
      </trkpt>
      <trkpt lat="49.97783" lon="2.4112">
        <ele>78</ele>
        <time>2022-04-20T14:11:23Z</time>
      </trkpt>
      <trkpt lat="49.97783" lon="2.41121">
        <ele>78</ele>
        <time>2022-04-20T14:11:24Z</time>
      </trkpt>
      <trkpt lat="49.97782" lon="2.41123">
        <ele>78</ele>
        <time>2022-04-20T14:11:25Z</time>
      </trkpt>
      <trkpt lat="49.97781" lon="2.41124">
        <ele>77.9</ele>
        <time>2022-04-20T14:11:26Z</time>
      </trkpt>
      <trkpt lat="49.97781" lon="2.41126">
        <ele>77.9</ele>
        <time>2022-04-20T14:11:27Z</time>
      </trkpt>
      <trkpt lat="49.9778" lon="2.41129">
        <ele>77.9</ele>
        <time>2022-04-20T14:11:28Z</time>
      </trkpt>
      <trkpt lat="49.97779" lon="2.4113">
        <ele>77.9</ele>
        <time>2022-04-20T14:11:30Z</time>
      </trkpt>
      <trkpt lat="49.97779" lon="2.41131">
        <ele>77.9</ele>
        <time>2022-04-20T14:11:31Z</time>
      </trkpt>
      <trkpt lat="49.97778" lon="2.41132">
        <ele>77.8</ele>
        <time>2022-04-20T14:11:32Z</time>
      </trkpt>
      <trkpt lat="49.97778" lon="2.41134">
        <ele>77.8</ele>
        <time>2022-04-20T14:11:33Z</time>
      </trkpt>
      <trkpt lat="49.97777" lon="2.41135">
        <ele>77.8</ele>
        <time>2022-04-20T14:11:34Z</time>
      </trkpt>
      <trkpt lat="49.97777" lon="2.41137">
        <ele>77.8</ele>
        <time>2022-04-20T14:11:35Z</time>
      </trkpt>
      <trkpt lat="49.97776" lon="2.41138">
        <ele>77.7</ele>
        <time>2022-04-20T14:11:36Z</time>
      </trkpt>
      <trkpt lat="49.97776" lon="2.4114">
        <ele>77.7</ele>
        <time>2022-04-20T14:11:37Z</time>
      </trkpt>
      <trkpt lat="49.97776" lon="2.41142">
        <ele>77.7</ele>
        <time>2022-04-20T14:11:38Z</time>
      </trkpt>
      <trkpt lat="49.97775" lon="2.41143">
        <ele>77.7</ele>
        <time>2022-04-20T14:11:39Z</time>
      </trkpt>
      <trkpt lat="49.97775" lon="2.41145">
        <ele>77.6</ele>
        <time>2022-04-20T14:11:40Z</time>
      </trkpt>
      <trkpt lat="49.97775" lon="2.41147">
        <ele>77.6</ele>
        <time>2022-04-20T14:11:41Z</time>
      </trkpt>
      <trkpt lat="49.97774" lon="2.41149">
        <ele>77.5</ele>
        <time>2022-04-20T14:11:42Z</time>
      </trkpt>
      <trkpt lat="49.97774" lon="2.41153">
        <ele>77.5</ele>
        <time>2022-04-20T14:11:43Z</time>
      </trkpt>
      <trkpt lat="49.97774" lon="2.41155">
        <ele>77.4</ele>
        <time>2022-04-20T14:11:45Z</time>
      </trkpt>
      <trkpt lat="49.97773" lon="2.41156">
        <ele>77.4</ele>
        <time>2022-04-20T14:11:46Z</time>
      </trkpt>
      <trkpt lat="49.97773" lon="2.41158">
        <ele>77.3</ele>
        <time>2022-04-20T14:11:47Z</time>
      </trkpt>
      <trkpt lat="49.97773" lon="2.4116">
        <ele>77.3</ele>
        <time>2022-04-20T14:11:48Z</time>
      </trkpt>
      <trkpt lat="49.97773" lon="2.41161">
        <ele>77.3</ele>
        <time>2022-04-20T14:11:49Z</time>
      </trkpt>
      <trkpt lat="49.97773" lon="2.41163">
        <ele>77.2</ele>
        <time>2022-04-20T14:11:50Z</time>
      </trkpt>
      <trkpt lat="49.97772" lon="2.41165">
        <ele>77.2</ele>
        <time>2022-04-20T14:11:51Z</time>
      </trkpt>
      <trkpt lat="49.97772" lon="2.41167">
        <ele>77.2</ele>
        <time>2022-04-20T14:11:52Z</time>
      </trkpt>
      <trkpt lat="49.97772" lon="2.41169">
        <ele>77.1</ele>
        <time>2022-04-20T14:11:53Z</time>
      </trkpt>
      <trkpt lat="49.97771" lon="2.41172">
        <ele>77.1</ele>
        <time>2022-04-20T14:11:55Z</time>
      </trkpt>
      <trkpt lat="49.97771" lon="2.41173">
        <ele>77</ele>
        <time>2022-04-20T14:11:56Z</time>
      </trkpt>
      <trkpt lat="49.9777" lon="2.41177">
        <ele>76.9</ele>
        <time>2022-04-20T14:11:57Z</time>
      </trkpt>
      <trkpt lat="49.97769" lon="2.41179">
        <ele>76.9</ele>
        <time>2022-04-20T14:11:59Z</time>
      </trkpt>
      <trkpt lat="49.97769" lon="2.4118">
        <ele>76.9</ele>
        <time>2022-04-20T14:12:00Z</time>
      </trkpt>
      <trkpt lat="49.97769" lon="2.41182">
        <ele>76.8</ele>
        <time>2022-04-20T14:12:01Z</time>
      </trkpt>
      <trkpt lat="49.97768" lon="2.41184">
        <ele>76.8</ele>
        <time>2022-04-20T14:12:02Z</time>
      </trkpt>
      <trkpt lat="49.97768" lon="2.41185">
        <ele>76.7</ele>
        <time>2022-04-20T14:12:03Z</time>
      </trkpt>
      <trkpt lat="49.97768" lon="2.41188">
        <ele>76.7</ele>
        <time>2022-04-20T14:12:04Z</time>
      </trkpt>
      <trkpt lat="49.97767" lon="2.41189">
        <ele>76.7</ele>
        <time>2022-04-20T14:12:05Z</time>
      </trkpt>
      <trkpt lat="49.97767" lon="2.41192">
        <ele>76.6</ele>
        <time>2022-04-20T14:12:07Z</time>
      </trkpt>
      <trkpt lat="49.97766" lon="2.41195">
        <ele>76.6</ele>
        <time>2022-04-20T14:12:08Z</time>
      </trkpt>
      <trkpt lat="49.97765" lon="2.41197">
        <ele>76.5</ele>
        <time>2022-04-20T14:12:10Z</time>
      </trkpt>
      <trkpt lat="49.97765" lon="2.41199">
        <ele>76.5</ele>
        <time>2022-04-20T14:12:11Z</time>
      </trkpt>
      <trkpt lat="49.97764" lon="2.41201">
        <ele>76.4</ele>
        <time>2022-04-20T14:12:12Z</time>
      </trkpt>
      <trkpt lat="49.97763" lon="2.41203">
        <ele>76.4</ele>
        <time>2022-04-20T14:12:13Z</time>
      </trkpt>
      <trkpt lat="49.97762" lon="2.41205">
        <ele>76.3</ele>
        <time>2022-04-20T14:12:14Z</time>
      </trkpt>
      <trkpt lat="49.97761" lon="2.41207">
        <ele>76.3</ele>
        <time>2022-04-20T14:12:16Z</time>
      </trkpt>
      <trkpt lat="49.97761" lon="2.41209">
        <ele>76.3</ele>
        <time>2022-04-20T14:12:17Z</time>
      </trkpt>
      <trkpt lat="49.9776" lon="2.4121">
        <ele>76.2</ele>
        <time>2022-04-20T14:12:18Z</time>
      </trkpt>
      <trkpt lat="49.97759" lon="2.41212">
        <ele>76.2</ele>
        <time>2022-04-20T14:12:19Z</time>
      </trkpt>
      <trkpt lat="49.97758" lon="2.41215">
        <ele>76.1</ele>
        <time>2022-04-20T14:12:21Z</time>
      </trkpt>
      <trkpt lat="49.97758" lon="2.41217">
        <ele>76.1</ele>
        <time>2022-04-20T14:12:22Z</time>
      </trkpt>
      <trkpt lat="49.97757" lon="2.41221">
        <ele>76</ele>
        <time>2022-04-20T14:12:24Z</time>
      </trkpt>
      <trkpt lat="49.97756" lon="2.41224">
        <ele>75.9</ele>
        <time>2022-04-20T14:12:25Z</time>
      </trkpt>
      <trkpt lat="49.97756" lon="2.41225">
        <ele>75.9</ele>
        <time>2022-04-20T14:12:26Z</time>
      </trkpt>
      <trkpt lat="49.97756" lon="2.41226">
        <ele>75.9</ele>
        <time>2022-04-20T14:12:27Z</time>
      </trkpt>
      <trkpt lat="49.97755" lon="2.41229">
        <ele>75.8</ele>
        <time>2022-04-20T14:12:28Z</time>
      </trkpt>
      <trkpt lat="49.97755" lon="2.4123">
        <ele>75.8</ele>
        <time>2022-04-20T14:12:29Z</time>
      </trkpt>
      <trkpt lat="49.97754" lon="2.41231">
        <ele>75.7</ele>
        <time>2022-04-20T14:12:30Z</time>
      </trkpt>
      <trkpt lat="49.97754" lon="2.41234">
        <ele>75.6</ele>
        <time>2022-04-20T14:12:31Z</time>
      </trkpt>
      <trkpt lat="49.97753" lon="2.41236">
        <ele>75.5</ele>
        <time>2022-04-20T14:12:33Z</time>
      </trkpt>
      <trkpt lat="49.97753" lon="2.41238">
        <ele>75.5</ele>
        <time>2022-04-20T14:12:34Z</time>
      </trkpt>
      <trkpt lat="49.97753" lon="2.4124">
        <ele>75.4</ele>
        <time>2022-04-20T14:12:35Z</time>
      </trkpt>
      <trkpt lat="49.97752" lon="2.41242">
        <ele>75.3</ele>
        <time>2022-04-20T14:12:36Z</time>
      </trkpt>
      <trkpt lat="49.97752" lon="2.41245">
        <ele>75.2</ele>
        <time>2022-04-20T14:12:37Z</time>
      </trkpt>
      <trkpt lat="49.97752" lon="2.41246">
        <ele>75.2</ele>
        <time>2022-04-20T14:12:38Z</time>
      </trkpt>
      <trkpt lat="49.97751" lon="2.41247">
        <ele>75.1</ele>
        <time>2022-04-20T14:12:39Z</time>
      </trkpt>
      <trkpt lat="49.97751" lon="2.4125">
        <ele>75</ele>
        <time>2022-04-20T14:12:40Z</time>
      </trkpt>
      <trkpt lat="49.97751" lon="2.41252">
        <ele>75</ele>
        <time>2022-04-20T14:12:41Z</time>
      </trkpt>
      <trkpt lat="49.9775" lon="2.41253">
        <ele>74.9</ele>
        <time>2022-04-20T14:12:42Z</time>
      </trkpt>
      <trkpt lat="49.9775" lon="2.41255">
        <ele>74.8</ele>
        <time>2022-04-20T14:12:43Z</time>
      </trkpt>
      <trkpt lat="49.9775" lon="2.41257">
        <ele>74.8</ele>
        <time>2022-04-20T14:12:44Z</time>
      </trkpt>
      <trkpt lat="49.9775" lon="2.41259">
        <ele>74.7</ele>
        <time>2022-04-20T14:12:46Z</time>
      </trkpt>
      <trkpt lat="49.97749" lon="2.41261">
        <ele>74.6</ele>
        <time>2022-04-20T14:12:47Z</time>
      </trkpt>
      <trkpt lat="49.97749" lon="2.41263">
        <ele>74.6</ele>
        <time>2022-04-20T14:12:48Z</time>
      </trkpt>
      <trkpt lat="49.97749" lon="2.41266">
        <ele>74.5</ele>
        <time>2022-04-20T14:12:49Z</time>
      </trkpt>
      <trkpt lat="49.97749" lon="2.41268">
        <ele>74.4</ele>
        <time>2022-04-20T14:12:50Z</time>
      </trkpt>
      <trkpt lat="49.97748" lon="2.41269">
        <ele>74.4</ele>
        <time>2022-04-20T14:12:51Z</time>
      </trkpt>
      <trkpt lat="49.97748" lon="2.41271">
        <ele>74.4</ele>
        <time>2022-04-20T14:12:52Z</time>
      </trkpt>
      <trkpt lat="49.97748" lon="2.41272">
        <ele>74.3</ele>
        <time>2022-04-20T14:12:53Z</time>
      </trkpt>
      <trkpt lat="49.97747" lon="2.41276">
        <ele>74.2</ele>
        <time>2022-04-20T14:12:55Z</time>
      </trkpt>
      <trkpt lat="49.97747" lon="2.41279">
        <ele>74.1</ele>
        <time>2022-04-20T14:12:56Z</time>
      </trkpt>
      <trkpt lat="49.97746" lon="2.4128">
        <ele>74.1</ele>
        <time>2022-04-20T14:12:57Z</time>
      </trkpt>
      <trkpt lat="49.97746" lon="2.41281">
        <ele>74.1</ele>
        <time>2022-04-20T14:12:58Z</time>
      </trkpt>
      <trkpt lat="49.97746" lon="2.41284">
        <ele>74</ele>
        <time>2022-04-20T14:13:00Z</time>
      </trkpt>
      <trkpt lat="49.97745" lon="2.41287">
        <ele>73.9</ele>
        <time>2022-04-20T14:13:01Z</time>
      </trkpt>
      <trkpt lat="49.97745" lon="2.41288">
        <ele>73.9</ele>
        <time>2022-04-20T14:13:02Z</time>
      </trkpt>
      <trkpt lat="49.97745" lon="2.4129">
        <ele>73.9</ele>
        <time>2022-04-20T14:13:03Z</time>
      </trkpt>
      <trkpt lat="49.97745" lon="2.41291">
        <ele>73.8</ele>
        <time>2022-04-20T14:13:04Z</time>
      </trkpt>
      <trkpt lat="49.97744" lon="2.41293">
        <ele>73.8</ele>
        <time>2022-04-20T14:13:05Z</time>
      </trkpt>
      <trkpt lat="49.97744" lon="2.41295">
        <ele>73.7</ele>
        <time>2022-04-20T14:13:06Z</time>
      </trkpt>
      <trkpt lat="49.97743" lon="2.41297">
        <ele>73.6</ele>
        <time>2022-04-20T14:13:07Z</time>
      </trkpt>
      <trkpt lat="49.97743" lon="2.413">
        <ele>73.6</ele>
        <time>2022-04-20T14:13:09Z</time>
      </trkpt>
      <trkpt lat="49.97742" lon="2.41303">
        <ele>73.5</ele>
        <time>2022-04-20T14:13:11Z</time>
      </trkpt>
      <trkpt lat="49.97742" lon="2.41305">
        <ele>73.4</ele>
        <time>2022-04-20T14:13:12Z</time>
      </trkpt>
      <trkpt lat="49.97741" lon="2.41308">
        <ele>73.4</ele>
        <time>2022-04-20T14:13:13Z</time>
      </trkpt>
      <trkpt lat="49.97741" lon="2.4131">
        <ele>73.3</ele>
        <time>2022-04-20T14:13:14Z</time>
      </trkpt>
      <trkpt lat="49.97741" lon="2.41311">
        <ele>73.3</ele>
        <time>2022-04-20T14:13:15Z</time>
      </trkpt>
      <trkpt lat="49.97741" lon="2.41313">
        <ele>73.2</ele>
        <time>2022-04-20T14:13:16Z</time>
      </trkpt>
      <trkpt lat="49.9774" lon="2.41316">
        <ele>73.1</ele>
        <time>2022-04-20T14:13:18Z</time>
      </trkpt>
      <trkpt lat="49.9774" lon="2.41318">
        <ele>73.1</ele>
        <time>2022-04-20T14:13:19Z</time>
      </trkpt>
      <trkpt lat="49.9774" lon="2.41319">
        <ele>73</ele>
        <time>2022-04-20T14:13:20Z</time>
      </trkpt>
      <trkpt lat="49.9774" lon="2.41321">
        <ele>73</ele>
        <time>2022-04-20T14:13:21Z</time>
      </trkpt>
      <trkpt lat="49.97739" lon="2.41323">
        <ele>72.9</ele>
        <time>2022-04-20T14:13:22Z</time>
      </trkpt>
      <trkpt lat="49.97739" lon="2.41325">
        <ele>72.9</ele>
        <time>2022-04-20T14:13:23Z</time>
      </trkpt>
      <trkpt lat="49.97738" lon="2.41327">
        <ele>72.8</ele>
        <time>2022-04-20T14:13:25Z</time>
      </trkpt>
      <trkpt lat="49.97738" lon="2.41329">
        <ele>72.7</ele>
        <time>2022-04-20T14:13:26Z</time>
      </trkpt>
      <trkpt lat="49.97737" lon="2.4133">
        <ele>72.7</ele>
        <time>2022-04-20T14:13:27Z</time>
      </trkpt>
      <trkpt lat="49.97737" lon="2.41332">
        <ele>72.6</ele>
        <time>2022-04-20T14:13:28Z</time>
      </trkpt>
      <trkpt lat="49.97737" lon="2.41334">
        <ele>72.6</ele>
        <time>2022-04-20T14:13:29Z</time>
      </trkpt>
      <trkpt lat="49.97736" lon="2.41337">
        <ele>72.5</ele>
        <time>2022-04-20T14:13:31Z</time>
      </trkpt>
      <trkpt lat="49.97736" lon="2.4134">
        <ele>72.4</ele>
        <time>2022-04-20T14:13:33Z</time>
      </trkpt>
      <trkpt lat="49.97736" lon="2.41342">
        <ele>72.4</ele>
        <time>2022-04-20T14:13:34Z</time>
      </trkpt>
      <trkpt lat="49.97735" lon="2.41343">
        <ele>72.4</ele>
        <time>2022-04-20T14:13:35Z</time>
      </trkpt>
      <trkpt lat="49.97735" lon="2.41345">
        <ele>72.3</ele>
        <time>2022-04-20T14:13:36Z</time>
      </trkpt>
      <trkpt lat="49.97735" lon="2.41346">
        <ele>72.3</ele>
        <time>2022-04-20T14:13:37Z</time>
      </trkpt>
      <trkpt lat="49.97734" lon="2.41349">
        <ele>72.2</ele>
        <time>2022-04-20T14:13:38Z</time>
      </trkpt>
      <trkpt lat="49.97734" lon="2.41351">
        <ele>72.2</ele>
        <time>2022-04-20T14:13:40Z</time>
      </trkpt>
      <trkpt lat="49.97733" lon="2.41353">
        <ele>72.2</ele>
        <time>2022-04-20T14:13:41Z</time>
      </trkpt>
      <trkpt lat="49.97733" lon="2.41355">
        <ele>72.1</ele>
        <time>2022-04-20T14:13:42Z</time>
      </trkpt>
      <trkpt lat="49.97732" lon="2.41357">
        <ele>72.1</ele>
        <time>2022-04-20T14:13:43Z</time>
      </trkpt>
      <trkpt lat="49.97732" lon="2.41358">
        <ele>72.1</ele>
        <time>2022-04-20T14:13:44Z</time>
      </trkpt>
      <trkpt lat="49.97731" lon="2.41362">
        <ele>72</ele>
        <time>2022-04-20T14:13:46Z</time>
      </trkpt>
      <trkpt lat="49.97731" lon="2.41363">
        <ele>72</ele>
        <time>2022-04-20T14:13:47Z</time>
      </trkpt>
      <trkpt lat="49.97731" lon="2.41365">
        <ele>71.9</ele>
        <time>2022-04-20T14:13:48Z</time>
      </trkpt>
      <trkpt lat="49.97731" lon="2.41367">
        <ele>71.9</ele>
        <time>2022-04-20T14:13:49Z</time>
      </trkpt>
      <trkpt lat="49.9773" lon="2.41368">
        <ele>71.9</ele>
        <time>2022-04-20T14:13:50Z</time>
      </trkpt>
      <trkpt lat="49.9773" lon="2.4137">
        <ele>71.8</ele>
        <time>2022-04-20T14:13:51Z</time>
      </trkpt>
      <trkpt lat="49.97729" lon="2.41374">
        <ele>71.8</ele>
        <time>2022-04-20T14:13:53Z</time>
      </trkpt>
      <trkpt lat="49.97729" lon="2.41376">
        <ele>71.7</ele>
        <time>2022-04-20T14:13:54Z</time>
      </trkpt>
      <trkpt lat="49.97729" lon="2.41378">
        <ele>71.7</ele>
        <time>2022-04-20T14:13:55Z</time>
      </trkpt>
      <trkpt lat="49.97728" lon="2.4138">
        <ele>71.6</ele>
        <time>2022-04-20T14:13:56Z</time>
      </trkpt>
      <trkpt lat="49.97728" lon="2.41383">
        <ele>71.6</ele>
        <time>2022-04-20T14:13:58Z</time>
      </trkpt>
      <trkpt lat="49.97727" lon="2.41385">
        <ele>71.5</ele>
        <time>2022-04-20T14:13:59Z</time>
      </trkpt>
      <trkpt lat="49.97727" lon="2.41387">
        <ele>71.5</ele>
        <time>2022-04-20T14:14:00Z</time>
      </trkpt>
      <trkpt lat="49.97727" lon="2.41389">
        <ele>71.4</ele>
        <time>2022-04-20T14:14:01Z</time>
      </trkpt>
      <trkpt lat="49.97726" lon="2.41391">
        <ele>71.3</ele>
        <time>2022-04-20T14:14:02Z</time>
      </trkpt>
      <trkpt lat="49.97726" lon="2.41393">
        <ele>71.3</ele>
        <time>2022-04-20T14:14:04Z</time>
      </trkpt>
      <trkpt lat="49.97726" lon="2.41397">
        <ele>71.2</ele>
        <time>2022-04-20T14:14:05Z</time>
      </trkpt>
      <trkpt lat="49.97725" lon="2.41398">
        <ele>71.1</ele>
        <time>2022-04-20T14:14:06Z</time>
      </trkpt>
      <trkpt lat="49.97725" lon="2.41401">
        <ele>71</ele>
        <time>2022-04-20T14:14:08Z</time>
      </trkpt>
      <trkpt lat="49.97725" lon="2.41403">
        <ele>70.9</ele>
        <time>2022-04-20T14:14:09Z</time>
      </trkpt>
      <trkpt lat="49.97724" lon="2.41406">
        <ele>70.8</ele>
        <time>2022-04-20T14:14:10Z</time>
      </trkpt>
      <trkpt lat="49.97724" lon="2.41408">
        <ele>70.8</ele>
        <time>2022-04-20T14:14:11Z</time>
      </trkpt>
      <trkpt lat="49.97724" lon="2.41409">
        <ele>70.7</ele>
        <time>2022-04-20T14:14:12Z</time>
      </trkpt>
      <trkpt lat="49.97723" lon="2.41412">
        <ele>70.7</ele>
        <time>2022-04-20T14:14:14Z</time>
      </trkpt>
      <trkpt lat="49.97723" lon="2.41414">
        <ele>70.6</ele>
        <time>2022-04-20T14:14:15Z</time>
      </trkpt>
      <trkpt lat="49.97723" lon="2.41416">
        <ele>70.5</ele>
        <time>2022-04-20T14:14:16Z</time>
      </trkpt>
      <trkpt lat="49.97723" lon="2.41418">
        <ele>70.5</ele>
        <time>2022-04-20T14:14:17Z</time>
      </trkpt>
      <trkpt lat="49.97722" lon="2.41419">
        <ele>70.4</ele>
        <time>2022-04-20T14:14:18Z</time>
      </trkpt>
      <trkpt lat="49.97722" lon="2.41421">
        <ele>70.4</ele>
        <time>2022-04-20T14:14:19Z</time>
      </trkpt>
      <trkpt lat="49.97722" lon="2.41423">
        <ele>70.3</ele>
        <time>2022-04-20T14:14:20Z</time>
      </trkpt>
      <trkpt lat="49.97722" lon="2.41425">
        <ele>70.3</ele>
        <time>2022-04-20T14:14:22Z</time>
      </trkpt>
      <trkpt lat="49.97721" lon="2.41427">
        <ele>70.3</ele>
        <time>2022-04-20T14:14:23Z</time>
      </trkpt>
      <trkpt lat="49.97721" lon="2.41429">
        <ele>70.2</ele>
        <time>2022-04-20T14:14:24Z</time>
      </trkpt>
      <trkpt lat="49.97721" lon="2.41431">
        <ele>70.2</ele>
        <time>2022-04-20T14:14:26Z</time>
      </trkpt>
      <trkpt lat="49.97721" lon="2.41433">
        <ele>70.1</ele>
        <time>2022-04-20T14:14:27Z</time>
      </trkpt>
      <trkpt lat="49.9772" lon="2.41435">
        <ele>70.1</ele>
        <time>2022-04-20T14:14:28Z</time>
      </trkpt>
      <trkpt lat="49.9772" lon="2.41436">
        <ele>70</ele>
        <time>2022-04-20T14:14:29Z</time>
      </trkpt>
      <trkpt lat="49.9772" lon="2.41438">
        <ele>70</ele>
        <time>2022-04-20T14:14:30Z</time>
      </trkpt>
      <trkpt lat="49.9772" lon="2.4144">
        <ele>70</ele>
        <time>2022-04-20T14:14:31Z</time>
      </trkpt>
      <trkpt lat="49.9772" lon="2.41442">
        <ele>70</ele>
        <time>2022-04-20T14:14:32Z</time>
      </trkpt>
      <trkpt lat="49.97719" lon="2.41445">
        <ele>69.9</ele>
        <time>2022-04-20T14:14:33Z</time>
      </trkpt>
      <trkpt lat="49.97719" lon="2.41446">
        <ele>69.9</ele>
        <time>2022-04-20T14:14:34Z</time>
      </trkpt>
      <trkpt lat="49.97719" lon="2.41447">
        <ele>69.9</ele>
        <time>2022-04-20T14:14:35Z</time>
      </trkpt>
      <trkpt lat="49.97719" lon="2.41451">
        <ele>69.8</ele>
        <time>2022-04-20T14:14:36Z</time>
      </trkpt>
      <trkpt lat="49.97719" lon="2.41452">
        <ele>69.8</ele>
        <time>2022-04-20T14:14:38Z</time>
      </trkpt>
      <trkpt lat="49.97719" lon="2.41454">
        <ele>69.8</ele>
        <time>2022-04-20T14:14:39Z</time>
      </trkpt>
      <trkpt lat="49.97718" lon="2.41456">
        <ele>69.7</ele>
        <time>2022-04-20T14:14:40Z</time>
      </trkpt>
      <trkpt lat="49.97718" lon="2.41457">
        <ele>69.7</ele>
        <time>2022-04-20T14:14:41Z</time>
      </trkpt>
      <trkpt lat="49.97718" lon="2.41459">
        <ele>69.7</ele>
        <time>2022-04-20T14:14:42Z</time>
      </trkpt>
      <trkpt lat="49.97718" lon="2.41461">
        <ele>69.7</ele>
        <time>2022-04-20T14:14:43Z</time>
      </trkpt>
      <trkpt lat="49.97718" lon="2.41462">
        <ele>69.6</ele>
        <time>2022-04-20T14:14:44Z</time>
      </trkpt>
      <trkpt lat="49.97718" lon="2.41464">
        <ele>69.6</ele>
        <time>2022-04-20T14:14:45Z</time>
      </trkpt>
      <trkpt lat="49.97718" lon="2.41466">
        <ele>69.6</ele>
        <time>2022-04-20T14:14:46Z</time>
      </trkpt>
      <trkpt lat="49.97718" lon="2.41468">
        <ele>69.6</ele>
        <time>2022-04-20T14:14:48Z</time>
      </trkpt>
      <trkpt lat="49.97718" lon="2.4147">
        <ele>69.6</ele>
        <time>2022-04-20T14:14:49Z</time>
      </trkpt>
      <trkpt lat="49.97718" lon="2.41471">
        <ele>69.5</ele>
        <time>2022-04-20T14:14:50Z</time>
      </trkpt>
      <trkpt lat="49.97718" lon="2.41473">
        <ele>69.5</ele>
        <time>2022-04-20T14:14:51Z</time>
      </trkpt>
      <trkpt lat="49.97717" lon="2.41477">
        <ele>69.5</ele>
        <time>2022-04-20T14:14:52Z</time>
      </trkpt>
      <trkpt lat="49.97717" lon="2.41478">
        <ele>69.5</ele>
        <time>2022-04-20T14:14:54Z</time>
      </trkpt>
      <trkpt lat="49.97717" lon="2.4148">
        <ele>69.4</ele>
        <time>2022-04-20T14:14:55Z</time>
      </trkpt>
      <trkpt lat="49.97717" lon="2.41482">
        <ele>69.4</ele>
        <time>2022-04-20T14:14:56Z</time>
      </trkpt>
      <trkpt lat="49.97717" lon="2.41483">
        <ele>69.4</ele>
        <time>2022-04-20T14:14:57Z</time>
      </trkpt>
      <trkpt lat="49.97716" lon="2.41487">
        <ele>69.4</ele>
        <time>2022-04-20T14:14:58Z</time>
      </trkpt>
      <trkpt lat="49.97716" lon="2.41488">
        <ele>69.3</ele>
        <time>2022-04-20T14:14:59Z</time>
      </trkpt>
      <trkpt lat="49.97716" lon="2.4149">
        <ele>69.3</ele>
        <time>2022-04-20T14:15:00Z</time>
      </trkpt>
      <trkpt lat="49.97715" lon="2.41493">
        <ele>69.3</ele>
        <time>2022-04-20T14:15:02Z</time>
      </trkpt>
      <trkpt lat="49.97715" lon="2.41494">
        <ele>69.3</ele>
        <time>2022-04-20T14:15:03Z</time>
      </trkpt>
      <trkpt lat="49.97715" lon="2.41495">
        <ele>69.2</ele>
        <time>2022-04-20T14:15:04Z</time>
      </trkpt>
      <trkpt lat="49.97715" lon="2.41499">
        <ele>69.2</ele>
        <time>2022-04-20T14:15:05Z</time>
      </trkpt>
      <trkpt lat="49.97715" lon="2.415">
        <ele>69.2</ele>
        <time>2022-04-20T14:15:06Z</time>
      </trkpt>
      <trkpt lat="49.97714" lon="2.41501">
        <ele>69.2</ele>
        <time>2022-04-20T14:15:07Z</time>
      </trkpt>
      <trkpt lat="49.97714" lon="2.41503">
        <ele>69.2</ele>
        <time>2022-04-20T14:15:08Z</time>
      </trkpt>
      <trkpt lat="49.97714" lon="2.41505">
        <ele>69.1</ele>
        <time>2022-04-20T14:15:10Z</time>
      </trkpt>
      <trkpt lat="49.97714" lon="2.41506">
        <ele>69.1</ele>
        <time>2022-04-20T14:15:11Z</time>
      </trkpt>
      <trkpt lat="49.97713" lon="2.41508">
        <ele>69.1</ele>
        <time>2022-04-20T14:15:12Z</time>
      </trkpt>
      <trkpt lat="49.97713" lon="2.4151">
        <ele>69.1</ele>
        <time>2022-04-20T14:15:13Z</time>
      </trkpt>
      <trkpt lat="49.97713" lon="2.41512">
        <ele>69</ele>
        <time>2022-04-20T14:15:14Z</time>
      </trkpt>
      <trkpt lat="49.97713" lon="2.41514">
        <ele>69</ele>
        <time>2022-04-20T14:15:15Z</time>
      </trkpt>
      <trkpt lat="49.97713" lon="2.41516">
        <ele>69</ele>
        <time>2022-04-20T14:15:16Z</time>
      </trkpt>
      <trkpt lat="49.97713" lon="2.41518">
        <ele>69</ele>
        <time>2022-04-20T14:15:18Z</time>
      </trkpt>
      <trkpt lat="49.97713" lon="2.41519">
        <ele>69</ele>
        <time>2022-04-20T14:15:19Z</time>
      </trkpt>
      <trkpt lat="49.97713" lon="2.41521">
        <ele>68.9</ele>
        <time>2022-04-20T14:15:20Z</time>
      </trkpt>
      <trkpt lat="49.97713" lon="2.41524">
        <ele>68.9</ele>
        <time>2022-04-20T14:15:21Z</time>
      </trkpt>
      <trkpt lat="49.97712" lon="2.41525">
        <ele>68.9</ele>
        <time>2022-04-20T14:15:22Z</time>
      </trkpt>
      <trkpt lat="49.97712" lon="2.41527">
        <ele>68.9</ele>
        <time>2022-04-20T14:15:23Z</time>
      </trkpt>
      <trkpt lat="49.97712" lon="2.4153">
        <ele>68.9</ele>
        <time>2022-04-20T14:15:24Z</time>
      </trkpt>
      <trkpt lat="49.97712" lon="2.41531">
        <ele>68.8</ele>
        <time>2022-04-20T14:15:26Z</time>
      </trkpt>
      <trkpt lat="49.97712" lon="2.41533">
        <ele>68.8</ele>
        <time>2022-04-20T14:15:27Z</time>
      </trkpt>
      <trkpt lat="49.97712" lon="2.41535">
        <ele>68.8</ele>
        <time>2022-04-20T14:15:28Z</time>
      </trkpt>
      <trkpt lat="49.97712" lon="2.41538">
        <ele>68.8</ele>
        <time>2022-04-20T14:15:30Z</time>
      </trkpt>
      <trkpt lat="49.97712" lon="2.4154">
        <ele>68.8</ele>
        <time>2022-04-20T14:15:31Z</time>
      </trkpt>
      <trkpt lat="49.97711" lon="2.41541">
        <ele>68.8</ele>
        <time>2022-04-20T14:15:32Z</time>
      </trkpt>
      <trkpt lat="49.97711" lon="2.41543">
        <ele>68.7</ele>
        <time>2022-04-20T14:15:33Z</time>
      </trkpt>
      <trkpt lat="49.97711" lon="2.41546">
        <ele>68.7</ele>
        <time>2022-04-20T14:15:34Z</time>
      </trkpt>
      <trkpt lat="49.97711" lon="2.41548">
        <ele>68.7</ele>
        <time>2022-04-20T14:15:35Z</time>
      </trkpt>
      <trkpt lat="49.97711" lon="2.41549">
        <ele>68.7</ele>
        <time>2022-04-20T14:15:36Z</time>
      </trkpt>
      <trkpt lat="49.97711" lon="2.41551">
        <ele>68.7</ele>
        <time>2022-04-20T14:15:37Z</time>
      </trkpt>
      <trkpt lat="49.97711" lon="2.41553">
        <ele>68.7</ele>
        <time>2022-04-20T14:15:38Z</time>
      </trkpt>
      <trkpt lat="49.9771" lon="2.41554">
        <ele>68.7</ele>
        <time>2022-04-20T14:15:39Z</time>
      </trkpt>
      <trkpt lat="49.9771" lon="2.41556">
        <ele>68.6</ele>
        <time>2022-04-20T14:15:40Z</time>
      </trkpt>
      <trkpt lat="49.9771" lon="2.41559">
        <ele>68.6</ele>
        <time>2022-04-20T14:15:41Z</time>
      </trkpt>
      <trkpt lat="49.97709" lon="2.41561">
        <ele>68.6</ele>
        <time>2022-04-20T14:15:42Z</time>
      </trkpt>
      <trkpt lat="49.97709" lon="2.41563">
        <ele>68.6</ele>
        <time>2022-04-20T14:15:43Z</time>
      </trkpt>
      <trkpt lat="49.97709" lon="2.41565">
        <ele>68.6</ele>
        <time>2022-04-20T14:15:45Z</time>
      </trkpt>
      <trkpt lat="49.97708" lon="2.41567">
        <ele>68.6</ele>
        <time>2022-04-20T14:15:46Z</time>
      </trkpt>
      <trkpt lat="49.97708" lon="2.4157">
        <ele>68.5</ele>
        <time>2022-04-20T14:15:47Z</time>
      </trkpt>
      <trkpt lat="49.97708" lon="2.41571">
        <ele>68.5</ele>
        <time>2022-04-20T14:15:48Z</time>
      </trkpt>
      <trkpt lat="49.97707" lon="2.41572">
        <ele>68.5</ele>
        <time>2022-04-20T14:15:49Z</time>
      </trkpt>
      <trkpt lat="49.97707" lon="2.41575">
        <ele>68.5</ele>
        <time>2022-04-20T14:15:50Z</time>
      </trkpt>
      <trkpt lat="49.97706" lon="2.41577">
        <ele>68.5</ele>
        <time>2022-04-20T14:15:51Z</time>
      </trkpt>
      <trkpt lat="49.97706" lon="2.41578">
        <ele>68.5</ele>
        <time>2022-04-20T14:15:52Z</time>
      </trkpt>
      <trkpt lat="49.97706" lon="2.41581">
        <ele>68.4</ele>
        <time>2022-04-20T14:15:54Z</time>
      </trkpt>
      <trkpt lat="49.97705" lon="2.41582">
        <ele>68.4</ele>
        <time>2022-04-20T14:15:55Z</time>
      </trkpt>
      <trkpt lat="49.97705" lon="2.41583">
        <ele>68.4</ele>
        <time>2022-04-20T14:15:56Z</time>
      </trkpt>
      <trkpt lat="49.97705" lon="2.41585">
        <ele>68.4</ele>
        <time>2022-04-20T14:15:57Z</time>
      </trkpt>
      <trkpt lat="49.97705" lon="2.41587">
        <ele>68.4</ele>
        <time>2022-04-20T14:15:58Z</time>
      </trkpt>
      <trkpt lat="49.97704" lon="2.41589">
        <ele>68.4</ele>
        <time>2022-04-20T14:15:59Z</time>
      </trkpt>
      <trkpt lat="49.97704" lon="2.4159">
        <ele>68.4</ele>
        <time>2022-04-20T14:16:00Z</time>
      </trkpt>
      <trkpt lat="49.97704" lon="2.41591">
        <ele>68.4</ele>
        <time>2022-04-20T14:16:02Z</time>
      </trkpt>
      <trkpt lat="49.97704" lon="2.41593">
        <ele>68.3</ele>
        <time>2022-04-20T14:16:03Z</time>
      </trkpt>
      <trkpt lat="49.97703" lon="2.41597">
        <ele>68.3</ele>
        <time>2022-04-20T14:16:04Z</time>
      </trkpt>
      <trkpt lat="49.97703" lon="2.41598">
        <ele>68.3</ele>
        <time>2022-04-20T14:16:05Z</time>
      </trkpt>
      <trkpt lat="49.97703" lon="2.41599">
        <ele>68.3</ele>
        <time>2022-04-20T14:16:06Z</time>
      </trkpt>
      <trkpt lat="49.97702" lon="2.41601">
        <ele>68.3</ele>
        <time>2022-04-20T14:16:07Z</time>
      </trkpt>
      <trkpt lat="49.97702" lon="2.41603">
        <ele>68.3</ele>
        <time>2022-04-20T14:16:08Z</time>
      </trkpt>
      <trkpt lat="49.97702" lon="2.41605">
        <ele>68.3</ele>
        <time>2022-04-20T14:16:09Z</time>
      </trkpt>
      <trkpt lat="49.97702" lon="2.41607">
        <ele>68.3</ele>
        <time>2022-04-20T14:16:11Z</time>
      </trkpt>
      <trkpt lat="49.97701" lon="2.41608">
        <ele>68.2</ele>
        <time>2022-04-20T14:16:12Z</time>
      </trkpt>
      <trkpt lat="49.97701" lon="2.4161">
        <ele>68.2</ele>
        <time>2022-04-20T14:16:13Z</time>
      </trkpt>
      <trkpt lat="49.977" lon="2.41613">
        <ele>68.2</ele>
        <time>2022-04-20T14:16:14Z</time>
      </trkpt>
      <trkpt lat="49.977" lon="2.41614">
        <ele>68.2</ele>
        <time>2022-04-20T14:16:15Z</time>
      </trkpt>
      <trkpt lat="49.977" lon="2.41616">
        <ele>68.2</ele>
        <time>2022-04-20T14:16:16Z</time>
      </trkpt>
      <trkpt lat="49.97699" lon="2.41619">
        <ele>68.1</ele>
        <time>2022-04-20T14:16:17Z</time>
      </trkpt>
      <trkpt lat="49.97699" lon="2.4162">
        <ele>68.1</ele>
        <time>2022-04-20T14:16:19Z</time>
      </trkpt>
      <trkpt lat="49.97699" lon="2.41621">
        <ele>68.1</ele>
        <time>2022-04-20T14:16:20Z</time>
      </trkpt>
      <trkpt lat="49.97699" lon="2.41623">
        <ele>68.1</ele>
        <time>2022-04-20T14:16:21Z</time>
      </trkpt>
      <trkpt lat="49.97699" lon="2.41625">
        <ele>68.1</ele>
        <time>2022-04-20T14:16:22Z</time>
      </trkpt>
      <trkpt lat="49.97698" lon="2.41626">
        <ele>68.1</ele>
        <time>2022-04-20T14:16:23Z</time>
      </trkpt>
      <trkpt lat="49.97698" lon="2.4163">
        <ele>68</ele>
        <time>2022-04-20T14:16:24Z</time>
      </trkpt>
      <trkpt lat="49.97698" lon="2.41631">
        <ele>68</ele>
        <time>2022-04-20T14:16:25Z</time>
      </trkpt>
      <trkpt lat="49.97698" lon="2.41633">
        <ele>68</ele>
        <time>2022-04-20T14:16:27Z</time>
      </trkpt>
      <trkpt lat="49.97697" lon="2.41634">
        <ele>68</ele>
        <time>2022-04-20T14:16:28Z</time>
      </trkpt>
      <trkpt lat="49.97697" lon="2.41636">
        <ele>68</ele>
        <time>2022-04-20T14:16:29Z</time>
      </trkpt>
      <trkpt lat="49.97697" lon="2.41637">
        <ele>68</ele>
        <time>2022-04-20T14:16:30Z</time>
      </trkpt>
      <trkpt lat="49.97697" lon="2.41639">
        <ele>68</ele>
        <time>2022-04-20T14:16:31Z</time>
      </trkpt>
      <trkpt lat="49.97696" lon="2.41641">
        <ele>67.9</ele>
        <time>2022-04-20T14:16:32Z</time>
      </trkpt>
      <trkpt lat="49.97696" lon="2.41643">
        <ele>67.9</ele>
        <time>2022-04-20T14:16:33Z</time>
      </trkpt>
      <trkpt lat="49.97696" lon="2.41645">
        <ele>67.9</ele>
        <time>2022-04-20T14:16:35Z</time>
      </trkpt>
      <trkpt lat="49.97695" lon="2.41647">
        <ele>67.9</ele>
        <time>2022-04-20T14:16:36Z</time>
      </trkpt>
      <trkpt lat="49.97695" lon="2.41649">
        <ele>67.9</ele>
        <time>2022-04-20T14:16:37Z</time>
      </trkpt>
      <trkpt lat="49.97695" lon="2.41651">
        <ele>67.9</ele>
        <time>2022-04-20T14:16:39Z</time>
      </trkpt>
      <trkpt lat="49.97695" lon="2.41652">
        <ele>67.9</ele>
        <time>2022-04-20T14:16:40Z</time>
      </trkpt>
      <trkpt lat="49.97694" lon="2.41654">
        <ele>67.9</ele>
        <time>2022-04-20T14:16:41Z</time>
      </trkpt>
      <trkpt lat="49.97693" lon="2.41656">
        <ele>67.9</ele>
        <time>2022-04-20T14:16:42Z</time>
      </trkpt>
      <trkpt lat="49.97693" lon="2.41657">
        <ele>67.9</ele>
        <time>2022-04-20T14:16:43Z</time>
      </trkpt>
      <trkpt lat="49.97692" lon="2.41659">
        <ele>67.9</ele>
        <time>2022-04-20T14:16:44Z</time>
      </trkpt>
      <trkpt lat="49.97691" lon="2.41661">
        <ele>67.8</ele>
        <time>2022-04-20T14:16:45Z</time>
      </trkpt>
      <trkpt lat="49.97691" lon="2.41662">
        <ele>67.8</ele>
        <time>2022-04-20T14:16:46Z</time>
      </trkpt>
      <trkpt lat="49.9769" lon="2.41665">
        <ele>67.8</ele>
        <time>2022-04-20T14:16:48Z</time>
      </trkpt>
      <trkpt lat="49.9769" lon="2.41666">
        <ele>67.8</ele>
        <time>2022-04-20T14:16:49Z</time>
      </trkpt>
      <trkpt lat="49.97689" lon="2.41667">
        <ele>67.8</ele>
        <time>2022-04-20T14:16:50Z</time>
      </trkpt>
      <trkpt lat="49.97689" lon="2.41671">
        <ele>67.8</ele>
        <time>2022-04-20T14:16:51Z</time>
      </trkpt>
      <trkpt lat="49.97689" lon="2.41672">
        <ele>67.8</ele>
        <time>2022-04-20T14:16:52Z</time>
      </trkpt>
      <trkpt lat="49.97689" lon="2.41673">
        <ele>67.8</ele>
        <time>2022-04-20T14:16:53Z</time>
      </trkpt>
      <trkpt lat="49.97688" lon="2.41676">
        <ele>67.8</ele>
        <time>2022-04-20T14:16:54Z</time>
      </trkpt>
      <trkpt lat="49.97688" lon="2.41677">
        <ele>67.8</ele>
        <time>2022-04-20T14:16:55Z</time>
      </trkpt>
      <trkpt lat="49.97687" lon="2.41679">
        <ele>67.8</ele>
        <time>2022-04-20T14:16:56Z</time>
      </trkpt>
      <trkpt lat="49.97687" lon="2.41681">
        <ele>67.8</ele>
        <time>2022-04-20T14:16:58Z</time>
      </trkpt>
      <trkpt lat="49.97687" lon="2.41683">
        <ele>67.8</ele>
        <time>2022-04-20T14:16:59Z</time>
      </trkpt>
      <trkpt lat="49.97687" lon="2.41685">
        <ele>67.8</ele>
        <time>2022-04-20T14:17:00Z</time>
      </trkpt>
      <trkpt lat="49.97687" lon="2.41686">
        <ele>67.8</ele>
        <time>2022-04-20T14:17:01Z</time>
      </trkpt>
      <trkpt lat="49.97687" lon="2.41688">
        <ele>67.8</ele>
        <time>2022-04-20T14:17:02Z</time>
      </trkpt>
      <trkpt lat="49.97687" lon="2.4169">
        <ele>67.8</ele>
        <time>2022-04-20T14:17:03Z</time>
      </trkpt>
      <trkpt lat="49.97686" lon="2.41692">
        <ele>67.7</ele>
        <time>2022-04-20T14:17:04Z</time>
      </trkpt>
      <trkpt lat="49.97686" lon="2.41694">
        <ele>67.7</ele>
        <time>2022-04-20T14:17:05Z</time>
      </trkpt>
      <trkpt lat="49.97686" lon="2.41697">
        <ele>67.7</ele>
        <time>2022-04-20T14:17:07Z</time>
      </trkpt>
      <trkpt lat="49.97685" lon="2.41698">
        <ele>67.7</ele>
        <time>2022-04-20T14:17:08Z</time>
      </trkpt>
      <trkpt lat="49.97685" lon="2.41699">
        <ele>67.7</ele>
        <time>2022-04-20T14:17:09Z</time>
      </trkpt>
      <trkpt lat="49.97685" lon="2.41701">
        <ele>67.7</ele>
        <time>2022-04-20T14:17:10Z</time>
      </trkpt>
      <trkpt lat="49.97685" lon="2.41703">
        <ele>67.7</ele>
        <time>2022-04-20T14:17:11Z</time>
      </trkpt>
      <trkpt lat="49.97684" lon="2.41706">
        <ele>67.7</ele>
        <time>2022-04-20T14:17:13Z</time>
      </trkpt>
      <trkpt lat="49.97684" lon="2.41709">
        <ele>67.7</ele>
        <time>2022-04-20T14:17:14Z</time>
      </trkpt>
      <trkpt lat="49.97683" lon="2.4171">
        <ele>67.7</ele>
        <time>2022-04-20T14:17:15Z</time>
      </trkpt>
      <trkpt lat="49.97683" lon="2.41711">
        <ele>67.7</ele>
        <time>2022-04-20T14:17:16Z</time>
      </trkpt>
      <trkpt lat="49.97683" lon="2.41715">
        <ele>67.7</ele>
        <time>2022-04-20T14:17:17Z</time>
      </trkpt>
      <trkpt lat="49.97682" lon="2.41717">
        <ele>67.7</ele>
        <time>2022-04-20T14:17:19Z</time>
      </trkpt>
      <trkpt lat="49.97682" lon="2.41719">
        <ele>67.7</ele>
        <time>2022-04-20T14:17:20Z</time>
      </trkpt>
      <trkpt lat="49.97682" lon="2.41721">
        <ele>67.7</ele>
        <time>2022-04-20T14:17:22Z</time>
      </trkpt>
      <trkpt lat="49.97682" lon="2.41723">
        <ele>67.6</ele>
        <time>2022-04-20T14:17:23Z</time>
      </trkpt>
      <trkpt lat="49.97681" lon="2.41725">
        <ele>67.6</ele>
        <time>2022-04-20T14:17:24Z</time>
      </trkpt>
      <trkpt lat="49.97681" lon="2.41726">
        <ele>67.6</ele>
        <time>2022-04-20T14:17:25Z</time>
      </trkpt>
      <trkpt lat="49.97681" lon="2.4173">
        <ele>67.6</ele>
        <time>2022-04-20T14:17:26Z</time>
      </trkpt>
      <trkpt lat="49.97681" lon="2.41731">
        <ele>67.6</ele>
        <time>2022-04-20T14:17:27Z</time>
      </trkpt>
      <trkpt lat="49.9768" lon="2.41732">
        <ele>67.6</ele>
        <time>2022-04-20T14:17:28Z</time>
      </trkpt>
      <trkpt lat="49.9768" lon="2.41736">
        <ele>67.6</ele>
        <time>2022-04-20T14:17:29Z</time>
      </trkpt>
      <trkpt lat="49.9768" lon="2.41737">
        <ele>67.6</ele>
        <time>2022-04-20T14:17:31Z</time>
      </trkpt>
      <trkpt lat="49.9768" lon="2.41738">
        <ele>67.6</ele>
        <time>2022-04-20T14:17:32Z</time>
      </trkpt>
      <trkpt lat="49.97679" lon="2.4174">
        <ele>67.6</ele>
        <time>2022-04-20T14:17:33Z</time>
      </trkpt>
      <trkpt lat="49.97679" lon="2.41742">
        <ele>67.5</ele>
        <time>2022-04-20T14:17:35Z</time>
      </trkpt>
      <trkpt lat="49.97679" lon="2.41744">
        <ele>67.5</ele>
        <time>2022-04-20T14:17:36Z</time>
      </trkpt>
      <trkpt lat="49.97679" lon="2.41746">
        <ele>67.5</ele>
        <time>2022-04-20T14:17:37Z</time>
      </trkpt>
      <trkpt lat="49.97678" lon="2.41748">
        <ele>67.5</ele>
        <time>2022-04-20T14:17:38Z</time>
      </trkpt>
      <trkpt lat="49.97678" lon="2.4175">
        <ele>67.5</ele>
        <time>2022-04-20T14:17:39Z</time>
      </trkpt>
      <trkpt lat="49.97678" lon="2.41752">
        <ele>67.5</ele>
        <time>2022-04-20T14:17:40Z</time>
      </trkpt>
      <trkpt lat="49.97677" lon="2.41755">
        <ele>67.4</ele>
        <time>2022-04-20T14:17:42Z</time>
      </trkpt>
      <trkpt lat="49.97677" lon="2.41757">
        <ele>67.4</ele>
        <time>2022-04-20T14:17:43Z</time>
      </trkpt>
      <trkpt lat="49.97677" lon="2.41759">
        <ele>67.4</ele>
        <time>2022-04-20T14:17:44Z</time>
      </trkpt>
      <trkpt lat="49.97677" lon="2.4176">
        <ele>67.4</ele>
        <time>2022-04-20T14:17:45Z</time>
      </trkpt>
      <trkpt lat="49.97676" lon="2.41762">
        <ele>67.4</ele>
        <time>2022-04-20T14:17:46Z</time>
      </trkpt>
      <trkpt lat="49.97676" lon="2.41764">
        <ele>67.4</ele>
        <time>2022-04-20T14:17:47Z</time>
      </trkpt>
      <trkpt lat="49.97676" lon="2.41766">
        <ele>67.3</ele>
        <time>2022-04-20T14:17:48Z</time>
      </trkpt>
      <trkpt lat="49.97676" lon="2.41768">
        <ele>67.3</ele>
        <time>2022-04-20T14:17:50Z</time>
      </trkpt>
      <trkpt lat="49.97675" lon="2.41771">
        <ele>67.3</ele>
        <time>2022-04-20T14:17:51Z</time>
      </trkpt>
      <trkpt lat="49.97675" lon="2.41772">
        <ele>67.3</ele>
        <time>2022-04-20T14:17:52Z</time>
      </trkpt>
      <trkpt lat="49.97675" lon="2.41773">
        <ele>67.3</ele>
        <time>2022-04-20T14:17:53Z</time>
      </trkpt>
      <trkpt lat="49.97674" lon="2.41776">
        <ele>67.2</ele>
        <time>2022-04-20T14:17:54Z</time>
      </trkpt>
      <trkpt lat="49.97674" lon="2.41778">
        <ele>67.2</ele>
        <time>2022-04-20T14:17:55Z</time>
      </trkpt>
      <trkpt lat="49.97674" lon="2.41779">
        <ele>67.2</ele>
        <time>2022-04-20T14:17:56Z</time>
      </trkpt>
      <trkpt lat="49.97673" lon="2.41781">
        <ele>67.2</ele>
        <time>2022-04-20T14:17:57Z</time>
      </trkpt>
      <trkpt lat="49.97673" lon="2.41783">
        <ele>67.2</ele>
        <time>2022-04-20T14:17:59Z</time>
      </trkpt>
      <trkpt lat="49.97673" lon="2.41784">
        <ele>67.2</ele>
        <time>2022-04-20T14:18:00Z</time>
      </trkpt>
      <trkpt lat="49.97673" lon="2.41786">
        <ele>67.2</ele>
        <time>2022-04-20T14:18:01Z</time>
      </trkpt>
      <trkpt lat="49.97673" lon="2.41788">
        <ele>67.2</ele>
        <time>2022-04-20T14:18:02Z</time>
      </trkpt>
      <trkpt lat="49.97672" lon="2.4179">
        <ele>67.1</ele>
        <time>2022-04-20T14:18:04Z</time>
      </trkpt>
      <trkpt lat="49.97672" lon="2.41792">
        <ele>67.1</ele>
        <time>2022-04-20T14:18:05Z</time>
      </trkpt>
      <trkpt lat="49.97671" lon="2.41794">
        <ele>67.1</ele>
        <time>2022-04-20T14:18:06Z</time>
      </trkpt>
      <trkpt lat="49.97671" lon="2.41795">
        <ele>67.1</ele>
        <time>2022-04-20T14:18:07Z</time>
      </trkpt>
      <trkpt lat="49.9767" lon="2.41798">
        <ele>67</ele>
        <time>2022-04-20T14:18:08Z</time>
      </trkpt>
      <trkpt lat="49.9767" lon="2.41799">
        <ele>67</ele>
        <time>2022-04-20T14:18:09Z</time>
      </trkpt>
      <trkpt lat="49.9767" lon="2.418">
        <ele>67</ele>
        <time>2022-04-20T14:18:10Z</time>
      </trkpt>
      <trkpt lat="49.97669" lon="2.41803">
        <ele>67</ele>
        <time>2022-04-20T14:18:11Z</time>
      </trkpt>
      <trkpt lat="49.97669" lon="2.41805">
        <ele>67</ele>
        <time>2022-04-20T14:18:12Z</time>
      </trkpt>
      <trkpt lat="49.97668" lon="2.41806">
        <ele>66.9</ele>
        <time>2022-04-20T14:18:13Z</time>
      </trkpt>
      <trkpt lat="49.97668" lon="2.41809">
        <ele>66.9</ele>
        <time>2022-04-20T14:18:14Z</time>
      </trkpt>
      <trkpt lat="49.97667" lon="2.4181">
        <ele>66.9</ele>
        <time>2022-04-20T14:18:15Z</time>
      </trkpt>
      <trkpt lat="49.97667" lon="2.41812">
        <ele>66.9</ele>
        <time>2022-04-20T14:18:16Z</time>
      </trkpt>
      <trkpt lat="49.97667" lon="2.41815">
        <ele>66.8</ele>
        <time>2022-04-20T14:18:18Z</time>
      </trkpt>
      <trkpt lat="49.97666" lon="2.41816">
        <ele>66.8</ele>
        <time>2022-04-20T14:18:19Z</time>
      </trkpt>
      <trkpt lat="49.97666" lon="2.41817">
        <ele>66.8</ele>
        <time>2022-04-20T14:18:20Z</time>
      </trkpt>
      <trkpt lat="49.97666" lon="2.41818">
        <ele>66.8</ele>
        <time>2022-04-20T14:18:21Z</time>
      </trkpt>
      <trkpt lat="49.97665" lon="2.4182">
        <ele>66.8</ele>
        <time>2022-04-20T14:18:22Z</time>
      </trkpt>
      <trkpt lat="49.97665" lon="2.41822">
        <ele>66.8</ele>
        <time>2022-04-20T14:18:23Z</time>
      </trkpt>
      <trkpt lat="49.97665" lon="2.41824">
        <ele>66.7</ele>
        <time>2022-04-20T14:18:24Z</time>
      </trkpt>
      <trkpt lat="49.97664" lon="2.41826">
        <ele>66.7</ele>
        <time>2022-04-20T14:18:25Z</time>
      </trkpt>
      <trkpt lat="49.97664" lon="2.41828">
        <ele>66.7</ele>
        <time>2022-04-20T14:18:27Z</time>
      </trkpt>
      <trkpt lat="49.97663" lon="2.41831">
        <ele>66.7</ele>
        <time>2022-04-20T14:18:28Z</time>
      </trkpt>
      <trkpt lat="49.97663" lon="2.41832">
        <ele>66.7</ele>
        <time>2022-04-20T14:18:29Z</time>
      </trkpt>
      <trkpt lat="49.97662" lon="2.41833">
        <ele>66.6</ele>
        <time>2022-04-20T14:18:30Z</time>
      </trkpt>
      <trkpt lat="49.97662" lon="2.41835">
        <ele>66.6</ele>
        <time>2022-04-20T14:18:31Z</time>
      </trkpt>
      <trkpt lat="49.97662" lon="2.41836">
        <ele>66.6</ele>
        <time>2022-04-20T14:18:32Z</time>
      </trkpt>
      <trkpt lat="49.97661" lon="2.41838">
        <ele>66.6</ele>
        <time>2022-04-20T14:18:33Z</time>
      </trkpt>
      <trkpt lat="49.97661" lon="2.41839">
        <ele>66.6</ele>
        <time>2022-04-20T14:18:34Z</time>
      </trkpt>
      <trkpt lat="49.9766" lon="2.41841">
        <ele>66.6</ele>
        <time>2022-04-20T14:18:35Z</time>
      </trkpt>
      <trkpt lat="49.9766" lon="2.41843">
        <ele>66.5</ele>
        <time>2022-04-20T14:18:36Z</time>
      </trkpt>
      <trkpt lat="49.9766" lon="2.41844">
        <ele>66.5</ele>
        <time>2022-04-20T14:18:37Z</time>
      </trkpt>
      <trkpt lat="49.97659" lon="2.41846">
        <ele>66.5</ele>
        <time>2022-04-20T14:18:38Z</time>
      </trkpt>
      <trkpt lat="49.97659" lon="2.41847">
        <ele>66.5</ele>
        <time>2022-04-20T14:18:39Z</time>
      </trkpt>
      <trkpt lat="49.97658" lon="2.4185">
        <ele>66.5</ele>
        <time>2022-04-20T14:18:40Z</time>
      </trkpt>
      <trkpt lat="49.97658" lon="2.41852">
        <ele>66.5</ele>
        <time>2022-04-20T14:18:41Z</time>
      </trkpt>
      <trkpt lat="49.97658" lon="2.41853">
        <ele>66.4</ele>
        <time>2022-04-20T14:18:42Z</time>
      </trkpt>
      <trkpt lat="49.97657" lon="2.41856">
        <ele>66.4</ele>
        <time>2022-04-20T14:18:44Z</time>
      </trkpt>
      <trkpt lat="49.97657" lon="2.41857">
        <ele>66.4</ele>
        <time>2022-04-20T14:18:45Z</time>
      </trkpt>
      <trkpt lat="49.97656" lon="2.41859">
        <ele>66.4</ele>
        <time>2022-04-20T14:18:46Z</time>
      </trkpt>
      <trkpt lat="49.97656" lon="2.4186">
        <ele>66.4</ele>
        <time>2022-04-20T14:18:47Z</time>
      </trkpt>
      <trkpt lat="49.97656" lon="2.41862">
        <ele>66.4</ele>
        <time>2022-04-20T14:18:48Z</time>
      </trkpt>
      <trkpt lat="49.97656" lon="2.41863">
        <ele>66.4</ele>
        <time>2022-04-20T14:18:49Z</time>
      </trkpt>
      <trkpt lat="49.97655" lon="2.41865">
        <ele>66.4</ele>
        <time>2022-04-20T14:18:50Z</time>
      </trkpt>
      <trkpt lat="49.97655" lon="2.41867">
        <ele>66.3</ele>
        <time>2022-04-20T14:18:51Z</time>
      </trkpt>
      <trkpt lat="49.97654" lon="2.41869">
        <ele>66.3</ele>
        <time>2022-04-20T14:18:52Z</time>
      </trkpt>
      <trkpt lat="49.97654" lon="2.41871">
        <ele>66.3</ele>
        <time>2022-04-20T14:18:53Z</time>
      </trkpt>
      <trkpt lat="49.97653" lon="2.41872">
        <ele>66.3</ele>
        <time>2022-04-20T14:18:54Z</time>
      </trkpt>
      <trkpt lat="49.97653" lon="2.41874">
        <ele>66.3</ele>
        <time>2022-04-20T14:18:55Z</time>
      </trkpt>
      <trkpt lat="49.97652" lon="2.41876">
        <ele>66.3</ele>
        <time>2022-04-20T14:18:56Z</time>
      </trkpt>
      <trkpt lat="49.97652" lon="2.41877">
        <ele>66.3</ele>
        <time>2022-04-20T14:18:58Z</time>
      </trkpt>
      <trkpt lat="49.97652" lon="2.41879">
        <ele>66.2</ele>
        <time>2022-04-20T14:18:59Z</time>
      </trkpt>
      <trkpt lat="49.97651" lon="2.41881">
        <ele>66.2</ele>
        <time>2022-04-20T14:19:00Z</time>
      </trkpt>
      <trkpt lat="49.97651" lon="2.41882">
        <ele>66.2</ele>
        <time>2022-04-20T14:19:01Z</time>
      </trkpt>
      <trkpt lat="49.97651" lon="2.41885">
        <ele>66.2</ele>
        <time>2022-04-20T14:19:03Z</time>
      </trkpt>
      <trkpt lat="49.9765" lon="2.41886">
        <ele>66.2</ele>
        <time>2022-04-20T14:19:04Z</time>
      </trkpt>
      <trkpt lat="49.9765" lon="2.4189">
        <ele>66.2</ele>
        <time>2022-04-20T14:19:05Z</time>
      </trkpt>
      <trkpt lat="49.9765" lon="2.41891">
        <ele>66.1</ele>
        <time>2022-04-20T14:19:06Z</time>
      </trkpt>
      <trkpt lat="49.9765" lon="2.41892">
        <ele>66.1</ele>
        <time>2022-04-20T14:19:07Z</time>
      </trkpt>
      <trkpt lat="49.9765" lon="2.41897">
        <ele>66.1</ele>
        <time>2022-04-20T14:19:09Z</time>
      </trkpt>
      <trkpt lat="49.9765" lon="2.41898">
        <ele>66.1</ele>
        <time>2022-04-20T14:19:10Z</time>
      </trkpt>
      <trkpt lat="49.9765" lon="2.419">
        <ele>66.1</ele>
        <time>2022-04-20T14:19:11Z</time>
      </trkpt>
      <trkpt lat="49.97649" lon="2.41901">
        <ele>66</ele>
        <time>2022-04-20T14:19:12Z</time>
      </trkpt>
      <trkpt lat="49.9765" lon="2.41903">
        <ele>66</ele>
        <time>2022-04-20T14:19:13Z</time>
      </trkpt>
      <trkpt lat="49.97649" lon="2.41905">
        <ele>66</ele>
        <time>2022-04-20T14:19:14Z</time>
      </trkpt>
      <trkpt lat="49.97649" lon="2.41907">
        <ele>66</ele>
        <time>2022-04-20T14:19:15Z</time>
      </trkpt>
      <trkpt lat="49.97649" lon="2.41909">
        <ele>65.9</ele>
        <time>2022-04-20T14:19:16Z</time>
      </trkpt>
      <trkpt lat="49.97649" lon="2.41912">
        <ele>65.9</ele>
        <time>2022-04-20T14:19:18Z</time>
      </trkpt>
      <trkpt lat="49.97648" lon="2.41913">
        <ele>65.9</ele>
        <time>2022-04-20T14:19:19Z</time>
      </trkpt>
      <trkpt lat="49.97648" lon="2.41914">
        <ele>65.9</ele>
        <time>2022-04-20T14:19:20Z</time>
      </trkpt>
      <trkpt lat="49.97648" lon="2.41916">
        <ele>65.9</ele>
        <time>2022-04-20T14:19:21Z</time>
      </trkpt>
      <trkpt lat="49.97648" lon="2.41917">
        <ele>65.8</ele>
        <time>2022-04-20T14:19:22Z</time>
      </trkpt>
      <trkpt lat="49.97648" lon="2.41919">
        <ele>65.8</ele>
        <time>2022-04-20T14:19:23Z</time>
      </trkpt>
      <trkpt lat="49.97648" lon="2.41921">
        <ele>65.8</ele>
        <time>2022-04-20T14:19:24Z</time>
      </trkpt>
      <trkpt lat="49.97647" lon="2.41923">
        <ele>65.8</ele>
        <time>2022-04-20T14:19:25Z</time>
      </trkpt>
      <trkpt lat="49.97647" lon="2.41924">
        <ele>65.7</ele>
        <time>2022-04-20T14:19:26Z</time>
      </trkpt>
      <trkpt lat="49.97647" lon="2.41926">
        <ele>65.7</ele>
        <time>2022-04-20T14:19:27Z</time>
      </trkpt>
      <trkpt lat="49.97646" lon="2.41928">
        <ele>65.7</ele>
        <time>2022-04-20T14:19:28Z</time>
      </trkpt>
      <trkpt lat="49.97646" lon="2.41929">
        <ele>65.7</ele>
        <time>2022-04-20T14:19:29Z</time>
      </trkpt>
      <trkpt lat="49.97646" lon="2.41931">
        <ele>65.7</ele>
        <time>2022-04-20T14:19:30Z</time>
      </trkpt>
      <trkpt lat="49.97646" lon="2.41932">
        <ele>65.6</ele>
        <time>2022-04-20T14:19:31Z</time>
      </trkpt>
      <trkpt lat="49.97646" lon="2.41934">
        <ele>65.6</ele>
        <time>2022-04-20T14:19:32Z</time>
      </trkpt>
      <trkpt lat="49.97645" lon="2.41937">
        <ele>65.6</ele>
        <time>2022-04-20T14:19:33Z</time>
      </trkpt>
      <trkpt lat="49.97645" lon="2.41938">
        <ele>65.6</ele>
        <time>2022-04-20T14:19:34Z</time>
      </trkpt>
      <trkpt lat="49.97645" lon="2.4194">
        <ele>65.5</ele>
        <time>2022-04-20T14:19:35Z</time>
      </trkpt>
      <trkpt lat="49.97645" lon="2.41943">
        <ele>65.5</ele>
        <time>2022-04-20T14:19:37Z</time>
      </trkpt>
      <trkpt lat="49.97644" lon="2.41945">
        <ele>65.4</ele>
        <time>2022-04-20T14:19:38Z</time>
      </trkpt>
      <trkpt lat="49.97644" lon="2.41949">
        <ele>65.3</ele>
        <time>2022-04-20T14:19:39Z</time>
      </trkpt>
      <trkpt lat="49.97644" lon="2.41951">
        <ele>65.3</ele>
        <time>2022-04-20T14:19:41Z</time>
      </trkpt>
      <trkpt lat="49.97643" lon="2.41952">
        <ele>65.3</ele>
        <time>2022-04-20T14:19:42Z</time>
      </trkpt>
      <trkpt lat="49.97643" lon="2.41954">
        <ele>65.2</ele>
        <time>2022-04-20T14:19:43Z</time>
      </trkpt>
      <trkpt lat="49.97643" lon="2.41956">
        <ele>65.2</ele>
        <time>2022-04-20T14:19:44Z</time>
      </trkpt>
      <trkpt lat="49.97642" lon="2.41957">
        <ele>65.1</ele>
        <time>2022-04-20T14:19:45Z</time>
      </trkpt>
      <trkpt lat="49.97642" lon="2.41959">
        <ele>65.1</ele>
        <time>2022-04-20T14:19:46Z</time>
      </trkpt>
      <trkpt lat="49.97641" lon="2.41961">
        <ele>65</ele>
        <time>2022-04-20T14:19:48Z</time>
      </trkpt>
      <trkpt lat="49.97641" lon="2.41963">
        <ele>65</ele>
        <time>2022-04-20T14:19:49Z</time>
      </trkpt>
      <trkpt lat="49.9764" lon="2.41964">
        <ele>65</ele>
        <time>2022-04-20T14:19:50Z</time>
      </trkpt>
      <trkpt lat="49.9764" lon="2.41965">
        <ele>64.9</ele>
        <time>2022-04-20T14:19:51Z</time>
      </trkpt>
      <trkpt lat="49.9764" lon="2.41968">
        <ele>64.8</ele>
        <time>2022-04-20T14:19:52Z</time>
      </trkpt>
      <trkpt lat="49.97639" lon="2.4197">
        <ele>64.8</ele>
        <time>2022-04-20T14:19:53Z</time>
      </trkpt>
      <trkpt lat="49.97639" lon="2.41971">
        <ele>64.8</ele>
        <time>2022-04-20T14:19:54Z</time>
      </trkpt>
      <trkpt lat="49.97639" lon="2.41973">
        <ele>64.7</ele>
        <time>2022-04-20T14:19:56Z</time>
      </trkpt>
      <trkpt lat="49.97638" lon="2.41974">
        <ele>64.7</ele>
        <time>2022-04-20T14:19:57Z</time>
      </trkpt>
      <trkpt lat="49.97638" lon="2.41975">
        <ele>64.7</ele>
        <time>2022-04-20T14:19:58Z</time>
      </trkpt>
      <trkpt lat="49.97638" lon="2.41976">
        <ele>64.6</ele>
        <time>2022-04-20T14:19:59Z</time>
      </trkpt>
      <trkpt lat="49.97638" lon="2.41978">
        <ele>64.6</ele>
        <time>2022-04-20T14:20:00Z</time>
      </trkpt>
      <trkpt lat="49.97637" lon="2.41979">
        <ele>64.6</ele>
        <time>2022-04-20T14:20:01Z</time>
      </trkpt>
      <trkpt lat="49.97637" lon="2.4198">
        <ele>64.6</ele>
        <time>2022-04-20T14:20:02Z</time>
      </trkpt>
      <trkpt lat="49.97637" lon="2.41982">
        <ele>64.5</ele>
        <time>2022-04-20T14:20:04Z</time>
      </trkpt>
      <trkpt lat="49.97636" lon="2.41983">
        <ele>64.5</ele>
        <time>2022-04-20T14:20:05Z</time>
      </trkpt>
      <trkpt lat="49.97636" lon="2.41983">
        <ele>64.5</ele>
        <time>2022-04-20T14:20:06Z</time>
      </trkpt>
      <trkpt lat="49.97635" lon="2.41984">
        <ele>64.5</ele>
        <time>2022-04-20T14:20:07Z</time>
      </trkpt>
      <trkpt lat="49.97634" lon="2.41983">
        <ele>64.5</ele>
        <time>2022-04-20T14:20:08Z</time>
      </trkpt>
      <trkpt lat="49.97634" lon="2.41982">
        <ele>64.4</ele>
        <time>2022-04-20T14:20:09Z</time>
      </trkpt>
      <trkpt lat="49.97633" lon="2.41982">
        <ele>64.4</ele>
        <time>2022-04-20T14:20:10Z</time>
      </trkpt>
      <trkpt lat="49.97633" lon="2.41981">
        <ele>64.4</ele>
        <time>2022-04-20T14:20:11Z</time>
      </trkpt>
      <trkpt lat="49.97633" lon="2.41981">
        <ele>64.4</ele>
        <time>2022-04-20T14:20:12Z</time>
      </trkpt>
      <trkpt lat="49.97633" lon="2.4198">
        <ele>64.4</ele>
        <time>2022-04-20T14:20:13Z</time>
      </trkpt>
      <trkpt lat="49.97633" lon="2.4198">
        <ele>64.4</ele>
        <time>2022-04-20T14:20:14Z</time>
      </trkpt>
      <trkpt lat="49.97633" lon="2.41979">
        <ele>64.4</ele>
        <time>2022-04-20T14:20:15Z</time>
      </trkpt>
      <trkpt lat="49.97633" lon="2.41979">
        <ele>64.4</ele>
        <time>2022-04-20T14:20:16Z</time>
      </trkpt>
      <trkpt lat="49.97633" lon="2.41979">
        <ele>64.4</ele>
        <time>2022-04-20T14:20:17Z</time>
      </trkpt>
      <trkpt lat="49.97632" lon="2.41979">
        <ele>64.4</ele>
        <time>2022-04-20T14:20:18Z</time>
      </trkpt>
      <trkpt lat="49.97632" lon="2.41979">
        <ele>64.3</ele>
        <time>2022-04-20T14:20:19Z</time>
      </trkpt>
      <trkpt lat="49.97632" lon="2.41979">
        <ele>64.3</ele>
        <time>2022-04-20T14:20:20Z</time>
      </trkpt>
      <trkpt lat="49.97632" lon="2.41978">
        <ele>64.3</ele>
        <time>2022-04-20T14:20:21Z</time>
      </trkpt>
      <trkpt lat="49.97632" lon="2.41978">
        <ele>64.3</ele>
        <time>2022-04-20T14:20:22Z</time>
      </trkpt>
      <trkpt lat="49.97632" lon="2.41978">
        <ele>64.3</ele>
        <time>2022-04-20T14:20:23Z</time>
      </trkpt>
      <trkpt lat="49.97632" lon="2.41978">
        <ele>64.3</ele>
        <time>2022-04-20T14:20:24Z</time>
      </trkpt>
      <trkpt lat="49.97632" lon="2.41978">
        <ele>64.3</ele>
        <time>2022-04-20T14:20:25Z</time>
      </trkpt>
      <trkpt lat="49.97632" lon="2.41978">
        <ele>64.3</ele>
        <time>2022-04-20T14:20:26Z</time>
      </trkpt>
      <trkpt lat="49.97632" lon="2.41978">
        <ele>64.3</ele>
        <time>2022-04-20T14:20:27Z</time>
      </trkpt>
      <trkpt lat="49.97632" lon="2.41978">
        <ele>64.3</ele>
        <time>2022-04-20T14:20:28Z</time>
      </trkpt>
      <trkpt lat="49.97632" lon="2.41978">
        <ele>64.3</ele>
        <time>2022-04-20T14:20:29Z</time>
      </trkpt>
      <trkpt lat="49.97632" lon="2.41978">
        <ele>64.3</ele>
        <time>2022-04-20T14:20:30Z</time>
      </trkpt>
      <trkpt lat="49.97632" lon="2.41978">
        <ele>64.3</ele>
        <time>2022-04-20T14:20:31Z</time>
      </trkpt>
      <trkpt lat="49.97632" lon="2.41978">
        <ele>64.3</ele>
        <time>2022-04-20T14:20:32Z</time>
      </trkpt>
      <trkpt lat="49.97632" lon="2.41978">
        <ele>64.3</ele>
        <time>2022-04-20T14:20:33Z</time>
      </trkpt>
      <trkpt lat="49.97632" lon="2.41979">
        <ele>64.3</ele>
        <time>2022-04-20T14:20:34Z</time>
      </trkpt>
      <trkpt lat="49.97633" lon="2.4198">
        <ele>64.3</ele>
        <time>2022-04-20T14:20:35Z</time>
      </trkpt>
      <trkpt lat="49.97633" lon="2.4198">
        <ele>64.3</ele>
        <time>2022-04-20T14:20:36Z</time>
      </trkpt>
      <trkpt lat="49.97634" lon="2.4198">
        <ele>64.3</ele>
        <time>2022-04-20T14:20:37Z</time>
      </trkpt>
      <trkpt lat="49.97634" lon="2.41981">
        <ele>64.2</ele>
        <time>2022-04-20T14:20:38Z</time>
      </trkpt>
      <trkpt lat="49.97635" lon="2.41981">
        <ele>64.2</ele>
        <time>2022-04-20T14:20:39Z</time>
      </trkpt>
      <trkpt lat="49.97635" lon="2.41981">
        <ele>64.2</ele>
        <time>2022-04-20T14:20:40Z</time>
      </trkpt>
      <trkpt lat="49.97635" lon="2.41981">
        <ele>64.2</ele>
        <time>2022-04-20T14:20:41Z</time>
      </trkpt>
      <trkpt lat="49.97635" lon="2.41981">
        <ele>64.2</ele>
        <time>2022-04-20T14:20:42Z</time>
      </trkpt>
      <trkpt lat="49.97635" lon="2.4198">
        <ele>64.2</ele>
        <time>2022-04-20T14:20:43Z</time>
      </trkpt>
      <trkpt lat="49.97636" lon="2.4198">
        <ele>64.2</ele>
        <time>2022-04-20T14:20:44Z</time>
      </trkpt>
      <trkpt lat="49.97636" lon="2.41981">
        <ele>64.2</ele>
        <time>2022-04-20T14:20:45Z</time>
      </trkpt>
      <trkpt lat="49.97636" lon="2.41981">
        <ele>64.2</ele>
        <time>2022-04-20T14:20:46Z</time>
      </trkpt>
      <trkpt lat="49.97636" lon="2.4198">
        <ele>64.2</ele>
        <time>2022-04-20T14:20:47Z</time>
      </trkpt>
      <trkpt lat="49.97636" lon="2.4198">
        <ele>64.2</ele>
        <time>2022-04-20T14:20:48Z</time>
      </trkpt>
      <trkpt lat="49.97636" lon="2.41981">
        <ele>64.2</ele>
        <time>2022-04-20T14:20:49Z</time>
      </trkpt>
      <trkpt lat="49.97636" lon="2.41981">
        <ele>64.2</ele>
        <time>2022-04-20T14:20:50Z</time>
      </trkpt>
      <trkpt lat="49.97636" lon="2.41981">
        <ele>64.2</ele>
        <time>2022-04-20T14:20:51Z</time>
      </trkpt>
      <trkpt lat="49.97637" lon="2.41981">
        <ele>64.2</ele>
        <time>2022-04-20T14:20:52Z</time>
      </trkpt>
      <trkpt lat="49.97637" lon="2.41981">
        <ele>64.2</ele>
        <time>2022-04-20T14:20:53Z</time>
      </trkpt>
      <trkpt lat="49.97636" lon="2.41981">
        <ele>64.2</ele>
        <time>2022-04-20T14:20:54Z</time>
      </trkpt>
      <trkpt lat="49.97636" lon="2.41981">
        <ele>64.2</ele>
        <time>2022-04-20T14:20:55Z</time>
      </trkpt>
      <trkpt lat="49.97636" lon="2.41981">
        <ele>64.2</ele>
        <time>2022-04-20T14:20:56Z</time>
      </trkpt>
      <trkpt lat="49.97636" lon="2.41981">
        <ele>64.2</ele>
        <time>2022-04-20T14:20:57Z</time>
      </trkpt>
      <trkpt lat="49.97636" lon="2.41981">
        <ele>64.2</ele>
        <time>2022-04-20T14:20:58Z</time>
      </trkpt>
      <trkpt lat="49.97636" lon="2.41981">
        <ele>64.2</ele>
        <time>2022-04-20T14:20:59Z</time>
      </trkpt>
      <trkpt lat="49.97636" lon="2.41981">
        <ele>64.2</ele>
        <time>2022-04-20T14:21:00Z</time>
      </trkpt>
      <trkpt lat="49.97636" lon="2.41981">
        <ele>64.2</ele>
        <time>2022-04-20T14:21:01Z</time>
      </trkpt>
      <trkpt lat="49.97636" lon="2.41981">
        <ele>64.2</ele>
        <time>2022-04-20T14:21:02Z</time>
      </trkpt>
      <trkpt lat="49.97636" lon="2.41981">
        <ele>64.2</ele>
        <time>2022-04-20T14:21:03Z</time>
      </trkpt>
      <trkpt lat="49.97636" lon="2.41981">
        <ele>64.2</ele>
        <time>2022-04-20T14:21:04Z</time>
      </trkpt>
      <trkpt lat="49.97636" lon="2.41981">
        <ele>64.2</ele>
        <time>2022-04-20T14:21:05Z</time>
      </trkpt>
      <trkpt lat="49.97636" lon="2.41981">
        <ele>64.2</ele>
        <time>2022-04-20T14:21:06Z</time>
      </trkpt>
      <trkpt lat="49.97636" lon="2.41981">
        <ele>64.2</ele>
        <time>2022-04-20T14:21:07Z</time>
      </trkpt>
      <trkpt lat="49.97636" lon="2.41981">
        <ele>64.2</ele>
        <time>2022-04-20T14:21:08Z</time>
      </trkpt>
      <trkpt lat="49.97636" lon="2.41981">
        <ele>64.2</ele>
        <time>2022-04-20T14:21:09Z</time>
      </trkpt>
      <trkpt lat="49.97636" lon="2.41981">
        <ele>64.2</ele>
        <time>2022-04-20T14:21:10Z</time>
      </trkpt>
      <trkpt lat="49.97636" lon="2.41981">
        <ele>64.2</ele>
        <time>2022-04-20T14:21:11Z</time>
      </trkpt>
      <trkpt lat="49.97636" lon="2.41981">
        <ele>64.2</ele>
        <time>2022-04-20T14:21:12Z</time>
      </trkpt>
      <trkpt lat="49.97636" lon="2.41981">
        <ele>64.2</ele>
        <time>2022-04-20T14:21:13Z</time>
      </trkpt>
      <trkpt lat="49.97636" lon="2.41981">
        <ele>64.2</ele>
        <time>2022-04-20T14:21:14Z</time>
      </trkpt>
      <trkpt lat="49.97636" lon="2.41981">
        <ele>64.2</ele>
        <time>2022-04-20T14:21:15Z</time>
      </trkpt>
      <trkpt lat="49.97636" lon="2.41981">
        <ele>64.2</ele>
        <time>2022-04-20T14:21:16Z</time>
      </trkpt>
      <trkpt lat="49.97636" lon="2.41981">
        <ele>64.2</ele>
        <time>2022-04-20T14:21:17Z</time>
      </trkpt>
      <trkpt lat="49.97636" lon="2.41981">
        <ele>64.2</ele>
        <time>2022-04-20T14:21:18Z</time>
      </trkpt>
      <trkpt lat="49.97636" lon="2.41981">
        <ele>64.2</ele>
        <time>2022-04-20T14:21:19Z</time>
      </trkpt>
      <trkpt lat="49.97636" lon="2.41981">
        <ele>64.2</ele>
        <time>2022-04-20T14:21:20Z</time>
      </trkpt>
      <trkpt lat="49.97637" lon="2.4198">
        <ele>64.1</ele>
        <time>2022-04-20T14:21:21Z</time>
      </trkpt>
      <trkpt lat="49.97637" lon="2.4198">
        <ele>64.1</ele>
        <time>2022-04-20T14:21:22Z</time>
      </trkpt>
      <trkpt lat="49.97637" lon="2.4198">
        <ele>64.1</ele>
        <time>2022-04-20T14:21:23Z</time>
      </trkpt>
      <trkpt lat="49.97637" lon="2.4198">
        <ele>64.1</ele>
        <time>2022-04-20T14:21:24Z</time>
      </trkpt>
      <trkpt lat="49.97636" lon="2.41981">
        <ele>64.1</ele>
        <time>2022-04-20T14:21:25Z</time>
      </trkpt>
      <trkpt lat="49.97635" lon="2.41982">
        <ele>64.1</ele>
        <time>2022-04-20T14:21:26Z</time>
      </trkpt>
      <trkpt lat="49.97635" lon="2.41983">
        <ele>64.1</ele>
        <time>2022-04-20T14:21:27Z</time>
      </trkpt>
      <trkpt lat="49.97634" lon="2.41983">
        <ele>64</ele>
        <time>2022-04-20T14:21:28Z</time>
      </trkpt>
      <trkpt lat="49.97633" lon="2.41983">
        <ele>64</ele>
        <time>2022-04-20T14:21:29Z</time>
      </trkpt>
      <trkpt lat="49.97632" lon="2.41984">
        <ele>64</ele>
        <time>2022-04-20T14:21:30Z</time>
      </trkpt>
      <trkpt lat="49.97631" lon="2.41985">
        <ele>63.9</ele>
        <time>2022-04-20T14:21:31Z</time>
      </trkpt>
      <trkpt lat="49.9763" lon="2.41985">
        <ele>63.9</ele>
        <time>2022-04-20T14:21:32Z</time>
      </trkpt>
      <trkpt lat="49.97629" lon="2.41986">
        <ele>63.1</ele>
        <time>2022-04-20T14:21:34Z</time>
      </trkpt>
      <trkpt lat="49.97629" lon="2.41986">
        <ele>63</ele>
        <time>2022-04-20T14:21:35Z</time>
      </trkpt>
      <trkpt lat="49.97628" lon="2.41987">
        <ele>63</ele>
        <time>2022-04-20T14:21:36Z</time>
      </trkpt>
      <trkpt lat="49.97627" lon="2.41987">
        <ele>62.9</ele>
        <time>2022-04-20T14:21:37Z</time>
      </trkpt>
      <trkpt lat="49.97626" lon="2.41986">
        <ele>62.9</ele>
        <time>2022-04-20T14:21:38Z</time>
      </trkpt>
      <trkpt lat="49.97625" lon="2.41984">
        <ele>62.8</ele>
        <time>2022-04-20T14:21:39Z</time>
      </trkpt>
      <trkpt lat="49.97624" lon="2.41982">
        <ele>62.8</ele>
        <time>2022-04-20T14:21:41Z</time>
      </trkpt>
      <trkpt lat="49.97624" lon="2.41981">
        <ele>62.7</ele>
        <time>2022-04-20T14:21:42Z</time>
      </trkpt>
      <trkpt lat="49.97624" lon="2.4198">
        <ele>62.7</ele>
        <time>2022-04-20T14:21:43Z</time>
      </trkpt>
      <trkpt lat="49.97623" lon="2.41979">
        <ele>62.7</ele>
        <time>2022-04-20T14:21:44Z</time>
      </trkpt>
      <trkpt lat="49.97623" lon="2.41978">
        <ele>62.7</ele>
        <time>2022-04-20T14:21:45Z</time>
      </trkpt>
      <trkpt lat="49.97623" lon="2.41978">
        <ele>62.7</ele>
        <time>2022-04-20T14:21:46Z</time>
      </trkpt>
      <trkpt lat="49.97623" lon="2.41977">
        <ele>62.6</ele>
        <time>2022-04-20T14:21:47Z</time>
      </trkpt>
      <trkpt lat="49.97623" lon="2.41977">
        <ele>62.6</ele>
        <time>2022-04-20T14:21:48Z</time>
      </trkpt>
      <trkpt lat="49.97622" lon="2.41976">
        <ele>62.6</ele>
        <time>2022-04-20T14:21:50Z</time>
      </trkpt>
      <trkpt lat="49.97622" lon="2.41976">
        <ele>62.6</ele>
        <time>2022-04-20T14:21:51Z</time>
      </trkpt>
      <trkpt lat="49.97622" lon="2.41975">
        <ele>62.6</ele>
        <time>2022-04-20T14:21:52Z</time>
      </trkpt>
      <trkpt lat="49.97622" lon="2.41974">
        <ele>62.6</ele>
        <time>2022-04-20T14:21:54Z</time>
      </trkpt>
      <trkpt lat="49.97622" lon="2.41973">
        <ele>62.5</ele>
        <time>2022-04-20T14:21:55Z</time>
      </trkpt>
      <trkpt lat="49.97621" lon="2.41972">
        <ele>62.5</ele>
        <time>2022-04-20T14:21:56Z</time>
      </trkpt>
      <trkpt lat="49.97621" lon="2.41971">
        <ele>62.5</ele>
        <time>2022-04-20T14:21:57Z</time>
      </trkpt>
      <trkpt lat="49.97621" lon="2.41969">
        <ele>62.4</ele>
        <time>2022-04-20T14:21:58Z</time>
      </trkpt>
      <trkpt lat="49.9762" lon="2.41966">
        <ele>62.4</ele>
        <time>2022-04-20T14:21:59Z</time>
      </trkpt>
      <trkpt lat="49.9762" lon="2.41964">
        <ele>62.3</ele>
        <time>2022-04-20T14:22:00Z</time>
      </trkpt>
      <trkpt lat="49.9762" lon="2.41961">
        <ele>62.2</ele>
        <time>2022-04-20T14:22:02Z</time>
      </trkpt>
      <trkpt lat="49.9762" lon="2.41958">
        <ele>62.1</ele>
        <time>2022-04-20T14:22:03Z</time>
      </trkpt>
      <trkpt lat="49.97619" lon="2.41955">
        <ele>62.1</ele>
        <time>2022-04-20T14:22:04Z</time>
      </trkpt>
      <trkpt lat="49.97619" lon="2.41952">
        <ele>62</ele>
        <time>2022-04-20T14:22:06Z</time>
      </trkpt>
      <trkpt lat="49.97618" lon="2.4195">
        <ele>61.9</ele>
        <time>2022-04-20T14:22:07Z</time>
      </trkpt>
      <trkpt lat="49.97618" lon="2.41948">
        <ele>61.9</ele>
        <time>2022-04-20T14:22:08Z</time>
      </trkpt>
      <trkpt lat="49.97617" lon="2.41946">
        <ele>61.8</ele>
        <time>2022-04-20T14:22:09Z</time>
      </trkpt>
      <trkpt lat="49.97617" lon="2.41944">
        <ele>61.8</ele>
        <time>2022-04-20T14:22:10Z</time>
      </trkpt>
      <trkpt lat="49.97616" lon="2.41942">
        <ele>61.7</ele>
        <time>2022-04-20T14:22:11Z</time>
      </trkpt>
      <trkpt lat="49.97615" lon="2.4194">
        <ele>61.6</ele>
        <time>2022-04-20T14:22:12Z</time>
      </trkpt>
      <trkpt lat="49.97615" lon="2.41938">
        <ele>61.6</ele>
        <time>2022-04-20T14:22:13Z</time>
      </trkpt>
      <trkpt lat="49.97614" lon="2.41936">
        <ele>61.5</ele>
        <time>2022-04-20T14:22:14Z</time>
      </trkpt>
      <trkpt lat="49.97614" lon="2.41935">
        <ele>61.5</ele>
        <time>2022-04-20T14:22:16Z</time>
      </trkpt>
      <trkpt lat="49.97614" lon="2.41933">
        <ele>61.5</ele>
        <time>2022-04-20T14:22:17Z</time>
      </trkpt>
      <trkpt lat="49.97613" lon="2.4193">
        <ele>61.4</ele>
        <time>2022-04-20T14:22:18Z</time>
      </trkpt>
      <trkpt lat="49.97613" lon="2.41929">
        <ele>61.3</ele>
        <time>2022-04-20T14:22:19Z</time>
      </trkpt>
      <trkpt lat="49.97612" lon="2.41928">
        <ele>61.3</ele>
        <time>2022-04-20T14:22:20Z</time>
      </trkpt>
      <trkpt lat="49.97612" lon="2.41926">
        <ele>61.2</ele>
        <time>2022-04-20T14:22:21Z</time>
      </trkpt>
      <trkpt lat="49.97612" lon="2.41924">
        <ele>61.2</ele>
        <time>2022-04-20T14:22:22Z</time>
      </trkpt>
      <trkpt lat="49.97611" lon="2.41922">
        <ele>61.2</ele>
        <time>2022-04-20T14:22:23Z</time>
      </trkpt>
      <trkpt lat="49.97611" lon="2.41921">
        <ele>61.1</ele>
        <time>2022-04-20T14:22:24Z</time>
      </trkpt>
      <trkpt lat="49.97611" lon="2.41919">
        <ele>61.1</ele>
        <time>2022-04-20T14:22:25Z</time>
      </trkpt>
      <trkpt lat="49.9761" lon="2.41917">
        <ele>61</ele>
        <time>2022-04-20T14:22:26Z</time>
      </trkpt>
      <trkpt lat="49.9761" lon="2.41915">
        <ele>61</ele>
        <time>2022-04-20T14:22:27Z</time>
      </trkpt>
      <trkpt lat="49.97609" lon="2.41913">
        <ele>60.9</ele>
        <time>2022-04-20T14:22:29Z</time>
      </trkpt>
      <trkpt lat="49.97609" lon="2.41911">
        <ele>60.9</ele>
        <time>2022-04-20T14:22:30Z</time>
      </trkpt>
      <trkpt lat="49.97609" lon="2.4191">
        <ele>60.8</ele>
        <time>2022-04-20T14:22:31Z</time>
      </trkpt>
      <trkpt lat="49.97608" lon="2.41907">
        <ele>60.7</ele>
        <time>2022-04-20T14:22:33Z</time>
      </trkpt>
      <trkpt lat="49.97607" lon="2.41905">
        <ele>60.7</ele>
        <time>2022-04-20T14:22:34Z</time>
      </trkpt>
      <trkpt lat="49.97607" lon="2.41903">
        <ele>60.7</ele>
        <time>2022-04-20T14:22:35Z</time>
      </trkpt>
      <trkpt lat="49.97606" lon="2.41902">
        <ele>60.6</ele>
        <time>2022-04-20T14:22:36Z</time>
      </trkpt>
      <trkpt lat="49.97606" lon="2.419">
        <ele>60.6</ele>
        <time>2022-04-20T14:22:37Z</time>
      </trkpt>
      <trkpt lat="49.97606" lon="2.41898">
        <ele>60.6</ele>
        <time>2022-04-20T14:22:38Z</time>
      </trkpt>
      <trkpt lat="49.97605" lon="2.41894">
        <ele>60.5</ele>
        <time>2022-04-20T14:22:39Z</time>
      </trkpt>
      <trkpt lat="49.97605" lon="2.41893">
        <ele>60.5</ele>
        <time>2022-04-20T14:22:41Z</time>
      </trkpt>
      <trkpt lat="49.97604" lon="2.41892">
        <ele>60.4</ele>
        <time>2022-04-20T14:22:42Z</time>
      </trkpt>
      <trkpt lat="49.97604" lon="2.4189">
        <ele>60.4</ele>
        <time>2022-04-20T14:22:43Z</time>
      </trkpt>
      <trkpt lat="49.97604" lon="2.41888">
        <ele>60.4</ele>
        <time>2022-04-20T14:22:44Z</time>
      </trkpt>
      <trkpt lat="49.97603" lon="2.41886">
        <ele>60.3</ele>
        <time>2022-04-20T14:22:45Z</time>
      </trkpt>
      <trkpt lat="49.97603" lon="2.41885">
        <ele>60.3</ele>
        <time>2022-04-20T14:22:46Z</time>
      </trkpt>
      <trkpt lat="49.97602" lon="2.41883">
        <ele>60.3</ele>
        <time>2022-04-20T14:22:47Z</time>
      </trkpt>
      <trkpt lat="49.97602" lon="2.41881">
        <ele>60.2</ele>
        <time>2022-04-20T14:22:49Z</time>
      </trkpt>
      <trkpt lat="49.97601" lon="2.41877">
        <ele>60.2</ele>
        <time>2022-04-20T14:22:50Z</time>
      </trkpt>
      <trkpt lat="49.976" lon="2.41875">
        <ele>60.1</ele>
        <time>2022-04-20T14:22:52Z</time>
      </trkpt>
      <trkpt lat="49.976" lon="2.41874">
        <ele>60.1</ele>
        <time>2022-04-20T14:22:53Z</time>
      </trkpt>
      <trkpt lat="49.97599" lon="2.41872">
        <ele>60.1</ele>
        <time>2022-04-20T14:22:54Z</time>
      </trkpt>
      <trkpt lat="49.97599" lon="2.41871">
        <ele>60</ele>
        <time>2022-04-20T14:22:55Z</time>
      </trkpt>
      <trkpt lat="49.97599" lon="2.41869">
        <ele>60</ele>
        <time>2022-04-20T14:22:56Z</time>
      </trkpt>
      <trkpt lat="49.97598" lon="2.41867">
        <ele>60</ele>
        <time>2022-04-20T14:22:57Z</time>
      </trkpt>
      <trkpt lat="49.97598" lon="2.41866">
        <ele>60</ele>
        <time>2022-04-20T14:22:58Z</time>
      </trkpt>
      <trkpt lat="49.97597" lon="2.41864">
        <ele>59.9</ele>
        <time>2022-04-20T14:22:59Z</time>
      </trkpt>
      <trkpt lat="49.97596" lon="2.41862">
        <ele>59.9</ele>
        <time>2022-04-20T14:23:00Z</time>
      </trkpt>
      <trkpt lat="49.97595" lon="2.41859">
        <ele>59.9</ele>
        <time>2022-04-20T14:23:02Z</time>
      </trkpt>
      <trkpt lat="49.97595" lon="2.41857">
        <ele>59.8</ele>
        <time>2022-04-20T14:23:03Z</time>
      </trkpt>
      <trkpt lat="49.97594" lon="2.41855">
        <ele>59.8</ele>
        <time>2022-04-20T14:23:04Z</time>
      </trkpt>
      <trkpt lat="49.97593" lon="2.41852">
        <ele>59.7</ele>
        <time>2022-04-20T14:23:05Z</time>
      </trkpt>
      <trkpt lat="49.97593" lon="2.41851">
        <ele>59.7</ele>
        <time>2022-04-20T14:23:06Z</time>
      </trkpt>
      <trkpt lat="49.97592" lon="2.4185">
        <ele>59.7</ele>
        <time>2022-04-20T14:23:07Z</time>
      </trkpt>
      <trkpt lat="49.97591" lon="2.41847">
        <ele>59.6</ele>
        <time>2022-04-20T14:23:09Z</time>
      </trkpt>
      <trkpt lat="49.97591" lon="2.41845">
        <ele>59.6</ele>
        <time>2022-04-20T14:23:10Z</time>
      </trkpt>
      <trkpt lat="49.9759" lon="2.41842">
        <ele>59.6</ele>
        <time>2022-04-20T14:23:11Z</time>
      </trkpt>
      <trkpt lat="49.9759" lon="2.41841">
        <ele>59.5</ele>
        <time>2022-04-20T14:23:12Z</time>
      </trkpt>
      <trkpt lat="49.97589" lon="2.4184">
        <ele>59.5</ele>
        <time>2022-04-20T14:23:13Z</time>
      </trkpt>
      <trkpt lat="49.97588" lon="2.41838">
        <ele>59.5</ele>
        <time>2022-04-20T14:23:15Z</time>
      </trkpt>
      <trkpt lat="49.97588" lon="2.41835">
        <ele>59.4</ele>
        <time>2022-04-20T14:23:16Z</time>
      </trkpt>
      <trkpt lat="49.97587" lon="2.41833">
        <ele>59.4</ele>
        <time>2022-04-20T14:23:17Z</time>
      </trkpt>
      <trkpt lat="49.97587" lon="2.41831">
        <ele>59.4</ele>
        <time>2022-04-20T14:23:18Z</time>
      </trkpt>
      <trkpt lat="49.97586" lon="2.41828">
        <ele>59.3</ele>
        <time>2022-04-20T14:23:20Z</time>
      </trkpt>
      <trkpt lat="49.97585" lon="2.41827">
        <ele>59.3</ele>
        <time>2022-04-20T14:23:21Z</time>
      </trkpt>
      <trkpt lat="49.97584" lon="2.41823">
        <ele>59.2</ele>
        <time>2022-04-20T14:23:23Z</time>
      </trkpt>
      <trkpt lat="49.97584" lon="2.41821">
        <ele>59.2</ele>
        <time>2022-04-20T14:23:24Z</time>
      </trkpt>
      <trkpt lat="49.97583" lon="2.41819">
        <ele>59.2</ele>
        <time>2022-04-20T14:23:25Z</time>
      </trkpt>
      <trkpt lat="49.97582" lon="2.41818">
        <ele>59.1</ele>
        <time>2022-04-20T14:23:26Z</time>
      </trkpt>
      <trkpt lat="49.97582" lon="2.41817">
        <ele>59.1</ele>
        <time>2022-04-20T14:23:27Z</time>
      </trkpt>
      <trkpt lat="49.97581" lon="2.41815">
        <ele>59.1</ele>
        <time>2022-04-20T14:23:28Z</time>
      </trkpt>
      <trkpt lat="49.9758" lon="2.41814">
        <ele>59.1</ele>
        <time>2022-04-20T14:23:29Z</time>
      </trkpt>
      <trkpt lat="49.9758" lon="2.41813">
        <ele>59</ele>
        <time>2022-04-20T14:23:30Z</time>
      </trkpt>
      <trkpt lat="49.97579" lon="2.4181">
        <ele>59</ele>
        <time>2022-04-20T14:23:31Z</time>
      </trkpt>
      <trkpt lat="49.97578" lon="2.41809">
        <ele>59</ele>
        <time>2022-04-20T14:23:32Z</time>
      </trkpt>
      <trkpt lat="49.97578" lon="2.41808">
        <ele>58.9</ele>
        <time>2022-04-20T14:23:33Z</time>
      </trkpt>
      <trkpt lat="49.97577" lon="2.41804">
        <ele>58.9</ele>
        <time>2022-04-20T14:23:34Z</time>
      </trkpt>
      <trkpt lat="49.97576" lon="2.41803">
        <ele>58.9</ele>
        <time>2022-04-20T14:23:36Z</time>
      </trkpt>
      <trkpt lat="49.97576" lon="2.41801">
        <ele>58.8</ele>
        <time>2022-04-20T14:23:37Z</time>
      </trkpt>
      <trkpt lat="49.97576" lon="2.418">
        <ele>58.8</ele>
        <time>2022-04-20T14:23:38Z</time>
      </trkpt>
      <trkpt lat="49.97575" lon="2.41798">
        <ele>58.8</ele>
        <time>2022-04-20T14:23:39Z</time>
      </trkpt>
      <trkpt lat="49.97575" lon="2.41794">
        <ele>58.7</ele>
        <time>2022-04-20T14:23:40Z</time>
      </trkpt>
      <trkpt lat="49.97574" lon="2.41792">
        <ele>58.7</ele>
        <time>2022-04-20T14:23:42Z</time>
      </trkpt>
      <trkpt lat="49.97574" lon="2.4179">
        <ele>58.6</ele>
        <time>2022-04-20T14:23:44Z</time>
      </trkpt>
      <trkpt lat="49.97574" lon="2.41788">
        <ele>58.6</ele>
        <time>2022-04-20T14:23:45Z</time>
      </trkpt>
      <trkpt lat="49.97573" lon="2.41786">
        <ele>58.6</ele>
        <time>2022-04-20T14:23:46Z</time>
      </trkpt>
      <trkpt lat="49.97573" lon="2.41783">
        <ele>58.5</ele>
        <time>2022-04-20T14:23:48Z</time>
      </trkpt>
      <trkpt lat="49.97573" lon="2.41781">
        <ele>58.5</ele>
        <time>2022-04-20T14:23:49Z</time>
      </trkpt>
      <trkpt lat="49.97572" lon="2.41779">
        <ele>58.5</ele>
        <time>2022-04-20T14:23:50Z</time>
      </trkpt>
      <trkpt lat="49.97572" lon="2.41778">
        <ele>58.5</ele>
        <time>2022-04-20T14:23:51Z</time>
      </trkpt>
      <trkpt lat="49.97572" lon="2.41776">
        <ele>58.4</ele>
        <time>2022-04-20T14:23:52Z</time>
      </trkpt>
      <trkpt lat="49.97571" lon="2.41774">
        <ele>58.4</ele>
        <time>2022-04-20T14:23:53Z</time>
      </trkpt>
      <trkpt lat="49.97571" lon="2.41772">
        <ele>58.4</ele>
        <time>2022-04-20T14:23:54Z</time>
      </trkpt>
      <trkpt lat="49.9757" lon="2.4177">
        <ele>58.4</ele>
        <time>2022-04-20T14:23:55Z</time>
      </trkpt>
      <trkpt lat="49.9757" lon="2.41768">
        <ele>58.3</ele>
        <time>2022-04-20T14:23:57Z</time>
      </trkpt>
      <trkpt lat="49.97569" lon="2.41765">
        <ele>58.3</ele>
        <time>2022-04-20T14:23:58Z</time>
      </trkpt>
      <trkpt lat="49.97569" lon="2.41763">
        <ele>58.3</ele>
        <time>2022-04-20T14:23:59Z</time>
      </trkpt>
      <trkpt lat="49.97568" lon="2.41762">
        <ele>58.3</ele>
        <time>2022-04-20T14:24:00Z</time>
      </trkpt>
      <trkpt lat="49.97568" lon="2.41759">
        <ele>58.2</ele>
        <time>2022-04-20T14:24:01Z</time>
      </trkpt>
      <trkpt lat="49.97567" lon="2.41758">
        <ele>58.2</ele>
        <time>2022-04-20T14:24:02Z</time>
      </trkpt>
      <trkpt lat="49.97567" lon="2.41754">
        <ele>58.2</ele>
        <time>2022-04-20T14:24:03Z</time>
      </trkpt>
      <trkpt lat="49.97566" lon="2.41753">
        <ele>58.2</ele>
        <time>2022-04-20T14:24:05Z</time>
      </trkpt>
      <trkpt lat="49.97566" lon="2.41752">
        <ele>58.1</ele>
        <time>2022-04-20T14:24:06Z</time>
      </trkpt>
      <trkpt lat="49.97565" lon="2.41749">
        <ele>58.1</ele>
        <time>2022-04-20T14:24:07Z</time>
      </trkpt>
      <trkpt lat="49.97565" lon="2.41748">
        <ele>58.1</ele>
        <time>2022-04-20T14:24:08Z</time>
      </trkpt>
      <trkpt lat="49.97565" lon="2.41747">
        <ele>58.1</ele>
        <time>2022-04-20T14:24:09Z</time>
      </trkpt>
      <trkpt lat="49.97564" lon="2.41744">
        <ele>58.1</ele>
        <time>2022-04-20T14:24:10Z</time>
      </trkpt>
      <trkpt lat="49.97563" lon="2.41742">
        <ele>58</ele>
        <time>2022-04-20T14:24:11Z</time>
      </trkpt>
      <trkpt lat="49.97563" lon="2.41741">
        <ele>58</ele>
        <time>2022-04-20T14:24:12Z</time>
      </trkpt>
      <trkpt lat="49.97563" lon="2.4174">
        <ele>58</ele>
        <time>2022-04-20T14:24:13Z</time>
      </trkpt>
      <trkpt lat="49.97562" lon="2.41738">
        <ele>58</ele>
        <time>2022-04-20T14:24:14Z</time>
      </trkpt>
      <trkpt lat="49.97562" lon="2.41737">
        <ele>58</ele>
        <time>2022-04-20T14:24:15Z</time>
      </trkpt>
      <trkpt lat="49.97561" lon="2.41735">
        <ele>58</ele>
        <time>2022-04-20T14:24:16Z</time>
      </trkpt>
      <trkpt lat="49.9756" lon="2.41733">
        <ele>58</ele>
        <time>2022-04-20T14:24:17Z</time>
      </trkpt>
      <trkpt lat="49.9756" lon="2.41731">
        <ele>57.9</ele>
        <time>2022-04-20T14:24:18Z</time>
      </trkpt>
      <trkpt lat="49.97559" lon="2.41729">
        <ele>57.9</ele>
        <time>2022-04-20T14:24:19Z</time>
      </trkpt>
      <trkpt lat="49.97558" lon="2.41727">
        <ele>57.9</ele>
        <time>2022-04-20T14:24:20Z</time>
      </trkpt>
      <trkpt lat="49.97557" lon="2.41725">
        <ele>57.9</ele>
        <time>2022-04-20T14:24:21Z</time>
      </trkpt>
      <trkpt lat="49.97557" lon="2.41723">
        <ele>57.9</ele>
        <time>2022-04-20T14:24:22Z</time>
      </trkpt>
      <trkpt lat="49.97556" lon="2.41721">
        <ele>57.9</ele>
        <time>2022-04-20T14:24:23Z</time>
      </trkpt>
      <trkpt lat="49.97555" lon="2.4172">
        <ele>57.8</ele>
        <time>2022-04-20T14:24:24Z</time>
      </trkpt>
      <trkpt lat="49.97555" lon="2.41718">
        <ele>57.8</ele>
        <time>2022-04-20T14:24:25Z</time>
      </trkpt>
      <trkpt lat="49.97554" lon="2.41717">
        <ele>57.8</ele>
        <time>2022-04-20T14:24:26Z</time>
      </trkpt>
      <trkpt lat="49.97554" lon="2.41715">
        <ele>57.8</ele>
        <time>2022-04-20T14:24:28Z</time>
      </trkpt>
      <trkpt lat="49.97553" lon="2.41713">
        <ele>57.8</ele>
        <time>2022-04-20T14:24:29Z</time>
      </trkpt>
      <trkpt lat="49.97552" lon="2.4171">
        <ele>57.8</ele>
        <time>2022-04-20T14:24:30Z</time>
      </trkpt>
      <trkpt lat="49.97551" lon="2.41709">
        <ele>57.8</ele>
        <time>2022-04-20T14:24:31Z</time>
      </trkpt>
      <trkpt lat="49.97551" lon="2.41708">
        <ele>57.8</ele>
        <time>2022-04-20T14:24:32Z</time>
      </trkpt>
      <trkpt lat="49.9755" lon="2.41706">
        <ele>57.7</ele>
        <time>2022-04-20T14:24:33Z</time>
      </trkpt>
      <trkpt lat="49.9755" lon="2.41705">
        <ele>57.7</ele>
        <time>2022-04-20T14:24:34Z</time>
      </trkpt>
      <trkpt lat="49.97549" lon="2.41703">
        <ele>57.7</ele>
        <time>2022-04-20T14:24:35Z</time>
      </trkpt>
      <trkpt lat="49.97547" lon="2.41701">
        <ele>57.7</ele>
        <time>2022-04-20T14:24:36Z</time>
      </trkpt>
      <trkpt lat="49.97547" lon="2.417">
        <ele>57.7</ele>
        <time>2022-04-20T14:24:37Z</time>
      </trkpt>
      <trkpt lat="49.97546" lon="2.41699">
        <ele>57.7</ele>
        <time>2022-04-20T14:24:38Z</time>
      </trkpt>
      <trkpt lat="49.97546" lon="2.41697">
        <ele>57.7</ele>
        <time>2022-04-20T14:24:39Z</time>
      </trkpt>
      <trkpt lat="49.97545" lon="2.41695">
        <ele>57.7</ele>
        <time>2022-04-20T14:24:40Z</time>
      </trkpt>
      <trkpt lat="49.97545" lon="2.41693">
        <ele>57.7</ele>
        <time>2022-04-20T14:24:42Z</time>
      </trkpt>
      <trkpt lat="49.97544" lon="2.41692">
        <ele>57.7</ele>
        <time>2022-04-20T14:24:43Z</time>
      </trkpt>
      <trkpt lat="49.97544" lon="2.41689">
        <ele>57.6</ele>
        <time>2022-04-20T14:24:44Z</time>
      </trkpt>
      <trkpt lat="49.97543" lon="2.41687">
        <ele>57.6</ele>
        <time>2022-04-20T14:24:46Z</time>
      </trkpt>
      <trkpt lat="49.97543" lon="2.41685">
        <ele>57.6</ele>
        <time>2022-04-20T14:24:47Z</time>
      </trkpt>
      <trkpt lat="49.97543" lon="2.41684">
        <ele>57.6</ele>
        <time>2022-04-20T14:24:48Z</time>
      </trkpt>
      <trkpt lat="49.97542" lon="2.41682">
        <ele>57.6</ele>
        <time>2022-04-20T14:24:49Z</time>
      </trkpt>
      <trkpt lat="49.97541" lon="2.41679">
        <ele>57.6</ele>
        <time>2022-04-20T14:24:50Z</time>
      </trkpt>
      <trkpt lat="49.9754" lon="2.41678">
        <ele>57.6</ele>
        <time>2022-04-20T14:24:51Z</time>
      </trkpt>
      <trkpt lat="49.9754" lon="2.41677">
        <ele>57.6</ele>
        <time>2022-04-20T14:24:52Z</time>
      </trkpt>
      <trkpt lat="49.97539" lon="2.41674">
        <ele>57.6</ele>
        <time>2022-04-20T14:24:53Z</time>
      </trkpt>
      <trkpt lat="49.97539" lon="2.41673">
        <ele>57.6</ele>
        <time>2022-04-20T14:24:54Z</time>
      </trkpt>
      <trkpt lat="49.97539" lon="2.41671">
        <ele>57.6</ele>
        <time>2022-04-20T14:24:55Z</time>
      </trkpt>
      <trkpt lat="49.97538" lon="2.41669">
        <ele>57.6</ele>
        <time>2022-04-20T14:24:56Z</time>
      </trkpt>
      <trkpt lat="49.97537" lon="2.41667">
        <ele>57.6</ele>
        <time>2022-04-20T14:24:58Z</time>
      </trkpt>
      <trkpt lat="49.97537" lon="2.41666">
        <ele>57.6</ele>
        <time>2022-04-20T14:24:59Z</time>
      </trkpt>
      <trkpt lat="49.97536" lon="2.41663">
        <ele>57.6</ele>
        <time>2022-04-20T14:25:00Z</time>
      </trkpt>
      <trkpt lat="49.97535" lon="2.41662">
        <ele>57.6</ele>
        <time>2022-04-20T14:25:01Z</time>
      </trkpt>
      <trkpt lat="49.97535" lon="2.41661">
        <ele>57.6</ele>
        <time>2022-04-20T14:25:02Z</time>
      </trkpt>
      <trkpt lat="49.97535" lon="2.4166">
        <ele>57.5</ele>
        <time>2022-04-20T14:25:03Z</time>
      </trkpt>
      <trkpt lat="49.97534" lon="2.41658">
        <ele>57.5</ele>
        <time>2022-04-20T14:25:04Z</time>
      </trkpt>
      <trkpt lat="49.97534" lon="2.41657">
        <ele>57.5</ele>
        <time>2022-04-20T14:25:05Z</time>
      </trkpt>
      <trkpt lat="49.97533" lon="2.41654">
        <ele>57.5</ele>
        <time>2022-04-20T14:25:06Z</time>
      </trkpt>
      <trkpt lat="49.97533" lon="2.41652">
        <ele>57.5</ele>
        <time>2022-04-20T14:25:07Z</time>
      </trkpt>
      <trkpt lat="49.97533" lon="2.41651">
        <ele>57.5</ele>
        <time>2022-04-20T14:25:08Z</time>
      </trkpt>
      <trkpt lat="49.97532" lon="2.41648">
        <ele>57.5</ele>
        <time>2022-04-20T14:25:09Z</time>
      </trkpt>
      <trkpt lat="49.97532" lon="2.41647">
        <ele>57.5</ele>
        <time>2022-04-20T14:25:10Z</time>
      </trkpt>
      <trkpt lat="49.97531" lon="2.41646">
        <ele>57.5</ele>
        <time>2022-04-20T14:25:11Z</time>
      </trkpt>
      <trkpt lat="49.9753" lon="2.41643">
        <ele>57.5</ele>
        <time>2022-04-20T14:25:13Z</time>
      </trkpt>
      <trkpt lat="49.9753" lon="2.41642">
        <ele>57.5</ele>
        <time>2022-04-20T14:25:14Z</time>
      </trkpt>
      <trkpt lat="49.9753" lon="2.41641">
        <ele>57.5</ele>
        <time>2022-04-20T14:25:15Z</time>
      </trkpt>
      <trkpt lat="49.97529" lon="2.41639">
        <ele>57.5</ele>
        <time>2022-04-20T14:25:16Z</time>
      </trkpt>
      <trkpt lat="49.97529" lon="2.41637">
        <ele>57.4</ele>
        <time>2022-04-20T14:25:17Z</time>
      </trkpt>
      <trkpt lat="49.97528" lon="2.41634">
        <ele>57.4</ele>
        <time>2022-04-20T14:25:18Z</time>
      </trkpt>
      <trkpt lat="49.97527" lon="2.41632">
        <ele>57.4</ele>
        <time>2022-04-20T14:25:19Z</time>
      </trkpt>
      <trkpt lat="49.97527" lon="2.41631">
        <ele>57.4</ele>
        <time>2022-04-20T14:25:20Z</time>
      </trkpt>
      <trkpt lat="49.97526" lon="2.41628">
        <ele>57.4</ele>
        <time>2022-04-20T14:25:21Z</time>
      </trkpt>
      <trkpt lat="49.97526" lon="2.41627">
        <ele>57.4</ele>
        <time>2022-04-20T14:25:22Z</time>
      </trkpt>
      <trkpt lat="49.97526" lon="2.41626">
        <ele>57.4</ele>
        <time>2022-04-20T14:25:23Z</time>
      </trkpt>
      <trkpt lat="49.97526" lon="2.41624">
        <ele>57.4</ele>
        <time>2022-04-20T14:25:24Z</time>
      </trkpt>
      <trkpt lat="49.97525" lon="2.41622">
        <ele>57.4</ele>
        <time>2022-04-20T14:25:25Z</time>
      </trkpt>
      <trkpt lat="49.97525" lon="2.4162">
        <ele>57.4</ele>
        <time>2022-04-20T14:25:27Z</time>
      </trkpt>
      <trkpt lat="49.97524" lon="2.41617">
        <ele>57.4</ele>
        <time>2022-04-20T14:25:28Z</time>
      </trkpt>
      <trkpt lat="49.97524" lon="2.41615">
        <ele>57.4</ele>
        <time>2022-04-20T14:25:29Z</time>
      </trkpt>
      <trkpt lat="49.97524" lon="2.41614">
        <ele>57.3</ele>
        <time>2022-04-20T14:25:30Z</time>
      </trkpt>
      <trkpt lat="49.97523" lon="2.41612">
        <ele>57.3</ele>
        <time>2022-04-20T14:25:31Z</time>
      </trkpt>
      <trkpt lat="49.97522" lon="2.4161">
        <ele>57.3</ele>
        <time>2022-04-20T14:25:33Z</time>
      </trkpt>
      <trkpt lat="49.97522" lon="2.41608">
        <ele>57.3</ele>
        <time>2022-04-20T14:25:34Z</time>
      </trkpt>
      <trkpt lat="49.97521" lon="2.41607">
        <ele>57.3</ele>
        <time>2022-04-20T14:25:35Z</time>
      </trkpt>
      <trkpt lat="49.9752" lon="2.41605">
        <ele>57.3</ele>
        <time>2022-04-20T14:25:36Z</time>
      </trkpt>
      <trkpt lat="49.9752" lon="2.41604">
        <ele>57.3</ele>
        <time>2022-04-20T14:25:37Z</time>
      </trkpt>
      <trkpt lat="49.97519" lon="2.41602">
        <ele>57.3</ele>
        <time>2022-04-20T14:25:38Z</time>
      </trkpt>
      <trkpt lat="49.97518" lon="2.41601">
        <ele>57.3</ele>
        <time>2022-04-20T14:25:39Z</time>
      </trkpt>
      <trkpt lat="49.97518" lon="2.41599">
        <ele>57.3</ele>
        <time>2022-04-20T14:25:40Z</time>
      </trkpt>
      <trkpt lat="49.97517" lon="2.41598">
        <ele>57.3</ele>
        <time>2022-04-20T14:25:41Z</time>
      </trkpt>
      <trkpt lat="49.97517" lon="2.41596">
        <ele>57.3</ele>
        <time>2022-04-20T14:25:42Z</time>
      </trkpt>
      <trkpt lat="49.97516" lon="2.41595">
        <ele>57.2</ele>
        <time>2022-04-20T14:25:43Z</time>
      </trkpt>
      <trkpt lat="49.97516" lon="2.41593">
        <ele>57.2</ele>
        <time>2022-04-20T14:25:45Z</time>
      </trkpt>
      <trkpt lat="49.97515" lon="2.41591">
        <ele>57.2</ele>
        <time>2022-04-20T14:25:46Z</time>
      </trkpt>
      <trkpt lat="49.97515" lon="2.4159">
        <ele>57.2</ele>
        <time>2022-04-20T14:25:47Z</time>
      </trkpt>
      <trkpt lat="49.97514" lon="2.41589">
        <ele>57.2</ele>
        <time>2022-04-20T14:25:48Z</time>
      </trkpt>
      <trkpt lat="49.97513" lon="2.41587">
        <ele>57.2</ele>
        <time>2022-04-20T14:25:50Z</time>
      </trkpt>
      <trkpt lat="49.97513" lon="2.41586">
        <ele>57.2</ele>
        <time>2022-04-20T14:25:51Z</time>
      </trkpt>
      <trkpt lat="49.97512" lon="2.41585">
        <ele>57.2</ele>
        <time>2022-04-20T14:25:52Z</time>
      </trkpt>
      <trkpt lat="49.97512" lon="2.41584">
        <ele>57.2</ele>
        <time>2022-04-20T14:25:53Z</time>
      </trkpt>
      <trkpt lat="49.9751" lon="2.41582">
        <ele>57.1</ele>
        <time>2022-04-20T14:25:54Z</time>
      </trkpt>
      <trkpt lat="49.97509" lon="2.41582">
        <ele>57</ele>
        <time>2022-04-20T14:25:56Z</time>
      </trkpt>
      <trkpt lat="49.97508" lon="2.41582">
        <ele>57</ele>
        <time>2022-04-20T14:25:57Z</time>
      </trkpt>
      <trkpt lat="49.97507" lon="2.41582">
        <ele>56.9</ele>
        <time>2022-04-20T14:25:58Z</time>
      </trkpt>
      <trkpt lat="49.97505" lon="2.41584">
        <ele>56.7</ele>
        <time>2022-04-20T14:26:00Z</time>
      </trkpt>
      <trkpt lat="49.97503" lon="2.41585">
        <ele>56.6</ele>
        <time>2022-04-20T14:26:01Z</time>
      </trkpt>
      <trkpt lat="49.97502" lon="2.41587">
        <ele>56.5</ele>
        <time>2022-04-20T14:26:02Z</time>
      </trkpt>
      <trkpt lat="49.97501" lon="2.41589">
        <ele>56.4</ele>
        <time>2022-04-20T14:26:03Z</time>
      </trkpt>
      <trkpt lat="49.975" lon="2.4159">
        <ele>56.4</ele>
        <time>2022-04-20T14:26:04Z</time>
      </trkpt>
      <trkpt lat="49.97499" lon="2.41592">
        <ele>56.3</ele>
        <time>2022-04-20T14:26:05Z</time>
      </trkpt>
      <trkpt lat="49.97498" lon="2.41593">
        <ele>56.2</ele>
        <time>2022-04-20T14:26:06Z</time>
      </trkpt>
      <trkpt lat="49.97496" lon="2.41595">
        <ele>56.1</ele>
        <time>2022-04-20T14:26:08Z</time>
      </trkpt>
      <trkpt lat="49.97495" lon="2.41596">
        <ele>56.1</ele>
        <time>2022-04-20T14:26:09Z</time>
      </trkpt>
      <trkpt lat="49.97493" lon="2.41598">
        <ele>56</ele>
        <time>2022-04-20T14:26:11Z</time>
      </trkpt>
      <trkpt lat="49.97492" lon="2.41599">
        <ele>55.9</ele>
        <time>2022-04-20T14:26:12Z</time>
      </trkpt>
      <trkpt lat="49.97491" lon="2.416">
        <ele>55.9</ele>
        <time>2022-04-20T14:26:13Z</time>
      </trkpt>
      <trkpt lat="49.97491" lon="2.41601">
        <ele>55.8</ele>
        <time>2022-04-20T14:26:14Z</time>
      </trkpt>
      <trkpt lat="49.9749" lon="2.41601">
        <ele>55.8</ele>
        <time>2022-04-20T14:26:15Z</time>
      </trkpt>
      <trkpt lat="49.97489" lon="2.41602">
        <ele>55.7</ele>
        <time>2022-04-20T14:26:16Z</time>
      </trkpt>
      <trkpt lat="49.97488" lon="2.41603">
        <ele>55.7</ele>
        <time>2022-04-20T14:26:17Z</time>
      </trkpt>
      <trkpt lat="49.97487" lon="2.41604">
        <ele>55.6</ele>
        <time>2022-04-20T14:26:18Z</time>
      </trkpt>
      <trkpt lat="49.97487" lon="2.41605">
        <ele>55.6</ele>
        <time>2022-04-20T14:26:20Z</time>
      </trkpt>
      <trkpt lat="49.97486" lon="2.41606">
        <ele>55.5</ele>
        <time>2022-04-20T14:26:21Z</time>
      </trkpt>
      <trkpt lat="49.97485" lon="2.41606">
        <ele>55.5</ele>
        <time>2022-04-20T14:26:22Z</time>
      </trkpt>
      <trkpt lat="49.97484" lon="2.41607">
        <ele>55.4</ele>
        <time>2022-04-20T14:26:23Z</time>
      </trkpt>
      <trkpt lat="49.97483" lon="2.41607">
        <ele>55.4</ele>
        <time>2022-04-20T14:26:24Z</time>
      </trkpt>
      <trkpt lat="49.97483" lon="2.41606">
        <ele>55.4</ele>
        <time>2022-04-20T14:26:25Z</time>
      </trkpt>
      <trkpt lat="49.97482" lon="2.41605">
        <ele>55.3</ele>
        <time>2022-04-20T14:26:26Z</time>
      </trkpt>
      <trkpt lat="49.97482" lon="2.41604">
        <ele>55.3</ele>
        <time>2022-04-20T14:26:27Z</time>
      </trkpt>
      <trkpt lat="49.97482" lon="2.41604">
        <ele>55.3</ele>
        <time>2022-04-20T14:26:28Z</time>
      </trkpt>
      <trkpt lat="49.97482" lon="2.41603">
        <ele>55.3</ele>
        <time>2022-04-20T14:26:29Z</time>
      </trkpt>
      <trkpt lat="49.97482" lon="2.41603">
        <ele>55.3</ele>
        <time>2022-04-20T14:26:30Z</time>
      </trkpt>
      <trkpt lat="49.97482" lon="2.41603">
        <ele>55.3</ele>
        <time>2022-04-20T14:26:31Z</time>
      </trkpt>
      <trkpt lat="49.97482" lon="2.41603">
        <ele>55.3</ele>
        <time>2022-04-20T14:26:32Z</time>
      </trkpt>
      <trkpt lat="49.97482" lon="2.41603">
        <ele>55.3</ele>
        <time>2022-04-20T14:26:33Z</time>
      </trkpt>
      <trkpt lat="49.97482" lon="2.41603">
        <ele>55.3</ele>
        <time>2022-04-20T14:26:34Z</time>
      </trkpt>
      <trkpt lat="49.97482" lon="2.41603">
        <ele>55.3</ele>
        <time>2022-04-20T14:26:35Z</time>
      </trkpt>
      <trkpt lat="49.97482" lon="2.41603">
        <ele>55.2</ele>
        <time>2022-04-20T14:26:36Z</time>
      </trkpt>
      <trkpt lat="49.97482" lon="2.41602">
        <ele>55.2</ele>
        <time>2022-04-20T14:26:37Z</time>
      </trkpt>
      <trkpt lat="49.97482" lon="2.41602">
        <ele>55.2</ele>
        <time>2022-04-20T14:26:38Z</time>
      </trkpt>
      <trkpt lat="49.97483" lon="2.41602">
        <ele>55.2</ele>
        <time>2022-04-20T14:26:39Z</time>
      </trkpt>
      <trkpt lat="49.97483" lon="2.41602">
        <ele>55.2</ele>
        <time>2022-04-20T14:26:40Z</time>
      </trkpt>
      <trkpt lat="49.97483" lon="2.41602">
        <ele>55.2</ele>
        <time>2022-04-20T14:26:41Z</time>
      </trkpt>
      <trkpt lat="49.97483" lon="2.41602">
        <ele>55.2</ele>
        <time>2022-04-20T14:26:42Z</time>
      </trkpt>
      <trkpt lat="49.97483" lon="2.41601">
        <ele>55.2</ele>
        <time>2022-04-20T14:26:43Z</time>
      </trkpt>
      <trkpt lat="49.97483" lon="2.41601">
        <ele>55.2</ele>
        <time>2022-04-20T14:26:44Z</time>
      </trkpt>
      <trkpt lat="49.97483" lon="2.41601">
        <ele>55.2</ele>
        <time>2022-04-20T14:26:45Z</time>
      </trkpt>
      <trkpt lat="49.97483" lon="2.41601">
        <ele>55.2</ele>
        <time>2022-04-20T14:26:46Z</time>
      </trkpt>
      <trkpt lat="49.97483" lon="2.41601">
        <ele>55.2</ele>
        <time>2022-04-20T14:26:47Z</time>
      </trkpt>
      <trkpt lat="49.97483" lon="2.41601">
        <ele>55.2</ele>
        <time>2022-04-20T14:26:48Z</time>
      </trkpt>
      <trkpt lat="49.97483" lon="2.41601">
        <ele>55.2</ele>
        <time>2022-04-20T14:26:49Z</time>
      </trkpt>
      <trkpt lat="49.97483" lon="2.41601">
        <ele>55.2</ele>
        <time>2022-04-20T14:26:50Z</time>
      </trkpt>
      <trkpt lat="49.97483" lon="2.41601">
        <ele>55.2</ele>
        <time>2022-04-20T14:26:51Z</time>
      </trkpt>
      <trkpt lat="49.97483" lon="2.41601">
        <ele>55.2</ele>
        <time>2022-04-20T14:26:52Z</time>
      </trkpt>
      <trkpt lat="49.97484" lon="2.416">
        <ele>55.2</ele>
        <time>2022-04-20T14:26:53Z</time>
      </trkpt>
      <trkpt lat="49.97484" lon="2.416">
        <ele>55.2</ele>
        <time>2022-04-20T14:26:54Z</time>
      </trkpt>
      <trkpt lat="49.97484" lon="2.416">
        <ele>55.1</ele>
        <time>2022-04-20T14:26:55Z</time>
      </trkpt>
      <trkpt lat="49.97483" lon="2.416">
        <ele>55.1</ele>
        <time>2022-04-20T14:26:56Z</time>
      </trkpt>
      <trkpt lat="49.97483" lon="2.416">
        <ele>55.1</ele>
        <time>2022-04-20T14:26:57Z</time>
      </trkpt>
      <trkpt lat="49.97482" lon="2.41601">
        <ele>55.1</ele>
        <time>2022-04-20T14:26:58Z</time>
      </trkpt>
      <trkpt lat="49.97482" lon="2.41601">
        <ele>55.1</ele>
        <time>2022-04-20T14:26:59Z</time>
      </trkpt>
      <trkpt lat="49.97481" lon="2.41601">
        <ele>55.1</ele>
        <time>2022-04-20T14:27:00Z</time>
      </trkpt>
      <trkpt lat="49.97481" lon="2.41602">
        <ele>55.1</ele>
        <time>2022-04-20T14:27:01Z</time>
      </trkpt>
      <trkpt lat="49.97481" lon="2.41602">
        <ele>55</ele>
        <time>2022-04-20T14:27:02Z</time>
      </trkpt>
      <trkpt lat="49.97481" lon="2.41602">
        <ele>55</ele>
        <time>2022-04-20T14:27:03Z</time>
      </trkpt>
      <trkpt lat="49.97481" lon="2.41602">
        <ele>55</ele>
        <time>2022-04-20T14:27:04Z</time>
      </trkpt>
      <trkpt lat="49.97481" lon="2.41602">
        <ele>55</ele>
        <time>2022-04-20T14:27:05Z</time>
      </trkpt>
      <trkpt lat="49.97481" lon="2.41603">
        <ele>55</ele>
        <time>2022-04-20T14:27:06Z</time>
      </trkpt>
      <trkpt lat="49.97481" lon="2.41603">
        <ele>55</ele>
        <time>2022-04-20T14:27:07Z</time>
      </trkpt>
      <trkpt lat="49.97481" lon="2.41602">
        <ele>55</ele>
        <time>2022-04-20T14:27:08Z</time>
      </trkpt>
      <trkpt lat="49.97481" lon="2.41602">
        <ele>55</ele>
        <time>2022-04-20T14:27:09Z</time>
      </trkpt>
      <trkpt lat="49.97481" lon="2.41602">
        <ele>55</ele>
        <time>2022-04-20T14:27:10Z</time>
      </trkpt>
      <trkpt lat="49.97481" lon="2.41602">
        <ele>55</ele>
        <time>2022-04-20T14:27:11Z</time>
      </trkpt>
      <trkpt lat="49.97481" lon="2.41602">
        <ele>55</ele>
        <time>2022-04-20T14:27:12Z</time>
      </trkpt>
      <trkpt lat="49.97481" lon="2.41602">
        <ele>55</ele>
        <time>2022-04-20T14:27:13Z</time>
      </trkpt>
      <trkpt lat="49.97481" lon="2.41602">
        <ele>55</ele>
        <time>2022-04-20T14:27:14Z</time>
      </trkpt>
      <trkpt lat="49.97481" lon="2.41602">
        <ele>55</ele>
        <time>2022-04-20T14:27:15Z</time>
      </trkpt>
      <trkpt lat="49.97481" lon="2.41602">
        <ele>55</ele>
        <time>2022-04-20T14:27:16Z</time>
      </trkpt>
      <trkpt lat="49.97481" lon="2.41602">
        <ele>55</ele>
        <time>2022-04-20T14:27:17Z</time>
      </trkpt>
      <trkpt lat="49.97481" lon="2.41602">
        <ele>55</ele>
        <time>2022-04-20T14:27:18Z</time>
      </trkpt>
      <trkpt lat="49.97481" lon="2.41602">
        <ele>55</ele>
        <time>2022-04-20T14:27:19Z</time>
      </trkpt>
      <trkpt lat="49.97481" lon="2.41602">
        <ele>55</ele>
        <time>2022-04-20T14:27:20Z</time>
      </trkpt>
      <trkpt lat="49.9748" lon="2.41603">
        <ele>55</ele>
        <time>2022-04-20T14:27:21Z</time>
      </trkpt>
      <trkpt lat="49.9748" lon="2.41604">
        <ele>55</ele>
        <time>2022-04-20T14:27:22Z</time>
      </trkpt>
      <trkpt lat="49.97479" lon="2.41604">
        <ele>54.9</ele>
        <time>2022-04-20T14:27:23Z</time>
      </trkpt>
      <trkpt lat="49.97479" lon="2.41605">
        <ele>54.9</ele>
        <time>2022-04-20T14:27:24Z</time>
      </trkpt>
      <trkpt lat="49.97479" lon="2.41605">
        <ele>54.9</ele>
        <time>2022-04-20T14:27:25Z</time>
      </trkpt>
      <trkpt lat="49.97478" lon="2.41605">
        <ele>54.9</ele>
        <time>2022-04-20T14:27:26Z</time>
      </trkpt>
      <trkpt lat="49.97478" lon="2.41605">
        <ele>54.9</ele>
        <time>2022-04-20T14:27:27Z</time>
      </trkpt>
      <trkpt lat="49.97477" lon="2.41605">
        <ele>54.9</ele>
        <time>2022-04-20T14:27:28Z</time>
      </trkpt>
      <trkpt lat="49.97475" lon="2.41606">
        <ele>54.8</ele>
        <time>2022-04-20T14:27:29Z</time>
      </trkpt>
      <trkpt lat="49.97474" lon="2.41606">
        <ele>54.8</ele>
        <time>2022-04-20T14:27:31Z</time>
      </trkpt>
      <trkpt lat="49.97473" lon="2.41606">
        <ele>54.8</ele>
        <time>2022-04-20T14:27:32Z</time>
      </trkpt>
      <trkpt lat="49.97471" lon="2.41607">
        <ele>54.8</ele>
        <time>2022-04-20T14:27:33Z</time>
      </trkpt>
      <trkpt lat="49.97471" lon="2.41608">
        <ele>54.7</ele>
        <time>2022-04-20T14:27:34Z</time>
      </trkpt>
      <trkpt lat="49.9747" lon="2.41608">
        <ele>54.7</ele>
        <time>2022-04-20T14:27:35Z</time>
      </trkpt>
      <trkpt lat="49.97469" lon="2.4161">
        <ele>54.7</ele>
        <time>2022-04-20T14:27:36Z</time>
      </trkpt>
      <trkpt lat="49.97467" lon="2.41611">
        <ele>54.6</ele>
        <time>2022-04-20T14:27:38Z</time>
      </trkpt>
      <trkpt lat="49.97466" lon="2.41612">
        <ele>54.6</ele>
        <time>2022-04-20T14:27:39Z</time>
      </trkpt>
      <trkpt lat="49.97465" lon="2.41613">
        <ele>54.6</ele>
        <time>2022-04-20T14:27:40Z</time>
      </trkpt>
      <trkpt lat="49.97465" lon="2.41613">
        <ele>54.6</ele>
        <time>2022-04-20T14:27:41Z</time>
      </trkpt>
      <trkpt lat="49.97464" lon="2.41614">
        <ele>54.6</ele>
        <time>2022-04-20T14:27:42Z</time>
      </trkpt>
      <trkpt lat="49.97464" lon="2.41615">
        <ele>54.6</ele>
        <time>2022-04-20T14:27:43Z</time>
      </trkpt>
      <trkpt lat="49.97463" lon="2.41616">
        <ele>54.5</ele>
        <time>2022-04-20T14:27:45Z</time>
      </trkpt>
      <trkpt lat="49.97463" lon="2.41617">
        <ele>54.5</ele>
        <time>2022-04-20T14:27:46Z</time>
      </trkpt>
      <trkpt lat="49.97462" lon="2.41618">
        <ele>54.5</ele>
        <time>2022-04-20T14:27:47Z</time>
      </trkpt>
      <trkpt lat="49.97461" lon="2.41619">
        <ele>54.5</ele>
        <time>2022-04-20T14:27:48Z</time>
      </trkpt>
      <trkpt lat="49.9746" lon="2.4162">
        <ele>54.5</ele>
        <time>2022-04-20T14:27:49Z</time>
      </trkpt>
      <trkpt lat="49.97459" lon="2.4162">
        <ele>54.4</ele>
        <time>2022-04-20T14:27:50Z</time>
      </trkpt>
      <trkpt lat="49.97458" lon="2.4162">
        <ele>54.4</ele>
        <time>2022-04-20T14:27:51Z</time>
      </trkpt>
      <trkpt lat="49.97457" lon="2.41619">
        <ele>54.4</ele>
        <time>2022-04-20T14:27:52Z</time>
      </trkpt>
      <trkpt lat="49.97457" lon="2.41619">
        <ele>54.4</ele>
        <time>2022-04-20T14:27:53Z</time>
      </trkpt>
      <trkpt lat="49.97456" lon="2.41619">
        <ele>54.4</ele>
        <time>2022-04-20T14:27:54Z</time>
      </trkpt>
      <trkpt lat="49.97455" lon="2.4162">
        <ele>54.4</ele>
        <time>2022-04-20T14:27:55Z</time>
      </trkpt>
      <trkpt lat="49.97454" lon="2.41621">
        <ele>54.4</ele>
        <time>2022-04-20T14:27:56Z</time>
      </trkpt>
      <trkpt lat="49.97453" lon="2.41622">
        <ele>54.3</ele>
        <time>2022-04-20T14:27:58Z</time>
      </trkpt>
      <trkpt lat="49.97451" lon="2.41623">
        <ele>54.3</ele>
        <time>2022-04-20T14:27:59Z</time>
      </trkpt>
      <trkpt lat="49.9745" lon="2.41624">
        <ele>54.3</ele>
        <time>2022-04-20T14:28:00Z</time>
      </trkpt>
      <trkpt lat="49.9745" lon="2.41624">
        <ele>54.3</ele>
        <time>2022-04-20T14:28:01Z</time>
      </trkpt>
      <trkpt lat="49.97449" lon="2.41625">
        <ele>54.3</ele>
        <time>2022-04-20T14:28:02Z</time>
      </trkpt>
      <trkpt lat="49.97447" lon="2.41626">
        <ele>54.3</ele>
        <time>2022-04-20T14:28:03Z</time>
      </trkpt>
      <trkpt lat="49.97446" lon="2.41627">
        <ele>54.2</ele>
        <time>2022-04-20T14:28:04Z</time>
      </trkpt>
      <trkpt lat="49.97445" lon="2.41627">
        <ele>54.2</ele>
        <time>2022-04-20T14:28:05Z</time>
      </trkpt>
      <trkpt lat="49.97444" lon="2.41628">
        <ele>54.2</ele>
        <time>2022-04-20T14:28:07Z</time>
      </trkpt>
      <trkpt lat="49.97442" lon="2.41629">
        <ele>54.2</ele>
        <time>2022-04-20T14:28:08Z</time>
      </trkpt>
      <trkpt lat="49.97441" lon="2.4163">
        <ele>54.2</ele>
        <time>2022-04-20T14:28:09Z</time>
      </trkpt>
      <trkpt lat="49.9744" lon="2.4163">
        <ele>54.2</ele>
        <time>2022-04-20T14:28:10Z</time>
      </trkpt>
      <trkpt lat="49.9744" lon="2.41631">
        <ele>54.2</ele>
        <time>2022-04-20T14:28:11Z</time>
      </trkpt>
      <trkpt lat="49.97438" lon="2.41633">
        <ele>54.1</ele>
        <time>2022-04-20T14:28:12Z</time>
      </trkpt>
      <trkpt lat="49.97437" lon="2.41634">
        <ele>54.1</ele>
        <time>2022-04-20T14:28:14Z</time>
      </trkpt>
      <trkpt lat="49.97436" lon="2.41634">
        <ele>54.1</ele>
        <time>2022-04-20T14:28:15Z</time>
      </trkpt>
      <trkpt lat="49.97435" lon="2.41636">
        <ele>54.1</ele>
        <time>2022-04-20T14:28:16Z</time>
      </trkpt>
      <trkpt lat="49.97434" lon="2.41637">
        <ele>54.1</ele>
        <time>2022-04-20T14:28:17Z</time>
      </trkpt>
      <trkpt lat="49.97432" lon="2.41638">
        <ele>54</ele>
        <time>2022-04-20T14:28:18Z</time>
      </trkpt>
      <trkpt lat="49.97431" lon="2.41639">
        <ele>54</ele>
        <time>2022-04-20T14:28:19Z</time>
      </trkpt>
      <trkpt lat="49.97429" lon="2.4164">
        <ele>54</ele>
        <time>2022-04-20T14:28:20Z</time>
      </trkpt>
      <trkpt lat="49.97427" lon="2.41641">
        <ele>54</ele>
        <time>2022-04-20T14:28:21Z</time>
      </trkpt>
      <trkpt lat="49.97426" lon="2.41642">
        <ele>54</ele>
        <time>2022-04-20T14:28:22Z</time>
      </trkpt>
      <trkpt lat="49.97424" lon="2.41643">
        <ele>53.9</ele>
        <time>2022-04-20T14:28:24Z</time>
      </trkpt>
      <trkpt lat="49.97423" lon="2.41644">
        <ele>53.9</ele>
        <time>2022-04-20T14:28:25Z</time>
      </trkpt>
      <trkpt lat="49.97422" lon="2.41645">
        <ele>53.9</ele>
        <time>2022-04-20T14:28:26Z</time>
      </trkpt>
      <trkpt lat="49.9742" lon="2.41645">
        <ele>53.9</ele>
        <time>2022-04-20T14:28:27Z</time>
      </trkpt>
      <trkpt lat="49.97419" lon="2.41646">
        <ele>53.9</ele>
        <time>2022-04-20T14:28:28Z</time>
      </trkpt>
      <trkpt lat="49.97418" lon="2.41647">
        <ele>53.8</ele>
        <time>2022-04-20T14:28:29Z</time>
      </trkpt>
      <trkpt lat="49.97417" lon="2.41648">
        <ele>53.8</ele>
        <time>2022-04-20T14:28:30Z</time>
      </trkpt>
      <trkpt lat="49.97415" lon="2.41649">
        <ele>53.8</ele>
        <time>2022-04-20T14:28:32Z</time>
      </trkpt>
      <trkpt lat="49.97414" lon="2.4165">
        <ele>53.8</ele>
        <time>2022-04-20T14:28:33Z</time>
      </trkpt>
      <trkpt lat="49.97413" lon="2.41651">
        <ele>53.8</ele>
        <time>2022-04-20T14:28:34Z</time>
      </trkpt>
      <trkpt lat="49.97412" lon="2.41653">
        <ele>53.8</ele>
        <time>2022-04-20T14:28:35Z</time>
      </trkpt>
      <trkpt lat="49.97411" lon="2.41654">
        <ele>53.8</ele>
        <time>2022-04-20T14:28:37Z</time>
      </trkpt>
      <trkpt lat="49.97412" lon="2.41655">
        <ele>53.8</ele>
        <time>2022-04-20T14:28:38Z</time>
      </trkpt>
      <trkpt lat="49.97412" lon="2.41657">
        <ele>53.8</ele>
        <time>2022-04-20T14:28:40Z</time>
      </trkpt>
      <trkpt lat="49.97412" lon="2.41659">
        <ele>53.8</ele>
        <time>2022-04-20T14:28:41Z</time>
      </trkpt>
      <trkpt lat="49.97412" lon="2.41659">
        <ele>53.8</ele>
        <time>2022-04-20T14:28:42Z</time>
      </trkpt>
      <trkpt lat="49.97413" lon="2.4166">
        <ele>53.8</ele>
        <time>2022-04-20T14:28:43Z</time>
      </trkpt>
      <trkpt lat="49.97413" lon="2.4166">
        <ele>53.8</ele>
        <time>2022-04-20T14:28:44Z</time>
      </trkpt>
      <trkpt lat="49.97413" lon="2.4166">
        <ele>53.8</ele>
        <time>2022-04-20T14:28:45Z</time>
      </trkpt>
      <trkpt lat="49.97413" lon="2.4166">
        <ele>53.8</ele>
        <time>2022-04-20T14:28:46Z</time>
      </trkpt>
      <trkpt lat="49.97413" lon="2.4166">
        <ele>53.8</ele>
        <time>2022-04-20T14:28:47Z</time>
      </trkpt>
      <trkpt lat="49.97413" lon="2.4166">
        <ele>53.8</ele>
        <time>2022-04-20T14:28:48Z</time>
      </trkpt>
      <trkpt lat="49.97413" lon="2.4166">
        <ele>53.8</ele>
        <time>2022-04-20T14:28:49Z</time>
      </trkpt>
      <trkpt lat="49.97413" lon="2.4166">
        <ele>53.8</ele>
        <time>2022-04-20T14:28:50Z</time>
      </trkpt>
      <trkpt lat="49.97413" lon="2.4166">
        <ele>53.8</ele>
        <time>2022-04-20T14:28:51Z</time>
      </trkpt>
      <trkpt lat="49.97413" lon="2.4166">
        <ele>53.8</ele>
        <time>2022-04-20T14:28:52Z</time>
      </trkpt>
      <trkpt lat="49.97413" lon="2.4166">
        <ele>53.8</ele>
        <time>2022-04-20T14:28:53Z</time>
      </trkpt>
      <trkpt lat="49.97413" lon="2.4166">
        <ele>53.8</ele>
        <time>2022-04-20T14:28:54Z</time>
      </trkpt>
      <trkpt lat="49.97414" lon="2.4166">
        <ele>53.8</ele>
        <time>2022-04-20T14:28:55Z</time>
      </trkpt>
      <trkpt lat="49.97414" lon="2.4166">
        <ele>53.8</ele>
        <time>2022-04-20T14:28:56Z</time>
      </trkpt>
      <trkpt lat="49.97414" lon="2.4166">
        <ele>53.8</ele>
        <time>2022-04-20T14:28:57Z</time>
      </trkpt>
      <trkpt lat="49.97414" lon="2.4166">
        <ele>53.8</ele>
        <time>2022-04-20T14:28:58Z</time>
      </trkpt>
      <trkpt lat="49.97414" lon="2.4166">
        <ele>53.8</ele>
        <time>2022-04-20T14:28:59Z</time>
      </trkpt>
      <trkpt lat="49.97414" lon="2.4166">
        <ele>53.8</ele>
        <time>2022-04-20T14:29:00Z</time>
      </trkpt>
      <trkpt lat="49.97414" lon="2.41659">
        <ele>53.7</ele>
        <time>2022-04-20T14:29:01Z</time>
      </trkpt>
      <trkpt lat="49.97414" lon="2.41659">
        <ele>53.7</ele>
        <time>2022-04-20T14:29:02Z</time>
      </trkpt>
      <trkpt lat="49.97414" lon="2.41659">
        <ele>53.7</ele>
        <time>2022-04-20T14:29:03Z</time>
      </trkpt>
      <trkpt lat="49.97414" lon="2.41659">
        <ele>53.7</ele>
        <time>2022-04-20T14:29:04Z</time>
      </trkpt>
      <trkpt lat="49.97414" lon="2.41659">
        <ele>53.7</ele>
        <time>2022-04-20T14:29:05Z</time>
      </trkpt>
      <trkpt lat="49.97414" lon="2.41659">
        <ele>53.7</ele>
        <time>2022-04-20T14:29:06Z</time>
      </trkpt>
      <trkpt lat="49.97414" lon="2.41659">
        <ele>53.7</ele>
        <time>2022-04-20T14:29:07Z</time>
      </trkpt>
      <trkpt lat="49.97414" lon="2.41659">
        <ele>53.7</ele>
        <time>2022-04-20T14:29:08Z</time>
      </trkpt>
      <trkpt lat="49.97414" lon="2.41659">
        <ele>53.7</ele>
        <time>2022-04-20T14:29:09Z</time>
      </trkpt>
      <trkpt lat="49.97414" lon="2.41659">
        <ele>53.7</ele>
        <time>2022-04-20T14:29:10Z</time>
      </trkpt>
      <trkpt lat="49.97414" lon="2.41659">
        <ele>53.7</ele>
        <time>2022-04-20T14:29:11Z</time>
      </trkpt>
      <trkpt lat="49.97414" lon="2.41659">
        <ele>53.7</ele>
        <time>2022-04-20T14:29:12Z</time>
      </trkpt>
      <trkpt lat="49.97414" lon="2.41659">
        <ele>53.7</ele>
        <time>2022-04-20T14:29:13Z</time>
      </trkpt>
      <trkpt lat="49.97414" lon="2.41659">
        <ele>53.7</ele>
        <time>2022-04-20T14:29:14Z</time>
      </trkpt>
      <trkpt lat="49.97414" lon="2.41659">
        <ele>53.7</ele>
        <time>2022-04-20T14:29:15Z</time>
      </trkpt>
      <trkpt lat="49.97414" lon="2.41659">
        <ele>53.7</ele>
        <time>2022-04-20T14:29:16Z</time>
      </trkpt>
      <trkpt lat="49.97414" lon="2.41659">
        <ele>53.7</ele>
        <time>2022-04-20T14:29:17Z</time>
      </trkpt>
      <trkpt lat="49.97414" lon="2.41659">
        <ele>53.7</ele>
        <time>2022-04-20T14:29:18Z</time>
      </trkpt>
      <trkpt lat="49.97414" lon="2.41659">
        <ele>53.7</ele>
        <time>2022-04-20T14:29:19Z</time>
      </trkpt>
      <trkpt lat="49.97414" lon="2.41659">
        <ele>53.7</ele>
        <time>2022-04-20T14:29:20Z</time>
      </trkpt>
      <trkpt lat="49.97414" lon="2.41659">
        <ele>53.7</ele>
        <time>2022-04-20T14:29:21Z</time>
      </trkpt>
      <trkpt lat="49.97414" lon="2.41659">
        <ele>53.7</ele>
        <time>2022-04-20T14:29:22Z</time>
      </trkpt>
      <trkpt lat="49.97414" lon="2.41659">
        <ele>53.7</ele>
        <time>2022-04-20T14:29:23Z</time>
      </trkpt>
      <trkpt lat="49.97414" lon="2.41659">
        <ele>53.7</ele>
        <time>2022-04-20T14:29:24Z</time>
      </trkpt>
      <trkpt lat="49.97414" lon="2.41659">
        <ele>53.7</ele>
        <time>2022-04-20T14:29:25Z</time>
      </trkpt>
      <trkpt lat="49.97414" lon="2.41659">
        <ele>53.7</ele>
        <time>2022-04-20T14:29:26Z</time>
      </trkpt>
      <trkpt lat="49.97414" lon="2.41659">
        <ele>53.7</ele>
        <time>2022-04-20T14:29:27Z</time>
      </trkpt>
      <trkpt lat="49.97414" lon="2.41659">
        <ele>53.7</ele>
        <time>2022-04-20T14:29:28Z</time>
      </trkpt>
      <trkpt lat="49.97414" lon="2.41659">
        <ele>53.7</ele>
        <time>2022-04-20T14:29:29Z</time>
      </trkpt>
      <trkpt lat="49.97414" lon="2.41659">
        <ele>53.7</ele>
        <time>2022-04-20T14:29:30Z</time>
      </trkpt>
      <trkpt lat="49.97414" lon="2.41659">
        <ele>53.7</ele>
        <time>2022-04-20T14:29:31Z</time>
      </trkpt>
      <trkpt lat="49.97414" lon="2.41659">
        <ele>53.7</ele>
        <time>2022-04-20T14:29:32Z</time>
      </trkpt>
      <trkpt lat="49.97414" lon="2.41659">
        <ele>53.7</ele>
        <time>2022-04-20T14:29:33Z</time>
      </trkpt>
      <trkpt lat="49.97414" lon="2.41659">
        <ele>53.7</ele>
        <time>2022-04-20T14:29:34Z</time>
      </trkpt>
      <trkpt lat="49.97414" lon="2.41659">
        <ele>53.7</ele>
        <time>2022-04-20T14:29:35Z</time>
      </trkpt>
      <trkpt lat="49.97414" lon="2.41659">
        <ele>53.7</ele>
        <time>2022-04-20T14:29:36Z</time>
      </trkpt>
      <trkpt lat="49.97414" lon="2.41659">
        <ele>53.7</ele>
        <time>2022-04-20T14:29:37Z</time>
      </trkpt>
      <trkpt lat="49.97414" lon="2.41659">
        <ele>53.7</ele>
        <time>2022-04-20T14:29:38Z</time>
      </trkpt>
      <trkpt lat="49.97414" lon="2.41659">
        <ele>53.7</ele>
        <time>2022-04-20T14:29:39Z</time>
      </trkpt>
      <trkpt lat="49.97414" lon="2.41659">
        <ele>53.7</ele>
        <time>2022-04-20T14:29:40Z</time>
      </trkpt>
      <trkpt lat="49.97414" lon="2.41659">
        <ele>53.7</ele>
        <time>2022-04-20T14:29:41Z</time>
      </trkpt>
      <trkpt lat="49.97414" lon="2.41659">
        <ele>53.7</ele>
        <time>2022-04-20T14:29:42Z</time>
      </trkpt>
      <trkpt lat="49.97414" lon="2.41659">
        <ele>53.7</ele>
        <time>2022-04-20T14:29:43Z</time>
      </trkpt>
      <trkpt lat="49.97414" lon="2.41659">
        <ele>53.7</ele>
        <time>2022-04-20T14:29:44Z</time>
      </trkpt>
      <trkpt lat="49.97414" lon="2.41659">
        <ele>53.7</ele>
        <time>2022-04-20T14:29:45Z</time>
      </trkpt>
      <trkpt lat="49.97414" lon="2.41659">
        <ele>53.7</ele>
        <time>2022-04-20T14:29:46Z</time>
      </trkpt>
      <trkpt lat="49.97414" lon="2.41659">
        <ele>53.7</ele>
        <time>2022-04-20T14:29:47Z</time>
      </trkpt>
      <trkpt lat="49.97414" lon="2.41659">
        <ele>53.7</ele>
        <time>2022-04-20T14:29:48Z</time>
      </trkpt>
      <trkpt lat="49.97414" lon="2.41659">
        <ele>53.7</ele>
        <time>2022-04-20T14:29:49Z</time>
      </trkpt>
      <trkpt lat="49.97414" lon="2.41659">
        <ele>53.7</ele>
        <time>2022-04-20T14:29:50Z</time>
      </trkpt>
      <trkpt lat="49.97414" lon="2.41659">
        <ele>53.7</ele>
        <time>2022-04-20T14:29:51Z</time>
      </trkpt>
      <trkpt lat="49.97414" lon="2.41659">
        <ele>53.7</ele>
        <time>2022-04-20T14:29:52Z</time>
      </trkpt>
      <trkpt lat="49.97414" lon="2.41659">
        <ele>53.7</ele>
        <time>2022-04-20T14:29:53Z</time>
      </trkpt>
      <trkpt lat="49.97414" lon="2.41659">
        <ele>53.7</ele>
        <time>2022-04-20T14:29:54Z</time>
      </trkpt>
      <trkpt lat="49.97414" lon="2.41659">
        <ele>53.7</ele>
        <time>2022-04-20T14:29:55Z</time>
      </trkpt>
      <trkpt lat="49.97414" lon="2.41659">
        <ele>53.7</ele>
        <time>2022-04-20T14:29:56Z</time>
      </trkpt>
      <trkpt lat="49.97414" lon="2.41659">
        <ele>53.7</ele>
        <time>2022-04-20T14:29:57Z</time>
      </trkpt>
      <trkpt lat="49.97414" lon="2.41659">
        <ele>53.7</ele>
        <time>2022-04-20T14:29:58Z</time>
      </trkpt>
      <trkpt lat="49.97414" lon="2.41659">
        <ele>53.7</ele>
        <time>2022-04-20T14:29:59Z</time>
      </trkpt>
      <trkpt lat="49.97414" lon="2.41659">
        <ele>53.7</ele>
        <time>2022-04-20T14:30:00Z</time>
      </trkpt>
      <trkpt lat="49.97414" lon="2.41659">
        <ele>53.7</ele>
        <time>2022-04-20T14:30:01Z</time>
      </trkpt>
      <trkpt lat="49.97414" lon="2.41659">
        <ele>53.7</ele>
        <time>2022-04-20T14:30:02Z</time>
      </trkpt>
      <trkpt lat="49.97414" lon="2.41659">
        <ele>53.7</ele>
        <time>2022-04-20T14:30:03Z</time>
      </trkpt>
      <trkpt lat="49.97414" lon="2.41659">
        <ele>53.7</ele>
        <time>2022-04-20T14:30:04Z</time>
      </trkpt>
      <trkpt lat="49.97414" lon="2.41659">
        <ele>53.7</ele>
        <time>2022-04-20T14:30:05Z</time>
      </trkpt>
      <trkpt lat="49.97414" lon="2.41659">
        <ele>53.7</ele>
        <time>2022-04-20T14:30:06Z</time>
      </trkpt>
      <trkpt lat="49.97414" lon="2.41659">
        <ele>53.7</ele>
        <time>2022-04-20T14:30:07Z</time>
      </trkpt>
      <trkpt lat="49.97414" lon="2.41659">
        <ele>53.7</ele>
        <time>2022-04-20T14:30:08Z</time>
      </trkpt>
      <trkpt lat="49.97414" lon="2.41659">
        <ele>53.7</ele>
        <time>2022-04-20T14:30:09Z</time>
      </trkpt>
      <trkpt lat="49.97414" lon="2.41659">
        <ele>53.7</ele>
        <time>2022-04-20T14:30:10Z</time>
      </trkpt>
      <trkpt lat="49.97414" lon="2.41659">
        <ele>53.7</ele>
        <time>2022-04-20T14:30:11Z</time>
      </trkpt>
      <trkpt lat="49.97414" lon="2.41659">
        <ele>53.7</ele>
        <time>2022-04-20T14:30:12Z</time>
      </trkpt>
      <trkpt lat="49.97414" lon="2.41659">
        <ele>53.7</ele>
        <time>2022-04-20T14:30:13Z</time>
      </trkpt>
      <trkpt lat="49.97414" lon="2.41659">
        <ele>53.7</ele>
        <time>2022-04-20T14:30:14Z</time>
      </trkpt>
      <trkpt lat="49.97414" lon="2.41659">
        <ele>53.7</ele>
        <time>2022-04-20T14:30:15Z</time>
      </trkpt>
      <trkpt lat="49.97414" lon="2.41659">
        <ele>53.7</ele>
        <time>2022-04-20T14:30:16Z</time>
      </trkpt>
      <trkpt lat="49.97414" lon="2.41659">
        <ele>53.7</ele>
        <time>2022-04-20T14:30:17Z</time>
      </trkpt>
      <trkpt lat="49.97414" lon="2.41659">
        <ele>53.7</ele>
        <time>2022-04-20T14:30:18Z</time>
      </trkpt>
      <trkpt lat="49.97414" lon="2.41659">
        <ele>53.7</ele>
        <time>2022-04-20T14:30:19Z</time>
      </trkpt>
      <trkpt lat="49.97414" lon="2.41659">
        <ele>53.7</ele>
        <time>2022-04-20T14:30:20Z</time>
      </trkpt>
      <trkpt lat="49.97414" lon="2.41659">
        <ele>53.7</ele>
        <time>2022-04-20T14:30:21Z</time>
      </trkpt>
      <trkpt lat="49.97414" lon="2.41659">
        <ele>53.7</ele>
        <time>2022-04-20T14:30:22Z</time>
      </trkpt>
      <trkpt lat="49.97414" lon="2.41659">
        <ele>53.7</ele>
        <time>2022-04-20T14:30:23Z</time>
      </trkpt>
      <trkpt lat="49.97414" lon="2.41659">
        <ele>53.7</ele>
        <time>2022-04-20T14:30:24Z</time>
      </trkpt>
      <trkpt lat="49.97414" lon="2.41659">
        <ele>53.7</ele>
        <time>2022-04-20T14:30:25Z</time>
      </trkpt>
      <trkpt lat="49.97414" lon="2.41659">
        <ele>53.7</ele>
        <time>2022-04-20T14:30:26Z</time>
      </trkpt>
      <trkpt lat="49.97414" lon="2.41659">
        <ele>53.7</ele>
        <time>2022-04-20T14:30:27Z</time>
      </trkpt>
      <trkpt lat="49.97414" lon="2.41659">
        <ele>53.7</ele>
        <time>2022-04-20T14:30:28Z</time>
      </trkpt>
      <trkpt lat="49.97414" lon="2.41659">
        <ele>53.7</ele>
        <time>2022-04-20T14:30:29Z</time>
      </trkpt>
      <trkpt lat="49.97414" lon="2.41659">
        <ele>53.7</ele>
        <time>2022-04-20T14:30:30Z</time>
      </trkpt>
      <trkpt lat="49.97414" lon="2.41659">
        <ele>53.7</ele>
        <time>2022-04-20T14:30:31Z</time>
      </trkpt>
      <trkpt lat="49.97414" lon="2.41659">
        <ele>53.7</ele>
        <time>2022-04-20T14:30:32Z</time>
      </trkpt>
      <trkpt lat="49.97414" lon="2.41659">
        <ele>53.7</ele>
        <time>2022-04-20T14:30:33Z</time>
      </trkpt>
      <trkpt lat="49.97414" lon="2.41659">
        <ele>53.7</ele>
        <time>2022-04-20T14:30:34Z</time>
      </trkpt>
      <trkpt lat="49.97414" lon="2.41659">
        <ele>53.7</ele>
        <time>2022-04-20T14:30:35Z</time>
      </trkpt>
      <trkpt lat="49.97414" lon="2.41659">
        <ele>53.7</ele>
        <time>2022-04-20T14:30:36Z</time>
      </trkpt>
      <trkpt lat="49.97414" lon="2.41659">
        <ele>53.7</ele>
        <time>2022-04-20T14:30:37Z</time>
      </trkpt>
      <trkpt lat="49.97414" lon="2.41659">
        <ele>53.7</ele>
        <time>2022-04-20T14:30:38Z</time>
      </trkpt>
      <trkpt lat="49.97414" lon="2.41659">
        <ele>53.7</ele>
        <time>2022-04-20T14:30:39Z</time>
      </trkpt>
      <trkpt lat="49.97414" lon="2.41659">
        <ele>53.7</ele>
        <time>2022-04-20T14:30:40Z</time>
      </trkpt>
      <trkpt lat="49.97414" lon="2.41659">
        <ele>53.7</ele>
        <time>2022-04-20T14:30:41Z</time>
      </trkpt>
      <trkpt lat="49.97414" lon="2.41659">
        <ele>53.7</ele>
        <time>2022-04-20T14:30:42Z</time>
      </trkpt>
      <trkpt lat="49.97414" lon="2.41659">
        <ele>53.7</ele>
        <time>2022-04-20T14:30:43Z</time>
      </trkpt>
      <trkpt lat="49.97414" lon="2.41659">
        <ele>53.7</ele>
        <time>2022-04-20T14:30:44Z</time>
      </trkpt>
      <trkpt lat="49.97414" lon="2.41659">
        <ele>53.7</ele>
        <time>2022-04-20T14:30:45Z</time>
      </trkpt>
      <trkpt lat="49.97414" lon="2.41659">
        <ele>53.7</ele>
        <time>2022-04-20T14:30:46Z</time>
      </trkpt>
      <trkpt lat="49.97414" lon="2.41659">
        <ele>53.7</ele>
        <time>2022-04-20T14:30:47Z</time>
      </trkpt>
      <trkpt lat="49.97414" lon="2.41659">
        <ele>53.7</ele>
        <time>2022-04-20T14:30:48Z</time>
      </trkpt>
      <trkpt lat="49.97415" lon="2.41657">
        <ele>53.7</ele>
        <time>2022-04-20T14:30:49Z</time>
      </trkpt>
      <trkpt lat="49.97415" lon="2.41655">
        <ele>53.7</ele>
        <time>2022-04-20T14:30:50Z</time>
      </trkpt>
      <trkpt lat="49.97414" lon="2.41655">
        <ele>53.7</ele>
        <time>2022-04-20T14:30:51Z</time>
      </trkpt>
      <trkpt lat="49.97414" lon="2.41656">
        <ele>53.7</ele>
        <time>2022-04-20T14:30:52Z</time>
      </trkpt>
      <trkpt lat="49.97413" lon="2.41656">
        <ele>53.7</ele>
        <time>2022-04-20T14:30:53Z</time>
      </trkpt>
      <trkpt lat="49.97412" lon="2.41657">
        <ele>53.7</ele>
        <time>2022-04-20T14:30:54Z</time>
      </trkpt>
      <trkpt lat="49.97412" lon="2.41657">
        <ele>53.7</ele>
        <time>2022-04-20T14:30:55Z</time>
      </trkpt>
      <trkpt lat="49.97411" lon="2.41658">
        <ele>53.8</ele>
        <time>2022-04-20T14:30:56Z</time>
      </trkpt>
      <trkpt lat="49.97409" lon="2.41659">
        <ele>53.8</ele>
        <time>2022-04-20T14:30:57Z</time>
      </trkpt>
      <trkpt lat="49.97408" lon="2.4166">
        <ele>53.8</ele>
        <time>2022-04-20T14:30:59Z</time>
      </trkpt>
      <trkpt lat="49.97407" lon="2.41661">
        <ele>53.8</ele>
        <time>2022-04-20T14:31:00Z</time>
      </trkpt>
      <trkpt lat="49.97405" lon="2.41662">
        <ele>53.8</ele>
        <time>2022-04-20T14:31:01Z</time>
      </trkpt>
      <trkpt lat="49.97404" lon="2.41663">
        <ele>53.8</ele>
        <time>2022-04-20T14:31:03Z</time>
      </trkpt>
      <trkpt lat="49.97403" lon="2.41664">
        <ele>53.8</ele>
        <time>2022-04-20T14:31:04Z</time>
      </trkpt>
      <trkpt lat="49.97401" lon="2.41664">
        <ele>53.8</ele>
        <time>2022-04-20T14:31:05Z</time>
      </trkpt>
      <trkpt lat="49.974" lon="2.41665">
        <ele>53.8</ele>
        <time>2022-04-20T14:31:06Z</time>
      </trkpt>
      <trkpt lat="49.97399" lon="2.41665">
        <ele>53.8</ele>
        <time>2022-04-20T14:31:07Z</time>
      </trkpt>
      <trkpt lat="49.97398" lon="2.41666">
        <ele>53.8</ele>
        <time>2022-04-20T14:31:08Z</time>
      </trkpt>
      <trkpt lat="49.97397" lon="2.41666">
        <ele>53.8</ele>
        <time>2022-04-20T14:31:09Z</time>
      </trkpt>
      <trkpt lat="49.97394" lon="2.41668">
        <ele>53.8</ele>
        <time>2022-04-20T14:31:11Z</time>
      </trkpt>
      <trkpt lat="49.97392" lon="2.41668">
        <ele>53.8</ele>
        <time>2022-04-20T14:31:12Z</time>
      </trkpt>
      <trkpt lat="49.97391" lon="2.4167">
        <ele>53.8</ele>
        <time>2022-04-20T14:31:13Z</time>
      </trkpt>
      <trkpt lat="49.97389" lon="2.41671">
        <ele>53.9</ele>
        <time>2022-04-20T14:31:14Z</time>
      </trkpt>
      <trkpt lat="49.97388" lon="2.41672">
        <ele>53.9</ele>
        <time>2022-04-20T14:31:15Z</time>
      </trkpt>
      <trkpt lat="49.97386" lon="2.41673">
        <ele>53.9</ele>
        <time>2022-04-20T14:31:16Z</time>
      </trkpt>
      <trkpt lat="49.97384" lon="2.41674">
        <ele>53.9</ele>
        <time>2022-04-20T14:31:18Z</time>
      </trkpt>
      <trkpt lat="49.97382" lon="2.41675">
        <ele>53.9</ele>
        <time>2022-04-20T14:31:19Z</time>
      </trkpt>
      <trkpt lat="49.97381" lon="2.41676">
        <ele>53.9</ele>
        <time>2022-04-20T14:31:20Z</time>
      </trkpt>
      <trkpt lat="49.97379" lon="2.41677">
        <ele>53.9</ele>
        <time>2022-04-20T14:31:22Z</time>
      </trkpt>
      <trkpt lat="49.97378" lon="2.41678">
        <ele>53.9</ele>
        <time>2022-04-20T14:31:23Z</time>
      </trkpt>
      <trkpt lat="49.97377" lon="2.41679">
        <ele>53.9</ele>
        <time>2022-04-20T14:31:24Z</time>
      </trkpt>
      <trkpt lat="49.97376" lon="2.4168">
        <ele>53.9</ele>
        <time>2022-04-20T14:31:25Z</time>
      </trkpt>
      <trkpt lat="49.97374" lon="2.41681">
        <ele>53.9</ele>
        <time>2022-04-20T14:31:26Z</time>
      </trkpt>
      <trkpt lat="49.97373" lon="2.41682">
        <ele>54</ele>
        <time>2022-04-20T14:31:27Z</time>
      </trkpt>
      <trkpt lat="49.97371" lon="2.41684">
        <ele>54</ele>
        <time>2022-04-20T14:31:28Z</time>
      </trkpt>
      <trkpt lat="49.97371" lon="2.41685">
        <ele>54</ele>
        <time>2022-04-20T14:31:29Z</time>
      </trkpt>
      <trkpt lat="49.9737" lon="2.41686">
        <ele>54</ele>
        <time>2022-04-20T14:31:30Z</time>
      </trkpt>
      <trkpt lat="49.97369" lon="2.41687">
        <ele>54</ele>
        <time>2022-04-20T14:31:31Z</time>
      </trkpt>
      <trkpt lat="49.97368" lon="2.41688">
        <ele>54</ele>
        <time>2022-04-20T14:31:32Z</time>
      </trkpt>
      <trkpt lat="49.97366" lon="2.4169">
        <ele>54</ele>
        <time>2022-04-20T14:31:34Z</time>
      </trkpt>
      <trkpt lat="49.97364" lon="2.41692">
        <ele>54.1</ele>
        <time>2022-04-20T14:31:35Z</time>
      </trkpt>
      <trkpt lat="49.97363" lon="2.41692">
        <ele>54.1</ele>
        <time>2022-04-20T14:31:37Z</time>
      </trkpt>
      <trkpt lat="49.97362" lon="2.41693">
        <ele>54.1</ele>
        <time>2022-04-20T14:31:38Z</time>
      </trkpt>
      <trkpt lat="49.97361" lon="2.41694">
        <ele>54.2</ele>
        <time>2022-04-20T14:31:39Z</time>
      </trkpt>
      <trkpt lat="49.9736" lon="2.41694">
        <ele>54.2</ele>
        <time>2022-04-20T14:31:40Z</time>
      </trkpt>
      <trkpt lat="49.97358" lon="2.41695">
        <ele>54.2</ele>
        <time>2022-04-20T14:31:41Z</time>
      </trkpt>
      <trkpt lat="49.97357" lon="2.41696">
        <ele>54.2</ele>
        <time>2022-04-20T14:31:42Z</time>
      </trkpt>
      <trkpt lat="49.97357" lon="2.41696">
        <ele>54.3</ele>
        <time>2022-04-20T14:31:43Z</time>
      </trkpt>
      <trkpt lat="49.97355" lon="2.41698">
        <ele>54.3</ele>
        <time>2022-04-20T14:31:44Z</time>
      </trkpt>
      <trkpt lat="49.97354" lon="2.41699">
        <ele>54.3</ele>
        <time>2022-04-20T14:31:45Z</time>
      </trkpt>
      <trkpt lat="49.97353" lon="2.417">
        <ele>54.4</ele>
        <time>2022-04-20T14:31:46Z</time>
      </trkpt>
      <trkpt lat="49.97351" lon="2.41701">
        <ele>54.4</ele>
        <time>2022-04-20T14:31:47Z</time>
      </trkpt>
      <trkpt lat="49.9735" lon="2.41702">
        <ele>54.4</ele>
        <time>2022-04-20T14:31:48Z</time>
      </trkpt>
      <trkpt lat="49.97349" lon="2.41703">
        <ele>54.5</ele>
        <time>2022-04-20T14:31:50Z</time>
      </trkpt>
      <trkpt lat="49.97348" lon="2.41704">
        <ele>54.5</ele>
        <time>2022-04-20T14:31:51Z</time>
      </trkpt>
      <trkpt lat="49.97347" lon="2.41705">
        <ele>54.5</ele>
        <time>2022-04-20T14:31:52Z</time>
      </trkpt>
      <trkpt lat="49.97346" lon="2.41706">
        <ele>54.6</ele>
        <time>2022-04-20T14:31:53Z</time>
      </trkpt>
      <trkpt lat="49.97345" lon="2.41707">
        <ele>54.6</ele>
        <time>2022-04-20T14:31:54Z</time>
      </trkpt>
      <trkpt lat="49.97343" lon="2.41708">
        <ele>54.6</ele>
        <time>2022-04-20T14:31:55Z</time>
      </trkpt>
      <trkpt lat="49.97343" lon="2.41708">
        <ele>54.6</ele>
        <time>2022-04-20T14:31:56Z</time>
      </trkpt>
      <trkpt lat="49.97341" lon="2.41709">
        <ele>54.7</ele>
        <time>2022-04-20T14:31:58Z</time>
      </trkpt>
      <trkpt lat="49.9734" lon="2.4171">
        <ele>54.7</ele>
        <time>2022-04-20T14:31:59Z</time>
      </trkpt>
      <trkpt lat="49.97338" lon="2.41711">
        <ele>54.8</ele>
        <time>2022-04-20T14:32:00Z</time>
      </trkpt>
      <trkpt lat="49.97338" lon="2.41711">
        <ele>54.8</ele>
        <time>2022-04-20T14:32:01Z</time>
      </trkpt>
      <trkpt lat="49.97337" lon="2.41712">
        <ele>54.8</ele>
        <time>2022-04-20T14:32:02Z</time>
      </trkpt>
      <trkpt lat="49.97335" lon="2.41713">
        <ele>54.9</ele>
        <time>2022-04-20T14:32:03Z</time>
      </trkpt>
      <trkpt lat="49.97334" lon="2.41714">
        <ele>54.9</ele>
        <time>2022-04-20T14:32:05Z</time>
      </trkpt>
      <trkpt lat="49.97334" lon="2.41714">
        <ele>54.9</ele>
        <time>2022-04-20T14:32:06Z</time>
      </trkpt>
      <trkpt lat="49.97333" lon="2.41715">
        <ele>55</ele>
        <time>2022-04-20T14:32:07Z</time>
      </trkpt>
      <trkpt lat="49.97332" lon="2.41716">
        <ele>55</ele>
        <time>2022-04-20T14:32:08Z</time>
      </trkpt>
      <trkpt lat="49.97331" lon="2.41717">
        <ele>55</ele>
        <time>2022-04-20T14:32:09Z</time>
      </trkpt>
      <trkpt lat="49.97329" lon="2.41719">
        <ele>55.1</ele>
        <time>2022-04-20T14:32:10Z</time>
      </trkpt>
      <trkpt lat="49.97328" lon="2.41719">
        <ele>55.1</ele>
        <time>2022-04-20T14:32:11Z</time>
      </trkpt>
      <trkpt lat="49.97327" lon="2.4172">
        <ele>55.2</ele>
        <time>2022-04-20T14:32:12Z</time>
      </trkpt>
      <trkpt lat="49.97326" lon="2.41721">
        <ele>55.2</ele>
        <time>2022-04-20T14:32:13Z</time>
      </trkpt>
      <trkpt lat="49.97325" lon="2.41722">
        <ele>55.2</ele>
        <time>2022-04-20T14:32:14Z</time>
      </trkpt>
      <trkpt lat="49.97324" lon="2.41723">
        <ele>55.3</ele>
        <time>2022-04-20T14:32:16Z</time>
      </trkpt>
      <trkpt lat="49.97323" lon="2.41724">
        <ele>55.3</ele>
        <time>2022-04-20T14:32:17Z</time>
      </trkpt>
      <trkpt lat="49.97322" lon="2.41725">
        <ele>55.4</ele>
        <time>2022-04-20T14:32:18Z</time>
      </trkpt>
      <trkpt lat="49.97321" lon="2.41726">
        <ele>55.4</ele>
        <time>2022-04-20T14:32:19Z</time>
      </trkpt>
      <trkpt lat="49.97319" lon="2.41727">
        <ele>55.5</ele>
        <time>2022-04-20T14:32:20Z</time>
      </trkpt>
      <trkpt lat="49.97318" lon="2.41728">
        <ele>55.5</ele>
        <time>2022-04-20T14:32:21Z</time>
      </trkpt>
      <trkpt lat="49.97318" lon="2.41728">
        <ele>55.5</ele>
        <time>2022-04-20T14:32:22Z</time>
      </trkpt>
      <trkpt lat="49.97317" lon="2.41729">
        <ele>55.6</ele>
        <time>2022-04-20T14:32:23Z</time>
      </trkpt>
      <trkpt lat="49.97316" lon="2.4173">
        <ele>55.6</ele>
        <time>2022-04-20T14:32:25Z</time>
      </trkpt>
      <trkpt lat="49.97315" lon="2.41731">
        <ele>55.6</ele>
        <time>2022-04-20T14:32:26Z</time>
      </trkpt>
      <trkpt lat="49.97313" lon="2.41732">
        <ele>55.7</ele>
        <time>2022-04-20T14:32:27Z</time>
      </trkpt>
      <trkpt lat="49.97312" lon="2.41733">
        <ele>55.7</ele>
        <time>2022-04-20T14:32:28Z</time>
      </trkpt>
      <trkpt lat="49.97311" lon="2.41733">
        <ele>55.8</ele>
        <time>2022-04-20T14:32:29Z</time>
      </trkpt>
      <trkpt lat="49.97309" lon="2.41735">
        <ele>55.8</ele>
        <time>2022-04-20T14:32:30Z</time>
      </trkpt>
      <trkpt lat="49.97309" lon="2.41735">
        <ele>55.9</ele>
        <time>2022-04-20T14:32:31Z</time>
      </trkpt>
      <trkpt lat="49.97308" lon="2.41736">
        <ele>55.9</ele>
        <time>2022-04-20T14:32:32Z</time>
      </trkpt>
      <trkpt lat="49.97307" lon="2.41736">
        <ele>55.9</ele>
        <time>2022-04-20T14:32:33Z</time>
      </trkpt>
      <trkpt lat="49.97306" lon="2.41736">
        <ele>56</ele>
        <time>2022-04-20T14:32:35Z</time>
      </trkpt>
      <trkpt lat="49.97305" lon="2.41736">
        <ele>56</ele>
        <time>2022-04-20T14:32:36Z</time>
      </trkpt>
      <trkpt lat="49.97304" lon="2.41737">
        <ele>56</ele>
        <time>2022-04-20T14:32:37Z</time>
      </trkpt>
      <trkpt lat="49.97302" lon="2.41738">
        <ele>56.1</ele>
        <time>2022-04-20T14:32:38Z</time>
      </trkpt>
      <trkpt lat="49.97301" lon="2.41739">
        <ele>56.1</ele>
        <time>2022-04-20T14:32:39Z</time>
      </trkpt>
      <trkpt lat="49.973" lon="2.4174">
        <ele>56.2</ele>
        <time>2022-04-20T14:32:40Z</time>
      </trkpt>
      <trkpt lat="49.97298" lon="2.41741">
        <ele>56.3</ele>
        <time>2022-04-20T14:32:41Z</time>
      </trkpt>
      <trkpt lat="49.97297" lon="2.41742">
        <ele>56.3</ele>
        <time>2022-04-20T14:32:43Z</time>
      </trkpt>
      <trkpt lat="49.97296" lon="2.41742">
        <ele>56.3</ele>
        <time>2022-04-20T14:32:44Z</time>
      </trkpt>
      <trkpt lat="49.97295" lon="2.41743">
        <ele>56.4</ele>
        <time>2022-04-20T14:32:45Z</time>
      </trkpt>
      <trkpt lat="49.97293" lon="2.41743">
        <ele>56.4</ele>
        <time>2022-04-20T14:32:46Z</time>
      </trkpt>
      <trkpt lat="49.97291" lon="2.41744">
        <ele>56.5</ele>
        <time>2022-04-20T14:32:47Z</time>
      </trkpt>
      <trkpt lat="49.9729" lon="2.41744">
        <ele>56.5</ele>
        <time>2022-04-20T14:32:48Z</time>
      </trkpt>
      <trkpt lat="49.9729" lon="2.41744">
        <ele>56.6</ele>
        <time>2022-04-20T14:32:49Z</time>
      </trkpt>
      <trkpt lat="49.97288" lon="2.41745">
        <ele>56.6</ele>
        <time>2022-04-20T14:32:51Z</time>
      </trkpt>
      <trkpt lat="49.97287" lon="2.41745">
        <ele>56.7</ele>
        <time>2022-04-20T14:32:52Z</time>
      </trkpt>
      <trkpt lat="49.97286" lon="2.41746">
        <ele>56.7</ele>
        <time>2022-04-20T14:32:53Z</time>
      </trkpt>
      <trkpt lat="49.97285" lon="2.41747">
        <ele>56.7</ele>
        <time>2022-04-20T14:32:54Z</time>
      </trkpt>
      <trkpt lat="49.97284" lon="2.41747">
        <ele>56.8</ele>
        <time>2022-04-20T14:32:55Z</time>
      </trkpt>
      <trkpt lat="49.97282" lon="2.41748">
        <ele>56.9</ele>
        <time>2022-04-20T14:32:57Z</time>
      </trkpt>
      <trkpt lat="49.9728" lon="2.41749">
        <ele>56.9</ele>
        <time>2022-04-20T14:32:58Z</time>
      </trkpt>
      <trkpt lat="49.97279" lon="2.41749">
        <ele>57</ele>
        <time>2022-04-20T14:32:59Z</time>
      </trkpt>
      <trkpt lat="49.97278" lon="2.41749">
        <ele>57</ele>
        <time>2022-04-20T14:33:00Z</time>
      </trkpt>
      <trkpt lat="49.97276" lon="2.41749">
        <ele>57.2</ele>
        <time>2022-04-20T14:33:01Z</time>
      </trkpt>
      <trkpt lat="49.97275" lon="2.41749">
        <ele>57.3</ele>
        <time>2022-04-20T14:33:03Z</time>
      </trkpt>
      <trkpt lat="49.97274" lon="2.41749">
        <ele>57.3</ele>
        <time>2022-04-20T14:33:04Z</time>
      </trkpt>
      <trkpt lat="49.97273" lon="2.41749">
        <ele>57.3</ele>
        <time>2022-04-20T14:33:05Z</time>
      </trkpt>
      <trkpt lat="49.97272" lon="2.41748">
        <ele>57.4</ele>
        <time>2022-04-20T14:33:06Z</time>
      </trkpt>
      <trkpt lat="49.9727" lon="2.41746">
        <ele>57.5</ele>
        <time>2022-04-20T14:33:07Z</time>
      </trkpt>
      <trkpt lat="49.97269" lon="2.41745">
        <ele>57.5</ele>
        <time>2022-04-20T14:33:08Z</time>
      </trkpt>
      <trkpt lat="49.97269" lon="2.41744">
        <ele>57.6</ele>
        <time>2022-04-20T14:33:09Z</time>
      </trkpt>
      <trkpt lat="49.97267" lon="2.41742">
        <ele>57.6</ele>
        <time>2022-04-20T14:33:11Z</time>
      </trkpt>
      <trkpt lat="49.97267" lon="2.41741">
        <ele>57.7</ele>
        <time>2022-04-20T14:33:12Z</time>
      </trkpt>
      <trkpt lat="49.97266" lon="2.4174">
        <ele>57.7</ele>
        <time>2022-04-20T14:33:13Z</time>
      </trkpt>
      <trkpt lat="49.97266" lon="2.41738">
        <ele>57.7</ele>
        <time>2022-04-20T14:33:14Z</time>
      </trkpt>
      <trkpt lat="49.97265" lon="2.41737">
        <ele>57.8</ele>
        <time>2022-04-20T14:33:15Z</time>
      </trkpt>
      <trkpt lat="49.97265" lon="2.41735">
        <ele>57.8</ele>
        <time>2022-04-20T14:33:16Z</time>
      </trkpt>
      <trkpt lat="49.97264" lon="2.41732">
        <ele>57.9</ele>
        <time>2022-04-20T14:33:17Z</time>
      </trkpt>
      <trkpt lat="49.97264" lon="2.4173">
        <ele>57.9</ele>
        <time>2022-04-20T14:33:19Z</time>
      </trkpt>
      <trkpt lat="49.97264" lon="2.41729">
        <ele>58</ele>
        <time>2022-04-20T14:33:20Z</time>
      </trkpt>
      <trkpt lat="49.97263" lon="2.41726">
        <ele>58</ele>
        <time>2022-04-20T14:33:21Z</time>
      </trkpt>
      <trkpt lat="49.97263" lon="2.41725">
        <ele>58</ele>
        <time>2022-04-20T14:33:22Z</time>
      </trkpt>
      <trkpt lat="49.97263" lon="2.41723">
        <ele>58.1</ele>
        <time>2022-04-20T14:33:23Z</time>
      </trkpt>
      <trkpt lat="49.97262" lon="2.41721">
        <ele>58.1</ele>
        <time>2022-04-20T14:33:25Z</time>
      </trkpt>
      <trkpt lat="49.97262" lon="2.41719">
        <ele>58.1</ele>
        <time>2022-04-20T14:33:26Z</time>
      </trkpt>
      <trkpt lat="49.97261" lon="2.41716">
        <ele>58.2</ele>
        <time>2022-04-20T14:33:28Z</time>
      </trkpt>
      <trkpt lat="49.97261" lon="2.41714">
        <ele>58.2</ele>
        <time>2022-04-20T14:33:29Z</time>
      </trkpt>
      <trkpt lat="49.97261" lon="2.41712">
        <ele>58.2</ele>
        <time>2022-04-20T14:33:30Z</time>
      </trkpt>
      <trkpt lat="49.9726" lon="2.41711">
        <ele>58.3</ele>
        <time>2022-04-20T14:33:31Z</time>
      </trkpt>
      <trkpt lat="49.9726" lon="2.41709">
        <ele>58.3</ele>
        <time>2022-04-20T14:33:32Z</time>
      </trkpt>
      <trkpt lat="49.9726" lon="2.41706">
        <ele>58.3</ele>
        <time>2022-04-20T14:33:33Z</time>
      </trkpt>
      <trkpt lat="49.97259" lon="2.41705">
        <ele>58.3</ele>
        <time>2022-04-20T14:33:34Z</time>
      </trkpt>
      <trkpt lat="49.97259" lon="2.41704">
        <ele>58.3</ele>
        <time>2022-04-20T14:33:35Z</time>
      </trkpt>
      <trkpt lat="49.97259" lon="2.417">
        <ele>58.4</ele>
        <time>2022-04-20T14:33:37Z</time>
      </trkpt>
      <trkpt lat="49.97258" lon="2.41699">
        <ele>58.4</ele>
        <time>2022-04-20T14:33:38Z</time>
      </trkpt>
      <trkpt lat="49.97258" lon="2.41698">
        <ele>58.4</ele>
        <time>2022-04-20T14:33:39Z</time>
      </trkpt>
      <trkpt lat="49.97258" lon="2.41696">
        <ele>58.4</ele>
        <time>2022-04-20T14:33:40Z</time>
      </trkpt>
      <trkpt lat="49.97258" lon="2.41695">
        <ele>58.4</ele>
        <time>2022-04-20T14:33:41Z</time>
      </trkpt>
      <trkpt lat="49.97257" lon="2.41693">
        <ele>58.5</ele>
        <time>2022-04-20T14:33:42Z</time>
      </trkpt>
      <trkpt lat="49.97257" lon="2.41691">
        <ele>58.5</ele>
        <time>2022-04-20T14:33:43Z</time>
      </trkpt>
      <trkpt lat="49.97257" lon="2.41689">
        <ele>58.5</ele>
        <time>2022-04-20T14:33:44Z</time>
      </trkpt>
      <trkpt lat="49.97256" lon="2.41687">
        <ele>58.5</ele>
        <time>2022-04-20T14:33:46Z</time>
      </trkpt>
      <trkpt lat="49.97256" lon="2.41685">
        <ele>58.6</ele>
        <time>2022-04-20T14:33:47Z</time>
      </trkpt>
      <trkpt lat="49.97256" lon="2.41684">
        <ele>58.6</ele>
        <time>2022-04-20T14:33:48Z</time>
      </trkpt>
      <trkpt lat="49.97256" lon="2.41683">
        <ele>58.6</ele>
        <time>2022-04-20T14:33:49Z</time>
      </trkpt>
      <trkpt lat="49.97256" lon="2.41681">
        <ele>58.6</ele>
        <time>2022-04-20T14:33:50Z</time>
      </trkpt>
      <trkpt lat="49.97255" lon="2.41679">
        <ele>58.7</ele>
        <time>2022-04-20T14:33:51Z</time>
      </trkpt>
      <trkpt lat="49.97255" lon="2.41678">
        <ele>58.7</ele>
        <time>2022-04-20T14:33:52Z</time>
      </trkpt>
      <trkpt lat="49.97255" lon="2.41676">
        <ele>58.7</ele>
        <time>2022-04-20T14:33:53Z</time>
      </trkpt>
      <trkpt lat="49.97254" lon="2.41674">
        <ele>58.8</ele>
        <time>2022-04-20T14:33:55Z</time>
      </trkpt>
      <trkpt lat="49.97254" lon="2.41673">
        <ele>58.8</ele>
        <time>2022-04-20T14:33:56Z</time>
      </trkpt>
      <trkpt lat="49.97253" lon="2.41671">
        <ele>58.8</ele>
        <time>2022-04-20T14:33:57Z</time>
      </trkpt>
      <trkpt lat="49.97253" lon="2.41669">
        <ele>58.9</ele>
        <time>2022-04-20T14:33:58Z</time>
      </trkpt>
      <trkpt lat="49.97253" lon="2.41668">
        <ele>58.9</ele>
        <time>2022-04-20T14:33:59Z</time>
      </trkpt>
      <trkpt lat="49.97252" lon="2.41666">
        <ele>59</ele>
        <time>2022-04-20T14:34:00Z</time>
      </trkpt>
      <trkpt lat="49.97251" lon="2.41665">
        <ele>59</ele>
        <time>2022-04-20T14:34:01Z</time>
      </trkpt>
      <trkpt lat="49.97251" lon="2.41663">
        <ele>59</ele>
        <time>2022-04-20T14:34:03Z</time>
      </trkpt>
      <trkpt lat="49.97249" lon="2.4166">
        <ele>59.1</ele>
        <time>2022-04-20T14:34:04Z</time>
      </trkpt>
      <trkpt lat="49.97249" lon="2.41659">
        <ele>59.2</ele>
        <time>2022-04-20T14:34:05Z</time>
      </trkpt>
      <trkpt lat="49.97248" lon="2.41658">
        <ele>59.2</ele>
        <time>2022-04-20T14:34:06Z</time>
      </trkpt>
      <trkpt lat="49.97247" lon="2.41656">
        <ele>59.3</ele>
        <time>2022-04-20T14:34:07Z</time>
      </trkpt>
      <trkpt lat="49.97247" lon="2.41654">
        <ele>59.3</ele>
        <time>2022-04-20T14:34:08Z</time>
      </trkpt>
      <trkpt lat="49.97246" lon="2.41652">
        <ele>59.4</ele>
        <time>2022-04-20T14:34:09Z</time>
      </trkpt>
      <trkpt lat="49.97245" lon="2.41651">
        <ele>59.4</ele>
        <time>2022-04-20T14:34:10Z</time>
      </trkpt>
      <trkpt lat="49.97244" lon="2.41649">
        <ele>59.5</ele>
        <time>2022-04-20T14:34:12Z</time>
      </trkpt>
      <trkpt lat="49.97243" lon="2.41646">
        <ele>59.6</ele>
        <time>2022-04-20T14:34:13Z</time>
      </trkpt>
      <trkpt lat="49.97243" lon="2.41645">
        <ele>59.6</ele>
        <time>2022-04-20T14:34:14Z</time>
      </trkpt>
      <trkpt lat="49.97242" lon="2.41644">
        <ele>59.6</ele>
        <time>2022-04-20T14:34:15Z</time>
      </trkpt>
      <trkpt lat="49.97241" lon="2.41641">
        <ele>59.7</ele>
        <time>2022-04-20T14:34:16Z</time>
      </trkpt>
      <trkpt lat="49.9724" lon="2.4164">
        <ele>59.7</ele>
        <time>2022-04-20T14:34:17Z</time>
      </trkpt>
      <trkpt lat="49.9724" lon="2.41639">
        <ele>59.8</ele>
        <time>2022-04-20T14:34:18Z</time>
      </trkpt>
      <trkpt lat="49.97239" lon="2.41637">
        <ele>59.8</ele>
        <time>2022-04-20T14:34:19Z</time>
      </trkpt>
      <trkpt lat="49.97238" lon="2.41635">
        <ele>59.9</ele>
        <time>2022-04-20T14:34:20Z</time>
      </trkpt>
      <trkpt lat="49.97237" lon="2.41632">
        <ele>59.9</ele>
        <time>2022-04-20T14:34:21Z</time>
      </trkpt>
      <trkpt lat="49.97237" lon="2.41631">
        <ele>60</ele>
        <time>2022-04-20T14:34:23Z</time>
      </trkpt>
      <trkpt lat="49.97236" lon="2.4163">
        <ele>60</ele>
        <time>2022-04-20T14:34:24Z</time>
      </trkpt>
      <trkpt lat="49.97236" lon="2.41628">
        <ele>60.1</ele>
        <time>2022-04-20T14:34:25Z</time>
      </trkpt>
      <trkpt lat="49.97235" lon="2.41626">
        <ele>60.1</ele>
        <time>2022-04-20T14:34:26Z</time>
      </trkpt>
      <trkpt lat="49.97235" lon="2.41623">
        <ele>60.2</ele>
        <time>2022-04-20T14:34:27Z</time>
      </trkpt>
      <trkpt lat="49.97234" lon="2.41621">
        <ele>60.2</ele>
        <time>2022-04-20T14:34:28Z</time>
      </trkpt>
      <trkpt lat="49.97234" lon="2.4162">
        <ele>60.2</ele>
        <time>2022-04-20T14:34:29Z</time>
      </trkpt>
      <trkpt lat="49.97233" lon="2.41617">
        <ele>60.3</ele>
        <time>2022-04-20T14:34:30Z</time>
      </trkpt>
      <trkpt lat="49.97232" lon="2.41616">
        <ele>60.3</ele>
        <time>2022-04-20T14:34:32Z</time>
      </trkpt>
      <trkpt lat="49.97232" lon="2.41615">
        <ele>60.4</ele>
        <time>2022-04-20T14:34:33Z</time>
      </trkpt>
      <trkpt lat="49.97231" lon="2.41612">
        <ele>60.4</ele>
        <time>2022-04-20T14:34:34Z</time>
      </trkpt>
      <trkpt lat="49.97231" lon="2.41611">
        <ele>60.4</ele>
        <time>2022-04-20T14:34:35Z</time>
      </trkpt>
      <trkpt lat="49.9723" lon="2.4161">
        <ele>60.5</ele>
        <time>2022-04-20T14:34:36Z</time>
      </trkpt>
      <trkpt lat="49.97229" lon="2.41608">
        <ele>60.5</ele>
        <time>2022-04-20T14:34:37Z</time>
      </trkpt>
      <trkpt lat="49.97229" lon="2.41607">
        <ele>60.5</ele>
        <time>2022-04-20T14:34:38Z</time>
      </trkpt>
      <trkpt lat="49.97228" lon="2.41605">
        <ele>60.6</ele>
        <time>2022-04-20T14:34:40Z</time>
      </trkpt>
      <trkpt lat="49.97228" lon="2.41603">
        <ele>60.6</ele>
        <time>2022-04-20T14:34:41Z</time>
      </trkpt>
      <trkpt lat="49.97227" lon="2.41602">
        <ele>60.7</ele>
        <time>2022-04-20T14:34:42Z</time>
      </trkpt>
      <trkpt lat="49.97226" lon="2.416">
        <ele>60.7</ele>
        <time>2022-04-20T14:34:43Z</time>
      </trkpt>
      <trkpt lat="49.97226" lon="2.41599">
        <ele>60.7</ele>
        <time>2022-04-20T14:34:44Z</time>
      </trkpt>
      <trkpt lat="49.97225" lon="2.41597">
        <ele>60.8</ele>
        <time>2022-04-20T14:34:45Z</time>
      </trkpt>
      <trkpt lat="49.97225" lon="2.41596">
        <ele>60.8</ele>
        <time>2022-04-20T14:34:46Z</time>
      </trkpt>
      <trkpt lat="49.97224" lon="2.41593">
        <ele>60.8</ele>
        <time>2022-04-20T14:34:47Z</time>
      </trkpt>
      <trkpt lat="49.97223" lon="2.41591">
        <ele>60.9</ele>
        <time>2022-04-20T14:34:48Z</time>
      </trkpt>
      <trkpt lat="49.97223" lon="2.4159">
        <ele>60.9</ele>
        <time>2022-04-20T14:34:50Z</time>
      </trkpt>
      <trkpt lat="49.97222" lon="2.41588">
        <ele>60.9</ele>
        <time>2022-04-20T14:34:51Z</time>
      </trkpt>
      <trkpt lat="49.97222" lon="2.41587">
        <ele>60.9</ele>
        <time>2022-04-20T14:34:52Z</time>
      </trkpt>
      <trkpt lat="49.97221" lon="2.41585">
        <ele>61</ele>
        <time>2022-04-20T14:34:53Z</time>
      </trkpt>
      <trkpt lat="49.97221" lon="2.41582">
        <ele>61</ele>
        <time>2022-04-20T14:34:55Z</time>
      </trkpt>
      <trkpt lat="49.9722" lon="2.41581">
        <ele>61</ele>
        <time>2022-04-20T14:34:56Z</time>
      </trkpt>
      <trkpt lat="49.9722" lon="2.4158">
        <ele>61</ele>
        <time>2022-04-20T14:34:57Z</time>
      </trkpt>
      <trkpt lat="49.97219" lon="2.41579">
        <ele>61</ele>
        <time>2022-04-20T14:34:58Z</time>
      </trkpt>
      <trkpt lat="49.97219" lon="2.41576">
        <ele>61.1</ele>
        <time>2022-04-20T14:35:00Z</time>
      </trkpt>
      <trkpt lat="49.97218" lon="2.41575">
        <ele>61.1</ele>
        <time>2022-04-20T14:35:01Z</time>
      </trkpt>
      <trkpt lat="49.97218" lon="2.41573">
        <ele>61.1</ele>
        <time>2022-04-20T14:35:02Z</time>
      </trkpt>
      <trkpt lat="49.97217" lon="2.41571">
        <ele>61.1</ele>
        <time>2022-04-20T14:35:03Z</time>
      </trkpt>
      <trkpt lat="49.97217" lon="2.4157">
        <ele>61.1</ele>
        <time>2022-04-20T14:35:04Z</time>
      </trkpt>
      <trkpt lat="49.97216" lon="2.41568">
        <ele>61.2</ele>
        <time>2022-04-20T14:35:05Z</time>
      </trkpt>
      <trkpt lat="49.97216" lon="2.41566">
        <ele>61.2</ele>
        <time>2022-04-20T14:35:06Z</time>
      </trkpt>
      <trkpt lat="49.97216" lon="2.41565">
        <ele>61.2</ele>
        <time>2022-04-20T14:35:08Z</time>
      </trkpt>
      <trkpt lat="49.97215" lon="2.41563">
        <ele>61.2</ele>
        <time>2022-04-20T14:35:09Z</time>
      </trkpt>
      <trkpt lat="49.97215" lon="2.41562">
        <ele>61.2</ele>
        <time>2022-04-20T14:35:10Z</time>
      </trkpt>
      <trkpt lat="49.97215" lon="2.41561">
        <ele>61.2</ele>
        <time>2022-04-20T14:35:11Z</time>
      </trkpt>
      <trkpt lat="49.97215" lon="2.4156">
        <ele>61.2</ele>
        <time>2022-04-20T14:35:12Z</time>
      </trkpt>
      <trkpt lat="49.97214" lon="2.41558">
        <ele>61.2</ele>
        <time>2022-04-20T14:35:13Z</time>
      </trkpt>
      <trkpt lat="49.97214" lon="2.41557">
        <ele>61.2</ele>
        <time>2022-04-20T14:35:14Z</time>
      </trkpt>
      <trkpt lat="49.97213" lon="2.41556">
        <ele>61.2</ele>
        <time>2022-04-20T14:35:15Z</time>
      </trkpt>
      <trkpt lat="49.97213" lon="2.41554">
        <ele>61.3</ele>
        <time>2022-04-20T14:35:17Z</time>
      </trkpt>
      <trkpt lat="49.97212" lon="2.41552">
        <ele>61.3</ele>
        <time>2022-04-20T14:35:18Z</time>
      </trkpt>
      <trkpt lat="49.97212" lon="2.41551">
        <ele>61.3</ele>
        <time>2022-04-20T14:35:19Z</time>
      </trkpt>
      <trkpt lat="49.97212" lon="2.4155">
        <ele>61.3</ele>
        <time>2022-04-20T14:35:20Z</time>
      </trkpt>
      <trkpt lat="49.97211" lon="2.41548">
        <ele>61.3</ele>
        <time>2022-04-20T14:35:21Z</time>
      </trkpt>
      <trkpt lat="49.97211" lon="2.41547">
        <ele>61.3</ele>
        <time>2022-04-20T14:35:22Z</time>
      </trkpt>
      <trkpt lat="49.9721" lon="2.41546">
        <ele>61.3</ele>
        <time>2022-04-20T14:35:23Z</time>
      </trkpt>
      <trkpt lat="49.9721" lon="2.41544">
        <ele>61.3</ele>
        <time>2022-04-20T14:35:24Z</time>
      </trkpt>
      <trkpt lat="49.97209" lon="2.41543">
        <ele>61.3</ele>
        <time>2022-04-20T14:35:25Z</time>
      </trkpt>
      <trkpt lat="49.97209" lon="2.41541">
        <ele>61.3</ele>
        <time>2022-04-20T14:35:26Z</time>
      </trkpt>
      <trkpt lat="49.97208" lon="2.4154">
        <ele>61.3</ele>
        <time>2022-04-20T14:35:27Z</time>
      </trkpt>
      <trkpt lat="49.97207" lon="2.41537">
        <ele>61.4</ele>
        <time>2022-04-20T14:35:29Z</time>
      </trkpt>
      <trkpt lat="49.97207" lon="2.41536">
        <ele>61.4</ele>
        <time>2022-04-20T14:35:30Z</time>
      </trkpt>
      <trkpt lat="49.97207" lon="2.41535">
        <ele>61.4</ele>
        <time>2022-04-20T14:35:31Z</time>
      </trkpt>
      <trkpt lat="49.97206" lon="2.41532">
        <ele>61.4</ele>
        <time>2022-04-20T14:35:32Z</time>
      </trkpt>
      <trkpt lat="49.97205" lon="2.41531">
        <ele>61.4</ele>
        <time>2022-04-20T14:35:33Z</time>
      </trkpt>
      <trkpt lat="49.97205" lon="2.4153">
        <ele>61.4</ele>
        <time>2022-04-20T14:35:34Z</time>
      </trkpt>
      <trkpt lat="49.97204" lon="2.41528">
        <ele>61.4</ele>
        <time>2022-04-20T14:35:35Z</time>
      </trkpt>
      <trkpt lat="49.97203" lon="2.41526">
        <ele>61.4</ele>
        <time>2022-04-20T14:35:36Z</time>
      </trkpt>
      <trkpt lat="49.97202" lon="2.41525">
        <ele>61.4</ele>
        <time>2022-04-20T14:35:37Z</time>
      </trkpt>
      <trkpt lat="49.97202" lon="2.41523">
        <ele>61.4</ele>
        <time>2022-04-20T14:35:38Z</time>
      </trkpt>
      <trkpt lat="49.97201" lon="2.41521">
        <ele>61.5</ele>
        <time>2022-04-20T14:35:40Z</time>
      </trkpt>
      <trkpt lat="49.972" lon="2.4152">
        <ele>61.5</ele>
        <time>2022-04-20T14:35:41Z</time>
      </trkpt>
      <trkpt lat="49.972" lon="2.41518">
        <ele>61.5</ele>
        <time>2022-04-20T14:35:42Z</time>
      </trkpt>
      <trkpt lat="49.97199" lon="2.41517">
        <ele>61.5</ele>
        <time>2022-04-20T14:35:43Z</time>
      </trkpt>
      <trkpt lat="49.97198" lon="2.41514">
        <ele>61.5</ele>
        <time>2022-04-20T14:35:44Z</time>
      </trkpt>
      <trkpt lat="49.97198" lon="2.41512">
        <ele>61.5</ele>
        <time>2022-04-20T14:35:46Z</time>
      </trkpt>
      <trkpt lat="49.97197" lon="2.4151">
        <ele>61.5</ele>
        <time>2022-04-20T14:35:47Z</time>
      </trkpt>
      <trkpt lat="49.97196" lon="2.41508">
        <ele>61.5</ele>
        <time>2022-04-20T14:35:48Z</time>
      </trkpt>
      <trkpt lat="49.97195" lon="2.41506">
        <ele>61.5</ele>
        <time>2022-04-20T14:35:49Z</time>
      </trkpt>
      <trkpt lat="49.97194" lon="2.41505">
        <ele>61.5</ele>
        <time>2022-04-20T14:35:50Z</time>
      </trkpt>
      <trkpt lat="49.97193" lon="2.41502">
        <ele>61.6</ele>
        <time>2022-04-20T14:35:51Z</time>
      </trkpt>
      <trkpt lat="49.97193" lon="2.41501">
        <ele>61.6</ele>
        <time>2022-04-20T14:35:53Z</time>
      </trkpt>
      <trkpt lat="49.97192" lon="2.415">
        <ele>61.6</ele>
        <time>2022-04-20T14:35:54Z</time>
      </trkpt>
      <trkpt lat="49.97191" lon="2.41497">
        <ele>61.6</ele>
        <time>2022-04-20T14:35:55Z</time>
      </trkpt>
      <trkpt lat="49.97191" lon="2.41496">
        <ele>61.6</ele>
        <time>2022-04-20T14:35:56Z</time>
      </trkpt>
      <trkpt lat="49.9719" lon="2.41495">
        <ele>61.6</ele>
        <time>2022-04-20T14:35:57Z</time>
      </trkpt>
      <trkpt lat="49.9719" lon="2.41493">
        <ele>61.7</ele>
        <time>2022-04-20T14:35:58Z</time>
      </trkpt>
      <trkpt lat="49.97189" lon="2.41491">
        <ele>61.7</ele>
        <time>2022-04-20T14:35:59Z</time>
      </trkpt>
      <trkpt lat="49.97189" lon="2.41489">
        <ele>61.7</ele>
        <time>2022-04-20T14:36:00Z</time>
      </trkpt>
      <trkpt lat="49.97188" lon="2.41487">
        <ele>61.8</ele>
        <time>2022-04-20T14:36:02Z</time>
      </trkpt>
      <trkpt lat="49.97187" lon="2.41485">
        <ele>61.8</ele>
        <time>2022-04-20T14:36:03Z</time>
      </trkpt>
      <trkpt lat="49.97187" lon="2.41484">
        <ele>61.8</ele>
        <time>2022-04-20T14:36:04Z</time>
      </trkpt>
      <trkpt lat="49.97187" lon="2.41482">
        <ele>61.9</ele>
        <time>2022-04-20T14:36:05Z</time>
      </trkpt>
      <trkpt lat="49.97186" lon="2.4148">
        <ele>61.9</ele>
        <time>2022-04-20T14:36:06Z</time>
      </trkpt>
      <trkpt lat="49.97185" lon="2.41478">
        <ele>61.9</ele>
        <time>2022-04-20T14:36:07Z</time>
      </trkpt>
      <trkpt lat="49.97185" lon="2.41475">
        <ele>62</ele>
        <time>2022-04-20T14:36:09Z</time>
      </trkpt>
      <trkpt lat="49.97184" lon="2.41473">
        <ele>62</ele>
        <time>2022-04-20T14:36:10Z</time>
      </trkpt>
      <trkpt lat="49.97184" lon="2.4147">
        <ele>62</ele>
        <time>2022-04-20T14:36:12Z</time>
      </trkpt>
      <trkpt lat="49.97183" lon="2.41468">
        <ele>62.1</ele>
        <time>2022-04-20T14:36:13Z</time>
      </trkpt>
      <trkpt lat="49.97183" lon="2.41466">
        <ele>62.1</ele>
        <time>2022-04-20T14:36:14Z</time>
      </trkpt>
      <trkpt lat="49.97182" lon="2.41464">
        <ele>62.2</ele>
        <time>2022-04-20T14:36:15Z</time>
      </trkpt>
      <trkpt lat="49.97182" lon="2.41463">
        <ele>62.2</ele>
        <time>2022-04-20T14:36:16Z</time>
      </trkpt>
      <trkpt lat="49.97181" lon="2.41459">
        <ele>62.2</ele>
        <time>2022-04-20T14:36:17Z</time>
      </trkpt>
      <trkpt lat="49.97181" lon="2.41458">
        <ele>62.3</ele>
        <time>2022-04-20T14:36:18Z</time>
      </trkpt>
      <trkpt lat="49.97181" lon="2.41457">
        <ele>62.3</ele>
        <time>2022-04-20T14:36:19Z</time>
      </trkpt>
      <trkpt lat="49.9718" lon="2.41454">
        <ele>62.4</ele>
        <time>2022-04-20T14:36:20Z</time>
      </trkpt>
      <trkpt lat="49.9718" lon="2.41452">
        <ele>62.4</ele>
        <time>2022-04-20T14:36:22Z</time>
      </trkpt>
      <trkpt lat="49.9718" lon="2.41451">
        <ele>62.4</ele>
        <time>2022-04-20T14:36:23Z</time>
      </trkpt>
      <trkpt lat="49.97179" lon="2.41449">
        <ele>62.5</ele>
        <time>2022-04-20T14:36:24Z</time>
      </trkpt>
      <trkpt lat="49.97179" lon="2.41448">
        <ele>62.5</ele>
        <time>2022-04-20T14:36:25Z</time>
      </trkpt>
      <trkpt lat="49.97178" lon="2.41446">
        <ele>62.5</ele>
        <time>2022-04-20T14:36:26Z</time>
      </trkpt>
      <trkpt lat="49.97178" lon="2.41443">
        <ele>62.6</ele>
        <time>2022-04-20T14:36:27Z</time>
      </trkpt>
      <trkpt lat="49.97177" lon="2.41442">
        <ele>62.6</ele>
        <time>2022-04-20T14:36:28Z</time>
      </trkpt>
      <trkpt lat="49.97177" lon="2.41441">
        <ele>62.7</ele>
        <time>2022-04-20T14:36:29Z</time>
      </trkpt>
      <trkpt lat="49.97177" lon="2.41439">
        <ele>62.7</ele>
        <time>2022-04-20T14:36:30Z</time>
      </trkpt>
      <trkpt lat="49.97177" lon="2.41437">
        <ele>62.7</ele>
        <time>2022-04-20T14:36:32Z</time>
      </trkpt>
      <trkpt lat="49.97176" lon="2.41435">
        <ele>62.8</ele>
        <time>2022-04-20T14:36:33Z</time>
      </trkpt>
      <trkpt lat="49.97176" lon="2.41434">
        <ele>62.8</ele>
        <time>2022-04-20T14:36:34Z</time>
      </trkpt>
      <trkpt lat="49.97175" lon="2.41432">
        <ele>62.9</ele>
        <time>2022-04-20T14:36:35Z</time>
      </trkpt>
      <trkpt lat="49.97175" lon="2.41431">
        <ele>62.9</ele>
        <time>2022-04-20T14:36:36Z</time>
      </trkpt>
      <trkpt lat="49.97174" lon="2.41428">
        <ele>63</ele>
        <time>2022-04-20T14:36:37Z</time>
      </trkpt>
      <trkpt lat="49.97174" lon="2.41427">
        <ele>63</ele>
        <time>2022-04-20T14:36:38Z</time>
      </trkpt>
      <trkpt lat="49.97174" lon="2.41425">
        <ele>63</ele>
        <time>2022-04-20T14:36:39Z</time>
      </trkpt>
      <trkpt lat="49.97173" lon="2.41423">
        <ele>63.1</ele>
        <time>2022-04-20T14:36:41Z</time>
      </trkpt>
      <trkpt lat="49.97173" lon="2.41422">
        <ele>63.1</ele>
        <time>2022-04-20T14:36:42Z</time>
      </trkpt>
      <trkpt lat="49.97171" lon="2.41419">
        <ele>63.1</ele>
        <time>2022-04-20T14:36:44Z</time>
      </trkpt>
      <trkpt lat="49.9717" lon="2.41417">
        <ele>63.2</ele>
        <time>2022-04-20T14:36:45Z</time>
      </trkpt>
      <trkpt lat="49.9717" lon="2.41416">
        <ele>63.2</ele>
        <time>2022-04-20T14:36:46Z</time>
      </trkpt>
      <trkpt lat="49.97169" lon="2.41415">
        <ele>63.3</ele>
        <time>2022-04-20T14:36:47Z</time>
      </trkpt>
      <trkpt lat="49.97168" lon="2.41412">
        <ele>63.3</ele>
        <time>2022-04-20T14:36:48Z</time>
      </trkpt>
      <trkpt lat="49.97168" lon="2.41411">
        <ele>63.4</ele>
        <time>2022-04-20T14:36:49Z</time>
      </trkpt>
      <trkpt lat="49.97167" lon="2.41409">
        <ele>63.4</ele>
        <time>2022-04-20T14:36:50Z</time>
      </trkpt>
      <trkpt lat="49.97166" lon="2.41408">
        <ele>63.4</ele>
        <time>2022-04-20T14:36:51Z</time>
      </trkpt>
      <trkpt lat="49.97165" lon="2.41406">
        <ele>63.5</ele>
        <time>2022-04-20T14:36:52Z</time>
      </trkpt>
      <trkpt lat="49.97165" lon="2.41404">
        <ele>63.5</ele>
        <time>2022-04-20T14:36:53Z</time>
      </trkpt>
      <trkpt lat="49.97164" lon="2.41402">
        <ele>63.6</ele>
        <time>2022-04-20T14:36:55Z</time>
      </trkpt>
      <trkpt lat="49.97163" lon="2.41401">
        <ele>63.6</ele>
        <time>2022-04-20T14:36:56Z</time>
      </trkpt>
      <trkpt lat="49.97162" lon="2.414">
        <ele>63.7</ele>
        <time>2022-04-20T14:36:57Z</time>
      </trkpt>
      <trkpt lat="49.97161" lon="2.41399">
        <ele>63.7</ele>
        <time>2022-04-20T14:36:58Z</time>
      </trkpt>
      <trkpt lat="49.9716" lon="2.41396">
        <ele>63.8</ele>
        <time>2022-04-20T14:36:59Z</time>
      </trkpt>
      <trkpt lat="49.97159" lon="2.41395">
        <ele>63.9</ele>
        <time>2022-04-20T14:37:00Z</time>
      </trkpt>
      <trkpt lat="49.97159" lon="2.41394">
        <ele>63.9</ele>
        <time>2022-04-20T14:37:01Z</time>
      </trkpt>
      <trkpt lat="49.97158" lon="2.41392">
        <ele>64</ele>
        <time>2022-04-20T14:37:02Z</time>
      </trkpt>
      <trkpt lat="49.97157" lon="2.41391">
        <ele>64</ele>
        <time>2022-04-20T14:37:03Z</time>
      </trkpt>
      <trkpt lat="49.97156" lon="2.4139">
        <ele>64.1</ele>
        <time>2022-04-20T14:37:05Z</time>
      </trkpt>
      <trkpt lat="49.97156" lon="2.41388">
        <ele>64.1</ele>
        <time>2022-04-20T14:37:06Z</time>
      </trkpt>
      <trkpt lat="49.97155" lon="2.41387">
        <ele>64.2</ele>
        <time>2022-04-20T14:37:07Z</time>
      </trkpt>
      <trkpt lat="49.97154" lon="2.41386">
        <ele>64.2</ele>
        <time>2022-04-20T14:37:08Z</time>
      </trkpt>
      <trkpt lat="49.97153" lon="2.41385">
        <ele>64.3</ele>
        <time>2022-04-20T14:37:09Z</time>
      </trkpt>
      <trkpt lat="49.97152" lon="2.41383">
        <ele>64.3</ele>
        <time>2022-04-20T14:37:10Z</time>
      </trkpt>
      <trkpt lat="49.97151" lon="2.41382">
        <ele>64.4</ele>
        <time>2022-04-20T14:37:12Z</time>
      </trkpt>
      <trkpt lat="49.97151" lon="2.41381">
        <ele>64.4</ele>
        <time>2022-04-20T14:37:13Z</time>
      </trkpt>
      <trkpt lat="49.9715" lon="2.41379">
        <ele>64.5</ele>
        <time>2022-04-20T14:37:14Z</time>
      </trkpt>
      <trkpt lat="49.97149" lon="2.41378">
        <ele>64.5</ele>
        <time>2022-04-20T14:37:15Z</time>
      </trkpt>
      <trkpt lat="49.97148" lon="2.41377">
        <ele>64.6</ele>
        <time>2022-04-20T14:37:16Z</time>
      </trkpt>
      <trkpt lat="49.97147" lon="2.41376">
        <ele>64.7</ele>
        <time>2022-04-20T14:37:17Z</time>
      </trkpt>
      <trkpt lat="49.97147" lon="2.41374">
        <ele>64.7</ele>
        <time>2022-04-20T14:37:18Z</time>
      </trkpt>
      <trkpt lat="49.97146" lon="2.41373">
        <ele>64.8</ele>
        <time>2022-04-20T14:37:20Z</time>
      </trkpt>
      <trkpt lat="49.97146" lon="2.41371">
        <ele>64.8</ele>
        <time>2022-04-20T14:37:21Z</time>
      </trkpt>
      <trkpt lat="49.97145" lon="2.4137">
        <ele>64.9</ele>
        <time>2022-04-20T14:37:22Z</time>
      </trkpt>
      <trkpt lat="49.97144" lon="2.41367">
        <ele>65</ele>
        <time>2022-04-20T14:37:23Z</time>
      </trkpt>
      <trkpt lat="49.97143" lon="2.41366">
        <ele>65</ele>
        <time>2022-04-20T14:37:24Z</time>
      </trkpt>
      <trkpt lat="49.97143" lon="2.41365">
        <ele>65.1</ele>
        <time>2022-04-20T14:37:25Z</time>
      </trkpt>
      <trkpt lat="49.97142" lon="2.41363">
        <ele>65.1</ele>
        <time>2022-04-20T14:37:26Z</time>
      </trkpt>
      <trkpt lat="49.97141" lon="2.41362">
        <ele>65.2</ele>
        <time>2022-04-20T14:37:28Z</time>
      </trkpt>
      <trkpt lat="49.97141" lon="2.41361">
        <ele>65.2</ele>
        <time>2022-04-20T14:37:29Z</time>
      </trkpt>
      <trkpt lat="49.97139" lon="2.41358">
        <ele>65.3</ele>
        <time>2022-04-20T14:37:30Z</time>
      </trkpt>
      <trkpt lat="49.97139" lon="2.41357">
        <ele>65.4</ele>
        <time>2022-04-20T14:37:31Z</time>
      </trkpt>
      <trkpt lat="49.97138" lon="2.41356">
        <ele>65.4</ele>
        <time>2022-04-20T14:37:32Z</time>
      </trkpt>
      <trkpt lat="49.97138" lon="2.41355">
        <ele>65.5</ele>
        <time>2022-04-20T14:37:33Z</time>
      </trkpt>
      <trkpt lat="49.97137" lon="2.41353">
        <ele>65.5</ele>
        <time>2022-04-20T14:37:34Z</time>
      </trkpt>
      <trkpt lat="49.97136" lon="2.41352">
        <ele>65.6</ele>
        <time>2022-04-20T14:37:36Z</time>
      </trkpt>
      <trkpt lat="49.97135" lon="2.4135">
        <ele>65.6</ele>
        <time>2022-04-20T14:37:37Z</time>
      </trkpt>
      <trkpt lat="49.97135" lon="2.41349">
        <ele>65.7</ele>
        <time>2022-04-20T14:37:38Z</time>
      </trkpt>
      <trkpt lat="49.97134" lon="2.41347">
        <ele>65.7</ele>
        <time>2022-04-20T14:37:39Z</time>
      </trkpt>
      <trkpt lat="49.97133" lon="2.41345">
        <ele>65.8</ele>
        <time>2022-04-20T14:37:40Z</time>
      </trkpt>
      <trkpt lat="49.97132" lon="2.41344">
        <ele>65.9</ele>
        <time>2022-04-20T14:37:41Z</time>
      </trkpt>
      <trkpt lat="49.97132" lon="2.41343">
        <ele>65.9</ele>
        <time>2022-04-20T14:37:42Z</time>
      </trkpt>
      <trkpt lat="49.97131" lon="2.41341">
        <ele>66</ele>
        <time>2022-04-20T14:37:44Z</time>
      </trkpt>
      <trkpt lat="49.9713" lon="2.4134">
        <ele>66</ele>
        <time>2022-04-20T14:37:45Z</time>
      </trkpt>
      <trkpt lat="49.97129" lon="2.41339">
        <ele>66.1</ele>
        <time>2022-04-20T14:37:46Z</time>
      </trkpt>
      <trkpt lat="49.97129" lon="2.41338">
        <ele>66.1</ele>
        <time>2022-04-20T14:37:47Z</time>
      </trkpt>
      <trkpt lat="49.97128" lon="2.41336">
        <ele>66.2</ele>
        <time>2022-04-20T14:37:48Z</time>
      </trkpt>
      <trkpt lat="49.97127" lon="2.41335">
        <ele>66.3</ele>
        <time>2022-04-20T14:37:50Z</time>
      </trkpt>
      <trkpt lat="49.97126" lon="2.41333">
        <ele>66.3</ele>
        <time>2022-04-20T14:37:51Z</time>
      </trkpt>
      <trkpt lat="49.97126" lon="2.41332">
        <ele>66.4</ele>
        <time>2022-04-20T14:37:52Z</time>
      </trkpt>
      <trkpt lat="49.97125" lon="2.4133">
        <ele>66.4</ele>
        <time>2022-04-20T14:37:53Z</time>
      </trkpt>
      <trkpt lat="49.97124" lon="2.41328">
        <ele>66.5</ele>
        <time>2022-04-20T14:37:54Z</time>
      </trkpt>
      <trkpt lat="49.97123" lon="2.41327">
        <ele>66.6</ele>
        <time>2022-04-20T14:37:55Z</time>
      </trkpt>
      <trkpt lat="49.97123" lon="2.41326">
        <ele>66.6</ele>
        <time>2022-04-20T14:37:56Z</time>
      </trkpt>
      <trkpt lat="49.97122" lon="2.41324">
        <ele>66.7</ele>
        <time>2022-04-20T14:37:58Z</time>
      </trkpt>
      <trkpt lat="49.97122" lon="2.41322">
        <ele>66.8</ele>
        <time>2022-04-20T14:37:59Z</time>
      </trkpt>
      <trkpt lat="49.97121" lon="2.41321">
        <ele>66.8</ele>
        <time>2022-04-20T14:38:00Z</time>
      </trkpt>
      <trkpt lat="49.9712" lon="2.41318">
        <ele>66.9</ele>
        <time>2022-04-20T14:38:01Z</time>
      </trkpt>
      <trkpt lat="49.97119" lon="2.41317">
        <ele>67</ele>
        <time>2022-04-20T14:38:02Z</time>
      </trkpt>
      <trkpt lat="49.97119" lon="2.41316">
        <ele>67</ele>
        <time>2022-04-20T14:38:03Z</time>
      </trkpt>
      <trkpt lat="49.97118" lon="2.41314">
        <ele>67.1</ele>
        <time>2022-04-20T14:38:05Z</time>
      </trkpt>
      <trkpt lat="49.97118" lon="2.41313">
        <ele>67.2</ele>
        <time>2022-04-20T14:38:06Z</time>
      </trkpt>
      <trkpt lat="49.97117" lon="2.41311">
        <ele>67.2</ele>
        <time>2022-04-20T14:38:07Z</time>
      </trkpt>
      <trkpt lat="49.97116" lon="2.4131">
        <ele>67.3</ele>
        <time>2022-04-20T14:38:08Z</time>
      </trkpt>
      <trkpt lat="49.97116" lon="2.41308">
        <ele>67.4</ele>
        <time>2022-04-20T14:38:09Z</time>
      </trkpt>
      <trkpt lat="49.97115" lon="2.41307">
        <ele>67.5</ele>
        <time>2022-04-20T14:38:10Z</time>
      </trkpt>
      <trkpt lat="49.97114" lon="2.41305">
        <ele>67.5</ele>
        <time>2022-04-20T14:38:12Z</time>
      </trkpt>
      <trkpt lat="49.97114" lon="2.41304">
        <ele>67.6</ele>
        <time>2022-04-20T14:38:13Z</time>
      </trkpt>
      <trkpt lat="49.97113" lon="2.41303">
        <ele>67.7</ele>
        <time>2022-04-20T14:38:14Z</time>
      </trkpt>
      <trkpt lat="49.97112" lon="2.41301">
        <ele>67.8</ele>
        <time>2022-04-20T14:38:15Z</time>
      </trkpt>
      <trkpt lat="49.97112" lon="2.413">
        <ele>67.8</ele>
        <time>2022-04-20T14:38:16Z</time>
      </trkpt>
      <trkpt lat="49.97111" lon="2.41299">
        <ele>67.9</ele>
        <time>2022-04-20T14:38:18Z</time>
      </trkpt>
      <trkpt lat="49.97111" lon="2.41297">
        <ele>68</ele>
        <time>2022-04-20T14:38:19Z</time>
      </trkpt>
      <trkpt lat="49.9711" lon="2.41296">
        <ele>68</ele>
        <time>2022-04-20T14:38:20Z</time>
      </trkpt>
      <trkpt lat="49.97109" lon="2.41295">
        <ele>68.1</ele>
        <time>2022-04-20T14:38:21Z</time>
      </trkpt>
      <trkpt lat="49.97109" lon="2.41293">
        <ele>68.2</ele>
        <time>2022-04-20T14:38:23Z</time>
      </trkpt>
      <trkpt lat="49.97108" lon="2.41292">
        <ele>68.2</ele>
        <time>2022-04-20T14:38:24Z</time>
      </trkpt>
      <trkpt lat="49.97108" lon="2.41291">
        <ele>68.3</ele>
        <time>2022-04-20T14:38:25Z</time>
      </trkpt>
      <trkpt lat="49.97107" lon="2.41288">
        <ele>68.4</ele>
        <time>2022-04-20T14:38:27Z</time>
      </trkpt>
      <trkpt lat="49.97106" lon="2.41286">
        <ele>68.5</ele>
        <time>2022-04-20T14:38:28Z</time>
      </trkpt>
      <trkpt lat="49.97105" lon="2.41285">
        <ele>68.6</ele>
        <time>2022-04-20T14:38:29Z</time>
      </trkpt>
      <trkpt lat="49.97105" lon="2.41284">
        <ele>68.6</ele>
        <time>2022-04-20T14:38:30Z</time>
      </trkpt>
      <trkpt lat="49.97104" lon="2.41284">
        <ele>68.6</ele>
        <time>2022-04-20T14:38:31Z</time>
      </trkpt>
      <trkpt lat="49.97104" lon="2.41283">
        <ele>68.7</ele>
        <time>2022-04-20T14:38:33Z</time>
      </trkpt>
      <trkpt lat="49.97103" lon="2.41282">
        <ele>68.7</ele>
        <time>2022-04-20T14:38:34Z</time>
      </trkpt>
      <trkpt lat="49.97102" lon="2.41281">
        <ele>68.8</ele>
        <time>2022-04-20T14:38:35Z</time>
      </trkpt>
      <trkpt lat="49.97102" lon="2.41279">
        <ele>68.9</ele>
        <time>2022-04-20T14:38:36Z</time>
      </trkpt>
      <trkpt lat="49.971" lon="2.41276">
        <ele>69</ele>
        <time>2022-04-20T14:38:37Z</time>
      </trkpt>
      <trkpt lat="49.971" lon="2.41275">
        <ele>69</ele>
        <time>2022-04-20T14:38:39Z</time>
      </trkpt>
      <trkpt lat="49.97099" lon="2.41274">
        <ele>69.1</ele>
        <time>2022-04-20T14:38:40Z</time>
      </trkpt>
      <trkpt lat="49.97099" lon="2.41273">
        <ele>69.2</ele>
        <time>2022-04-20T14:38:41Z</time>
      </trkpt>
      <trkpt lat="49.97098" lon="2.41272">
        <ele>69.2</ele>
        <time>2022-04-20T14:38:42Z</time>
      </trkpt>
      <trkpt lat="49.97097" lon="2.41271">
        <ele>69.3</ele>
        <time>2022-04-20T14:38:43Z</time>
      </trkpt>
      <trkpt lat="49.97096" lon="2.4127">
        <ele>69.4</ele>
        <time>2022-04-20T14:38:44Z</time>
      </trkpt>
      <trkpt lat="49.97096" lon="2.41268">
        <ele>69.4</ele>
        <time>2022-04-20T14:38:45Z</time>
      </trkpt>
      <trkpt lat="49.97095" lon="2.41266">
        <ele>69.5</ele>
        <time>2022-04-20T14:38:47Z</time>
      </trkpt>
      <trkpt lat="49.97093" lon="2.41264">
        <ele>69.7</ele>
        <time>2022-04-20T14:38:48Z</time>
      </trkpt>
      <trkpt lat="49.97093" lon="2.41263">
        <ele>69.7</ele>
        <time>2022-04-20T14:38:49Z</time>
      </trkpt>
      <trkpt lat="49.97092" lon="2.41262">
        <ele>69.8</ele>
        <time>2022-04-20T14:38:50Z</time>
      </trkpt>
      <trkpt lat="49.97091" lon="2.41259">
        <ele>69.9</ele>
        <time>2022-04-20T14:38:51Z</time>
      </trkpt>
      <trkpt lat="49.97091" lon="2.41258">
        <ele>69.9</ele>
        <time>2022-04-20T14:38:52Z</time>
      </trkpt>
      <trkpt lat="49.9709" lon="2.41257">
        <ele>70</ele>
        <time>2022-04-20T14:38:53Z</time>
      </trkpt>
      <trkpt lat="49.97089" lon="2.41254">
        <ele>70.1</ele>
        <time>2022-04-20T14:38:54Z</time>
      </trkpt>
      <trkpt lat="49.97089" lon="2.41253">
        <ele>70.2</ele>
        <time>2022-04-20T14:38:56Z</time>
      </trkpt>
      <trkpt lat="49.97088" lon="2.41252">
        <ele>70.2</ele>
        <time>2022-04-20T14:38:57Z</time>
      </trkpt>
      <trkpt lat="49.97087" lon="2.41251">
        <ele>70.3</ele>
        <time>2022-04-20T14:38:58Z</time>
      </trkpt>
      <trkpt lat="49.97087" lon="2.41249">
        <ele>70.4</ele>
        <time>2022-04-20T14:38:59Z</time>
      </trkpt>
      <trkpt lat="49.97086" lon="2.41247">
        <ele>70.5</ele>
        <time>2022-04-20T14:39:00Z</time>
      </trkpt>
      <trkpt lat="49.97085" lon="2.41245">
        <ele>70.6</ele>
        <time>2022-04-20T14:39:02Z</time>
      </trkpt>
      <trkpt lat="49.97085" lon="2.41244">
        <ele>70.7</ele>
        <time>2022-04-20T14:39:03Z</time>
      </trkpt>
      <trkpt lat="49.97085" lon="2.41244">
        <ele>70.7</ele>
        <time>2022-04-20T14:39:04Z</time>
      </trkpt>
      <trkpt lat="49.97085" lon="2.41243">
        <ele>70.7</ele>
        <time>2022-04-20T14:39:05Z</time>
      </trkpt>
      <trkpt lat="49.97084" lon="2.41242">
        <ele>70.8</ele>
        <time>2022-04-20T14:39:06Z</time>
      </trkpt>
      <trkpt lat="49.97083" lon="2.4124">
        <ele>70.9</ele>
        <time>2022-04-20T14:39:08Z</time>
      </trkpt>
      <trkpt lat="49.97083" lon="2.41239">
        <ele>71</ele>
        <time>2022-04-20T14:39:09Z</time>
      </trkpt>
      <trkpt lat="49.97082" lon="2.41237">
        <ele>71.1</ele>
        <time>2022-04-20T14:39:10Z</time>
      </trkpt>
      <trkpt lat="49.97081" lon="2.41235">
        <ele>71.2</ele>
        <time>2022-04-20T14:39:11Z</time>
      </trkpt>
      <trkpt lat="49.9708" lon="2.41232">
        <ele>71.4</ele>
        <time>2022-04-20T14:39:13Z</time>
      </trkpt>
      <trkpt lat="49.9708" lon="2.41232">
        <ele>71.4</ele>
        <time>2022-04-20T14:39:14Z</time>
      </trkpt>
      <trkpt lat="49.97079" lon="2.41231">
        <ele>71.5</ele>
        <time>2022-04-20T14:39:15Z</time>
      </trkpt>
      <trkpt lat="49.97078" lon="2.41228">
        <ele>71.6</ele>
        <time>2022-04-20T14:39:16Z</time>
      </trkpt>
      <trkpt lat="49.97077" lon="2.41227">
        <ele>71.7</ele>
        <time>2022-04-20T14:39:17Z</time>
      </trkpt>
      <trkpt lat="49.97077" lon="2.41226">
        <ele>71.8</ele>
        <time>2022-04-20T14:39:18Z</time>
      </trkpt>
      <trkpt lat="49.97076" lon="2.41225">
        <ele>71.8</ele>
        <time>2022-04-20T14:39:20Z</time>
      </trkpt>
      <trkpt lat="49.97076" lon="2.41225">
        <ele>71.9</ele>
        <time>2022-04-20T14:39:21Z</time>
      </trkpt>
      <trkpt lat="49.97076" lon="2.41223">
        <ele>71.9</ele>
        <time>2022-04-20T14:39:22Z</time>
      </trkpt>
      <trkpt lat="49.97075" lon="2.41222">
        <ele>72</ele>
        <time>2022-04-20T14:39:23Z</time>
      </trkpt>
      <trkpt lat="49.97074" lon="2.41221">
        <ele>72.1</ele>
        <time>2022-04-20T14:39:25Z</time>
      </trkpt>
      <trkpt lat="49.97074" lon="2.41219">
        <ele>72.2</ele>
        <time>2022-04-20T14:39:26Z</time>
      </trkpt>
      <trkpt lat="49.97073" lon="2.41218">
        <ele>72.3</ele>
        <time>2022-04-20T14:39:28Z</time>
      </trkpt>
      <trkpt lat="49.97073" lon="2.41217">
        <ele>72.3</ele>
        <time>2022-04-20T14:39:29Z</time>
      </trkpt>
      <trkpt lat="49.97072" lon="2.41216">
        <ele>72.4</ele>
        <time>2022-04-20T14:39:30Z</time>
      </trkpt>
      <trkpt lat="49.97072" lon="2.41215">
        <ele>72.4</ele>
        <time>2022-04-20T14:39:31Z</time>
      </trkpt>
      <trkpt lat="49.97072" lon="2.41215">
        <ele>72.5</ele>
        <time>2022-04-20T14:39:32Z</time>
      </trkpt>
      <trkpt lat="49.97071" lon="2.41214">
        <ele>72.5</ele>
        <time>2022-04-20T14:39:33Z</time>
      </trkpt>
      <trkpt lat="49.97071" lon="2.41213">
        <ele>72.6</ele>
        <time>2022-04-20T14:39:34Z</time>
      </trkpt>
      <trkpt lat="49.9707" lon="2.41211">
        <ele>72.7</ele>
        <time>2022-04-20T14:39:36Z</time>
      </trkpt>
      <trkpt lat="49.97069" lon="2.4121">
        <ele>72.8</ele>
        <time>2022-04-20T14:39:37Z</time>
      </trkpt>
      <trkpt lat="49.97069" lon="2.41209">
        <ele>72.9</ele>
        <time>2022-04-20T14:39:38Z</time>
      </trkpt>
      <trkpt lat="49.97068" lon="2.41207">
        <ele>73</ele>
        <time>2022-04-20T14:39:40Z</time>
      </trkpt>
      <trkpt lat="49.97067" lon="2.41206">
        <ele>73.1</ele>
        <time>2022-04-20T14:39:41Z</time>
      </trkpt>
      <trkpt lat="49.97067" lon="2.41205">
        <ele>73.1</ele>
        <time>2022-04-20T14:39:42Z</time>
      </trkpt>
      <trkpt lat="49.97066" lon="2.41204">
        <ele>73.2</ele>
        <time>2022-04-20T14:39:43Z</time>
      </trkpt>
      <trkpt lat="49.97066" lon="2.41203">
        <ele>73.3</ele>
        <time>2022-04-20T14:39:45Z</time>
      </trkpt>
      <trkpt lat="49.97066" lon="2.41202">
        <ele>73.4</ele>
        <time>2022-04-20T14:39:46Z</time>
      </trkpt>
      <trkpt lat="49.97065" lon="2.412">
        <ele>73.5</ele>
        <time>2022-04-20T14:39:47Z</time>
      </trkpt>
      <trkpt lat="49.97065" lon="2.41198">
        <ele>73.6</ele>
        <time>2022-04-20T14:39:49Z</time>
      </trkpt>
      <trkpt lat="49.97064" lon="2.41197">
        <ele>73.7</ele>
        <time>2022-04-20T14:39:50Z</time>
      </trkpt>
      <trkpt lat="49.97064" lon="2.41196">
        <ele>73.7</ele>
        <time>2022-04-20T14:39:51Z</time>
      </trkpt>
      <trkpt lat="49.97064" lon="2.41195">
        <ele>73.8</ele>
        <time>2022-04-20T14:39:52Z</time>
      </trkpt>
      <trkpt lat="49.97063" lon="2.41193">
        <ele>73.9</ele>
        <time>2022-04-20T14:39:53Z</time>
      </trkpt>
      <trkpt lat="49.97063" lon="2.41192">
        <ele>73.9</ele>
        <time>2022-04-20T14:39:54Z</time>
      </trkpt>
      <trkpt lat="49.97063" lon="2.41191">
        <ele>74</ele>
        <time>2022-04-20T14:39:55Z</time>
      </trkpt>
      <trkpt lat="49.97062" lon="2.41189">
        <ele>74.1</ele>
        <time>2022-04-20T14:39:56Z</time>
      </trkpt>
      <trkpt lat="49.97062" lon="2.41186">
        <ele>74.3</ele>
        <time>2022-04-20T14:39:57Z</time>
      </trkpt>
      <trkpt lat="49.97061" lon="2.41185">
        <ele>74.4</ele>
        <time>2022-04-20T14:39:59Z</time>
      </trkpt>
      <trkpt lat="49.97061" lon="2.41183">
        <ele>74.4</ele>
        <time>2022-04-20T14:40:00Z</time>
      </trkpt>
      <trkpt lat="49.9706" lon="2.41182">
        <ele>74.6</ele>
        <time>2022-04-20T14:40:01Z</time>
      </trkpt>
      <trkpt lat="49.9706" lon="2.4118">
        <ele>74.7</ele>
        <time>2022-04-20T14:40:02Z</time>
      </trkpt>
      <trkpt lat="49.97058" lon="2.41177">
        <ele>74.9</ele>
        <time>2022-04-20T14:40:04Z</time>
      </trkpt>
      <trkpt lat="49.97058" lon="2.41176">
        <ele>74.9</ele>
        <time>2022-04-20T14:40:05Z</time>
      </trkpt>
      <trkpt lat="49.97058" lon="2.41175">
        <ele>75</ele>
        <time>2022-04-20T14:40:06Z</time>
      </trkpt>
      <trkpt lat="49.97057" lon="2.41173">
        <ele>75.1</ele>
        <time>2022-04-20T14:40:07Z</time>
      </trkpt>
      <trkpt lat="49.97055" lon="2.41171">
        <ele>75.3</ele>
        <time>2022-04-20T14:40:08Z</time>
      </trkpt>
      <trkpt lat="49.97054" lon="2.41169">
        <ele>75.4</ele>
        <time>2022-04-20T14:40:09Z</time>
      </trkpt>
      <trkpt lat="49.97053" lon="2.41168">
        <ele>75.5</ele>
        <time>2022-04-20T14:40:11Z</time>
      </trkpt>
      <trkpt lat="49.97052" lon="2.41166">
        <ele>75.6</ele>
        <time>2022-04-20T14:40:12Z</time>
      </trkpt>
      <trkpt lat="49.97052" lon="2.41165">
        <ele>75.8</ele>
        <time>2022-04-20T14:40:13Z</time>
      </trkpt>
      <trkpt lat="49.97051" lon="2.41163">
        <ele>75.9</ele>
        <time>2022-04-20T14:40:15Z</time>
      </trkpt>
      <trkpt lat="49.97051" lon="2.41163">
        <ele>75.9</ele>
        <time>2022-04-20T14:40:16Z</time>
      </trkpt>
      <trkpt lat="49.97051" lon="2.41161">
        <ele>76</ele>
        <time>2022-04-20T14:40:18Z</time>
      </trkpt>
      <trkpt lat="49.9705" lon="2.4116">
        <ele>76.1</ele>
        <time>2022-04-20T14:40:19Z</time>
      </trkpt>
      <trkpt lat="49.9705" lon="2.41158">
        <ele>76.2</ele>
        <time>2022-04-20T14:40:20Z</time>
      </trkpt>
      <trkpt lat="49.97049" lon="2.41157">
        <ele>76.3</ele>
        <time>2022-04-20T14:40:21Z</time>
      </trkpt>
      <trkpt lat="49.97049" lon="2.41155">
        <ele>76.4</ele>
        <time>2022-04-20T14:40:23Z</time>
      </trkpt>
      <trkpt lat="49.97048" lon="2.41154">
        <ele>76.5</ele>
        <time>2022-04-20T14:40:24Z</time>
      </trkpt>
      <trkpt lat="49.97047" lon="2.41152">
        <ele>76.6</ele>
        <time>2022-04-20T14:40:25Z</time>
      </trkpt>
      <trkpt lat="49.97046" lon="2.4115">
        <ele>76.7</ele>
        <time>2022-04-20T14:40:27Z</time>
      </trkpt>
      <trkpt lat="49.97046" lon="2.41148">
        <ele>76.9</ele>
        <time>2022-04-20T14:40:28Z</time>
      </trkpt>
      <trkpt lat="49.97045" lon="2.41145">
        <ele>77</ele>
        <time>2022-04-20T14:40:29Z</time>
      </trkpt>
      <trkpt lat="49.97044" lon="2.41143">
        <ele>77.2</ele>
        <time>2022-04-20T14:40:31Z</time>
      </trkpt>
      <trkpt lat="49.97044" lon="2.41141">
        <ele>77.3</ele>
        <time>2022-04-20T14:40:32Z</time>
      </trkpt>
      <trkpt lat="49.97044" lon="2.4114">
        <ele>77.4</ele>
        <time>2022-04-20T14:40:33Z</time>
      </trkpt>
      <trkpt lat="49.97045" lon="2.4114">
        <ele>77.4</ele>
        <time>2022-04-20T14:40:35Z</time>
      </trkpt>
      <trkpt lat="49.97045" lon="2.4114">
        <ele>77.5</ele>
        <time>2022-04-20T14:40:36Z</time>
      </trkpt>
      <trkpt lat="49.97045" lon="2.41139">
        <ele>77.5</ele>
        <time>2022-04-20T14:40:37Z</time>
      </trkpt>
      <trkpt lat="49.97045" lon="2.41139">
        <ele>77.5</ele>
        <time>2022-04-20T14:40:38Z</time>
      </trkpt>
      <trkpt lat="49.97045" lon="2.41138">
        <ele>77.6</ele>
        <time>2022-04-20T14:40:39Z</time>
      </trkpt>
      <trkpt lat="49.97045" lon="2.41137">
        <ele>77.6</ele>
        <time>2022-04-20T14:40:41Z</time>
      </trkpt>
      <trkpt lat="49.97044" lon="2.41137">
        <ele>77.7</ele>
        <time>2022-04-20T14:40:42Z</time>
      </trkpt>
      <trkpt lat="49.97044" lon="2.41136">
        <ele>77.7</ele>
        <time>2022-04-20T14:40:43Z</time>
      </trkpt>
      <trkpt lat="49.97044" lon="2.41135">
        <ele>77.8</ele>
        <time>2022-04-20T14:40:44Z</time>
      </trkpt>
      <trkpt lat="49.97043" lon="2.41134">
        <ele>77.9</ele>
        <time>2022-04-20T14:40:45Z</time>
      </trkpt>
      <trkpt lat="49.97043" lon="2.41133">
        <ele>77.9</ele>
        <time>2022-04-20T14:40:47Z</time>
      </trkpt>
      <trkpt lat="49.97043" lon="2.41132">
        <ele>78</ele>
        <time>2022-04-20T14:40:48Z</time>
      </trkpt>
      <trkpt lat="49.97043" lon="2.41131">
        <ele>78.1</ele>
        <time>2022-04-20T14:40:49Z</time>
      </trkpt>
      <trkpt lat="49.97043" lon="2.4113">
        <ele>78.2</ele>
        <time>2022-04-20T14:40:50Z</time>
      </trkpt>
      <trkpt lat="49.97043" lon="2.41128">
        <ele>78.2</ele>
        <time>2022-04-20T14:40:51Z</time>
      </trkpt>
      <trkpt lat="49.97043" lon="2.41127">
        <ele>78.3</ele>
        <time>2022-04-20T14:40:53Z</time>
      </trkpt>
      <trkpt lat="49.97043" lon="2.41128">
        <ele>78.3</ele>
        <time>2022-04-20T14:40:54Z</time>
      </trkpt>
      <trkpt lat="49.97043" lon="2.41128">
        <ele>78.3</ele>
        <time>2022-04-20T14:40:56Z</time>
      </trkpt>
      <trkpt lat="49.97042" lon="2.41128">
        <ele>78.4</ele>
        <time>2022-04-20T14:40:57Z</time>
      </trkpt>
      <trkpt lat="49.97042" lon="2.41128">
        <ele>78.4</ele>
        <time>2022-04-20T14:40:58Z</time>
      </trkpt>
      <trkpt lat="49.97041" lon="2.41128">
        <ele>78.4</ele>
        <time>2022-04-20T14:40:59Z</time>
      </trkpt>
      <trkpt lat="49.97041" lon="2.41128">
        <ele>78.5</ele>
        <time>2022-04-20T14:41:00Z</time>
      </trkpt>
      <trkpt lat="49.97041" lon="2.41129">
        <ele>78.5</ele>
        <time>2022-04-20T14:41:01Z</time>
      </trkpt>
      <trkpt lat="49.97041" lon="2.41129">
        <ele>78.5</ele>
        <time>2022-04-20T14:41:02Z</time>
      </trkpt>
      <trkpt lat="49.97041" lon="2.41129">
        <ele>78.5</ele>
        <time>2022-04-20T14:41:03Z</time>
      </trkpt>
      <trkpt lat="49.97041" lon="2.41129">
        <ele>78.5</ele>
        <time>2022-04-20T14:41:04Z</time>
      </trkpt>
      <trkpt lat="49.97041" lon="2.41129">
        <ele>78.5</ele>
        <time>2022-04-20T14:41:05Z</time>
      </trkpt>
      <trkpt lat="49.97041" lon="2.41129">
        <ele>78.5</ele>
        <time>2022-04-20T14:41:06Z</time>
      </trkpt>
      <trkpt lat="49.97041" lon="2.41129">
        <ele>78.5</ele>
        <time>2022-04-20T14:41:07Z</time>
      </trkpt>
      <trkpt lat="49.97041" lon="2.41129">
        <ele>78.5</ele>
        <time>2022-04-20T14:41:08Z</time>
      </trkpt>
      <trkpt lat="49.97041" lon="2.41129">
        <ele>78.5</ele>
        <time>2022-04-20T14:41:09Z</time>
      </trkpt>
      <trkpt lat="49.97041" lon="2.41129">
        <ele>78.5</ele>
        <time>2022-04-20T14:41:10Z</time>
      </trkpt>
      <trkpt lat="49.97041" lon="2.41129">
        <ele>78.5</ele>
        <time>2022-04-20T14:41:11Z</time>
      </trkpt>
      <trkpt lat="49.97041" lon="2.41129">
        <ele>78.5</ele>
        <time>2022-04-20T14:41:12Z</time>
      </trkpt>
      <trkpt lat="49.97041" lon="2.41129">
        <ele>78.5</ele>
        <time>2022-04-20T14:41:13Z</time>
      </trkpt>
      <trkpt lat="49.97041" lon="2.41129">
        <ele>78.5</ele>
        <time>2022-04-20T14:41:14Z</time>
      </trkpt>
      <trkpt lat="49.97041" lon="2.41129">
        <ele>78.5</ele>
        <time>2022-04-20T14:41:15Z</time>
      </trkpt>
      <trkpt lat="49.97041" lon="2.4113">
        <ele>78.6</ele>
        <time>2022-04-20T14:41:16Z</time>
      </trkpt>
      <trkpt lat="49.97041" lon="2.4113">
        <ele>78.6</ele>
        <time>2022-04-20T14:41:17Z</time>
      </trkpt>
      <trkpt lat="49.97041" lon="2.4113">
        <ele>78.6</ele>
        <time>2022-04-20T14:41:18Z</time>
      </trkpt>
      <trkpt lat="49.97041" lon="2.4113">
        <ele>78.6</ele>
        <time>2022-04-20T14:41:19Z</time>
      </trkpt>
      <trkpt lat="49.97041" lon="2.4113">
        <ele>78.6</ele>
        <time>2022-04-20T14:41:20Z</time>
      </trkpt>
      <trkpt lat="49.97041" lon="2.4113">
        <ele>78.6</ele>
        <time>2022-04-20T14:41:21Z</time>
      </trkpt>
      <trkpt lat="49.97041" lon="2.4113">
        <ele>78.6</ele>
        <time>2022-04-20T14:41:22Z</time>
      </trkpt>
      <trkpt lat="49.97041" lon="2.4113">
        <ele>78.6</ele>
        <time>2022-04-20T14:41:23Z</time>
      </trkpt>
      <trkpt lat="49.97041" lon="2.4113">
        <ele>78.6</ele>
        <time>2022-04-20T14:41:24Z</time>
      </trkpt>
      <trkpt lat="49.97041" lon="2.4113">
        <ele>78.6</ele>
        <time>2022-04-20T14:41:25Z</time>
      </trkpt>
      <trkpt lat="49.97041" lon="2.4113">
        <ele>78.6</ele>
        <time>2022-04-20T14:41:26Z</time>
      </trkpt>
      <trkpt lat="49.97041" lon="2.4113">
        <ele>78.6</ele>
        <time>2022-04-20T14:41:27Z</time>
      </trkpt>
      <trkpt lat="49.97041" lon="2.4113">
        <ele>78.6</ele>
        <time>2022-04-20T14:41:28Z</time>
      </trkpt>
      <trkpt lat="49.97041" lon="2.4113">
        <ele>78.6</ele>
        <time>2022-04-20T14:41:29Z</time>
      </trkpt>
      <trkpt lat="49.97041" lon="2.4113">
        <ele>78.6</ele>
        <time>2022-04-20T14:41:30Z</time>
      </trkpt>
      <trkpt lat="49.97041" lon="2.4113">
        <ele>78.6</ele>
        <time>2022-04-20T14:41:31Z</time>
      </trkpt>
      <trkpt lat="49.97041" lon="2.4113">
        <ele>78.6</ele>
        <time>2022-04-20T14:41:32Z</time>
      </trkpt>
      <trkpt lat="49.97041" lon="2.4113">
        <ele>78.6</ele>
        <time>2022-04-20T14:41:33Z</time>
      </trkpt>
      <trkpt lat="49.97041" lon="2.4113">
        <ele>78.6</ele>
        <time>2022-04-20T14:41:34Z</time>
      </trkpt>
      <trkpt lat="49.97041" lon="2.4113">
        <ele>78.6</ele>
        <time>2022-04-20T14:41:35Z</time>
      </trkpt>
      <trkpt lat="49.97041" lon="2.4113">
        <ele>78.6</ele>
        <time>2022-04-20T14:41:36Z</time>
      </trkpt>
      <trkpt lat="49.97041" lon="2.4113">
        <ele>78.6</ele>
        <time>2022-04-20T14:41:37Z</time>
      </trkpt>
      <trkpt lat="49.97041" lon="2.4113">
        <ele>78.6</ele>
        <time>2022-04-20T14:41:38Z</time>
      </trkpt>
      <trkpt lat="49.97041" lon="2.4113">
        <ele>78.6</ele>
        <time>2022-04-20T14:41:39Z</time>
      </trkpt>
      <trkpt lat="49.97041" lon="2.4113">
        <ele>78.6</ele>
        <time>2022-04-20T14:41:40Z</time>
      </trkpt>
      <trkpt lat="49.97041" lon="2.4113">
        <ele>78.6</ele>
        <time>2022-04-20T14:41:41Z</time>
      </trkpt>
      <trkpt lat="49.97041" lon="2.4113">
        <ele>78.6</ele>
        <time>2022-04-20T14:41:42Z</time>
      </trkpt>
      <trkpt lat="49.97041" lon="2.4113">
        <ele>78.6</ele>
        <time>2022-04-20T14:41:43Z</time>
      </trkpt>
      <trkpt lat="49.97041" lon="2.4113">
        <ele>78.6</ele>
        <time>2022-04-20T14:41:44Z</time>
      </trkpt>
      <trkpt lat="49.97041" lon="2.4113">
        <ele>78.6</ele>
        <time>2022-04-20T14:41:45Z</time>
      </trkpt>
      <trkpt lat="49.97041" lon="2.4113">
        <ele>78.6</ele>
        <time>2022-04-20T14:41:46Z</time>
      </trkpt>
      <trkpt lat="49.97041" lon="2.4113">
        <ele>78.6</ele>
        <time>2022-04-20T14:41:47Z</time>
      </trkpt>
      <trkpt lat="49.97043" lon="2.41132">
        <ele>78.8</ele>
        <time>2022-04-20T14:41:48Z</time>
      </trkpt>
      <trkpt lat="49.97043" lon="2.41132">
        <ele>78.8</ele>
        <time>2022-04-20T14:41:49Z</time>
      </trkpt>
      <trkpt lat="49.97043" lon="2.41131">
        <ele>78.8</ele>
        <time>2022-04-20T14:41:50Z</time>
      </trkpt>
      <trkpt lat="49.97044" lon="2.41132">
        <ele>78.9</ele>
        <time>2022-04-20T14:41:51Z</time>
      </trkpt>
      <trkpt lat="49.97045" lon="2.41132">
        <ele>78.9</ele>
        <time>2022-04-20T14:41:53Z</time>
      </trkpt>
      <trkpt lat="49.97045" lon="2.41133">
        <ele>79</ele>
        <time>2022-04-20T14:41:54Z</time>
      </trkpt>
      <trkpt lat="49.97046" lon="2.41133">
        <ele>79</ele>
        <time>2022-04-20T14:41:55Z</time>
      </trkpt>
      <trkpt lat="49.97046" lon="2.41133">
        <ele>79</ele>
        <time>2022-04-20T14:41:56Z</time>
      </trkpt>
      <trkpt lat="49.97047" lon="2.41133">
        <ele>79.1</ele>
        <time>2022-04-20T14:41:57Z</time>
      </trkpt>
      <trkpt lat="49.97047" lon="2.41132">
        <ele>79.1</ele>
        <time>2022-04-20T14:41:58Z</time>
      </trkpt>
      <trkpt lat="49.97046" lon="2.41132">
        <ele>79.1</ele>
        <time>2022-04-20T14:41:59Z</time>
      </trkpt>
      <trkpt lat="49.97046" lon="2.41132">
        <ele>79.1</ele>
        <time>2022-04-20T14:42:00Z</time>
      </trkpt>
      <trkpt lat="49.97046" lon="2.41133">
        <ele>79.1</ele>
        <time>2022-04-20T14:42:01Z</time>
      </trkpt>
      <trkpt lat="49.97046" lon="2.41133">
        <ele>79.1</ele>
        <time>2022-04-20T14:42:02Z</time>
      </trkpt>
      <trkpt lat="49.97045" lon="2.41133">
        <ele>79.1</ele>
        <time>2022-04-20T14:42:03Z</time>
      </trkpt>
      <trkpt lat="49.97045" lon="2.41134">
        <ele>79.2</ele>
        <time>2022-04-20T14:42:04Z</time>
      </trkpt>
      <trkpt lat="49.97045" lon="2.41133">
        <ele>79.2</ele>
        <time>2022-04-20T14:42:05Z</time>
      </trkpt>
      <trkpt lat="49.97045" lon="2.41133">
        <ele>79.2</ele>
        <time>2022-04-20T14:42:06Z</time>
      </trkpt>
      <trkpt lat="49.97045" lon="2.41133">
        <ele>79.2</ele>
        <time>2022-04-20T14:42:07Z</time>
      </trkpt>
      <trkpt lat="49.97045" lon="2.41133">
        <ele>79.2</ele>
        <time>2022-04-20T14:42:08Z</time>
      </trkpt>
      <trkpt lat="49.97045" lon="2.41134">
        <ele>79.2</ele>
        <time>2022-04-20T14:42:09Z</time>
      </trkpt>
      <trkpt lat="49.97045" lon="2.41134">
        <ele>79.2</ele>
        <time>2022-04-20T14:42:10Z</time>
      </trkpt>
      <trkpt lat="49.97045" lon="2.41134">
        <ele>79.2</ele>
        <time>2022-04-20T14:42:11Z</time>
      </trkpt>
      <trkpt lat="49.97045" lon="2.41134">
        <ele>79.2</ele>
        <time>2022-04-20T14:42:12Z</time>
      </trkpt>
      <trkpt lat="49.97045" lon="2.41134">
        <ele>79.2</ele>
        <time>2022-04-20T14:42:13Z</time>
      </trkpt>
      <trkpt lat="49.97045" lon="2.41134">
        <ele>79.2</ele>
        <time>2022-04-20T14:42:14Z</time>
      </trkpt>
      <trkpt lat="49.97046" lon="2.41134">
        <ele>79.2</ele>
        <time>2022-04-20T14:42:15Z</time>
      </trkpt>
      <trkpt lat="49.97046" lon="2.41134">
        <ele>79.3</ele>
        <time>2022-04-20T14:42:16Z</time>
      </trkpt>
      <trkpt lat="49.97046" lon="2.41134">
        <ele>79.3</ele>
        <time>2022-04-20T14:42:17Z</time>
      </trkpt>
      <trkpt lat="49.97046" lon="2.41134">
        <ele>79.3</ele>
        <time>2022-04-20T14:42:18Z</time>
      </trkpt>
      <trkpt lat="49.97046" lon="2.41134">
        <ele>79.3</ele>
        <time>2022-04-20T14:42:19Z</time>
      </trkpt>
      <trkpt lat="49.97046" lon="2.41134">
        <ele>79.3</ele>
        <time>2022-04-20T14:42:20Z</time>
      </trkpt>
      <trkpt lat="49.97046" lon="2.41134">
        <ele>79.3</ele>
        <time>2022-04-20T14:42:21Z</time>
      </trkpt>
      <trkpt lat="49.97046" lon="2.41134">
        <ele>79.3</ele>
        <time>2022-04-20T14:42:22Z</time>
      </trkpt>
      <trkpt lat="49.97046" lon="2.41134">
        <ele>79.3</ele>
        <time>2022-04-20T14:42:23Z</time>
      </trkpt>
      <trkpt lat="49.97046" lon="2.41134">
        <ele>79.3</ele>
        <time>2022-04-20T14:42:24Z</time>
      </trkpt>
      <trkpt lat="49.97046" lon="2.41134">
        <ele>79.3</ele>
        <time>2022-04-20T14:42:25Z</time>
      </trkpt>
      <trkpt lat="49.97046" lon="2.41134">
        <ele>79.3</ele>
        <time>2022-04-20T14:42:26Z</time>
      </trkpt>
      <trkpt lat="49.97046" lon="2.41134">
        <ele>79.3</ele>
        <time>2022-04-20T14:42:27Z</time>
      </trkpt>
      <trkpt lat="49.97046" lon="2.41134">
        <ele>79.3</ele>
        <time>2022-04-20T14:42:28Z</time>
      </trkpt>
      <trkpt lat="49.97046" lon="2.41134">
        <ele>79.3</ele>
        <time>2022-04-20T14:42:29Z</time>
      </trkpt>
      <trkpt lat="49.97046" lon="2.41134">
        <ele>79.3</ele>
        <time>2022-04-20T14:42:30Z</time>
      </trkpt>
      <trkpt lat="49.97046" lon="2.41135">
        <ele>79.3</ele>
        <time>2022-04-20T14:42:31Z</time>
      </trkpt>
      <trkpt lat="49.97046" lon="2.41135">
        <ele>79.3</ele>
        <time>2022-04-20T14:42:32Z</time>
      </trkpt>
      <trkpt lat="49.97046" lon="2.41135">
        <ele>79.3</ele>
        <time>2022-04-20T14:42:33Z</time>
      </trkpt>
      <trkpt lat="49.97046" lon="2.41135">
        <ele>79.3</ele>
        <time>2022-04-20T14:42:34Z</time>
      </trkpt>
      <trkpt lat="49.97046" lon="2.41134">
        <ele>79.3</ele>
        <time>2022-04-20T14:42:35Z</time>
      </trkpt>
      <trkpt lat="49.97046" lon="2.41134">
        <ele>79.3</ele>
        <time>2022-04-20T14:42:37Z</time>
      </trkpt>
      <trkpt lat="49.97046" lon="2.41134">
        <ele>79.3</ele>
        <time>2022-04-20T14:42:38Z</time>
      </trkpt>
      <trkpt lat="49.97046" lon="2.41134">
        <ele>79.3</ele>
        <time>2022-04-20T14:42:39Z</time>
      </trkpt>
      <trkpt lat="49.97047" lon="2.41134">
        <ele>79.3</ele>
        <time>2022-04-20T14:42:40Z</time>
      </trkpt>
      <trkpt lat="49.97047" lon="2.41134">
        <ele>79.4</ele>
        <time>2022-04-20T14:42:41Z</time>
      </trkpt>
      <trkpt lat="49.97048" lon="2.41134">
        <ele>79.4</ele>
        <time>2022-04-20T14:42:42Z</time>
      </trkpt>
      <trkpt lat="49.97048" lon="2.41133">
        <ele>79.4</ele>
        <time>2022-04-20T14:42:43Z</time>
      </trkpt>
      <trkpt lat="49.97048" lon="2.41132">
        <ele>79.5</ele>
        <time>2022-04-20T14:42:44Z</time>
      </trkpt>
      <trkpt lat="49.97048" lon="2.4113">
        <ele>79.5</ele>
        <time>2022-04-20T14:42:45Z</time>
      </trkpt>
      <trkpt lat="49.97048" lon="2.41128">
        <ele>79.6</ele>
        <time>2022-04-20T14:42:46Z</time>
      </trkpt>
      <trkpt lat="49.97048" lon="2.41124">
        <ele>79.7</ele>
        <time>2022-04-20T14:42:48Z</time>
      </trkpt>
      <trkpt lat="49.97047" lon="2.4112">
        <ele>79.9</ele>
        <time>2022-04-20T14:42:49Z</time>
      </trkpt>
      <trkpt lat="49.97047" lon="2.41118">
        <ele>79.9</ele>
        <time>2022-04-20T14:42:50Z</time>
      </trkpt>
      <trkpt lat="49.97046" lon="2.41114">
        <ele>80.1</ele>
        <time>2022-04-20T14:42:51Z</time>
      </trkpt>
      <trkpt lat="49.97045" lon="2.41113">
        <ele>80.1</ele>
        <time>2022-04-20T14:42:52Z</time>
      </trkpt>
      <trkpt lat="49.97045" lon="2.41111">
        <ele>80.2</ele>
        <time>2022-04-20T14:42:54Z</time>
      </trkpt>
      <trkpt lat="49.97044" lon="2.41108">
        <ele>80.3</ele>
        <time>2022-04-20T14:42:55Z</time>
      </trkpt>
      <trkpt lat="49.97043" lon="2.41107">
        <ele>80.3</ele>
        <time>2022-04-20T14:42:56Z</time>
      </trkpt>
      <trkpt lat="49.97042" lon="2.41105">
        <ele>80.4</ele>
        <time>2022-04-20T14:42:57Z</time>
      </trkpt>
      <trkpt lat="49.9704" lon="2.41101">
        <ele>80.6</ele>
        <time>2022-04-20T14:42:58Z</time>
      </trkpt>
      <trkpt lat="49.97039" lon="2.411">
        <ele>80.6</ele>
        <time>2022-04-20T14:42:59Z</time>
      </trkpt>
      <trkpt lat="49.97038" lon="2.41099">
        <ele>80.7</ele>
        <time>2022-04-20T14:43:01Z</time>
      </trkpt>
      <trkpt lat="49.97036" lon="2.41098">
        <ele>80.8</ele>
        <time>2022-04-20T14:43:02Z</time>
      </trkpt>
      <trkpt lat="49.97035" lon="2.41097">
        <ele>80.8</ele>
        <time>2022-04-20T14:43:03Z</time>
      </trkpt>
      <trkpt lat="49.97034" lon="2.41095">
        <ele>80.9</ele>
        <time>2022-04-20T14:43:04Z</time>
      </trkpt>
      <trkpt lat="49.97031" lon="2.41093">
        <ele>81.1</ele>
        <time>2022-04-20T14:43:05Z</time>
      </trkpt>
      <trkpt lat="49.9703" lon="2.41092">
        <ele>81.1</ele>
        <time>2022-04-20T14:43:06Z</time>
      </trkpt>
      <trkpt lat="49.97029" lon="2.4109">
        <ele>81.3</ele>
        <time>2022-04-20T14:43:08Z</time>
      </trkpt>
      <trkpt lat="49.97028" lon="2.41089">
        <ele>81.3</ele>
        <time>2022-04-20T14:43:09Z</time>
      </trkpt>
      <trkpt lat="49.97026" lon="2.41088">
        <ele>81.5</ele>
        <time>2022-04-20T14:43:10Z</time>
      </trkpt>
      <trkpt lat="49.97025" lon="2.41088">
        <ele>81.5</ele>
        <time>2022-04-20T14:43:11Z</time>
      </trkpt>
      <trkpt lat="49.97024" lon="2.41088">
        <ele>81.6</ele>
        <time>2022-04-20T14:43:12Z</time>
      </trkpt>
      <trkpt lat="49.97022" lon="2.41087">
        <ele>81.7</ele>
        <time>2022-04-20T14:43:13Z</time>
      </trkpt>
      <trkpt lat="49.97021" lon="2.41086">
        <ele>81.7</ele>
        <time>2022-04-20T14:43:14Z</time>
      </trkpt>
      <trkpt lat="49.9702" lon="2.41084">
        <ele>81.8</ele>
        <time>2022-04-20T14:43:16Z</time>
      </trkpt>
      <trkpt lat="49.97019" lon="2.41082">
        <ele>81.9</ele>
        <time>2022-04-20T14:43:17Z</time>
      </trkpt>
      <trkpt lat="49.97017" lon="2.4108">
        <ele>82.1</ele>
        <time>2022-04-20T14:43:18Z</time>
      </trkpt>
      <trkpt lat="49.97016" lon="2.41079">
        <ele>82.2</ele>
        <time>2022-04-20T14:43:19Z</time>
      </trkpt>
      <trkpt lat="49.97015" lon="2.41077">
        <ele>82.3</ele>
        <time>2022-04-20T14:43:20Z</time>
      </trkpt>
      <trkpt lat="49.97013" lon="2.41076">
        <ele>82.4</ele>
        <time>2022-04-20T14:43:22Z</time>
      </trkpt>
      <trkpt lat="49.97012" lon="2.41075">
        <ele>82.6</ele>
        <time>2022-04-20T14:43:23Z</time>
      </trkpt>
      <trkpt lat="49.9701" lon="2.41073">
        <ele>82.7</ele>
        <time>2022-04-20T14:43:24Z</time>
      </trkpt>
      <trkpt lat="49.97008" lon="2.41071">
        <ele>82.9</ele>
        <time>2022-04-20T14:43:25Z</time>
      </trkpt>
      <trkpt lat="49.97007" lon="2.4107">
        <ele>83</ele>
        <time>2022-04-20T14:43:27Z</time>
      </trkpt>
      <trkpt lat="49.97005" lon="2.41068">
        <ele>83.1</ele>
        <time>2022-04-20T14:43:28Z</time>
      </trkpt>
      <trkpt lat="49.97004" lon="2.41067">
        <ele>83.3</ele>
        <time>2022-04-20T14:43:29Z</time>
      </trkpt>
      <trkpt lat="49.97003" lon="2.41065">
        <ele>83.4</ele>
        <time>2022-04-20T14:43:30Z</time>
      </trkpt>
      <trkpt lat="49.97002" lon="2.41064">
        <ele>83.5</ele>
        <time>2022-04-20T14:43:31Z</time>
      </trkpt>
      <trkpt lat="49.97002" lon="2.41063">
        <ele>83.6</ele>
        <time>2022-04-20T14:43:32Z</time>
      </trkpt>
      <trkpt lat="49.97001" lon="2.41061">
        <ele>83.7</ele>
        <time>2022-04-20T14:43:33Z</time>
      </trkpt>
      <trkpt lat="49.97001" lon="2.41061">
        <ele>83.7</ele>
        <time>2022-04-20T14:43:34Z</time>
      </trkpt>
      <trkpt lat="49.97" lon="2.4106">
        <ele>83.8</ele>
        <time>2022-04-20T14:43:35Z</time>
      </trkpt>
      <trkpt lat="49.97" lon="2.41059">
        <ele>83.8</ele>
        <time>2022-04-20T14:43:36Z</time>
      </trkpt>
      <trkpt lat="49.97" lon="2.41059">
        <ele>83.8</ele>
        <time>2022-04-20T14:43:37Z</time>
      </trkpt>
      <trkpt lat="49.96999" lon="2.41058">
        <ele>83.9</ele>
        <time>2022-04-20T14:43:38Z</time>
      </trkpt>
      <trkpt lat="49.96998" lon="2.41056">
        <ele>84</ele>
        <time>2022-04-20T14:43:39Z</time>
      </trkpt>
      <trkpt lat="49.96997" lon="2.41054">
        <ele>84.2</ele>
        <time>2022-04-20T14:43:41Z</time>
      </trkpt>
      <trkpt lat="49.96996" lon="2.41053">
        <ele>84.3</ele>
        <time>2022-04-20T14:43:42Z</time>
      </trkpt>
      <trkpt lat="49.96995" lon="2.41052">
        <ele>84.4</ele>
        <time>2022-04-20T14:43:43Z</time>
      </trkpt>
      <trkpt lat="49.96994" lon="2.41051">
        <ele>84.4</ele>
        <time>2022-04-20T14:43:44Z</time>
      </trkpt>
      <trkpt lat="49.96994" lon="2.4105">
        <ele>84.5</ele>
        <time>2022-04-20T14:43:45Z</time>
      </trkpt>
      <trkpt lat="49.96993" lon="2.41049">
        <ele>84.6</ele>
        <time>2022-04-20T14:43:46Z</time>
      </trkpt>
      <trkpt lat="49.96992" lon="2.41047">
        <ele>84.7</ele>
        <time>2022-04-20T14:43:47Z</time>
      </trkpt>
      <trkpt lat="49.96991" lon="2.41046">
        <ele>84.8</ele>
        <time>2022-04-20T14:43:48Z</time>
      </trkpt>
      <trkpt lat="49.9699" lon="2.41045">
        <ele>84.9</ele>
        <time>2022-04-20T14:43:49Z</time>
      </trkpt>
      <trkpt lat="49.96989" lon="2.41044">
        <ele>84.9</ele>
        <time>2022-04-20T14:43:51Z</time>
      </trkpt>
      <trkpt lat="49.96988" lon="2.41043">
        <ele>85</ele>
        <time>2022-04-20T14:43:52Z</time>
      </trkpt>
      <trkpt lat="49.96987" lon="2.41042">
        <ele>85.1</ele>
        <time>2022-04-20T14:43:53Z</time>
      </trkpt>
      <trkpt lat="49.96987" lon="2.41041">
        <ele>85.1</ele>
        <time>2022-04-20T14:43:55Z</time>
      </trkpt>
      <trkpt lat="49.96987" lon="2.4104">
        <ele>85.2</ele>
        <time>2022-04-20T14:43:56Z</time>
      </trkpt>
      <trkpt lat="49.96987" lon="2.4104">
        <ele>85.2</ele>
        <time>2022-04-20T14:43:57Z</time>
      </trkpt>
      <trkpt lat="49.96987" lon="2.41039">
        <ele>85.2</ele>
        <time>2022-04-20T14:43:58Z</time>
      </trkpt>
      <trkpt lat="49.96987" lon="2.41039">
        <ele>85.3</ele>
        <time>2022-04-20T14:43:59Z</time>
      </trkpt>
      <trkpt lat="49.96987" lon="2.41038">
        <ele>85.3</ele>
        <time>2022-04-20T14:44:00Z</time>
      </trkpt>
      <trkpt lat="49.96986" lon="2.41038">
        <ele>85.3</ele>
        <time>2022-04-20T14:44:01Z</time>
      </trkpt>
      <trkpt lat="49.96985" lon="2.41036">
        <ele>85.4</ele>
        <time>2022-04-20T14:44:03Z</time>
      </trkpt>
      <trkpt lat="49.96984" lon="2.41033">
        <ele>85.6</ele>
        <time>2022-04-20T14:44:04Z</time>
      </trkpt>
      <trkpt lat="49.96984" lon="2.41032">
        <ele>85.7</ele>
        <time>2022-04-20T14:44:05Z</time>
      </trkpt>
      <trkpt lat="49.96983" lon="2.4103">
        <ele>85.8</ele>
        <time>2022-04-20T14:44:06Z</time>
      </trkpt>
      <trkpt lat="49.96982" lon="2.41028">
        <ele>85.9</ele>
        <time>2022-04-20T14:44:07Z</time>
      </trkpt>
      <trkpt lat="49.96981" lon="2.41026">
        <ele>86.1</ele>
        <time>2022-04-20T14:44:08Z</time>
      </trkpt>
      <trkpt lat="49.9698" lon="2.41024">
        <ele>86.2</ele>
        <time>2022-04-20T14:44:09Z</time>
      </trkpt>
      <trkpt lat="49.9698" lon="2.41022">
        <ele>86.3</ele>
        <time>2022-04-20T14:44:11Z</time>
      </trkpt>
      <trkpt lat="49.96979" lon="2.4102">
        <ele>86.5</ele>
        <time>2022-04-20T14:44:12Z</time>
      </trkpt>
      <trkpt lat="49.96978" lon="2.41018">
        <ele>86.6</ele>
        <time>2022-04-20T14:44:13Z</time>
      </trkpt>
      <trkpt lat="49.96978" lon="2.41016">
        <ele>86.7</ele>
        <time>2022-04-20T14:44:14Z</time>
      </trkpt>
      <trkpt lat="49.96977" lon="2.41015">
        <ele>86.8</ele>
        <time>2022-04-20T14:44:16Z</time>
      </trkpt>
      <trkpt lat="49.96977" lon="2.41014">
        <ele>86.9</ele>
        <time>2022-04-20T14:44:17Z</time>
      </trkpt>
      <trkpt lat="49.96976" lon="2.41011">
        <ele>87.1</ele>
        <time>2022-04-20T14:44:19Z</time>
      </trkpt>
      <trkpt lat="49.96975" lon="2.4101">
        <ele>87.1</ele>
        <time>2022-04-20T14:44:20Z</time>
      </trkpt>
      <trkpt lat="49.96975" lon="2.41009">
        <ele>87.2</ele>
        <time>2022-04-20T14:44:21Z</time>
      </trkpt>
      <trkpt lat="49.96975" lon="2.41008">
        <ele>87.2</ele>
        <time>2022-04-20T14:44:23Z</time>
      </trkpt>
      <trkpt lat="49.96975" lon="2.41008">
        <ele>87.3</ele>
        <time>2022-04-20T14:44:24Z</time>
      </trkpt>
      <trkpt lat="49.96975" lon="2.41007">
        <ele>87.3</ele>
        <time>2022-04-20T14:44:25Z</time>
      </trkpt>
      <trkpt lat="49.96974" lon="2.41006">
        <ele>87.4</ele>
        <time>2022-04-20T14:44:26Z</time>
      </trkpt>
      <trkpt lat="49.96974" lon="2.41005">
        <ele>87.4</ele>
        <time>2022-04-20T14:44:28Z</time>
      </trkpt>
      <trkpt lat="49.96974" lon="2.41004">
        <ele>87.5</ele>
        <time>2022-04-20T14:44:29Z</time>
      </trkpt>
      <trkpt lat="49.96973" lon="2.41003">
        <ele>87.5</ele>
        <time>2022-04-20T14:44:30Z</time>
      </trkpt>
      <trkpt lat="49.96972" lon="2.41002">
        <ele>87.7</ele>
        <time>2022-04-20T14:44:31Z</time>
      </trkpt>
      <trkpt lat="49.96972" lon="2.41001">
        <ele>87.7</ele>
        <time>2022-04-20T14:44:33Z</time>
      </trkpt>
      <trkpt lat="49.96971" lon="2.41">
        <ele>87.8</ele>
        <time>2022-04-20T14:44:34Z</time>
      </trkpt>
      <trkpt lat="49.96971" lon="2.40999">
        <ele>87.9</ele>
        <time>2022-04-20T14:44:35Z</time>
      </trkpt>
      <trkpt lat="49.9697" lon="2.40998">
        <ele>87.9</ele>
        <time>2022-04-20T14:44:37Z</time>
      </trkpt>
      <trkpt lat="49.96969" lon="2.40997">
        <ele>88</ele>
        <time>2022-04-20T14:44:38Z</time>
      </trkpt>
      <trkpt lat="49.96969" lon="2.40996">
        <ele>88</ele>
        <time>2022-04-20T14:44:39Z</time>
      </trkpt>
      <trkpt lat="49.96968" lon="2.40995">
        <ele>88.1</ele>
        <time>2022-04-20T14:44:40Z</time>
      </trkpt>
      <trkpt lat="49.96967" lon="2.40993">
        <ele>88.2</ele>
        <time>2022-04-20T14:44:42Z</time>
      </trkpt>
      <trkpt lat="49.96966" lon="2.40992">
        <ele>88.3</ele>
        <time>2022-04-20T14:44:43Z</time>
      </trkpt>
      <trkpt lat="49.96965" lon="2.40991">
        <ele>88.4</ele>
        <time>2022-04-20T14:44:44Z</time>
      </trkpt>
      <trkpt lat="49.96964" lon="2.40989">
        <ele>88.5</ele>
        <time>2022-04-20T14:44:45Z</time>
      </trkpt>
      <trkpt lat="49.96963" lon="2.40987">
        <ele>88.6</ele>
        <time>2022-04-20T14:44:47Z</time>
      </trkpt>
      <trkpt lat="49.96962" lon="2.40985">
        <ele>88.7</ele>
        <time>2022-04-20T14:44:48Z</time>
      </trkpt>
      <trkpt lat="49.96961" lon="2.40984">
        <ele>88.7</ele>
        <time>2022-04-20T14:44:49Z</time>
      </trkpt>
      <trkpt lat="49.9696" lon="2.40983">
        <ele>88.8</ele>
        <time>2022-04-20T14:44:50Z</time>
      </trkpt>
      <trkpt lat="49.96959" lon="2.40982">
        <ele>88.9</ele>
        <time>2022-04-20T14:44:51Z</time>
      </trkpt>
      <trkpt lat="49.96959" lon="2.40982">
        <ele>88.9</ele>
        <time>2022-04-20T14:44:52Z</time>
      </trkpt>
      <trkpt lat="49.9696" lon="2.40983">
        <ele>89</ele>
        <time>2022-04-20T14:44:54Z</time>
      </trkpt>
      <trkpt lat="49.9696" lon="2.40982">
        <ele>89</ele>
        <time>2022-04-20T14:44:55Z</time>
      </trkpt>
      <trkpt lat="49.96958" lon="2.4098">
        <ele>89.1</ele>
        <time>2022-04-20T14:44:56Z</time>
      </trkpt>
      <trkpt lat="49.96957" lon="2.40978">
        <ele>89.2</ele>
        <time>2022-04-20T14:44:58Z</time>
      </trkpt>
      <trkpt lat="49.96956" lon="2.40977">
        <ele>89.3</ele>
        <time>2022-04-20T14:44:59Z</time>
      </trkpt>
      <trkpt lat="49.96955" lon="2.40976">
        <ele>89.3</ele>
        <time>2022-04-20T14:45:00Z</time>
      </trkpt>
      <trkpt lat="49.96955" lon="2.40976">
        <ele>89.4</ele>
        <time>2022-04-20T14:45:01Z</time>
      </trkpt>
      <trkpt lat="49.96954" lon="2.40975">
        <ele>89.4</ele>
        <time>2022-04-20T14:45:02Z</time>
      </trkpt>
      <trkpt lat="49.96953" lon="2.40974">
        <ele>89.5</ele>
        <time>2022-04-20T14:45:03Z</time>
      </trkpt>
      <trkpt lat="49.96951" lon="2.40973">
        <ele>89.6</ele>
        <time>2022-04-20T14:45:04Z</time>
      </trkpt>
      <trkpt lat="49.9695" lon="2.40972">
        <ele>89.7</ele>
        <time>2022-04-20T14:45:06Z</time>
      </trkpt>
      <trkpt lat="49.96949" lon="2.40971">
        <ele>89.8</ele>
        <time>2022-04-20T14:45:07Z</time>
      </trkpt>
      <trkpt lat="49.96949" lon="2.40972">
        <ele>89.8</ele>
        <time>2022-04-20T14:45:08Z</time>
      </trkpt>
      <trkpt lat="49.9695" lon="2.40973">
        <ele>89.9</ele>
        <time>2022-04-20T14:45:09Z</time>
      </trkpt>
      <trkpt lat="49.9695" lon="2.40974">
        <ele>89.9</ele>
        <time>2022-04-20T14:45:10Z</time>
      </trkpt>
      <trkpt lat="49.96949" lon="2.40973">
        <ele>89.9</ele>
        <time>2022-04-20T14:45:11Z</time>
      </trkpt>
      <trkpt lat="49.96948" lon="2.40973">
        <ele>90</ele>
        <time>2022-04-20T14:45:13Z</time>
      </trkpt>
      <trkpt lat="49.96947" lon="2.40972">
        <ele>90.1</ele>
        <time>2022-04-20T14:45:14Z</time>
      </trkpt>
      <trkpt lat="49.96946" lon="2.40971">
        <ele>90.2</ele>
        <time>2022-04-20T14:45:15Z</time>
      </trkpt>
      <trkpt lat="49.96945" lon="2.40971">
        <ele>90.3</ele>
        <time>2022-04-20T14:45:16Z</time>
      </trkpt>
      <trkpt lat="49.96944" lon="2.4097">
        <ele>90.3</ele>
        <time>2022-04-20T14:45:17Z</time>
      </trkpt>
      <trkpt lat="49.96943" lon="2.40969">
        <ele>90.4</ele>
        <time>2022-04-20T14:45:18Z</time>
      </trkpt>
      <trkpt lat="49.96941" lon="2.40968">
        <ele>90.6</ele>
        <time>2022-04-20T14:45:19Z</time>
      </trkpt>
      <trkpt lat="49.9694" lon="2.40968">
        <ele>90.7</ele>
        <time>2022-04-20T14:45:20Z</time>
      </trkpt>
      <trkpt lat="49.96938" lon="2.40967">
        <ele>90.8</ele>
        <time>2022-04-20T14:45:21Z</time>
      </trkpt>
      <trkpt lat="49.96937" lon="2.40966">
        <ele>90.9</ele>
        <time>2022-04-20T14:45:22Z</time>
      </trkpt>
      <trkpt lat="49.96935" lon="2.40966">
        <ele>91</ele>
        <time>2022-04-20T14:45:24Z</time>
      </trkpt>
      <trkpt lat="49.96934" lon="2.40965">
        <ele>91.1</ele>
        <time>2022-04-20T14:45:25Z</time>
      </trkpt>
      <trkpt lat="49.96933" lon="2.40965">
        <ele>91.2</ele>
        <time>2022-04-20T14:45:26Z</time>
      </trkpt>
      <trkpt lat="49.96932" lon="2.40964">
        <ele>91.2</ele>
        <time>2022-04-20T14:45:27Z</time>
      </trkpt>
      <trkpt lat="49.96931" lon="2.40964">
        <ele>93.8</ele>
        <time>2022-04-20T14:45:28Z</time>
      </trkpt>
      <trkpt lat="49.9693" lon="2.40963">
        <ele>93.9</ele>
        <time>2022-04-20T14:45:29Z</time>
      </trkpt>
      <trkpt lat="49.96928" lon="2.40963">
        <ele>94</ele>
        <time>2022-04-20T14:45:30Z</time>
      </trkpt>
      <trkpt lat="49.96927" lon="2.40963">
        <ele>94.1</ele>
        <time>2022-04-20T14:45:32Z</time>
      </trkpt>
      <trkpt lat="49.96925" lon="2.40963">
        <ele>94.3</ele>
        <time>2022-04-20T14:45:33Z</time>
      </trkpt>
      <trkpt lat="49.96924" lon="2.40963">
        <ele>94.4</ele>
        <time>2022-04-20T14:45:34Z</time>
      </trkpt>
      <trkpt lat="49.96923" lon="2.40962">
        <ele>94.4</ele>
        <time>2022-04-20T14:45:35Z</time>
      </trkpt>
      <trkpt lat="49.96921" lon="2.40962">
        <ele>94.6</ele>
        <time>2022-04-20T14:45:37Z</time>
      </trkpt>
      <trkpt lat="49.9692" lon="2.40962">
        <ele>94.7</ele>
        <time>2022-04-20T14:45:38Z</time>
      </trkpt>
      <trkpt lat="49.96922" lon="2.40962">
        <ele>94.8</ele>
        <time>2022-04-20T14:45:39Z</time>
      </trkpt>
      <trkpt lat="49.96922" lon="2.40962">
        <ele>94.8</ele>
        <time>2022-04-20T14:45:40Z</time>
      </trkpt>
      <trkpt lat="49.96921" lon="2.40962">
        <ele>94.8</ele>
        <time>2022-04-20T14:45:41Z</time>
      </trkpt>
      <trkpt lat="49.9692" lon="2.40962">
        <ele>94.9</ele>
        <time>2022-04-20T14:45:42Z</time>
      </trkpt>
      <trkpt lat="49.96919" lon="2.40963">
        <ele>95</ele>
        <time>2022-04-20T14:45:43Z</time>
      </trkpt>
      <trkpt lat="49.96918" lon="2.40963">
        <ele>95.1</ele>
        <time>2022-04-20T14:45:45Z</time>
      </trkpt>
      <trkpt lat="49.96917" lon="2.40963">
        <ele>95.2</ele>
        <time>2022-04-20T14:45:46Z</time>
      </trkpt>
      <trkpt lat="49.96916" lon="2.40963">
        <ele>95.2</ele>
        <time>2022-04-20T14:45:47Z</time>
      </trkpt>
      <trkpt lat="49.96914" lon="2.40962">
        <ele>95.3</ele>
        <time>2022-04-20T14:45:48Z</time>
      </trkpt>
      <trkpt lat="49.96913" lon="2.40962">
        <ele>95.4</ele>
        <time>2022-04-20T14:45:49Z</time>
      </trkpt>
      <trkpt lat="49.96912" lon="2.40962">
        <ele>95.5</ele>
        <time>2022-04-20T14:45:50Z</time>
      </trkpt>
      <trkpt lat="49.96911" lon="2.40962">
        <ele>95.6</ele>
        <time>2022-04-20T14:45:52Z</time>
      </trkpt>
      <trkpt lat="49.9691" lon="2.40962">
        <ele>95.7</ele>
        <time>2022-04-20T14:45:53Z</time>
      </trkpt>
      <trkpt lat="49.96909" lon="2.40962">
        <ele>95.7</ele>
        <time>2022-04-20T14:45:54Z</time>
      </trkpt>
      <trkpt lat="49.96908" lon="2.40964">
        <ele>95.8</ele>
        <time>2022-04-20T14:45:55Z</time>
      </trkpt>
      <trkpt lat="49.96907" lon="2.40965">
        <ele>95.9</ele>
        <time>2022-04-20T14:45:56Z</time>
      </trkpt>
      <trkpt lat="49.96906" lon="2.40965">
        <ele>96</ele>
        <time>2022-04-20T14:45:58Z</time>
      </trkpt>
      <trkpt lat="49.96905" lon="2.40966">
        <ele>96.1</ele>
        <time>2022-04-20T14:45:59Z</time>
      </trkpt>
      <trkpt lat="49.96903" lon="2.40967">
        <ele>96.2</ele>
        <time>2022-04-20T14:46:00Z</time>
      </trkpt>
      <trkpt lat="49.96903" lon="2.40968">
        <ele>96.3</ele>
        <time>2022-04-20T14:46:01Z</time>
      </trkpt>
      <trkpt lat="49.96902" lon="2.40969">
        <ele>96.3</ele>
        <time>2022-04-20T14:46:02Z</time>
      </trkpt>
      <trkpt lat="49.96901" lon="2.4097">
        <ele>96.4</ele>
        <time>2022-04-20T14:46:03Z</time>
      </trkpt>
      <trkpt lat="49.969" lon="2.40971">
        <ele>96.5</ele>
        <time>2022-04-20T14:46:05Z</time>
      </trkpt>
      <trkpt lat="49.96899" lon="2.40972">
        <ele>96.6</ele>
        <time>2022-04-20T14:46:06Z</time>
      </trkpt>
      <trkpt lat="49.96898" lon="2.40973">
        <ele>96.7</ele>
        <time>2022-04-20T14:46:07Z</time>
      </trkpt>
      <trkpt lat="49.96897" lon="2.40973">
        <ele>96.8</ele>
        <time>2022-04-20T14:46:08Z</time>
      </trkpt>
      <trkpt lat="49.96895" lon="2.40974">
        <ele>96.9</ele>
        <time>2022-04-20T14:46:09Z</time>
      </trkpt>
      <trkpt lat="49.96894" lon="2.40975">
        <ele>97</ele>
        <time>2022-04-20T14:46:11Z</time>
      </trkpt>
      <trkpt lat="49.96892" lon="2.40976">
        <ele>97.1</ele>
        <time>2022-04-20T14:46:12Z</time>
      </trkpt>
      <trkpt lat="49.96891" lon="2.40976">
        <ele>97.2</ele>
        <time>2022-04-20T14:46:13Z</time>
      </trkpt>
      <trkpt lat="49.96889" lon="2.40977">
        <ele>97.3</ele>
        <time>2022-04-20T14:46:14Z</time>
      </trkpt>
      <trkpt lat="49.96888" lon="2.40977">
        <ele>97.4</ele>
        <time>2022-04-20T14:46:15Z</time>
      </trkpt>
      <trkpt lat="49.96887" lon="2.40978">
        <ele>97.5</ele>
        <time>2022-04-20T14:46:16Z</time>
      </trkpt>
      <trkpt lat="49.96886" lon="2.40979">
        <ele>97.6</ele>
        <time>2022-04-20T14:46:18Z</time>
      </trkpt>
      <trkpt lat="49.96884" lon="2.40979">
        <ele>97.7</ele>
        <time>2022-04-20T14:46:19Z</time>
      </trkpt>
      <trkpt lat="49.96883" lon="2.4098">
        <ele>97.8</ele>
        <time>2022-04-20T14:46:20Z</time>
      </trkpt>
      <trkpt lat="49.96881" lon="2.40981">
        <ele>97.8</ele>
        <time>2022-04-20T14:46:21Z</time>
      </trkpt>
      <trkpt lat="49.9688" lon="2.40982">
        <ele>97.9</ele>
        <time>2022-04-20T14:46:22Z</time>
      </trkpt>
      <trkpt lat="49.96879" lon="2.40983">
        <ele>98.1</ele>
        <time>2022-04-20T14:46:23Z</time>
      </trkpt>
      <trkpt lat="49.96877" lon="2.40984">
        <ele>98.2</ele>
        <time>2022-04-20T14:46:25Z</time>
      </trkpt>
      <trkpt lat="49.96876" lon="2.40985">
        <ele>98.3</ele>
        <time>2022-04-20T14:46:26Z</time>
      </trkpt>
      <trkpt lat="49.96874" lon="2.40985">
        <ele>98.4</ele>
        <time>2022-04-20T14:46:27Z</time>
      </trkpt>
      <trkpt lat="49.96873" lon="2.40986">
        <ele>98.5</ele>
        <time>2022-04-20T14:46:28Z</time>
      </trkpt>
      <trkpt lat="49.96871" lon="2.40987">
        <ele>98.6</ele>
        <time>2022-04-20T14:46:29Z</time>
      </trkpt>
      <trkpt lat="49.9687" lon="2.40987">
        <ele>98.7</ele>
        <time>2022-04-20T14:46:31Z</time>
      </trkpt>
      <trkpt lat="49.96869" lon="2.40988">
        <ele>98.8</ele>
        <time>2022-04-20T14:46:32Z</time>
      </trkpt>
      <trkpt lat="49.96867" lon="2.40989">
        <ele>98.9</ele>
        <time>2022-04-20T14:46:33Z</time>
      </trkpt>
      <trkpt lat="49.96866" lon="2.4099">
        <ele>99.1</ele>
        <time>2022-04-20T14:46:34Z</time>
      </trkpt>
      <trkpt lat="49.96864" lon="2.40991">
        <ele>99.2</ele>
        <time>2022-04-20T14:46:35Z</time>
      </trkpt>
      <trkpt lat="49.96863" lon="2.40993">
        <ele>99.3</ele>
        <time>2022-04-20T14:46:37Z</time>
      </trkpt>
      <trkpt lat="49.96863" lon="2.40993">
        <ele>99.3</ele>
        <time>2022-04-20T14:46:38Z</time>
      </trkpt>
      <trkpt lat="49.96862" lon="2.40993">
        <ele>99.3</ele>
        <time>2022-04-20T14:46:39Z</time>
      </trkpt>
      <trkpt lat="49.96862" lon="2.40993">
        <ele>99.4</ele>
        <time>2022-04-20T14:46:40Z</time>
      </trkpt>
      <trkpt lat="49.96861" lon="2.40995">
        <ele>99.4</ele>
        <time>2022-04-20T14:46:41Z</time>
      </trkpt>
      <trkpt lat="49.96859" lon="2.40996">
        <ele>99.5</ele>
        <time>2022-04-20T14:46:42Z</time>
      </trkpt>
      <trkpt lat="49.96858" lon="2.40997">
        <ele>99.6</ele>
        <time>2022-04-20T14:46:44Z</time>
      </trkpt>
      <trkpt lat="49.96857" lon="2.40998">
        <ele>99.9</ele>
        <time>2022-04-20T14:46:45Z</time>
      </trkpt>
      <trkpt lat="49.96856" lon="2.40999">
        <ele>99.9</ele>
        <time>2022-04-20T14:46:46Z</time>
      </trkpt>
      <trkpt lat="49.96855" lon="2.40999">
        <ele>99.9</ele>
        <time>2022-04-20T14:46:47Z</time>
      </trkpt>
      <trkpt lat="49.96854" lon="2.41">
        <ele>99.9</ele>
        <time>2022-04-20T14:46:48Z</time>
      </trkpt>
      <trkpt lat="49.96853" lon="2.41002">
        <ele>99.9</ele>
        <time>2022-04-20T14:46:50Z</time>
      </trkpt>
      <trkpt lat="49.96852" lon="2.41002">
        <ele>99.9</ele>
        <time>2022-04-20T14:46:51Z</time>
      </trkpt>
      <trkpt lat="49.96852" lon="2.41004">
        <ele>99.9</ele>
        <time>2022-04-20T14:46:52Z</time>
      </trkpt>
      <trkpt lat="49.96853" lon="2.41005">
        <ele>99.9</ele>
        <time>2022-04-20T14:46:54Z</time>
      </trkpt>
      <trkpt lat="49.96855" lon="2.41006">
        <ele>99.9</ele>
        <time>2022-04-20T14:46:55Z</time>
      </trkpt>
      <trkpt lat="49.96857" lon="2.41007">
        <ele>99.9</ele>
        <time>2022-04-20T14:46:56Z</time>
      </trkpt>
      <trkpt lat="49.96858" lon="2.41007">
        <ele>99.9</ele>
        <time>2022-04-20T14:46:57Z</time>
      </trkpt>
      <trkpt lat="49.96859" lon="2.41008">
        <ele>99.8</ele>
        <time>2022-04-20T14:46:58Z</time>
      </trkpt>
      <trkpt lat="49.9686" lon="2.41008">
        <ele>99.8</ele>
        <time>2022-04-20T14:46:59Z</time>
      </trkpt>
      <trkpt lat="49.96862" lon="2.41008">
        <ele>99.8</ele>
        <time>2022-04-20T14:47:00Z</time>
      </trkpt>
      <trkpt lat="49.96864" lon="2.41007">
        <ele>99.8</ele>
        <time>2022-04-20T14:47:01Z</time>
      </trkpt>
      <trkpt lat="49.96865" lon="2.41007">
        <ele>99.7</ele>
        <time>2022-04-20T14:47:02Z</time>
      </trkpt>
      <trkpt lat="49.96867" lon="2.41008">
        <ele>99.7</ele>
        <time>2022-04-20T14:47:03Z</time>
      </trkpt>
      <trkpt lat="49.96868" lon="2.41008">
        <ele>99.7</ele>
        <time>2022-04-20T14:47:04Z</time>
      </trkpt>
      <trkpt lat="49.9687" lon="2.41009">
        <ele>99.6</ele>
        <time>2022-04-20T14:47:06Z</time>
      </trkpt>
      <trkpt lat="49.96871" lon="2.4101">
        <ele>99.6</ele>
        <time>2022-04-20T14:47:07Z</time>
      </trkpt>
      <trkpt lat="49.96873" lon="2.41011">
        <ele>99.5</ele>
        <time>2022-04-20T14:47:08Z</time>
      </trkpt>
      <trkpt lat="49.96874" lon="2.41012">
        <ele>99.5</ele>
        <time>2022-04-20T14:47:09Z</time>
      </trkpt>
      <trkpt lat="49.96876" lon="2.41014">
        <ele>99.4</ele>
        <time>2022-04-20T14:47:11Z</time>
      </trkpt>
      <trkpt lat="49.96878" lon="2.41015">
        <ele>99.3</ele>
        <time>2022-04-20T14:47:12Z</time>
      </trkpt>
      <trkpt lat="49.96879" lon="2.41016">
        <ele>99.3</ele>
        <time>2022-04-20T14:47:13Z</time>
      </trkpt>
      <trkpt lat="49.96879" lon="2.41016">
        <ele>99.3</ele>
        <time>2022-04-20T14:47:14Z</time>
      </trkpt>
      <trkpt lat="49.96881" lon="2.41017">
        <ele>99.2</ele>
        <time>2022-04-20T14:47:15Z</time>
      </trkpt>
      <trkpt lat="49.96882" lon="2.41017">
        <ele>99.2</ele>
        <time>2022-04-20T14:47:16Z</time>
      </trkpt>
      <trkpt lat="49.96884" lon="2.41018">
        <ele>99.1</ele>
        <time>2022-04-20T14:47:18Z</time>
      </trkpt>
      <trkpt lat="49.96885" lon="2.41019">
        <ele>99.1</ele>
        <time>2022-04-20T14:47:19Z</time>
      </trkpt>
      <trkpt lat="49.96886" lon="2.4102">
        <ele>99</ele>
        <time>2022-04-20T14:47:20Z</time>
      </trkpt>
      <trkpt lat="49.96886" lon="2.41021">
        <ele>99</ele>
        <time>2022-04-20T14:47:21Z</time>
      </trkpt>
      <trkpt lat="49.96887" lon="2.41022">
        <ele>98.9</ele>
        <time>2022-04-20T14:47:22Z</time>
      </trkpt>
      <trkpt lat="49.96888" lon="2.41023">
        <ele>98.9</ele>
        <time>2022-04-20T14:47:23Z</time>
      </trkpt>
      <trkpt lat="49.96889" lon="2.41024">
        <ele>98.9</ele>
        <time>2022-04-20T14:47:24Z</time>
      </trkpt>
      <trkpt lat="49.9689" lon="2.41025">
        <ele>98.8</ele>
        <time>2022-04-20T14:47:25Z</time>
      </trkpt>
      <trkpt lat="49.96891" lon="2.41026">
        <ele>98.8</ele>
        <time>2022-04-20T14:47:26Z</time>
      </trkpt>
      <trkpt lat="49.96891" lon="2.41028">
        <ele>98.7</ele>
        <time>2022-04-20T14:47:27Z</time>
      </trkpt>
      <trkpt lat="49.96892" lon="2.4103">
        <ele>98.7</ele>
        <time>2022-04-20T14:47:28Z</time>
      </trkpt>
      <trkpt lat="49.96893" lon="2.41032">
        <ele>98.6</ele>
        <time>2022-04-20T14:47:29Z</time>
      </trkpt>
      <trkpt lat="49.96893" lon="2.41033">
        <ele>98.6</ele>
        <time>2022-04-20T14:47:30Z</time>
      </trkpt>
      <trkpt lat="49.96894" lon="2.41035">
        <ele>98.6</ele>
        <time>2022-04-20T14:47:31Z</time>
      </trkpt>
      <trkpt lat="49.96894" lon="2.41037">
        <ele>98.5</ele>
        <time>2022-04-20T14:47:32Z</time>
      </trkpt>
      <trkpt lat="49.96894" lon="2.4104">
        <ele>98.5</ele>
        <time>2022-04-20T14:47:33Z</time>
      </trkpt>
      <trkpt lat="49.96894" lon="2.41041">
        <ele>98.4</ele>
        <time>2022-04-20T14:47:35Z</time>
      </trkpt>
      <trkpt lat="49.96894" lon="2.41043">
        <ele>98.4</ele>
        <time>2022-04-20T14:47:36Z</time>
      </trkpt>
      <trkpt lat="49.96894" lon="2.41046">
        <ele>98.3</ele>
        <time>2022-04-20T14:47:37Z</time>
      </trkpt>
      <trkpt lat="49.96894" lon="2.41047">
        <ele>98.3</ele>
        <time>2022-04-20T14:47:38Z</time>
      </trkpt>
      <trkpt lat="49.96894" lon="2.41048">
        <ele>98.3</ele>
        <time>2022-04-20T14:47:39Z</time>
      </trkpt>
      <trkpt lat="49.96893" lon="2.41052">
        <ele>98.2</ele>
        <time>2022-04-20T14:47:40Z</time>
      </trkpt>
      <trkpt lat="49.96893" lon="2.41053">
        <ele>98.2</ele>
        <time>2022-04-20T14:47:41Z</time>
      </trkpt>
      <trkpt lat="49.96893" lon="2.41055">
        <ele>98.2</ele>
        <time>2022-04-20T14:47:42Z</time>
      </trkpt>
      <trkpt lat="49.96893" lon="2.41057">
        <ele>98.1</ele>
        <time>2022-04-20T14:47:43Z</time>
      </trkpt>
      <trkpt lat="49.96893" lon="2.41059">
        <ele>98.1</ele>
        <time>2022-04-20T14:47:44Z</time>
      </trkpt>
      <trkpt lat="49.96892" lon="2.41063">
        <ele>98</ele>
        <time>2022-04-20T14:47:45Z</time>
      </trkpt>
      <trkpt lat="49.96892" lon="2.41064">
        <ele>98</ele>
        <time>2022-04-20T14:47:46Z</time>
      </trkpt>
      <trkpt lat="49.96892" lon="2.41065">
        <ele>98</ele>
        <time>2022-04-20T14:47:47Z</time>
      </trkpt>
      <trkpt lat="49.96892" lon="2.41068">
        <ele>98</ele>
        <time>2022-04-20T14:47:49Z</time>
      </trkpt>
      <trkpt lat="49.96891" lon="2.41069">
        <ele>97.9</ele>
        <time>2022-04-20T14:47:50Z</time>
      </trkpt>
      <trkpt lat="49.96891" lon="2.41071">
        <ele>97.9</ele>
        <time>2022-04-20T14:47:51Z</time>
      </trkpt>
      <trkpt lat="49.96891" lon="2.41072">
        <ele>97.9</ele>
        <time>2022-04-20T14:47:52Z</time>
      </trkpt>
      <trkpt lat="49.96891" lon="2.41074">
        <ele>97.9</ele>
        <time>2022-04-20T14:47:53Z</time>
      </trkpt>
      <trkpt lat="49.9689" lon="2.41076">
        <ele>97.9</ele>
        <time>2022-04-20T14:47:54Z</time>
      </trkpt>
      <trkpt lat="49.9689" lon="2.41079">
        <ele>97.8</ele>
        <time>2022-04-20T14:47:55Z</time>
      </trkpt>
      <trkpt lat="49.96889" lon="2.4108">
        <ele>97.8</ele>
        <time>2022-04-20T14:47:56Z</time>
      </trkpt>
      <trkpt lat="49.96889" lon="2.41082">
        <ele>97.8</ele>
        <time>2022-04-20T14:47:57Z</time>
      </trkpt>
      <trkpt lat="49.96888" lon="2.41084">
        <ele>97.8</ele>
        <time>2022-04-20T14:47:59Z</time>
      </trkpt>
      <trkpt lat="49.96887" lon="2.41086">
        <ele>97.8</ele>
        <time>2022-04-20T14:48:00Z</time>
      </trkpt>
      <trkpt lat="49.96886" lon="2.41087">
        <ele>97.8</ele>
        <time>2022-04-20T14:48:01Z</time>
      </trkpt>
      <trkpt lat="49.96885" lon="2.41088">
        <ele>97.8</ele>
        <time>2022-04-20T14:48:02Z</time>
      </trkpt>
      <trkpt lat="49.96885" lon="2.4109">
        <ele>97.8</ele>
        <time>2022-04-20T14:48:03Z</time>
      </trkpt>
      <trkpt lat="49.96884" lon="2.41091">
        <ele>97.8</ele>
        <time>2022-04-20T14:48:04Z</time>
      </trkpt>
      <trkpt lat="49.96883" lon="2.41093">
        <ele>97.8</ele>
        <time>2022-04-20T14:48:05Z</time>
      </trkpt>
      <trkpt lat="49.96882" lon="2.41095">
        <ele>97.8</ele>
        <time>2022-04-20T14:48:06Z</time>
      </trkpt>
      <trkpt lat="49.96882" lon="2.41096">
        <ele>97.8</ele>
        <time>2022-04-20T14:48:07Z</time>
      </trkpt>
      <trkpt lat="49.96881" lon="2.41098">
        <ele>97.8</ele>
        <time>2022-04-20T14:48:08Z</time>
      </trkpt>
      <trkpt lat="49.9688" lon="2.41099">
        <ele>97.8</ele>
        <time>2022-04-20T14:48:09Z</time>
      </trkpt>
      <trkpt lat="49.9688" lon="2.411">
        <ele>97.8</ele>
        <time>2022-04-20T14:48:11Z</time>
      </trkpt>
      <trkpt lat="49.96879" lon="2.41101">
        <ele>97.8</ele>
        <time>2022-04-20T14:48:12Z</time>
      </trkpt>
      <trkpt lat="49.96878" lon="2.41103">
        <ele>97.8</ele>
        <time>2022-04-20T14:48:13Z</time>
      </trkpt>
      <trkpt lat="49.96878" lon="2.41104">
        <ele>97.8</ele>
        <time>2022-04-20T14:48:14Z</time>
      </trkpt>
      <trkpt lat="49.96877" lon="2.41105">
        <ele>97.8</ele>
        <time>2022-04-20T14:48:15Z</time>
      </trkpt>
      <trkpt lat="49.96876" lon="2.41106">
        <ele>97.8</ele>
        <time>2022-04-20T14:48:16Z</time>
      </trkpt>
      <trkpt lat="49.96875" lon="2.41107">
        <ele>97.8</ele>
        <time>2022-04-20T14:48:17Z</time>
      </trkpt>
      <trkpt lat="49.96874" lon="2.41108">
        <ele>97.8</ele>
        <time>2022-04-20T14:48:18Z</time>
      </trkpt>
      <trkpt lat="49.96873" lon="2.41109">
        <ele>97.9</ele>
        <time>2022-04-20T14:48:19Z</time>
      </trkpt>
      <trkpt lat="49.96872" lon="2.4111">
        <ele>97.9</ele>
        <time>2022-04-20T14:48:21Z</time>
      </trkpt>
      <trkpt lat="49.96871" lon="2.41111">
        <ele>97.9</ele>
        <time>2022-04-20T14:48:22Z</time>
      </trkpt>
      <trkpt lat="49.9687" lon="2.41113">
        <ele>98</ele>
        <time>2022-04-20T14:48:23Z</time>
      </trkpt>
      <trkpt lat="49.96869" lon="2.41113">
        <ele>98</ele>
        <time>2022-04-20T14:48:24Z</time>
      </trkpt>
      <trkpt lat="49.96868" lon="2.41114">
        <ele>98</ele>
        <time>2022-04-20T14:48:25Z</time>
      </trkpt>
      <trkpt lat="49.96867" lon="2.41115">
        <ele>98</ele>
        <time>2022-04-20T14:48:26Z</time>
      </trkpt>
      <trkpt lat="49.96866" lon="2.41116">
        <ele>98.1</ele>
        <time>2022-04-20T14:48:28Z</time>
      </trkpt>
      <trkpt lat="49.96865" lon="2.41117">
        <ele>98.1</ele>
        <time>2022-04-20T14:48:29Z</time>
      </trkpt>
      <trkpt lat="49.96864" lon="2.41118">
        <ele>98.2</ele>
        <time>2022-04-20T14:48:30Z</time>
      </trkpt>
      <trkpt lat="49.96863" lon="2.41119">
        <ele>98.2</ele>
        <time>2022-04-20T14:48:31Z</time>
      </trkpt>
      <trkpt lat="49.96862" lon="2.4112">
        <ele>98.2</ele>
        <time>2022-04-20T14:48:32Z</time>
      </trkpt>
      <trkpt lat="49.96861" lon="2.41121">
        <ele>98.2</ele>
        <time>2022-04-20T14:48:33Z</time>
      </trkpt>
      <trkpt lat="49.9686" lon="2.41123">
        <ele>98.3</ele>
        <time>2022-04-20T14:48:35Z</time>
      </trkpt>
      <trkpt lat="49.9686" lon="2.41124">
        <ele>98.3</ele>
        <time>2022-04-20T14:48:36Z</time>
      </trkpt>
      <trkpt lat="49.96859" lon="2.41125">
        <ele>98.3</ele>
        <time>2022-04-20T14:48:37Z</time>
      </trkpt>
      <trkpt lat="49.96858" lon="2.41126">
        <ele>98.4</ele>
        <time>2022-04-20T14:48:38Z</time>
      </trkpt>
      <trkpt lat="49.96857" lon="2.41127">
        <ele>98.4</ele>
        <time>2022-04-20T14:48:39Z</time>
      </trkpt>
      <trkpt lat="49.96857" lon="2.41128">
        <ele>98.4</ele>
        <time>2022-04-20T14:48:40Z</time>
      </trkpt>
      <trkpt lat="49.96856" lon="2.41129">
        <ele>98.5</ele>
        <time>2022-04-20T14:48:41Z</time>
      </trkpt>
      <trkpt lat="49.96855" lon="2.4113">
        <ele>98.5</ele>
        <time>2022-04-20T14:48:43Z</time>
      </trkpt>
      <trkpt lat="49.96854" lon="2.41131">
        <ele>98.5</ele>
        <time>2022-04-20T14:48:44Z</time>
      </trkpt>
      <trkpt lat="49.96853" lon="2.41132">
        <ele>98.5</ele>
        <time>2022-04-20T14:48:45Z</time>
      </trkpt>
      <trkpt lat="49.96853" lon="2.41133">
        <ele>98.6</ele>
        <time>2022-04-20T14:48:46Z</time>
      </trkpt>
      <trkpt lat="49.96852" lon="2.41134">
        <ele>98.6</ele>
        <time>2022-04-20T14:48:47Z</time>
      </trkpt>
      <trkpt lat="49.96851" lon="2.41136">
        <ele>98.6</ele>
        <time>2022-04-20T14:48:49Z</time>
      </trkpt>
      <trkpt lat="49.9685" lon="2.41137">
        <ele>98.7</ele>
        <time>2022-04-20T14:48:50Z</time>
      </trkpt>
      <trkpt lat="49.96849" lon="2.41138">
        <ele>98.7</ele>
        <time>2022-04-20T14:48:51Z</time>
      </trkpt>
      <trkpt lat="49.96848" lon="2.4114">
        <ele>98.8</ele>
        <time>2022-04-20T14:48:53Z</time>
      </trkpt>
      <trkpt lat="49.96847" lon="2.41141">
        <ele>98.8</ele>
        <time>2022-04-20T14:48:54Z</time>
      </trkpt>
      <trkpt lat="49.96846" lon="2.41142">
        <ele>98.8</ele>
        <time>2022-04-20T14:48:55Z</time>
      </trkpt>
      <trkpt lat="49.96845" lon="2.41143">
        <ele>98.8</ele>
        <time>2022-04-20T14:48:56Z</time>
      </trkpt>
      <trkpt lat="49.96844" lon="2.41144">
        <ele>98.9</ele>
        <time>2022-04-20T14:48:57Z</time>
      </trkpt>
      <trkpt lat="49.96842" lon="2.41146">
        <ele>98.9</ele>
        <time>2022-04-20T14:48:58Z</time>
      </trkpt>
      <trkpt lat="49.96841" lon="2.41148">
        <ele>99</ele>
        <time>2022-04-20T14:48:59Z</time>
      </trkpt>
      <trkpt lat="49.96841" lon="2.41149">
        <ele>99</ele>
        <time>2022-04-20T14:49:01Z</time>
      </trkpt>
      <trkpt lat="49.96841" lon="2.4115">
        <ele>99.1</ele>
        <time>2022-04-20T14:49:02Z</time>
      </trkpt>
      <trkpt lat="49.9684" lon="2.41151">
        <ele>99.1</ele>
        <time>2022-04-20T14:49:03Z</time>
      </trkpt>
      <trkpt lat="49.96839" lon="2.41152">
        <ele>99.1</ele>
        <time>2022-04-20T14:49:05Z</time>
      </trkpt>
      <trkpt lat="49.96839" lon="2.41152">
        <ele>99.1</ele>
        <time>2022-04-20T14:49:06Z</time>
      </trkpt>
      <trkpt lat="49.96838" lon="2.41153">
        <ele>99.2</ele>
        <time>2022-04-20T14:49:07Z</time>
      </trkpt>
      <trkpt lat="49.96837" lon="2.41153">
        <ele>99.2</ele>
        <time>2022-04-20T14:49:08Z</time>
      </trkpt>
      <trkpt lat="49.96837" lon="2.41154">
        <ele>99.2</ele>
        <time>2022-04-20T14:49:09Z</time>
      </trkpt>
      <trkpt lat="49.96836" lon="2.41154">
        <ele>99.2</ele>
        <time>2022-04-20T14:49:10Z</time>
      </trkpt>
      <trkpt lat="49.96835" lon="2.41154">
        <ele>99.3</ele>
        <time>2022-04-20T14:49:11Z</time>
      </trkpt>
      <trkpt lat="49.96834" lon="2.41155">
        <ele>99.3</ele>
        <time>2022-04-20T14:49:12Z</time>
      </trkpt>
      <trkpt lat="49.96833" lon="2.41156">
        <ele>99.3</ele>
        <time>2022-04-20T14:49:13Z</time>
      </trkpt>
      <trkpt lat="49.96831" lon="2.41158">
        <ele>99.4</ele>
        <time>2022-04-20T14:49:14Z</time>
      </trkpt>
      <trkpt lat="49.9683" lon="2.41159">
        <ele>99.5</ele>
        <time>2022-04-20T14:49:16Z</time>
      </trkpt>
      <trkpt lat="49.9683" lon="2.41159">
        <ele>99.5</ele>
        <time>2022-04-20T14:49:17Z</time>
      </trkpt>
      <trkpt lat="49.96829" lon="2.4116">
        <ele>99.5</ele>
        <time>2022-04-20T14:49:18Z</time>
      </trkpt>
      <trkpt lat="49.96828" lon="2.41161">
        <ele>99.6</ele>
        <time>2022-04-20T14:49:19Z</time>
      </trkpt>
      <trkpt lat="49.96827" lon="2.41162">
        <ele>99.6</ele>
        <time>2022-04-20T14:49:20Z</time>
      </trkpt>
      <trkpt lat="49.96825" lon="2.41163">
        <ele>99.7</ele>
        <time>2022-04-20T14:49:21Z</time>
      </trkpt>
      <trkpt lat="49.96824" lon="2.41165">
        <ele>99.7</ele>
        <time>2022-04-20T14:49:22Z</time>
      </trkpt>
      <trkpt lat="49.96823" lon="2.41166">
        <ele>99.8</ele>
        <time>2022-04-20T14:49:24Z</time>
      </trkpt>
      <trkpt lat="49.96822" lon="2.41168">
        <ele>99.8</ele>
        <time>2022-04-20T14:49:25Z</time>
      </trkpt>
      <trkpt lat="49.96821" lon="2.41169">
        <ele>99.9</ele>
        <time>2022-04-20T14:49:26Z</time>
      </trkpt>
      <trkpt lat="49.9682" lon="2.4117">
        <ele>99.9</ele>
        <time>2022-04-20T14:49:27Z</time>
      </trkpt>
      <trkpt lat="49.96819" lon="2.41172">
        <ele>100</ele>
        <time>2022-04-20T14:49:28Z</time>
      </trkpt>
      <trkpt lat="49.96818" lon="2.41174">
        <ele>100</ele>
        <time>2022-04-20T14:49:29Z</time>
      </trkpt>
      <trkpt lat="49.96817" lon="2.41175">
        <ele>100.1</ele>
        <time>2022-04-20T14:49:30Z</time>
      </trkpt>
      <trkpt lat="49.96815" lon="2.41177">
        <ele>100.1</ele>
        <time>2022-04-20T14:49:32Z</time>
      </trkpt>
      <trkpt lat="49.96814" lon="2.41179">
        <ele>100.2</ele>
        <time>2022-04-20T14:49:33Z</time>
      </trkpt>
      <trkpt lat="49.96814" lon="2.4118">
        <ele>100.2</ele>
        <time>2022-04-20T14:49:34Z</time>
      </trkpt>
      <trkpt lat="49.96813" lon="2.41182">
        <ele>100.3</ele>
        <time>2022-04-20T14:49:35Z</time>
      </trkpt>
      <trkpt lat="49.96812" lon="2.41183">
        <ele>100.3</ele>
        <time>2022-04-20T14:49:36Z</time>
      </trkpt>
      <trkpt lat="49.96812" lon="2.41184">
        <ele>100.3</ele>
        <time>2022-04-20T14:49:37Z</time>
      </trkpt>
      <trkpt lat="49.96811" lon="2.41185">
        <ele>100.4</ele>
        <time>2022-04-20T14:49:38Z</time>
      </trkpt>
      <trkpt lat="49.9681" lon="2.41186">
        <ele>100.4</ele>
        <time>2022-04-20T14:49:39Z</time>
      </trkpt>
      <trkpt lat="49.96809" lon="2.41187">
        <ele>100.5</ele>
        <time>2022-04-20T14:49:41Z</time>
      </trkpt>
      <trkpt lat="49.96809" lon="2.41188">
        <ele>100.5</ele>
        <time>2022-04-20T14:49:42Z</time>
      </trkpt>
      <trkpt lat="49.96808" lon="2.41189">
        <ele>100.6</ele>
        <time>2022-04-20T14:49:43Z</time>
      </trkpt>
      <trkpt lat="49.96808" lon="2.4119">
        <ele>100.6</ele>
        <time>2022-04-20T14:49:44Z</time>
      </trkpt>
      <trkpt lat="49.96807" lon="2.41191">
        <ele>100.6</ele>
        <time>2022-04-20T14:49:45Z</time>
      </trkpt>
      <trkpt lat="49.96806" lon="2.41192">
        <ele>100.7</ele>
        <time>2022-04-20T14:49:46Z</time>
      </trkpt>
      <trkpt lat="49.96806" lon="2.41193">
        <ele>100.7</ele>
        <time>2022-04-20T14:49:48Z</time>
      </trkpt>
      <trkpt lat="49.96805" lon="2.41193">
        <ele>100.7</ele>
        <time>2022-04-20T14:49:49Z</time>
      </trkpt>
      <trkpt lat="49.96804" lon="2.41194">
        <ele>100.8</ele>
        <time>2022-04-20T14:49:50Z</time>
      </trkpt>
      <trkpt lat="49.96804" lon="2.41194">
        <ele>100.8</ele>
        <time>2022-04-20T14:49:51Z</time>
      </trkpt>
      <trkpt lat="49.96803" lon="2.41195">
        <ele>100.8</ele>
        <time>2022-04-20T14:49:52Z</time>
      </trkpt>
      <trkpt lat="49.96803" lon="2.41197">
        <ele>100.9</ele>
        <time>2022-04-20T14:49:53Z</time>
      </trkpt>
      <trkpt lat="49.96802" lon="2.41199">
        <ele>100.9</ele>
        <time>2022-04-20T14:49:55Z</time>
      </trkpt>
      <trkpt lat="49.96802" lon="2.412">
        <ele>101</ele>
        <time>2022-04-20T14:49:56Z</time>
      </trkpt>
      <trkpt lat="49.96801" lon="2.41201">
        <ele>101</ele>
        <time>2022-04-20T14:49:57Z</time>
      </trkpt>
      <trkpt lat="49.968" lon="2.41201">
        <ele>101</ele>
        <time>2022-04-20T14:49:58Z</time>
      </trkpt>
      <trkpt lat="49.96799" lon="2.41202">
        <ele>101</ele>
        <time>2022-04-20T14:49:59Z</time>
      </trkpt>
      <trkpt lat="49.96799" lon="2.41203">
        <ele>101.1</ele>
        <time>2022-04-20T14:50:00Z</time>
      </trkpt>
      <trkpt lat="49.96798" lon="2.41204">
        <ele>101.1</ele>
        <time>2022-04-20T14:50:02Z</time>
      </trkpt>
      <trkpt lat="49.96797" lon="2.41205">
        <ele>101.1</ele>
        <time>2022-04-20T14:50:03Z</time>
      </trkpt>
      <trkpt lat="49.96796" lon="2.41206">
        <ele>101.2</ele>
        <time>2022-04-20T14:50:04Z</time>
      </trkpt>
      <trkpt lat="49.96796" lon="2.41206">
        <ele>101.2</ele>
        <time>2022-04-20T14:50:05Z</time>
      </trkpt>
      <trkpt lat="49.96795" lon="2.41208">
        <ele>101.2</ele>
        <time>2022-04-20T14:50:06Z</time>
      </trkpt>
      <trkpt lat="49.96794" lon="2.41209">
        <ele>101.3</ele>
        <time>2022-04-20T14:50:07Z</time>
      </trkpt>
      <trkpt lat="49.96793" lon="2.41211">
        <ele>101.3</ele>
        <time>2022-04-20T14:50:09Z</time>
      </trkpt>
      <trkpt lat="49.96792" lon="2.41212">
        <ele>101.4</ele>
        <time>2022-04-20T14:50:10Z</time>
      </trkpt>
      <trkpt lat="49.96791" lon="2.41213">
        <ele>101.4</ele>
        <time>2022-04-20T14:50:11Z</time>
      </trkpt>
      <trkpt lat="49.96791" lon="2.41214">
        <ele>101.4</ele>
        <time>2022-04-20T14:50:12Z</time>
      </trkpt>
      <trkpt lat="49.9679" lon="2.41215">
        <ele>101.4</ele>
        <time>2022-04-20T14:50:13Z</time>
      </trkpt>
      <trkpt lat="49.9679" lon="2.41215">
        <ele>101.4</ele>
        <time>2022-04-20T14:50:14Z</time>
      </trkpt>
      <trkpt lat="49.96789" lon="2.41217">
        <ele>101.5</ele>
        <time>2022-04-20T14:50:15Z</time>
      </trkpt>
      <trkpt lat="49.96788" lon="2.41219">
        <ele>101.5</ele>
        <time>2022-04-20T14:50:16Z</time>
      </trkpt>
      <trkpt lat="49.96787" lon="2.4122">
        <ele>101.6</ele>
        <time>2022-04-20T14:50:18Z</time>
      </trkpt>
      <trkpt lat="49.96787" lon="2.41221">
        <ele>101.6</ele>
        <time>2022-04-20T14:50:19Z</time>
      </trkpt>
      <trkpt lat="49.96786" lon="2.41223">
        <ele>101.6</ele>
        <time>2022-04-20T14:50:20Z</time>
      </trkpt>
      <trkpt lat="49.96786" lon="2.41224">
        <ele>101.6</ele>
        <time>2022-04-20T14:50:21Z</time>
      </trkpt>
      <trkpt lat="49.96785" lon="2.41226">
        <ele>101.7</ele>
        <time>2022-04-20T14:50:22Z</time>
      </trkpt>
      <trkpt lat="49.96784" lon="2.41227">
        <ele>101.7</ele>
        <time>2022-04-20T14:50:23Z</time>
      </trkpt>
      <trkpt lat="49.96782" lon="2.41229">
        <ele>101.8</ele>
        <time>2022-04-20T14:50:25Z</time>
      </trkpt>
      <trkpt lat="49.96781" lon="2.41231">
        <ele>101.8</ele>
        <time>2022-04-20T14:50:26Z</time>
      </trkpt>
      <trkpt lat="49.9678" lon="2.41232">
        <ele>101.9</ele>
        <time>2022-04-20T14:50:27Z</time>
      </trkpt>
      <trkpt lat="49.96779" lon="2.41234">
        <ele>101.9</ele>
        <time>2022-04-20T14:50:28Z</time>
      </trkpt>
      <trkpt lat="49.96778" lon="2.41235">
        <ele>101.9</ele>
        <time>2022-04-20T14:50:29Z</time>
      </trkpt>
      <trkpt lat="49.96777" lon="2.41236">
        <ele>102</ele>
        <time>2022-04-20T14:50:31Z</time>
      </trkpt>
      <trkpt lat="49.96776" lon="2.41238">
        <ele>102</ele>
        <time>2022-04-20T14:50:32Z</time>
      </trkpt>
      <trkpt lat="49.96776" lon="2.41239">
        <ele>102</ele>
        <time>2022-04-20T14:50:33Z</time>
      </trkpt>
      <trkpt lat="49.96775" lon="2.4124">
        <ele>102.1</ele>
        <time>2022-04-20T14:50:34Z</time>
      </trkpt>
      <trkpt lat="49.96774" lon="2.41242">
        <ele>102.1</ele>
        <time>2022-04-20T14:50:35Z</time>
      </trkpt>
      <trkpt lat="49.96774" lon="2.41243">
        <ele>102.1</ele>
        <time>2022-04-20T14:50:37Z</time>
      </trkpt>
      <trkpt lat="49.96773" lon="2.41244">
        <ele>102.1</ele>
        <time>2022-04-20T14:50:38Z</time>
      </trkpt>
      <trkpt lat="49.96772" lon="2.41244">
        <ele>102.2</ele>
        <time>2022-04-20T14:50:39Z</time>
      </trkpt>
      <trkpt lat="49.96772" lon="2.41245">
        <ele>102.2</ele>
        <time>2022-04-20T14:50:40Z</time>
      </trkpt>
      <trkpt lat="49.96772" lon="2.41245">
        <ele>102.2</ele>
        <time>2022-04-20T14:50:41Z</time>
      </trkpt>
      <trkpt lat="49.96772" lon="2.41245">
        <ele>102.2</ele>
        <time>2022-04-20T14:50:42Z</time>
      </trkpt>
      <trkpt lat="49.96771" lon="2.41245">
        <ele>102.2</ele>
        <time>2022-04-20T14:50:43Z</time>
      </trkpt>
      <trkpt lat="49.96771" lon="2.41246">
        <ele>102.2</ele>
        <time>2022-04-20T14:50:44Z</time>
      </trkpt>
      <trkpt lat="49.9677" lon="2.41247">
        <ele>102.3</ele>
        <time>2022-04-20T14:50:45Z</time>
      </trkpt>
      <trkpt lat="49.96769" lon="2.41249">
        <ele>102.3</ele>
        <time>2022-04-20T14:50:46Z</time>
      </trkpt>
      <trkpt lat="49.96768" lon="2.4125">
        <ele>102.3</ele>
        <time>2022-04-20T14:50:48Z</time>
      </trkpt>
      <trkpt lat="49.96767" lon="2.41251">
        <ele>102.4</ele>
        <time>2022-04-20T14:50:49Z</time>
      </trkpt>
      <trkpt lat="49.96766" lon="2.41252">
        <ele>102.4</ele>
        <time>2022-04-20T14:50:50Z</time>
      </trkpt>
      <trkpt lat="49.96765" lon="2.41253">
        <ele>102.4</ele>
        <time>2022-04-20T14:50:51Z</time>
      </trkpt>
      <trkpt lat="49.96764" lon="2.41253">
        <ele>102.5</ele>
        <time>2022-04-20T14:50:52Z</time>
      </trkpt>
      <trkpt lat="49.96764" lon="2.41254">
        <ele>102.5</ele>
        <time>2022-04-20T14:50:54Z</time>
      </trkpt>
      <trkpt lat="49.96763" lon="2.41255">
        <ele>102.5</ele>
        <time>2022-04-20T14:50:55Z</time>
      </trkpt>
      <trkpt lat="49.96762" lon="2.41256">
        <ele>102.5</ele>
        <time>2022-04-20T14:50:56Z</time>
      </trkpt>
      <trkpt lat="49.96761" lon="2.41257">
        <ele>102.6</ele>
        <time>2022-04-20T14:50:57Z</time>
      </trkpt>
      <trkpt lat="49.9676" lon="2.41258">
        <ele>102.6</ele>
        <time>2022-04-20T14:50:59Z</time>
      </trkpt>
      <trkpt lat="49.96759" lon="2.41259">
        <ele>102.7</ele>
        <time>2022-04-20T14:51:00Z</time>
      </trkpt>
      <trkpt lat="49.96758" lon="2.4126">
        <ele>102.7</ele>
        <time>2022-04-20T14:51:01Z</time>
      </trkpt>
      <trkpt lat="49.96757" lon="2.41261">
        <ele>102.7</ele>
        <time>2022-04-20T14:51:02Z</time>
      </trkpt>
      <trkpt lat="49.96755" lon="2.41263">
        <ele>102.8</ele>
        <time>2022-04-20T14:51:03Z</time>
      </trkpt>
      <trkpt lat="49.96755" lon="2.41264">
        <ele>102.8</ele>
        <time>2022-04-20T14:51:05Z</time>
      </trkpt>
      <trkpt lat="49.96754" lon="2.41264">
        <ele>102.9</ele>
        <time>2022-04-20T14:51:06Z</time>
      </trkpt>
      <trkpt lat="49.96753" lon="2.41265">
        <ele>102.9</ele>
        <time>2022-04-20T14:51:07Z</time>
      </trkpt>
      <trkpt lat="49.96752" lon="2.41266">
        <ele>102.9</ele>
        <time>2022-04-20T14:51:08Z</time>
      </trkpt>
      <trkpt lat="49.9675" lon="2.41268">
        <ele>103</ele>
        <time>2022-04-20T14:51:09Z</time>
      </trkpt>
      <trkpt lat="49.96749" lon="2.41268">
        <ele>103</ele>
        <time>2022-04-20T14:51:10Z</time>
      </trkpt>
      <trkpt lat="49.96749" lon="2.41269">
        <ele>103</ele>
        <time>2022-04-20T14:51:11Z</time>
      </trkpt>
      <trkpt lat="49.96747" lon="2.4127">
        <ele>103.1</ele>
        <time>2022-04-20T14:51:12Z</time>
      </trkpt>
      <trkpt lat="49.96746" lon="2.41271">
        <ele>103.1</ele>
        <time>2022-04-20T14:51:13Z</time>
      </trkpt>
      <trkpt lat="49.96745" lon="2.41272">
        <ele>103.2</ele>
        <time>2022-04-20T14:51:15Z</time>
      </trkpt>
      <trkpt lat="49.96744" lon="2.41273">
        <ele>103.2</ele>
        <time>2022-04-20T14:51:16Z</time>
      </trkpt>
      <trkpt lat="49.96743" lon="2.41273">
        <ele>103.3</ele>
        <time>2022-04-20T14:51:17Z</time>
      </trkpt>
      <trkpt lat="49.96742" lon="2.41273">
        <ele>103.3</ele>
        <time>2022-04-20T14:51:18Z</time>
      </trkpt>
      <trkpt lat="49.96741" lon="2.41274">
        <ele>103.3</ele>
        <time>2022-04-20T14:51:19Z</time>
      </trkpt>
      <trkpt lat="49.96741" lon="2.41273">
        <ele>103.3</ele>
        <time>2022-04-20T14:51:20Z</time>
      </trkpt>
      <trkpt lat="49.9674" lon="2.41273">
        <ele>103.4</ele>
        <time>2022-04-20T14:51:21Z</time>
      </trkpt>
      <trkpt lat="49.9674" lon="2.41273">
        <ele>103.4</ele>
        <time>2022-04-20T14:51:22Z</time>
      </trkpt>
      <trkpt lat="49.96739" lon="2.41274">
        <ele>103.4</ele>
        <time>2022-04-20T14:51:23Z</time>
      </trkpt>
      <trkpt lat="49.96738" lon="2.41274">
        <ele>103.4</ele>
        <time>2022-04-20T14:51:24Z</time>
      </trkpt>
      <trkpt lat="49.96737" lon="2.41275">
        <ele>103.5</ele>
        <time>2022-04-20T14:51:25Z</time>
      </trkpt>
      <trkpt lat="49.96736" lon="2.41276">
        <ele>103.5</ele>
        <time>2022-04-20T14:51:26Z</time>
      </trkpt>
      <trkpt lat="49.96735" lon="2.41276">
        <ele>103.5</ele>
        <time>2022-04-20T14:51:28Z</time>
      </trkpt>
      <trkpt lat="49.96734" lon="2.41277">
        <ele>103.6</ele>
        <time>2022-04-20T14:51:29Z</time>
      </trkpt>
      <trkpt lat="49.96733" lon="2.41278">
        <ele>103.6</ele>
        <time>2022-04-20T14:51:30Z</time>
      </trkpt>
      <trkpt lat="49.96732" lon="2.41279">
        <ele>103.6</ele>
        <time>2022-04-20T14:51:31Z</time>
      </trkpt>
      <trkpt lat="49.96731" lon="2.41279">
        <ele>103.7</ele>
        <time>2022-04-20T14:51:32Z</time>
      </trkpt>
      <trkpt lat="49.9673" lon="2.4128">
        <ele>103.7</ele>
        <time>2022-04-20T14:51:33Z</time>
      </trkpt>
      <trkpt lat="49.96728" lon="2.41281">
        <ele>103.8</ele>
        <time>2022-04-20T14:51:34Z</time>
      </trkpt>
      <trkpt lat="49.96727" lon="2.41282">
        <ele>103.8</ele>
        <time>2022-04-20T14:51:36Z</time>
      </trkpt>
      <trkpt lat="49.96726" lon="2.41282">
        <ele>103.8</ele>
        <time>2022-04-20T14:51:37Z</time>
      </trkpt>
      <trkpt lat="49.96726" lon="2.41282">
        <ele>103.8</ele>
        <time>2022-04-20T14:51:38Z</time>
      </trkpt>
      <trkpt lat="49.96725" lon="2.41283">
        <ele>103.8</ele>
        <time>2022-04-20T14:51:39Z</time>
      </trkpt>
      <trkpt lat="49.96723" lon="2.41284">
        <ele>103.9</ele>
        <time>2022-04-20T14:51:41Z</time>
      </trkpt>
      <trkpt lat="49.96722" lon="2.41284">
        <ele>103.9</ele>
        <time>2022-04-20T14:51:42Z</time>
      </trkpt>
      <trkpt lat="49.96721" lon="2.41285">
        <ele>104</ele>
        <time>2022-04-20T14:51:43Z</time>
      </trkpt>
      <trkpt lat="49.9672" lon="2.41285">
        <ele>104</ele>
        <time>2022-04-20T14:51:44Z</time>
      </trkpt>
      <trkpt lat="49.96719" lon="2.41285">
        <ele>104</ele>
        <time>2022-04-20T14:51:45Z</time>
      </trkpt>
      <trkpt lat="49.96718" lon="2.41285">
        <ele>104</ele>
        <time>2022-04-20T14:51:46Z</time>
      </trkpt>
      <trkpt lat="49.96717" lon="2.41286">
        <ele>104.1</ele>
        <time>2022-04-20T14:51:47Z</time>
      </trkpt>
      <trkpt lat="49.96716" lon="2.41286">
        <ele>104.1</ele>
        <time>2022-04-20T14:51:48Z</time>
      </trkpt>
      <trkpt lat="49.96715" lon="2.41286">
        <ele>104.1</ele>
        <time>2022-04-20T14:51:49Z</time>
      </trkpt>
      <trkpt lat="49.96714" lon="2.41287">
        <ele>104.2</ele>
        <time>2022-04-20T14:51:50Z</time>
      </trkpt>
      <trkpt lat="49.96712" lon="2.41288">
        <ele>104.2</ele>
        <time>2022-04-20T14:51:51Z</time>
      </trkpt>
      <trkpt lat="49.96711" lon="2.41288">
        <ele>104.2</ele>
        <time>2022-04-20T14:51:53Z</time>
      </trkpt>
      <trkpt lat="49.9671" lon="2.41288">
        <ele>104.3</ele>
        <time>2022-04-20T14:51:54Z</time>
      </trkpt>
      <trkpt lat="49.96708" lon="2.41289">
        <ele>104.3</ele>
        <time>2022-04-20T14:51:55Z</time>
      </trkpt>
      <trkpt lat="49.96707" lon="2.41289">
        <ele>104.3</ele>
        <time>2022-04-20T14:51:56Z</time>
      </trkpt>
      <trkpt lat="49.96706" lon="2.41289">
        <ele>104.4</ele>
        <time>2022-04-20T14:51:57Z</time>
      </trkpt>
      <trkpt lat="49.96705" lon="2.41289">
        <ele>104.4</ele>
        <time>2022-04-20T14:51:58Z</time>
      </trkpt>
      <trkpt lat="49.96704" lon="2.4129">
        <ele>104.4</ele>
        <time>2022-04-20T14:51:59Z</time>
      </trkpt>
      <trkpt lat="49.96702" lon="2.41289">
        <ele>104.5</ele>
        <time>2022-04-20T14:52:01Z</time>
      </trkpt>
      <trkpt lat="49.96701" lon="2.41289">
        <ele>104.5</ele>
        <time>2022-04-20T14:52:02Z</time>
      </trkpt>
      <trkpt lat="49.967" lon="2.41289">
        <ele>104.5</ele>
        <time>2022-04-20T14:52:03Z</time>
      </trkpt>
      <trkpt lat="49.96698" lon="2.41289">
        <ele>104.5</ele>
        <time>2022-04-20T14:52:04Z</time>
      </trkpt>
      <trkpt lat="49.96697" lon="2.41289">
        <ele>104.6</ele>
        <time>2022-04-20T14:52:05Z</time>
      </trkpt>
      <trkpt lat="49.96696" lon="2.4129">
        <ele>104.6</ele>
        <time>2022-04-20T14:52:06Z</time>
      </trkpt>
      <trkpt lat="49.96694" lon="2.4129">
        <ele>104.6</ele>
        <time>2022-04-20T14:52:08Z</time>
      </trkpt>
      <trkpt lat="49.96693" lon="2.4129">
        <ele>104.7</ele>
        <time>2022-04-20T14:52:09Z</time>
      </trkpt>
      <trkpt lat="49.96692" lon="2.4129">
        <ele>104.7</ele>
        <time>2022-04-20T14:52:10Z</time>
      </trkpt>
      <trkpt lat="49.96691" lon="2.41289">
        <ele>104.7</ele>
        <time>2022-04-20T14:52:11Z</time>
      </trkpt>
      <trkpt lat="49.9669" lon="2.41289">
        <ele>104.7</ele>
        <time>2022-04-20T14:52:12Z</time>
      </trkpt>
      <trkpt lat="49.96691" lon="2.41287">
        <ele>104.7</ele>
        <time>2022-04-20T14:52:13Z</time>
      </trkpt>
      <trkpt lat="49.96691" lon="2.41286">
        <ele>104.7</ele>
        <time>2022-04-20T14:52:14Z</time>
      </trkpt>
      <trkpt lat="49.96691" lon="2.41285">
        <ele>104.8</ele>
        <time>2022-04-20T14:52:15Z</time>
      </trkpt>
      <trkpt lat="49.96691" lon="2.41285">
        <ele>104.8</ele>
        <time>2022-04-20T14:52:16Z</time>
      </trkpt>
      <trkpt lat="49.96692" lon="2.41284">
        <ele>104.8</ele>
        <time>2022-04-20T14:52:17Z</time>
      </trkpt>
      <trkpt lat="49.96692" lon="2.41284">
        <ele>104.8</ele>
        <time>2022-04-20T14:52:18Z</time>
      </trkpt>
      <trkpt lat="49.96692" lon="2.41284">
        <ele>104.8</ele>
        <time>2022-04-20T14:52:19Z</time>
      </trkpt>
      <trkpt lat="49.96692" lon="2.41284">
        <ele>104.8</ele>
        <time>2022-04-20T14:52:20Z</time>
      </trkpt>
      <trkpt lat="49.96692" lon="2.41284">
        <ele>104.8</ele>
        <time>2022-04-20T14:52:22Z</time>
      </trkpt>
      <trkpt lat="49.96692" lon="2.41283">
        <ele>104.8</ele>
        <time>2022-04-20T14:52:23Z</time>
      </trkpt>
      <trkpt lat="49.96692" lon="2.41282">
        <ele>104.8</ele>
        <time>2022-04-20T14:52:24Z</time>
      </trkpt>
      <trkpt lat="49.96692" lon="2.41281">
        <ele>104.8</ele>
        <time>2022-04-20T14:52:25Z</time>
      </trkpt>
      <trkpt lat="49.96692" lon="2.41281">
        <ele>104.8</ele>
        <time>2022-04-20T14:52:26Z</time>
      </trkpt>
      <trkpt lat="49.96692" lon="2.41281">
        <ele>104.9</ele>
        <time>2022-04-20T14:52:27Z</time>
      </trkpt>
      <trkpt lat="49.96692" lon="2.4128">
        <ele>104.9</ele>
        <time>2022-04-20T14:52:28Z</time>
      </trkpt>
      <trkpt lat="49.96693" lon="2.4128">
        <ele>104.9</ele>
        <time>2022-04-20T14:52:29Z</time>
      </trkpt>
      <trkpt lat="49.96693" lon="2.4128">
        <ele>104.9</ele>
        <time>2022-04-20T14:52:30Z</time>
      </trkpt>
      <trkpt lat="49.96693" lon="2.4128">
        <ele>104.9</ele>
        <time>2022-04-20T14:52:31Z</time>
      </trkpt>
      <trkpt lat="49.96693" lon="2.4128">
        <ele>104.9</ele>
        <time>2022-04-20T14:52:32Z</time>
      </trkpt>
      <trkpt lat="49.96693" lon="2.41279">
        <ele>104.9</ele>
        <time>2022-04-20T14:52:33Z</time>
      </trkpt>
      <trkpt lat="49.96692" lon="2.41279">
        <ele>104.9</ele>
        <time>2022-04-20T14:52:34Z</time>
      </trkpt>
      <trkpt lat="49.96692" lon="2.41279">
        <ele>104.9</ele>
        <time>2022-04-20T14:52:35Z</time>
      </trkpt>
      <trkpt lat="49.96692" lon="2.4128">
        <ele>104.9</ele>
        <time>2022-04-20T14:52:36Z</time>
      </trkpt>
      <trkpt lat="49.96692" lon="2.4128">
        <ele>104.9</ele>
        <time>2022-04-20T14:52:37Z</time>
      </trkpt>
      <trkpt lat="49.96692" lon="2.4128">
        <ele>104.9</ele>
        <time>2022-04-20T14:52:38Z</time>
      </trkpt>
      <trkpt lat="49.96692" lon="2.4128">
        <ele>104.9</ele>
        <time>2022-04-20T14:52:39Z</time>
      </trkpt>
      <trkpt lat="49.96691" lon="2.41281">
        <ele>104.9</ele>
        <time>2022-04-20T14:52:41Z</time>
      </trkpt>
      <trkpt lat="49.9669" lon="2.41282">
        <ele>104.9</ele>
        <time>2022-04-20T14:52:42Z</time>
      </trkpt>
      <trkpt lat="49.9669" lon="2.41283">
        <ele>105</ele>
        <time>2022-04-20T14:52:43Z</time>
      </trkpt>
      <trkpt lat="49.9669" lon="2.41283">
        <ele>105</ele>
        <time>2022-04-20T14:52:44Z</time>
      </trkpt>
      <trkpt lat="49.9669" lon="2.41285">
        <ele>105</ele>
        <time>2022-04-20T14:52:45Z</time>
      </trkpt>
      <trkpt lat="49.9669" lon="2.41286">
        <ele>105</ele>
        <time>2022-04-20T14:52:46Z</time>
      </trkpt>
      <trkpt lat="49.9669" lon="2.41287">
        <ele>105</ele>
        <time>2022-04-20T14:52:47Z</time>
      </trkpt>
      <trkpt lat="49.9669" lon="2.41287">
        <ele>105</ele>
        <time>2022-04-20T14:52:48Z</time>
      </trkpt>
      <trkpt lat="49.96689" lon="2.41286">
        <ele>105</ele>
        <time>2022-04-20T14:52:50Z</time>
      </trkpt>
      <trkpt lat="49.96688" lon="2.41287">
        <ele>105.1</ele>
        <time>2022-04-20T14:52:51Z</time>
      </trkpt>
      <trkpt lat="49.96688" lon="2.41287">
        <ele>105.1</ele>
        <time>2022-04-20T14:52:52Z</time>
      </trkpt>
      <trkpt lat="49.96686" lon="2.41287">
        <ele>105.1</ele>
        <time>2022-04-20T14:52:53Z</time>
      </trkpt>
      <trkpt lat="49.96685" lon="2.41288">
        <ele>105.1</ele>
        <time>2022-04-20T14:52:54Z</time>
      </trkpt>
      <trkpt lat="49.96684" lon="2.41288">
        <ele>105.2</ele>
        <time>2022-04-20T14:52:55Z</time>
      </trkpt>
      <trkpt lat="49.96682" lon="2.41288">
        <ele>105.2</ele>
        <time>2022-04-20T14:52:57Z</time>
      </trkpt>
      <trkpt lat="49.96681" lon="2.41289">
        <ele>105.2</ele>
        <time>2022-04-20T14:52:58Z</time>
      </trkpt>
      <trkpt lat="49.9668" lon="2.41289">
        <ele>105.2</ele>
        <time>2022-04-20T14:52:59Z</time>
      </trkpt>
      <trkpt lat="49.96679" lon="2.41289">
        <ele>105.2</ele>
        <time>2022-04-20T14:53:00Z</time>
      </trkpt>
      <trkpt lat="49.96678" lon="2.4129">
        <ele>105.3</ele>
        <time>2022-04-20T14:53:01Z</time>
      </trkpt>
      <trkpt lat="49.96677" lon="2.4129">
        <ele>105.3</ele>
        <time>2022-04-20T14:53:02Z</time>
      </trkpt>
      <trkpt lat="49.96675" lon="2.41289">
        <ele>105.3</ele>
        <time>2022-04-20T14:53:03Z</time>
      </trkpt>
      <trkpt lat="49.96674" lon="2.41289">
        <ele>105.3</ele>
        <time>2022-04-20T14:53:05Z</time>
      </trkpt>
      <trkpt lat="49.96673" lon="2.41288">
        <ele>105.3</ele>
        <time>2022-04-20T14:53:06Z</time>
      </trkpt>
      <trkpt lat="49.96672" lon="2.41288">
        <ele>105.3</ele>
        <time>2022-04-20T14:53:07Z</time>
      </trkpt>
      <trkpt lat="49.96671" lon="2.41288">
        <ele>105.3</ele>
        <time>2022-04-20T14:53:08Z</time>
      </trkpt>
      <trkpt lat="49.9667" lon="2.41289">
        <ele>105.3</ele>
        <time>2022-04-20T14:53:09Z</time>
      </trkpt>
      <trkpt lat="49.96669" lon="2.41289">
        <ele>105.3</ele>
        <time>2022-04-20T14:53:10Z</time>
      </trkpt>
      <trkpt lat="49.96669" lon="2.41289">
        <ele>105.3</ele>
        <time>2022-04-20T14:53:11Z</time>
      </trkpt>
      <trkpt lat="49.96669" lon="2.41289">
        <ele>105.3</ele>
        <time>2022-04-20T14:53:12Z</time>
      </trkpt>
      <trkpt lat="49.96669" lon="2.41289">
        <ele>105.3</ele>
        <time>2022-04-20T14:53:13Z</time>
      </trkpt>
      <trkpt lat="49.96669" lon="2.41289">
        <ele>105.3</ele>
        <time>2022-04-20T14:53:14Z</time>
      </trkpt>
      <trkpt lat="49.96669" lon="2.41289">
        <ele>105.3</ele>
        <time>2022-04-20T14:53:15Z</time>
      </trkpt>
      <trkpt lat="49.96669" lon="2.41289">
        <ele>105.4</ele>
        <time>2022-04-20T14:53:17Z</time>
      </trkpt>
      <trkpt lat="49.96669" lon="2.41288">
        <ele>105.4</ele>
        <time>2022-04-20T14:53:18Z</time>
      </trkpt>
      <trkpt lat="49.96668" lon="2.41288">
        <ele>105.4</ele>
        <time>2022-04-20T14:53:19Z</time>
      </trkpt>
      <trkpt lat="49.96668" lon="2.41288">
        <ele>105.4</ele>
        <time>2022-04-20T14:53:20Z</time>
      </trkpt>
      <trkpt lat="49.96667" lon="2.41288">
        <ele>105.4</ele>
        <time>2022-04-20T14:53:21Z</time>
      </trkpt>
      <trkpt lat="49.96665" lon="2.41288">
        <ele>105.4</ele>
        <time>2022-04-20T14:53:23Z</time>
      </trkpt>
      <trkpt lat="49.96664" lon="2.41288">
        <ele>105.4</ele>
        <time>2022-04-20T14:53:24Z</time>
      </trkpt>
      <trkpt lat="49.96664" lon="2.41288">
        <ele>105.4</ele>
        <time>2022-04-20T14:53:25Z</time>
      </trkpt>
      <trkpt lat="49.96663" lon="2.41288">
        <ele>105.4</ele>
        <time>2022-04-20T14:53:26Z</time>
      </trkpt>
      <trkpt lat="49.96663" lon="2.41289">
        <ele>105.4</ele>
        <time>2022-04-20T14:53:27Z</time>
      </trkpt>
      <trkpt lat="49.96662" lon="2.41289">
        <ele>105.4</ele>
        <time>2022-04-20T14:53:29Z</time>
      </trkpt>
      <trkpt lat="49.96661" lon="2.41289">
        <ele>105.4</ele>
        <time>2022-04-20T14:53:30Z</time>
      </trkpt>
      <trkpt lat="49.96661" lon="2.4129">
        <ele>105.4</ele>
        <time>2022-04-20T14:53:31Z</time>
      </trkpt>
      <trkpt lat="49.9666" lon="2.4129">
        <ele>105.4</ele>
        <time>2022-04-20T14:53:32Z</time>
      </trkpt>
      <trkpt lat="49.96659" lon="2.4129">
        <ele>105.4</ele>
        <time>2022-04-20T14:53:33Z</time>
      </trkpt>
      <trkpt lat="49.96657" lon="2.41291">
        <ele>105.4</ele>
        <time>2022-04-20T14:53:35Z</time>
      </trkpt>
      <trkpt lat="49.96657" lon="2.41292">
        <ele>105.5</ele>
        <time>2022-04-20T14:53:36Z</time>
      </trkpt>
      <trkpt lat="49.96656" lon="2.41293">
        <ele>105.5</ele>
        <time>2022-04-20T14:53:37Z</time>
      </trkpt>
      <trkpt lat="49.96656" lon="2.41293">
        <ele>105.5</ele>
        <time>2022-04-20T14:53:38Z</time>
      </trkpt>
      <trkpt lat="49.96655" lon="2.41293">
        <ele>105.5</ele>
        <time>2022-04-20T14:53:39Z</time>
      </trkpt>
      <trkpt lat="49.96655" lon="2.41293">
        <ele>105.5</ele>
        <time>2022-04-20T14:53:40Z</time>
      </trkpt>
      <trkpt lat="49.96654" lon="2.41293">
        <ele>105.5</ele>
        <time>2022-04-20T14:53:41Z</time>
      </trkpt>
      <trkpt lat="49.96654" lon="2.41293">
        <ele>105.5</ele>
        <time>2022-04-20T14:53:42Z</time>
      </trkpt>
      <trkpt lat="49.96653" lon="2.41293">
        <ele>105.5</ele>
        <time>2022-04-20T14:53:43Z</time>
      </trkpt>
      <trkpt lat="49.96652" lon="2.41292">
        <ele>105.5</ele>
        <time>2022-04-20T14:53:45Z</time>
      </trkpt>
      <trkpt lat="49.96651" lon="2.41291">
        <ele>105.5</ele>
        <time>2022-04-20T14:53:46Z</time>
      </trkpt>
      <trkpt lat="49.96651" lon="2.41291">
        <ele>105.5</ele>
        <time>2022-04-20T14:53:47Z</time>
      </trkpt>
      <trkpt lat="49.96651" lon="2.41291">
        <ele>105.5</ele>
        <time>2022-04-20T14:53:48Z</time>
      </trkpt>
      <trkpt lat="49.96651" lon="2.41291">
        <ele>105.5</ele>
        <time>2022-04-20T14:53:49Z</time>
      </trkpt>
      <trkpt lat="49.96651" lon="2.4129">
        <ele>105.5</ele>
        <time>2022-04-20T14:53:50Z</time>
      </trkpt>
      <trkpt lat="49.96651" lon="2.4129">
        <ele>105.5</ele>
        <time>2022-04-20T14:53:51Z</time>
      </trkpt>
      <trkpt lat="49.96651" lon="2.4129">
        <ele>105.5</ele>
        <time>2022-04-20T14:53:52Z</time>
      </trkpt>
      <trkpt lat="49.96651" lon="2.4129">
        <ele>105.5</ele>
        <time>2022-04-20T14:53:53Z</time>
      </trkpt>
      <trkpt lat="49.96651" lon="2.4129">
        <ele>105.5</ele>
        <time>2022-04-20T14:53:54Z</time>
      </trkpt>
      <trkpt lat="49.96651" lon="2.4129">
        <ele>105.5</ele>
        <time>2022-04-20T14:53:55Z</time>
      </trkpt>
      <trkpt lat="49.96651" lon="2.41289">
        <ele>105.5</ele>
        <time>2022-04-20T14:53:56Z</time>
      </trkpt>
      <trkpt lat="49.96651" lon="2.4129">
        <ele>105.5</ele>
        <time>2022-04-20T14:53:57Z</time>
      </trkpt>
      <trkpt lat="49.96651" lon="2.4129">
        <ele>105.5</ele>
        <time>2022-04-20T14:53:58Z</time>
      </trkpt>
      <trkpt lat="49.96651" lon="2.4129">
        <ele>105.5</ele>
        <time>2022-04-20T14:53:59Z</time>
      </trkpt>
      <trkpt lat="49.96651" lon="2.4129">
        <ele>105.5</ele>
        <time>2022-04-20T14:54:00Z</time>
      </trkpt>
      <trkpt lat="49.96651" lon="2.4129">
        <ele>105.5</ele>
        <time>2022-04-20T14:54:01Z</time>
      </trkpt>
      <trkpt lat="49.96651" lon="2.4129">
        <ele>105.5</ele>
        <time>2022-04-20T14:54:02Z</time>
      </trkpt>
      <trkpt lat="49.96651" lon="2.4129">
        <ele>105.5</ele>
        <time>2022-04-20T14:54:03Z</time>
      </trkpt>
      <trkpt lat="49.96651" lon="2.4129">
        <ele>105.5</ele>
        <time>2022-04-20T14:54:04Z</time>
      </trkpt>
      <trkpt lat="49.96651" lon="2.4129">
        <ele>105.5</ele>
        <time>2022-04-20T14:54:05Z</time>
      </trkpt>
      <trkpt lat="49.96651" lon="2.4129">
        <ele>105.5</ele>
        <time>2022-04-20T14:54:06Z</time>
      </trkpt>
      <trkpt lat="49.96651" lon="2.4129">
        <ele>105.5</ele>
        <time>2022-04-20T14:54:07Z</time>
      </trkpt>
      <trkpt lat="49.96651" lon="2.4129">
        <ele>105.5</ele>
        <time>2022-04-20T14:54:08Z</time>
      </trkpt>
      <trkpt lat="49.96651" lon="2.4129">
        <ele>105.5</ele>
        <time>2022-04-20T14:54:09Z</time>
      </trkpt>
      <trkpt lat="49.96651" lon="2.4129">
        <ele>105.5</ele>
        <time>2022-04-20T14:54:10Z</time>
      </trkpt>
      <trkpt lat="49.96651" lon="2.4129">
        <ele>105.5</ele>
        <time>2022-04-20T14:54:11Z</time>
      </trkpt>
      <trkpt lat="49.96651" lon="2.4129">
        <ele>105.5</ele>
        <time>2022-04-20T14:54:12Z</time>
      </trkpt>
      <trkpt lat="49.96651" lon="2.4129">
        <ele>105.5</ele>
        <time>2022-04-20T14:54:13Z</time>
      </trkpt>
      <trkpt lat="49.9665" lon="2.4129">
        <ele>105.5</ele>
        <time>2022-04-20T14:54:14Z</time>
      </trkpt>
      <trkpt lat="49.9665" lon="2.4129">
        <ele>105.5</ele>
        <time>2022-04-20T14:54:15Z</time>
      </trkpt>
      <trkpt lat="49.96649" lon="2.4129">
        <ele>105.5</ele>
        <time>2022-04-20T14:54:16Z</time>
      </trkpt>
      <trkpt lat="49.96649" lon="2.4129">
        <ele>105.6</ele>
        <time>2022-04-20T14:54:17Z</time>
      </trkpt>
      <trkpt lat="49.96648" lon="2.4129">
        <ele>105.6</ele>
        <time>2022-04-20T14:54:18Z</time>
      </trkpt>
      <trkpt lat="49.96647" lon="2.41291">
        <ele>105.6</ele>
        <time>2022-04-20T14:54:19Z</time>
      </trkpt>
      <trkpt lat="49.96646" lon="2.41291">
        <ele>105.6</ele>
        <time>2022-04-20T14:54:21Z</time>
      </trkpt>
      <trkpt lat="49.96644" lon="2.41291">
        <ele>105.6</ele>
        <time>2022-04-20T14:54:22Z</time>
      </trkpt>
      <trkpt lat="49.96644" lon="2.41291">
        <ele>105.6</ele>
        <time>2022-04-20T14:54:23Z</time>
      </trkpt>
      <trkpt lat="49.96643" lon="2.41291">
        <ele>105.6</ele>
        <time>2022-04-20T14:54:24Z</time>
      </trkpt>
      <trkpt lat="49.96642" lon="2.41292">
        <ele>105.6</ele>
        <time>2022-04-20T14:54:25Z</time>
      </trkpt>
      <trkpt lat="49.96641" lon="2.41292">
        <ele>105.6</ele>
        <time>2022-04-20T14:54:26Z</time>
      </trkpt>
      <trkpt lat="49.9664" lon="2.41291">
        <ele>105.6</ele>
        <time>2022-04-20T14:54:28Z</time>
      </trkpt>
      <trkpt lat="49.96639" lon="2.4129">
        <ele>105.6</ele>
        <time>2022-04-20T14:54:29Z</time>
      </trkpt>
      <trkpt lat="49.96639" lon="2.41289">
        <ele>105.7</ele>
        <time>2022-04-20T14:54:30Z</time>
      </trkpt>
      <trkpt lat="49.96638" lon="2.41289">
        <ele>105.7</ele>
        <time>2022-04-20T14:54:31Z</time>
      </trkpt>
      <trkpt lat="49.96637" lon="2.41288">
        <ele>105.7</ele>
        <time>2022-04-20T14:54:32Z</time>
      </trkpt>
      <trkpt lat="49.96635" lon="2.41288">
        <ele>105.7</ele>
        <time>2022-04-20T14:54:33Z</time>
      </trkpt>
      <trkpt lat="49.96633" lon="2.41288">
        <ele>105.7</ele>
        <time>2022-04-20T14:54:35Z</time>
      </trkpt>
      <trkpt lat="49.96632" lon="2.41288">
        <ele>105.7</ele>
        <time>2022-04-20T14:54:36Z</time>
      </trkpt>
      <trkpt lat="49.96632" lon="2.41287">
        <ele>105.7</ele>
        <time>2022-04-20T14:54:37Z</time>
      </trkpt>
      <trkpt lat="49.9663" lon="2.41287">
        <ele>105.7</ele>
        <time>2022-04-20T14:54:38Z</time>
      </trkpt>
      <trkpt lat="49.96629" lon="2.41287">
        <ele>105.8</ele>
        <time>2022-04-20T14:54:39Z</time>
      </trkpt>
      <trkpt lat="49.96628" lon="2.41287">
        <ele>105.8</ele>
        <time>2022-04-20T14:54:41Z</time>
      </trkpt>
      <trkpt lat="49.96627" lon="2.41286">
        <ele>105.8</ele>
        <time>2022-04-20T14:54:42Z</time>
      </trkpt>
      <trkpt lat="49.96626" lon="2.41286">
        <ele>105.8</ele>
        <time>2022-04-20T14:54:43Z</time>
      </trkpt>
      <trkpt lat="49.96625" lon="2.41284">
        <ele>105.8</ele>
        <time>2022-04-20T14:54:44Z</time>
      </trkpt>
      <trkpt lat="49.96623" lon="2.41284">
        <ele>105.9</ele>
        <time>2022-04-20T14:54:45Z</time>
      </trkpt>
      <trkpt lat="49.96622" lon="2.41284">
        <ele>105.9</ele>
        <time>2022-04-20T14:54:46Z</time>
      </trkpt>
      <trkpt lat="49.96621" lon="2.41284">
        <ele>106</ele>
        <time>2022-04-20T14:54:48Z</time>
      </trkpt>
      <trkpt lat="49.9662" lon="2.41284">
        <ele>106</ele>
        <time>2022-04-20T14:54:49Z</time>
      </trkpt>
      <trkpt lat="49.96619" lon="2.41284">
        <ele>106</ele>
        <time>2022-04-20T14:54:50Z</time>
      </trkpt>
      <trkpt lat="49.96619" lon="2.41285">
        <ele>106</ele>
        <time>2022-04-20T14:54:51Z</time>
      </trkpt>
      <trkpt lat="49.96618" lon="2.41285">
        <ele>106</ele>
        <time>2022-04-20T14:54:52Z</time>
      </trkpt>
      <trkpt lat="49.96617" lon="2.41285">
        <ele>106.1</ele>
        <time>2022-04-20T14:54:53Z</time>
      </trkpt>
      <trkpt lat="49.96616" lon="2.41284">
        <ele>106.1</ele>
        <time>2022-04-20T14:54:54Z</time>
      </trkpt>
      <trkpt lat="49.96614" lon="2.41284">
        <ele>106.2</ele>
        <time>2022-04-20T14:54:55Z</time>
      </trkpt>
      <trkpt lat="49.96613" lon="2.41284">
        <ele>106.2</ele>
        <time>2022-04-20T14:54:57Z</time>
      </trkpt>
      <trkpt lat="49.96611" lon="2.41284">
        <ele>106.3</ele>
        <time>2022-04-20T14:54:58Z</time>
      </trkpt>
      <trkpt lat="49.9661" lon="2.41283">
        <ele>106.3</ele>
        <time>2022-04-20T14:54:59Z</time>
      </trkpt>
      <trkpt lat="49.96608" lon="2.41283">
        <ele>106.4</ele>
        <time>2022-04-20T14:55:00Z</time>
      </trkpt>
      <trkpt lat="49.96607" lon="2.41283">
        <ele>106.4</ele>
        <time>2022-04-20T14:55:01Z</time>
      </trkpt>
      <trkpt lat="49.96606" lon="2.41283">
        <ele>106.4</ele>
        <time>2022-04-20T14:55:02Z</time>
      </trkpt>
      <trkpt lat="49.96605" lon="2.41283">
        <ele>106.5</ele>
        <time>2022-04-20T14:55:03Z</time>
      </trkpt>
      <trkpt lat="49.96603" lon="2.41283">
        <ele>106.5</ele>
        <time>2022-04-20T14:55:04Z</time>
      </trkpt>
      <trkpt lat="49.96602" lon="2.41283">
        <ele>106.6</ele>
        <time>2022-04-20T14:55:06Z</time>
      </trkpt>
      <trkpt lat="49.96601" lon="2.41283">
        <ele>106.6</ele>
        <time>2022-04-20T14:55:07Z</time>
      </trkpt>
      <trkpt lat="49.96599" lon="2.41282">
        <ele>106.7</ele>
        <time>2022-04-20T14:55:08Z</time>
      </trkpt>
      <trkpt lat="49.96598" lon="2.41282">
        <ele>106.7</ele>
        <time>2022-04-20T14:55:09Z</time>
      </trkpt>
      <trkpt lat="49.96597" lon="2.41282">
        <ele>106.8</ele>
        <time>2022-04-20T14:55:10Z</time>
      </trkpt>
      <trkpt lat="49.96596" lon="2.41282">
        <ele>106.8</ele>
        <time>2022-04-20T14:55:11Z</time>
      </trkpt>
      <trkpt lat="49.96594" lon="2.41281">
        <ele>106.9</ele>
        <time>2022-04-20T14:55:12Z</time>
      </trkpt>
      <trkpt lat="49.96592" lon="2.41281">
        <ele>106.9</ele>
        <time>2022-04-20T14:55:13Z</time>
      </trkpt>
      <trkpt lat="49.96591" lon="2.41281">
        <ele>107</ele>
        <time>2022-04-20T14:55:15Z</time>
      </trkpt>
      <trkpt lat="49.9659" lon="2.4128">
        <ele>107</ele>
        <time>2022-04-20T14:55:16Z</time>
      </trkpt>
      <trkpt lat="49.96589" lon="2.4128">
        <ele>107</ele>
        <time>2022-04-20T14:55:17Z</time>
      </trkpt>
      <trkpt lat="49.96588" lon="2.4128">
        <ele>107.1</ele>
        <time>2022-04-20T14:55:18Z</time>
      </trkpt>
      <trkpt lat="49.96587" lon="2.41279">
        <ele>107.1</ele>
        <time>2022-04-20T14:55:19Z</time>
      </trkpt>
      <trkpt lat="49.96585" lon="2.41279">
        <ele>107.2</ele>
        <time>2022-04-20T14:55:20Z</time>
      </trkpt>
      <trkpt lat="49.96584" lon="2.41279">
        <ele>107.2</ele>
        <time>2022-04-20T14:55:21Z</time>
      </trkpt>
      <trkpt lat="49.96584" lon="2.41279">
        <ele>107.2</ele>
        <time>2022-04-20T14:55:22Z</time>
      </trkpt>
      <trkpt lat="49.96582" lon="2.41279">
        <ele>107.3</ele>
        <time>2022-04-20T14:55:23Z</time>
      </trkpt>
      <trkpt lat="49.96581" lon="2.41279">
        <ele>107.3</ele>
        <time>2022-04-20T14:55:25Z</time>
      </trkpt>
      <trkpt lat="49.9658" lon="2.41279">
        <ele>107.3</ele>
        <time>2022-04-20T14:55:26Z</time>
      </trkpt>
      <trkpt lat="49.96579" lon="2.41279">
        <ele>107.4</ele>
        <time>2022-04-20T14:55:27Z</time>
      </trkpt>
      <trkpt lat="49.96578" lon="2.41279">
        <ele>107.4</ele>
        <time>2022-04-20T14:55:28Z</time>
      </trkpt>
      <trkpt lat="49.96577" lon="2.41278">
        <ele>107.4</ele>
        <time>2022-04-20T14:55:29Z</time>
      </trkpt>
      <trkpt lat="49.96575" lon="2.41278">
        <ele>107.5</ele>
        <time>2022-04-20T14:55:31Z</time>
      </trkpt>
      <trkpt lat="49.96574" lon="2.41277">
        <ele>107.5</ele>
        <time>2022-04-20T14:55:32Z</time>
      </trkpt>
      <trkpt lat="49.96573" lon="2.41277">
        <ele>107.6</ele>
        <time>2022-04-20T14:55:33Z</time>
      </trkpt>
      <trkpt lat="49.96572" lon="2.41277">
        <ele>107.6</ele>
        <time>2022-04-20T14:55:34Z</time>
      </trkpt>
      <trkpt lat="49.96571" lon="2.41276">
        <ele>107.6</ele>
        <time>2022-04-20T14:55:35Z</time>
      </trkpt>
      <trkpt lat="49.9657" lon="2.41276">
        <ele>107.7</ele>
        <time>2022-04-20T14:55:36Z</time>
      </trkpt>
      <trkpt lat="49.96569" lon="2.41276">
        <ele>107.7</ele>
        <time>2022-04-20T14:55:37Z</time>
      </trkpt>
      <trkpt lat="49.96568" lon="2.41275">
        <ele>107.7</ele>
        <time>2022-04-20T14:55:39Z</time>
      </trkpt>
      <trkpt lat="49.96567" lon="2.41275">
        <ele>107.8</ele>
        <time>2022-04-20T14:55:40Z</time>
      </trkpt>
      <trkpt lat="49.96566" lon="2.41275">
        <ele>107.8</ele>
        <time>2022-04-20T14:55:41Z</time>
      </trkpt>
      <trkpt lat="49.96565" lon="2.41274">
        <ele>107.8</ele>
        <time>2022-04-20T14:55:42Z</time>
      </trkpt>
      <trkpt lat="49.96564" lon="2.41273">
        <ele>107.9</ele>
        <time>2022-04-20T14:55:43Z</time>
      </trkpt>
      <trkpt lat="49.96563" lon="2.41273">
        <ele>107.9</ele>
        <time>2022-04-20T14:55:44Z</time>
      </trkpt>
      <trkpt lat="49.96561" lon="2.41272">
        <ele>107.9</ele>
        <time>2022-04-20T14:55:45Z</time>
      </trkpt>
      <trkpt lat="49.9656" lon="2.41271">
        <ele>108</ele>
        <time>2022-04-20T14:55:46Z</time>
      </trkpt>
      <trkpt lat="49.96559" lon="2.4127">
        <ele>108</ele>
        <time>2022-04-20T14:55:48Z</time>
      </trkpt>
      <trkpt lat="49.96558" lon="2.41269">
        <ele>108.1</ele>
        <time>2022-04-20T14:55:49Z</time>
      </trkpt>
      <trkpt lat="49.96557" lon="2.41268">
        <ele>108.1</ele>
        <time>2022-04-20T14:55:50Z</time>
      </trkpt>
      <trkpt lat="49.96555" lon="2.41268">
        <ele>108.1</ele>
        <time>2022-04-20T14:55:51Z</time>
      </trkpt>
      <trkpt lat="49.96554" lon="2.41267">
        <ele>108.2</ele>
        <time>2022-04-20T14:55:52Z</time>
      </trkpt>
      <trkpt lat="49.96553" lon="2.41267">
        <ele>108.2</ele>
        <time>2022-04-20T14:55:53Z</time>
      </trkpt>
      <trkpt lat="49.9655" lon="2.41267">
        <ele>108.3</ele>
        <time>2022-04-20T14:55:54Z</time>
      </trkpt>
      <trkpt lat="49.96549" lon="2.41266">
        <ele>108.3</ele>
        <time>2022-04-20T14:55:55Z</time>
      </trkpt>
      <trkpt lat="49.96549" lon="2.41266">
        <ele>108.3</ele>
        <time>2022-04-20T14:55:57Z</time>
      </trkpt>
      <trkpt lat="49.96548" lon="2.41266">
        <ele>108.3</ele>
        <time>2022-04-20T14:55:58Z</time>
      </trkpt>
      <trkpt lat="49.96547" lon="2.41266">
        <ele>108.4</ele>
        <time>2022-04-20T14:55:59Z</time>
      </trkpt>
      <trkpt lat="49.96546" lon="2.41265">
        <ele>108.4</ele>
        <time>2022-04-20T14:56:00Z</time>
      </trkpt>
      <trkpt lat="49.96545" lon="2.41265">
        <ele>108.4</ele>
        <time>2022-04-20T14:56:01Z</time>
      </trkpt>
      <trkpt lat="49.96544" lon="2.41264">
        <ele>108.4</ele>
        <time>2022-04-20T14:56:02Z</time>
      </trkpt>
      <trkpt lat="49.96542" lon="2.41263">
        <ele>108.5</ele>
        <time>2022-04-20T14:56:03Z</time>
      </trkpt>
      <trkpt lat="49.96541" lon="2.41263">
        <ele>108.5</ele>
        <time>2022-04-20T14:56:04Z</time>
      </trkpt>
      <trkpt lat="49.9654" lon="2.41262">
        <ele>108.5</ele>
        <time>2022-04-20T14:56:05Z</time>
      </trkpt>
      <trkpt lat="49.96539" lon="2.41262">
        <ele>108.5</ele>
        <time>2022-04-20T14:56:07Z</time>
      </trkpt>
      <trkpt lat="49.96538" lon="2.41261">
        <ele>108.6</ele>
        <time>2022-04-20T14:56:08Z</time>
      </trkpt>
      <trkpt lat="49.96537" lon="2.4126">
        <ele>108.6</ele>
        <time>2022-04-20T14:56:09Z</time>
      </trkpt>
      <trkpt lat="49.96536" lon="2.4126">
        <ele>108.6</ele>
        <time>2022-04-20T14:56:10Z</time>
      </trkpt>
      <trkpt lat="49.96535" lon="2.41259">
        <ele>108.6</ele>
        <time>2022-04-20T14:56:11Z</time>
      </trkpt>
      <trkpt lat="49.96534" lon="2.41258">
        <ele>108.6</ele>
        <time>2022-04-20T14:56:12Z</time>
      </trkpt>
      <trkpt lat="49.96533" lon="2.41257">
        <ele>108.6</ele>
        <time>2022-04-20T14:56:13Z</time>
      </trkpt>
      <trkpt lat="49.96532" lon="2.41256">
        <ele>108.7</ele>
        <time>2022-04-20T14:56:15Z</time>
      </trkpt>
      <trkpt lat="49.96532" lon="2.41255">
        <ele>108.7</ele>
        <time>2022-04-20T14:56:16Z</time>
      </trkpt>
      <trkpt lat="49.96531" lon="2.41254">
        <ele>108.7</ele>
        <time>2022-04-20T14:56:17Z</time>
      </trkpt>
      <trkpt lat="49.9653" lon="2.41253">
        <ele>108.7</ele>
        <time>2022-04-20T14:56:18Z</time>
      </trkpt>
      <trkpt lat="49.96528" lon="2.41252">
        <ele>108.7</ele>
        <time>2022-04-20T14:56:20Z</time>
      </trkpt>
      <trkpt lat="49.96527" lon="2.41251">
        <ele>108.8</ele>
        <time>2022-04-20T14:56:21Z</time>
      </trkpt>
      <trkpt lat="49.96526" lon="2.4125">
        <ele>108.8</ele>
        <time>2022-04-20T14:56:22Z</time>
      </trkpt>
      <trkpt lat="49.96525" lon="2.41249">
        <ele>108.8</ele>
        <time>2022-04-20T14:56:23Z</time>
      </trkpt>
      <trkpt lat="49.96525" lon="2.41248">
        <ele>108.8</ele>
        <time>2022-04-20T14:56:24Z</time>
      </trkpt>
      <trkpt lat="49.96524" lon="2.41247">
        <ele>108.8</ele>
        <time>2022-04-20T14:56:25Z</time>
      </trkpt>
      <trkpt lat="49.96523" lon="2.41246">
        <ele>108.8</ele>
        <time>2022-04-20T14:56:26Z</time>
      </trkpt>
      <trkpt lat="49.96522" lon="2.41244">
        <ele>108.9</ele>
        <time>2022-04-20T14:56:27Z</time>
      </trkpt>
      <trkpt lat="49.96522" lon="2.41242">
        <ele>109</ele>
        <time>2022-04-20T14:56:29Z</time>
      </trkpt>
      <trkpt lat="49.96522" lon="2.4124">
        <ele>109</ele>
        <time>2022-04-20T14:56:30Z</time>
      </trkpt>
      <trkpt lat="49.96522" lon="2.41238">
        <ele>109</ele>
        <time>2022-04-20T14:56:31Z</time>
      </trkpt>
      <trkpt lat="49.96523" lon="2.41236">
        <ele>109</ele>
        <time>2022-04-20T14:56:33Z</time>
      </trkpt>
      <trkpt lat="49.96524" lon="2.41233">
        <ele>109.1</ele>
        <time>2022-04-20T14:56:34Z</time>
      </trkpt>
      <trkpt lat="49.96524" lon="2.41232">
        <ele>109.1</ele>
        <time>2022-04-20T14:56:35Z</time>
      </trkpt>
      <trkpt lat="49.96525" lon="2.41231">
        <ele>109.1</ele>
        <time>2022-04-20T14:56:36Z</time>
      </trkpt>
      <trkpt lat="49.96526" lon="2.4123">
        <ele>109.1</ele>
        <time>2022-04-20T14:56:38Z</time>
      </trkpt>
      <trkpt lat="49.96526" lon="2.41229">
        <ele>109.1</ele>
        <time>2022-04-20T14:56:39Z</time>
      </trkpt>
      <trkpt lat="49.96527" lon="2.41228">
        <ele>109.1</ele>
        <time>2022-04-20T14:56:40Z</time>
      </trkpt>
      <trkpt lat="49.96527" lon="2.41227">
        <ele>109.1</ele>
        <time>2022-04-20T14:56:41Z</time>
      </trkpt>
      <trkpt lat="49.96528" lon="2.41226">
        <ele>109.1</ele>
        <time>2022-04-20T14:56:42Z</time>
      </trkpt>
      <trkpt lat="49.96528" lon="2.41225">
        <ele>109.1</ele>
        <time>2022-04-20T14:56:43Z</time>
      </trkpt>
      <trkpt lat="49.96528" lon="2.41224">
        <ele>109.2</ele>
        <time>2022-04-20T14:56:44Z</time>
      </trkpt>
      <trkpt lat="49.96528" lon="2.41223">
        <ele>109.2</ele>
        <time>2022-04-20T14:56:45Z</time>
      </trkpt>
      <trkpt lat="49.96529" lon="2.41221">
        <ele>109.2</ele>
        <time>2022-04-20T14:56:46Z</time>
      </trkpt>
      <trkpt lat="49.96529" lon="2.4122">
        <ele>109.2</ele>
        <time>2022-04-20T14:56:47Z</time>
      </trkpt>
      <trkpt lat="49.9653" lon="2.41219">
        <ele>109.2</ele>
        <time>2022-04-20T14:56:48Z</time>
      </trkpt>
      <trkpt lat="49.9653" lon="2.41218">
        <ele>109.2</ele>
        <time>2022-04-20T14:56:49Z</time>
      </trkpt>
      <trkpt lat="49.96531" lon="2.41216">
        <ele>109.2</ele>
        <time>2022-04-20T14:56:50Z</time>
      </trkpt>
      <trkpt lat="49.96531" lon="2.41215">
        <ele>109.2</ele>
        <time>2022-04-20T14:56:51Z</time>
      </trkpt>
      <trkpt lat="49.96532" lon="2.41214">
        <ele>109.3</ele>
        <time>2022-04-20T14:56:52Z</time>
      </trkpt>
      <trkpt lat="49.96532" lon="2.41212">
        <ele>109.3</ele>
        <time>2022-04-20T14:56:53Z</time>
      </trkpt>
      <trkpt lat="49.96532" lon="2.41211">
        <ele>109.3</ele>
        <time>2022-04-20T14:56:55Z</time>
      </trkpt>
      <trkpt lat="49.96532" lon="2.41209">
        <ele>109.3</ele>
        <time>2022-04-20T14:56:56Z</time>
      </trkpt>
      <trkpt lat="49.96533" lon="2.41208">
        <ele>109.3</ele>
        <time>2022-04-20T14:56:57Z</time>
      </trkpt>
      <trkpt lat="49.96533" lon="2.41207">
        <ele>109.3</ele>
        <time>2022-04-20T14:56:58Z</time>
      </trkpt>
      <trkpt lat="49.96532" lon="2.41205">
        <ele>109.3</ele>
        <time>2022-04-20T14:56:59Z</time>
      </trkpt>
      <trkpt lat="49.96533" lon="2.41204">
        <ele>109.3</ele>
        <time>2022-04-20T14:57:00Z</time>
      </trkpt>
      <trkpt lat="49.96533" lon="2.41202">
        <ele>109.4</ele>
        <time>2022-04-20T14:57:02Z</time>
      </trkpt>
      <trkpt lat="49.96534" lon="2.412">
        <ele>109.4</ele>
        <time>2022-04-20T14:57:03Z</time>
      </trkpt>
      <trkpt lat="49.96534" lon="2.41199">
        <ele>109.4</ele>
        <time>2022-04-20T14:57:04Z</time>
      </trkpt>
      <trkpt lat="49.96535" lon="2.41197">
        <ele>109.4</ele>
        <time>2022-04-20T14:57:05Z</time>
      </trkpt>
      <trkpt lat="49.96536" lon="2.41194">
        <ele>109.4</ele>
        <time>2022-04-20T14:57:06Z</time>
      </trkpt>
      <trkpt lat="49.96536" lon="2.41193">
        <ele>109.5</ele>
        <time>2022-04-20T14:57:08Z</time>
      </trkpt>
      <trkpt lat="49.96537" lon="2.41192">
        <ele>109.5</ele>
        <time>2022-04-20T14:57:09Z</time>
      </trkpt>
      <trkpt lat="49.96537" lon="2.41191">
        <ele>109.5</ele>
        <time>2022-04-20T14:57:10Z</time>
      </trkpt>
      <trkpt lat="49.96538" lon="2.41189">
        <ele>109.5</ele>
        <time>2022-04-20T14:57:11Z</time>
      </trkpt>
      <trkpt lat="49.96538" lon="2.41187">
        <ele>109.5</ele>
        <time>2022-04-20T14:57:12Z</time>
      </trkpt>
      <trkpt lat="49.96539" lon="2.41186">
        <ele>109.5</ele>
        <time>2022-04-20T14:57:13Z</time>
      </trkpt>
      <trkpt lat="49.9654" lon="2.41184">
        <ele>109.6</ele>
        <time>2022-04-20T14:57:14Z</time>
      </trkpt>
      <trkpt lat="49.9654" lon="2.41182">
        <ele>109.6</ele>
        <time>2022-04-20T14:57:16Z</time>
      </trkpt>
      <trkpt lat="49.96542" lon="2.41179">
        <ele>109.6</ele>
        <time>2022-04-20T14:57:17Z</time>
      </trkpt>
      <trkpt lat="49.96542" lon="2.41178">
        <ele>109.6</ele>
        <time>2022-04-20T14:57:18Z</time>
      </trkpt>
      <trkpt lat="49.96542" lon="2.41177">
        <ele>109.6</ele>
        <time>2022-04-20T14:57:19Z</time>
      </trkpt>
      <trkpt lat="49.96544" lon="2.41174">
        <ele>109.7</ele>
        <time>2022-04-20T14:57:20Z</time>
      </trkpt>
      <trkpt lat="49.96544" lon="2.41172">
        <ele>109.7</ele>
        <time>2022-04-20T14:57:22Z</time>
      </trkpt>
      <trkpt lat="49.96545" lon="2.41171">
        <ele>109.7</ele>
        <time>2022-04-20T14:57:23Z</time>
      </trkpt>
      <trkpt lat="49.96546" lon="2.4117">
        <ele>109.7</ele>
        <time>2022-04-20T14:57:24Z</time>
      </trkpt>
      <trkpt lat="49.96546" lon="2.41168">
        <ele>109.7</ele>
        <time>2022-04-20T14:57:25Z</time>
      </trkpt>
      <trkpt lat="49.96548" lon="2.41166">
        <ele>109.8</ele>
        <time>2022-04-20T14:57:26Z</time>
      </trkpt>
      <trkpt lat="49.96548" lon="2.41165">
        <ele>109.8</ele>
        <time>2022-04-20T14:57:27Z</time>
      </trkpt>
      <trkpt lat="49.96549" lon="2.41164">
        <ele>109.8</ele>
        <time>2022-04-20T14:57:28Z</time>
      </trkpt>
      <trkpt lat="49.9655" lon="2.41162">
        <ele>109.8</ele>
        <time>2022-04-20T14:57:30Z</time>
      </trkpt>
      <trkpt lat="49.96551" lon="2.41161">
        <ele>109.8</ele>
        <time>2022-04-20T14:57:31Z</time>
      </trkpt>
      <trkpt lat="49.96551" lon="2.4116">
        <ele>109.8</ele>
        <time>2022-04-20T14:57:32Z</time>
      </trkpt>
      <trkpt lat="49.96553" lon="2.41157">
        <ele>109.9</ele>
        <time>2022-04-20T14:57:33Z</time>
      </trkpt>
      <trkpt lat="49.96553" lon="2.41156">
        <ele>109.9</ele>
        <time>2022-04-20T14:57:34Z</time>
      </trkpt>
      <trkpt lat="49.96554" lon="2.41155">
        <ele>109.9</ele>
        <time>2022-04-20T14:57:35Z</time>
      </trkpt>
      <trkpt lat="49.96555" lon="2.41154">
        <ele>109.9</ele>
        <time>2022-04-20T14:57:37Z</time>
      </trkpt>
      <trkpt lat="49.96556" lon="2.41153">
        <ele>109.9</ele>
        <time>2022-04-20T14:57:38Z</time>
      </trkpt>
      <trkpt lat="49.96556" lon="2.41152">
        <ele>109.9</ele>
        <time>2022-04-20T14:57:39Z</time>
      </trkpt>
      <trkpt lat="49.96557" lon="2.41151">
        <ele>109.9</ele>
        <time>2022-04-20T14:57:40Z</time>
      </trkpt>
      <trkpt lat="49.96557" lon="2.4115">
        <ele>109.9</ele>
        <time>2022-04-20T14:57:41Z</time>
      </trkpt>
      <trkpt lat="49.96558" lon="2.41149">
        <ele>109.9</ele>
        <time>2022-04-20T14:57:42Z</time>
      </trkpt>
      <trkpt lat="49.96559" lon="2.41148">
        <ele>109.9</ele>
        <time>2022-04-20T14:57:43Z</time>
      </trkpt>
      <trkpt lat="49.9656" lon="2.41148">
        <ele>109.9</ele>
        <time>2022-04-20T14:57:44Z</time>
      </trkpt>
      <trkpt lat="49.96561" lon="2.41147">
        <ele>109.9</ele>
        <time>2022-04-20T14:57:46Z</time>
      </trkpt>
      <trkpt lat="49.96563" lon="2.41146">
        <ele>110</ele>
        <time>2022-04-20T14:57:47Z</time>
      </trkpt>
      <trkpt lat="49.96563" lon="2.41145">
        <ele>110</ele>
        <time>2022-04-20T14:57:48Z</time>
      </trkpt>
      <trkpt lat="49.96564" lon="2.41144">
        <ele>110</ele>
        <time>2022-04-20T14:57:49Z</time>
      </trkpt>
      <trkpt lat="49.96565" lon="2.41143">
        <ele>110</ele>
        <time>2022-04-20T14:57:50Z</time>
      </trkpt>
      <trkpt lat="49.96566" lon="2.41142">
        <ele>110</ele>
        <time>2022-04-20T14:57:51Z</time>
      </trkpt>
      <trkpt lat="49.96567" lon="2.41141">
        <ele>110</ele>
        <time>2022-04-20T14:57:52Z</time>
      </trkpt>
      <trkpt lat="49.96569" lon="2.41139">
        <ele>110</ele>
        <time>2022-04-20T14:57:53Z</time>
      </trkpt>
      <trkpt lat="49.9657" lon="2.41137">
        <ele>110</ele>
        <time>2022-04-20T14:57:55Z</time>
      </trkpt>
      <trkpt lat="49.9657" lon="2.41136">
        <ele>110</ele>
        <time>2022-04-20T14:57:56Z</time>
      </trkpt>
      <trkpt lat="49.96571" lon="2.41135">
        <ele>110</ele>
        <time>2022-04-20T14:57:57Z</time>
      </trkpt>
      <trkpt lat="49.96572" lon="2.41134">
        <ele>110</ele>
        <time>2022-04-20T14:57:58Z</time>
      </trkpt>
      <trkpt lat="49.96573" lon="2.41132">
        <ele>110</ele>
        <time>2022-04-20T14:58:00Z</time>
      </trkpt>
      <trkpt lat="49.96573" lon="2.4113">
        <ele>110</ele>
        <time>2022-04-20T14:58:01Z</time>
      </trkpt>
      <trkpt lat="49.96574" lon="2.41129">
        <ele>110</ele>
        <time>2022-04-20T14:58:02Z</time>
      </trkpt>
      <trkpt lat="49.96574" lon="2.41127">
        <ele>110</ele>
        <time>2022-04-20T14:58:03Z</time>
      </trkpt>
      <trkpt lat="49.96574" lon="2.41126">
        <ele>110</ele>
        <time>2022-04-20T14:58:04Z</time>
      </trkpt>
      <trkpt lat="49.96574" lon="2.41124">
        <ele>110</ele>
        <time>2022-04-20T14:58:05Z</time>
      </trkpt>
      <trkpt lat="49.96574" lon="2.41121">
        <ele>110</ele>
        <time>2022-04-20T14:58:06Z</time>
      </trkpt>
      <trkpt lat="49.96574" lon="2.41119">
        <ele>110</ele>
        <time>2022-04-20T14:58:07Z</time>
      </trkpt>
      <trkpt lat="49.96575" lon="2.41118">
        <ele>110</ele>
        <time>2022-04-20T14:58:08Z</time>
      </trkpt>
      <trkpt lat="49.96575" lon="2.41115">
        <ele>110</ele>
        <time>2022-04-20T14:58:10Z</time>
      </trkpt>
      <trkpt lat="49.96576" lon="2.41114">
        <ele>110</ele>
        <time>2022-04-20T14:58:11Z</time>
      </trkpt>
      <trkpt lat="49.96576" lon="2.41113">
        <ele>110</ele>
        <time>2022-04-20T14:58:12Z</time>
      </trkpt>
      <trkpt lat="49.96577" lon="2.4111">
        <ele>110</ele>
        <time>2022-04-20T14:58:13Z</time>
      </trkpt>
      <trkpt lat="49.96577" lon="2.41109">
        <ele>109.9</ele>
        <time>2022-04-20T14:58:14Z</time>
      </trkpt>
      <trkpt lat="49.96578" lon="2.41108">
        <ele>109.9</ele>
        <time>2022-04-20T14:58:15Z</time>
      </trkpt>
      <trkpt lat="49.96579" lon="2.41106">
        <ele>109.9</ele>
        <time>2022-04-20T14:58:16Z</time>
      </trkpt>
      <trkpt lat="49.96579" lon="2.41105">
        <ele>109.9</ele>
        <time>2022-04-20T14:58:18Z</time>
      </trkpt>
      <trkpt lat="49.9658" lon="2.41104">
        <ele>109.9</ele>
        <time>2022-04-20T14:58:19Z</time>
      </trkpt>
      <trkpt lat="49.96581" lon="2.41101">
        <ele>109.9</ele>
        <time>2022-04-20T14:58:20Z</time>
      </trkpt>
      <trkpt lat="49.96582" lon="2.411">
        <ele>109.9</ele>
        <time>2022-04-20T14:58:21Z</time>
      </trkpt>
      <trkpt lat="49.96582" lon="2.41098">
        <ele>109.9</ele>
        <time>2022-04-20T14:58:22Z</time>
      </trkpt>
      <trkpt lat="49.96584" lon="2.41096">
        <ele>109.9</ele>
        <time>2022-04-20T14:58:23Z</time>
      </trkpt>
      <trkpt lat="49.96584" lon="2.41095">
        <ele>109.9</ele>
        <time>2022-04-20T14:58:24Z</time>
      </trkpt>
      <trkpt lat="49.96585" lon="2.41094">
        <ele>109.9</ele>
        <time>2022-04-20T14:58:25Z</time>
      </trkpt>
      <trkpt lat="49.96586" lon="2.41091">
        <ele>109.9</ele>
        <time>2022-04-20T14:58:27Z</time>
      </trkpt>
      <trkpt lat="49.96586" lon="2.4109">
        <ele>109.9</ele>
        <time>2022-04-20T14:58:28Z</time>
      </trkpt>
      <trkpt lat="49.96586" lon="2.41088">
        <ele>109.9</ele>
        <time>2022-04-20T14:58:29Z</time>
      </trkpt>
      <trkpt lat="49.96588" lon="2.41086">
        <ele>109.9</ele>
        <time>2022-04-20T14:58:30Z</time>
      </trkpt>
      <trkpt lat="49.96588" lon="2.41085">
        <ele>109.9</ele>
        <time>2022-04-20T14:58:31Z</time>
      </trkpt>
      <trkpt lat="49.96589" lon="2.41084">
        <ele>109.9</ele>
        <time>2022-04-20T14:58:32Z</time>
      </trkpt>
      <trkpt lat="49.96589" lon="2.41082">
        <ele>110</ele>
        <time>2022-04-20T14:58:34Z</time>
      </trkpt>
      <trkpt lat="49.96589" lon="2.41081">
        <ele>110</ele>
        <time>2022-04-20T14:58:35Z</time>
      </trkpt>
      <trkpt lat="49.9659" lon="2.41079">
        <ele>110</ele>
        <time>2022-04-20T14:58:36Z</time>
      </trkpt>
      <trkpt lat="49.96591" lon="2.41078">
        <ele>110</ele>
        <time>2022-04-20T14:58:37Z</time>
      </trkpt>
      <trkpt lat="49.96592" lon="2.41077">
        <ele>110</ele>
        <time>2022-04-20T14:58:38Z</time>
      </trkpt>
      <trkpt lat="49.96592" lon="2.41076">
        <ele>110</ele>
        <time>2022-04-20T14:58:39Z</time>
      </trkpt>
      <trkpt lat="49.96593" lon="2.41074">
        <ele>110</ele>
        <time>2022-04-20T14:58:40Z</time>
      </trkpt>
      <trkpt lat="49.96593" lon="2.41073">
        <ele>110</ele>
        <time>2022-04-20T14:58:42Z</time>
      </trkpt>
      <trkpt lat="49.96594" lon="2.41072">
        <ele>110</ele>
        <time>2022-04-20T14:58:43Z</time>
      </trkpt>
      <trkpt lat="49.96594" lon="2.4107">
        <ele>110</ele>
        <time>2022-04-20T14:58:44Z</time>
      </trkpt>
      <trkpt lat="49.96594" lon="2.41068">
        <ele>110.1</ele>
        <time>2022-04-20T14:58:46Z</time>
      </trkpt>
      <trkpt lat="49.96594" lon="2.41066">
        <ele>110.1</ele>
        <time>2022-04-20T14:58:47Z</time>
      </trkpt>
      <trkpt lat="49.96594" lon="2.41065">
        <ele>110.1</ele>
        <time>2022-04-20T14:58:48Z</time>
      </trkpt>
      <trkpt lat="49.96593" lon="2.41064">
        <ele>110.1</ele>
        <time>2022-04-20T14:58:49Z</time>
      </trkpt>
      <trkpt lat="49.96593" lon="2.41063">
        <ele>110.1</ele>
        <time>2022-04-20T14:58:50Z</time>
      </trkpt>
      <trkpt lat="49.96592" lon="2.41062">
        <ele>110.1</ele>
        <time>2022-04-20T14:58:51Z</time>
      </trkpt>
      <trkpt lat="49.96592" lon="2.41061">
        <ele>110.1</ele>
        <time>2022-04-20T14:58:52Z</time>
      </trkpt>
      <trkpt lat="49.96592" lon="2.41059">
        <ele>110.1</ele>
        <time>2022-04-20T14:58:53Z</time>
      </trkpt>
      <trkpt lat="49.96592" lon="2.41057">
        <ele>110.1</ele>
        <time>2022-04-20T14:58:55Z</time>
      </trkpt>
      <trkpt lat="49.96591" lon="2.41056">
        <ele>110.1</ele>
        <time>2022-04-20T14:58:56Z</time>
      </trkpt>
      <trkpt lat="49.96591" lon="2.41054">
        <ele>110.1</ele>
        <time>2022-04-20T14:58:57Z</time>
      </trkpt>
      <trkpt lat="49.9659" lon="2.41053">
        <ele>110.1</ele>
        <time>2022-04-20T14:58:58Z</time>
      </trkpt>
      <trkpt lat="49.96589" lon="2.4105">
        <ele>110.2</ele>
        <time>2022-04-20T14:58:59Z</time>
      </trkpt>
      <trkpt lat="49.96588" lon="2.41049">
        <ele>110.2</ele>
        <time>2022-04-20T14:59:00Z</time>
      </trkpt>
      <trkpt lat="49.96588" lon="2.41048">
        <ele>110.2</ele>
        <time>2022-04-20T14:59:01Z</time>
      </trkpt>
      <trkpt lat="49.96586" lon="2.41045">
        <ele>110.2</ele>
        <time>2022-04-20T14:59:02Z</time>
      </trkpt>
      <trkpt lat="49.96586" lon="2.41044">
        <ele>110.2</ele>
        <time>2022-04-20T14:59:04Z</time>
      </trkpt>
      <trkpt lat="49.96585" lon="2.41043">
        <ele>110.2</ele>
        <time>2022-04-20T14:59:05Z</time>
      </trkpt>
      <trkpt lat="49.96584" lon="2.41041">
        <ele>110.2</ele>
        <time>2022-04-20T14:59:06Z</time>
      </trkpt>
      <trkpt lat="49.96583" lon="2.41039">
        <ele>110.3</ele>
        <time>2022-04-20T14:59:07Z</time>
      </trkpt>
      <trkpt lat="49.96582" lon="2.41037">
        <ele>110.3</ele>
        <time>2022-04-20T14:59:08Z</time>
      </trkpt>
      <trkpt lat="49.96581" lon="2.41036">
        <ele>110.3</ele>
        <time>2022-04-20T14:59:09Z</time>
      </trkpt>
      <trkpt lat="49.96581" lon="2.41035">
        <ele>110.3</ele>
        <time>2022-04-20T14:59:10Z</time>
      </trkpt>
      <trkpt lat="49.9658" lon="2.41034">
        <ele>110.3</ele>
        <time>2022-04-20T14:59:11Z</time>
      </trkpt>
      <trkpt lat="49.96579" lon="2.41032">
        <ele>110.3</ele>
        <time>2022-04-20T14:59:12Z</time>
      </trkpt>
      <trkpt lat="49.96579" lon="2.4103">
        <ele>110.3</ele>
        <time>2022-04-20T14:59:14Z</time>
      </trkpt>
      <trkpt lat="49.96578" lon="2.41027">
        <ele>110.4</ele>
        <time>2022-04-20T14:59:15Z</time>
      </trkpt>
      <trkpt lat="49.96577" lon="2.41026">
        <ele>110.4</ele>
        <time>2022-04-20T14:59:16Z</time>
      </trkpt>
      <trkpt lat="49.96577" lon="2.41025">
        <ele>110.4</ele>
        <time>2022-04-20T14:59:17Z</time>
      </trkpt>
      <trkpt lat="49.96576" lon="2.41024">
        <ele>110.4</ele>
        <time>2022-04-20T14:59:18Z</time>
      </trkpt>
      <trkpt lat="49.96576" lon="2.41022">
        <ele>110.4</ele>
        <time>2022-04-20T14:59:19Z</time>
      </trkpt>
      <trkpt lat="49.96575" lon="2.41021">
        <ele>110.4</ele>
        <time>2022-04-20T14:59:20Z</time>
      </trkpt>
      <trkpt lat="49.96575" lon="2.41018">
        <ele>110.4</ele>
        <time>2022-04-20T14:59:22Z</time>
      </trkpt>
      <trkpt lat="49.96574" lon="2.41016">
        <ele>110.5</ele>
        <time>2022-04-20T14:59:23Z</time>
      </trkpt>
      <trkpt lat="49.96574" lon="2.41015">
        <ele>110.5</ele>
        <time>2022-04-20T14:59:24Z</time>
      </trkpt>
      <trkpt lat="49.96573" lon="2.41012">
        <ele>110.5</ele>
        <time>2022-04-20T14:59:26Z</time>
      </trkpt>
      <trkpt lat="49.96573" lon="2.41011">
        <ele>110.5</ele>
        <time>2022-04-20T14:59:27Z</time>
      </trkpt>
      <trkpt lat="49.96572" lon="2.4101">
        <ele>110.5</ele>
        <time>2022-04-20T14:59:28Z</time>
      </trkpt>
      <trkpt lat="49.96572" lon="2.41008">
        <ele>110.5</ele>
        <time>2022-04-20T14:59:29Z</time>
      </trkpt>
      <trkpt lat="49.96571" lon="2.41007">
        <ele>110.5</ele>
        <time>2022-04-20T14:59:30Z</time>
      </trkpt>
      <trkpt lat="49.96571" lon="2.41005">
        <ele>110.6</ele>
        <time>2022-04-20T14:59:31Z</time>
      </trkpt>
      <trkpt lat="49.9657" lon="2.41003">
        <ele>110.6</ele>
        <time>2022-04-20T14:59:33Z</time>
      </trkpt>
      <trkpt lat="49.96569" lon="2.41002">
        <ele>110.6</ele>
        <time>2022-04-20T14:59:34Z</time>
      </trkpt>
      <trkpt lat="49.96569" lon="2.41001">
        <ele>110.6</ele>
        <time>2022-04-20T14:59:35Z</time>
      </trkpt>
      <trkpt lat="49.96568" lon="2.40999">
        <ele>110.6</ele>
        <time>2022-04-20T14:59:36Z</time>
      </trkpt>
      <trkpt lat="49.96568" lon="2.40998">
        <ele>110.6</ele>
        <time>2022-04-20T14:59:37Z</time>
      </trkpt>
      <trkpt lat="49.96567" lon="2.40996">
        <ele>110.6</ele>
        <time>2022-04-20T14:59:38Z</time>
      </trkpt>
      <trkpt lat="49.96566" lon="2.40994">
        <ele>110.7</ele>
        <time>2022-04-20T14:59:39Z</time>
      </trkpt>
      <trkpt lat="49.96566" lon="2.40993">
        <ele>110.7</ele>
        <time>2022-04-20T14:59:41Z</time>
      </trkpt>
      <trkpt lat="49.96565" lon="2.40991">
        <ele>110.7</ele>
        <time>2022-04-20T14:59:42Z</time>
      </trkpt>
      <trkpt lat="49.96564" lon="2.4099">
        <ele>110.7</ele>
        <time>2022-04-20T14:59:43Z</time>
      </trkpt>
      <trkpt lat="49.96564" lon="2.40988">
        <ele>110.7</ele>
        <time>2022-04-20T14:59:44Z</time>
      </trkpt>
      <trkpt lat="49.96563" lon="2.40986">
        <ele>110.7</ele>
        <time>2022-04-20T14:59:45Z</time>
      </trkpt>
      <trkpt lat="49.96563" lon="2.40985">
        <ele>110.7</ele>
        <time>2022-04-20T14:59:46Z</time>
      </trkpt>
      <trkpt lat="49.96562" lon="2.40983">
        <ele>110.7</ele>
        <time>2022-04-20T14:59:47Z</time>
      </trkpt>
      <trkpt lat="49.96562" lon="2.40981">
        <ele>110.7</ele>
        <time>2022-04-20T14:59:48Z</time>
      </trkpt>
      <trkpt lat="49.96561" lon="2.40979">
        <ele>110.7</ele>
        <time>2022-04-20T14:59:50Z</time>
      </trkpt>
      <trkpt lat="49.9656" lon="2.40978">
        <ele>110.7</ele>
        <time>2022-04-20T14:59:51Z</time>
      </trkpt>
      <trkpt lat="49.9656" lon="2.40977">
        <ele>110.7</ele>
        <time>2022-04-20T14:59:52Z</time>
      </trkpt>
      <trkpt lat="49.96559" lon="2.40975">
        <ele>110.7</ele>
        <time>2022-04-20T14:59:53Z</time>
      </trkpt>
      <trkpt lat="49.96559" lon="2.40974">
        <ele>110.7</ele>
        <time>2022-04-20T14:59:54Z</time>
      </trkpt>
      <trkpt lat="49.96558" lon="2.40972">
        <ele>110.7</ele>
        <time>2022-04-20T14:59:55Z</time>
      </trkpt>
      <trkpt lat="49.96558" lon="2.40971">
        <ele>110.7</ele>
        <time>2022-04-20T14:59:56Z</time>
      </trkpt>
      <trkpt lat="49.96557" lon="2.40969">
        <ele>110.7</ele>
        <time>2022-04-20T14:59:57Z</time>
      </trkpt>
      <trkpt lat="49.96557" lon="2.40967">
        <ele>110.7</ele>
        <time>2022-04-20T14:59:59Z</time>
      </trkpt>
      <trkpt lat="49.96556" lon="2.40966">
        <ele>110.7</ele>
        <time>2022-04-20T15:00:00Z</time>
      </trkpt>
      <trkpt lat="49.96557" lon="2.40964">
        <ele>110.7</ele>
        <time>2022-04-20T15:00:01Z</time>
      </trkpt>
      <trkpt lat="49.96557" lon="2.40962">
        <ele>110.7</ele>
        <time>2022-04-20T15:00:02Z</time>
      </trkpt>
      <trkpt lat="49.96558" lon="2.4096">
        <ele>110.7</ele>
        <time>2022-04-20T15:00:03Z</time>
      </trkpt>
      <trkpt lat="49.96558" lon="2.40958">
        <ele>110.7</ele>
        <time>2022-04-20T15:00:04Z</time>
      </trkpt>
      <trkpt lat="49.96558" lon="2.40956">
        <ele>110.7</ele>
        <time>2022-04-20T15:00:06Z</time>
      </trkpt>
      <trkpt lat="49.96559" lon="2.40953">
        <ele>110.8</ele>
        <time>2022-04-20T15:00:07Z</time>
      </trkpt>
      <trkpt lat="49.96559" lon="2.40952">
        <ele>110.8</ele>
        <time>2022-04-20T15:00:08Z</time>
      </trkpt>
      <trkpt lat="49.96559" lon="2.40951">
        <ele>110.8</ele>
        <time>2022-04-20T15:00:09Z</time>
      </trkpt>
      <trkpt lat="49.96559" lon="2.40948">
        <ele>110.8</ele>
        <time>2022-04-20T15:00:11Z</time>
      </trkpt>
      <trkpt lat="49.96559" lon="2.40947">
        <ele>110.8</ele>
        <time>2022-04-20T15:00:12Z</time>
      </trkpt>
      <trkpt lat="49.96559" lon="2.40945">
        <ele>110.8</ele>
        <time>2022-04-20T15:00:13Z</time>
      </trkpt>
      <trkpt lat="49.9656" lon="2.40944">
        <ele>110.8</ele>
        <time>2022-04-20T15:00:14Z</time>
      </trkpt>
      <trkpt lat="49.9656" lon="2.40942">
        <ele>110.8</ele>
        <time>2022-04-20T15:00:15Z</time>
      </trkpt>
      <trkpt lat="49.9656" lon="2.40939">
        <ele>110.8</ele>
        <time>2022-04-20T15:00:17Z</time>
      </trkpt>
      <trkpt lat="49.96559" lon="2.40937">
        <ele>110.8</ele>
        <time>2022-04-20T15:00:18Z</time>
      </trkpt>
      <trkpt lat="49.96559" lon="2.40936">
        <ele>110.8</ele>
        <time>2022-04-20T15:00:19Z</time>
      </trkpt>
      <trkpt lat="49.96559" lon="2.40934">
        <ele>110.8</ele>
        <time>2022-04-20T15:00:20Z</time>
      </trkpt>
      <trkpt lat="49.96559" lon="2.40932">
        <ele>110.8</ele>
        <time>2022-04-20T15:00:21Z</time>
      </trkpt>
      <trkpt lat="49.96559" lon="2.4093">
        <ele>110.8</ele>
        <time>2022-04-20T15:00:23Z</time>
      </trkpt>
      <trkpt lat="49.96558" lon="2.40929">
        <ele>110.8</ele>
        <time>2022-04-20T15:00:24Z</time>
      </trkpt>
      <trkpt lat="49.96558" lon="2.40927">
        <ele>110.8</ele>
        <time>2022-04-20T15:00:25Z</time>
      </trkpt>
      <trkpt lat="49.96558" lon="2.40925">
        <ele>110.8</ele>
        <time>2022-04-20T15:00:26Z</time>
      </trkpt>
      <trkpt lat="49.96558" lon="2.40924">
        <ele>110.8</ele>
        <time>2022-04-20T15:00:27Z</time>
      </trkpt>
      <trkpt lat="49.96557" lon="2.40923">
        <ele>110.8</ele>
        <time>2022-04-20T15:00:28Z</time>
      </trkpt>
      <trkpt lat="49.96557" lon="2.40922">
        <ele>110.8</ele>
        <time>2022-04-20T15:00:29Z</time>
      </trkpt>
      <trkpt lat="49.96557" lon="2.4092">
        <ele>110.8</ele>
        <time>2022-04-20T15:00:30Z</time>
      </trkpt>
      <trkpt lat="49.96557" lon="2.40918">
        <ele>110.9</ele>
        <time>2022-04-20T15:00:32Z</time>
      </trkpt>
      <trkpt lat="49.96557" lon="2.40917">
        <ele>110.9</ele>
        <time>2022-04-20T15:00:33Z</time>
      </trkpt>
      <trkpt lat="49.96557" lon="2.40916">
        <ele>110.9</ele>
        <time>2022-04-20T15:00:34Z</time>
      </trkpt>
      <trkpt lat="49.96557" lon="2.40914">
        <ele>110.9</ele>
        <time>2022-04-20T15:00:35Z</time>
      </trkpt>
      <trkpt lat="49.96557" lon="2.40912">
        <ele>110.9</ele>
        <time>2022-04-20T15:00:37Z</time>
      </trkpt>
      <trkpt lat="49.96557" lon="2.40911">
        <ele>110.9</ele>
        <time>2022-04-20T15:00:38Z</time>
      </trkpt>
      <trkpt lat="49.96556" lon="2.40909">
        <ele>110.9</ele>
        <time>2022-04-20T15:00:39Z</time>
      </trkpt>
      <trkpt lat="49.96556" lon="2.40908">
        <ele>110.9</ele>
        <time>2022-04-20T15:00:40Z</time>
      </trkpt>
      <trkpt lat="49.96556" lon="2.40906">
        <ele>110.9</ele>
        <time>2022-04-20T15:00:41Z</time>
      </trkpt>
      <trkpt lat="49.96555" lon="2.40904">
        <ele>110.9</ele>
        <time>2022-04-20T15:00:42Z</time>
      </trkpt>
      <trkpt lat="49.96554" lon="2.40902">
        <ele>110.9</ele>
        <time>2022-04-20T15:00:44Z</time>
      </trkpt>
      <trkpt lat="49.96553" lon="2.409">
        <ele>110.9</ele>
        <time>2022-04-20T15:00:45Z</time>
      </trkpt>
      <trkpt lat="49.96552" lon="2.40899">
        <ele>110.9</ele>
        <time>2022-04-20T15:00:46Z</time>
      </trkpt>
      <trkpt lat="49.96552" lon="2.40898">
        <ele>110.9</ele>
        <time>2022-04-20T15:00:47Z</time>
      </trkpt>
      <trkpt lat="49.9655" lon="2.40896">
        <ele>110.9</ele>
        <time>2022-04-20T15:00:48Z</time>
      </trkpt>
      <trkpt lat="49.96549" lon="2.40895">
        <ele>110.9</ele>
        <time>2022-04-20T15:00:49Z</time>
      </trkpt>
      <trkpt lat="49.96548" lon="2.40894">
        <ele>110.9</ele>
        <time>2022-04-20T15:00:50Z</time>
      </trkpt>
      <trkpt lat="49.96546" lon="2.40892">
        <ele>110.9</ele>
        <time>2022-04-20T15:00:52Z</time>
      </trkpt>
      <trkpt lat="49.96545" lon="2.40891">
        <ele>110.9</ele>
        <time>2022-04-20T15:00:53Z</time>
      </trkpt>
      <trkpt lat="49.96544" lon="2.40889">
        <ele>110.9</ele>
        <time>2022-04-20T15:00:54Z</time>
      </trkpt>
      <trkpt lat="49.96543" lon="2.40887">
        <ele>111</ele>
        <time>2022-04-20T15:00:55Z</time>
      </trkpt>
      <trkpt lat="49.96542" lon="2.40886">
        <ele>111</ele>
        <time>2022-04-20T15:00:56Z</time>
      </trkpt>
      <trkpt lat="49.96541" lon="2.40886">
        <ele>111</ele>
        <time>2022-04-20T15:00:57Z</time>
      </trkpt>
      <trkpt lat="49.9654" lon="2.40883">
        <ele>111</ele>
        <time>2022-04-20T15:00:58Z</time>
      </trkpt>
      <trkpt lat="49.96539" lon="2.40882">
        <ele>111</ele>
        <time>2022-04-20T15:00:59Z</time>
      </trkpt>
      <trkpt lat="49.96539" lon="2.40881">
        <ele>111</ele>
        <time>2022-04-20T15:01:00Z</time>
      </trkpt>
      <trkpt lat="49.96538" lon="2.40879">
        <ele>111</ele>
        <time>2022-04-20T15:01:01Z</time>
      </trkpt>
      <trkpt lat="49.96537" lon="2.40878">
        <ele>111</ele>
        <time>2022-04-20T15:01:03Z</time>
      </trkpt>
      <trkpt lat="49.96537" lon="2.40877">
        <ele>111</ele>
        <time>2022-04-20T15:01:04Z</time>
      </trkpt>
      <trkpt lat="49.96536" lon="2.40875">
        <ele>111</ele>
        <time>2022-04-20T15:01:05Z</time>
      </trkpt>
      <trkpt lat="49.96535" lon="2.40874">
        <ele>111</ele>
        <time>2022-04-20T15:01:06Z</time>
      </trkpt>
      <trkpt lat="49.96535" lon="2.40872">
        <ele>111</ele>
        <time>2022-04-20T15:01:07Z</time>
      </trkpt>
      <trkpt lat="49.96534" lon="2.40869">
        <ele>111</ele>
        <time>2022-04-20T15:01:09Z</time>
      </trkpt>
      <trkpt lat="49.96533" lon="2.40868">
        <ele>111</ele>
        <time>2022-04-20T15:01:10Z</time>
      </trkpt>
      <trkpt lat="49.96533" lon="2.40868">
        <ele>111</ele>
        <time>2022-04-20T15:01:11Z</time>
      </trkpt>
      <trkpt lat="49.96532" lon="2.40866">
        <ele>111</ele>
        <time>2022-04-20T15:01:12Z</time>
      </trkpt>
      <trkpt lat="49.96531" lon="2.40865">
        <ele>111</ele>
        <time>2022-04-20T15:01:13Z</time>
      </trkpt>
      <trkpt lat="49.96531" lon="2.40864">
        <ele>111</ele>
        <time>2022-04-20T15:01:14Z</time>
      </trkpt>
      <trkpt lat="49.9653" lon="2.40862">
        <ele>111</ele>
        <time>2022-04-20T15:01:15Z</time>
      </trkpt>
      <trkpt lat="49.96529" lon="2.40861">
        <ele>111</ele>
        <time>2022-04-20T15:01:16Z</time>
      </trkpt>
      <trkpt lat="49.96529" lon="2.40859">
        <ele>111</ele>
        <time>2022-04-20T15:01:17Z</time>
      </trkpt>
      <trkpt lat="49.96528" lon="2.40858">
        <ele>111</ele>
        <time>2022-04-20T15:01:18Z</time>
      </trkpt>
      <trkpt lat="49.96527" lon="2.40856">
        <ele>111</ele>
        <time>2022-04-20T15:01:19Z</time>
      </trkpt>
      <trkpt lat="49.96527" lon="2.40855">
        <ele>111</ele>
        <time>2022-04-20T15:01:21Z</time>
      </trkpt>
      <trkpt lat="49.96526" lon="2.40853">
        <ele>111</ele>
        <time>2022-04-20T15:01:22Z</time>
      </trkpt>
      <trkpt lat="49.96525" lon="2.40852">
        <ele>111</ele>
        <time>2022-04-20T15:01:23Z</time>
      </trkpt>
      <trkpt lat="49.96524" lon="2.40851">
        <ele>111</ele>
        <time>2022-04-20T15:01:24Z</time>
      </trkpt>
      <trkpt lat="49.96523" lon="2.40849">
        <ele>111</ele>
        <time>2022-04-20T15:01:25Z</time>
      </trkpt>
      <trkpt lat="49.96522" lon="2.40848">
        <ele>111</ele>
        <time>2022-04-20T15:01:27Z</time>
      </trkpt>
      <trkpt lat="49.96521" lon="2.40847">
        <ele>111</ele>
        <time>2022-04-20T15:01:28Z</time>
      </trkpt>
      <trkpt lat="49.9652" lon="2.40846">
        <ele>111</ele>
        <time>2022-04-20T15:01:29Z</time>
      </trkpt>
      <trkpt lat="49.96519" lon="2.40846">
        <ele>111</ele>
        <time>2022-04-20T15:01:30Z</time>
      </trkpt>
      <trkpt lat="49.96518" lon="2.40845">
        <ele>111</ele>
        <time>2022-04-20T15:01:31Z</time>
      </trkpt>
      <trkpt lat="49.96517" lon="2.40844">
        <ele>111</ele>
        <time>2022-04-20T15:01:32Z</time>
      </trkpt>
      <trkpt lat="49.96516" lon="2.40844">
        <ele>111</ele>
        <time>2022-04-20T15:01:33Z</time>
      </trkpt>
      <trkpt lat="49.96515" lon="2.40843">
        <ele>111</ele>
        <time>2022-04-20T15:01:35Z</time>
      </trkpt>
      <trkpt lat="49.96515" lon="2.40841">
        <ele>111</ele>
        <time>2022-04-20T15:01:36Z</time>
      </trkpt>
      <trkpt lat="49.96514" lon="2.4084">
        <ele>111</ele>
        <time>2022-04-20T15:01:37Z</time>
      </trkpt>
      <trkpt lat="49.96514" lon="2.40838">
        <ele>111</ele>
        <time>2022-04-20T15:01:38Z</time>
      </trkpt>
      <trkpt lat="49.96514" lon="2.40836">
        <ele>111</ele>
        <time>2022-04-20T15:01:39Z</time>
      </trkpt>
      <trkpt lat="49.96514" lon="2.40834">
        <ele>111</ele>
        <time>2022-04-20T15:01:40Z</time>
      </trkpt>
      <trkpt lat="49.96515" lon="2.40831">
        <ele>111</ele>
        <time>2022-04-20T15:01:41Z</time>
      </trkpt>
      <trkpt lat="49.96515" lon="2.4083">
        <ele>110.9</ele>
        <time>2022-04-20T15:01:43Z</time>
      </trkpt>
      <trkpt lat="49.96515" lon="2.40829">
        <ele>110.9</ele>
        <time>2022-04-20T15:01:44Z</time>
      </trkpt>
      <trkpt lat="49.96516" lon="2.40825">
        <ele>110.9</ele>
        <time>2022-04-20T15:01:45Z</time>
      </trkpt>
      <trkpt lat="49.96517" lon="2.40824">
        <ele>110.9</ele>
        <time>2022-04-20T15:01:47Z</time>
      </trkpt>
      <trkpt lat="49.96517" lon="2.40822">
        <ele>110.9</ele>
        <time>2022-04-20T15:01:48Z</time>
      </trkpt>
      <trkpt lat="49.96518" lon="2.4082">
        <ele>110.9</ele>
        <time>2022-04-20T15:01:49Z</time>
      </trkpt>
      <trkpt lat="49.96518" lon="2.40819">
        <ele>110.9</ele>
        <time>2022-04-20T15:01:50Z</time>
      </trkpt>
      <trkpt lat="49.96518" lon="2.40817">
        <ele>110.9</ele>
        <time>2022-04-20T15:01:52Z</time>
      </trkpt>
      <trkpt lat="49.96519" lon="2.40815">
        <ele>110.9</ele>
        <time>2022-04-20T15:01:53Z</time>
      </trkpt>
      <trkpt lat="49.96519" lon="2.40813">
        <ele>110.9</ele>
        <time>2022-04-20T15:01:54Z</time>
      </trkpt>
      <trkpt lat="49.96519" lon="2.40812">
        <ele>110.9</ele>
        <time>2022-04-20T15:01:55Z</time>
      </trkpt>
      <trkpt lat="49.9652" lon="2.4081">
        <ele>110.9</ele>
        <time>2022-04-20T15:01:56Z</time>
      </trkpt>
      <trkpt lat="49.9652" lon="2.40808">
        <ele>110.9</ele>
        <time>2022-04-20T15:01:57Z</time>
      </trkpt>
      <trkpt lat="49.96521" lon="2.40805">
        <ele>110.9</ele>
        <time>2022-04-20T15:01:58Z</time>
      </trkpt>
      <trkpt lat="49.96521" lon="2.40804">
        <ele>110.9</ele>
        <time>2022-04-20T15:01:59Z</time>
      </trkpt>
      <trkpt lat="49.96522" lon="2.40802">
        <ele>110.8</ele>
        <time>2022-04-20T15:02:01Z</time>
      </trkpt>
      <trkpt lat="49.96522" lon="2.40801">
        <ele>110.8</ele>
        <time>2022-04-20T15:02:02Z</time>
      </trkpt>
      <trkpt lat="49.96522" lon="2.408">
        <ele>110.8</ele>
        <time>2022-04-20T15:02:03Z</time>
      </trkpt>
      <trkpt lat="49.96523" lon="2.40798">
        <ele>110.8</ele>
        <time>2022-04-20T15:02:04Z</time>
      </trkpt>
      <trkpt lat="49.96523" lon="2.40797">
        <ele>110.8</ele>
        <time>2022-04-20T15:02:05Z</time>
      </trkpt>
      <trkpt lat="49.96523" lon="2.40795">
        <ele>110.8</ele>
        <time>2022-04-20T15:02:06Z</time>
      </trkpt>
      <trkpt lat="49.96523" lon="2.40793">
        <ele>110.8</ele>
        <time>2022-04-20T15:02:07Z</time>
      </trkpt>
      <trkpt lat="49.96523" lon="2.40792">
        <ele>110.8</ele>
        <time>2022-04-20T15:02:09Z</time>
      </trkpt>
      <trkpt lat="49.96521" lon="2.40791">
        <ele>110.8</ele>
        <time>2022-04-20T15:02:10Z</time>
      </trkpt>
      <trkpt lat="49.96521" lon="2.40791">
        <ele>110.8</ele>
        <time>2022-04-20T15:02:11Z</time>
      </trkpt>
      <trkpt lat="49.9652" lon="2.40792">
        <ele>110.8</ele>
        <time>2022-04-20T15:02:12Z</time>
      </trkpt>
      <trkpt lat="49.9652" lon="2.40793">
        <ele>110.8</ele>
        <time>2022-04-20T15:02:13Z</time>
      </trkpt>
      <trkpt lat="49.96519" lon="2.40793">
        <ele>110.8</ele>
        <time>2022-04-20T15:02:14Z</time>
      </trkpt>
      <trkpt lat="49.96519" lon="2.40794">
        <ele>110.8</ele>
        <time>2022-04-20T15:02:15Z</time>
      </trkpt>
      <trkpt lat="49.96519" lon="2.40794">
        <ele>110.8</ele>
        <time>2022-04-20T15:02:16Z</time>
      </trkpt>
      <trkpt lat="49.96519" lon="2.40794">
        <ele>110.8</ele>
        <time>2022-04-20T15:02:17Z</time>
      </trkpt>
      <trkpt lat="49.96519" lon="2.40795">
        <ele>110.8</ele>
        <time>2022-04-20T15:02:18Z</time>
      </trkpt>
      <trkpt lat="49.96519" lon="2.40795">
        <ele>110.8</ele>
        <time>2022-04-20T15:02:19Z</time>
      </trkpt>
      <trkpt lat="49.96519" lon="2.40796">
        <ele>110.8</ele>
        <time>2022-04-20T15:02:20Z</time>
      </trkpt>
      <trkpt lat="49.96519" lon="2.40796">
        <ele>110.8</ele>
        <time>2022-04-20T15:02:21Z</time>
      </trkpt>
      <trkpt lat="49.96519" lon="2.40796">
        <ele>110.8</ele>
        <time>2022-04-20T15:02:22Z</time>
      </trkpt>
      <trkpt lat="49.96519" lon="2.40796">
        <ele>110.8</ele>
        <time>2022-04-20T15:02:23Z</time>
      </trkpt>
      <trkpt lat="49.96519" lon="2.40796">
        <ele>110.8</ele>
        <time>2022-04-20T15:02:24Z</time>
      </trkpt>
      <trkpt lat="49.96519" lon="2.40796">
        <ele>110.8</ele>
        <time>2022-04-20T15:02:25Z</time>
      </trkpt>
      <trkpt lat="49.96519" lon="2.40796">
        <ele>110.8</ele>
        <time>2022-04-20T15:02:26Z</time>
      </trkpt>
      <trkpt lat="49.96519" lon="2.40797">
        <ele>110.8</ele>
        <time>2022-04-20T15:02:27Z</time>
      </trkpt>
      <trkpt lat="49.96519" lon="2.40797">
        <ele>110.8</ele>
        <time>2022-04-20T15:02:28Z</time>
      </trkpt>
      <trkpt lat="49.96519" lon="2.40796">
        <ele>110.8</ele>
        <time>2022-04-20T15:02:29Z</time>
      </trkpt>
      <trkpt lat="49.96519" lon="2.40796">
        <ele>110.8</ele>
        <time>2022-04-20T15:02:30Z</time>
      </trkpt>
      <trkpt lat="49.96519" lon="2.40796">
        <ele>110.8</ele>
        <time>2022-04-20T15:02:31Z</time>
      </trkpt>
      <trkpt lat="49.96519" lon="2.40796">
        <ele>110.8</ele>
        <time>2022-04-20T15:02:32Z</time>
      </trkpt>
      <trkpt lat="49.96519" lon="2.40796">
        <ele>110.8</ele>
        <time>2022-04-20T15:02:33Z</time>
      </trkpt>
      <trkpt lat="49.96519" lon="2.40796">
        <ele>110.8</ele>
        <time>2022-04-20T15:02:34Z</time>
      </trkpt>
      <trkpt lat="49.96519" lon="2.40796">
        <ele>110.8</ele>
        <time>2022-04-20T15:02:35Z</time>
      </trkpt>
      <trkpt lat="49.96519" lon="2.40796">
        <ele>110.8</ele>
        <time>2022-04-20T15:02:36Z</time>
      </trkpt>
      <trkpt lat="49.96519" lon="2.40796">
        <ele>110.8</ele>
        <time>2022-04-20T15:02:37Z</time>
      </trkpt>
      <trkpt lat="49.96519" lon="2.40796">
        <ele>110.8</ele>
        <time>2022-04-20T15:02:38Z</time>
      </trkpt>
      <trkpt lat="49.96519" lon="2.40796">
        <ele>110.8</ele>
        <time>2022-04-20T15:02:39Z</time>
      </trkpt>
      <trkpt lat="49.96519" lon="2.40796">
        <ele>110.8</ele>
        <time>2022-04-20T15:02:40Z</time>
      </trkpt>
      <trkpt lat="49.96519" lon="2.40796">
        <ele>110.8</ele>
        <time>2022-04-20T15:02:41Z</time>
      </trkpt>
      <trkpt lat="49.96519" lon="2.40796">
        <ele>110.8</ele>
        <time>2022-04-20T15:02:42Z</time>
      </trkpt>
      <trkpt lat="49.96519" lon="2.40796">
        <ele>110.8</ele>
        <time>2022-04-20T15:02:43Z</time>
      </trkpt>
      <trkpt lat="49.96519" lon="2.40796">
        <ele>110.8</ele>
        <time>2022-04-20T15:02:44Z</time>
      </trkpt>
      <trkpt lat="49.96519" lon="2.40796">
        <ele>110.8</ele>
        <time>2022-04-20T15:02:45Z</time>
      </trkpt>
      <trkpt lat="49.96519" lon="2.40796">
        <ele>110.8</ele>
        <time>2022-04-20T15:02:46Z</time>
      </trkpt>
      <trkpt lat="49.96519" lon="2.40796">
        <ele>110.8</ele>
        <time>2022-04-20T15:02:47Z</time>
      </trkpt>
      <trkpt lat="49.96519" lon="2.40796">
        <ele>110.8</ele>
        <time>2022-04-20T15:02:48Z</time>
      </trkpt>
      <trkpt lat="49.96519" lon="2.40796">
        <ele>110.8</ele>
        <time>2022-04-20T15:02:49Z</time>
      </trkpt>
      <trkpt lat="49.96519" lon="2.40796">
        <ele>110.8</ele>
        <time>2022-04-20T15:02:50Z</time>
      </trkpt>
      <trkpt lat="49.96519" lon="2.40796">
        <ele>110.8</ele>
        <time>2022-04-20T15:02:51Z</time>
      </trkpt>
      <trkpt lat="49.96519" lon="2.40796">
        <ele>110.8</ele>
        <time>2022-04-20T15:02:52Z</time>
      </trkpt>
      <trkpt lat="49.96519" lon="2.40796">
        <ele>110.8</ele>
        <time>2022-04-20T15:02:53Z</time>
      </trkpt>
      <trkpt lat="49.96519" lon="2.40796">
        <ele>110.8</ele>
        <time>2022-04-20T15:02:54Z</time>
      </trkpt>
      <trkpt lat="49.96519" lon="2.40796">
        <ele>110.8</ele>
        <time>2022-04-20T15:02:55Z</time>
      </trkpt>
      <trkpt lat="49.96519" lon="2.40796">
        <ele>110.8</ele>
        <time>2022-04-20T15:02:56Z</time>
      </trkpt>
      <trkpt lat="49.96519" lon="2.40796">
        <ele>110.8</ele>
        <time>2022-04-20T15:02:57Z</time>
      </trkpt>
      <trkpt lat="49.96519" lon="2.40796">
        <ele>110.8</ele>
        <time>2022-04-20T15:02:58Z</time>
      </trkpt>
      <trkpt lat="49.96519" lon="2.40796">
        <ele>110.8</ele>
        <time>2022-04-20T15:02:59Z</time>
      </trkpt>
      <trkpt lat="49.96519" lon="2.40796">
        <ele>110.8</ele>
        <time>2022-04-20T15:03:00Z</time>
      </trkpt>
      <trkpt lat="49.96519" lon="2.40796">
        <ele>110.8</ele>
        <time>2022-04-20T15:03:01Z</time>
      </trkpt>
      <trkpt lat="49.96519" lon="2.40796">
        <ele>110.8</ele>
        <time>2022-04-20T15:03:02Z</time>
      </trkpt>
      <trkpt lat="49.96519" lon="2.40796">
        <ele>110.8</ele>
        <time>2022-04-20T15:03:03Z</time>
      </trkpt>
      <trkpt lat="49.96519" lon="2.40796">
        <ele>110.8</ele>
        <time>2022-04-20T15:03:04Z</time>
      </trkpt>
      <trkpt lat="49.96519" lon="2.40796">
        <ele>110.8</ele>
        <time>2022-04-20T15:03:05Z</time>
      </trkpt>
      <trkpt lat="49.96519" lon="2.40796">
        <ele>110.8</ele>
        <time>2022-04-20T15:03:06Z</time>
      </trkpt>
      <trkpt lat="49.96519" lon="2.40796">
        <ele>110.8</ele>
        <time>2022-04-20T15:03:07Z</time>
      </trkpt>
      <trkpt lat="49.96519" lon="2.40796">
        <ele>110.8</ele>
        <time>2022-04-20T15:03:08Z</time>
      </trkpt>
      <trkpt lat="49.96519" lon="2.40796">
        <ele>110.8</ele>
        <time>2022-04-20T15:03:09Z</time>
      </trkpt>
      <trkpt lat="49.96519" lon="2.40796">
        <ele>110.8</ele>
        <time>2022-04-20T15:03:10Z</time>
      </trkpt>
      <trkpt lat="49.96519" lon="2.40796">
        <ele>110.8</ele>
        <time>2022-04-20T15:03:11Z</time>
      </trkpt>
      <trkpt lat="49.96519" lon="2.40796">
        <ele>110.8</ele>
        <time>2022-04-20T15:03:12Z</time>
      </trkpt>
      <trkpt lat="49.96519" lon="2.40796">
        <ele>110.8</ele>
        <time>2022-04-20T15:03:13Z</time>
      </trkpt>
      <trkpt lat="49.96519" lon="2.40796">
        <ele>110.8</ele>
        <time>2022-04-20T15:03:14Z</time>
      </trkpt>
      <trkpt lat="49.96519" lon="2.40796">
        <ele>110.8</ele>
        <time>2022-04-20T15:03:15Z</time>
      </trkpt>
      <trkpt lat="49.96519" lon="2.40796">
        <ele>110.8</ele>
        <time>2022-04-20T15:03:16Z</time>
      </trkpt>
      <trkpt lat="49.96519" lon="2.40796">
        <ele>110.8</ele>
        <time>2022-04-20T15:03:17Z</time>
      </trkpt>
      <trkpt lat="49.96519" lon="2.40796">
        <ele>110.8</ele>
        <time>2022-04-20T15:03:18Z</time>
      </trkpt>
      <trkpt lat="49.96519" lon="2.40796">
        <ele>110.8</ele>
        <time>2022-04-20T15:03:19Z</time>
      </trkpt>
      <trkpt lat="49.96519" lon="2.40796">
        <ele>110.8</ele>
        <time>2022-04-20T15:03:20Z</time>
      </trkpt>
      <trkpt lat="49.96519" lon="2.40796">
        <ele>110.8</ele>
        <time>2022-04-20T15:03:21Z</time>
      </trkpt>
      <trkpt lat="49.96519" lon="2.40796">
        <ele>110.8</ele>
        <time>2022-04-20T15:03:22Z</time>
      </trkpt>
      <trkpt lat="49.96519" lon="2.40796">
        <ele>110.8</ele>
        <time>2022-04-20T15:03:23Z</time>
      </trkpt>
      <trkpt lat="49.96519" lon="2.40796">
        <ele>110.8</ele>
        <time>2022-04-20T15:03:24Z</time>
      </trkpt>
      <trkpt lat="49.96519" lon="2.40796">
        <ele>110.8</ele>
        <time>2022-04-20T15:03:25Z</time>
      </trkpt>
      <trkpt lat="49.96519" lon="2.40796">
        <ele>110.8</ele>
        <time>2022-04-20T15:03:26Z</time>
      </trkpt>
      <trkpt lat="49.96519" lon="2.40796">
        <ele>110.8</ele>
        <time>2022-04-20T15:03:27Z</time>
      </trkpt>
      <trkpt lat="49.96519" lon="2.40796">
        <ele>110.8</ele>
        <time>2022-04-20T15:03:28Z</time>
      </trkpt>
      <trkpt lat="49.96519" lon="2.40796">
        <ele>110.8</ele>
        <time>2022-04-20T15:03:29Z</time>
      </trkpt>
      <trkpt lat="49.96519" lon="2.40796">
        <ele>110.8</ele>
        <time>2022-04-20T15:03:30Z</time>
      </trkpt>
      <trkpt lat="49.96519" lon="2.40796">
        <ele>110.8</ele>
        <time>2022-04-20T15:03:31Z</time>
      </trkpt>
      <trkpt lat="49.96519" lon="2.40796">
        <ele>110.8</ele>
        <time>2022-04-20T15:03:32Z</time>
      </trkpt>
      <trkpt lat="49.96519" lon="2.40796">
        <ele>110.8</ele>
        <time>2022-04-20T15:03:33Z</time>
      </trkpt>
      <trkpt lat="49.96519" lon="2.40796">
        <ele>110.8</ele>
        <time>2022-04-20T15:03:34Z</time>
      </trkpt>
      <trkpt lat="49.96519" lon="2.40796">
        <ele>110.8</ele>
        <time>2022-04-20T15:03:35Z</time>
      </trkpt>
      <trkpt lat="49.96519" lon="2.40796">
        <ele>110.8</ele>
        <time>2022-04-20T15:03:36Z</time>
      </trkpt>
      <trkpt lat="49.96519" lon="2.40796">
        <ele>110.8</ele>
        <time>2022-04-20T15:03:37Z</time>
      </trkpt>
      <trkpt lat="49.96519" lon="2.40796">
        <ele>110.8</ele>
        <time>2022-04-20T15:03:38Z</time>
      </trkpt>
      <trkpt lat="49.96519" lon="2.40796">
        <ele>110.8</ele>
        <time>2022-04-20T15:03:39Z</time>
      </trkpt>
      <trkpt lat="49.96519" lon="2.40796">
        <ele>110.8</ele>
        <time>2022-04-20T15:03:40Z</time>
      </trkpt>
      <trkpt lat="49.96519" lon="2.40796">
        <ele>110.8</ele>
        <time>2022-04-20T15:03:41Z</time>
      </trkpt>
      <trkpt lat="49.96519" lon="2.40796">
        <ele>110.8</ele>
        <time>2022-04-20T15:03:42Z</time>
      </trkpt>
      <trkpt lat="49.96519" lon="2.40796">
        <ele>110.8</ele>
        <time>2022-04-20T15:03:43Z</time>
      </trkpt>
      <trkpt lat="49.96519" lon="2.40796">
        <ele>110.8</ele>
        <time>2022-04-20T15:03:44Z</time>
      </trkpt>
      <trkpt lat="49.96519" lon="2.40796">
        <ele>110.8</ele>
        <time>2022-04-20T15:03:45Z</time>
      </trkpt>
      <trkpt lat="49.96519" lon="2.40796">
        <ele>110.8</ele>
        <time>2022-04-20T15:03:46Z</time>
      </trkpt>
      <trkpt lat="49.96519" lon="2.40796">
        <ele>110.8</ele>
        <time>2022-04-20T15:03:47Z</time>
      </trkpt>
      <trkpt lat="49.96519" lon="2.40796">
        <ele>110.8</ele>
        <time>2022-04-20T15:03:48Z</time>
      </trkpt>
      <trkpt lat="49.96519" lon="2.40796">
        <ele>110.8</ele>
        <time>2022-04-20T15:03:49Z</time>
      </trkpt>
      <trkpt lat="49.96519" lon="2.40796">
        <ele>110.8</ele>
        <time>2022-04-20T15:03:50Z</time>
      </trkpt>
      <trkpt lat="49.96519" lon="2.40796">
        <ele>110.8</ele>
        <time>2022-04-20T15:03:51Z</time>
      </trkpt>
      <trkpt lat="49.96519" lon="2.40796">
        <ele>110.8</ele>
        <time>2022-04-20T15:03:52Z</time>
      </trkpt>
      <trkpt lat="49.96519" lon="2.40796">
        <ele>110.8</ele>
        <time>2022-04-20T15:03:53Z</time>
      </trkpt>
      <trkpt lat="49.96519" lon="2.40796">
        <ele>110.8</ele>
        <time>2022-04-20T15:03:54Z</time>
      </trkpt>
      <trkpt lat="49.96519" lon="2.40796">
        <ele>110.8</ele>
        <time>2022-04-20T15:03:55Z</time>
      </trkpt>
      <trkpt lat="49.96519" lon="2.40796">
        <ele>110.8</ele>
        <time>2022-04-20T15:03:56Z</time>
      </trkpt>
      <trkpt lat="49.96519" lon="2.40796">
        <ele>110.8</ele>
        <time>2022-04-20T15:03:57Z</time>
      </trkpt>
      <trkpt lat="49.96519" lon="2.40796">
        <ele>110.8</ele>
        <time>2022-04-20T15:03:58Z</time>
      </trkpt>
    </trkseg>
  </trk>
</gpx>